<?xml version="1.0" encoding="UTF-8" standalone="no" ?>
<gpx xmlns="http://www.topografix.com/GPX/1/1" xmlns:xsi="http://www.w3.org/2001/XMLSchema-instance" xsi:schemaLocation="http://www.topografix.com/GPX/1/1 http://www.topografix.com/GPX/1/1/gpx.xsd" version="1.1" creator="VisuGPX - https://www.visugpx.com">
  <metadata>
    <name>GR800 J1 Amiens, Picquigny</name>
    <desc><![CDATA[Dreuil, Saint-Sauveur
un bugg de lissage]]></desc>
  </metadata>
  <trk>
    <name><![CDATA[GR800 J1 Amiens, Picquigny_1]]></name>
    <trkseg>
      <trkpt lat="49.8793" lon="2.31003">
        <ele>60</ele>
        <time>2022-04-11T07:30:33Z</time>
      </trkpt>
      <trkpt lat="49.8793" lon="2.31004">
        <ele>60</ele>
        <time>2022-04-11T07:30:34Z</time>
      </trkpt>
      <trkpt lat="49.8793" lon="2.31006">
        <ele>60</ele>
        <time>2022-04-11T07:30:35Z</time>
      </trkpt>
      <trkpt lat="49.8793" lon="2.31007">
        <ele>60</ele>
        <time>2022-04-11T07:30:36Z</time>
      </trkpt>
      <trkpt lat="49.87931" lon="2.31007">
        <ele>60</ele>
        <time>2022-04-11T07:30:37Z</time>
      </trkpt>
      <trkpt lat="49.87932" lon="2.31008">
        <ele>60</ele>
        <time>2022-04-11T07:30:38Z</time>
      </trkpt>
      <trkpt lat="49.87933" lon="2.31007">
        <ele>60</ele>
        <time>2022-04-11T07:30:40Z</time>
      </trkpt>
      <trkpt lat="49.87935" lon="2.31006">
        <ele>60.1</ele>
        <time>2022-04-11T07:30:41Z</time>
      </trkpt>
      <trkpt lat="49.87936" lon="2.31006">
        <ele>60.1</ele>
        <time>2022-04-11T07:30:42Z</time>
      </trkpt>
      <trkpt lat="49.87937" lon="2.31006">
        <ele>60.1</ele>
        <time>2022-04-11T07:30:43Z</time>
      </trkpt>
      <trkpt lat="49.87938" lon="2.31005">
        <ele>60.1</ele>
        <time>2022-04-11T07:30:45Z</time>
      </trkpt>
      <trkpt lat="49.87939" lon="2.31004">
        <ele>60.1</ele>
        <time>2022-04-11T07:30:46Z</time>
      </trkpt>
      <trkpt lat="49.87941" lon="2.31002">
        <ele>60.1</ele>
        <time>2022-04-11T07:30:47Z</time>
      </trkpt>
      <trkpt lat="49.87942" lon="2.31002">
        <ele>60.1</ele>
        <time>2022-04-11T07:30:48Z</time>
      </trkpt>
      <trkpt lat="49.87944" lon="2.31001">
        <ele>60.2</ele>
        <time>2022-04-11T07:30:49Z</time>
      </trkpt>
      <trkpt lat="49.87945" lon="2.31">
        <ele>60.2</ele>
        <time>2022-04-11T07:30:51Z</time>
      </trkpt>
      <trkpt lat="49.87946" lon="2.31">
        <ele>60.2</ele>
        <time>2022-04-11T07:30:52Z</time>
      </trkpt>
      <trkpt lat="49.87946" lon="2.30999">
        <ele>60.2</ele>
        <time>2022-04-11T07:30:53Z</time>
      </trkpt>
      <trkpt lat="49.87947" lon="2.30998">
        <ele>60.2</ele>
        <time>2022-04-11T07:30:54Z</time>
      </trkpt>
      <trkpt lat="49.87949" lon="2.30998">
        <ele>60.2</ele>
        <time>2022-04-11T07:30:55Z</time>
      </trkpt>
      <trkpt lat="49.8795" lon="2.30997">
        <ele>60.2</ele>
        <time>2022-04-11T07:30:56Z</time>
      </trkpt>
      <trkpt lat="49.87951" lon="2.30997">
        <ele>60.2</ele>
        <time>2022-04-11T07:30:57Z</time>
      </trkpt>
      <trkpt lat="49.8795" lon="2.30998">
        <ele>60.2</ele>
        <time>2022-04-11T07:30:58Z</time>
      </trkpt>
      <trkpt lat="49.8795" lon="2.31">
        <ele>60.2</ele>
        <time>2022-04-11T07:30:59Z</time>
      </trkpt>
      <trkpt lat="49.87951" lon="2.31">
        <ele>60.3</ele>
        <time>2022-04-11T07:31:00Z</time>
      </trkpt>
      <trkpt lat="49.87952" lon="2.30999">
        <ele>60.3</ele>
        <time>2022-04-11T07:31:01Z</time>
      </trkpt>
      <trkpt lat="49.87953" lon="2.30999">
        <ele>60.3</ele>
        <time>2022-04-11T07:31:03Z</time>
      </trkpt>
      <trkpt lat="49.87953" lon="2.30999">
        <ele>60.3</ele>
        <time>2022-04-11T07:31:04Z</time>
      </trkpt>
      <trkpt lat="49.87954" lon="2.30999">
        <ele>60.3</ele>
        <time>2022-04-11T07:31:05Z</time>
      </trkpt>
      <trkpt lat="49.87955" lon="2.30998">
        <ele>60.3</ele>
        <time>2022-04-11T07:31:06Z</time>
      </trkpt>
      <trkpt lat="49.87956" lon="2.30997">
        <ele>60.3</ele>
        <time>2022-04-11T07:31:08Z</time>
      </trkpt>
      <trkpt lat="49.87958" lon="2.30996">
        <ele>60.3</ele>
        <time>2022-04-11T07:31:09Z</time>
      </trkpt>
      <trkpt lat="49.87959" lon="2.30996">
        <ele>60.4</ele>
        <time>2022-04-11T07:31:10Z</time>
      </trkpt>
      <trkpt lat="49.87961" lon="2.30994">
        <ele>60.4</ele>
        <time>2022-04-11T07:31:11Z</time>
      </trkpt>
      <trkpt lat="49.87962" lon="2.30993">
        <ele>60.4</ele>
        <time>2022-04-11T07:31:13Z</time>
      </trkpt>
      <trkpt lat="49.87962" lon="2.30992">
        <ele>60.4</ele>
        <time>2022-04-11T07:31:14Z</time>
      </trkpt>
      <trkpt lat="49.87963" lon="2.30991">
        <ele>60.4</ele>
        <time>2022-04-11T07:31:15Z</time>
      </trkpt>
      <trkpt lat="49.87964" lon="2.30992">
        <ele>60.4</ele>
        <time>2022-04-11T07:31:17Z</time>
      </trkpt>
      <trkpt lat="49.87966" lon="2.30994">
        <ele>60.4</ele>
        <time>2022-04-11T07:31:18Z</time>
      </trkpt>
      <trkpt lat="49.87967" lon="2.30995">
        <ele>60.5</ele>
        <time>2022-04-11T07:31:19Z</time>
      </trkpt>
      <trkpt lat="49.87969" lon="2.30994">
        <ele>60.5</ele>
        <time>2022-04-11T07:31:20Z</time>
      </trkpt>
      <trkpt lat="49.8797" lon="2.30993">
        <ele>60.5</ele>
        <time>2022-04-11T07:31:21Z</time>
      </trkpt>
      <trkpt lat="49.87972" lon="2.30991">
        <ele>60.5</ele>
        <time>2022-04-11T07:31:23Z</time>
      </trkpt>
      <trkpt lat="49.87973" lon="2.3099">
        <ele>60.5</ele>
        <time>2022-04-11T07:31:24Z</time>
      </trkpt>
      <trkpt lat="49.87974" lon="2.30989">
        <ele>60.6</ele>
        <time>2022-04-11T07:31:25Z</time>
      </trkpt>
      <trkpt lat="49.87975" lon="2.30988">
        <ele>60.6</ele>
        <time>2022-04-11T07:31:26Z</time>
      </trkpt>
      <trkpt lat="49.87977" lon="2.30987">
        <ele>60.6</ele>
        <time>2022-04-11T07:31:27Z</time>
      </trkpt>
      <trkpt lat="49.87978" lon="2.30986">
        <ele>60.6</ele>
        <time>2022-04-11T07:31:28Z</time>
      </trkpt>
      <trkpt lat="49.8798" lon="2.30986">
        <ele>60.6</ele>
        <time>2022-04-11T07:31:29Z</time>
      </trkpt>
      <trkpt lat="49.87981" lon="2.30985">
        <ele>60.6</ele>
        <time>2022-04-11T07:31:30Z</time>
      </trkpt>
      <trkpt lat="49.87982" lon="2.30984">
        <ele>60.6</ele>
        <time>2022-04-11T07:31:31Z</time>
      </trkpt>
      <trkpt lat="49.87984" lon="2.30982">
        <ele>60.6</ele>
        <time>2022-04-11T07:31:32Z</time>
      </trkpt>
      <trkpt lat="49.87985" lon="2.30981">
        <ele>60.7</ele>
        <time>2022-04-11T07:31:33Z</time>
      </trkpt>
      <trkpt lat="49.87986" lon="2.3098">
        <ele>60.7</ele>
        <time>2022-04-11T07:31:35Z</time>
      </trkpt>
      <trkpt lat="49.87987" lon="2.30979">
        <ele>60.7</ele>
        <time>2022-04-11T07:31:36Z</time>
      </trkpt>
      <trkpt lat="49.87987" lon="2.3098">
        <ele>60.7</ele>
        <time>2022-04-11T07:31:37Z</time>
      </trkpt>
      <trkpt lat="49.87987" lon="2.30979">
        <ele>60.7</ele>
        <time>2022-04-11T07:31:38Z</time>
      </trkpt>
      <trkpt lat="49.87986" lon="2.30977">
        <ele>60.7</ele>
        <time>2022-04-11T07:31:39Z</time>
      </trkpt>
      <trkpt lat="49.87987" lon="2.30975">
        <ele>60.7</ele>
        <time>2022-04-11T07:31:41Z</time>
      </trkpt>
      <trkpt lat="49.87988" lon="2.30973">
        <ele>60.7</ele>
        <time>2022-04-11T07:31:42Z</time>
      </trkpt>
      <trkpt lat="49.87988" lon="2.30971">
        <ele>60.7</ele>
        <time>2022-04-11T07:31:43Z</time>
      </trkpt>
      <trkpt lat="49.87989" lon="2.30971">
        <ele>60.7</ele>
        <time>2022-04-11T07:31:44Z</time>
      </trkpt>
      <trkpt lat="49.8799" lon="2.3097">
        <ele>60.8</ele>
        <time>2022-04-11T07:31:45Z</time>
      </trkpt>
      <trkpt lat="49.87991" lon="2.30967">
        <ele>60.8</ele>
        <time>2022-04-11T07:31:46Z</time>
      </trkpt>
      <trkpt lat="49.87991" lon="2.30966">
        <ele>60.8</ele>
        <time>2022-04-11T07:31:47Z</time>
      </trkpt>
      <trkpt lat="49.87991" lon="2.30964">
        <ele>60.8</ele>
        <time>2022-04-11T07:31:48Z</time>
      </trkpt>
      <trkpt lat="49.8799" lon="2.3096">
        <ele>60.9</ele>
        <time>2022-04-11T07:31:49Z</time>
      </trkpt>
      <trkpt lat="49.87989" lon="2.30957">
        <ele>60.9</ele>
        <time>2022-04-11T07:31:51Z</time>
      </trkpt>
      <trkpt lat="49.8799" lon="2.30953">
        <ele>60.9</ele>
        <time>2022-04-11T07:31:52Z</time>
      </trkpt>
      <trkpt lat="49.8799" lon="2.30951">
        <ele>60.9</ele>
        <time>2022-04-11T07:31:53Z</time>
      </trkpt>
      <trkpt lat="49.87992" lon="2.30947">
        <ele>61</ele>
        <time>2022-04-11T07:31:54Z</time>
      </trkpt>
      <trkpt lat="49.87992" lon="2.30946">
        <ele>61</ele>
        <time>2022-04-11T07:31:55Z</time>
      </trkpt>
      <trkpt lat="49.87993" lon="2.30943">
        <ele>61</ele>
        <time>2022-04-11T07:31:56Z</time>
      </trkpt>
      <trkpt lat="49.87994" lon="2.30941">
        <ele>61</ele>
        <time>2022-04-11T07:31:58Z</time>
      </trkpt>
      <trkpt lat="49.87995" lon="2.30939">
        <ele>61.1</ele>
        <time>2022-04-11T07:31:59Z</time>
      </trkpt>
      <trkpt lat="49.87995" lon="2.30937">
        <ele>61.1</ele>
        <time>2022-04-11T07:32:00Z</time>
      </trkpt>
      <trkpt lat="49.87996" lon="2.30935">
        <ele>61.1</ele>
        <time>2022-04-11T07:32:01Z</time>
      </trkpt>
      <trkpt lat="49.87997" lon="2.30934">
        <ele>61.1</ele>
        <time>2022-04-11T07:32:02Z</time>
      </trkpt>
      <trkpt lat="49.87998" lon="2.30933">
        <ele>61.1</ele>
        <time>2022-04-11T07:32:03Z</time>
      </trkpt>
      <trkpt lat="49.87999" lon="2.30932">
        <ele>61.2</ele>
        <time>2022-04-11T07:32:04Z</time>
      </trkpt>
      <trkpt lat="49.88001" lon="2.30929">
        <ele>61.2</ele>
        <time>2022-04-11T07:32:06Z</time>
      </trkpt>
      <trkpt lat="49.88002" lon="2.30928">
        <ele>61.2</ele>
        <time>2022-04-11T07:32:07Z</time>
      </trkpt>
      <trkpt lat="49.88003" lon="2.30927">
        <ele>61.2</ele>
        <time>2022-04-11T07:32:08Z</time>
      </trkpt>
      <trkpt lat="49.88004" lon="2.30927">
        <ele>61.2</ele>
        <time>2022-04-11T07:32:09Z</time>
      </trkpt>
      <trkpt lat="49.88005" lon="2.30927">
        <ele>61.2</ele>
        <time>2022-04-11T07:32:10Z</time>
      </trkpt>
      <trkpt lat="49.88006" lon="2.30927">
        <ele>61.2</ele>
        <time>2022-04-11T07:32:11Z</time>
      </trkpt>
      <trkpt lat="49.88006" lon="2.30925">
        <ele>61.2</ele>
        <time>2022-04-11T07:32:13Z</time>
      </trkpt>
      <trkpt lat="49.88004" lon="2.30923">
        <ele>61.3</ele>
        <time>2022-04-11T07:32:14Z</time>
      </trkpt>
      <trkpt lat="49.88003" lon="2.30923">
        <ele>61.3</ele>
        <time>2022-04-11T07:32:15Z</time>
      </trkpt>
      <trkpt lat="49.88003" lon="2.30922">
        <ele>61.3</ele>
        <time>2022-04-11T07:32:16Z</time>
      </trkpt>
      <trkpt lat="49.88002" lon="2.3092">
        <ele>61.3</ele>
        <time>2022-04-11T07:32:17Z</time>
      </trkpt>
      <trkpt lat="49.88002" lon="2.30918">
        <ele>61.4</ele>
        <time>2022-04-11T07:32:18Z</time>
      </trkpt>
      <trkpt lat="49.88001" lon="2.30916">
        <ele>61.4</ele>
        <time>2022-04-11T07:32:19Z</time>
      </trkpt>
      <trkpt lat="49.88001" lon="2.30914">
        <ele>61.4</ele>
        <time>2022-04-11T07:32:20Z</time>
      </trkpt>
      <trkpt lat="49.88" lon="2.30913">
        <ele>61.4</ele>
        <time>2022-04-11T07:32:21Z</time>
      </trkpt>
      <trkpt lat="49.88" lon="2.30912">
        <ele>61.4</ele>
        <time>2022-04-11T07:32:22Z</time>
      </trkpt>
      <trkpt lat="49.87999" lon="2.3091">
        <ele>61.4</ele>
        <time>2022-04-11T07:32:24Z</time>
      </trkpt>
      <trkpt lat="49.87999" lon="2.30909">
        <ele>61.4</ele>
        <time>2022-04-11T07:32:25Z</time>
      </trkpt>
      <trkpt lat="49.87999" lon="2.30908">
        <ele>61.5</ele>
        <time>2022-04-11T07:32:26Z</time>
      </trkpt>
      <trkpt lat="49.87999" lon="2.30908">
        <ele>61.5</ele>
        <time>2022-04-11T07:32:27Z</time>
      </trkpt>
      <trkpt lat="49.87998" lon="2.30906">
        <ele>61.5</ele>
        <time>2022-04-11T07:32:28Z</time>
      </trkpt>
      <trkpt lat="49.87998" lon="2.30904">
        <ele>61.5</ele>
        <time>2022-04-11T07:32:29Z</time>
      </trkpt>
      <trkpt lat="49.87998" lon="2.30903">
        <ele>61.5</ele>
        <time>2022-04-11T07:32:30Z</time>
      </trkpt>
      <trkpt lat="49.87998" lon="2.30902">
        <ele>61.5</ele>
        <time>2022-04-11T07:32:31Z</time>
      </trkpt>
      <trkpt lat="49.87998" lon="2.309">
        <ele>61.5</ele>
        <time>2022-04-11T07:32:32Z</time>
      </trkpt>
      <trkpt lat="49.87997" lon="2.30898">
        <ele>61.5</ele>
        <time>2022-04-11T07:32:34Z</time>
      </trkpt>
      <trkpt lat="49.87996" lon="2.30896">
        <ele>61.6</ele>
        <time>2022-04-11T07:32:35Z</time>
      </trkpt>
      <trkpt lat="49.87996" lon="2.30894">
        <ele>61.6</ele>
        <time>2022-04-11T07:32:36Z</time>
      </trkpt>
      <trkpt lat="49.87995" lon="2.30892">
        <ele>61.6</ele>
        <time>2022-04-11T07:32:37Z</time>
      </trkpt>
      <trkpt lat="49.87995" lon="2.3089">
        <ele>61.6</ele>
        <time>2022-04-11T07:32:38Z</time>
      </trkpt>
      <trkpt lat="49.87994" lon="2.30885">
        <ele>61.7</ele>
        <time>2022-04-11T07:32:39Z</time>
      </trkpt>
      <trkpt lat="49.87993" lon="2.30883">
        <ele>61.7</ele>
        <time>2022-04-11T07:32:40Z</time>
      </trkpt>
      <trkpt lat="49.87993" lon="2.3088">
        <ele>61.7</ele>
        <time>2022-04-11T07:32:41Z</time>
      </trkpt>
      <trkpt lat="49.87992" lon="2.30876">
        <ele>61.8</ele>
        <time>2022-04-11T07:32:43Z</time>
      </trkpt>
      <trkpt lat="49.87992" lon="2.30873">
        <ele>61.8</ele>
        <time>2022-04-11T07:32:44Z</time>
      </trkpt>
      <trkpt lat="49.87992" lon="2.30871">
        <ele>61.8</ele>
        <time>2022-04-11T07:32:45Z</time>
      </trkpt>
      <trkpt lat="49.87991" lon="2.3087">
        <ele>61.8</ele>
        <time>2022-04-11T07:32:46Z</time>
      </trkpt>
      <trkpt lat="49.87991" lon="2.30867">
        <ele>61.9</ele>
        <time>2022-04-11T07:32:47Z</time>
      </trkpt>
      <trkpt lat="49.8799" lon="2.30865">
        <ele>61.9</ele>
        <time>2022-04-11T07:32:48Z</time>
      </trkpt>
      <trkpt lat="49.8799" lon="2.30862">
        <ele>61.9</ele>
        <time>2022-04-11T07:32:49Z</time>
      </trkpt>
      <trkpt lat="49.87989" lon="2.30861">
        <ele>61.9</ele>
        <time>2022-04-11T07:32:50Z</time>
      </trkpt>
      <trkpt lat="49.87989" lon="2.30859">
        <ele>61.9</ele>
        <time>2022-04-11T07:32:51Z</time>
      </trkpt>
      <trkpt lat="49.87988" lon="2.30857">
        <ele>62</ele>
        <time>2022-04-11T07:32:52Z</time>
      </trkpt>
      <trkpt lat="49.87987" lon="2.30854">
        <ele>62</ele>
        <time>2022-04-11T07:32:54Z</time>
      </trkpt>
      <trkpt lat="49.87986" lon="2.30852">
        <ele>62</ele>
        <time>2022-04-11T07:32:55Z</time>
      </trkpt>
      <trkpt lat="49.87986" lon="2.3085">
        <ele>62.1</ele>
        <time>2022-04-11T07:32:56Z</time>
      </trkpt>
      <trkpt lat="49.87985" lon="2.30848">
        <ele>62.1</ele>
        <time>2022-04-11T07:32:57Z</time>
      </trkpt>
      <trkpt lat="49.87984" lon="2.30846">
        <ele>62.1</ele>
        <time>2022-04-11T07:32:58Z</time>
      </trkpt>
      <trkpt lat="49.87984" lon="2.30844">
        <ele>62.1</ele>
        <time>2022-04-11T07:32:59Z</time>
      </trkpt>
      <trkpt lat="49.87983" lon="2.30842">
        <ele>62.2</ele>
        <time>2022-04-11T07:33:00Z</time>
      </trkpt>
      <trkpt lat="49.87982" lon="2.30838">
        <ele>62.2</ele>
        <time>2022-04-11T07:33:01Z</time>
      </trkpt>
      <trkpt lat="49.87981" lon="2.30837">
        <ele>62.2</ele>
        <time>2022-04-11T07:33:02Z</time>
      </trkpt>
      <trkpt lat="49.87981" lon="2.30834">
        <ele>62.2</ele>
        <time>2022-04-11T07:33:03Z</time>
      </trkpt>
      <trkpt lat="49.8798" lon="2.30832">
        <ele>62.3</ele>
        <time>2022-04-11T07:33:04Z</time>
      </trkpt>
      <trkpt lat="49.87979" lon="2.3083">
        <ele>62.3</ele>
        <time>2022-04-11T07:33:05Z</time>
      </trkpt>
      <trkpt lat="49.87979" lon="2.30828">
        <ele>62.3</ele>
        <time>2022-04-11T07:33:07Z</time>
      </trkpt>
      <trkpt lat="49.87978" lon="2.30826">
        <ele>62.4</ele>
        <time>2022-04-11T07:33:08Z</time>
      </trkpt>
      <trkpt lat="49.87978" lon="2.30824">
        <ele>62.4</ele>
        <time>2022-04-11T07:33:09Z</time>
      </trkpt>
      <trkpt lat="49.87977" lon="2.30821">
        <ele>62.4</ele>
        <time>2022-04-11T07:33:10Z</time>
      </trkpt>
      <trkpt lat="49.87976" lon="2.30819">
        <ele>62.4</ele>
        <time>2022-04-11T07:33:11Z</time>
      </trkpt>
      <trkpt lat="49.87976" lon="2.30818">
        <ele>62.5</ele>
        <time>2022-04-11T07:33:12Z</time>
      </trkpt>
      <trkpt lat="49.87975" lon="2.30816">
        <ele>62.5</ele>
        <time>2022-04-11T07:33:13Z</time>
      </trkpt>
      <trkpt lat="49.87975" lon="2.30814">
        <ele>62.5</ele>
        <time>2022-04-11T07:33:15Z</time>
      </trkpt>
      <trkpt lat="49.87974" lon="2.30812">
        <ele>62.5</ele>
        <time>2022-04-11T07:33:16Z</time>
      </trkpt>
      <trkpt lat="49.87974" lon="2.30811">
        <ele>62.5</ele>
        <time>2022-04-11T07:33:17Z</time>
      </trkpt>
      <trkpt lat="49.87974" lon="2.3081">
        <ele>62.6</ele>
        <time>2022-04-11T07:33:18Z</time>
      </trkpt>
      <trkpt lat="49.87973" lon="2.30808">
        <ele>62.6</ele>
        <time>2022-04-11T07:33:19Z</time>
      </trkpt>
      <trkpt lat="49.87972" lon="2.30806">
        <ele>62.6</ele>
        <time>2022-04-11T07:33:20Z</time>
      </trkpt>
      <trkpt lat="49.87972" lon="2.30804">
        <ele>62.6</ele>
        <time>2022-04-11T07:33:21Z</time>
      </trkpt>
      <trkpt lat="49.87971" lon="2.30803">
        <ele>62.7</ele>
        <time>2022-04-11T07:33:22Z</time>
      </trkpt>
      <trkpt lat="49.87971" lon="2.30802">
        <ele>62.7</ele>
        <time>2022-04-11T07:33:23Z</time>
      </trkpt>
      <trkpt lat="49.8797" lon="2.30798">
        <ele>62.7</ele>
        <time>2022-04-11T07:33:25Z</time>
      </trkpt>
      <trkpt lat="49.87969" lon="2.30797">
        <ele>62.7</ele>
        <time>2022-04-11T07:33:26Z</time>
      </trkpt>
      <trkpt lat="49.87969" lon="2.30796">
        <ele>62.7</ele>
        <time>2022-04-11T07:33:27Z</time>
      </trkpt>
      <trkpt lat="49.87968" lon="2.30794">
        <ele>62.8</ele>
        <time>2022-04-11T07:33:28Z</time>
      </trkpt>
      <trkpt lat="49.87968" lon="2.30791">
        <ele>62.8</ele>
        <time>2022-04-11T07:33:29Z</time>
      </trkpt>
      <trkpt lat="49.87967" lon="2.30789">
        <ele>62.8</ele>
        <time>2022-04-11T07:33:30Z</time>
      </trkpt>
      <trkpt lat="49.87966" lon="2.30787">
        <ele>62.9</ele>
        <time>2022-04-11T07:33:32Z</time>
      </trkpt>
      <trkpt lat="49.87966" lon="2.30785">
        <ele>62.9</ele>
        <time>2022-04-11T07:33:33Z</time>
      </trkpt>
      <trkpt lat="49.87965" lon="2.30783">
        <ele>62.9</ele>
        <time>2022-04-11T07:33:34Z</time>
      </trkpt>
      <trkpt lat="49.87965" lon="2.30781">
        <ele>62.9</ele>
        <time>2022-04-11T07:33:35Z</time>
      </trkpt>
      <trkpt lat="49.87965" lon="2.30779">
        <ele>62.9</ele>
        <time>2022-04-11T07:33:36Z</time>
      </trkpt>
      <trkpt lat="49.87964" lon="2.30778">
        <ele>63</ele>
        <time>2022-04-11T07:33:37Z</time>
      </trkpt>
      <trkpt lat="49.87963" lon="2.30775">
        <ele>63</ele>
        <time>2022-04-11T07:33:39Z</time>
      </trkpt>
      <trkpt lat="49.87963" lon="2.30774">
        <ele>63</ele>
        <time>2022-04-11T07:33:40Z</time>
      </trkpt>
      <trkpt lat="49.87963" lon="2.30771">
        <ele>63</ele>
        <time>2022-04-11T07:33:41Z</time>
      </trkpt>
      <trkpt lat="49.87962" lon="2.30769">
        <ele>63</ele>
        <time>2022-04-11T07:33:42Z</time>
      </trkpt>
      <trkpt lat="49.87962" lon="2.30768">
        <ele>63.1</ele>
        <time>2022-04-11T07:33:43Z</time>
      </trkpt>
      <trkpt lat="49.87961" lon="2.30766">
        <ele>63.1</ele>
        <time>2022-04-11T07:33:44Z</time>
      </trkpt>
      <trkpt lat="49.8796" lon="2.30763">
        <ele>63.1</ele>
        <time>2022-04-11T07:33:45Z</time>
      </trkpt>
      <trkpt lat="49.8796" lon="2.30761">
        <ele>63.1</ele>
        <time>2022-04-11T07:33:46Z</time>
      </trkpt>
      <trkpt lat="49.87959" lon="2.30759">
        <ele>63.1</ele>
        <time>2022-04-11T07:33:47Z</time>
      </trkpt>
      <trkpt lat="49.87959" lon="2.30757">
        <ele>63.2</ele>
        <time>2022-04-11T07:33:48Z</time>
      </trkpt>
      <trkpt lat="49.87958" lon="2.30755">
        <ele>63.2</ele>
        <time>2022-04-11T07:33:50Z</time>
      </trkpt>
      <trkpt lat="49.87958" lon="2.30753">
        <ele>63.2</ele>
        <time>2022-04-11T07:33:51Z</time>
      </trkpt>
      <trkpt lat="49.87957" lon="2.3075">
        <ele>63.2</ele>
        <time>2022-04-11T07:33:52Z</time>
      </trkpt>
      <trkpt lat="49.87957" lon="2.30748">
        <ele>63.3</ele>
        <time>2022-04-11T07:33:53Z</time>
      </trkpt>
      <trkpt lat="49.87956" lon="2.30746">
        <ele>63.3</ele>
        <time>2022-04-11T07:33:54Z</time>
      </trkpt>
      <trkpt lat="49.87955" lon="2.30743">
        <ele>63.3</ele>
        <time>2022-04-11T07:33:55Z</time>
      </trkpt>
      <trkpt lat="49.87955" lon="2.30741">
        <ele>63.3</ele>
        <time>2022-04-11T07:33:56Z</time>
      </trkpt>
      <trkpt lat="49.87955" lon="2.3074">
        <ele>63.3</ele>
        <time>2022-04-11T07:33:57Z</time>
      </trkpt>
      <trkpt lat="49.87954" lon="2.30738">
        <ele>63.4</ele>
        <time>2022-04-11T07:33:59Z</time>
      </trkpt>
      <trkpt lat="49.87954" lon="2.30737">
        <ele>63.4</ele>
        <time>2022-04-11T07:34:00Z</time>
      </trkpt>
      <trkpt lat="49.87953" lon="2.30736">
        <ele>63.4</ele>
        <time>2022-04-11T07:34:01Z</time>
      </trkpt>
      <trkpt lat="49.87953" lon="2.30734">
        <ele>63.4</ele>
        <time>2022-04-11T07:34:02Z</time>
      </trkpt>
      <trkpt lat="49.87953" lon="2.30732">
        <ele>63.4</ele>
        <time>2022-04-11T07:34:03Z</time>
      </trkpt>
      <trkpt lat="49.87952" lon="2.3073">
        <ele>63.4</ele>
        <time>2022-04-11T07:34:04Z</time>
      </trkpt>
      <trkpt lat="49.87952" lon="2.30729">
        <ele>63.4</ele>
        <time>2022-04-11T07:34:05Z</time>
      </trkpt>
      <trkpt lat="49.87951" lon="2.30727">
        <ele>63.5</ele>
        <time>2022-04-11T07:34:07Z</time>
      </trkpt>
      <trkpt lat="49.87951" lon="2.30725">
        <ele>63.5</ele>
        <time>2022-04-11T07:34:08Z</time>
      </trkpt>
      <trkpt lat="49.87952" lon="2.30724">
        <ele>63.5</ele>
        <time>2022-04-11T07:34:09Z</time>
      </trkpt>
      <trkpt lat="49.87953" lon="2.30723">
        <ele>63.5</ele>
        <time>2022-04-11T07:34:10Z</time>
      </trkpt>
      <trkpt lat="49.87953" lon="2.30721">
        <ele>63.5</ele>
        <time>2022-04-11T07:34:11Z</time>
      </trkpt>
      <trkpt lat="49.87955" lon="2.30719">
        <ele>63.6</ele>
        <time>2022-04-11T07:34:12Z</time>
      </trkpt>
      <trkpt lat="49.87955" lon="2.30717">
        <ele>63.6</ele>
        <time>2022-04-11T07:34:14Z</time>
      </trkpt>
      <trkpt lat="49.87954" lon="2.30715">
        <ele>63.6</ele>
        <time>2022-04-11T07:34:15Z</time>
      </trkpt>
      <trkpt lat="49.87954" lon="2.30713">
        <ele>63.6</ele>
        <time>2022-04-11T07:34:16Z</time>
      </trkpt>
      <trkpt lat="49.87953" lon="2.30711">
        <ele>63.6</ele>
        <time>2022-04-11T07:34:17Z</time>
      </trkpt>
      <trkpt lat="49.87953" lon="2.3071">
        <ele>63.7</ele>
        <time>2022-04-11T07:34:18Z</time>
      </trkpt>
      <trkpt lat="49.87952" lon="2.30708">
        <ele>63.7</ele>
        <time>2022-04-11T07:34:19Z</time>
      </trkpt>
      <trkpt lat="49.87951" lon="2.30707">
        <ele>63.7</ele>
        <time>2022-04-11T07:34:20Z</time>
      </trkpt>
      <trkpt lat="49.8795" lon="2.30705">
        <ele>63.7</ele>
        <time>2022-04-11T07:34:21Z</time>
      </trkpt>
      <trkpt lat="49.8795" lon="2.30703">
        <ele>63.7</ele>
        <time>2022-04-11T07:34:22Z</time>
      </trkpt>
      <trkpt lat="49.8795" lon="2.30702">
        <ele>63.7</ele>
        <time>2022-04-11T07:34:23Z</time>
      </trkpt>
      <trkpt lat="49.87949" lon="2.307">
        <ele>63.8</ele>
        <time>2022-04-11T07:34:24Z</time>
      </trkpt>
      <trkpt lat="49.87948" lon="2.30698">
        <ele>63.8</ele>
        <time>2022-04-11T07:34:25Z</time>
      </trkpt>
      <trkpt lat="49.87946" lon="2.30697">
        <ele>63.8</ele>
        <time>2022-04-11T07:34:27Z</time>
      </trkpt>
      <trkpt lat="49.87945" lon="2.30695">
        <ele>63.8</ele>
        <time>2022-04-11T07:34:28Z</time>
      </trkpt>
      <trkpt lat="49.87944" lon="2.30692">
        <ele>63.8</ele>
        <time>2022-04-11T07:34:29Z</time>
      </trkpt>
      <trkpt lat="49.87944" lon="2.3069">
        <ele>63.9</ele>
        <time>2022-04-11T07:34:30Z</time>
      </trkpt>
      <trkpt lat="49.87944" lon="2.30689">
        <ele>63.9</ele>
        <time>2022-04-11T07:34:31Z</time>
      </trkpt>
      <trkpt lat="49.87943" lon="2.30687">
        <ele>63.9</ele>
        <time>2022-04-11T07:34:32Z</time>
      </trkpt>
      <trkpt lat="49.87942" lon="2.30683">
        <ele>63.9</ele>
        <time>2022-04-11T07:34:34Z</time>
      </trkpt>
      <trkpt lat="49.8794" lon="2.30679">
        <ele>64</ele>
        <time>2022-04-11T07:34:35Z</time>
      </trkpt>
      <trkpt lat="49.8794" lon="2.30677">
        <ele>64</ele>
        <time>2022-04-11T07:34:36Z</time>
      </trkpt>
      <trkpt lat="49.87939" lon="2.30673">
        <ele>64</ele>
        <time>2022-04-11T07:34:38Z</time>
      </trkpt>
      <trkpt lat="49.87939" lon="2.30671">
        <ele>64</ele>
        <time>2022-04-11T07:34:39Z</time>
      </trkpt>
      <trkpt lat="49.87939" lon="2.30668">
        <ele>64.1</ele>
        <time>2022-04-11T07:34:40Z</time>
      </trkpt>
      <trkpt lat="49.87938" lon="2.30666">
        <ele>64.1</ele>
        <time>2022-04-11T07:34:41Z</time>
      </trkpt>
      <trkpt lat="49.87938" lon="2.30664">
        <ele>64.1</ele>
        <time>2022-04-11T07:34:42Z</time>
      </trkpt>
      <trkpt lat="49.87938" lon="2.30663">
        <ele>64.1</ele>
        <time>2022-04-11T07:34:43Z</time>
      </trkpt>
      <trkpt lat="49.87937" lon="2.3066">
        <ele>64.1</ele>
        <time>2022-04-11T07:34:44Z</time>
      </trkpt>
      <trkpt lat="49.87937" lon="2.30658">
        <ele>64.1</ele>
        <time>2022-04-11T07:34:45Z</time>
      </trkpt>
      <trkpt lat="49.87936" lon="2.30656">
        <ele>64.2</ele>
        <time>2022-04-11T07:34:46Z</time>
      </trkpt>
      <trkpt lat="49.87936" lon="2.30655">
        <ele>64.2</ele>
        <time>2022-04-11T07:34:47Z</time>
      </trkpt>
      <trkpt lat="49.87936" lon="2.30654">
        <ele>64.2</ele>
        <time>2022-04-11T07:34:48Z</time>
      </trkpt>
      <trkpt lat="49.87935" lon="2.30651">
        <ele>64.2</ele>
        <time>2022-04-11T07:34:50Z</time>
      </trkpt>
      <trkpt lat="49.87936" lon="2.30652">
        <ele>64.2</ele>
        <time>2022-04-11T07:34:51Z</time>
      </trkpt>
      <trkpt lat="49.87936" lon="2.30653">
        <ele>64.2</ele>
        <time>2022-04-11T07:34:52Z</time>
      </trkpt>
      <trkpt lat="49.87937" lon="2.30653">
        <ele>64.2</ele>
        <time>2022-04-11T07:34:53Z</time>
      </trkpt>
      <trkpt lat="49.87937" lon="2.30653">
        <ele>64.2</ele>
        <time>2022-04-11T07:34:54Z</time>
      </trkpt>
      <trkpt lat="49.87936" lon="2.30651">
        <ele>64.3</ele>
        <time>2022-04-11T07:34:55Z</time>
      </trkpt>
      <trkpt lat="49.87935" lon="2.30649">
        <ele>64.3</ele>
        <time>2022-04-11T07:34:56Z</time>
      </trkpt>
      <trkpt lat="49.87934" lon="2.30646">
        <ele>64.3</ele>
        <time>2022-04-11T07:34:57Z</time>
      </trkpt>
      <trkpt lat="49.87933" lon="2.30644">
        <ele>64.3</ele>
        <time>2022-04-11T07:34:58Z</time>
      </trkpt>
      <trkpt lat="49.87933" lon="2.30643">
        <ele>64.3</ele>
        <time>2022-04-11T07:34:59Z</time>
      </trkpt>
      <trkpt lat="49.87932" lon="2.30641">
        <ele>64.4</ele>
        <time>2022-04-11T07:35:01Z</time>
      </trkpt>
      <trkpt lat="49.87932" lon="2.30639">
        <ele>64.4</ele>
        <time>2022-04-11T07:35:02Z</time>
      </trkpt>
      <trkpt lat="49.87931" lon="2.30637">
        <ele>64.4</ele>
        <time>2022-04-11T07:35:03Z</time>
      </trkpt>
      <trkpt lat="49.8793" lon="2.30635">
        <ele>64.4</ele>
        <time>2022-04-11T07:35:04Z</time>
      </trkpt>
      <trkpt lat="49.8793" lon="2.30633">
        <ele>64.4</ele>
        <time>2022-04-11T07:35:05Z</time>
      </trkpt>
      <trkpt lat="49.8793" lon="2.30632">
        <ele>64.4</ele>
        <time>2022-04-11T07:35:06Z</time>
      </trkpt>
      <trkpt lat="49.87931" lon="2.30631">
        <ele>64.5</ele>
        <time>2022-04-11T07:35:07Z</time>
      </trkpt>
      <trkpt lat="49.87932" lon="2.30631">
        <ele>64.5</ele>
        <time>2022-04-11T07:35:08Z</time>
      </trkpt>
      <trkpt lat="49.87933" lon="2.30628">
        <ele>64.5</ele>
        <time>2022-04-11T07:35:10Z</time>
      </trkpt>
      <trkpt lat="49.87932" lon="2.30626">
        <ele>64.5</ele>
        <time>2022-04-11T07:35:11Z</time>
      </trkpt>
      <trkpt lat="49.87931" lon="2.30623">
        <ele>64.5</ele>
        <time>2022-04-11T07:35:12Z</time>
      </trkpt>
      <trkpt lat="49.8793" lon="2.30621">
        <ele>64.5</ele>
        <time>2022-04-11T07:35:13Z</time>
      </trkpt>
      <trkpt lat="49.87928" lon="2.30619">
        <ele>64.6</ele>
        <time>2022-04-11T07:35:15Z</time>
      </trkpt>
      <trkpt lat="49.87927" lon="2.30618">
        <ele>64.6</ele>
        <time>2022-04-11T07:35:16Z</time>
      </trkpt>
      <trkpt lat="49.87926" lon="2.30617">
        <ele>64.6</ele>
        <time>2022-04-11T07:35:17Z</time>
      </trkpt>
      <trkpt lat="49.87926" lon="2.30616">
        <ele>64.6</ele>
        <time>2022-04-11T07:35:18Z</time>
      </trkpt>
      <trkpt lat="49.87925" lon="2.30615">
        <ele>64.6</ele>
        <time>2022-04-11T07:35:19Z</time>
      </trkpt>
      <trkpt lat="49.87924" lon="2.30613">
        <ele>64.6</ele>
        <time>2022-04-11T07:35:21Z</time>
      </trkpt>
      <trkpt lat="49.87924" lon="2.30611">
        <ele>64.6</ele>
        <time>2022-04-11T07:35:22Z</time>
      </trkpt>
      <trkpt lat="49.87927" lon="2.3061">
        <ele>64.6</ele>
        <time>2022-04-11T07:35:23Z</time>
      </trkpt>
      <trkpt lat="49.87928" lon="2.3061">
        <ele>64.6</ele>
        <time>2022-04-11T07:35:24Z</time>
      </trkpt>
      <trkpt lat="49.8793" lon="2.3061">
        <ele>64.6</ele>
        <time>2022-04-11T07:35:25Z</time>
      </trkpt>
      <trkpt lat="49.87933" lon="2.30611">
        <ele>64.6</ele>
        <time>2022-04-11T07:35:26Z</time>
      </trkpt>
      <trkpt lat="49.87937" lon="2.30612">
        <ele>64.6</ele>
        <time>2022-04-11T07:35:28Z</time>
      </trkpt>
      <trkpt lat="49.87939" lon="2.30613">
        <ele>64.6</ele>
        <time>2022-04-11T07:35:29Z</time>
      </trkpt>
      <trkpt lat="49.87941" lon="2.30613">
        <ele>64.6</ele>
        <time>2022-04-11T07:35:30Z</time>
      </trkpt>
      <trkpt lat="49.87942" lon="2.30613">
        <ele>64.6</ele>
        <time>2022-04-11T07:35:31Z</time>
      </trkpt>
      <trkpt lat="49.87943" lon="2.30613">
        <ele>64.6</ele>
        <time>2022-04-11T07:35:32Z</time>
      </trkpt>
      <trkpt lat="49.87944" lon="2.30613">
        <ele>64.6</ele>
        <time>2022-04-11T07:35:33Z</time>
      </trkpt>
      <trkpt lat="49.87947" lon="2.30614">
        <ele>64.6</ele>
        <time>2022-04-11T07:35:34Z</time>
      </trkpt>
      <trkpt lat="49.87948" lon="2.30614">
        <ele>64.6</ele>
        <time>2022-04-11T07:35:35Z</time>
      </trkpt>
      <trkpt lat="49.87948" lon="2.30614">
        <ele>64.6</ele>
        <time>2022-04-11T07:35:36Z</time>
      </trkpt>
      <trkpt lat="49.8795" lon="2.30614">
        <ele>64.6</ele>
        <time>2022-04-11T07:35:37Z</time>
      </trkpt>
      <trkpt lat="49.87951" lon="2.30614">
        <ele>64.5</ele>
        <time>2022-04-11T07:35:38Z</time>
      </trkpt>
      <trkpt lat="49.87953" lon="2.30614">
        <ele>64.5</ele>
        <time>2022-04-11T07:35:39Z</time>
      </trkpt>
      <trkpt lat="49.87954" lon="2.30614">
        <ele>64.5</ele>
        <time>2022-04-11T07:35:41Z</time>
      </trkpt>
      <trkpt lat="49.87954" lon="2.30614">
        <ele>64.5</ele>
        <time>2022-04-11T07:35:42Z</time>
      </trkpt>
      <trkpt lat="49.87955" lon="2.30614">
        <ele>64.5</ele>
        <time>2022-04-11T07:35:43Z</time>
      </trkpt>
      <trkpt lat="49.87956" lon="2.30615">
        <ele>64.5</ele>
        <time>2022-04-11T07:35:44Z</time>
      </trkpt>
      <trkpt lat="49.87958" lon="2.30615">
        <ele>64.5</ele>
        <time>2022-04-11T07:35:45Z</time>
      </trkpt>
      <trkpt lat="49.8796" lon="2.30616">
        <ele>64.5</ele>
        <time>2022-04-11T07:35:46Z</time>
      </trkpt>
      <trkpt lat="49.87961" lon="2.30616">
        <ele>64.5</ele>
        <time>2022-04-11T07:35:47Z</time>
      </trkpt>
      <trkpt lat="49.87962" lon="2.30616">
        <ele>64.5</ele>
        <time>2022-04-11T07:35:48Z</time>
      </trkpt>
      <trkpt lat="49.87963" lon="2.30617">
        <ele>64.4</ele>
        <time>2022-04-11T07:35:49Z</time>
      </trkpt>
      <trkpt lat="49.87965" lon="2.30617">
        <ele>64.4</ele>
        <time>2022-04-11T07:35:50Z</time>
      </trkpt>
      <trkpt lat="49.87967" lon="2.30617">
        <ele>64.4</ele>
        <time>2022-04-11T07:35:51Z</time>
      </trkpt>
      <trkpt lat="49.87969" lon="2.30617">
        <ele>64.4</ele>
        <time>2022-04-11T07:35:53Z</time>
      </trkpt>
      <trkpt lat="49.8797" lon="2.30617">
        <ele>64.4</ele>
        <time>2022-04-11T07:35:54Z</time>
      </trkpt>
      <trkpt lat="49.87972" lon="2.30617">
        <ele>64.4</ele>
        <time>2022-04-11T07:35:55Z</time>
      </trkpt>
      <trkpt lat="49.87973" lon="2.30618">
        <ele>64.4</ele>
        <time>2022-04-11T07:35:56Z</time>
      </trkpt>
      <trkpt lat="49.87974" lon="2.30619">
        <ele>64.4</ele>
        <time>2022-04-11T07:35:57Z</time>
      </trkpt>
      <trkpt lat="49.87974" lon="2.3062">
        <ele>64.4</ele>
        <time>2022-04-11T07:35:58Z</time>
      </trkpt>
      <trkpt lat="49.87974" lon="2.3062">
        <ele>64.4</ele>
        <time>2022-04-11T07:35:59Z</time>
      </trkpt>
      <trkpt lat="49.87975" lon="2.30621">
        <ele>64.4</ele>
        <time>2022-04-11T07:36:00Z</time>
      </trkpt>
      <trkpt lat="49.87976" lon="2.30621">
        <ele>64.4</ele>
        <time>2022-04-11T07:36:01Z</time>
      </trkpt>
      <trkpt lat="49.87977" lon="2.30622">
        <ele>64.4</ele>
        <time>2022-04-11T07:36:02Z</time>
      </trkpt>
      <trkpt lat="49.87979" lon="2.30623">
        <ele>64.3</ele>
        <time>2022-04-11T07:36:04Z</time>
      </trkpt>
      <trkpt lat="49.8798" lon="2.30623">
        <ele>64.3</ele>
        <time>2022-04-11T07:36:05Z</time>
      </trkpt>
      <trkpt lat="49.87981" lon="2.30624">
        <ele>64.3</ele>
        <time>2022-04-11T07:36:06Z</time>
      </trkpt>
      <trkpt lat="49.87983" lon="2.30626">
        <ele>64.3</ele>
        <time>2022-04-11T07:36:07Z</time>
      </trkpt>
      <trkpt lat="49.87984" lon="2.30627">
        <ele>64.3</ele>
        <time>2022-04-11T07:36:08Z</time>
      </trkpt>
      <trkpt lat="49.87984" lon="2.30628">
        <ele>64.3</ele>
        <time>2022-04-11T07:36:09Z</time>
      </trkpt>
      <trkpt lat="49.87986" lon="2.3063">
        <ele>64.3</ele>
        <time>2022-04-11T07:36:10Z</time>
      </trkpt>
      <trkpt lat="49.87986" lon="2.30631">
        <ele>64.3</ele>
        <time>2022-04-11T07:36:11Z</time>
      </trkpt>
      <trkpt lat="49.87987" lon="2.30632">
        <ele>64.3</ele>
        <time>2022-04-11T07:36:12Z</time>
      </trkpt>
      <trkpt lat="49.87988" lon="2.30633">
        <ele>64.3</ele>
        <time>2022-04-11T07:36:13Z</time>
      </trkpt>
      <trkpt lat="49.87989" lon="2.30634">
        <ele>64.3</ele>
        <time>2022-04-11T07:36:14Z</time>
      </trkpt>
      <trkpt lat="49.8799" lon="2.30635">
        <ele>64.3</ele>
        <time>2022-04-11T07:36:15Z</time>
      </trkpt>
      <trkpt lat="49.87992" lon="2.30636">
        <ele>64.3</ele>
        <time>2022-04-11T07:36:17Z</time>
      </trkpt>
      <trkpt lat="49.87992" lon="2.30637">
        <ele>64.3</ele>
        <time>2022-04-11T07:36:18Z</time>
      </trkpt>
      <trkpt lat="49.87993" lon="2.30638">
        <ele>64.3</ele>
        <time>2022-04-11T07:36:19Z</time>
      </trkpt>
      <trkpt lat="49.87993" lon="2.30639">
        <ele>64.2</ele>
        <time>2022-04-11T07:36:20Z</time>
      </trkpt>
      <trkpt lat="49.87994" lon="2.3064">
        <ele>64.2</ele>
        <time>2022-04-11T07:36:21Z</time>
      </trkpt>
      <trkpt lat="49.87995" lon="2.30641">
        <ele>64.2</ele>
        <time>2022-04-11T07:36:22Z</time>
      </trkpt>
      <trkpt lat="49.87996" lon="2.30642">
        <ele>64.2</ele>
        <time>2022-04-11T07:36:23Z</time>
      </trkpt>
      <trkpt lat="49.87997" lon="2.30643">
        <ele>64.2</ele>
        <time>2022-04-11T07:36:24Z</time>
      </trkpt>
      <trkpt lat="49.87998" lon="2.30644">
        <ele>64.2</ele>
        <time>2022-04-11T07:36:25Z</time>
      </trkpt>
      <trkpt lat="49.88" lon="2.30646">
        <ele>64.2</ele>
        <time>2022-04-11T07:36:26Z</time>
      </trkpt>
      <trkpt lat="49.88001" lon="2.30647">
        <ele>64.2</ele>
        <time>2022-04-11T07:36:27Z</time>
      </trkpt>
      <trkpt lat="49.88002" lon="2.30648">
        <ele>64.1</ele>
        <time>2022-04-11T07:36:29Z</time>
      </trkpt>
      <trkpt lat="49.88002" lon="2.30649">
        <ele>64.1</ele>
        <time>2022-04-11T07:36:30Z</time>
      </trkpt>
      <trkpt lat="49.88003" lon="2.3065">
        <ele>64.1</ele>
        <time>2022-04-11T07:36:31Z</time>
      </trkpt>
      <trkpt lat="49.88004" lon="2.3065">
        <ele>64.1</ele>
        <time>2022-04-11T07:36:32Z</time>
      </trkpt>
      <trkpt lat="49.88004" lon="2.30651">
        <ele>64.1</ele>
        <time>2022-04-11T07:36:33Z</time>
      </trkpt>
      <trkpt lat="49.88005" lon="2.30652">
        <ele>64.1</ele>
        <time>2022-04-11T07:36:34Z</time>
      </trkpt>
      <trkpt lat="49.88006" lon="2.30653">
        <ele>64.1</ele>
        <time>2022-04-11T07:36:35Z</time>
      </trkpt>
      <trkpt lat="49.88006" lon="2.30653">
        <ele>64.1</ele>
        <time>2022-04-11T07:36:36Z</time>
      </trkpt>
      <trkpt lat="49.88007" lon="2.30654">
        <ele>64.1</ele>
        <time>2022-04-11T07:36:37Z</time>
      </trkpt>
      <trkpt lat="49.88007" lon="2.30654">
        <ele>64</ele>
        <time>2022-04-11T07:36:38Z</time>
      </trkpt>
      <trkpt lat="49.88007" lon="2.30653">
        <ele>64</ele>
        <time>2022-04-11T07:36:39Z</time>
      </trkpt>
      <trkpt lat="49.88008" lon="2.30654">
        <ele>64</ele>
        <time>2022-04-11T07:36:40Z</time>
      </trkpt>
      <trkpt lat="49.88009" lon="2.30655">
        <ele>64</ele>
        <time>2022-04-11T07:36:42Z</time>
      </trkpt>
      <trkpt lat="49.88009" lon="2.30655">
        <ele>64</ele>
        <time>2022-04-11T07:36:43Z</time>
      </trkpt>
      <trkpt lat="49.8801" lon="2.30656">
        <ele>64</ele>
        <time>2022-04-11T07:36:44Z</time>
      </trkpt>
      <trkpt lat="49.88011" lon="2.30656">
        <ele>64</ele>
        <time>2022-04-11T07:36:45Z</time>
      </trkpt>
      <trkpt lat="49.88011" lon="2.30657">
        <ele>64</ele>
        <time>2022-04-11T07:36:46Z</time>
      </trkpt>
      <trkpt lat="49.88012" lon="2.30658">
        <ele>64</ele>
        <time>2022-04-11T07:36:48Z</time>
      </trkpt>
      <trkpt lat="49.88013" lon="2.30659">
        <ele>63.9</ele>
        <time>2022-04-11T07:36:49Z</time>
      </trkpt>
      <trkpt lat="49.88013" lon="2.30659">
        <ele>63.9</ele>
        <time>2022-04-11T07:36:50Z</time>
      </trkpt>
      <trkpt lat="49.88015" lon="2.30661">
        <ele>63.9</ele>
        <time>2022-04-11T07:36:51Z</time>
      </trkpt>
      <trkpt lat="49.88016" lon="2.30662">
        <ele>63.8</ele>
        <time>2022-04-11T07:36:52Z</time>
      </trkpt>
      <trkpt lat="49.88017" lon="2.30663">
        <ele>63.8</ele>
        <time>2022-04-11T07:36:53Z</time>
      </trkpt>
      <trkpt lat="49.88019" lon="2.30664">
        <ele>63.8</ele>
        <time>2022-04-11T07:36:54Z</time>
      </trkpt>
      <trkpt lat="49.8802" lon="2.30665">
        <ele>63.8</ele>
        <time>2022-04-11T07:36:55Z</time>
      </trkpt>
      <trkpt lat="49.88023" lon="2.30668">
        <ele>63.7</ele>
        <time>2022-04-11T07:36:57Z</time>
      </trkpt>
      <trkpt lat="49.88023" lon="2.30669">
        <ele>63.7</ele>
        <time>2022-04-11T07:36:58Z</time>
      </trkpt>
      <trkpt lat="49.88024" lon="2.3067">
        <ele>63.7</ele>
        <time>2022-04-11T07:36:59Z</time>
      </trkpt>
      <trkpt lat="49.88025" lon="2.30673">
        <ele>63.6</ele>
        <time>2022-04-11T07:37:00Z</time>
      </trkpt>
      <trkpt lat="49.88026" lon="2.30674">
        <ele>63.6</ele>
        <time>2022-04-11T07:37:01Z</time>
      </trkpt>
      <trkpt lat="49.88028" lon="2.30675">
        <ele>63.5</ele>
        <time>2022-04-11T07:37:02Z</time>
      </trkpt>
      <trkpt lat="49.8803" lon="2.30678">
        <ele>63.5</ele>
        <time>2022-04-11T07:37:03Z</time>
      </trkpt>
      <trkpt lat="49.88031" lon="2.30679">
        <ele>63.5</ele>
        <time>2022-04-11T07:37:04Z</time>
      </trkpt>
      <trkpt lat="49.88033" lon="2.30681">
        <ele>63.4</ele>
        <time>2022-04-11T07:37:05Z</time>
      </trkpt>
      <trkpt lat="49.88033" lon="2.30682">
        <ele>63.4</ele>
        <time>2022-04-11T07:37:06Z</time>
      </trkpt>
      <trkpt lat="49.88034" lon="2.30683">
        <ele>63.4</ele>
        <time>2022-04-11T07:37:08Z</time>
      </trkpt>
      <trkpt lat="49.88035" lon="2.30684">
        <ele>63.3</ele>
        <time>2022-04-11T07:37:09Z</time>
      </trkpt>
      <trkpt lat="49.88035" lon="2.30685">
        <ele>63.3</ele>
        <time>2022-04-11T07:37:10Z</time>
      </trkpt>
      <trkpt lat="49.88036" lon="2.30687">
        <ele>63.3</ele>
        <time>2022-04-11T07:37:11Z</time>
      </trkpt>
      <trkpt lat="49.88036" lon="2.30687">
        <ele>63.3</ele>
        <time>2022-04-11T07:37:12Z</time>
      </trkpt>
      <trkpt lat="49.88037" lon="2.30689">
        <ele>63.2</ele>
        <time>2022-04-11T07:37:13Z</time>
      </trkpt>
      <trkpt lat="49.88038" lon="2.3069">
        <ele>63.2</ele>
        <time>2022-04-11T07:37:14Z</time>
      </trkpt>
      <trkpt lat="49.88038" lon="2.3069">
        <ele>63.2</ele>
        <time>2022-04-11T07:37:15Z</time>
      </trkpt>
      <trkpt lat="49.88039" lon="2.30691">
        <ele>63.2</ele>
        <time>2022-04-11T07:37:16Z</time>
      </trkpt>
      <trkpt lat="49.88039" lon="2.30692">
        <ele>63.2</ele>
        <time>2022-04-11T07:37:17Z</time>
      </trkpt>
      <trkpt lat="49.8804" lon="2.30693">
        <ele>63.1</ele>
        <time>2022-04-11T07:37:18Z</time>
      </trkpt>
      <trkpt lat="49.8804" lon="2.30694">
        <ele>63.1</ele>
        <time>2022-04-11T07:37:19Z</time>
      </trkpt>
      <trkpt lat="49.88041" lon="2.30694">
        <ele>63.1</ele>
        <time>2022-04-11T07:37:21Z</time>
      </trkpt>
      <trkpt lat="49.88041" lon="2.30695">
        <ele>63.1</ele>
        <time>2022-04-11T07:37:22Z</time>
      </trkpt>
      <trkpt lat="49.88041" lon="2.30695">
        <ele>63.1</ele>
        <time>2022-04-11T07:37:23Z</time>
      </trkpt>
      <trkpt lat="49.88041" lon="2.30695">
        <ele>63.1</ele>
        <time>2022-04-11T07:37:24Z</time>
      </trkpt>
      <trkpt lat="49.88041" lon="2.30695">
        <ele>63.1</ele>
        <time>2022-04-11T07:37:25Z</time>
      </trkpt>
      <trkpt lat="49.88042" lon="2.30695">
        <ele>63</ele>
        <time>2022-04-11T07:37:26Z</time>
      </trkpt>
      <trkpt lat="49.88042" lon="2.30696">
        <ele>63</ele>
        <time>2022-04-11T07:37:27Z</time>
      </trkpt>
      <trkpt lat="49.88043" lon="2.30698">
        <ele>63</ele>
        <time>2022-04-11T07:37:28Z</time>
      </trkpt>
      <trkpt lat="49.88043" lon="2.30699">
        <ele>63</ele>
        <time>2022-04-11T07:37:29Z</time>
      </trkpt>
      <trkpt lat="49.88043" lon="2.307">
        <ele>62.9</ele>
        <time>2022-04-11T07:37:30Z</time>
      </trkpt>
      <trkpt lat="49.88044" lon="2.30703">
        <ele>62.9</ele>
        <time>2022-04-11T07:37:31Z</time>
      </trkpt>
      <trkpt lat="49.88045" lon="2.30704">
        <ele>62.9</ele>
        <time>2022-04-11T07:37:33Z</time>
      </trkpt>
      <trkpt lat="49.88045" lon="2.30706">
        <ele>62.8</ele>
        <time>2022-04-11T07:37:34Z</time>
      </trkpt>
      <trkpt lat="49.88047" lon="2.30707">
        <ele>62.8</ele>
        <time>2022-04-11T07:37:35Z</time>
      </trkpt>
      <trkpt lat="49.88047" lon="2.30708">
        <ele>62.8</ele>
        <time>2022-04-11T07:37:36Z</time>
      </trkpt>
      <trkpt lat="49.88048" lon="2.30709">
        <ele>62.7</ele>
        <time>2022-04-11T07:37:37Z</time>
      </trkpt>
      <trkpt lat="49.88048" lon="2.30709">
        <ele>62.7</ele>
        <time>2022-04-11T07:37:38Z</time>
      </trkpt>
      <trkpt lat="49.8805" lon="2.30712">
        <ele>62.7</ele>
        <time>2022-04-11T07:37:39Z</time>
      </trkpt>
      <trkpt lat="49.88051" lon="2.30713">
        <ele>62.6</ele>
        <time>2022-04-11T07:37:40Z</time>
      </trkpt>
      <trkpt lat="49.88052" lon="2.30715">
        <ele>62.6</ele>
        <time>2022-04-11T07:37:41Z</time>
      </trkpt>
      <trkpt lat="49.88053" lon="2.30716">
        <ele>62.5</ele>
        <time>2022-04-11T07:37:42Z</time>
      </trkpt>
      <trkpt lat="49.88055" lon="2.30719">
        <ele>62.5</ele>
        <time>2022-04-11T07:37:44Z</time>
      </trkpt>
      <trkpt lat="49.88057" lon="2.30721">
        <ele>62.4</ele>
        <time>2022-04-11T07:37:45Z</time>
      </trkpt>
      <trkpt lat="49.88058" lon="2.30723">
        <ele>62.4</ele>
        <time>2022-04-11T07:37:46Z</time>
      </trkpt>
      <trkpt lat="49.8806" lon="2.30724">
        <ele>62.3</ele>
        <time>2022-04-11T07:37:47Z</time>
      </trkpt>
      <trkpt lat="49.88062" lon="2.30728">
        <ele>62.2</ele>
        <time>2022-04-11T07:37:49Z</time>
      </trkpt>
      <trkpt lat="49.88065" lon="2.30731">
        <ele>62.1</ele>
        <time>2022-04-11T07:37:50Z</time>
      </trkpt>
      <trkpt lat="49.88066" lon="2.30733">
        <ele>62.1</ele>
        <time>2022-04-11T07:37:51Z</time>
      </trkpt>
      <trkpt lat="49.88069" lon="2.30735">
        <ele>62</ele>
        <time>2022-04-11T07:37:52Z</time>
      </trkpt>
      <trkpt lat="49.8807" lon="2.30735">
        <ele>61.9</ele>
        <time>2022-04-11T07:37:53Z</time>
      </trkpt>
      <trkpt lat="49.88071" lon="2.30737">
        <ele>61.9</ele>
        <time>2022-04-11T07:37:54Z</time>
      </trkpt>
      <trkpt lat="49.88073" lon="2.30738">
        <ele>61.8</ele>
        <time>2022-04-11T07:37:55Z</time>
      </trkpt>
      <trkpt lat="49.88074" lon="2.30739">
        <ele>61.8</ele>
        <time>2022-04-11T07:37:56Z</time>
      </trkpt>
      <trkpt lat="49.88076" lon="2.3074">
        <ele>61.7</ele>
        <time>2022-04-11T07:37:57Z</time>
      </trkpt>
      <trkpt lat="49.88077" lon="2.30741">
        <ele>61.7</ele>
        <time>2022-04-11T07:37:58Z</time>
      </trkpt>
      <trkpt lat="49.88079" lon="2.30743">
        <ele>61.6</ele>
        <time>2022-04-11T07:38:00Z</time>
      </trkpt>
      <trkpt lat="49.8808" lon="2.30744">
        <ele>61.6</ele>
        <time>2022-04-11T07:38:01Z</time>
      </trkpt>
      <trkpt lat="49.88081" lon="2.30745">
        <ele>61.5</ele>
        <time>2022-04-11T07:38:02Z</time>
      </trkpt>
      <trkpt lat="49.88082" lon="2.30746">
        <ele>61.5</ele>
        <time>2022-04-11T07:38:03Z</time>
      </trkpt>
      <trkpt lat="49.88084" lon="2.30748">
        <ele>61.5</ele>
        <time>2022-04-11T07:38:04Z</time>
      </trkpt>
      <trkpt lat="49.88084" lon="2.30748">
        <ele>61.4</ele>
        <time>2022-04-11T07:38:05Z</time>
      </trkpt>
      <trkpt lat="49.88086" lon="2.30749">
        <ele>61.4</ele>
        <time>2022-04-11T07:38:06Z</time>
      </trkpt>
      <trkpt lat="49.88087" lon="2.30751">
        <ele>61.4</ele>
        <time>2022-04-11T07:38:07Z</time>
      </trkpt>
      <trkpt lat="49.88088" lon="2.30752">
        <ele>61.3</ele>
        <time>2022-04-11T07:38:08Z</time>
      </trkpt>
      <trkpt lat="49.88089" lon="2.30754">
        <ele>61.3</ele>
        <time>2022-04-11T07:38:10Z</time>
      </trkpt>
      <trkpt lat="49.8809" lon="2.30755">
        <ele>61.2</ele>
        <time>2022-04-11T07:38:11Z</time>
      </trkpt>
      <trkpt lat="49.88091" lon="2.30756">
        <ele>61.2</ele>
        <time>2022-04-11T07:38:12Z</time>
      </trkpt>
      <trkpt lat="49.88093" lon="2.30757">
        <ele>61.2</ele>
        <time>2022-04-11T07:38:13Z</time>
      </trkpt>
      <trkpt lat="49.88094" lon="2.30759">
        <ele>61.1</ele>
        <time>2022-04-11T07:38:14Z</time>
      </trkpt>
      <trkpt lat="49.88096" lon="2.30761">
        <ele>61.1</ele>
        <time>2022-04-11T07:38:15Z</time>
      </trkpt>
      <trkpt lat="49.88097" lon="2.30761">
        <ele>61.1</ele>
        <time>2022-04-11T07:38:16Z</time>
      </trkpt>
      <trkpt lat="49.88098" lon="2.30762">
        <ele>61</ele>
        <time>2022-04-11T07:38:17Z</time>
      </trkpt>
      <trkpt lat="49.881" lon="2.30763">
        <ele>61</ele>
        <time>2022-04-11T07:38:18Z</time>
      </trkpt>
      <trkpt lat="49.881" lon="2.30764">
        <ele>61</ele>
        <time>2022-04-11T07:38:20Z</time>
      </trkpt>
      <trkpt lat="49.88101" lon="2.30765">
        <ele>61</ele>
        <time>2022-04-11T07:38:21Z</time>
      </trkpt>
      <trkpt lat="49.88101" lon="2.30766">
        <ele>61</ele>
        <time>2022-04-11T07:38:22Z</time>
      </trkpt>
      <trkpt lat="49.88101" lon="2.30768">
        <ele>60.9</ele>
        <time>2022-04-11T07:38:23Z</time>
      </trkpt>
      <trkpt lat="49.88102" lon="2.30768">
        <ele>60.9</ele>
        <time>2022-04-11T07:38:24Z</time>
      </trkpt>
      <trkpt lat="49.88103" lon="2.30767">
        <ele>60.9</ele>
        <time>2022-04-11T07:38:25Z</time>
      </trkpt>
      <trkpt lat="49.88103" lon="2.30767">
        <ele>60.9</ele>
        <time>2022-04-11T07:38:26Z</time>
      </trkpt>
      <trkpt lat="49.88104" lon="2.30768">
        <ele>60.9</ele>
        <time>2022-04-11T07:38:28Z</time>
      </trkpt>
      <trkpt lat="49.88105" lon="2.30769">
        <ele>60.9</ele>
        <time>2022-04-11T07:38:29Z</time>
      </trkpt>
      <trkpt lat="49.88106" lon="2.30769">
        <ele>60.9</ele>
        <time>2022-04-11T07:38:30Z</time>
      </trkpt>
      <trkpt lat="49.88107" lon="2.3077">
        <ele>60.8</ele>
        <time>2022-04-11T07:38:31Z</time>
      </trkpt>
      <trkpt lat="49.88107" lon="2.30771">
        <ele>60.8</ele>
        <time>2022-04-11T07:38:32Z</time>
      </trkpt>
      <trkpt lat="49.88108" lon="2.30771">
        <ele>60.8</ele>
        <time>2022-04-11T07:38:33Z</time>
      </trkpt>
      <trkpt lat="49.88109" lon="2.30772">
        <ele>60.8</ele>
        <time>2022-04-11T07:38:35Z</time>
      </trkpt>
      <trkpt lat="49.8811" lon="2.30773">
        <ele>60.8</ele>
        <time>2022-04-11T07:38:36Z</time>
      </trkpt>
      <trkpt lat="49.8811" lon="2.30773">
        <ele>60.8</ele>
        <time>2022-04-11T07:38:37Z</time>
      </trkpt>
      <trkpt lat="49.88111" lon="2.30773">
        <ele>60.8</ele>
        <time>2022-04-11T07:38:38Z</time>
      </trkpt>
      <trkpt lat="49.88112" lon="2.30774">
        <ele>60.7</ele>
        <time>2022-04-11T07:38:39Z</time>
      </trkpt>
      <trkpt lat="49.88114" lon="2.30774">
        <ele>60.7</ele>
        <time>2022-04-11T07:38:40Z</time>
      </trkpt>
      <trkpt lat="49.88115" lon="2.30775">
        <ele>60.7</ele>
        <time>2022-04-11T07:38:41Z</time>
      </trkpt>
      <trkpt lat="49.88116" lon="2.30775">
        <ele>60.7</ele>
        <time>2022-04-11T07:38:42Z</time>
      </trkpt>
      <trkpt lat="49.88117" lon="2.30776">
        <ele>60.6</ele>
        <time>2022-04-11T07:38:43Z</time>
      </trkpt>
      <trkpt lat="49.88118" lon="2.30776">
        <ele>60.6</ele>
        <time>2022-04-11T07:38:44Z</time>
      </trkpt>
      <trkpt lat="49.88119" lon="2.30777">
        <ele>60.6</ele>
        <time>2022-04-11T07:38:46Z</time>
      </trkpt>
      <trkpt lat="49.8812" lon="2.30778">
        <ele>60.6</ele>
        <time>2022-04-11T07:38:47Z</time>
      </trkpt>
      <trkpt lat="49.88121" lon="2.30779">
        <ele>60.6</ele>
        <time>2022-04-11T07:38:48Z</time>
      </trkpt>
      <trkpt lat="49.88122" lon="2.3078">
        <ele>60.5</ele>
        <time>2022-04-11T07:38:49Z</time>
      </trkpt>
      <trkpt lat="49.88122" lon="2.3078">
        <ele>60.5</ele>
        <time>2022-04-11T07:38:50Z</time>
      </trkpt>
      <trkpt lat="49.88124" lon="2.3078">
        <ele>60.5</ele>
        <time>2022-04-11T07:38:52Z</time>
      </trkpt>
      <trkpt lat="49.88125" lon="2.3078">
        <ele>60.5</ele>
        <time>2022-04-11T07:38:53Z</time>
      </trkpt>
      <trkpt lat="49.88126" lon="2.3078">
        <ele>60.5</ele>
        <time>2022-04-11T07:38:54Z</time>
      </trkpt>
      <trkpt lat="49.88127" lon="2.3078">
        <ele>60.5</ele>
        <time>2022-04-11T07:38:55Z</time>
      </trkpt>
      <trkpt lat="49.88128" lon="2.3078">
        <ele>60.5</ele>
        <time>2022-04-11T07:38:56Z</time>
      </trkpt>
      <trkpt lat="49.88131" lon="2.3078">
        <ele>60.4</ele>
        <time>2022-04-11T07:38:58Z</time>
      </trkpt>
      <trkpt lat="49.88133" lon="2.30779">
        <ele>60.4</ele>
        <time>2022-04-11T07:38:59Z</time>
      </trkpt>
      <trkpt lat="49.88133" lon="2.30779">
        <ele>60.4</ele>
        <time>2022-04-11T07:39:00Z</time>
      </trkpt>
      <trkpt lat="49.88134" lon="2.30778">
        <ele>60.4</ele>
        <time>2022-04-11T07:39:01Z</time>
      </trkpt>
      <trkpt lat="49.88136" lon="2.30778">
        <ele>60.4</ele>
        <time>2022-04-11T07:39:02Z</time>
      </trkpt>
      <trkpt lat="49.88138" lon="2.30777">
        <ele>60.4</ele>
        <time>2022-04-11T07:39:03Z</time>
      </trkpt>
      <trkpt lat="49.8814" lon="2.30777">
        <ele>60.4</ele>
        <time>2022-04-11T07:39:04Z</time>
      </trkpt>
      <trkpt lat="49.88141" lon="2.30777">
        <ele>60.3</ele>
        <time>2022-04-11T07:39:05Z</time>
      </trkpt>
      <trkpt lat="49.88143" lon="2.30776">
        <ele>60.3</ele>
        <time>2022-04-11T07:39:06Z</time>
      </trkpt>
      <trkpt lat="49.88146" lon="2.30776">
        <ele>60.3</ele>
        <time>2022-04-11T07:39:07Z</time>
      </trkpt>
      <trkpt lat="49.88147" lon="2.30776">
        <ele>60.3</ele>
        <time>2022-04-11T07:39:08Z</time>
      </trkpt>
      <trkpt lat="49.88149" lon="2.30776">
        <ele>60.3</ele>
        <time>2022-04-11T07:39:09Z</time>
      </trkpt>
      <trkpt lat="49.88151" lon="2.30777">
        <ele>60.3</ele>
        <time>2022-04-11T07:39:11Z</time>
      </trkpt>
      <trkpt lat="49.88154" lon="2.30777">
        <ele>60.3</ele>
        <time>2022-04-11T07:39:12Z</time>
      </trkpt>
      <trkpt lat="49.88155" lon="2.30777">
        <ele>60.3</ele>
        <time>2022-04-11T07:39:13Z</time>
      </trkpt>
      <trkpt lat="49.88158" lon="2.30777">
        <ele>60.3</ele>
        <time>2022-04-11T07:39:14Z</time>
      </trkpt>
      <trkpt lat="49.88159" lon="2.30777">
        <ele>60.3</ele>
        <time>2022-04-11T07:39:15Z</time>
      </trkpt>
      <trkpt lat="49.8816" lon="2.30777">
        <ele>60.2</ele>
        <time>2022-04-11T07:39:17Z</time>
      </trkpt>
      <trkpt lat="49.88162" lon="2.30777">
        <ele>60.2</ele>
        <time>2022-04-11T07:39:18Z</time>
      </trkpt>
      <trkpt lat="49.88163" lon="2.30777">
        <ele>60.2</ele>
        <time>2022-04-11T07:39:19Z</time>
      </trkpt>
      <trkpt lat="49.88165" lon="2.30777">
        <ele>60.2</ele>
        <time>2022-04-11T07:39:20Z</time>
      </trkpt>
      <trkpt lat="49.88166" lon="2.30777">
        <ele>60.2</ele>
        <time>2022-04-11T07:39:21Z</time>
      </trkpt>
      <trkpt lat="49.88168" lon="2.30776">
        <ele>60.2</ele>
        <time>2022-04-11T07:39:22Z</time>
      </trkpt>
      <trkpt lat="49.88169" lon="2.30776">
        <ele>60.2</ele>
        <time>2022-04-11T07:39:23Z</time>
      </trkpt>
      <trkpt lat="49.88171" lon="2.30776">
        <ele>60.2</ele>
        <time>2022-04-11T07:39:24Z</time>
      </trkpt>
      <trkpt lat="49.88172" lon="2.30776">
        <ele>60.2</ele>
        <time>2022-04-11T07:39:25Z</time>
      </trkpt>
      <trkpt lat="49.88173" lon="2.30776">
        <ele>60.2</ele>
        <time>2022-04-11T07:39:26Z</time>
      </trkpt>
      <trkpt lat="49.88174" lon="2.30776">
        <ele>60.2</ele>
        <time>2022-04-11T07:39:28Z</time>
      </trkpt>
      <trkpt lat="49.88176" lon="2.30775">
        <ele>60.2</ele>
        <time>2022-04-11T07:39:29Z</time>
      </trkpt>
      <trkpt lat="49.88177" lon="2.30775">
        <ele>60.2</ele>
        <time>2022-04-11T07:39:30Z</time>
      </trkpt>
      <trkpt lat="49.88178" lon="2.30774">
        <ele>60.2</ele>
        <time>2022-04-11T07:39:31Z</time>
      </trkpt>
      <trkpt lat="49.88179" lon="2.30773">
        <ele>60.2</ele>
        <time>2022-04-11T07:39:32Z</time>
      </trkpt>
      <trkpt lat="49.8818" lon="2.30772">
        <ele>60.2</ele>
        <time>2022-04-11T07:39:33Z</time>
      </trkpt>
      <trkpt lat="49.88182" lon="2.30771">
        <ele>60.2</ele>
        <time>2022-04-11T07:39:34Z</time>
      </trkpt>
      <trkpt lat="49.88183" lon="2.3077">
        <ele>60.2</ele>
        <time>2022-04-11T07:39:35Z</time>
      </trkpt>
      <trkpt lat="49.88184" lon="2.3077">
        <ele>60.2</ele>
        <time>2022-04-11T07:39:36Z</time>
      </trkpt>
      <trkpt lat="49.88185" lon="2.30769">
        <ele>60.2</ele>
        <time>2022-04-11T07:39:37Z</time>
      </trkpt>
      <trkpt lat="49.88186" lon="2.30769">
        <ele>60.2</ele>
        <time>2022-04-11T07:39:38Z</time>
      </trkpt>
      <trkpt lat="49.88187" lon="2.30769">
        <ele>60.2</ele>
        <time>2022-04-11T07:39:39Z</time>
      </trkpt>
      <trkpt lat="49.88188" lon="2.30768">
        <ele>60.2</ele>
        <time>2022-04-11T07:39:40Z</time>
      </trkpt>
      <trkpt lat="49.88189" lon="2.30768">
        <ele>60.2</ele>
        <time>2022-04-11T07:39:42Z</time>
      </trkpt>
      <trkpt lat="49.8819" lon="2.30768">
        <ele>60.2</ele>
        <time>2022-04-11T07:39:43Z</time>
      </trkpt>
      <trkpt lat="49.88191" lon="2.30768">
        <ele>60.2</ele>
        <time>2022-04-11T07:39:44Z</time>
      </trkpt>
      <trkpt lat="49.88193" lon="2.30768">
        <ele>60.2</ele>
        <time>2022-04-11T07:39:45Z</time>
      </trkpt>
      <trkpt lat="49.88194" lon="2.30769">
        <ele>60.2</ele>
        <time>2022-04-11T07:39:46Z</time>
      </trkpt>
      <trkpt lat="49.88195" lon="2.3077">
        <ele>60.2</ele>
        <time>2022-04-11T07:39:47Z</time>
      </trkpt>
      <trkpt lat="49.88195" lon="2.3077">
        <ele>60.2</ele>
        <time>2022-04-11T07:39:48Z</time>
      </trkpt>
      <trkpt lat="49.88196" lon="2.3077">
        <ele>60.2</ele>
        <time>2022-04-11T07:39:49Z</time>
      </trkpt>
      <trkpt lat="49.88197" lon="2.3077">
        <ele>60.2</ele>
        <time>2022-04-11T07:39:50Z</time>
      </trkpt>
      <trkpt lat="49.88198" lon="2.30769">
        <ele>60.2</ele>
        <time>2022-04-11T07:39:51Z</time>
      </trkpt>
      <trkpt lat="49.88199" lon="2.30769">
        <ele>60.2</ele>
        <time>2022-04-11T07:39:53Z</time>
      </trkpt>
      <trkpt lat="49.88199" lon="2.30769">
        <ele>60.2</ele>
        <time>2022-04-11T07:39:54Z</time>
      </trkpt>
      <trkpt lat="49.882" lon="2.30769">
        <ele>60.2</ele>
        <time>2022-04-11T07:39:55Z</time>
      </trkpt>
      <trkpt lat="49.88201" lon="2.30769">
        <ele>60.2</ele>
        <time>2022-04-11T07:39:56Z</time>
      </trkpt>
      <trkpt lat="49.88202" lon="2.30769">
        <ele>60.1</ele>
        <time>2022-04-11T07:39:57Z</time>
      </trkpt>
      <trkpt lat="49.88203" lon="2.30769">
        <ele>60.1</ele>
        <time>2022-04-11T07:39:58Z</time>
      </trkpt>
      <trkpt lat="49.88204" lon="2.30769">
        <ele>60.1</ele>
        <time>2022-04-11T07:39:59Z</time>
      </trkpt>
      <trkpt lat="49.88206" lon="2.30769">
        <ele>60.1</ele>
        <time>2022-04-11T07:40:00Z</time>
      </trkpt>
      <trkpt lat="49.88207" lon="2.30769">
        <ele>60.1</ele>
        <time>2022-04-11T07:40:01Z</time>
      </trkpt>
      <trkpt lat="49.88208" lon="2.30769">
        <ele>60.1</ele>
        <time>2022-04-11T07:40:02Z</time>
      </trkpt>
      <trkpt lat="49.88209" lon="2.30769">
        <ele>60.1</ele>
        <time>2022-04-11T07:40:04Z</time>
      </trkpt>
      <trkpt lat="49.8821" lon="2.30769">
        <ele>60.1</ele>
        <time>2022-04-11T07:40:05Z</time>
      </trkpt>
      <trkpt lat="49.8821" lon="2.30769">
        <ele>60.1</ele>
        <time>2022-04-11T07:40:06Z</time>
      </trkpt>
      <trkpt lat="49.88211" lon="2.3077">
        <ele>60.1</ele>
        <time>2022-04-11T07:40:07Z</time>
      </trkpt>
      <trkpt lat="49.88212" lon="2.3077">
        <ele>60.1</ele>
        <time>2022-04-11T07:40:08Z</time>
      </trkpt>
      <trkpt lat="49.88214" lon="2.3077">
        <ele>60</ele>
        <time>2022-04-11T07:40:09Z</time>
      </trkpt>
      <trkpt lat="49.88215" lon="2.30769">
        <ele>60</ele>
        <time>2022-04-11T07:40:10Z</time>
      </trkpt>
      <trkpt lat="49.88215" lon="2.30768">
        <ele>60</ele>
        <time>2022-04-11T07:40:11Z</time>
      </trkpt>
      <trkpt lat="49.88217" lon="2.30768">
        <ele>60</ele>
        <time>2022-04-11T07:40:13Z</time>
      </trkpt>
      <trkpt lat="49.88218" lon="2.30767">
        <ele>60</ele>
        <time>2022-04-11T07:40:14Z</time>
      </trkpt>
      <trkpt lat="49.8822" lon="2.30767">
        <ele>60</ele>
        <time>2022-04-11T07:40:15Z</time>
      </trkpt>
      <trkpt lat="49.88221" lon="2.30766">
        <ele>60</ele>
        <time>2022-04-11T07:40:16Z</time>
      </trkpt>
      <trkpt lat="49.88222" lon="2.30766">
        <ele>60</ele>
        <time>2022-04-11T07:40:17Z</time>
      </trkpt>
      <trkpt lat="49.88224" lon="2.30765">
        <ele>59.9</ele>
        <time>2022-04-11T07:40:18Z</time>
      </trkpt>
      <trkpt lat="49.88227" lon="2.30763">
        <ele>59.9</ele>
        <time>2022-04-11T07:40:19Z</time>
      </trkpt>
      <trkpt lat="49.88228" lon="2.30763">
        <ele>59.9</ele>
        <time>2022-04-11T07:40:21Z</time>
      </trkpt>
      <trkpt lat="49.88229" lon="2.30762">
        <ele>59.9</ele>
        <time>2022-04-11T07:40:22Z</time>
      </trkpt>
      <trkpt lat="49.8823" lon="2.30761">
        <ele>59.9</ele>
        <time>2022-04-11T07:40:23Z</time>
      </trkpt>
      <trkpt lat="49.88232" lon="2.3076">
        <ele>59.9</ele>
        <time>2022-04-11T07:40:24Z</time>
      </trkpt>
      <trkpt lat="49.88235" lon="2.30758">
        <ele>59.8</ele>
        <time>2022-04-11T07:40:26Z</time>
      </trkpt>
      <trkpt lat="49.88237" lon="2.30758">
        <ele>59.8</ele>
        <time>2022-04-11T07:40:28Z</time>
      </trkpt>
      <trkpt lat="49.88237" lon="2.30758">
        <ele>59.8</ele>
        <time>2022-04-11T07:40:29Z</time>
      </trkpt>
      <trkpt lat="49.88239" lon="2.30758">
        <ele>59.8</ele>
        <time>2022-04-11T07:40:30Z</time>
      </trkpt>
      <trkpt lat="49.8824" lon="2.30758">
        <ele>59.8</ele>
        <time>2022-04-11T07:40:31Z</time>
      </trkpt>
      <trkpt lat="49.88241" lon="2.30758">
        <ele>59.8</ele>
        <time>2022-04-11T07:40:32Z</time>
      </trkpt>
      <trkpt lat="49.88242" lon="2.30758">
        <ele>59.8</ele>
        <time>2022-04-11T07:40:33Z</time>
      </trkpt>
      <trkpt lat="49.88244" lon="2.30757">
        <ele>59.8</ele>
        <time>2022-04-11T07:40:35Z</time>
      </trkpt>
      <trkpt lat="49.88245" lon="2.30757">
        <ele>59.8</ele>
        <time>2022-04-11T07:40:36Z</time>
      </trkpt>
      <trkpt lat="49.88246" lon="2.30757">
        <ele>59.7</ele>
        <time>2022-04-11T07:40:37Z</time>
      </trkpt>
      <trkpt lat="49.88246" lon="2.30756">
        <ele>59.7</ele>
        <time>2022-04-11T07:40:38Z</time>
      </trkpt>
      <trkpt lat="49.88247" lon="2.30755">
        <ele>59.7</ele>
        <time>2022-04-11T07:40:39Z</time>
      </trkpt>
      <trkpt lat="49.88249" lon="2.30755">
        <ele>59.7</ele>
        <time>2022-04-11T07:40:40Z</time>
      </trkpt>
      <trkpt lat="49.8825" lon="2.30754">
        <ele>59.7</ele>
        <time>2022-04-11T07:40:42Z</time>
      </trkpt>
      <trkpt lat="49.88251" lon="2.30754">
        <ele>59.7</ele>
        <time>2022-04-11T07:40:43Z</time>
      </trkpt>
      <trkpt lat="49.88253" lon="2.30754">
        <ele>59.7</ele>
        <time>2022-04-11T07:40:44Z</time>
      </trkpt>
      <trkpt lat="49.88254" lon="2.30753">
        <ele>59.6</ele>
        <time>2022-04-11T07:40:45Z</time>
      </trkpt>
      <trkpt lat="49.88258" lon="2.30752">
        <ele>59.6</ele>
        <time>2022-04-11T07:40:46Z</time>
      </trkpt>
      <trkpt lat="49.88259" lon="2.30752">
        <ele>59.6</ele>
        <time>2022-04-11T07:40:47Z</time>
      </trkpt>
      <trkpt lat="49.88263" lon="2.30751">
        <ele>59.5</ele>
        <time>2022-04-11T07:40:48Z</time>
      </trkpt>
      <trkpt lat="49.88264" lon="2.3075">
        <ele>59.5</ele>
        <time>2022-04-11T07:40:49Z</time>
      </trkpt>
      <trkpt lat="49.88268" lon="2.30749">
        <ele>59.5</ele>
        <time>2022-04-11T07:40:50Z</time>
      </trkpt>
      <trkpt lat="49.88269" lon="2.30749">
        <ele>59.5</ele>
        <time>2022-04-11T07:40:51Z</time>
      </trkpt>
      <trkpt lat="49.88272" lon="2.30747">
        <ele>59.4</ele>
        <time>2022-04-11T07:40:52Z</time>
      </trkpt>
      <trkpt lat="49.88273" lon="2.30747">
        <ele>59.4</ele>
        <time>2022-04-11T07:40:53Z</time>
      </trkpt>
      <trkpt lat="49.88275" lon="2.30746">
        <ele>59.4</ele>
        <time>2022-04-11T07:40:55Z</time>
      </trkpt>
      <trkpt lat="49.88276" lon="2.30745">
        <ele>59.4</ele>
        <time>2022-04-11T07:40:56Z</time>
      </trkpt>
      <trkpt lat="49.88278" lon="2.30745">
        <ele>59.4</ele>
        <time>2022-04-11T07:40:57Z</time>
      </trkpt>
      <trkpt lat="49.88279" lon="2.30744">
        <ele>59.4</ele>
        <time>2022-04-11T07:40:58Z</time>
      </trkpt>
      <trkpt lat="49.8828" lon="2.30744">
        <ele>59.4</ele>
        <time>2022-04-11T07:40:59Z</time>
      </trkpt>
      <trkpt lat="49.88281" lon="2.30743">
        <ele>59.3</ele>
        <time>2022-04-11T07:41:00Z</time>
      </trkpt>
      <trkpt lat="49.88282" lon="2.30743">
        <ele>59.3</ele>
        <time>2022-04-11T07:41:01Z</time>
      </trkpt>
      <trkpt lat="49.88283" lon="2.30743">
        <ele>59.3</ele>
        <time>2022-04-11T07:41:02Z</time>
      </trkpt>
      <trkpt lat="49.88284" lon="2.30743">
        <ele>59.3</ele>
        <time>2022-04-11T07:41:03Z</time>
      </trkpt>
      <trkpt lat="49.88285" lon="2.30742">
        <ele>59.3</ele>
        <time>2022-04-11T07:41:04Z</time>
      </trkpt>
      <trkpt lat="49.88286" lon="2.30742">
        <ele>59.3</ele>
        <time>2022-04-11T07:41:05Z</time>
      </trkpt>
      <trkpt lat="49.88287" lon="2.30741">
        <ele>59.3</ele>
        <time>2022-04-11T07:41:06Z</time>
      </trkpt>
      <trkpt lat="49.88288" lon="2.3074">
        <ele>59.3</ele>
        <time>2022-04-11T07:41:08Z</time>
      </trkpt>
      <trkpt lat="49.88289" lon="2.30739">
        <ele>59.2</ele>
        <time>2022-04-11T07:41:09Z</time>
      </trkpt>
      <trkpt lat="49.88289" lon="2.30739">
        <ele>59.2</ele>
        <time>2022-04-11T07:41:10Z</time>
      </trkpt>
      <trkpt lat="49.88289" lon="2.30739">
        <ele>59.2</ele>
        <time>2022-04-11T07:41:11Z</time>
      </trkpt>
      <trkpt lat="49.88289" lon="2.30739">
        <ele>59.2</ele>
        <time>2022-04-11T07:41:12Z</time>
      </trkpt>
      <trkpt lat="49.88289" lon="2.30738">
        <ele>59.2</ele>
        <time>2022-04-11T07:41:13Z</time>
      </trkpt>
      <trkpt lat="49.8829" lon="2.30738">
        <ele>59.2</ele>
        <time>2022-04-11T07:41:14Z</time>
      </trkpt>
      <trkpt lat="49.88291" lon="2.30738">
        <ele>59.2</ele>
        <time>2022-04-11T07:41:15Z</time>
      </trkpt>
      <trkpt lat="49.88293" lon="2.30737">
        <ele>59.2</ele>
        <time>2022-04-11T07:41:16Z</time>
      </trkpt>
      <trkpt lat="49.88294" lon="2.30737">
        <ele>59.2</ele>
        <time>2022-04-11T07:41:17Z</time>
      </trkpt>
      <trkpt lat="49.88295" lon="2.30736">
        <ele>59.2</ele>
        <time>2022-04-11T07:41:18Z</time>
      </trkpt>
      <trkpt lat="49.88297" lon="2.30735">
        <ele>59.1</ele>
        <time>2022-04-11T07:41:19Z</time>
      </trkpt>
      <trkpt lat="49.88298" lon="2.30734">
        <ele>59.1</ele>
        <time>2022-04-11T07:41:21Z</time>
      </trkpt>
      <trkpt lat="49.88299" lon="2.30734">
        <ele>59.1</ele>
        <time>2022-04-11T07:41:22Z</time>
      </trkpt>
      <trkpt lat="49.883" lon="2.30733">
        <ele>59.1</ele>
        <time>2022-04-11T07:41:23Z</time>
      </trkpt>
      <trkpt lat="49.88302" lon="2.30732">
        <ele>59.1</ele>
        <time>2022-04-11T07:41:24Z</time>
      </trkpt>
      <trkpt lat="49.88304" lon="2.30731">
        <ele>59.1</ele>
        <time>2022-04-11T07:41:25Z</time>
      </trkpt>
      <trkpt lat="49.88305" lon="2.3073">
        <ele>59</ele>
        <time>2022-04-11T07:41:26Z</time>
      </trkpt>
      <trkpt lat="49.88308" lon="2.30729">
        <ele>59</ele>
        <time>2022-04-11T07:41:27Z</time>
      </trkpt>
      <trkpt lat="49.88309" lon="2.30729">
        <ele>59</ele>
        <time>2022-04-11T07:41:28Z</time>
      </trkpt>
      <trkpt lat="49.88312" lon="2.30727">
        <ele>59</ele>
        <time>2022-04-11T07:41:30Z</time>
      </trkpt>
      <trkpt lat="49.88313" lon="2.30727">
        <ele>58.9</ele>
        <time>2022-04-11T07:41:31Z</time>
      </trkpt>
      <trkpt lat="49.88315" lon="2.30726">
        <ele>58.9</ele>
        <time>2022-04-11T07:41:32Z</time>
      </trkpt>
      <trkpt lat="49.88318" lon="2.30725">
        <ele>58.9</ele>
        <time>2022-04-11T07:41:33Z</time>
      </trkpt>
      <trkpt lat="49.88319" lon="2.30725">
        <ele>58.9</ele>
        <time>2022-04-11T07:41:34Z</time>
      </trkpt>
      <trkpt lat="49.88322" lon="2.30724">
        <ele>58.8</ele>
        <time>2022-04-11T07:41:35Z</time>
      </trkpt>
      <trkpt lat="49.88323" lon="2.30724">
        <ele>58.8</ele>
        <time>2022-04-11T07:41:36Z</time>
      </trkpt>
      <trkpt lat="49.88327" lon="2.30723">
        <ele>58.8</ele>
        <time>2022-04-11T07:41:38Z</time>
      </trkpt>
      <trkpt lat="49.88329" lon="2.30723">
        <ele>58.7</ele>
        <time>2022-04-11T07:41:39Z</time>
      </trkpt>
      <trkpt lat="49.88331" lon="2.30722">
        <ele>58.7</ele>
        <time>2022-04-11T07:41:40Z</time>
      </trkpt>
      <trkpt lat="49.88332" lon="2.30722">
        <ele>58.7</ele>
        <time>2022-04-11T07:41:41Z</time>
      </trkpt>
      <trkpt lat="49.88335" lon="2.30721">
        <ele>58.6</ele>
        <time>2022-04-11T07:41:42Z</time>
      </trkpt>
      <trkpt lat="49.88336" lon="2.30721">
        <ele>58.6</ele>
        <time>2022-04-11T07:41:43Z</time>
      </trkpt>
      <trkpt lat="49.88338" lon="2.3072">
        <ele>58.6</ele>
        <time>2022-04-11T07:41:44Z</time>
      </trkpt>
      <trkpt lat="49.8834" lon="2.30719">
        <ele>58.6</ele>
        <time>2022-04-11T07:41:45Z</time>
      </trkpt>
      <trkpt lat="49.88341" lon="2.30719">
        <ele>58.6</ele>
        <time>2022-04-11T07:41:46Z</time>
      </trkpt>
      <trkpt lat="49.88343" lon="2.30718">
        <ele>58.5</ele>
        <time>2022-04-11T07:41:47Z</time>
      </trkpt>
      <trkpt lat="49.88344" lon="2.30717">
        <ele>58.5</ele>
        <time>2022-04-11T07:41:48Z</time>
      </trkpt>
      <trkpt lat="49.88346" lon="2.30717">
        <ele>58.5</ele>
        <time>2022-04-11T07:41:50Z</time>
      </trkpt>
      <trkpt lat="49.88347" lon="2.30717">
        <ele>58.5</ele>
        <time>2022-04-11T07:41:51Z</time>
      </trkpt>
      <trkpt lat="49.88348" lon="2.30717">
        <ele>58.5</ele>
        <time>2022-04-11T07:41:52Z</time>
      </trkpt>
      <trkpt lat="49.88349" lon="2.30716">
        <ele>58.5</ele>
        <time>2022-04-11T07:41:53Z</time>
      </trkpt>
      <trkpt lat="49.8835" lon="2.30716">
        <ele>58.4</ele>
        <time>2022-04-11T07:41:54Z</time>
      </trkpt>
      <trkpt lat="49.88351" lon="2.30716">
        <ele>58.4</ele>
        <time>2022-04-11T07:41:55Z</time>
      </trkpt>
      <trkpt lat="49.88352" lon="2.30716">
        <ele>58.4</ele>
        <time>2022-04-11T07:41:57Z</time>
      </trkpt>
      <trkpt lat="49.88353" lon="2.30716">
        <ele>58.4</ele>
        <time>2022-04-11T07:41:58Z</time>
      </trkpt>
      <trkpt lat="49.88353" lon="2.30717">
        <ele>58.4</ele>
        <time>2022-04-11T07:41:59Z</time>
      </trkpt>
      <trkpt lat="49.88353" lon="2.30718">
        <ele>58.4</ele>
        <time>2022-04-11T07:42:00Z</time>
      </trkpt>
      <trkpt lat="49.88354" lon="2.30718">
        <ele>58.4</ele>
        <time>2022-04-11T07:42:01Z</time>
      </trkpt>
      <trkpt lat="49.88354" lon="2.3072">
        <ele>58.4</ele>
        <time>2022-04-11T07:42:02Z</time>
      </trkpt>
      <trkpt lat="49.88353" lon="2.30721">
        <ele>58.4</ele>
        <time>2022-04-11T07:42:03Z</time>
      </trkpt>
      <trkpt lat="49.88353" lon="2.30723">
        <ele>58.4</ele>
        <time>2022-04-11T07:42:04Z</time>
      </trkpt>
      <trkpt lat="49.88353" lon="2.30724">
        <ele>58.4</ele>
        <time>2022-04-11T07:42:05Z</time>
      </trkpt>
      <trkpt lat="49.88352" lon="2.30726">
        <ele>58.3</ele>
        <time>2022-04-11T07:42:06Z</time>
      </trkpt>
      <trkpt lat="49.88352" lon="2.30726">
        <ele>58.3</ele>
        <time>2022-04-11T07:42:07Z</time>
      </trkpt>
      <trkpt lat="49.88353" lon="2.30727">
        <ele>58.3</ele>
        <time>2022-04-11T07:42:08Z</time>
      </trkpt>
      <trkpt lat="49.88354" lon="2.30727">
        <ele>58.3</ele>
        <time>2022-04-11T07:42:09Z</time>
      </trkpt>
      <trkpt lat="49.88355" lon="2.30727">
        <ele>58.3</ele>
        <time>2022-04-11T07:42:10Z</time>
      </trkpt>
      <trkpt lat="49.88357" lon="2.30726">
        <ele>58.3</ele>
        <time>2022-04-11T07:42:11Z</time>
      </trkpt>
      <trkpt lat="49.88358" lon="2.30725">
        <ele>58.3</ele>
        <time>2022-04-11T07:42:13Z</time>
      </trkpt>
      <trkpt lat="49.88359" lon="2.30723">
        <ele>58.3</ele>
        <time>2022-04-11T07:42:14Z</time>
      </trkpt>
      <trkpt lat="49.8836" lon="2.30722">
        <ele>58.3</ele>
        <time>2022-04-11T07:42:15Z</time>
      </trkpt>
      <trkpt lat="49.88361" lon="2.30721">
        <ele>58.3</ele>
        <time>2022-04-11T07:42:16Z</time>
      </trkpt>
      <trkpt lat="49.88363" lon="2.30721">
        <ele>58.3</ele>
        <time>2022-04-11T07:42:17Z</time>
      </trkpt>
      <trkpt lat="49.88366" lon="2.30721">
        <ele>58.3</ele>
        <time>2022-04-11T07:42:18Z</time>
      </trkpt>
      <trkpt lat="49.88367" lon="2.30721">
        <ele>58.3</ele>
        <time>2022-04-11T07:42:19Z</time>
      </trkpt>
      <trkpt lat="49.88369" lon="2.30721">
        <ele>58.3</ele>
        <time>2022-04-11T07:42:20Z</time>
      </trkpt>
      <trkpt lat="49.88371" lon="2.30721">
        <ele>58.2</ele>
        <time>2022-04-11T07:42:21Z</time>
      </trkpt>
      <trkpt lat="49.88372" lon="2.30721">
        <ele>58.2</ele>
        <time>2022-04-11T07:42:22Z</time>
      </trkpt>
      <trkpt lat="49.88374" lon="2.30721">
        <ele>58.1</ele>
        <time>2022-04-11T07:42:24Z</time>
      </trkpt>
      <trkpt lat="49.88378" lon="2.3072">
        <ele>58.1</ele>
        <time>2022-04-11T07:42:25Z</time>
      </trkpt>
      <trkpt lat="49.88379" lon="2.3072">
        <ele>58.1</ele>
        <time>2022-04-11T07:42:26Z</time>
      </trkpt>
      <trkpt lat="49.88382" lon="2.3072">
        <ele>58</ele>
        <time>2022-04-11T07:42:27Z</time>
      </trkpt>
      <trkpt lat="49.88383" lon="2.3072">
        <ele>58</ele>
        <time>2022-04-11T07:42:28Z</time>
      </trkpt>
      <trkpt lat="49.88384" lon="2.3072">
        <ele>58</ele>
        <time>2022-04-11T07:42:29Z</time>
      </trkpt>
      <trkpt lat="49.88386" lon="2.30719">
        <ele>57.9</ele>
        <time>2022-04-11T07:42:30Z</time>
      </trkpt>
      <trkpt lat="49.88388" lon="2.30719">
        <ele>57.9</ele>
        <time>2022-04-11T07:42:31Z</time>
      </trkpt>
      <trkpt lat="49.88389" lon="2.30719">
        <ele>57.9</ele>
        <time>2022-04-11T07:42:32Z</time>
      </trkpt>
      <trkpt lat="49.88391" lon="2.30719">
        <ele>57.8</ele>
        <time>2022-04-11T07:42:34Z</time>
      </trkpt>
      <trkpt lat="49.88392" lon="2.30719">
        <ele>57.8</ele>
        <time>2022-04-11T07:42:35Z</time>
      </trkpt>
      <trkpt lat="49.88393" lon="2.3072">
        <ele>57.8</ele>
        <time>2022-04-11T07:42:36Z</time>
      </trkpt>
      <trkpt lat="49.88395" lon="2.3072">
        <ele>57.8</ele>
        <time>2022-04-11T07:42:37Z</time>
      </trkpt>
      <trkpt lat="49.88396" lon="2.3072">
        <ele>57.8</ele>
        <time>2022-04-11T07:42:38Z</time>
      </trkpt>
      <trkpt lat="49.88397" lon="2.3072">
        <ele>57.7</ele>
        <time>2022-04-11T07:42:39Z</time>
      </trkpt>
      <trkpt lat="49.88397" lon="2.3072">
        <ele>57.7</ele>
        <time>2022-04-11T07:42:40Z</time>
      </trkpt>
      <trkpt lat="49.88397" lon="2.30721">
        <ele>57.7</ele>
        <time>2022-04-11T07:42:41Z</time>
      </trkpt>
      <trkpt lat="49.88398" lon="2.30721">
        <ele>57.7</ele>
        <time>2022-04-11T07:42:42Z</time>
      </trkpt>
      <trkpt lat="49.88398" lon="2.30721">
        <ele>57.7</ele>
        <time>2022-04-11T07:42:43Z</time>
      </trkpt>
      <trkpt lat="49.88398" lon="2.30722">
        <ele>57.7</ele>
        <time>2022-04-11T07:42:44Z</time>
      </trkpt>
      <trkpt lat="49.88399" lon="2.30722">
        <ele>57.7</ele>
        <time>2022-04-11T07:42:46Z</time>
      </trkpt>
      <trkpt lat="49.88399" lon="2.30722">
        <ele>57.7</ele>
        <time>2022-04-11T07:42:47Z</time>
      </trkpt>
      <trkpt lat="49.884" lon="2.30723">
        <ele>57.7</ele>
        <time>2022-04-11T07:42:48Z</time>
      </trkpt>
      <trkpt lat="49.88402" lon="2.30723">
        <ele>57.6</ele>
        <time>2022-04-11T07:42:49Z</time>
      </trkpt>
      <trkpt lat="49.88403" lon="2.30723">
        <ele>57.6</ele>
        <time>2022-04-11T07:42:50Z</time>
      </trkpt>
      <trkpt lat="49.88405" lon="2.30724">
        <ele>57.6</ele>
        <time>2022-04-11T07:42:51Z</time>
      </trkpt>
      <trkpt lat="49.88406" lon="2.30724">
        <ele>57.6</ele>
        <time>2022-04-11T07:42:52Z</time>
      </trkpt>
      <trkpt lat="49.88408" lon="2.30725">
        <ele>57.5</ele>
        <time>2022-04-11T07:42:53Z</time>
      </trkpt>
      <trkpt lat="49.8841" lon="2.30725">
        <ele>57.5</ele>
        <time>2022-04-11T07:42:54Z</time>
      </trkpt>
      <trkpt lat="49.88411" lon="2.30726">
        <ele>57.5</ele>
        <time>2022-04-11T07:42:55Z</time>
      </trkpt>
      <trkpt lat="49.88414" lon="2.30726">
        <ele>57.4</ele>
        <time>2022-04-11T07:42:56Z</time>
      </trkpt>
      <trkpt lat="49.88415" lon="2.30726">
        <ele>57.4</ele>
        <time>2022-04-11T07:42:58Z</time>
      </trkpt>
      <trkpt lat="49.88416" lon="2.30727">
        <ele>57.4</ele>
        <time>2022-04-11T07:42:59Z</time>
      </trkpt>
      <trkpt lat="49.88417" lon="2.30727">
        <ele>57.3</ele>
        <time>2022-04-11T07:43:00Z</time>
      </trkpt>
      <trkpt lat="49.88418" lon="2.30727">
        <ele>57.3</ele>
        <time>2022-04-11T07:43:01Z</time>
      </trkpt>
      <trkpt lat="49.8842" lon="2.30728">
        <ele>57.3</ele>
        <time>2022-04-11T07:43:02Z</time>
      </trkpt>
      <trkpt lat="49.88421" lon="2.30728">
        <ele>57.2</ele>
        <time>2022-04-11T07:43:03Z</time>
      </trkpt>
      <trkpt lat="49.88422" lon="2.30728">
        <ele>57.2</ele>
        <time>2022-04-11T07:43:04Z</time>
      </trkpt>
      <trkpt lat="49.88424" lon="2.30728">
        <ele>57.2</ele>
        <time>2022-04-11T07:43:05Z</time>
      </trkpt>
      <trkpt lat="49.88425" lon="2.30728">
        <ele>57.2</ele>
        <time>2022-04-11T07:43:06Z</time>
      </trkpt>
      <trkpt lat="49.88425" lon="2.30728">
        <ele>57.1</ele>
        <time>2022-04-11T07:43:07Z</time>
      </trkpt>
      <trkpt lat="49.88427" lon="2.30728">
        <ele>57.1</ele>
        <time>2022-04-11T07:43:08Z</time>
      </trkpt>
      <trkpt lat="49.88428" lon="2.30728">
        <ele>57.1</ele>
        <time>2022-04-11T07:43:10Z</time>
      </trkpt>
      <trkpt lat="49.88429" lon="2.30728">
        <ele>57.1</ele>
        <time>2022-04-11T07:43:11Z</time>
      </trkpt>
      <trkpt lat="49.8843" lon="2.30728">
        <ele>57</ele>
        <time>2022-04-11T07:43:12Z</time>
      </trkpt>
      <trkpt lat="49.8843" lon="2.30728">
        <ele>57</ele>
        <time>2022-04-11T07:43:13Z</time>
      </trkpt>
      <trkpt lat="49.88431" lon="2.30728">
        <ele>57</ele>
        <time>2022-04-11T07:43:14Z</time>
      </trkpt>
      <trkpt lat="49.88432" lon="2.30728">
        <ele>57</ele>
        <time>2022-04-11T07:43:15Z</time>
      </trkpt>
      <trkpt lat="49.88433" lon="2.30727">
        <ele>56.9</ele>
        <time>2022-04-11T07:43:16Z</time>
      </trkpt>
      <trkpt lat="49.88434" lon="2.30727">
        <ele>56.9</ele>
        <time>2022-04-11T07:43:17Z</time>
      </trkpt>
      <trkpt lat="49.88436" lon="2.30727">
        <ele>56.9</ele>
        <time>2022-04-11T07:43:18Z</time>
      </trkpt>
      <trkpt lat="49.88437" lon="2.30727">
        <ele>56.9</ele>
        <time>2022-04-11T07:43:19Z</time>
      </trkpt>
      <trkpt lat="49.88438" lon="2.30726">
        <ele>56.8</ele>
        <time>2022-04-11T07:43:21Z</time>
      </trkpt>
      <trkpt lat="49.88439" lon="2.30726">
        <ele>56.8</ele>
        <time>2022-04-11T07:43:22Z</time>
      </trkpt>
      <trkpt lat="49.88441" lon="2.30725">
        <ele>56.7</ele>
        <time>2022-04-11T07:43:23Z</time>
      </trkpt>
      <trkpt lat="49.88443" lon="2.30724">
        <ele>56.7</ele>
        <time>2022-04-11T07:43:24Z</time>
      </trkpt>
      <trkpt lat="49.88444" lon="2.30724">
        <ele>56.7</ele>
        <time>2022-04-11T07:43:25Z</time>
      </trkpt>
      <trkpt lat="49.88445" lon="2.30723">
        <ele>56.6</ele>
        <time>2022-04-11T07:43:26Z</time>
      </trkpt>
      <trkpt lat="49.88446" lon="2.30723">
        <ele>56.6</ele>
        <time>2022-04-11T07:43:27Z</time>
      </trkpt>
      <trkpt lat="49.88447" lon="2.30723">
        <ele>56.6</ele>
        <time>2022-04-11T07:43:28Z</time>
      </trkpt>
      <trkpt lat="49.88448" lon="2.30723">
        <ele>56.6</ele>
        <time>2022-04-11T07:43:29Z</time>
      </trkpt>
      <trkpt lat="49.88449" lon="2.30723">
        <ele>56.5</ele>
        <time>2022-04-11T07:43:31Z</time>
      </trkpt>
      <trkpt lat="49.8845" lon="2.30723">
        <ele>56.5</ele>
        <time>2022-04-11T07:43:32Z</time>
      </trkpt>
      <trkpt lat="49.88451" lon="2.30723">
        <ele>56.4</ele>
        <time>2022-04-11T07:43:33Z</time>
      </trkpt>
      <trkpt lat="49.88452" lon="2.30722">
        <ele>56.4</ele>
        <time>2022-04-11T07:43:34Z</time>
      </trkpt>
      <trkpt lat="49.88453" lon="2.30722">
        <ele>56.4</ele>
        <time>2022-04-11T07:43:35Z</time>
      </trkpt>
      <trkpt lat="49.88455" lon="2.30721">
        <ele>56.3</ele>
        <time>2022-04-11T07:43:36Z</time>
      </trkpt>
      <trkpt lat="49.88456" lon="2.30721">
        <ele>56.3</ele>
        <time>2022-04-11T07:43:37Z</time>
      </trkpt>
      <trkpt lat="49.88457" lon="2.3072">
        <ele>56.2</ele>
        <time>2022-04-11T07:43:38Z</time>
      </trkpt>
      <trkpt lat="49.88459" lon="2.3072">
        <ele>56.2</ele>
        <time>2022-04-11T07:43:39Z</time>
      </trkpt>
      <trkpt lat="49.8846" lon="2.3072">
        <ele>56.1</ele>
        <time>2022-04-11T07:43:40Z</time>
      </trkpt>
      <trkpt lat="49.88461" lon="2.3072">
        <ele>56.1</ele>
        <time>2022-04-11T07:43:41Z</time>
      </trkpt>
      <trkpt lat="49.88462" lon="2.30719">
        <ele>56.1</ele>
        <time>2022-04-11T07:43:42Z</time>
      </trkpt>
      <trkpt lat="49.88463" lon="2.30719">
        <ele>56</ele>
        <time>2022-04-11T07:43:44Z</time>
      </trkpt>
      <trkpt lat="49.88465" lon="2.30719">
        <ele>56</ele>
        <time>2022-04-11T07:43:45Z</time>
      </trkpt>
      <trkpt lat="49.88466" lon="2.30718">
        <ele>55.9</ele>
        <time>2022-04-11T07:43:46Z</time>
      </trkpt>
      <trkpt lat="49.88469" lon="2.30717">
        <ele>55.8</ele>
        <time>2022-04-11T07:43:47Z</time>
      </trkpt>
      <trkpt lat="49.8847" lon="2.30717">
        <ele>55.8</ele>
        <time>2022-04-11T07:43:48Z</time>
      </trkpt>
      <trkpt lat="49.88473" lon="2.30716">
        <ele>55.7</ele>
        <time>2022-04-11T07:43:49Z</time>
      </trkpt>
      <trkpt lat="49.88474" lon="2.30716">
        <ele>55.7</ele>
        <time>2022-04-11T07:43:50Z</time>
      </trkpt>
      <trkpt lat="49.88476" lon="2.30716">
        <ele>55.6</ele>
        <time>2022-04-11T07:43:51Z</time>
      </trkpt>
      <trkpt lat="49.88478" lon="2.30715">
        <ele>55.6</ele>
        <time>2022-04-11T07:43:52Z</time>
      </trkpt>
      <trkpt lat="49.88479" lon="2.30715">
        <ele>55.5</ele>
        <time>2022-04-11T07:43:53Z</time>
      </trkpt>
      <trkpt lat="49.88481" lon="2.30714">
        <ele>55.5</ele>
        <time>2022-04-11T07:43:54Z</time>
      </trkpt>
      <trkpt lat="49.88482" lon="2.30714">
        <ele>55.4</ele>
        <time>2022-04-11T07:43:55Z</time>
      </trkpt>
      <trkpt lat="49.88484" lon="2.30714">
        <ele>55.4</ele>
        <time>2022-04-11T07:43:56Z</time>
      </trkpt>
      <trkpt lat="49.88487" lon="2.30713">
        <ele>55.3</ele>
        <time>2022-04-11T07:43:58Z</time>
      </trkpt>
      <trkpt lat="49.88488" lon="2.30713">
        <ele>55.3</ele>
        <time>2022-04-11T07:43:59Z</time>
      </trkpt>
      <trkpt lat="49.88491" lon="2.30713">
        <ele>55.2</ele>
        <time>2022-04-11T07:44:00Z</time>
      </trkpt>
      <trkpt lat="49.88492" lon="2.30713">
        <ele>55.2</ele>
        <time>2022-04-11T07:44:01Z</time>
      </trkpt>
      <trkpt lat="49.88493" lon="2.30713">
        <ele>55.1</ele>
        <time>2022-04-11T07:44:02Z</time>
      </trkpt>
      <trkpt lat="49.88495" lon="2.30712">
        <ele>55.1</ele>
        <time>2022-04-11T07:44:03Z</time>
      </trkpt>
      <trkpt lat="49.88497" lon="2.30713">
        <ele>55</ele>
        <time>2022-04-11T07:44:04Z</time>
      </trkpt>
      <trkpt lat="49.88498" lon="2.30713">
        <ele>55</ele>
        <time>2022-04-11T07:44:05Z</time>
      </trkpt>
      <trkpt lat="49.88499" lon="2.30713">
        <ele>54.9</ele>
        <time>2022-04-11T07:44:06Z</time>
      </trkpt>
      <trkpt lat="49.885" lon="2.30713">
        <ele>54.9</ele>
        <time>2022-04-11T07:44:08Z</time>
      </trkpt>
      <trkpt lat="49.88502" lon="2.30713">
        <ele>54.9</ele>
        <time>2022-04-11T07:44:09Z</time>
      </trkpt>
      <trkpt lat="49.88504" lon="2.30713">
        <ele>54.8</ele>
        <time>2022-04-11T07:44:10Z</time>
      </trkpt>
      <trkpt lat="49.88505" lon="2.30713">
        <ele>54.8</ele>
        <time>2022-04-11T07:44:11Z</time>
      </trkpt>
      <trkpt lat="49.88506" lon="2.30713">
        <ele>54.8</ele>
        <time>2022-04-11T07:44:12Z</time>
      </trkpt>
      <trkpt lat="49.88509" lon="2.30714">
        <ele>54.7</ele>
        <time>2022-04-11T07:44:13Z</time>
      </trkpt>
      <trkpt lat="49.8851" lon="2.30714">
        <ele>54.7</ele>
        <time>2022-04-11T07:44:14Z</time>
      </trkpt>
      <trkpt lat="49.88511" lon="2.30714">
        <ele>54.6</ele>
        <time>2022-04-11T07:44:15Z</time>
      </trkpt>
      <trkpt lat="49.88513" lon="2.30714">
        <ele>54.6</ele>
        <time>2022-04-11T07:44:16Z</time>
      </trkpt>
      <trkpt lat="49.88515" lon="2.30715">
        <ele>54.6</ele>
        <time>2022-04-11T07:44:17Z</time>
      </trkpt>
      <trkpt lat="49.88516" lon="2.30715">
        <ele>54.5</ele>
        <time>2022-04-11T07:44:19Z</time>
      </trkpt>
      <trkpt lat="49.88517" lon="2.30715">
        <ele>54.5</ele>
        <time>2022-04-11T07:44:20Z</time>
      </trkpt>
      <trkpt lat="49.88519" lon="2.30716">
        <ele>54.4</ele>
        <time>2022-04-11T07:44:21Z</time>
      </trkpt>
      <trkpt lat="49.8852" lon="2.30716">
        <ele>54.4</ele>
        <time>2022-04-11T07:44:22Z</time>
      </trkpt>
      <trkpt lat="49.88521" lon="2.30716">
        <ele>54.4</ele>
        <time>2022-04-11T07:44:23Z</time>
      </trkpt>
      <trkpt lat="49.88522" lon="2.30716">
        <ele>54.3</ele>
        <time>2022-04-11T07:44:24Z</time>
      </trkpt>
      <trkpt lat="49.88522" lon="2.30716">
        <ele>54.3</ele>
        <time>2022-04-11T07:44:25Z</time>
      </trkpt>
      <trkpt lat="49.88524" lon="2.30717">
        <ele>54.3</ele>
        <time>2022-04-11T07:44:26Z</time>
      </trkpt>
      <trkpt lat="49.88525" lon="2.30717">
        <ele>54.2</ele>
        <time>2022-04-11T07:44:27Z</time>
      </trkpt>
      <trkpt lat="49.88527" lon="2.30717">
        <ele>54.2</ele>
        <time>2022-04-11T07:44:28Z</time>
      </trkpt>
      <trkpt lat="49.8853" lon="2.30717">
        <ele>54.1</ele>
        <time>2022-04-11T07:44:29Z</time>
      </trkpt>
      <trkpt lat="49.88531" lon="2.30718">
        <ele>54.1</ele>
        <time>2022-04-11T07:44:31Z</time>
      </trkpt>
      <trkpt lat="49.88532" lon="2.30718">
        <ele>54</ele>
        <time>2022-04-11T07:44:32Z</time>
      </trkpt>
      <trkpt lat="49.88533" lon="2.30719">
        <ele>54</ele>
        <time>2022-04-11T07:44:33Z</time>
      </trkpt>
      <trkpt lat="49.88534" lon="2.30719">
        <ele>54</ele>
        <time>2022-04-11T07:44:34Z</time>
      </trkpt>
      <trkpt lat="49.88534" lon="2.30719">
        <ele>53.9</ele>
        <time>2022-04-11T07:44:35Z</time>
      </trkpt>
      <trkpt lat="49.88535" lon="2.3072">
        <ele>53.9</ele>
        <time>2022-04-11T07:44:36Z</time>
      </trkpt>
      <trkpt lat="49.88535" lon="2.3072">
        <ele>53.9</ele>
        <time>2022-04-11T07:44:37Z</time>
      </trkpt>
      <trkpt lat="49.88536" lon="2.3072">
        <ele>53.9</ele>
        <time>2022-04-11T07:44:38Z</time>
      </trkpt>
      <trkpt lat="49.88537" lon="2.3072">
        <ele>53.8</ele>
        <time>2022-04-11T07:44:39Z</time>
      </trkpt>
      <trkpt lat="49.88538" lon="2.30721">
        <ele>53.8</ele>
        <time>2022-04-11T07:44:40Z</time>
      </trkpt>
      <trkpt lat="49.88538" lon="2.3072">
        <ele>53.8</ele>
        <time>2022-04-11T07:44:41Z</time>
      </trkpt>
      <trkpt lat="49.88539" lon="2.3072">
        <ele>53.8</ele>
        <time>2022-04-11T07:44:42Z</time>
      </trkpt>
      <trkpt lat="49.8854" lon="2.3072">
        <ele>53.8</ele>
        <time>2022-04-11T07:44:44Z</time>
      </trkpt>
      <trkpt lat="49.88541" lon="2.30719">
        <ele>53.7</ele>
        <time>2022-04-11T07:44:45Z</time>
      </trkpt>
      <trkpt lat="49.88542" lon="2.30719">
        <ele>53.7</ele>
        <time>2022-04-11T07:44:46Z</time>
      </trkpt>
      <trkpt lat="49.88543" lon="2.30718">
        <ele>53.7</ele>
        <time>2022-04-11T07:44:47Z</time>
      </trkpt>
      <trkpt lat="49.88544" lon="2.30718">
        <ele>53.6</ele>
        <time>2022-04-11T07:44:48Z</time>
      </trkpt>
      <trkpt lat="49.88545" lon="2.30717">
        <ele>53.6</ele>
        <time>2022-04-11T07:44:49Z</time>
      </trkpt>
      <trkpt lat="49.88547" lon="2.30717">
        <ele>53.6</ele>
        <time>2022-04-11T07:44:51Z</time>
      </trkpt>
      <trkpt lat="49.88548" lon="2.30717">
        <ele>53.5</ele>
        <time>2022-04-11T07:44:52Z</time>
      </trkpt>
      <trkpt lat="49.8855" lon="2.30717">
        <ele>53.5</ele>
        <time>2022-04-11T07:44:53Z</time>
      </trkpt>
      <trkpt lat="49.88551" lon="2.30716">
        <ele>53.4</ele>
        <time>2022-04-11T07:44:54Z</time>
      </trkpt>
      <trkpt lat="49.88553" lon="2.30716">
        <ele>53.4</ele>
        <time>2022-04-11T07:44:55Z</time>
      </trkpt>
      <trkpt lat="49.88554" lon="2.30716">
        <ele>53.3</ele>
        <time>2022-04-11T07:44:56Z</time>
      </trkpt>
      <trkpt lat="49.88555" lon="2.30715">
        <ele>53.3</ele>
        <time>2022-04-11T07:44:57Z</time>
      </trkpt>
      <trkpt lat="49.88557" lon="2.30715">
        <ele>53.3</ele>
        <time>2022-04-11T07:44:58Z</time>
      </trkpt>
      <trkpt lat="49.88558" lon="2.30715">
        <ele>53.2</ele>
        <time>2022-04-11T07:44:59Z</time>
      </trkpt>
      <trkpt lat="49.8856" lon="2.30715">
        <ele>53.2</ele>
        <time>2022-04-11T07:45:00Z</time>
      </trkpt>
      <trkpt lat="49.88561" lon="2.30715">
        <ele>53.1</ele>
        <time>2022-04-11T07:45:01Z</time>
      </trkpt>
      <trkpt lat="49.88563" lon="2.30715">
        <ele>53.1</ele>
        <time>2022-04-11T07:45:02Z</time>
      </trkpt>
      <trkpt lat="49.88565" lon="2.30715">
        <ele>53</ele>
        <time>2022-04-11T07:45:04Z</time>
      </trkpt>
      <trkpt lat="49.88566" lon="2.30715">
        <ele>53</ele>
        <time>2022-04-11T07:45:05Z</time>
      </trkpt>
      <trkpt lat="49.88566" lon="2.30715">
        <ele>53</ele>
        <time>2022-04-11T07:45:06Z</time>
      </trkpt>
      <trkpt lat="49.88567" lon="2.30715">
        <ele>53</ele>
        <time>2022-04-11T07:45:07Z</time>
      </trkpt>
      <trkpt lat="49.88568" lon="2.30715">
        <ele>53</ele>
        <time>2022-04-11T07:45:08Z</time>
      </trkpt>
      <trkpt lat="49.8857" lon="2.30714">
        <ele>52.9</ele>
        <time>2022-04-11T07:45:09Z</time>
      </trkpt>
      <trkpt lat="49.88571" lon="2.30714">
        <ele>52.9</ele>
        <time>2022-04-11T07:45:10Z</time>
      </trkpt>
      <trkpt lat="49.88572" lon="2.30714">
        <ele>52.9</ele>
        <time>2022-04-11T07:45:11Z</time>
      </trkpt>
      <trkpt lat="49.88573" lon="2.30713">
        <ele>52.8</ele>
        <time>2022-04-11T07:45:12Z</time>
      </trkpt>
      <trkpt lat="49.88575" lon="2.30713">
        <ele>52.8</ele>
        <time>2022-04-11T07:45:13Z</time>
      </trkpt>
      <trkpt lat="49.88576" lon="2.30712">
        <ele>52.7</ele>
        <time>2022-04-11T07:45:14Z</time>
      </trkpt>
      <trkpt lat="49.88578" lon="2.30712">
        <ele>52.7</ele>
        <time>2022-04-11T07:45:15Z</time>
      </trkpt>
      <trkpt lat="49.88579" lon="2.30712">
        <ele>52.7</ele>
        <time>2022-04-11T07:45:17Z</time>
      </trkpt>
      <trkpt lat="49.8858" lon="2.30713">
        <ele>52.6</ele>
        <time>2022-04-11T07:45:18Z</time>
      </trkpt>
      <trkpt lat="49.8858" lon="2.30713">
        <ele>52.6</ele>
        <time>2022-04-11T07:45:19Z</time>
      </trkpt>
      <trkpt lat="49.88579" lon="2.30714">
        <ele>52.6</ele>
        <time>2022-04-11T07:45:20Z</time>
      </trkpt>
      <trkpt lat="49.88579" lon="2.30713">
        <ele>52.6</ele>
        <time>2022-04-11T07:45:21Z</time>
      </trkpt>
      <trkpt lat="49.8858" lon="2.30713">
        <ele>52.6</ele>
        <time>2022-04-11T07:45:22Z</time>
      </trkpt>
      <trkpt lat="49.88581" lon="2.30713">
        <ele>52.6</ele>
        <time>2022-04-11T07:45:23Z</time>
      </trkpt>
      <trkpt lat="49.88582" lon="2.30712">
        <ele>52.5</ele>
        <time>2022-04-11T07:45:24Z</time>
      </trkpt>
      <trkpt lat="49.88583" lon="2.30712">
        <ele>52.5</ele>
        <time>2022-04-11T07:45:25Z</time>
      </trkpt>
      <trkpt lat="49.88584" lon="2.30711">
        <ele>52.5</ele>
        <time>2022-04-11T07:45:26Z</time>
      </trkpt>
      <trkpt lat="49.88585" lon="2.30711">
        <ele>52.4</ele>
        <time>2022-04-11T07:45:28Z</time>
      </trkpt>
      <trkpt lat="49.88586" lon="2.30712">
        <ele>52.4</ele>
        <time>2022-04-11T07:45:29Z</time>
      </trkpt>
      <trkpt lat="49.88587" lon="2.30712">
        <ele>52.4</ele>
        <time>2022-04-11T07:45:30Z</time>
      </trkpt>
      <trkpt lat="49.88587" lon="2.30712">
        <ele>52.3</ele>
        <time>2022-04-11T07:45:31Z</time>
      </trkpt>
      <trkpt lat="49.88584" lon="2.30712">
        <ele>52.2</ele>
        <time>2022-04-11T07:45:32Z</time>
      </trkpt>
      <trkpt lat="49.88584" lon="2.30711">
        <ele>52.2</ele>
        <time>2022-04-11T07:45:33Z</time>
      </trkpt>
      <trkpt lat="49.88585" lon="2.30711">
        <ele>52.2</ele>
        <time>2022-04-11T07:45:34Z</time>
      </trkpt>
      <trkpt lat="49.88586" lon="2.30711">
        <ele>52.1</ele>
        <time>2022-04-11T07:45:35Z</time>
      </trkpt>
      <trkpt lat="49.88587" lon="2.30711">
        <ele>52.1</ele>
        <time>2022-04-11T07:45:36Z</time>
      </trkpt>
      <trkpt lat="49.88588" lon="2.30711">
        <ele>52</ele>
        <time>2022-04-11T07:45:37Z</time>
      </trkpt>
      <trkpt lat="49.88589" lon="2.30711">
        <ele>52</ele>
        <time>2022-04-11T07:45:38Z</time>
      </trkpt>
      <trkpt lat="49.8859" lon="2.30711">
        <ele>51.9</ele>
        <time>2022-04-11T07:45:39Z</time>
      </trkpt>
      <trkpt lat="49.88592" lon="2.3071">
        <ele>51.8</ele>
        <time>2022-04-11T07:45:41Z</time>
      </trkpt>
      <trkpt lat="49.88593" lon="2.3071">
        <ele>51.8</ele>
        <time>2022-04-11T07:45:42Z</time>
      </trkpt>
      <trkpt lat="49.88594" lon="2.3071">
        <ele>51.8</ele>
        <time>2022-04-11T07:45:43Z</time>
      </trkpt>
      <trkpt lat="49.88596" lon="2.3071">
        <ele>51.7</ele>
        <time>2022-04-11T07:45:44Z</time>
      </trkpt>
      <trkpt lat="49.88597" lon="2.3071">
        <ele>51.6</ele>
        <time>2022-04-11T07:45:45Z</time>
      </trkpt>
      <trkpt lat="49.88598" lon="2.3071">
        <ele>51.6</ele>
        <time>2022-04-11T07:45:46Z</time>
      </trkpt>
      <trkpt lat="49.886" lon="2.3071">
        <ele>51.5</ele>
        <time>2022-04-11T07:45:47Z</time>
      </trkpt>
      <trkpt lat="49.88602" lon="2.3071">
        <ele>51.4</ele>
        <time>2022-04-11T07:45:48Z</time>
      </trkpt>
      <trkpt lat="49.88603" lon="2.3071">
        <ele>51.3</ele>
        <time>2022-04-11T07:45:49Z</time>
      </trkpt>
      <trkpt lat="49.88604" lon="2.30711">
        <ele>51.3</ele>
        <time>2022-04-11T07:45:50Z</time>
      </trkpt>
      <trkpt lat="49.88605" lon="2.30711">
        <ele>51.2</ele>
        <time>2022-04-11T07:45:51Z</time>
      </trkpt>
      <trkpt lat="49.88607" lon="2.30712">
        <ele>51.2</ele>
        <time>2022-04-11T07:45:52Z</time>
      </trkpt>
      <trkpt lat="49.88609" lon="2.30712">
        <ele>51.1</ele>
        <time>2022-04-11T07:45:54Z</time>
      </trkpt>
      <trkpt lat="49.8861" lon="2.30712">
        <ele>51</ele>
        <time>2022-04-11T07:45:55Z</time>
      </trkpt>
      <trkpt lat="49.88613" lon="2.30712">
        <ele>50.8</ele>
        <time>2022-04-11T07:45:56Z</time>
      </trkpt>
      <trkpt lat="49.88614" lon="2.30712">
        <ele>50.8</ele>
        <time>2022-04-11T07:45:57Z</time>
      </trkpt>
      <trkpt lat="49.88618" lon="2.30712">
        <ele>50.6</ele>
        <time>2022-04-11T07:45:58Z</time>
      </trkpt>
      <trkpt lat="49.88619" lon="2.30712">
        <ele>50.6</ele>
        <time>2022-04-11T07:45:59Z</time>
      </trkpt>
      <trkpt lat="49.88622" lon="2.30713">
        <ele>50.4</ele>
        <time>2022-04-11T07:46:00Z</time>
      </trkpt>
      <trkpt lat="49.88623" lon="2.30713">
        <ele>50.4</ele>
        <time>2022-04-11T07:46:01Z</time>
      </trkpt>
      <trkpt lat="49.88624" lon="2.30713">
        <ele>50.3</ele>
        <time>2022-04-11T07:46:02Z</time>
      </trkpt>
      <trkpt lat="49.88626" lon="2.30713">
        <ele>50.2</ele>
        <time>2022-04-11T07:46:03Z</time>
      </trkpt>
      <trkpt lat="49.88629" lon="2.30713">
        <ele>50.1</ele>
        <time>2022-04-11T07:46:04Z</time>
      </trkpt>
      <trkpt lat="49.8863" lon="2.30713">
        <ele>50.1</ele>
        <time>2022-04-11T07:46:05Z</time>
      </trkpt>
      <trkpt lat="49.88632" lon="2.30713">
        <ele>50</ele>
        <time>2022-04-11T07:46:07Z</time>
      </trkpt>
      <trkpt lat="49.88633" lon="2.30713">
        <ele>49.9</ele>
        <time>2022-04-11T07:46:08Z</time>
      </trkpt>
      <trkpt lat="49.88635" lon="2.30714">
        <ele>49.8</ele>
        <time>2022-04-11T07:46:09Z</time>
      </trkpt>
      <trkpt lat="49.88636" lon="2.30713">
        <ele>49.8</ele>
        <time>2022-04-11T07:46:10Z</time>
      </trkpt>
      <trkpt lat="49.88638" lon="2.30713">
        <ele>49.7</ele>
        <time>2022-04-11T07:46:11Z</time>
      </trkpt>
      <trkpt lat="49.88639" lon="2.30713">
        <ele>49.7</ele>
        <time>2022-04-11T07:46:12Z</time>
      </trkpt>
      <trkpt lat="49.88639" lon="2.30712">
        <ele>49.6</ele>
        <time>2022-04-11T07:46:13Z</time>
      </trkpt>
      <trkpt lat="49.8864" lon="2.30712">
        <ele>49.6</ele>
        <time>2022-04-11T07:46:14Z</time>
      </trkpt>
      <trkpt lat="49.88641" lon="2.30711">
        <ele>49.6</ele>
        <time>2022-04-11T07:46:15Z</time>
      </trkpt>
      <trkpt lat="49.88642" lon="2.30711">
        <ele>49.5</ele>
        <time>2022-04-11T07:46:16Z</time>
      </trkpt>
      <trkpt lat="49.88643" lon="2.30711">
        <ele>49.5</ele>
        <time>2022-04-11T07:46:18Z</time>
      </trkpt>
      <trkpt lat="49.88644" lon="2.30711">
        <ele>49.5</ele>
        <time>2022-04-11T07:46:19Z</time>
      </trkpt>
      <trkpt lat="49.88644" lon="2.30711">
        <ele>49.5</ele>
        <time>2022-04-11T07:46:20Z</time>
      </trkpt>
      <trkpt lat="49.88644" lon="2.30711">
        <ele>49.5</ele>
        <time>2022-04-11T07:46:21Z</time>
      </trkpt>
      <trkpt lat="49.88645" lon="2.30711">
        <ele>49.4</ele>
        <time>2022-04-11T07:46:22Z</time>
      </trkpt>
      <trkpt lat="49.88646" lon="2.30711">
        <ele>49.4</ele>
        <time>2022-04-11T07:46:23Z</time>
      </trkpt>
      <trkpt lat="49.88647" lon="2.30711">
        <ele>49.3</ele>
        <time>2022-04-11T07:46:24Z</time>
      </trkpt>
      <trkpt lat="49.88649" lon="2.30711">
        <ele>49.3</ele>
        <time>2022-04-11T07:46:25Z</time>
      </trkpt>
      <trkpt lat="49.8865" lon="2.30711">
        <ele>49.2</ele>
        <time>2022-04-11T07:46:27Z</time>
      </trkpt>
      <trkpt lat="49.88651" lon="2.30711">
        <ele>49.2</ele>
        <time>2022-04-11T07:46:28Z</time>
      </trkpt>
      <trkpt lat="49.88653" lon="2.3071">
        <ele>49.1</ele>
        <time>2022-04-11T07:46:29Z</time>
      </trkpt>
      <trkpt lat="49.88654" lon="2.3071">
        <ele>49.1</ele>
        <time>2022-04-11T07:46:30Z</time>
      </trkpt>
      <trkpt lat="49.88656" lon="2.30709">
        <ele>49</ele>
        <time>2022-04-11T07:46:31Z</time>
      </trkpt>
      <trkpt lat="49.88657" lon="2.30709">
        <ele>48.9</ele>
        <time>2022-04-11T07:46:32Z</time>
      </trkpt>
      <trkpt lat="49.88659" lon="2.30708">
        <ele>48.9</ele>
        <time>2022-04-11T07:46:33Z</time>
      </trkpt>
      <trkpt lat="49.88662" lon="2.30707">
        <ele>48.8</ele>
        <time>2022-04-11T07:46:34Z</time>
      </trkpt>
      <trkpt lat="49.88663" lon="2.30707">
        <ele>48.7</ele>
        <time>2022-04-11T07:46:35Z</time>
      </trkpt>
      <trkpt lat="49.88664" lon="2.30707">
        <ele>48.7</ele>
        <time>2022-04-11T07:46:36Z</time>
      </trkpt>
      <trkpt lat="49.88666" lon="2.30706">
        <ele>48.6</ele>
        <time>2022-04-11T07:46:37Z</time>
      </trkpt>
      <trkpt lat="49.88667" lon="2.30706">
        <ele>48.6</ele>
        <time>2022-04-11T07:46:39Z</time>
      </trkpt>
      <trkpt lat="49.88669" lon="2.30706">
        <ele>48.5</ele>
        <time>2022-04-11T07:46:40Z</time>
      </trkpt>
      <trkpt lat="49.88672" lon="2.30706">
        <ele>48.4</ele>
        <time>2022-04-11T07:46:41Z</time>
      </trkpt>
      <trkpt lat="49.88673" lon="2.30705">
        <ele>48.4</ele>
        <time>2022-04-11T07:46:42Z</time>
      </trkpt>
      <trkpt lat="49.88676" lon="2.30705">
        <ele>48.3</ele>
        <time>2022-04-11T07:46:43Z</time>
      </trkpt>
      <trkpt lat="49.88676" lon="2.30705">
        <ele>48.2</ele>
        <time>2022-04-11T07:46:44Z</time>
      </trkpt>
      <trkpt lat="49.88679" lon="2.30705">
        <ele>48.1</ele>
        <time>2022-04-11T07:46:45Z</time>
      </trkpt>
      <trkpt lat="49.8868" lon="2.30705">
        <ele>48.1</ele>
        <time>2022-04-11T07:46:46Z</time>
      </trkpt>
      <trkpt lat="49.88684" lon="2.30705">
        <ele>48</ele>
        <time>2022-04-11T07:46:47Z</time>
      </trkpt>
      <trkpt lat="49.88685" lon="2.30705">
        <ele>48</ele>
        <time>2022-04-11T07:46:48Z</time>
      </trkpt>
      <trkpt lat="49.88686" lon="2.30705">
        <ele>47.9</ele>
        <time>2022-04-11T07:46:49Z</time>
      </trkpt>
      <trkpt lat="49.88688" lon="2.30705">
        <ele>47.9</ele>
        <time>2022-04-11T07:46:51Z</time>
      </trkpt>
      <trkpt lat="49.8869" lon="2.30705">
        <ele>47.8</ele>
        <time>2022-04-11T07:46:52Z</time>
      </trkpt>
      <trkpt lat="49.88691" lon="2.30705">
        <ele>47.8</ele>
        <time>2022-04-11T07:46:53Z</time>
      </trkpt>
      <trkpt lat="49.88693" lon="2.30705">
        <ele>47.7</ele>
        <time>2022-04-11T07:46:54Z</time>
      </trkpt>
      <trkpt lat="49.88694" lon="2.30705">
        <ele>47.7</ele>
        <time>2022-04-11T07:46:55Z</time>
      </trkpt>
      <trkpt lat="49.88696" lon="2.30705">
        <ele>47.6</ele>
        <time>2022-04-11T07:46:56Z</time>
      </trkpt>
      <trkpt lat="49.88697" lon="2.30705">
        <ele>47.6</ele>
        <time>2022-04-11T07:46:57Z</time>
      </trkpt>
      <trkpt lat="49.88699" lon="2.30706">
        <ele>47.5</ele>
        <time>2022-04-11T07:46:58Z</time>
      </trkpt>
      <trkpt lat="49.887" lon="2.30706">
        <ele>47.5</ele>
        <time>2022-04-11T07:46:59Z</time>
      </trkpt>
      <trkpt lat="49.88701" lon="2.30706">
        <ele>47.5</ele>
        <time>2022-04-11T07:47:00Z</time>
      </trkpt>
      <trkpt lat="49.88703" lon="2.30706">
        <ele>47.4</ele>
        <time>2022-04-11T07:47:01Z</time>
      </trkpt>
      <trkpt lat="49.88704" lon="2.30706">
        <ele>47.3</ele>
        <time>2022-04-11T07:47:03Z</time>
      </trkpt>
      <trkpt lat="49.88705" lon="2.30706">
        <ele>47.3</ele>
        <time>2022-04-11T07:47:04Z</time>
      </trkpt>
      <trkpt lat="49.88707" lon="2.30706">
        <ele>47.3</ele>
        <time>2022-04-11T07:47:05Z</time>
      </trkpt>
      <trkpt lat="49.88708" lon="2.30706">
        <ele>47.2</ele>
        <time>2022-04-11T07:47:06Z</time>
      </trkpt>
      <trkpt lat="49.88711" lon="2.30705">
        <ele>47.1</ele>
        <time>2022-04-11T07:47:07Z</time>
      </trkpt>
      <trkpt lat="49.88712" lon="2.30705">
        <ele>47.1</ele>
        <time>2022-04-11T07:47:08Z</time>
      </trkpt>
      <trkpt lat="49.88713" lon="2.30705">
        <ele>47.1</ele>
        <time>2022-04-11T07:47:09Z</time>
      </trkpt>
      <trkpt lat="49.88715" lon="2.30704">
        <ele>47</ele>
        <time>2022-04-11T07:47:11Z</time>
      </trkpt>
      <trkpt lat="49.88716" lon="2.30704">
        <ele>46.9</ele>
        <time>2022-04-11T07:47:12Z</time>
      </trkpt>
      <trkpt lat="49.88716" lon="2.30704">
        <ele>46.9</ele>
        <time>2022-04-11T07:47:13Z</time>
      </trkpt>
      <trkpt lat="49.88717" lon="2.30704">
        <ele>46.9</ele>
        <time>2022-04-11T07:47:14Z</time>
      </trkpt>
      <trkpt lat="49.88718" lon="2.30704">
        <ele>46.9</ele>
        <time>2022-04-11T07:47:15Z</time>
      </trkpt>
      <trkpt lat="49.88719" lon="2.30704">
        <ele>46.8</ele>
        <time>2022-04-11T07:47:16Z</time>
      </trkpt>
      <trkpt lat="49.88719" lon="2.30704">
        <ele>46.8</ele>
        <time>2022-04-11T07:47:17Z</time>
      </trkpt>
      <trkpt lat="49.8872" lon="2.30704">
        <ele>46.8</ele>
        <time>2022-04-11T07:47:18Z</time>
      </trkpt>
      <trkpt lat="49.88721" lon="2.30703">
        <ele>46.7</ele>
        <time>2022-04-11T07:47:19Z</time>
      </trkpt>
      <trkpt lat="49.88722" lon="2.30703">
        <ele>46.7</ele>
        <time>2022-04-11T07:47:20Z</time>
      </trkpt>
      <trkpt lat="49.88723" lon="2.30703">
        <ele>46.7</ele>
        <time>2022-04-11T07:47:22Z</time>
      </trkpt>
      <trkpt lat="49.88724" lon="2.30703">
        <ele>46.6</ele>
        <time>2022-04-11T07:47:23Z</time>
      </trkpt>
      <trkpt lat="49.88726" lon="2.30702">
        <ele>46.5</ele>
        <time>2022-04-11T07:47:24Z</time>
      </trkpt>
      <trkpt lat="49.88727" lon="2.30702">
        <ele>46.5</ele>
        <time>2022-04-11T07:47:25Z</time>
      </trkpt>
      <trkpt lat="49.88729" lon="2.30702">
        <ele>46.5</ele>
        <time>2022-04-11T07:47:26Z</time>
      </trkpt>
      <trkpt lat="49.88731" lon="2.30702">
        <ele>46.4</ele>
        <time>2022-04-11T07:47:28Z</time>
      </trkpt>
      <trkpt lat="49.88732" lon="2.30703">
        <ele>46.4</ele>
        <time>2022-04-11T07:47:29Z</time>
      </trkpt>
      <trkpt lat="49.88733" lon="2.30703">
        <ele>46.3</ele>
        <time>2022-04-11T07:47:30Z</time>
      </trkpt>
      <trkpt lat="49.88734" lon="2.30703">
        <ele>46.3</ele>
        <time>2022-04-11T07:47:31Z</time>
      </trkpt>
      <trkpt lat="49.88735" lon="2.30704">
        <ele>46.3</ele>
        <time>2022-04-11T07:47:32Z</time>
      </trkpt>
      <trkpt lat="49.88735" lon="2.30705">
        <ele>46.2</ele>
        <time>2022-04-11T07:47:33Z</time>
      </trkpt>
      <trkpt lat="49.88736" lon="2.30705">
        <ele>46.2</ele>
        <time>2022-04-11T07:47:34Z</time>
      </trkpt>
      <trkpt lat="49.88737" lon="2.30705">
        <ele>46.2</ele>
        <time>2022-04-11T07:47:35Z</time>
      </trkpt>
      <trkpt lat="49.88738" lon="2.30705">
        <ele>46.2</ele>
        <time>2022-04-11T07:47:36Z</time>
      </trkpt>
      <trkpt lat="49.88739" lon="2.30705">
        <ele>46.1</ele>
        <time>2022-04-11T07:47:37Z</time>
      </trkpt>
      <trkpt lat="49.8874" lon="2.30705">
        <ele>46.1</ele>
        <time>2022-04-11T07:47:38Z</time>
      </trkpt>
      <trkpt lat="49.88741" lon="2.30705">
        <ele>46</ele>
        <time>2022-04-11T07:47:40Z</time>
      </trkpt>
      <trkpt lat="49.88742" lon="2.30706">
        <ele>46</ele>
        <time>2022-04-11T07:47:41Z</time>
      </trkpt>
      <trkpt lat="49.88742" lon="2.30707">
        <ele>46</ele>
        <time>2022-04-11T07:47:42Z</time>
      </trkpt>
      <trkpt lat="49.88743" lon="2.30708">
        <ele>45.9</ele>
        <time>2022-04-11T07:47:43Z</time>
      </trkpt>
      <trkpt lat="49.88743" lon="2.30709">
        <ele>45.9</ele>
        <time>2022-04-11T07:47:44Z</time>
      </trkpt>
      <trkpt lat="49.88743" lon="2.30711">
        <ele>45.8</ele>
        <time>2022-04-11T07:47:45Z</time>
      </trkpt>
      <trkpt lat="49.88744" lon="2.30712">
        <ele>45.8</ele>
        <time>2022-04-11T07:47:46Z</time>
      </trkpt>
      <trkpt lat="49.88745" lon="2.30712">
        <ele>45.8</ele>
        <time>2022-04-11T07:47:47Z</time>
      </trkpt>
      <trkpt lat="49.88745" lon="2.30713">
        <ele>45.7</ele>
        <time>2022-04-11T07:47:48Z</time>
      </trkpt>
      <trkpt lat="49.88746" lon="2.30714">
        <ele>45.7</ele>
        <time>2022-04-11T07:47:49Z</time>
      </trkpt>
      <trkpt lat="49.88747" lon="2.30714">
        <ele>45.6</ele>
        <time>2022-04-11T07:47:51Z</time>
      </trkpt>
      <trkpt lat="49.88748" lon="2.30714">
        <ele>45.6</ele>
        <time>2022-04-11T07:47:52Z</time>
      </trkpt>
      <trkpt lat="49.88749" lon="2.30715">
        <ele>45.6</ele>
        <time>2022-04-11T07:47:53Z</time>
      </trkpt>
      <trkpt lat="49.88751" lon="2.30715">
        <ele>45.5</ele>
        <time>2022-04-11T07:47:54Z</time>
      </trkpt>
      <trkpt lat="49.88752" lon="2.30714">
        <ele>45.5</ele>
        <time>2022-04-11T07:47:55Z</time>
      </trkpt>
      <trkpt lat="49.88754" lon="2.30714">
        <ele>45.4</ele>
        <time>2022-04-11T07:47:56Z</time>
      </trkpt>
      <trkpt lat="49.88755" lon="2.30714">
        <ele>45.3</ele>
        <time>2022-04-11T07:47:57Z</time>
      </trkpt>
      <trkpt lat="49.88756" lon="2.30714">
        <ele>45.3</ele>
        <time>2022-04-11T07:47:58Z</time>
      </trkpt>
      <trkpt lat="49.88759" lon="2.30713">
        <ele>45.2</ele>
        <time>2022-04-11T07:47:59Z</time>
      </trkpt>
      <trkpt lat="49.8876" lon="2.30713">
        <ele>45.1</ele>
        <time>2022-04-11T07:48:00Z</time>
      </trkpt>
      <trkpt lat="49.88762" lon="2.30712">
        <ele>45</ele>
        <time>2022-04-11T07:48:01Z</time>
      </trkpt>
      <trkpt lat="49.88764" lon="2.30711">
        <ele>44.9</ele>
        <time>2022-04-11T07:48:03Z</time>
      </trkpt>
      <trkpt lat="49.88767" lon="2.30709">
        <ele>44.8</ele>
        <time>2022-04-11T07:48:04Z</time>
      </trkpt>
      <trkpt lat="49.88768" lon="2.30709">
        <ele>44.8</ele>
        <time>2022-04-11T07:48:05Z</time>
      </trkpt>
      <trkpt lat="49.88771" lon="2.30707">
        <ele>44.6</ele>
        <time>2022-04-11T07:48:06Z</time>
      </trkpt>
      <trkpt lat="49.88772" lon="2.30706">
        <ele>44.6</ele>
        <time>2022-04-11T07:48:07Z</time>
      </trkpt>
      <trkpt lat="49.88774" lon="2.30706">
        <ele>44.5</ele>
        <time>2022-04-11T07:48:08Z</time>
      </trkpt>
      <trkpt lat="49.88775" lon="2.30705">
        <ele>44.5</ele>
        <time>2022-04-11T07:48:09Z</time>
      </trkpt>
      <trkpt lat="49.88778" lon="2.30704">
        <ele>44.3</ele>
        <time>2022-04-11T07:48:10Z</time>
      </trkpt>
      <trkpt lat="49.88779" lon="2.30704">
        <ele>44.3</ele>
        <time>2022-04-11T07:48:11Z</time>
      </trkpt>
      <trkpt lat="49.8878" lon="2.30703">
        <ele>44.2</ele>
        <time>2022-04-11T07:48:12Z</time>
      </trkpt>
      <trkpt lat="49.88782" lon="2.30703">
        <ele>44.1</ele>
        <time>2022-04-11T07:48:14Z</time>
      </trkpt>
      <trkpt lat="49.88785" lon="2.30702">
        <ele>44</ele>
        <time>2022-04-11T07:48:15Z</time>
      </trkpt>
      <trkpt lat="49.88786" lon="2.30702">
        <ele>44</ele>
        <time>2022-04-11T07:48:16Z</time>
      </trkpt>
      <trkpt lat="49.88788" lon="2.30702">
        <ele>43.9</ele>
        <time>2022-04-11T07:48:17Z</time>
      </trkpt>
      <trkpt lat="49.8879" lon="2.30702">
        <ele>43.8</ele>
        <time>2022-04-11T07:48:18Z</time>
      </trkpt>
      <trkpt lat="49.88791" lon="2.30701">
        <ele>43.7</ele>
        <time>2022-04-11T07:48:19Z</time>
      </trkpt>
      <trkpt lat="49.88793" lon="2.30701">
        <ele>43.6</ele>
        <time>2022-04-11T07:48:21Z</time>
      </trkpt>
      <trkpt lat="49.88793" lon="2.30703">
        <ele>43.6</ele>
        <time>2022-04-11T07:48:22Z</time>
      </trkpt>
      <trkpt lat="49.88794" lon="2.30703">
        <ele>43.6</ele>
        <time>2022-04-11T07:48:23Z</time>
      </trkpt>
      <trkpt lat="49.88795" lon="2.30703">
        <ele>43.5</ele>
        <time>2022-04-11T07:48:24Z</time>
      </trkpt>
      <trkpt lat="49.88796" lon="2.30703">
        <ele>43.5</ele>
        <time>2022-04-11T07:48:25Z</time>
      </trkpt>
      <trkpt lat="49.88798" lon="2.30703">
        <ele>43.4</ele>
        <time>2022-04-11T07:48:26Z</time>
      </trkpt>
      <trkpt lat="49.88799" lon="2.30703">
        <ele>43.4</ele>
        <time>2022-04-11T07:48:27Z</time>
      </trkpt>
      <trkpt lat="49.888" lon="2.30703">
        <ele>43.3</ele>
        <time>2022-04-11T07:48:28Z</time>
      </trkpt>
      <trkpt lat="49.88801" lon="2.30704">
        <ele>43.2</ele>
        <time>2022-04-11T07:48:30Z</time>
      </trkpt>
      <trkpt lat="49.88802" lon="2.30704">
        <ele>43.2</ele>
        <time>2022-04-11T07:48:31Z</time>
      </trkpt>
      <trkpt lat="49.88803" lon="2.30704">
        <ele>43.1</ele>
        <time>2022-04-11T07:48:32Z</time>
      </trkpt>
      <trkpt lat="49.88804" lon="2.30704">
        <ele>43.1</ele>
        <time>2022-04-11T07:48:33Z</time>
      </trkpt>
      <trkpt lat="49.88805" lon="2.30705">
        <ele>43.1</ele>
        <time>2022-04-11T07:48:34Z</time>
      </trkpt>
      <trkpt lat="49.88806" lon="2.30705">
        <ele>43</ele>
        <time>2022-04-11T07:48:35Z</time>
      </trkpt>
      <trkpt lat="49.88808" lon="2.30705">
        <ele>42.9</ele>
        <time>2022-04-11T07:48:36Z</time>
      </trkpt>
      <trkpt lat="49.88809" lon="2.30705">
        <ele>42.9</ele>
        <time>2022-04-11T07:48:37Z</time>
      </trkpt>
      <trkpt lat="49.8881" lon="2.30705">
        <ele>42.8</ele>
        <time>2022-04-11T07:48:38Z</time>
      </trkpt>
      <trkpt lat="49.88812" lon="2.30705">
        <ele>42.7</ele>
        <time>2022-04-11T07:48:39Z</time>
      </trkpt>
      <trkpt lat="49.88813" lon="2.30705">
        <ele>42.6</ele>
        <time>2022-04-11T07:48:40Z</time>
      </trkpt>
      <trkpt lat="49.88815" lon="2.30705">
        <ele>42.5</ele>
        <time>2022-04-11T07:48:42Z</time>
      </trkpt>
      <trkpt lat="49.88816" lon="2.30705">
        <ele>42.4</ele>
        <time>2022-04-11T07:48:43Z</time>
      </trkpt>
      <trkpt lat="49.88818" lon="2.30705">
        <ele>42.3</ele>
        <time>2022-04-11T07:48:44Z</time>
      </trkpt>
      <trkpt lat="49.8882" lon="2.30704">
        <ele>42.1</ele>
        <time>2022-04-11T07:48:45Z</time>
      </trkpt>
      <trkpt lat="49.88823" lon="2.30704">
        <ele>41.9</ele>
        <time>2022-04-11T07:48:46Z</time>
      </trkpt>
      <trkpt lat="49.88824" lon="2.30704">
        <ele>41.9</ele>
        <time>2022-04-11T07:48:47Z</time>
      </trkpt>
      <trkpt lat="49.88826" lon="2.30704">
        <ele>41.7</ele>
        <time>2022-04-11T07:48:48Z</time>
      </trkpt>
      <trkpt lat="49.88827" lon="2.30704">
        <ele>41.6</ele>
        <time>2022-04-11T07:48:49Z</time>
      </trkpt>
      <trkpt lat="49.88829" lon="2.30704">
        <ele>41.5</ele>
        <time>2022-04-11T07:48:50Z</time>
      </trkpt>
      <trkpt lat="49.88831" lon="2.30704">
        <ele>41.3</ele>
        <time>2022-04-11T07:48:51Z</time>
      </trkpt>
      <trkpt lat="49.88833" lon="2.30705">
        <ele>41.2</ele>
        <time>2022-04-11T07:48:53Z</time>
      </trkpt>
      <trkpt lat="49.88834" lon="2.30705">
        <ele>41.1</ele>
        <time>2022-04-11T07:48:54Z</time>
      </trkpt>
      <trkpt lat="49.88835" lon="2.30705">
        <ele>41</ele>
        <time>2022-04-11T07:48:55Z</time>
      </trkpt>
      <trkpt lat="49.88837" lon="2.30706">
        <ele>40.9</ele>
        <time>2022-04-11T07:48:56Z</time>
      </trkpt>
      <trkpt lat="49.88838" lon="2.30706">
        <ele>40.9</ele>
        <time>2022-04-11T07:48:57Z</time>
      </trkpt>
      <trkpt lat="49.88838" lon="2.30706">
        <ele>40.8</ele>
        <time>2022-04-11T07:48:58Z</time>
      </trkpt>
      <trkpt lat="49.8884" lon="2.30707">
        <ele>40.7</ele>
        <time>2022-04-11T07:49:00Z</time>
      </trkpt>
      <trkpt lat="49.88841" lon="2.30707">
        <ele>40.7</ele>
        <time>2022-04-11T07:49:01Z</time>
      </trkpt>
      <trkpt lat="49.88842" lon="2.30707">
        <ele>40.6</ele>
        <time>2022-04-11T07:49:02Z</time>
      </trkpt>
      <trkpt lat="49.88842" lon="2.30707">
        <ele>40.6</ele>
        <time>2022-04-11T07:49:03Z</time>
      </trkpt>
      <trkpt lat="49.88843" lon="2.30707">
        <ele>40.5</ele>
        <time>2022-04-11T07:49:04Z</time>
      </trkpt>
      <trkpt lat="49.88844" lon="2.30707">
        <ele>40.5</ele>
        <time>2022-04-11T07:49:05Z</time>
      </trkpt>
      <trkpt lat="49.88844" lon="2.30707">
        <ele>40.4</ele>
        <time>2022-04-11T07:49:06Z</time>
      </trkpt>
      <trkpt lat="49.88845" lon="2.30707">
        <ele>40.4</ele>
        <time>2022-04-11T07:49:07Z</time>
      </trkpt>
      <trkpt lat="49.88846" lon="2.30707">
        <ele>40.3</ele>
        <time>2022-04-11T07:49:08Z</time>
      </trkpt>
      <trkpt lat="49.88847" lon="2.30707">
        <ele>40.3</ele>
        <time>2022-04-11T07:49:09Z</time>
      </trkpt>
      <trkpt lat="49.88848" lon="2.30707">
        <ele>40.2</ele>
        <time>2022-04-11T07:49:11Z</time>
      </trkpt>
      <trkpt lat="49.8885" lon="2.30707">
        <ele>40.1</ele>
        <time>2022-04-11T07:49:12Z</time>
      </trkpt>
      <trkpt lat="49.88851" lon="2.30707">
        <ele>40</ele>
        <time>2022-04-11T07:49:13Z</time>
      </trkpt>
      <trkpt lat="49.88853" lon="2.30707">
        <ele>40</ele>
        <time>2022-04-11T07:49:14Z</time>
      </trkpt>
      <trkpt lat="49.88853" lon="2.30707">
        <ele>39.9</ele>
        <time>2022-04-11T07:49:15Z</time>
      </trkpt>
      <trkpt lat="49.88854" lon="2.30707">
        <ele>39.9</ele>
        <time>2022-04-11T07:49:16Z</time>
      </trkpt>
      <trkpt lat="49.88854" lon="2.30707">
        <ele>39.8</ele>
        <time>2022-04-11T07:49:17Z</time>
      </trkpt>
      <trkpt lat="49.88855" lon="2.30706">
        <ele>39.8</ele>
        <time>2022-04-11T07:49:19Z</time>
      </trkpt>
      <trkpt lat="49.88856" lon="2.30706">
        <ele>39.8</ele>
        <time>2022-04-11T07:49:20Z</time>
      </trkpt>
      <trkpt lat="49.88857" lon="2.30706">
        <ele>39.8</ele>
        <time>2022-04-11T07:49:21Z</time>
      </trkpt>
      <trkpt lat="49.88858" lon="2.30706">
        <ele>39.7</ele>
        <time>2022-04-11T07:49:22Z</time>
      </trkpt>
      <trkpt lat="49.88859" lon="2.30706">
        <ele>39.7</ele>
        <time>2022-04-11T07:49:23Z</time>
      </trkpt>
      <trkpt lat="49.88861" lon="2.30706">
        <ele>39.7</ele>
        <time>2022-04-11T07:49:24Z</time>
      </trkpt>
      <trkpt lat="49.88861" lon="2.30707">
        <ele>39.6</ele>
        <time>2022-04-11T07:49:25Z</time>
      </trkpt>
      <trkpt lat="49.88863" lon="2.30707">
        <ele>39.6</ele>
        <time>2022-04-11T07:49:27Z</time>
      </trkpt>
      <trkpt lat="49.88864" lon="2.30707">
        <ele>39.6</ele>
        <time>2022-04-11T07:49:28Z</time>
      </trkpt>
      <trkpt lat="49.88865" lon="2.30707">
        <ele>39.5</ele>
        <time>2022-04-11T07:49:29Z</time>
      </trkpt>
      <trkpt lat="49.88866" lon="2.30708">
        <ele>39.5</ele>
        <time>2022-04-11T07:49:30Z</time>
      </trkpt>
      <trkpt lat="49.88867" lon="2.30708">
        <ele>39.5</ele>
        <time>2022-04-11T07:49:31Z</time>
      </trkpt>
      <trkpt lat="49.88869" lon="2.30708">
        <ele>39.5</ele>
        <time>2022-04-11T07:49:33Z</time>
      </trkpt>
      <trkpt lat="49.88869" lon="2.30708">
        <ele>39.4</ele>
        <time>2022-04-11T07:49:34Z</time>
      </trkpt>
      <trkpt lat="49.8887" lon="2.30708">
        <ele>39.4</ele>
        <time>2022-04-11T07:49:35Z</time>
      </trkpt>
      <trkpt lat="49.88871" lon="2.30708">
        <ele>39.4</ele>
        <time>2022-04-11T07:49:36Z</time>
      </trkpt>
      <trkpt lat="49.88871" lon="2.30708">
        <ele>39.4</ele>
        <time>2022-04-11T07:49:37Z</time>
      </trkpt>
      <trkpt lat="49.88872" lon="2.30707">
        <ele>39.4</ele>
        <time>2022-04-11T07:49:38Z</time>
      </trkpt>
      <trkpt lat="49.88873" lon="2.30707">
        <ele>39.3</ele>
        <time>2022-04-11T07:49:39Z</time>
      </trkpt>
      <trkpt lat="49.88874" lon="2.30707">
        <ele>39.3</ele>
        <time>2022-04-11T07:49:40Z</time>
      </trkpt>
      <trkpt lat="49.88875" lon="2.30706">
        <ele>39.3</ele>
        <time>2022-04-11T07:49:41Z</time>
      </trkpt>
      <trkpt lat="49.88875" lon="2.30706">
        <ele>39.3</ele>
        <time>2022-04-11T07:49:42Z</time>
      </trkpt>
      <trkpt lat="49.88876" lon="2.30706">
        <ele>39.2</ele>
        <time>2022-04-11T07:49:44Z</time>
      </trkpt>
      <trkpt lat="49.88877" lon="2.30705">
        <ele>39.2</ele>
        <time>2022-04-11T07:49:45Z</time>
      </trkpt>
      <trkpt lat="49.88878" lon="2.30705">
        <ele>39.2</ele>
        <time>2022-04-11T07:49:46Z</time>
      </trkpt>
      <trkpt lat="49.88879" lon="2.30705">
        <ele>39.1</ele>
        <time>2022-04-11T07:49:47Z</time>
      </trkpt>
      <trkpt lat="49.88879" lon="2.30705">
        <ele>39.1</ele>
        <time>2022-04-11T07:49:48Z</time>
      </trkpt>
      <trkpt lat="49.8888" lon="2.30704">
        <ele>39.1</ele>
        <time>2022-04-11T07:49:49Z</time>
      </trkpt>
      <trkpt lat="49.88881" lon="2.30703">
        <ele>39</ele>
        <time>2022-04-11T07:49:50Z</time>
      </trkpt>
      <trkpt lat="49.88882" lon="2.30702">
        <ele>39</ele>
        <time>2022-04-11T07:49:51Z</time>
      </trkpt>
      <trkpt lat="49.88883" lon="2.30701">
        <ele>38.9</ele>
        <time>2022-04-11T07:49:52Z</time>
      </trkpt>
      <trkpt lat="49.88884" lon="2.30699">
        <ele>38.9</ele>
        <time>2022-04-11T07:49:53Z</time>
      </trkpt>
      <trkpt lat="49.88885" lon="2.30699">
        <ele>38.9</ele>
        <time>2022-04-11T07:49:54Z</time>
      </trkpt>
      <trkpt lat="49.88886" lon="2.30698">
        <ele>38.8</ele>
        <time>2022-04-11T07:49:56Z</time>
      </trkpt>
      <trkpt lat="49.88887" lon="2.30698">
        <ele>38.8</ele>
        <time>2022-04-11T07:49:57Z</time>
      </trkpt>
      <trkpt lat="49.88887" lon="2.30697">
        <ele>38.7</ele>
        <time>2022-04-11T07:49:58Z</time>
      </trkpt>
      <trkpt lat="49.88888" lon="2.30698">
        <ele>38.7</ele>
        <time>2022-04-11T07:49:59Z</time>
      </trkpt>
      <trkpt lat="49.88888" lon="2.30698">
        <ele>38.7</ele>
        <time>2022-04-11T07:50:00Z</time>
      </trkpt>
      <trkpt lat="49.88889" lon="2.30697">
        <ele>38.7</ele>
        <time>2022-04-11T07:50:01Z</time>
      </trkpt>
      <trkpt lat="49.8889" lon="2.30697">
        <ele>38.7</ele>
        <time>2022-04-11T07:50:02Z</time>
      </trkpt>
      <trkpt lat="49.88891" lon="2.30697">
        <ele>38.6</ele>
        <time>2022-04-11T07:50:03Z</time>
      </trkpt>
      <trkpt lat="49.88892" lon="2.30698">
        <ele>38.6</ele>
        <time>2022-04-11T07:50:04Z</time>
      </trkpt>
      <trkpt lat="49.88893" lon="2.30698">
        <ele>38.6</ele>
        <time>2022-04-11T07:50:05Z</time>
      </trkpt>
      <trkpt lat="49.88894" lon="2.30699">
        <ele>38.5</ele>
        <time>2022-04-11T07:50:06Z</time>
      </trkpt>
      <trkpt lat="49.88895" lon="2.307">
        <ele>38.5</ele>
        <time>2022-04-11T07:50:08Z</time>
      </trkpt>
      <trkpt lat="49.88896" lon="2.307">
        <ele>38.4</ele>
        <time>2022-04-11T07:50:09Z</time>
      </trkpt>
      <trkpt lat="49.88898" lon="2.30701">
        <ele>38.4</ele>
        <time>2022-04-11T07:50:10Z</time>
      </trkpt>
      <trkpt lat="49.88899" lon="2.30702">
        <ele>38.4</ele>
        <time>2022-04-11T07:50:11Z</time>
      </trkpt>
      <trkpt lat="49.889" lon="2.30702">
        <ele>38.3</ele>
        <time>2022-04-11T07:50:12Z</time>
      </trkpt>
      <trkpt lat="49.88902" lon="2.30702">
        <ele>38.3</ele>
        <time>2022-04-11T07:50:13Z</time>
      </trkpt>
      <trkpt lat="49.88903" lon="2.30702">
        <ele>38.3</ele>
        <time>2022-04-11T07:50:14Z</time>
      </trkpt>
      <trkpt lat="49.88904" lon="2.30702">
        <ele>38.2</ele>
        <time>2022-04-11T07:50:15Z</time>
      </trkpt>
      <trkpt lat="49.88906" lon="2.30702">
        <ele>38.2</ele>
        <time>2022-04-11T07:50:16Z</time>
      </trkpt>
      <trkpt lat="49.88907" lon="2.30702">
        <ele>38.2</ele>
        <time>2022-04-11T07:50:17Z</time>
      </trkpt>
      <trkpt lat="49.88908" lon="2.30702">
        <ele>38.2</ele>
        <time>2022-04-11T07:50:19Z</time>
      </trkpt>
      <trkpt lat="49.8891" lon="2.30702">
        <ele>38.2</ele>
        <time>2022-04-11T07:50:20Z</time>
      </trkpt>
      <trkpt lat="49.88911" lon="2.30701">
        <ele>38.2</ele>
        <time>2022-04-11T07:50:21Z</time>
      </trkpt>
      <trkpt lat="49.88912" lon="2.307">
        <ele>38.1</ele>
        <time>2022-04-11T07:50:22Z</time>
      </trkpt>
      <trkpt lat="49.88914" lon="2.30699">
        <ele>38.1</ele>
        <time>2022-04-11T07:50:23Z</time>
      </trkpt>
      <trkpt lat="49.88914" lon="2.30698">
        <ele>38.1</ele>
        <time>2022-04-11T07:50:24Z</time>
      </trkpt>
      <trkpt lat="49.88915" lon="2.30696">
        <ele>38.1</ele>
        <time>2022-04-11T07:50:26Z</time>
      </trkpt>
      <trkpt lat="49.88915" lon="2.30696">
        <ele>38.1</ele>
        <time>2022-04-11T07:50:27Z</time>
      </trkpt>
      <trkpt lat="49.88915" lon="2.30696">
        <ele>38.1</ele>
        <time>2022-04-11T07:50:28Z</time>
      </trkpt>
      <trkpt lat="49.88911" lon="2.30696">
        <ele>38</ele>
        <time>2022-04-11T07:50:29Z</time>
      </trkpt>
      <trkpt lat="49.88911" lon="2.30697">
        <ele>38</ele>
        <time>2022-04-11T07:50:30Z</time>
      </trkpt>
      <trkpt lat="49.88912" lon="2.30697">
        <ele>38</ele>
        <time>2022-04-11T07:50:31Z</time>
      </trkpt>
      <trkpt lat="49.88912" lon="2.30698">
        <ele>38</ele>
        <time>2022-04-11T07:50:32Z</time>
      </trkpt>
      <trkpt lat="49.88911" lon="2.30699">
        <ele>38</ele>
        <time>2022-04-11T07:50:33Z</time>
      </trkpt>
      <trkpt lat="49.88912" lon="2.307">
        <ele>38</ele>
        <time>2022-04-11T07:50:34Z</time>
      </trkpt>
      <trkpt lat="49.88912" lon="2.30701">
        <ele>38</ele>
        <time>2022-04-11T07:50:36Z</time>
      </trkpt>
      <trkpt lat="49.88912" lon="2.30702">
        <ele>38</ele>
        <time>2022-04-11T07:50:37Z</time>
      </trkpt>
      <trkpt lat="49.88913" lon="2.30703">
        <ele>38</ele>
        <time>2022-04-11T07:50:38Z</time>
      </trkpt>
      <trkpt lat="49.88913" lon="2.30704">
        <ele>38</ele>
        <time>2022-04-11T07:50:39Z</time>
      </trkpt>
      <trkpt lat="49.88914" lon="2.30704">
        <ele>38</ele>
        <time>2022-04-11T07:50:40Z</time>
      </trkpt>
      <trkpt lat="49.88914" lon="2.30705">
        <ele>38</ele>
        <time>2022-04-11T07:50:41Z</time>
      </trkpt>
      <trkpt lat="49.88915" lon="2.30707">
        <ele>38</ele>
        <time>2022-04-11T07:50:43Z</time>
      </trkpt>
      <trkpt lat="49.88916" lon="2.30707">
        <ele>38</ele>
        <time>2022-04-11T07:50:44Z</time>
      </trkpt>
      <trkpt lat="49.88917" lon="2.30708">
        <ele>37.9</ele>
        <time>2022-04-11T07:50:45Z</time>
      </trkpt>
      <trkpt lat="49.88918" lon="2.30708">
        <ele>37.9</ele>
        <time>2022-04-11T07:50:46Z</time>
      </trkpt>
      <trkpt lat="49.88918" lon="2.30708">
        <ele>37.9</ele>
        <time>2022-04-11T07:50:47Z</time>
      </trkpt>
      <trkpt lat="49.88919" lon="2.30708">
        <ele>37.9</ele>
        <time>2022-04-11T07:50:48Z</time>
      </trkpt>
      <trkpt lat="49.88922" lon="2.30709">
        <ele>37.9</ele>
        <time>2022-04-11T07:50:49Z</time>
      </trkpt>
      <trkpt lat="49.88922" lon="2.30709">
        <ele>37.9</ele>
        <time>2022-04-11T07:50:51Z</time>
      </trkpt>
      <trkpt lat="49.88923" lon="2.3071">
        <ele>37.9</ele>
        <time>2022-04-11T07:50:52Z</time>
      </trkpt>
      <trkpt lat="49.88924" lon="2.3071">
        <ele>37.9</ele>
        <time>2022-04-11T07:50:53Z</time>
      </trkpt>
      <trkpt lat="49.88925" lon="2.30711">
        <ele>37.9</ele>
        <time>2022-04-11T07:50:54Z</time>
      </trkpt>
      <trkpt lat="49.88925" lon="2.30712">
        <ele>37.9</ele>
        <time>2022-04-11T07:50:55Z</time>
      </trkpt>
      <trkpt lat="49.88926" lon="2.30713">
        <ele>37.8</ele>
        <time>2022-04-11T07:50:56Z</time>
      </trkpt>
      <trkpt lat="49.88927" lon="2.30714">
        <ele>37.8</ele>
        <time>2022-04-11T07:50:57Z</time>
      </trkpt>
      <trkpt lat="49.88928" lon="2.30715">
        <ele>37.8</ele>
        <time>2022-04-11T07:50:58Z</time>
      </trkpt>
      <trkpt lat="49.88928" lon="2.30715">
        <ele>37.8</ele>
        <time>2022-04-11T07:50:59Z</time>
      </trkpt>
      <trkpt lat="49.88929" lon="2.30716">
        <ele>37.8</ele>
        <time>2022-04-11T07:51:00Z</time>
      </trkpt>
      <trkpt lat="49.8893" lon="2.30717">
        <ele>37.8</ele>
        <time>2022-04-11T07:51:01Z</time>
      </trkpt>
      <trkpt lat="49.88932" lon="2.30718">
        <ele>37.8</ele>
        <time>2022-04-11T07:51:03Z</time>
      </trkpt>
      <trkpt lat="49.88933" lon="2.3072">
        <ele>37.7</ele>
        <time>2022-04-11T07:51:04Z</time>
      </trkpt>
      <trkpt lat="49.88935" lon="2.3072">
        <ele>37.7</ele>
        <time>2022-04-11T07:51:05Z</time>
      </trkpt>
      <trkpt lat="49.88937" lon="2.30721">
        <ele>37.7</ele>
        <time>2022-04-11T07:51:06Z</time>
      </trkpt>
      <trkpt lat="49.88939" lon="2.30721">
        <ele>37.7</ele>
        <time>2022-04-11T07:51:07Z</time>
      </trkpt>
      <trkpt lat="49.88942" lon="2.30722">
        <ele>37.7</ele>
        <time>2022-04-11T07:51:08Z</time>
      </trkpt>
      <trkpt lat="49.88943" lon="2.30722">
        <ele>37.7</ele>
        <time>2022-04-11T07:51:09Z</time>
      </trkpt>
      <trkpt lat="49.88947" lon="2.30723">
        <ele>37.6</ele>
        <time>2022-04-11T07:51:10Z</time>
      </trkpt>
      <trkpt lat="49.88949" lon="2.30723">
        <ele>37.6</ele>
        <time>2022-04-11T07:51:11Z</time>
      </trkpt>
      <trkpt lat="49.88951" lon="2.30724">
        <ele>37.6</ele>
        <time>2022-04-11T07:51:12Z</time>
      </trkpt>
      <trkpt lat="49.88955" lon="2.30725">
        <ele>37.6</ele>
        <time>2022-04-11T07:51:14Z</time>
      </trkpt>
      <trkpt lat="49.88957" lon="2.30725">
        <ele>37.6</ele>
        <time>2022-04-11T07:51:15Z</time>
      </trkpt>
      <trkpt lat="49.88961" lon="2.30726">
        <ele>37.5</ele>
        <time>2022-04-11T07:51:16Z</time>
      </trkpt>
      <trkpt lat="49.88962" lon="2.30727">
        <ele>37.5</ele>
        <time>2022-04-11T07:51:17Z</time>
      </trkpt>
      <trkpt lat="49.88965" lon="2.30727">
        <ele>37.5</ele>
        <time>2022-04-11T07:51:18Z</time>
      </trkpt>
      <trkpt lat="49.88966" lon="2.30727">
        <ele>37.5</ele>
        <time>2022-04-11T07:51:19Z</time>
      </trkpt>
      <trkpt lat="49.8897" lon="2.30727">
        <ele>37.5</ele>
        <time>2022-04-11T07:51:20Z</time>
      </trkpt>
      <trkpt lat="49.88971" lon="2.30727">
        <ele>37.5</ele>
        <time>2022-04-11T07:51:21Z</time>
      </trkpt>
      <trkpt lat="49.88973" lon="2.30726">
        <ele>37.4</ele>
        <time>2022-04-11T07:51:22Z</time>
      </trkpt>
      <trkpt lat="49.88976" lon="2.30726">
        <ele>37.4</ele>
        <time>2022-04-11T07:51:24Z</time>
      </trkpt>
      <trkpt lat="49.88979" lon="2.30725">
        <ele>37.4</ele>
        <time>2022-04-11T07:51:25Z</time>
      </trkpt>
      <trkpt lat="49.8898" lon="2.30726">
        <ele>37.4</ele>
        <time>2022-04-11T07:51:26Z</time>
      </trkpt>
      <trkpt lat="49.88984" lon="2.30726">
        <ele>37.3</ele>
        <time>2022-04-11T07:51:27Z</time>
      </trkpt>
      <trkpt lat="49.88985" lon="2.30726">
        <ele>37.3</ele>
        <time>2022-04-11T07:51:28Z</time>
      </trkpt>
      <trkpt lat="49.88988" lon="2.30727">
        <ele>37.3</ele>
        <time>2022-04-11T07:51:29Z</time>
      </trkpt>
      <trkpt lat="49.8899" lon="2.30727">
        <ele>37.2</ele>
        <time>2022-04-11T07:51:30Z</time>
      </trkpt>
      <trkpt lat="49.88993" lon="2.30727">
        <ele>37.2</ele>
        <time>2022-04-11T07:51:31Z</time>
      </trkpt>
      <trkpt lat="49.88997" lon="2.30728">
        <ele>37.2</ele>
        <time>2022-04-11T07:51:33Z</time>
      </trkpt>
      <trkpt lat="49.88998" lon="2.30728">
        <ele>37.2</ele>
        <time>2022-04-11T07:51:34Z</time>
      </trkpt>
      <trkpt lat="49.89" lon="2.30728">
        <ele>37.2</ele>
        <time>2022-04-11T07:51:35Z</time>
      </trkpt>
      <trkpt lat="49.89001" lon="2.30728">
        <ele>37.1</ele>
        <time>2022-04-11T07:51:36Z</time>
      </trkpt>
      <trkpt lat="49.89002" lon="2.30729">
        <ele>37.1</ele>
        <time>2022-04-11T07:51:37Z</time>
      </trkpt>
      <trkpt lat="49.89002" lon="2.30729">
        <ele>37.1</ele>
        <time>2022-04-11T07:51:38Z</time>
      </trkpt>
      <trkpt lat="49.89003" lon="2.30729">
        <ele>37.1</ele>
        <time>2022-04-11T07:51:39Z</time>
      </trkpt>
      <trkpt lat="49.89004" lon="2.30729">
        <ele>37.1</ele>
        <time>2022-04-11T07:51:40Z</time>
      </trkpt>
      <trkpt lat="49.89005" lon="2.30729">
        <ele>37.1</ele>
        <time>2022-04-11T07:51:41Z</time>
      </trkpt>
      <trkpt lat="49.89006" lon="2.3073">
        <ele>37.1</ele>
        <time>2022-04-11T07:51:43Z</time>
      </trkpt>
      <trkpt lat="49.89007" lon="2.30731">
        <ele>37.1</ele>
        <time>2022-04-11T07:51:44Z</time>
      </trkpt>
      <trkpt lat="49.89007" lon="2.30732">
        <ele>37.1</ele>
        <time>2022-04-11T07:51:45Z</time>
      </trkpt>
      <trkpt lat="49.89007" lon="2.30733">
        <ele>37.1</ele>
        <time>2022-04-11T07:51:46Z</time>
      </trkpt>
      <trkpt lat="49.89008" lon="2.30734">
        <ele>37.1</ele>
        <time>2022-04-11T07:51:47Z</time>
      </trkpt>
      <trkpt lat="49.89008" lon="2.30735">
        <ele>37.1</ele>
        <time>2022-04-11T07:51:48Z</time>
      </trkpt>
      <trkpt lat="49.89009" lon="2.30735">
        <ele>37.1</ele>
        <time>2022-04-11T07:51:49Z</time>
      </trkpt>
      <trkpt lat="49.89009" lon="2.30735">
        <ele>37.1</ele>
        <time>2022-04-11T07:51:50Z</time>
      </trkpt>
      <trkpt lat="49.89009" lon="2.30735">
        <ele>37.1</ele>
        <time>2022-04-11T07:51:52Z</time>
      </trkpt>
      <trkpt lat="49.89009" lon="2.30735">
        <ele>37.1</ele>
        <time>2022-04-11T07:51:53Z</time>
      </trkpt>
      <trkpt lat="49.8901" lon="2.30733">
        <ele>37.1</ele>
        <time>2022-04-11T07:51:54Z</time>
      </trkpt>
      <trkpt lat="49.8901" lon="2.3073">
        <ele>37.1</ele>
        <time>2022-04-11T07:51:55Z</time>
      </trkpt>
      <trkpt lat="49.89009" lon="2.30724">
        <ele>37.1</ele>
        <time>2022-04-11T07:51:56Z</time>
      </trkpt>
      <trkpt lat="49.89009" lon="2.30723">
        <ele>37.1</ele>
        <time>2022-04-11T07:51:57Z</time>
      </trkpt>
      <trkpt lat="49.89009" lon="2.30718">
        <ele>37.1</ele>
        <time>2022-04-11T07:51:58Z</time>
      </trkpt>
      <trkpt lat="49.89009" lon="2.30716">
        <ele>37.1</ele>
        <time>2022-04-11T07:51:59Z</time>
      </trkpt>
      <trkpt lat="49.89009" lon="2.30714">
        <ele>37.1</ele>
        <time>2022-04-11T07:52:00Z</time>
      </trkpt>
      <trkpt lat="49.89008" lon="2.30711">
        <ele>37.1</ele>
        <time>2022-04-11T07:52:02Z</time>
      </trkpt>
      <trkpt lat="49.89009" lon="2.30709">
        <ele>37.1</ele>
        <time>2022-04-11T07:52:03Z</time>
      </trkpt>
      <trkpt lat="49.89009" lon="2.30707">
        <ele>37.1</ele>
        <time>2022-04-11T07:52:04Z</time>
      </trkpt>
      <trkpt lat="49.89008" lon="2.30707">
        <ele>37.1</ele>
        <time>2022-04-11T07:52:05Z</time>
      </trkpt>
      <trkpt lat="49.89007" lon="2.30707">
        <ele>37.1</ele>
        <time>2022-04-11T07:52:06Z</time>
      </trkpt>
      <trkpt lat="49.89007" lon="2.30705">
        <ele>37.1</ele>
        <time>2022-04-11T07:52:07Z</time>
      </trkpt>
      <trkpt lat="49.89008" lon="2.30704">
        <ele>37.1</ele>
        <time>2022-04-11T07:52:08Z</time>
      </trkpt>
      <trkpt lat="49.89008" lon="2.30703">
        <ele>37.1</ele>
        <time>2022-04-11T07:52:09Z</time>
      </trkpt>
      <trkpt lat="49.89008" lon="2.30703">
        <ele>37.1</ele>
        <time>2022-04-11T07:52:10Z</time>
      </trkpt>
      <trkpt lat="49.89009" lon="2.30702">
        <ele>37.1</ele>
        <time>2022-04-11T07:52:11Z</time>
      </trkpt>
      <trkpt lat="49.89009" lon="2.30702">
        <ele>37.1</ele>
        <time>2022-04-11T07:52:13Z</time>
      </trkpt>
      <trkpt lat="49.8901" lon="2.30701">
        <ele>37.1</ele>
        <time>2022-04-11T07:52:14Z</time>
      </trkpt>
      <trkpt lat="49.8901" lon="2.307">
        <ele>37.1</ele>
        <time>2022-04-11T07:52:15Z</time>
      </trkpt>
      <trkpt lat="49.8901" lon="2.30699">
        <ele>37.1</ele>
        <time>2022-04-11T07:52:16Z</time>
      </trkpt>
      <trkpt lat="49.8901" lon="2.30698">
        <ele>37.1</ele>
        <time>2022-04-11T07:52:17Z</time>
      </trkpt>
      <trkpt lat="49.8901" lon="2.30696">
        <ele>37.1</ele>
        <time>2022-04-11T07:52:18Z</time>
      </trkpt>
      <trkpt lat="49.8901" lon="2.30695">
        <ele>37.1</ele>
        <time>2022-04-11T07:52:19Z</time>
      </trkpt>
      <trkpt lat="49.8901" lon="2.30695">
        <ele>37.1</ele>
        <time>2022-04-11T07:52:20Z</time>
      </trkpt>
      <trkpt lat="49.8901" lon="2.30694">
        <ele>37.1</ele>
        <time>2022-04-11T07:52:21Z</time>
      </trkpt>
      <trkpt lat="49.8901" lon="2.30693">
        <ele>37.1</ele>
        <time>2022-04-11T07:52:22Z</time>
      </trkpt>
      <trkpt lat="49.8901" lon="2.30692">
        <ele>37.1</ele>
        <time>2022-04-11T07:52:24Z</time>
      </trkpt>
      <trkpt lat="49.89011" lon="2.30692">
        <ele>37.1</ele>
        <time>2022-04-11T07:52:25Z</time>
      </trkpt>
      <trkpt lat="49.89011" lon="2.30691">
        <ele>37.1</ele>
        <time>2022-04-11T07:52:26Z</time>
      </trkpt>
      <trkpt lat="49.89011" lon="2.30691">
        <ele>37.1</ele>
        <time>2022-04-11T07:52:27Z</time>
      </trkpt>
      <trkpt lat="49.89012" lon="2.30691">
        <ele>37.1</ele>
        <time>2022-04-11T07:52:28Z</time>
      </trkpt>
      <trkpt lat="49.89013" lon="2.30691">
        <ele>37.1</ele>
        <time>2022-04-11T07:52:29Z</time>
      </trkpt>
      <trkpt lat="49.89014" lon="2.30692">
        <ele>37.1</ele>
        <time>2022-04-11T07:52:30Z</time>
      </trkpt>
      <trkpt lat="49.89015" lon="2.30693">
        <ele>37.1</ele>
        <time>2022-04-11T07:52:31Z</time>
      </trkpt>
      <trkpt lat="49.89016" lon="2.30695">
        <ele>37.1</ele>
        <time>2022-04-11T07:52:32Z</time>
      </trkpt>
      <trkpt lat="49.89017" lon="2.30698">
        <ele>37.1</ele>
        <time>2022-04-11T07:52:34Z</time>
      </trkpt>
      <trkpt lat="49.89018" lon="2.30699">
        <ele>37.1</ele>
        <time>2022-04-11T07:52:35Z</time>
      </trkpt>
      <trkpt lat="49.89019" lon="2.307">
        <ele>37.1</ele>
        <time>2022-04-11T07:52:36Z</time>
      </trkpt>
      <trkpt lat="49.89018" lon="2.30703">
        <ele>37.1</ele>
        <time>2022-04-11T07:52:37Z</time>
      </trkpt>
      <trkpt lat="49.89018" lon="2.30704">
        <ele>37.1</ele>
        <time>2022-04-11T07:52:38Z</time>
      </trkpt>
      <trkpt lat="49.89019" lon="2.30705">
        <ele>37.1</ele>
        <time>2022-04-11T07:52:39Z</time>
      </trkpt>
      <trkpt lat="49.8902" lon="2.30706">
        <ele>37.1</ele>
        <time>2022-04-11T07:52:40Z</time>
      </trkpt>
      <trkpt lat="49.89022" lon="2.30707">
        <ele>37.1</ele>
        <time>2022-04-11T07:52:41Z</time>
      </trkpt>
      <trkpt lat="49.89023" lon="2.30708">
        <ele>37.1</ele>
        <time>2022-04-11T07:52:42Z</time>
      </trkpt>
      <trkpt lat="49.89024" lon="2.30708">
        <ele>37.1</ele>
        <time>2022-04-11T07:52:43Z</time>
      </trkpt>
      <trkpt lat="49.89026" lon="2.30708">
        <ele>37.1</ele>
        <time>2022-04-11T07:52:44Z</time>
      </trkpt>
      <trkpt lat="49.89028" lon="2.30707">
        <ele>37.1</ele>
        <time>2022-04-11T07:52:46Z</time>
      </trkpt>
      <trkpt lat="49.89029" lon="2.30706">
        <ele>37.2</ele>
        <time>2022-04-11T07:52:47Z</time>
      </trkpt>
      <trkpt lat="49.8903" lon="2.30706">
        <ele>37.2</ele>
        <time>2022-04-11T07:52:48Z</time>
      </trkpt>
      <trkpt lat="49.89032" lon="2.30703">
        <ele>37.2</ele>
        <time>2022-04-11T07:52:49Z</time>
      </trkpt>
      <trkpt lat="49.89033" lon="2.30703">
        <ele>37.2</ele>
        <time>2022-04-11T07:52:50Z</time>
      </trkpt>
      <trkpt lat="49.89035" lon="2.30702">
        <ele>37.2</ele>
        <time>2022-04-11T07:52:51Z</time>
      </trkpt>
      <trkpt lat="49.89036" lon="2.30701">
        <ele>37.2</ele>
        <time>2022-04-11T07:52:52Z</time>
      </trkpt>
      <trkpt lat="49.89038" lon="2.30701">
        <ele>37.2</ele>
        <time>2022-04-11T07:52:53Z</time>
      </trkpt>
      <trkpt lat="49.89039" lon="2.30701">
        <ele>37.2</ele>
        <time>2022-04-11T07:52:54Z</time>
      </trkpt>
      <trkpt lat="49.8904" lon="2.30701">
        <ele>37.2</ele>
        <time>2022-04-11T07:52:56Z</time>
      </trkpt>
      <trkpt lat="49.89041" lon="2.30702">
        <ele>37.2</ele>
        <time>2022-04-11T07:52:57Z</time>
      </trkpt>
      <trkpt lat="49.89042" lon="2.30702">
        <ele>37.2</ele>
        <time>2022-04-11T07:52:58Z</time>
      </trkpt>
      <trkpt lat="49.89043" lon="2.30702">
        <ele>37.2</ele>
        <time>2022-04-11T07:52:59Z</time>
      </trkpt>
      <trkpt lat="49.89042" lon="2.30701">
        <ele>37.2</ele>
        <time>2022-04-11T07:53:00Z</time>
      </trkpt>
      <trkpt lat="49.89043" lon="2.30702">
        <ele>37.2</ele>
        <time>2022-04-11T07:53:01Z</time>
      </trkpt>
      <trkpt lat="49.89044" lon="2.30702">
        <ele>37.2</ele>
        <time>2022-04-11T07:53:02Z</time>
      </trkpt>
      <trkpt lat="49.89045" lon="2.30702">
        <ele>37.2</ele>
        <time>2022-04-11T07:53:03Z</time>
      </trkpt>
      <trkpt lat="49.89046" lon="2.30703">
        <ele>37.2</ele>
        <time>2022-04-11T07:53:04Z</time>
      </trkpt>
      <trkpt lat="49.89046" lon="2.30703">
        <ele>37.2</ele>
        <time>2022-04-11T07:53:05Z</time>
      </trkpt>
      <trkpt lat="49.89047" lon="2.30703">
        <ele>37.2</ele>
        <time>2022-04-11T07:53:06Z</time>
      </trkpt>
      <trkpt lat="49.89049" lon="2.30703">
        <ele>37.2</ele>
        <time>2022-04-11T07:53:07Z</time>
      </trkpt>
      <trkpt lat="49.89051" lon="2.30704">
        <ele>37.2</ele>
        <time>2022-04-11T07:53:09Z</time>
      </trkpt>
      <trkpt lat="49.89052" lon="2.30704">
        <ele>37.2</ele>
        <time>2022-04-11T07:53:10Z</time>
      </trkpt>
      <trkpt lat="49.89052" lon="2.30704">
        <ele>37.2</ele>
        <time>2022-04-11T07:53:11Z</time>
      </trkpt>
      <trkpt lat="49.89054" lon="2.30704">
        <ele>37.2</ele>
        <time>2022-04-11T07:53:12Z</time>
      </trkpt>
      <trkpt lat="49.89055" lon="2.30703">
        <ele>37.2</ele>
        <time>2022-04-11T07:53:13Z</time>
      </trkpt>
      <trkpt lat="49.89055" lon="2.30703">
        <ele>37.2</ele>
        <time>2022-04-11T07:53:14Z</time>
      </trkpt>
      <trkpt lat="49.89056" lon="2.30702">
        <ele>37.2</ele>
        <time>2022-04-11T07:53:15Z</time>
      </trkpt>
      <trkpt lat="49.89056" lon="2.30702">
        <ele>37.2</ele>
        <time>2022-04-11T07:53:16Z</time>
      </trkpt>
      <trkpt lat="49.89057" lon="2.30702">
        <ele>37.2</ele>
        <time>2022-04-11T07:53:17Z</time>
      </trkpt>
      <trkpt lat="49.89058" lon="2.30702">
        <ele>37.2</ele>
        <time>2022-04-11T07:53:18Z</time>
      </trkpt>
      <trkpt lat="49.89058" lon="2.30701">
        <ele>37.2</ele>
        <time>2022-04-11T07:53:19Z</time>
      </trkpt>
      <trkpt lat="49.89058" lon="2.30701">
        <ele>37.2</ele>
        <time>2022-04-11T07:53:20Z</time>
      </trkpt>
      <trkpt lat="49.89059" lon="2.307">
        <ele>37.2</ele>
        <time>2022-04-11T07:53:22Z</time>
      </trkpt>
      <trkpt lat="49.89059" lon="2.307">
        <ele>37.2</ele>
        <time>2022-04-11T07:53:23Z</time>
      </trkpt>
      <trkpt lat="49.89059" lon="2.30699">
        <ele>37.2</ele>
        <time>2022-04-11T07:53:24Z</time>
      </trkpt>
      <trkpt lat="49.89059" lon="2.30699">
        <ele>37.2</ele>
        <time>2022-04-11T07:53:25Z</time>
      </trkpt>
      <trkpt lat="49.89057" lon="2.30697">
        <ele>37.2</ele>
        <time>2022-04-11T07:53:26Z</time>
      </trkpt>
      <trkpt lat="49.89057" lon="2.30697">
        <ele>37.2</ele>
        <time>2022-04-11T07:53:27Z</time>
      </trkpt>
      <trkpt lat="49.89057" lon="2.30697">
        <ele>37.2</ele>
        <time>2022-04-11T07:53:28Z</time>
      </trkpt>
      <trkpt lat="49.89058" lon="2.30697">
        <ele>37.2</ele>
        <time>2022-04-11T07:53:29Z</time>
      </trkpt>
      <trkpt lat="49.89058" lon="2.30696">
        <ele>37.2</ele>
        <time>2022-04-11T07:53:30Z</time>
      </trkpt>
      <trkpt lat="49.89057" lon="2.30696">
        <ele>37.2</ele>
        <time>2022-04-11T07:53:31Z</time>
      </trkpt>
      <trkpt lat="49.89057" lon="2.30696">
        <ele>37.2</ele>
        <time>2022-04-11T07:53:32Z</time>
      </trkpt>
      <trkpt lat="49.89057" lon="2.30696">
        <ele>37.2</ele>
        <time>2022-04-11T07:53:33Z</time>
      </trkpt>
      <trkpt lat="49.89057" lon="2.30696">
        <ele>37.2</ele>
        <time>2022-04-11T07:53:35Z</time>
      </trkpt>
      <trkpt lat="49.89057" lon="2.30695">
        <ele>37.2</ele>
        <time>2022-04-11T07:53:36Z</time>
      </trkpt>
      <trkpt lat="49.89057" lon="2.30694">
        <ele>37.2</ele>
        <time>2022-04-11T07:53:37Z</time>
      </trkpt>
      <trkpt lat="49.89056" lon="2.30693">
        <ele>37.2</ele>
        <time>2022-04-11T07:53:38Z</time>
      </trkpt>
      <trkpt lat="49.89056" lon="2.30692">
        <ele>37.2</ele>
        <time>2022-04-11T07:53:39Z</time>
      </trkpt>
      <trkpt lat="49.89055" lon="2.30691">
        <ele>37.2</ele>
        <time>2022-04-11T07:53:41Z</time>
      </trkpt>
      <trkpt lat="49.89055" lon="2.3069">
        <ele>37.2</ele>
        <time>2022-04-11T07:53:42Z</time>
      </trkpt>
      <trkpt lat="49.89054" lon="2.3069">
        <ele>37.2</ele>
        <time>2022-04-11T07:53:43Z</time>
      </trkpt>
      <trkpt lat="49.89054" lon="2.30689">
        <ele>37.2</ele>
        <time>2022-04-11T07:53:44Z</time>
      </trkpt>
      <trkpt lat="49.89053" lon="2.30688">
        <ele>37.2</ele>
        <time>2022-04-11T07:53:45Z</time>
      </trkpt>
      <trkpt lat="49.89052" lon="2.30686">
        <ele>37.2</ele>
        <time>2022-04-11T07:53:46Z</time>
      </trkpt>
      <trkpt lat="49.89051" lon="2.30685">
        <ele>37.2</ele>
        <time>2022-04-11T07:53:48Z</time>
      </trkpt>
      <trkpt lat="49.89049" lon="2.30683">
        <ele>37.2</ele>
        <time>2022-04-11T07:53:49Z</time>
      </trkpt>
      <trkpt lat="49.89048" lon="2.30681">
        <ele>37.2</ele>
        <time>2022-04-11T07:53:50Z</time>
      </trkpt>
      <trkpt lat="49.89047" lon="2.3068">
        <ele>37.2</ele>
        <time>2022-04-11T07:53:51Z</time>
      </trkpt>
      <trkpt lat="49.89047" lon="2.30679">
        <ele>37.2</ele>
        <time>2022-04-11T07:53:52Z</time>
      </trkpt>
      <trkpt lat="49.89045" lon="2.30677">
        <ele>37.2</ele>
        <time>2022-04-11T07:53:53Z</time>
      </trkpt>
      <trkpt lat="49.89045" lon="2.30676">
        <ele>37.2</ele>
        <time>2022-04-11T07:53:54Z</time>
      </trkpt>
      <trkpt lat="49.89044" lon="2.30675">
        <ele>37.2</ele>
        <time>2022-04-11T07:53:55Z</time>
      </trkpt>
      <trkpt lat="49.89043" lon="2.30673">
        <ele>37.2</ele>
        <time>2022-04-11T07:53:56Z</time>
      </trkpt>
      <trkpt lat="49.89042" lon="2.30672">
        <ele>37.2</ele>
        <time>2022-04-11T07:53:57Z</time>
      </trkpt>
      <trkpt lat="49.89041" lon="2.30671">
        <ele>37.2</ele>
        <time>2022-04-11T07:53:59Z</time>
      </trkpt>
      <trkpt lat="49.8904" lon="2.3067">
        <ele>37.2</ele>
        <time>2022-04-11T07:54:00Z</time>
      </trkpt>
      <trkpt lat="49.8904" lon="2.30668">
        <ele>37.2</ele>
        <time>2022-04-11T07:54:01Z</time>
      </trkpt>
      <trkpt lat="49.89039" lon="2.30667">
        <ele>37.2</ele>
        <time>2022-04-11T07:54:02Z</time>
      </trkpt>
      <trkpt lat="49.8904" lon="2.30666">
        <ele>37.2</ele>
        <time>2022-04-11T07:54:03Z</time>
      </trkpt>
      <trkpt lat="49.8904" lon="2.30665">
        <ele>37.2</ele>
        <time>2022-04-11T07:54:04Z</time>
      </trkpt>
      <trkpt lat="49.89041" lon="2.30664">
        <ele>37.2</ele>
        <time>2022-04-11T07:54:05Z</time>
      </trkpt>
      <trkpt lat="49.89041" lon="2.30663">
        <ele>37.2</ele>
        <time>2022-04-11T07:54:06Z</time>
      </trkpt>
      <trkpt lat="49.89042" lon="2.30663">
        <ele>37.2</ele>
        <time>2022-04-11T07:54:07Z</time>
      </trkpt>
      <trkpt lat="49.89043" lon="2.30662">
        <ele>37.2</ele>
        <time>2022-04-11T07:54:09Z</time>
      </trkpt>
      <trkpt lat="49.89044" lon="2.30662">
        <ele>37.2</ele>
        <time>2022-04-11T07:54:10Z</time>
      </trkpt>
      <trkpt lat="49.89046" lon="2.30664">
        <ele>37.2</ele>
        <time>2022-04-11T07:54:11Z</time>
      </trkpt>
      <trkpt lat="49.89047" lon="2.30665">
        <ele>37.2</ele>
        <time>2022-04-11T07:54:12Z</time>
      </trkpt>
      <trkpt lat="49.89047" lon="2.30666">
        <ele>37.2</ele>
        <time>2022-04-11T07:54:13Z</time>
      </trkpt>
      <trkpt lat="49.89049" lon="2.3067">
        <ele>37.2</ele>
        <time>2022-04-11T07:54:14Z</time>
      </trkpt>
      <trkpt lat="49.8905" lon="2.30671">
        <ele>37.1</ele>
        <time>2022-04-11T07:54:15Z</time>
      </trkpt>
      <trkpt lat="49.8905" lon="2.30672">
        <ele>37.1</ele>
        <time>2022-04-11T07:54:16Z</time>
      </trkpt>
      <trkpt lat="49.89051" lon="2.30674">
        <ele>37.1</ele>
        <time>2022-04-11T07:54:17Z</time>
      </trkpt>
      <trkpt lat="49.89051" lon="2.30675">
        <ele>37.1</ele>
        <time>2022-04-11T07:54:18Z</time>
      </trkpt>
      <trkpt lat="49.89052" lon="2.30677">
        <ele>37.1</ele>
        <time>2022-04-11T07:54:20Z</time>
      </trkpt>
      <trkpt lat="49.89052" lon="2.30678">
        <ele>37.1</ele>
        <time>2022-04-11T07:54:21Z</time>
      </trkpt>
      <trkpt lat="49.89053" lon="2.30679">
        <ele>37.1</ele>
        <time>2022-04-11T07:54:22Z</time>
      </trkpt>
      <trkpt lat="49.89053" lon="2.30679">
        <ele>37.1</ele>
        <time>2022-04-11T07:54:23Z</time>
      </trkpt>
      <trkpt lat="49.89054" lon="2.30679">
        <ele>37.1</ele>
        <time>2022-04-11T07:54:24Z</time>
      </trkpt>
      <trkpt lat="49.89054" lon="2.30677">
        <ele>37.1</ele>
        <time>2022-04-11T07:54:25Z</time>
      </trkpt>
      <trkpt lat="49.89054" lon="2.30675">
        <ele>37.1</ele>
        <time>2022-04-11T07:54:26Z</time>
      </trkpt>
      <trkpt lat="49.89053" lon="2.30674">
        <ele>37.1</ele>
        <time>2022-04-11T07:54:27Z</time>
      </trkpt>
      <trkpt lat="49.89054" lon="2.30673">
        <ele>37.1</ele>
        <time>2022-04-11T07:54:28Z</time>
      </trkpt>
      <trkpt lat="49.89053" lon="2.30673">
        <ele>37</ele>
        <time>2022-04-11T07:54:29Z</time>
      </trkpt>
      <trkpt lat="49.89053" lon="2.30675">
        <ele>37</ele>
        <time>2022-04-11T07:54:30Z</time>
      </trkpt>
      <trkpt lat="49.89052" lon="2.30677">
        <ele>37</ele>
        <time>2022-04-11T07:54:31Z</time>
      </trkpt>
      <trkpt lat="49.89051" lon="2.30679">
        <ele>37</ele>
        <time>2022-04-11T07:54:33Z</time>
      </trkpt>
      <trkpt lat="49.89051" lon="2.30681">
        <ele>37</ele>
        <time>2022-04-11T07:54:34Z</time>
      </trkpt>
      <trkpt lat="49.8905" lon="2.30684">
        <ele>37</ele>
        <time>2022-04-11T07:54:35Z</time>
      </trkpt>
      <trkpt lat="49.8905" lon="2.30687">
        <ele>37</ele>
        <time>2022-04-11T07:54:36Z</time>
      </trkpt>
      <trkpt lat="49.8905" lon="2.30689">
        <ele>37</ele>
        <time>2022-04-11T07:54:37Z</time>
      </trkpt>
      <trkpt lat="49.8905" lon="2.3069">
        <ele>37</ele>
        <time>2022-04-11T07:54:38Z</time>
      </trkpt>
      <trkpt lat="49.89051" lon="2.30692">
        <ele>37</ele>
        <time>2022-04-11T07:54:39Z</time>
      </trkpt>
      <trkpt lat="49.89052" lon="2.30693">
        <ele>37</ele>
        <time>2022-04-11T07:54:40Z</time>
      </trkpt>
      <trkpt lat="49.89054" lon="2.30695">
        <ele>37</ele>
        <time>2022-04-11T07:54:41Z</time>
      </trkpt>
      <trkpt lat="49.89055" lon="2.30696">
        <ele>37</ele>
        <time>2022-04-11T07:54:42Z</time>
      </trkpt>
      <trkpt lat="49.89057" lon="2.30696">
        <ele>37</ele>
        <time>2022-04-11T07:54:43Z</time>
      </trkpt>
      <trkpt lat="49.89058" lon="2.30697">
        <ele>36.9</ele>
        <time>2022-04-11T07:54:45Z</time>
      </trkpt>
      <trkpt lat="49.89061" lon="2.30697">
        <ele>36.9</ele>
        <time>2022-04-11T07:54:46Z</time>
      </trkpt>
      <trkpt lat="49.89063" lon="2.30698">
        <ele>36.8</ele>
        <time>2022-04-11T07:54:47Z</time>
      </trkpt>
      <trkpt lat="49.89066" lon="2.30699">
        <ele>36.8</ele>
        <time>2022-04-11T07:54:48Z</time>
      </trkpt>
      <trkpt lat="49.89068" lon="2.30699">
        <ele>36.7</ele>
        <time>2022-04-11T07:54:49Z</time>
      </trkpt>
      <trkpt lat="49.8907" lon="2.307">
        <ele>36.7</ele>
        <time>2022-04-11T07:54:50Z</time>
      </trkpt>
      <trkpt lat="49.89072" lon="2.30701">
        <ele>36.6</ele>
        <time>2022-04-11T07:54:52Z</time>
      </trkpt>
      <trkpt lat="49.89076" lon="2.30703">
        <ele>36.5</ele>
        <time>2022-04-11T07:54:53Z</time>
      </trkpt>
      <trkpt lat="49.89077" lon="2.30703">
        <ele>36.5</ele>
        <time>2022-04-11T07:54:54Z</time>
      </trkpt>
      <trkpt lat="49.89081" lon="2.30707">
        <ele>36.3</ele>
        <time>2022-04-11T07:54:55Z</time>
      </trkpt>
      <trkpt lat="49.89087" lon="2.30712">
        <ele>36.2</ele>
        <time>2022-04-11T07:54:56Z</time>
      </trkpt>
      <trkpt lat="49.89093" lon="2.30718">
        <ele>35.9</ele>
        <time>2022-04-11T07:54:57Z</time>
      </trkpt>
      <trkpt lat="49.89099" lon="2.30723">
        <ele>35.7</ele>
        <time>2022-04-11T07:54:58Z</time>
      </trkpt>
      <trkpt lat="49.89105" lon="2.30729">
        <ele>35.4</ele>
        <time>2022-04-11T07:54:59Z</time>
      </trkpt>
      <trkpt lat="49.8911" lon="2.30734">
        <ele>35.2</ele>
        <time>2022-04-11T07:55:00Z</time>
      </trkpt>
      <trkpt lat="49.89115" lon="2.30739">
        <ele>35</ele>
        <time>2022-04-11T07:55:01Z</time>
      </trkpt>
      <trkpt lat="49.8912" lon="2.30744">
        <ele>34.8</ele>
        <time>2022-04-11T07:55:02Z</time>
      </trkpt>
      <trkpt lat="49.89124" lon="2.30748">
        <ele>34.8</ele>
        <time>2022-04-11T07:55:03Z</time>
      </trkpt>
      <trkpt lat="49.89127" lon="2.30751">
        <ele>34.6</ele>
        <time>2022-04-11T07:55:05Z</time>
      </trkpt>
      <trkpt lat="49.8913" lon="2.30755">
        <ele>34.5</ele>
        <time>2022-04-11T07:55:06Z</time>
      </trkpt>
      <trkpt lat="49.89134" lon="2.30758">
        <ele>34.4</ele>
        <time>2022-04-11T07:55:07Z</time>
      </trkpt>
      <trkpt lat="49.89138" lon="2.30762">
        <ele>34.2</ele>
        <time>2022-04-11T07:55:08Z</time>
      </trkpt>
      <trkpt lat="49.89141" lon="2.30764">
        <ele>34.1</ele>
        <time>2022-04-11T07:55:09Z</time>
      </trkpt>
      <trkpt lat="49.89143" lon="2.30767">
        <ele>34</ele>
        <time>2022-04-11T07:55:10Z</time>
      </trkpt>
      <trkpt lat="49.89146" lon="2.30769">
        <ele>33.9</ele>
        <time>2022-04-11T07:55:11Z</time>
      </trkpt>
      <trkpt lat="49.8915" lon="2.30772">
        <ele>33.8</ele>
        <time>2022-04-11T07:55:12Z</time>
      </trkpt>
      <trkpt lat="49.89153" lon="2.30773">
        <ele>33.8</ele>
        <time>2022-04-11T07:55:13Z</time>
      </trkpt>
      <trkpt lat="49.89155" lon="2.30776">
        <ele>33.7</ele>
        <time>2022-04-11T07:55:14Z</time>
      </trkpt>
      <trkpt lat="49.89158" lon="2.30778">
        <ele>33.6</ele>
        <time>2022-04-11T07:55:15Z</time>
      </trkpt>
      <trkpt lat="49.89161" lon="2.30779">
        <ele>33.6</ele>
        <time>2022-04-11T07:55:16Z</time>
      </trkpt>
      <trkpt lat="49.89164" lon="2.30782">
        <ele>33.5</ele>
        <time>2022-04-11T07:55:17Z</time>
      </trkpt>
      <trkpt lat="49.89165" lon="2.30783">
        <ele>33.5</ele>
        <time>2022-04-11T07:55:18Z</time>
      </trkpt>
      <trkpt lat="49.89168" lon="2.30785">
        <ele>33.5</ele>
        <time>2022-04-11T07:55:20Z</time>
      </trkpt>
      <trkpt lat="49.8917" lon="2.30785">
        <ele>33.5</ele>
        <time>2022-04-11T07:55:21Z</time>
      </trkpt>
      <trkpt lat="49.89173" lon="2.30787">
        <ele>33.4</ele>
        <time>2022-04-11T07:55:22Z</time>
      </trkpt>
      <trkpt lat="49.89174" lon="2.30788">
        <ele>33.4</ele>
        <time>2022-04-11T07:55:23Z</time>
      </trkpt>
      <trkpt lat="49.89177" lon="2.30789">
        <ele>33.4</ele>
        <time>2022-04-11T07:55:24Z</time>
      </trkpt>
      <trkpt lat="49.89178" lon="2.3079">
        <ele>33.4</ele>
        <time>2022-04-11T07:55:25Z</time>
      </trkpt>
      <trkpt lat="49.89181" lon="2.30791">
        <ele>33.3</ele>
        <time>2022-04-11T07:55:26Z</time>
      </trkpt>
      <trkpt lat="49.89182" lon="2.30792">
        <ele>33.3</ele>
        <time>2022-04-11T07:55:27Z</time>
      </trkpt>
      <trkpt lat="49.89185" lon="2.30794">
        <ele>33.3</ele>
        <time>2022-04-11T07:55:28Z</time>
      </trkpt>
      <trkpt lat="49.89186" lon="2.30794">
        <ele>33.3</ele>
        <time>2022-04-11T07:55:29Z</time>
      </trkpt>
      <trkpt lat="49.89188" lon="2.30795">
        <ele>33.2</ele>
        <time>2022-04-11T07:55:30Z</time>
      </trkpt>
      <trkpt lat="49.8919" lon="2.30796">
        <ele>33.2</ele>
        <time>2022-04-11T07:55:32Z</time>
      </trkpt>
      <trkpt lat="49.89193" lon="2.30797">
        <ele>33.2</ele>
        <time>2022-04-11T07:55:33Z</time>
      </trkpt>
      <trkpt lat="49.89194" lon="2.30797">
        <ele>33.2</ele>
        <time>2022-04-11T07:55:34Z</time>
      </trkpt>
      <trkpt lat="49.89195" lon="2.30798">
        <ele>33.2</ele>
        <time>2022-04-11T07:55:35Z</time>
      </trkpt>
      <trkpt lat="49.89197" lon="2.30798">
        <ele>33.1</ele>
        <time>2022-04-11T07:55:36Z</time>
      </trkpt>
      <trkpt lat="49.89199" lon="2.30798">
        <ele>33.1</ele>
        <time>2022-04-11T07:55:37Z</time>
      </trkpt>
      <trkpt lat="49.892" lon="2.30798">
        <ele>33.1</ele>
        <time>2022-04-11T07:55:38Z</time>
      </trkpt>
      <trkpt lat="49.89201" lon="2.30798">
        <ele>33.1</ele>
        <time>2022-04-11T07:55:39Z</time>
      </trkpt>
      <trkpt lat="49.89203" lon="2.30798">
        <ele>33.1</ele>
        <time>2022-04-11T07:55:40Z</time>
      </trkpt>
      <trkpt lat="49.89204" lon="2.30798">
        <ele>33.1</ele>
        <time>2022-04-11T07:55:41Z</time>
      </trkpt>
      <trkpt lat="49.89206" lon="2.30799">
        <ele>33</ele>
        <time>2022-04-11T07:55:42Z</time>
      </trkpt>
      <trkpt lat="49.89207" lon="2.30799">
        <ele>33</ele>
        <time>2022-04-11T07:55:43Z</time>
      </trkpt>
      <trkpt lat="49.89208" lon="2.308">
        <ele>33</ele>
        <time>2022-04-11T07:55:45Z</time>
      </trkpt>
      <trkpt lat="49.8921" lon="2.308">
        <ele>32.9</ele>
        <time>2022-04-11T07:55:46Z</time>
      </trkpt>
      <trkpt lat="49.89212" lon="2.30801">
        <ele>32.9</ele>
        <time>2022-04-11T07:55:47Z</time>
      </trkpt>
      <trkpt lat="49.89213" lon="2.30802">
        <ele>32.9</ele>
        <time>2022-04-11T07:55:48Z</time>
      </trkpt>
      <trkpt lat="49.89215" lon="2.30802">
        <ele>32.9</ele>
        <time>2022-04-11T07:55:49Z</time>
      </trkpt>
      <trkpt lat="49.89217" lon="2.30803">
        <ele>32.8</ele>
        <time>2022-04-11T07:55:50Z</time>
      </trkpt>
      <trkpt lat="49.89218" lon="2.30803">
        <ele>32.8</ele>
        <time>2022-04-11T07:55:51Z</time>
      </trkpt>
      <trkpt lat="49.89218" lon="2.30803">
        <ele>32.8</ele>
        <time>2022-04-11T07:55:52Z</time>
      </trkpt>
      <trkpt lat="49.8922" lon="2.30803">
        <ele>32.8</ele>
        <time>2022-04-11T07:55:53Z</time>
      </trkpt>
      <trkpt lat="49.89221" lon="2.30802">
        <ele>32.7</ele>
        <time>2022-04-11T07:55:54Z</time>
      </trkpt>
      <trkpt lat="49.89222" lon="2.30801">
        <ele>32.7</ele>
        <time>2022-04-11T07:55:55Z</time>
      </trkpt>
      <trkpt lat="49.89224" lon="2.30797">
        <ele>32.7</ele>
        <time>2022-04-11T07:55:57Z</time>
      </trkpt>
      <trkpt lat="49.89224" lon="2.30796">
        <ele>32.7</ele>
        <time>2022-04-11T07:55:58Z</time>
      </trkpt>
      <trkpt lat="49.89225" lon="2.30791">
        <ele>32.7</ele>
        <time>2022-04-11T07:55:59Z</time>
      </trkpt>
      <trkpt lat="49.89225" lon="2.30789">
        <ele>32.8</ele>
        <time>2022-04-11T07:56:00Z</time>
      </trkpt>
      <trkpt lat="49.89225" lon="2.30787">
        <ele>32.8</ele>
        <time>2022-04-11T07:56:01Z</time>
      </trkpt>
      <trkpt lat="49.89225" lon="2.30785">
        <ele>32.8</ele>
        <time>2022-04-11T07:56:02Z</time>
      </trkpt>
      <trkpt lat="49.89226" lon="2.30783">
        <ele>32.8</ele>
        <time>2022-04-11T07:56:03Z</time>
      </trkpt>
      <trkpt lat="49.89226" lon="2.3078">
        <ele>32.9</ele>
        <time>2022-04-11T07:56:04Z</time>
      </trkpt>
      <trkpt lat="49.89226" lon="2.30777">
        <ele>32.9</ele>
        <time>2022-04-11T07:56:05Z</time>
      </trkpt>
      <trkpt lat="49.89227" lon="2.30775">
        <ele>32.9</ele>
        <time>2022-04-11T07:56:06Z</time>
      </trkpt>
      <trkpt lat="49.89227" lon="2.30772">
        <ele>32.9</ele>
        <time>2022-04-11T07:56:07Z</time>
      </trkpt>
      <trkpt lat="49.89228" lon="2.30769">
        <ele>33</ele>
        <time>2022-04-11T07:56:09Z</time>
      </trkpt>
      <trkpt lat="49.89227" lon="2.30766">
        <ele>33</ele>
        <time>2022-04-11T07:56:10Z</time>
      </trkpt>
      <trkpt lat="49.89227" lon="2.30763">
        <ele>32.9</ele>
        <time>2022-04-11T07:56:11Z</time>
      </trkpt>
      <trkpt lat="49.89228" lon="2.30761">
        <ele>32.9</ele>
        <time>2022-04-11T07:56:12Z</time>
      </trkpt>
      <trkpt lat="49.89228" lon="2.30758">
        <ele>32.8</ele>
        <time>2022-04-11T07:56:13Z</time>
      </trkpt>
      <trkpt lat="49.89229" lon="2.30756">
        <ele>32.7</ele>
        <time>2022-04-11T07:56:15Z</time>
      </trkpt>
      <trkpt lat="49.89229" lon="2.30753">
        <ele>32.6</ele>
        <time>2022-04-11T07:56:16Z</time>
      </trkpt>
      <trkpt lat="49.8923" lon="2.30751">
        <ele>32.6</ele>
        <time>2022-04-11T07:56:17Z</time>
      </trkpt>
      <trkpt lat="49.8923" lon="2.30749">
        <ele>32.5</ele>
        <time>2022-04-11T07:56:18Z</time>
      </trkpt>
      <trkpt lat="49.89232" lon="2.30744">
        <ele>32.6</ele>
        <time>2022-04-11T07:56:19Z</time>
      </trkpt>
      <trkpt lat="49.89232" lon="2.30742">
        <ele>32.7</ele>
        <time>2022-04-11T07:56:20Z</time>
      </trkpt>
      <trkpt lat="49.89234" lon="2.30737">
        <ele>32.8</ele>
        <time>2022-04-11T07:56:21Z</time>
      </trkpt>
      <trkpt lat="49.89234" lon="2.30736">
        <ele>32.9</ele>
        <time>2022-04-11T07:56:22Z</time>
      </trkpt>
      <trkpt lat="49.89236" lon="2.30731">
        <ele>33</ele>
        <time>2022-04-11T07:56:23Z</time>
      </trkpt>
      <trkpt lat="49.89237" lon="2.30729">
        <ele>33</ele>
        <time>2022-04-11T07:56:24Z</time>
      </trkpt>
      <trkpt lat="49.89238" lon="2.30725">
        <ele>33</ele>
        <time>2022-04-11T07:56:25Z</time>
      </trkpt>
      <trkpt lat="49.8924" lon="2.30722">
        <ele>33</ele>
        <time>2022-04-11T07:56:27Z</time>
      </trkpt>
      <trkpt lat="49.89243" lon="2.30717">
        <ele>33.1</ele>
        <time>2022-04-11T07:56:28Z</time>
      </trkpt>
      <trkpt lat="49.89244" lon="2.30716">
        <ele>33.1</ele>
        <time>2022-04-11T07:56:29Z</time>
      </trkpt>
      <trkpt lat="49.89246" lon="2.30711">
        <ele>33.1</ele>
        <time>2022-04-11T07:56:30Z</time>
      </trkpt>
      <trkpt lat="49.89247" lon="2.3071">
        <ele>33.2</ele>
        <time>2022-04-11T07:56:31Z</time>
      </trkpt>
      <trkpt lat="49.89249" lon="2.30705">
        <ele>33.2</ele>
        <time>2022-04-11T07:56:32Z</time>
      </trkpt>
      <trkpt lat="49.8925" lon="2.30703">
        <ele>33.2</ele>
        <time>2022-04-11T07:56:33Z</time>
      </trkpt>
      <trkpt lat="49.89252" lon="2.30699">
        <ele>33.2</ele>
        <time>2022-04-11T07:56:34Z</time>
      </trkpt>
      <trkpt lat="49.89252" lon="2.30698">
        <ele>33.2</ele>
        <time>2022-04-11T07:56:35Z</time>
      </trkpt>
      <trkpt lat="49.89254" lon="2.30695">
        <ele>33.3</ele>
        <time>2022-04-11T07:56:36Z</time>
      </trkpt>
      <trkpt lat="49.89256" lon="2.30693">
        <ele>33.3</ele>
        <time>2022-04-11T07:56:38Z</time>
      </trkpt>
      <trkpt lat="49.89258" lon="2.30689">
        <ele>33.3</ele>
        <time>2022-04-11T07:56:39Z</time>
      </trkpt>
      <trkpt lat="49.89258" lon="2.30688">
        <ele>33.3</ele>
        <time>2022-04-11T07:56:40Z</time>
      </trkpt>
      <trkpt lat="49.89261" lon="2.30684">
        <ele>33.4</ele>
        <time>2022-04-11T07:56:41Z</time>
      </trkpt>
      <trkpt lat="49.89261" lon="2.30683">
        <ele>33.4</ele>
        <time>2022-04-11T07:56:42Z</time>
      </trkpt>
      <trkpt lat="49.89263" lon="2.3068">
        <ele>33.4</ele>
        <time>2022-04-11T07:56:43Z</time>
      </trkpt>
      <trkpt lat="49.89266" lon="2.30677">
        <ele>33.4</ele>
        <time>2022-04-11T07:56:44Z</time>
      </trkpt>
      <trkpt lat="49.89268" lon="2.30675">
        <ele>33.5</ele>
        <time>2022-04-11T07:56:45Z</time>
      </trkpt>
      <trkpt lat="49.89271" lon="2.30672">
        <ele>33.5</ele>
        <time>2022-04-11T07:56:46Z</time>
      </trkpt>
      <trkpt lat="49.89275" lon="2.3067">
        <ele>33.6</ele>
        <time>2022-04-11T07:56:48Z</time>
      </trkpt>
      <trkpt lat="49.89279" lon="2.30667">
        <ele>33.6</ele>
        <time>2022-04-11T07:56:49Z</time>
      </trkpt>
      <trkpt lat="49.89281" lon="2.30664">
        <ele>33.6</ele>
        <time>2022-04-11T07:56:50Z</time>
      </trkpt>
      <trkpt lat="49.89282" lon="2.30663">
        <ele>33.7</ele>
        <time>2022-04-11T07:56:51Z</time>
      </trkpt>
      <trkpt lat="49.89284" lon="2.3066">
        <ele>33.7</ele>
        <time>2022-04-11T07:56:52Z</time>
      </trkpt>
      <trkpt lat="49.89284" lon="2.30659">
        <ele>33.7</ele>
        <time>2022-04-11T07:56:53Z</time>
      </trkpt>
      <trkpt lat="49.89287" lon="2.30656">
        <ele>33.7</ele>
        <time>2022-04-11T07:56:54Z</time>
      </trkpt>
      <trkpt lat="49.89288" lon="2.30655">
        <ele>33.7</ele>
        <time>2022-04-11T07:56:55Z</time>
      </trkpt>
      <trkpt lat="49.8929" lon="2.30653">
        <ele>33.8</ele>
        <time>2022-04-11T07:56:56Z</time>
      </trkpt>
      <trkpt lat="49.89291" lon="2.30651">
        <ele>33.8</ele>
        <time>2022-04-11T07:56:58Z</time>
      </trkpt>
      <trkpt lat="49.89294" lon="2.30647">
        <ele>33.8</ele>
        <time>2022-04-11T07:56:59Z</time>
      </trkpt>
      <trkpt lat="49.89295" lon="2.30646">
        <ele>33.8</ele>
        <time>2022-04-11T07:57:00Z</time>
      </trkpt>
      <trkpt lat="49.89297" lon="2.30641">
        <ele>33.9</ele>
        <time>2022-04-11T07:57:01Z</time>
      </trkpt>
      <trkpt lat="49.89297" lon="2.3064">
        <ele>33.9</ele>
        <time>2022-04-11T07:57:02Z</time>
      </trkpt>
      <trkpt lat="49.89299" lon="2.30636">
        <ele>33.9</ele>
        <time>2022-04-11T07:57:03Z</time>
      </trkpt>
      <trkpt lat="49.89299" lon="2.30635">
        <ele>33.9</ele>
        <time>2022-04-11T07:57:04Z</time>
      </trkpt>
      <trkpt lat="49.89301" lon="2.30631">
        <ele>34</ele>
        <time>2022-04-11T07:57:05Z</time>
      </trkpt>
      <trkpt lat="49.89301" lon="2.30629">
        <ele>34</ele>
        <time>2022-04-11T07:57:06Z</time>
      </trkpt>
      <trkpt lat="49.89301" lon="2.30628">
        <ele>34</ele>
        <time>2022-04-11T07:57:08Z</time>
      </trkpt>
      <trkpt lat="49.89302" lon="2.30626">
        <ele>34</ele>
        <time>2022-04-11T07:57:09Z</time>
      </trkpt>
      <trkpt lat="49.89302" lon="2.30625">
        <ele>34</ele>
        <time>2022-04-11T07:57:10Z</time>
      </trkpt>
      <trkpt lat="49.89302" lon="2.30621">
        <ele>34</ele>
        <time>2022-04-11T07:57:11Z</time>
      </trkpt>
      <trkpt lat="49.89302" lon="2.3062">
        <ele>34.1</ele>
        <time>2022-04-11T07:57:12Z</time>
      </trkpt>
      <trkpt lat="49.89302" lon="2.30619">
        <ele>34.1</ele>
        <time>2022-04-11T07:57:13Z</time>
      </trkpt>
      <trkpt lat="49.89301" lon="2.30617">
        <ele>34.1</ele>
        <time>2022-04-11T07:57:14Z</time>
      </trkpt>
      <trkpt lat="49.89301" lon="2.30614">
        <ele>34.1</ele>
        <time>2022-04-11T07:57:15Z</time>
      </trkpt>
      <trkpt lat="49.89301" lon="2.3061">
        <ele>34.1</ele>
        <time>2022-04-11T07:57:17Z</time>
      </trkpt>
      <trkpt lat="49.893" lon="2.30605">
        <ele>34.1</ele>
        <time>2022-04-11T07:57:18Z</time>
      </trkpt>
      <trkpt lat="49.89299" lon="2.30603">
        <ele>34.2</ele>
        <time>2022-04-11T07:57:20Z</time>
      </trkpt>
      <trkpt lat="49.89299" lon="2.306">
        <ele>34.2</ele>
        <time>2022-04-11T07:57:21Z</time>
      </trkpt>
      <trkpt lat="49.89299" lon="2.30598">
        <ele>34.2</ele>
        <time>2022-04-11T07:57:22Z</time>
      </trkpt>
      <trkpt lat="49.89299" lon="2.30595">
        <ele>34.2</ele>
        <time>2022-04-11T07:57:23Z</time>
      </trkpt>
      <trkpt lat="49.89298" lon="2.30593">
        <ele>34.2</ele>
        <time>2022-04-11T07:57:24Z</time>
      </trkpt>
      <trkpt lat="49.89298" lon="2.3059">
        <ele>34.2</ele>
        <time>2022-04-11T07:57:25Z</time>
      </trkpt>
      <trkpt lat="49.89297" lon="2.30588">
        <ele>34.3</ele>
        <time>2022-04-11T07:57:26Z</time>
      </trkpt>
      <trkpt lat="49.89297" lon="2.30585">
        <ele>34.3</ele>
        <time>2022-04-11T07:57:27Z</time>
      </trkpt>
      <trkpt lat="49.89297" lon="2.30583">
        <ele>34.3</ele>
        <time>2022-04-11T07:57:28Z</time>
      </trkpt>
      <trkpt lat="49.89296" lon="2.3058">
        <ele>34.3</ele>
        <time>2022-04-11T07:57:30Z</time>
      </trkpt>
      <trkpt lat="49.89296" lon="2.30578">
        <ele>34.3</ele>
        <time>2022-04-11T07:57:31Z</time>
      </trkpt>
      <trkpt lat="49.89297" lon="2.30575">
        <ele>34.2</ele>
        <time>2022-04-11T07:57:32Z</time>
      </trkpt>
      <trkpt lat="49.89297" lon="2.30573">
        <ele>34.2</ele>
        <time>2022-04-11T07:57:33Z</time>
      </trkpt>
      <trkpt lat="49.89297" lon="2.30572">
        <ele>34.2</ele>
        <time>2022-04-11T07:57:34Z</time>
      </trkpt>
      <trkpt lat="49.89297" lon="2.30571">
        <ele>34.2</ele>
        <time>2022-04-11T07:57:35Z</time>
      </trkpt>
      <trkpt lat="49.89298" lon="2.30569">
        <ele>34.2</ele>
        <time>2022-04-11T07:57:36Z</time>
      </trkpt>
      <trkpt lat="49.89299" lon="2.30567">
        <ele>34.2</ele>
        <time>2022-04-11T07:57:37Z</time>
      </trkpt>
      <trkpt lat="49.893" lon="2.30564">
        <ele>34.2</ele>
        <time>2022-04-11T07:57:38Z</time>
      </trkpt>
      <trkpt lat="49.89301" lon="2.30563">
        <ele>34.2</ele>
        <time>2022-04-11T07:57:40Z</time>
      </trkpt>
      <trkpt lat="49.89301" lon="2.30562">
        <ele>34.2</ele>
        <time>2022-04-11T07:57:41Z</time>
      </trkpt>
      <trkpt lat="49.89303" lon="2.30561">
        <ele>34.2</ele>
        <time>2022-04-11T07:57:42Z</time>
      </trkpt>
      <trkpt lat="49.89303" lon="2.3056">
        <ele>34.2</ele>
        <time>2022-04-11T07:57:43Z</time>
      </trkpt>
      <trkpt lat="49.89303" lon="2.3056">
        <ele>34.2</ele>
        <time>2022-04-11T07:57:45Z</time>
      </trkpt>
      <trkpt lat="49.89304" lon="2.30559">
        <ele>34.2</ele>
        <time>2022-04-11T07:57:46Z</time>
      </trkpt>
      <trkpt lat="49.89304" lon="2.30559">
        <ele>34.2</ele>
        <time>2022-04-11T07:57:47Z</time>
      </trkpt>
      <trkpt lat="49.89305" lon="2.30557">
        <ele>34.2</ele>
        <time>2022-04-11T07:57:48Z</time>
      </trkpt>
      <trkpt lat="49.89306" lon="2.30556">
        <ele>34.2</ele>
        <time>2022-04-11T07:57:49Z</time>
      </trkpt>
      <trkpt lat="49.89307" lon="2.30555">
        <ele>34.2</ele>
        <time>2022-04-11T07:57:50Z</time>
      </trkpt>
      <trkpt lat="49.89308" lon="2.30552">
        <ele>34.2</ele>
        <time>2022-04-11T07:57:51Z</time>
      </trkpt>
      <trkpt lat="49.89309" lon="2.30551">
        <ele>34.2</ele>
        <time>2022-04-11T07:57:52Z</time>
      </trkpt>
      <trkpt lat="49.89309" lon="2.3055">
        <ele>34.2</ele>
        <time>2022-04-11T07:57:53Z</time>
      </trkpt>
      <trkpt lat="49.8931" lon="2.30549">
        <ele>34.2</ele>
        <time>2022-04-11T07:57:54Z</time>
      </trkpt>
      <trkpt lat="49.89311" lon="2.30547">
        <ele>34.2</ele>
        <time>2022-04-11T07:57:55Z</time>
      </trkpt>
      <trkpt lat="49.89312" lon="2.30545">
        <ele>34.2</ele>
        <time>2022-04-11T07:57:56Z</time>
      </trkpt>
      <trkpt lat="49.89313" lon="2.30544">
        <ele>34.2</ele>
        <time>2022-04-11T07:57:57Z</time>
      </trkpt>
      <trkpt lat="49.89313" lon="2.30543">
        <ele>34.2</ele>
        <time>2022-04-11T07:57:59Z</time>
      </trkpt>
      <trkpt lat="49.89314" lon="2.30541">
        <ele>34.2</ele>
        <time>2022-04-11T07:58:00Z</time>
      </trkpt>
      <trkpt lat="49.89314" lon="2.3054">
        <ele>34.2</ele>
        <time>2022-04-11T07:58:01Z</time>
      </trkpt>
      <trkpt lat="49.89314" lon="2.30542">
        <ele>34.3</ele>
        <time>2022-04-11T07:58:02Z</time>
      </trkpt>
      <trkpt lat="49.89314" lon="2.30542">
        <ele>34.3</ele>
        <time>2022-04-11T07:58:03Z</time>
      </trkpt>
      <trkpt lat="49.89315" lon="2.30541">
        <ele>34.3</ele>
        <time>2022-04-11T07:58:04Z</time>
      </trkpt>
      <trkpt lat="49.89316" lon="2.3054">
        <ele>34.3</ele>
        <time>2022-04-11T07:58:05Z</time>
      </trkpt>
      <trkpt lat="49.89316" lon="2.30538">
        <ele>34.3</ele>
        <time>2022-04-11T07:58:06Z</time>
      </trkpt>
      <trkpt lat="49.89317" lon="2.30537">
        <ele>34.3</ele>
        <time>2022-04-11T07:58:07Z</time>
      </trkpt>
      <trkpt lat="49.89317" lon="2.30536">
        <ele>34.3</ele>
        <time>2022-04-11T07:58:08Z</time>
      </trkpt>
      <trkpt lat="49.89318" lon="2.30534">
        <ele>34.3</ele>
        <time>2022-04-11T07:58:10Z</time>
      </trkpt>
      <trkpt lat="49.89319" lon="2.30533">
        <ele>34.3</ele>
        <time>2022-04-11T07:58:11Z</time>
      </trkpt>
      <trkpt lat="49.89319" lon="2.30531">
        <ele>34.3</ele>
        <time>2022-04-11T07:58:12Z</time>
      </trkpt>
      <trkpt lat="49.8932" lon="2.30531">
        <ele>34.3</ele>
        <time>2022-04-11T07:58:13Z</time>
      </trkpt>
      <trkpt lat="49.89321" lon="2.3053">
        <ele>34.3</ele>
        <time>2022-04-11T07:58:14Z</time>
      </trkpt>
      <trkpt lat="49.89322" lon="2.30529">
        <ele>34.3</ele>
        <time>2022-04-11T07:58:15Z</time>
      </trkpt>
      <trkpt lat="49.89322" lon="2.30528">
        <ele>34.3</ele>
        <time>2022-04-11T07:58:16Z</time>
      </trkpt>
      <trkpt lat="49.89323" lon="2.30528">
        <ele>34.3</ele>
        <time>2022-04-11T07:58:17Z</time>
      </trkpt>
      <trkpt lat="49.89324" lon="2.30528">
        <ele>34.4</ele>
        <time>2022-04-11T07:58:18Z</time>
      </trkpt>
      <trkpt lat="49.89324" lon="2.30526">
        <ele>34.4</ele>
        <time>2022-04-11T07:58:19Z</time>
      </trkpt>
      <trkpt lat="49.89325" lon="2.30525">
        <ele>34.4</ele>
        <time>2022-04-11T07:58:21Z</time>
      </trkpt>
      <trkpt lat="49.89326" lon="2.30524">
        <ele>34.4</ele>
        <time>2022-04-11T07:58:22Z</time>
      </trkpt>
      <trkpt lat="49.89326" lon="2.30523">
        <ele>34.4</ele>
        <time>2022-04-11T07:58:23Z</time>
      </trkpt>
      <trkpt lat="49.89327" lon="2.30522">
        <ele>34.4</ele>
        <time>2022-04-11T07:58:24Z</time>
      </trkpt>
      <trkpt lat="49.89328" lon="2.30521">
        <ele>34.4</ele>
        <time>2022-04-11T07:58:25Z</time>
      </trkpt>
      <trkpt lat="49.89329" lon="2.3052">
        <ele>34.4</ele>
        <time>2022-04-11T07:58:26Z</time>
      </trkpt>
      <trkpt lat="49.89329" lon="2.30519">
        <ele>34.4</ele>
        <time>2022-04-11T07:58:27Z</time>
      </trkpt>
      <trkpt lat="49.8933" lon="2.30518">
        <ele>34.4</ele>
        <time>2022-04-11T07:58:29Z</time>
      </trkpt>
      <trkpt lat="49.89331" lon="2.30517">
        <ele>34.4</ele>
        <time>2022-04-11T07:58:30Z</time>
      </trkpt>
      <trkpt lat="49.89331" lon="2.30516">
        <ele>34.5</ele>
        <time>2022-04-11T07:58:31Z</time>
      </trkpt>
      <trkpt lat="49.89332" lon="2.30513">
        <ele>34.5</ele>
        <time>2022-04-11T07:58:33Z</time>
      </trkpt>
      <trkpt lat="49.89333" lon="2.30512">
        <ele>34.5</ele>
        <time>2022-04-11T07:58:34Z</time>
      </trkpt>
      <trkpt lat="49.89334" lon="2.3051">
        <ele>34.5</ele>
        <time>2022-04-11T07:58:35Z</time>
      </trkpt>
      <trkpt lat="49.89335" lon="2.30508">
        <ele>34.5</ele>
        <time>2022-04-11T07:58:36Z</time>
      </trkpt>
      <trkpt lat="49.89335" lon="2.30507">
        <ele>34.5</ele>
        <time>2022-04-11T07:58:38Z</time>
      </trkpt>
      <trkpt lat="49.89336" lon="2.30506">
        <ele>34.5</ele>
        <time>2022-04-11T07:58:39Z</time>
      </trkpt>
      <trkpt lat="49.89337" lon="2.30505">
        <ele>34.5</ele>
        <time>2022-04-11T07:58:40Z</time>
      </trkpt>
      <trkpt lat="49.89337" lon="2.30504">
        <ele>34.5</ele>
        <time>2022-04-11T07:58:41Z</time>
      </trkpt>
      <trkpt lat="49.89339" lon="2.30501">
        <ele>34.5</ele>
        <time>2022-04-11T07:58:42Z</time>
      </trkpt>
      <trkpt lat="49.89339" lon="2.305">
        <ele>34.5</ele>
        <time>2022-04-11T07:58:43Z</time>
      </trkpt>
      <trkpt lat="49.8934" lon="2.30499">
        <ele>34.6</ele>
        <time>2022-04-11T07:58:44Z</time>
      </trkpt>
      <trkpt lat="49.89341" lon="2.30496">
        <ele>34.6</ele>
        <time>2022-04-11T07:58:45Z</time>
      </trkpt>
      <trkpt lat="49.89342" lon="2.30495">
        <ele>34.6</ele>
        <time>2022-04-11T07:58:47Z</time>
      </trkpt>
      <trkpt lat="49.89342" lon="2.30494">
        <ele>34.6</ele>
        <time>2022-04-11T07:58:48Z</time>
      </trkpt>
      <trkpt lat="49.89343" lon="2.30491">
        <ele>34.6</ele>
        <time>2022-04-11T07:58:49Z</time>
      </trkpt>
      <trkpt lat="49.89344" lon="2.3049">
        <ele>34.6</ele>
        <time>2022-04-11T07:58:50Z</time>
      </trkpt>
      <trkpt lat="49.89344" lon="2.30489">
        <ele>34.6</ele>
        <time>2022-04-11T07:58:51Z</time>
      </trkpt>
      <trkpt lat="49.89345" lon="2.30486">
        <ele>34.6</ele>
        <time>2022-04-11T07:58:52Z</time>
      </trkpt>
      <trkpt lat="49.89346" lon="2.30485">
        <ele>34.6</ele>
        <time>2022-04-11T07:58:54Z</time>
      </trkpt>
      <trkpt lat="49.89346" lon="2.30483">
        <ele>34.6</ele>
        <time>2022-04-11T07:58:55Z</time>
      </trkpt>
      <trkpt lat="49.89347" lon="2.3048">
        <ele>34.6</ele>
        <time>2022-04-11T07:58:56Z</time>
      </trkpt>
      <trkpt lat="49.89347" lon="2.30479">
        <ele>34.6</ele>
        <time>2022-04-11T07:58:57Z</time>
      </trkpt>
      <trkpt lat="49.89347" lon="2.30478">
        <ele>34.6</ele>
        <time>2022-04-11T07:58:58Z</time>
      </trkpt>
      <trkpt lat="49.89348" lon="2.30476">
        <ele>34.6</ele>
        <time>2022-04-11T07:58:59Z</time>
      </trkpt>
      <trkpt lat="49.89348" lon="2.30474">
        <ele>34.6</ele>
        <time>2022-04-11T07:59:00Z</time>
      </trkpt>
      <trkpt lat="49.89349" lon="2.30471">
        <ele>34.6</ele>
        <time>2022-04-11T07:59:01Z</time>
      </trkpt>
      <trkpt lat="49.89349" lon="2.30469">
        <ele>34.6</ele>
        <time>2022-04-11T07:59:03Z</time>
      </trkpt>
      <trkpt lat="49.89349" lon="2.30468">
        <ele>34.6</ele>
        <time>2022-04-11T07:59:04Z</time>
      </trkpt>
      <trkpt lat="49.89348" lon="2.30465">
        <ele>34.6</ele>
        <time>2022-04-11T07:59:05Z</time>
      </trkpt>
      <trkpt lat="49.89348" lon="2.30463">
        <ele>34.6</ele>
        <time>2022-04-11T07:59:06Z</time>
      </trkpt>
      <trkpt lat="49.89348" lon="2.30458">
        <ele>34.6</ele>
        <time>2022-04-11T07:59:08Z</time>
      </trkpt>
      <trkpt lat="49.89349" lon="2.30457">
        <ele>34.6</ele>
        <time>2022-04-11T07:59:09Z</time>
      </trkpt>
      <trkpt lat="49.89349" lon="2.30454">
        <ele>34.6</ele>
        <time>2022-04-11T07:59:10Z</time>
      </trkpt>
      <trkpt lat="49.89349" lon="2.30451">
        <ele>34.6</ele>
        <time>2022-04-11T07:59:11Z</time>
      </trkpt>
      <trkpt lat="49.89348" lon="2.30446">
        <ele>34.6</ele>
        <time>2022-04-11T07:59:12Z</time>
      </trkpt>
      <trkpt lat="49.89348" lon="2.30445">
        <ele>34.6</ele>
        <time>2022-04-11T07:59:13Z</time>
      </trkpt>
      <trkpt lat="49.89349" lon="2.30441">
        <ele>34.7</ele>
        <time>2022-04-11T07:59:14Z</time>
      </trkpt>
      <trkpt lat="49.89349" lon="2.30439">
        <ele>34.7</ele>
        <time>2022-04-11T07:59:15Z</time>
      </trkpt>
      <trkpt lat="49.89349" lon="2.30435">
        <ele>34.7</ele>
        <time>2022-04-11T07:59:17Z</time>
      </trkpt>
      <trkpt lat="49.89349" lon="2.30433">
        <ele>34.7</ele>
        <time>2022-04-11T07:59:18Z</time>
      </trkpt>
      <trkpt lat="49.89349" lon="2.30428">
        <ele>34.7</ele>
        <time>2022-04-11T07:59:19Z</time>
      </trkpt>
      <trkpt lat="49.89349" lon="2.30427">
        <ele>34.8</ele>
        <time>2022-04-11T07:59:20Z</time>
      </trkpt>
      <trkpt lat="49.89349" lon="2.30424">
        <ele>34.8</ele>
        <time>2022-04-11T07:59:21Z</time>
      </trkpt>
      <trkpt lat="49.89349" lon="2.30422">
        <ele>34.8</ele>
        <time>2022-04-11T07:59:22Z</time>
      </trkpt>
      <trkpt lat="49.8935" lon="2.30417">
        <ele>34.9</ele>
        <time>2022-04-11T07:59:23Z</time>
      </trkpt>
      <trkpt lat="49.8935" lon="2.30415">
        <ele>34.9</ele>
        <time>2022-04-11T07:59:24Z</time>
      </trkpt>
      <trkpt lat="49.89351" lon="2.30413">
        <ele>34.9</ele>
        <time>2022-04-11T07:59:26Z</time>
      </trkpt>
      <trkpt lat="49.89352" lon="2.3041">
        <ele>34.9</ele>
        <time>2022-04-11T07:59:27Z</time>
      </trkpt>
      <trkpt lat="49.89352" lon="2.30408">
        <ele>35</ele>
        <time>2022-04-11T07:59:28Z</time>
      </trkpt>
      <trkpt lat="49.89352" lon="2.30406">
        <ele>35</ele>
        <time>2022-04-11T07:59:29Z</time>
      </trkpt>
      <trkpt lat="49.89353" lon="2.30404">
        <ele>35</ele>
        <time>2022-04-11T07:59:30Z</time>
      </trkpt>
      <trkpt lat="49.89354" lon="2.30402">
        <ele>35</ele>
        <time>2022-04-11T07:59:31Z</time>
      </trkpt>
      <trkpt lat="49.89355" lon="2.30399">
        <ele>35.1</ele>
        <time>2022-04-11T07:59:32Z</time>
      </trkpt>
      <trkpt lat="49.89355" lon="2.30398">
        <ele>35.1</ele>
        <time>2022-04-11T07:59:33Z</time>
      </trkpt>
      <trkpt lat="49.89356" lon="2.30397">
        <ele>35.1</ele>
        <time>2022-04-11T07:59:34Z</time>
      </trkpt>
      <trkpt lat="49.89356" lon="2.30395">
        <ele>35.1</ele>
        <time>2022-04-11T07:59:36Z</time>
      </trkpt>
      <trkpt lat="49.89357" lon="2.30393">
        <ele>35.2</ele>
        <time>2022-04-11T07:59:37Z</time>
      </trkpt>
      <trkpt lat="49.89359" lon="2.3039">
        <ele>35.2</ele>
        <time>2022-04-11T07:59:38Z</time>
      </trkpt>
      <trkpt lat="49.8936" lon="2.30389">
        <ele>35.2</ele>
        <time>2022-04-11T07:59:39Z</time>
      </trkpt>
      <trkpt lat="49.89361" lon="2.30387">
        <ele>35.3</ele>
        <time>2022-04-11T07:59:40Z</time>
      </trkpt>
      <trkpt lat="49.89362" lon="2.30385">
        <ele>35.3</ele>
        <time>2022-04-11T07:59:41Z</time>
      </trkpt>
      <trkpt lat="49.89362" lon="2.30383">
        <ele>35.3</ele>
        <time>2022-04-11T07:59:42Z</time>
      </trkpt>
      <trkpt lat="49.89363" lon="2.30381">
        <ele>35.4</ele>
        <time>2022-04-11T07:59:43Z</time>
      </trkpt>
      <trkpt lat="49.89364" lon="2.30379">
        <ele>35.4</ele>
        <time>2022-04-11T07:59:45Z</time>
      </trkpt>
      <trkpt lat="49.89365" lon="2.30377">
        <ele>35.4</ele>
        <time>2022-04-11T07:59:46Z</time>
      </trkpt>
      <trkpt lat="49.89365" lon="2.30376">
        <ele>35.4</ele>
        <time>2022-04-11T07:59:47Z</time>
      </trkpt>
      <trkpt lat="49.89366" lon="2.30375">
        <ele>35.5</ele>
        <time>2022-04-11T07:59:48Z</time>
      </trkpt>
      <trkpt lat="49.89367" lon="2.30372">
        <ele>35.5</ele>
        <time>2022-04-11T07:59:49Z</time>
      </trkpt>
      <trkpt lat="49.89367" lon="2.30371">
        <ele>35.5</ele>
        <time>2022-04-11T07:59:50Z</time>
      </trkpt>
      <trkpt lat="49.89368" lon="2.30369">
        <ele>35.6</ele>
        <time>2022-04-11T07:59:51Z</time>
      </trkpt>
      <trkpt lat="49.89369" lon="2.30367">
        <ele>35.6</ele>
        <time>2022-04-11T07:59:52Z</time>
      </trkpt>
      <trkpt lat="49.8937" lon="2.30365">
        <ele>35.6</ele>
        <time>2022-04-11T07:59:54Z</time>
      </trkpt>
      <trkpt lat="49.89371" lon="2.30364">
        <ele>35.6</ele>
        <time>2022-04-11T07:59:55Z</time>
      </trkpt>
      <trkpt lat="49.89372" lon="2.30362">
        <ele>35.7</ele>
        <time>2022-04-11T07:59:56Z</time>
      </trkpt>
      <trkpt lat="49.89373" lon="2.30359">
        <ele>35.7</ele>
        <time>2022-04-11T07:59:57Z</time>
      </trkpt>
      <trkpt lat="49.89374" lon="2.30358">
        <ele>35.7</ele>
        <time>2022-04-11T07:59:58Z</time>
      </trkpt>
      <trkpt lat="49.89375" lon="2.30357">
        <ele>35.8</ele>
        <time>2022-04-11T07:59:59Z</time>
      </trkpt>
      <trkpt lat="49.89375" lon="2.30356">
        <ele>35.8</ele>
        <time>2022-04-11T08:00:00Z</time>
      </trkpt>
      <trkpt lat="49.89376" lon="2.30354">
        <ele>35.8</ele>
        <time>2022-04-11T08:00:01Z</time>
      </trkpt>
      <trkpt lat="49.89377" lon="2.30353">
        <ele>35.8</ele>
        <time>2022-04-11T08:00:02Z</time>
      </trkpt>
      <trkpt lat="49.89377" lon="2.30352">
        <ele>35.8</ele>
        <time>2022-04-11T08:00:04Z</time>
      </trkpt>
      <trkpt lat="49.89378" lon="2.30351">
        <ele>35.9</ele>
        <time>2022-04-11T08:00:05Z</time>
      </trkpt>
      <trkpt lat="49.89378" lon="2.30351">
        <ele>35.9</ele>
        <time>2022-04-11T08:00:06Z</time>
      </trkpt>
      <trkpt lat="49.89379" lon="2.30351">
        <ele>35.9</ele>
        <time>2022-04-11T08:00:07Z</time>
      </trkpt>
      <trkpt lat="49.89379" lon="2.3035">
        <ele>35.9</ele>
        <time>2022-04-11T08:00:08Z</time>
      </trkpt>
      <trkpt lat="49.89381" lon="2.30348">
        <ele>36</ele>
        <time>2022-04-11T08:00:09Z</time>
      </trkpt>
      <trkpt lat="49.89381" lon="2.30347">
        <ele>36</ele>
        <time>2022-04-11T08:00:10Z</time>
      </trkpt>
      <trkpt lat="49.89382" lon="2.30346">
        <ele>36</ele>
        <time>2022-04-11T08:00:11Z</time>
      </trkpt>
      <trkpt lat="49.89383" lon="2.30343">
        <ele>36</ele>
        <time>2022-04-11T08:00:13Z</time>
      </trkpt>
      <trkpt lat="49.89384" lon="2.30343">
        <ele>36</ele>
        <time>2022-04-11T08:00:14Z</time>
      </trkpt>
      <trkpt lat="49.89384" lon="2.30342">
        <ele>36</ele>
        <time>2022-04-11T08:00:15Z</time>
      </trkpt>
      <trkpt lat="49.89385" lon="2.3034">
        <ele>36</ele>
        <time>2022-04-11T08:00:16Z</time>
      </trkpt>
      <trkpt lat="49.89386" lon="2.30339">
        <ele>36</ele>
        <time>2022-04-11T08:00:17Z</time>
      </trkpt>
      <trkpt lat="49.89386" lon="2.30338">
        <ele>36</ele>
        <time>2022-04-11T08:00:18Z</time>
      </trkpt>
      <trkpt lat="49.89386" lon="2.30337">
        <ele>36</ele>
        <time>2022-04-11T08:00:19Z</time>
      </trkpt>
      <trkpt lat="49.89387" lon="2.30335">
        <ele>36</ele>
        <time>2022-04-11T08:00:20Z</time>
      </trkpt>
      <trkpt lat="49.89387" lon="2.30334">
        <ele>36</ele>
        <time>2022-04-11T08:00:21Z</time>
      </trkpt>
      <trkpt lat="49.89388" lon="2.30332">
        <ele>36.1</ele>
        <time>2022-04-11T08:00:22Z</time>
      </trkpt>
      <trkpt lat="49.89388" lon="2.30331">
        <ele>36.1</ele>
        <time>2022-04-11T08:00:24Z</time>
      </trkpt>
      <trkpt lat="49.89389" lon="2.30329">
        <ele>36.1</ele>
        <time>2022-04-11T08:00:25Z</time>
      </trkpt>
      <trkpt lat="49.8939" lon="2.30326">
        <ele>36.1</ele>
        <time>2022-04-11T08:00:26Z</time>
      </trkpt>
      <trkpt lat="49.8939" lon="2.30325">
        <ele>36.1</ele>
        <time>2022-04-11T08:00:28Z</time>
      </trkpt>
      <trkpt lat="49.89391" lon="2.30323">
        <ele>36.1</ele>
        <time>2022-04-11T08:00:29Z</time>
      </trkpt>
      <trkpt lat="49.89391" lon="2.30322">
        <ele>36.1</ele>
        <time>2022-04-11T08:00:30Z</time>
      </trkpt>
      <trkpt lat="49.89392" lon="2.3032">
        <ele>36.1</ele>
        <time>2022-04-11T08:00:31Z</time>
      </trkpt>
      <trkpt lat="49.89392" lon="2.30319">
        <ele>36.2</ele>
        <time>2022-04-11T08:00:32Z</time>
      </trkpt>
      <trkpt lat="49.89392" lon="2.30318">
        <ele>36.2</ele>
        <time>2022-04-11T08:00:33Z</time>
      </trkpt>
      <trkpt lat="49.89392" lon="2.30317">
        <ele>36.2</ele>
        <time>2022-04-11T08:00:34Z</time>
      </trkpt>
      <trkpt lat="49.89392" lon="2.30315">
        <ele>36.2</ele>
        <time>2022-04-11T08:00:35Z</time>
      </trkpt>
      <trkpt lat="49.89393" lon="2.30314">
        <ele>36.2</ele>
        <time>2022-04-11T08:00:36Z</time>
      </trkpt>
      <trkpt lat="49.89393" lon="2.30312">
        <ele>36.2</ele>
        <time>2022-04-11T08:00:38Z</time>
      </trkpt>
      <trkpt lat="49.89393" lon="2.3031">
        <ele>36.2</ele>
        <time>2022-04-11T08:00:39Z</time>
      </trkpt>
      <trkpt lat="49.89394" lon="2.30307">
        <ele>36.2</ele>
        <time>2022-04-11T08:00:40Z</time>
      </trkpt>
      <trkpt lat="49.89394" lon="2.30306">
        <ele>36.2</ele>
        <time>2022-04-11T08:00:41Z</time>
      </trkpt>
      <trkpt lat="49.89395" lon="2.30305">
        <ele>36.2</ele>
        <time>2022-04-11T08:00:42Z</time>
      </trkpt>
      <trkpt lat="49.89396" lon="2.30303">
        <ele>36.3</ele>
        <time>2022-04-11T08:00:43Z</time>
      </trkpt>
      <trkpt lat="49.89397" lon="2.30301">
        <ele>36.3</ele>
        <time>2022-04-11T08:00:44Z</time>
      </trkpt>
      <trkpt lat="49.89398" lon="2.30297">
        <ele>36.3</ele>
        <time>2022-04-11T08:00:45Z</time>
      </trkpt>
      <trkpt lat="49.89399" lon="2.30295">
        <ele>36.3</ele>
        <time>2022-04-11T08:00:47Z</time>
      </trkpt>
      <trkpt lat="49.89399" lon="2.30294">
        <ele>36.3</ele>
        <time>2022-04-11T08:00:48Z</time>
      </trkpt>
      <trkpt lat="49.894" lon="2.30292">
        <ele>36.3</ele>
        <time>2022-04-11T08:00:49Z</time>
      </trkpt>
      <trkpt lat="49.89402" lon="2.30288">
        <ele>36.4</ele>
        <time>2022-04-11T08:00:50Z</time>
      </trkpt>
      <trkpt lat="49.89403" lon="2.30287">
        <ele>36.4</ele>
        <time>2022-04-11T08:00:51Z</time>
      </trkpt>
      <trkpt lat="49.89404" lon="2.30283">
        <ele>36.6</ele>
        <time>2022-04-11T08:00:52Z</time>
      </trkpt>
      <trkpt lat="49.89405" lon="2.3028">
        <ele>36.6</ele>
        <time>2022-04-11T08:00:53Z</time>
      </trkpt>
      <trkpt lat="49.89407" lon="2.30277">
        <ele>36.6</ele>
        <time>2022-04-11T08:00:55Z</time>
      </trkpt>
      <trkpt lat="49.89408" lon="2.30272">
        <ele>36.7</ele>
        <time>2022-04-11T08:00:56Z</time>
      </trkpt>
      <trkpt lat="49.89409" lon="2.30271">
        <ele>36.7</ele>
        <time>2022-04-11T08:00:57Z</time>
      </trkpt>
      <trkpt lat="49.8941" lon="2.30267">
        <ele>36.7</ele>
        <time>2022-04-11T08:00:58Z</time>
      </trkpt>
      <trkpt lat="49.89411" lon="2.30264">
        <ele>36.7</ele>
        <time>2022-04-11T08:00:59Z</time>
      </trkpt>
      <trkpt lat="49.89412" lon="2.30261">
        <ele>36.7</ele>
        <time>2022-04-11T08:01:01Z</time>
      </trkpt>
      <trkpt lat="49.89412" lon="2.30259">
        <ele>36.7</ele>
        <time>2022-04-11T08:01:02Z</time>
      </trkpt>
      <trkpt lat="49.89413" lon="2.30257">
        <ele>36.7</ele>
        <time>2022-04-11T08:01:03Z</time>
      </trkpt>
      <trkpt lat="49.89414" lon="2.30255">
        <ele>36.7</ele>
        <time>2022-04-11T08:01:04Z</time>
      </trkpt>
      <trkpt lat="49.89415" lon="2.30253">
        <ele>36.7</ele>
        <time>2022-04-11T08:01:05Z</time>
      </trkpt>
      <trkpt lat="49.89416" lon="2.30251">
        <ele>36.7</ele>
        <time>2022-04-11T08:01:06Z</time>
      </trkpt>
      <trkpt lat="49.89417" lon="2.30249">
        <ele>36.7</ele>
        <time>2022-04-11T08:01:07Z</time>
      </trkpt>
      <trkpt lat="49.89418" lon="2.30247">
        <ele>36.7</ele>
        <time>2022-04-11T08:01:09Z</time>
      </trkpt>
      <trkpt lat="49.89419" lon="2.30246">
        <ele>36.7</ele>
        <time>2022-04-11T08:01:10Z</time>
      </trkpt>
      <trkpt lat="49.8942" lon="2.30245">
        <ele>36.7</ele>
        <time>2022-04-11T08:01:11Z</time>
      </trkpt>
      <trkpt lat="49.89421" lon="2.30242">
        <ele>36.7</ele>
        <time>2022-04-11T08:01:12Z</time>
      </trkpt>
      <trkpt lat="49.89422" lon="2.30241">
        <ele>36.7</ele>
        <time>2022-04-11T08:01:13Z</time>
      </trkpt>
      <trkpt lat="49.89422" lon="2.3024">
        <ele>36.7</ele>
        <time>2022-04-11T08:01:14Z</time>
      </trkpt>
      <trkpt lat="49.89423" lon="2.30238">
        <ele>36.7</ele>
        <time>2022-04-11T08:01:15Z</time>
      </trkpt>
      <trkpt lat="49.89424" lon="2.30237">
        <ele>36.7</ele>
        <time>2022-04-11T08:01:16Z</time>
      </trkpt>
      <trkpt lat="49.89425" lon="2.30235">
        <ele>36.7</ele>
        <time>2022-04-11T08:01:18Z</time>
      </trkpt>
      <trkpt lat="49.89426" lon="2.30234">
        <ele>36.7</ele>
        <time>2022-04-11T08:01:19Z</time>
      </trkpt>
      <trkpt lat="49.89428" lon="2.30231">
        <ele>36.7</ele>
        <time>2022-04-11T08:01:20Z</time>
      </trkpt>
      <trkpt lat="49.89428" lon="2.3023">
        <ele>36.7</ele>
        <time>2022-04-11T08:01:21Z</time>
      </trkpt>
      <trkpt lat="49.89429" lon="2.30229">
        <ele>36.7</ele>
        <time>2022-04-11T08:01:22Z</time>
      </trkpt>
      <trkpt lat="49.89431" lon="2.30228">
        <ele>36.7</ele>
        <time>2022-04-11T08:01:23Z</time>
      </trkpt>
      <trkpt lat="49.89432" lon="2.30227">
        <ele>36.7</ele>
        <time>2022-04-11T08:01:24Z</time>
      </trkpt>
      <trkpt lat="49.89432" lon="2.30227">
        <ele>36.7</ele>
        <time>2022-04-11T08:01:25Z</time>
      </trkpt>
      <trkpt lat="49.89434" lon="2.30226">
        <ele>36.7</ele>
        <time>2022-04-11T08:01:27Z</time>
      </trkpt>
      <trkpt lat="49.89435" lon="2.30224">
        <ele>36.7</ele>
        <time>2022-04-11T08:01:28Z</time>
      </trkpt>
      <trkpt lat="49.89435" lon="2.30223">
        <ele>36.7</ele>
        <time>2022-04-11T08:01:29Z</time>
      </trkpt>
      <trkpt lat="49.89436" lon="2.30222">
        <ele>36.6</ele>
        <time>2022-04-11T08:01:30Z</time>
      </trkpt>
      <trkpt lat="49.89437" lon="2.30219">
        <ele>36.6</ele>
        <time>2022-04-11T08:01:31Z</time>
      </trkpt>
      <trkpt lat="49.89438" lon="2.30216">
        <ele>36.6</ele>
        <time>2022-04-11T08:01:32Z</time>
      </trkpt>
      <trkpt lat="49.89439" lon="2.30215">
        <ele>36.6</ele>
        <time>2022-04-11T08:01:33Z</time>
      </trkpt>
      <trkpt lat="49.8944" lon="2.30213">
        <ele>36.6</ele>
        <time>2022-04-11T08:01:34Z</time>
      </trkpt>
      <trkpt lat="49.89441" lon="2.30211">
        <ele>36.6</ele>
        <time>2022-04-11T08:01:36Z</time>
      </trkpt>
      <trkpt lat="49.89441" lon="2.30209">
        <ele>36.6</ele>
        <time>2022-04-11T08:01:37Z</time>
      </trkpt>
      <trkpt lat="49.89442" lon="2.30208">
        <ele>36.6</ele>
        <time>2022-04-11T08:01:38Z</time>
      </trkpt>
      <trkpt lat="49.89442" lon="2.30207">
        <ele>36.6</ele>
        <time>2022-04-11T08:01:39Z</time>
      </trkpt>
      <trkpt lat="49.89443" lon="2.30204">
        <ele>36.5</ele>
        <time>2022-04-11T08:01:40Z</time>
      </trkpt>
      <trkpt lat="49.89444" lon="2.30203">
        <ele>36.5</ele>
        <time>2022-04-11T08:01:41Z</time>
      </trkpt>
      <trkpt lat="49.89444" lon="2.30203">
        <ele>36.5</ele>
        <time>2022-04-11T08:01:42Z</time>
      </trkpt>
      <trkpt lat="49.89444" lon="2.30201">
        <ele>36.5</ele>
        <time>2022-04-11T08:01:43Z</time>
      </trkpt>
      <trkpt lat="49.89445" lon="2.30199">
        <ele>36.5</ele>
        <time>2022-04-11T08:01:45Z</time>
      </trkpt>
      <trkpt lat="49.89445" lon="2.30198">
        <ele>36.5</ele>
        <time>2022-04-11T08:01:46Z</time>
      </trkpt>
      <trkpt lat="49.89446" lon="2.30197">
        <ele>36.5</ele>
        <time>2022-04-11T08:01:47Z</time>
      </trkpt>
      <trkpt lat="49.89446" lon="2.30196">
        <ele>36.5</ele>
        <time>2022-04-11T08:01:48Z</time>
      </trkpt>
      <trkpt lat="49.89446" lon="2.30195">
        <ele>36.4</ele>
        <time>2022-04-11T08:01:49Z</time>
      </trkpt>
      <trkpt lat="49.89446" lon="2.30194">
        <ele>36.4</ele>
        <time>2022-04-11T08:01:50Z</time>
      </trkpt>
      <trkpt lat="49.89446" lon="2.30193">
        <ele>36.4</ele>
        <time>2022-04-11T08:01:51Z</time>
      </trkpt>
      <trkpt lat="49.89446" lon="2.30191">
        <ele>36.4</ele>
        <time>2022-04-11T08:01:52Z</time>
      </trkpt>
      <trkpt lat="49.89446" lon="2.3019">
        <ele>36.4</ele>
        <time>2022-04-11T08:01:54Z</time>
      </trkpt>
      <trkpt lat="49.89447" lon="2.30188">
        <ele>36.4</ele>
        <time>2022-04-11T08:01:55Z</time>
      </trkpt>
      <trkpt lat="49.89447" lon="2.30187">
        <ele>36.4</ele>
        <time>2022-04-11T08:01:56Z</time>
      </trkpt>
      <trkpt lat="49.89447" lon="2.30186">
        <ele>36.4</ele>
        <time>2022-04-11T08:01:57Z</time>
      </trkpt>
      <trkpt lat="49.89447" lon="2.30186">
        <ele>36.3</ele>
        <time>2022-04-11T08:01:58Z</time>
      </trkpt>
      <trkpt lat="49.89447" lon="2.30187">
        <ele>36.3</ele>
        <time>2022-04-11T08:01:59Z</time>
      </trkpt>
      <trkpt lat="49.89447" lon="2.30185">
        <ele>36.3</ele>
        <time>2022-04-11T08:02:00Z</time>
      </trkpt>
      <trkpt lat="49.89448" lon="2.30184">
        <ele>36.3</ele>
        <time>2022-04-11T08:02:02Z</time>
      </trkpt>
      <trkpt lat="49.89449" lon="2.30183">
        <ele>36.3</ele>
        <time>2022-04-11T08:02:03Z</time>
      </trkpt>
      <trkpt lat="49.89448" lon="2.30184">
        <ele>36.3</ele>
        <time>2022-04-11T08:02:04Z</time>
      </trkpt>
      <trkpt lat="49.89448" lon="2.30183">
        <ele>36.3</ele>
        <time>2022-04-11T08:02:05Z</time>
      </trkpt>
      <trkpt lat="49.89449" lon="2.30183">
        <ele>36.2</ele>
        <time>2022-04-11T08:02:06Z</time>
      </trkpt>
      <trkpt lat="49.8945" lon="2.30182">
        <ele>36.2</ele>
        <time>2022-04-11T08:02:07Z</time>
      </trkpt>
      <trkpt lat="49.89451" lon="2.3018">
        <ele>36.2</ele>
        <time>2022-04-11T08:02:08Z</time>
      </trkpt>
      <trkpt lat="49.89451" lon="2.30179">
        <ele>36.2</ele>
        <time>2022-04-11T08:02:09Z</time>
      </trkpt>
      <trkpt lat="49.89452" lon="2.30177">
        <ele>36.2</ele>
        <time>2022-04-11T08:02:11Z</time>
      </trkpt>
      <trkpt lat="49.89452" lon="2.30176">
        <ele>36.1</ele>
        <time>2022-04-11T08:02:12Z</time>
      </trkpt>
      <trkpt lat="49.89452" lon="2.30175">
        <ele>36.1</ele>
        <time>2022-04-11T08:02:13Z</time>
      </trkpt>
      <trkpt lat="49.89452" lon="2.30173">
        <ele>36.1</ele>
        <time>2022-04-11T08:02:14Z</time>
      </trkpt>
      <trkpt lat="49.89452" lon="2.30172">
        <ele>36.1</ele>
        <time>2022-04-11T08:02:15Z</time>
      </trkpt>
      <trkpt lat="49.89453" lon="2.30171">
        <ele>36.1</ele>
        <time>2022-04-11T08:02:16Z</time>
      </trkpt>
      <trkpt lat="49.89453" lon="2.3017">
        <ele>36</ele>
        <time>2022-04-11T08:02:17Z</time>
      </trkpt>
      <trkpt lat="49.89454" lon="2.30168">
        <ele>36</ele>
        <time>2022-04-11T08:02:19Z</time>
      </trkpt>
      <trkpt lat="49.89455" lon="2.30167">
        <ele>36</ele>
        <time>2022-04-11T08:02:20Z</time>
      </trkpt>
      <trkpt lat="49.89457" lon="2.30166">
        <ele>35.9</ele>
        <time>2022-04-11T08:02:21Z</time>
      </trkpt>
      <trkpt lat="49.89458" lon="2.30165">
        <ele>35.9</ele>
        <time>2022-04-11T08:02:22Z</time>
      </trkpt>
      <trkpt lat="49.8946" lon="2.30163">
        <ele>35.8</ele>
        <time>2022-04-11T08:02:23Z</time>
      </trkpt>
      <trkpt lat="49.8946" lon="2.30163">
        <ele>35.8</ele>
        <time>2022-04-11T08:02:25Z</time>
      </trkpt>
      <trkpt lat="49.89461" lon="2.30162">
        <ele>35.8</ele>
        <time>2022-04-11T08:02:26Z</time>
      </trkpt>
      <trkpt lat="49.89462" lon="2.30161">
        <ele>35.8</ele>
        <time>2022-04-11T08:02:27Z</time>
      </trkpt>
      <trkpt lat="49.89463" lon="2.30159">
        <ele>35.7</ele>
        <time>2022-04-11T08:02:28Z</time>
      </trkpt>
      <trkpt lat="49.89464" lon="2.30156">
        <ele>35.7</ele>
        <time>2022-04-11T08:02:29Z</time>
      </trkpt>
      <trkpt lat="49.89464" lon="2.30155">
        <ele>35.7</ele>
        <time>2022-04-11T08:02:30Z</time>
      </trkpt>
      <trkpt lat="49.89465" lon="2.30152">
        <ele>35.6</ele>
        <time>2022-04-11T08:02:31Z</time>
      </trkpt>
      <trkpt lat="49.89466" lon="2.30151">
        <ele>35.6</ele>
        <time>2022-04-11T08:02:32Z</time>
      </trkpt>
      <trkpt lat="49.89466" lon="2.30149">
        <ele>35.6</ele>
        <time>2022-04-11T08:02:33Z</time>
      </trkpt>
      <trkpt lat="49.89467" lon="2.30147">
        <ele>35.5</ele>
        <time>2022-04-11T08:02:35Z</time>
      </trkpt>
      <trkpt lat="49.89468" lon="2.30145">
        <ele>35.5</ele>
        <time>2022-04-11T08:02:36Z</time>
      </trkpt>
      <trkpt lat="49.89468" lon="2.30143">
        <ele>35.5</ele>
        <time>2022-04-11T08:02:37Z</time>
      </trkpt>
      <trkpt lat="49.89469" lon="2.3014">
        <ele>35.4</ele>
        <time>2022-04-11T08:02:38Z</time>
      </trkpt>
      <trkpt lat="49.8947" lon="2.30138">
        <ele>35.4</ele>
        <time>2022-04-11T08:02:39Z</time>
      </trkpt>
      <trkpt lat="49.8947" lon="2.30136">
        <ele>35.4</ele>
        <time>2022-04-11T08:02:40Z</time>
      </trkpt>
      <trkpt lat="49.89472" lon="2.30132">
        <ele>35.3</ele>
        <time>2022-04-11T08:02:41Z</time>
      </trkpt>
      <trkpt lat="49.89473" lon="2.3013">
        <ele>35.3</ele>
        <time>2022-04-11T08:02:43Z</time>
      </trkpt>
      <trkpt lat="49.89474" lon="2.30128">
        <ele>35.3</ele>
        <time>2022-04-11T08:02:44Z</time>
      </trkpt>
      <trkpt lat="49.89475" lon="2.30126">
        <ele>35.2</ele>
        <time>2022-04-11T08:02:45Z</time>
      </trkpt>
      <trkpt lat="49.89475" lon="2.30123">
        <ele>35.1</ele>
        <time>2022-04-11T08:02:46Z</time>
      </trkpt>
      <trkpt lat="49.89476" lon="2.30121">
        <ele>35.1</ele>
        <time>2022-04-11T08:02:47Z</time>
      </trkpt>
      <trkpt lat="49.89477" lon="2.30119">
        <ele>35.1</ele>
        <time>2022-04-11T08:02:48Z</time>
      </trkpt>
      <trkpt lat="49.89477" lon="2.30118">
        <ele>35.1</ele>
        <time>2022-04-11T08:02:49Z</time>
      </trkpt>
      <trkpt lat="49.89477" lon="2.30114">
        <ele>35.1</ele>
        <time>2022-04-11T08:02:50Z</time>
      </trkpt>
      <trkpt lat="49.89477" lon="2.30113">
        <ele>35</ele>
        <time>2022-04-11T08:02:52Z</time>
      </trkpt>
      <trkpt lat="49.89476" lon="2.30112">
        <ele>35</ele>
        <time>2022-04-11T08:02:53Z</time>
      </trkpt>
      <trkpt lat="49.89476" lon="2.3011">
        <ele>35</ele>
        <time>2022-04-11T08:02:54Z</time>
      </trkpt>
      <trkpt lat="49.89476" lon="2.30107">
        <ele>35</ele>
        <time>2022-04-11T08:02:55Z</time>
      </trkpt>
      <trkpt lat="49.89476" lon="2.30105">
        <ele>35</ele>
        <time>2022-04-11T08:02:56Z</time>
      </trkpt>
      <trkpt lat="49.89476" lon="2.30102">
        <ele>35</ele>
        <time>2022-04-11T08:02:57Z</time>
      </trkpt>
      <trkpt lat="49.89476" lon="2.301">
        <ele>34.9</ele>
        <time>2022-04-11T08:02:59Z</time>
      </trkpt>
      <trkpt lat="49.89476" lon="2.30098">
        <ele>34.9</ele>
        <time>2022-04-11T08:03:00Z</time>
      </trkpt>
      <trkpt lat="49.89477" lon="2.30096">
        <ele>34.9</ele>
        <time>2022-04-11T08:03:01Z</time>
      </trkpt>
      <trkpt lat="49.89478" lon="2.30094">
        <ele>34.9</ele>
        <time>2022-04-11T08:03:02Z</time>
      </trkpt>
      <trkpt lat="49.89479" lon="2.30092">
        <ele>34.9</ele>
        <time>2022-04-11T08:03:03Z</time>
      </trkpt>
      <trkpt lat="49.89479" lon="2.3009">
        <ele>34.8</ele>
        <time>2022-04-11T08:03:04Z</time>
      </trkpt>
      <trkpt lat="49.8948" lon="2.30085">
        <ele>34.8</ele>
        <time>2022-04-11T08:03:05Z</time>
      </trkpt>
      <trkpt lat="49.89481" lon="2.30083">
        <ele>34.8</ele>
        <time>2022-04-11T08:03:07Z</time>
      </trkpt>
      <trkpt lat="49.89481" lon="2.30081">
        <ele>34.8</ele>
        <time>2022-04-11T08:03:08Z</time>
      </trkpt>
      <trkpt lat="49.89482" lon="2.30079">
        <ele>34.7</ele>
        <time>2022-04-11T08:03:09Z</time>
      </trkpt>
      <trkpt lat="49.89483" lon="2.30074">
        <ele>34.7</ele>
        <time>2022-04-11T08:03:10Z</time>
      </trkpt>
      <trkpt lat="49.89483" lon="2.30073">
        <ele>34.7</ele>
        <time>2022-04-11T08:03:11Z</time>
      </trkpt>
      <trkpt lat="49.89484" lon="2.30069">
        <ele>34.7</ele>
        <time>2022-04-11T08:03:12Z</time>
      </trkpt>
      <trkpt lat="49.89484" lon="2.30067">
        <ele>34.7</ele>
        <time>2022-04-11T08:03:13Z</time>
      </trkpt>
      <trkpt lat="49.89485" lon="2.30063">
        <ele>34.8</ele>
        <time>2022-04-11T08:03:15Z</time>
      </trkpt>
      <trkpt lat="49.89485" lon="2.30062">
        <ele>34.8</ele>
        <time>2022-04-11T08:03:16Z</time>
      </trkpt>
      <trkpt lat="49.89485" lon="2.30059">
        <ele>34.8</ele>
        <time>2022-04-11T08:03:17Z</time>
      </trkpt>
      <trkpt lat="49.89484" lon="2.30056">
        <ele>34.8</ele>
        <time>2022-04-11T08:03:18Z</time>
      </trkpt>
      <trkpt lat="49.89484" lon="2.30055">
        <ele>34.8</ele>
        <time>2022-04-11T08:03:19Z</time>
      </trkpt>
      <trkpt lat="49.89483" lon="2.30053">
        <ele>34.8</ele>
        <time>2022-04-11T08:03:20Z</time>
      </trkpt>
      <trkpt lat="49.89482" lon="2.3005">
        <ele>34.8</ele>
        <time>2022-04-11T08:03:21Z</time>
      </trkpt>
      <trkpt lat="49.89481" lon="2.30049">
        <ele>34.8</ele>
        <time>2022-04-11T08:03:22Z</time>
      </trkpt>
      <trkpt lat="49.89481" lon="2.30048">
        <ele>34.8</ele>
        <time>2022-04-11T08:03:23Z</time>
      </trkpt>
      <trkpt lat="49.8948" lon="2.30047">
        <ele>34.8</ele>
        <time>2022-04-11T08:03:25Z</time>
      </trkpt>
      <trkpt lat="49.8948" lon="2.30046">
        <ele>34.9</ele>
        <time>2022-04-11T08:03:26Z</time>
      </trkpt>
      <trkpt lat="49.89479" lon="2.30045">
        <ele>34.9</ele>
        <time>2022-04-11T08:03:27Z</time>
      </trkpt>
      <trkpt lat="49.89479" lon="2.30044">
        <ele>34.9</ele>
        <time>2022-04-11T08:03:28Z</time>
      </trkpt>
      <trkpt lat="49.89478" lon="2.30045">
        <ele>34.9</ele>
        <time>2022-04-11T08:03:29Z</time>
      </trkpt>
      <trkpt lat="49.89479" lon="2.30044">
        <ele>34.9</ele>
        <time>2022-04-11T08:03:30Z</time>
      </trkpt>
      <trkpt lat="49.89479" lon="2.30042">
        <ele>34.9</ele>
        <time>2022-04-11T08:03:32Z</time>
      </trkpt>
      <trkpt lat="49.8948" lon="2.3004">
        <ele>34.9</ele>
        <time>2022-04-11T08:03:33Z</time>
      </trkpt>
      <trkpt lat="49.8948" lon="2.30039">
        <ele>34.9</ele>
        <time>2022-04-11T08:03:34Z</time>
      </trkpt>
      <trkpt lat="49.89479" lon="2.30038">
        <ele>34.9</ele>
        <time>2022-04-11T08:03:35Z</time>
      </trkpt>
      <trkpt lat="49.89479" lon="2.30037">
        <ele>34.9</ele>
        <time>2022-04-11T08:03:36Z</time>
      </trkpt>
      <trkpt lat="49.89478" lon="2.30035">
        <ele>34.9</ele>
        <time>2022-04-11T08:03:38Z</time>
      </trkpt>
      <trkpt lat="49.89479" lon="2.30034">
        <ele>34.9</ele>
        <time>2022-04-11T08:03:39Z</time>
      </trkpt>
      <trkpt lat="49.89479" lon="2.30034">
        <ele>34.9</ele>
        <time>2022-04-11T08:03:40Z</time>
      </trkpt>
      <trkpt lat="49.89479" lon="2.30034">
        <ele>34.9</ele>
        <time>2022-04-11T08:03:41Z</time>
      </trkpt>
      <trkpt lat="49.89479" lon="2.30034">
        <ele>34.9</ele>
        <time>2022-04-11T08:03:42Z</time>
      </trkpt>
      <trkpt lat="49.89479" lon="2.30035">
        <ele>34.9</ele>
        <time>2022-04-11T08:03:43Z</time>
      </trkpt>
      <trkpt lat="49.8948" lon="2.30036">
        <ele>34.9</ele>
        <time>2022-04-11T08:03:44Z</time>
      </trkpt>
      <trkpt lat="49.8948" lon="2.30037">
        <ele>34.9</ele>
        <time>2022-04-11T08:03:45Z</time>
      </trkpt>
      <trkpt lat="49.8948" lon="2.30038">
        <ele>34.9</ele>
        <time>2022-04-11T08:03:46Z</time>
      </trkpt>
      <trkpt lat="49.8948" lon="2.30039">
        <ele>34.9</ele>
        <time>2022-04-11T08:03:47Z</time>
      </trkpt>
      <trkpt lat="49.89479" lon="2.3004">
        <ele>34.9</ele>
        <time>2022-04-11T08:03:48Z</time>
      </trkpt>
      <trkpt lat="49.89479" lon="2.3004">
        <ele>34.9</ele>
        <time>2022-04-11T08:03:49Z</time>
      </trkpt>
      <trkpt lat="49.89479" lon="2.30041">
        <ele>34.9</ele>
        <time>2022-04-11T08:03:50Z</time>
      </trkpt>
      <trkpt lat="49.89479" lon="2.30041">
        <ele>34.9</ele>
        <time>2022-04-11T08:03:51Z</time>
      </trkpt>
      <trkpt lat="49.89479" lon="2.30042">
        <ele>34.9</ele>
        <time>2022-04-11T08:03:52Z</time>
      </trkpt>
      <trkpt lat="49.89479" lon="2.30042">
        <ele>34.9</ele>
        <time>2022-04-11T08:03:53Z</time>
      </trkpt>
      <trkpt lat="49.89479" lon="2.30042">
        <ele>34.9</ele>
        <time>2022-04-11T08:03:54Z</time>
      </trkpt>
      <trkpt lat="49.89479" lon="2.30043">
        <ele>34.9</ele>
        <time>2022-04-11T08:03:55Z</time>
      </trkpt>
      <trkpt lat="49.89479" lon="2.30043">
        <ele>34.9</ele>
        <time>2022-04-11T08:03:56Z</time>
      </trkpt>
      <trkpt lat="49.89479" lon="2.30043">
        <ele>34.9</ele>
        <time>2022-04-11T08:03:57Z</time>
      </trkpt>
      <trkpt lat="49.89479" lon="2.30043">
        <ele>34.9</ele>
        <time>2022-04-11T08:03:58Z</time>
      </trkpt>
      <trkpt lat="49.89479" lon="2.30043">
        <ele>34.9</ele>
        <time>2022-04-11T08:03:59Z</time>
      </trkpt>
      <trkpt lat="49.89479" lon="2.30043">
        <ele>34.9</ele>
        <time>2022-04-11T08:04:00Z</time>
      </trkpt>
      <trkpt lat="49.89479" lon="2.30043">
        <ele>34.9</ele>
        <time>2022-04-11T08:04:01Z</time>
      </trkpt>
      <trkpt lat="49.89479" lon="2.30043">
        <ele>34.9</ele>
        <time>2022-04-11T08:04:02Z</time>
      </trkpt>
      <trkpt lat="49.89479" lon="2.30043">
        <ele>34.9</ele>
        <time>2022-04-11T08:04:03Z</time>
      </trkpt>
      <trkpt lat="49.89479" lon="2.30043">
        <ele>34.9</ele>
        <time>2022-04-11T08:04:04Z</time>
      </trkpt>
      <trkpt lat="49.89479" lon="2.30043">
        <ele>34.9</ele>
        <time>2022-04-11T08:04:05Z</time>
      </trkpt>
      <trkpt lat="49.89479" lon="2.30043">
        <ele>34.9</ele>
        <time>2022-04-11T08:04:06Z</time>
      </trkpt>
      <trkpt lat="49.89479" lon="2.30043">
        <ele>34.9</ele>
        <time>2022-04-11T08:04:07Z</time>
      </trkpt>
      <trkpt lat="49.89479" lon="2.30043">
        <ele>34.9</ele>
        <time>2022-04-11T08:04:08Z</time>
      </trkpt>
      <trkpt lat="49.89479" lon="2.30043">
        <ele>34.9</ele>
        <time>2022-04-11T08:04:09Z</time>
      </trkpt>
      <trkpt lat="49.89479" lon="2.30043">
        <ele>34.9</ele>
        <time>2022-04-11T08:04:10Z</time>
      </trkpt>
      <trkpt lat="49.89479" lon="2.30043">
        <ele>34.9</ele>
        <time>2022-04-11T08:04:11Z</time>
      </trkpt>
      <trkpt lat="49.89479" lon="2.30043">
        <ele>34.9</ele>
        <time>2022-04-11T08:04:12Z</time>
      </trkpt>
      <trkpt lat="49.89479" lon="2.30043">
        <ele>34.9</ele>
        <time>2022-04-11T08:04:13Z</time>
      </trkpt>
      <trkpt lat="49.89479" lon="2.30043">
        <ele>34.9</ele>
        <time>2022-04-11T08:04:14Z</time>
      </trkpt>
      <trkpt lat="49.89479" lon="2.30043">
        <ele>34.9</ele>
        <time>2022-04-11T08:04:15Z</time>
      </trkpt>
      <trkpt lat="49.89479" lon="2.30043">
        <ele>34.9</ele>
        <time>2022-04-11T08:04:16Z</time>
      </trkpt>
      <trkpt lat="49.89479" lon="2.30043">
        <ele>34.9</ele>
        <time>2022-04-11T08:04:17Z</time>
      </trkpt>
      <trkpt lat="49.89479" lon="2.30043">
        <ele>34.9</ele>
        <time>2022-04-11T08:04:18Z</time>
      </trkpt>
      <trkpt lat="49.89479" lon="2.30043">
        <ele>34.9</ele>
        <time>2022-04-11T08:04:19Z</time>
      </trkpt>
      <trkpt lat="49.89479" lon="2.30043">
        <ele>34.9</ele>
        <time>2022-04-11T08:04:20Z</time>
      </trkpt>
      <trkpt lat="49.89479" lon="2.30043">
        <ele>34.9</ele>
        <time>2022-04-11T08:04:21Z</time>
      </trkpt>
      <trkpt lat="49.89479" lon="2.30043">
        <ele>34.9</ele>
        <time>2022-04-11T08:04:22Z</time>
      </trkpt>
      <trkpt lat="49.89479" lon="2.30043">
        <ele>34.9</ele>
        <time>2022-04-11T08:04:23Z</time>
      </trkpt>
      <trkpt lat="49.89479" lon="2.30043">
        <ele>34.9</ele>
        <time>2022-04-11T08:04:24Z</time>
      </trkpt>
      <trkpt lat="49.89479" lon="2.30043">
        <ele>34.9</ele>
        <time>2022-04-11T08:04:25Z</time>
      </trkpt>
      <trkpt lat="49.89479" lon="2.30043">
        <ele>34.9</ele>
        <time>2022-04-11T08:04:26Z</time>
      </trkpt>
      <trkpt lat="49.89479" lon="2.30043">
        <ele>34.9</ele>
        <time>2022-04-11T08:04:27Z</time>
      </trkpt>
      <trkpt lat="49.89479" lon="2.30043">
        <ele>34.9</ele>
        <time>2022-04-11T08:04:28Z</time>
      </trkpt>
      <trkpt lat="49.89479" lon="2.30043">
        <ele>34.9</ele>
        <time>2022-04-11T08:04:29Z</time>
      </trkpt>
      <trkpt lat="49.89479" lon="2.30043">
        <ele>34.9</ele>
        <time>2022-04-11T08:04:30Z</time>
      </trkpt>
      <trkpt lat="49.89479" lon="2.30043">
        <ele>34.9</ele>
        <time>2022-04-11T08:04:31Z</time>
      </trkpt>
      <trkpt lat="49.89479" lon="2.30043">
        <ele>34.9</ele>
        <time>2022-04-11T08:04:32Z</time>
      </trkpt>
      <trkpt lat="49.89479" lon="2.30043">
        <ele>34.9</ele>
        <time>2022-04-11T08:04:33Z</time>
      </trkpt>
      <trkpt lat="49.89479" lon="2.30043">
        <ele>34.9</ele>
        <time>2022-04-11T08:04:34Z</time>
      </trkpt>
      <trkpt lat="49.89479" lon="2.30043">
        <ele>34.9</ele>
        <time>2022-04-11T08:04:35Z</time>
      </trkpt>
      <trkpt lat="49.89479" lon="2.30043">
        <ele>34.9</ele>
        <time>2022-04-11T08:04:36Z</time>
      </trkpt>
      <trkpt lat="49.89479" lon="2.30043">
        <ele>34.9</ele>
        <time>2022-04-11T08:04:37Z</time>
      </trkpt>
      <trkpt lat="49.89479" lon="2.30043">
        <ele>34.9</ele>
        <time>2022-04-11T08:04:38Z</time>
      </trkpt>
      <trkpt lat="49.89479" lon="2.30043">
        <ele>34.9</ele>
        <time>2022-04-11T08:04:39Z</time>
      </trkpt>
      <trkpt lat="49.89479" lon="2.30043">
        <ele>34.9</ele>
        <time>2022-04-11T08:04:40Z</time>
      </trkpt>
      <trkpt lat="49.89479" lon="2.30043">
        <ele>34.9</ele>
        <time>2022-04-11T08:04:41Z</time>
      </trkpt>
      <trkpt lat="49.89479" lon="2.30043">
        <ele>34.9</ele>
        <time>2022-04-11T08:04:42Z</time>
      </trkpt>
      <trkpt lat="49.89479" lon="2.30043">
        <ele>34.9</ele>
        <time>2022-04-11T08:04:43Z</time>
      </trkpt>
      <trkpt lat="49.89479" lon="2.30043">
        <ele>34.9</ele>
        <time>2022-04-11T08:04:44Z</time>
      </trkpt>
      <trkpt lat="49.89479" lon="2.30043">
        <ele>34.9</ele>
        <time>2022-04-11T08:04:45Z</time>
      </trkpt>
      <trkpt lat="49.89479" lon="2.30043">
        <ele>34.9</ele>
        <time>2022-04-11T08:04:46Z</time>
      </trkpt>
      <trkpt lat="49.89479" lon="2.30043">
        <ele>34.9</ele>
        <time>2022-04-11T08:04:47Z</time>
      </trkpt>
      <trkpt lat="49.89479" lon="2.30043">
        <ele>34.9</ele>
        <time>2022-04-11T08:04:48Z</time>
      </trkpt>
      <trkpt lat="49.89479" lon="2.30043">
        <ele>34.9</ele>
        <time>2022-04-11T08:04:49Z</time>
      </trkpt>
      <trkpt lat="49.89479" lon="2.30043">
        <ele>34.9</ele>
        <time>2022-04-11T08:04:50Z</time>
      </trkpt>
      <trkpt lat="49.89479" lon="2.30043">
        <ele>34.9</ele>
        <time>2022-04-11T08:04:51Z</time>
      </trkpt>
      <trkpt lat="49.89479" lon="2.30043">
        <ele>34.9</ele>
        <time>2022-04-11T08:04:52Z</time>
      </trkpt>
      <trkpt lat="49.89479" lon="2.30043">
        <ele>34.9</ele>
        <time>2022-04-11T08:04:53Z</time>
      </trkpt>
      <trkpt lat="49.89479" lon="2.30043">
        <ele>34.9</ele>
        <time>2022-04-11T08:04:54Z</time>
      </trkpt>
      <trkpt lat="49.89479" lon="2.30043">
        <ele>34.9</ele>
        <time>2022-04-11T08:04:55Z</time>
      </trkpt>
      <trkpt lat="49.89479" lon="2.30043">
        <ele>34.9</ele>
        <time>2022-04-11T08:04:56Z</time>
      </trkpt>
      <trkpt lat="49.89479" lon="2.30043">
        <ele>34.9</ele>
        <time>2022-04-11T08:04:57Z</time>
      </trkpt>
      <trkpt lat="49.89479" lon="2.30043">
        <ele>34.9</ele>
        <time>2022-04-11T08:04:58Z</time>
      </trkpt>
      <trkpt lat="49.89479" lon="2.30043">
        <ele>34.9</ele>
        <time>2022-04-11T08:04:59Z</time>
      </trkpt>
      <trkpt lat="49.89479" lon="2.30043">
        <ele>34.9</ele>
        <time>2022-04-11T08:05:00Z</time>
      </trkpt>
      <trkpt lat="49.89479" lon="2.30043">
        <ele>34.9</ele>
        <time>2022-04-11T08:05:01Z</time>
      </trkpt>
      <trkpt lat="49.89479" lon="2.30043">
        <ele>34.9</ele>
        <time>2022-04-11T08:05:02Z</time>
      </trkpt>
      <trkpt lat="49.89479" lon="2.30043">
        <ele>34.9</ele>
        <time>2022-04-11T08:05:03Z</time>
      </trkpt>
      <trkpt lat="49.89479" lon="2.30043">
        <ele>34.9</ele>
        <time>2022-04-11T08:05:04Z</time>
      </trkpt>
      <trkpt lat="49.89479" lon="2.30043">
        <ele>34.9</ele>
        <time>2022-04-11T08:05:05Z</time>
      </trkpt>
      <trkpt lat="49.89479" lon="2.30043">
        <ele>34.9</ele>
        <time>2022-04-11T08:05:06Z</time>
      </trkpt>
      <trkpt lat="49.89479" lon="2.30043">
        <ele>34.9</ele>
        <time>2022-04-11T08:05:07Z</time>
      </trkpt>
      <trkpt lat="49.89479" lon="2.30043">
        <ele>34.9</ele>
        <time>2022-04-11T08:05:08Z</time>
      </trkpt>
      <trkpt lat="49.89479" lon="2.30043">
        <ele>34.9</ele>
        <time>2022-04-11T08:05:09Z</time>
      </trkpt>
      <trkpt lat="49.89479" lon="2.30043">
        <ele>34.9</ele>
        <time>2022-04-11T08:05:10Z</time>
      </trkpt>
      <trkpt lat="49.89479" lon="2.30043">
        <ele>34.9</ele>
        <time>2022-04-11T08:05:11Z</time>
      </trkpt>
      <trkpt lat="49.89479" lon="2.30043">
        <ele>34.9</ele>
        <time>2022-04-11T08:05:12Z</time>
      </trkpt>
      <trkpt lat="49.89479" lon="2.30043">
        <ele>34.9</ele>
        <time>2022-04-11T08:05:13Z</time>
      </trkpt>
      <trkpt lat="49.89479" lon="2.30043">
        <ele>34.9</ele>
        <time>2022-04-11T08:05:14Z</time>
      </trkpt>
      <trkpt lat="49.89479" lon="2.30043">
        <ele>34.9</ele>
        <time>2022-04-11T08:05:15Z</time>
      </trkpt>
      <trkpt lat="49.89479" lon="2.30043">
        <ele>34.9</ele>
        <time>2022-04-11T08:05:16Z</time>
      </trkpt>
      <trkpt lat="49.89479" lon="2.30043">
        <ele>34.9</ele>
        <time>2022-04-11T08:05:17Z</time>
      </trkpt>
      <trkpt lat="49.89479" lon="2.30043">
        <ele>34.9</ele>
        <time>2022-04-11T08:05:18Z</time>
      </trkpt>
      <trkpt lat="49.89479" lon="2.30043">
        <ele>34.9</ele>
        <time>2022-04-11T08:05:19Z</time>
      </trkpt>
      <trkpt lat="49.89479" lon="2.30043">
        <ele>34.9</ele>
        <time>2022-04-11T08:05:20Z</time>
      </trkpt>
      <trkpt lat="49.89479" lon="2.30043">
        <ele>34.9</ele>
        <time>2022-04-11T08:05:21Z</time>
      </trkpt>
      <trkpt lat="49.89479" lon="2.30043">
        <ele>34.9</ele>
        <time>2022-04-11T08:05:22Z</time>
      </trkpt>
      <trkpt lat="49.89479" lon="2.30043">
        <ele>34.9</ele>
        <time>2022-04-11T08:05:23Z</time>
      </trkpt>
      <trkpt lat="49.89479" lon="2.30043">
        <ele>34.9</ele>
        <time>2022-04-11T08:05:24Z</time>
      </trkpt>
      <trkpt lat="49.89479" lon="2.30043">
        <ele>34.9</ele>
        <time>2022-04-11T08:05:25Z</time>
      </trkpt>
      <trkpt lat="49.89479" lon="2.30043">
        <ele>34.9</ele>
        <time>2022-04-11T08:05:26Z</time>
      </trkpt>
      <trkpt lat="49.89479" lon="2.30043">
        <ele>34.9</ele>
        <time>2022-04-11T08:05:27Z</time>
      </trkpt>
      <trkpt lat="49.89479" lon="2.30043">
        <ele>34.9</ele>
        <time>2022-04-11T08:05:28Z</time>
      </trkpt>
      <trkpt lat="49.89479" lon="2.30043">
        <ele>34.9</ele>
        <time>2022-04-11T08:05:29Z</time>
      </trkpt>
      <trkpt lat="49.89479" lon="2.30043">
        <ele>34.9</ele>
        <time>2022-04-11T08:05:30Z</time>
      </trkpt>
      <trkpt lat="49.89479" lon="2.30043">
        <ele>34.9</ele>
        <time>2022-04-11T08:05:31Z</time>
      </trkpt>
      <trkpt lat="49.89479" lon="2.30043">
        <ele>34.9</ele>
        <time>2022-04-11T08:05:32Z</time>
      </trkpt>
      <trkpt lat="49.89479" lon="2.30043">
        <ele>34.9</ele>
        <time>2022-04-11T08:05:33Z</time>
      </trkpt>
      <trkpt lat="49.89479" lon="2.30043">
        <ele>34.9</ele>
        <time>2022-04-11T08:05:34Z</time>
      </trkpt>
      <trkpt lat="49.89479" lon="2.30043">
        <ele>34.9</ele>
        <time>2022-04-11T08:05:35Z</time>
      </trkpt>
      <trkpt lat="49.89479" lon="2.30043">
        <ele>34.9</ele>
        <time>2022-04-11T08:05:36Z</time>
      </trkpt>
      <trkpt lat="49.89479" lon="2.30043">
        <ele>34.9</ele>
        <time>2022-04-11T08:05:37Z</time>
      </trkpt>
      <trkpt lat="49.89479" lon="2.30043">
        <ele>34.9</ele>
        <time>2022-04-11T08:05:38Z</time>
      </trkpt>
      <trkpt lat="49.89479" lon="2.30043">
        <ele>34.9</ele>
        <time>2022-04-11T08:05:39Z</time>
      </trkpt>
      <trkpt lat="49.89479" lon="2.30043">
        <ele>34.9</ele>
        <time>2022-04-11T08:05:40Z</time>
      </trkpt>
      <trkpt lat="49.89479" lon="2.30043">
        <ele>34.9</ele>
        <time>2022-04-11T08:05:41Z</time>
      </trkpt>
      <trkpt lat="49.89479" lon="2.30043">
        <ele>34.9</ele>
        <time>2022-04-11T08:05:42Z</time>
      </trkpt>
      <trkpt lat="49.89479" lon="2.30043">
        <ele>34.9</ele>
        <time>2022-04-11T08:05:43Z</time>
      </trkpt>
      <trkpt lat="49.89479" lon="2.30043">
        <ele>34.9</ele>
        <time>2022-04-11T08:05:44Z</time>
      </trkpt>
      <trkpt lat="49.89479" lon="2.30043">
        <ele>34.9</ele>
        <time>2022-04-11T08:05:45Z</time>
      </trkpt>
      <trkpt lat="49.89479" lon="2.30043">
        <ele>34.9</ele>
        <time>2022-04-11T08:05:46Z</time>
      </trkpt>
      <trkpt lat="49.89479" lon="2.30043">
        <ele>34.9</ele>
        <time>2022-04-11T08:05:47Z</time>
      </trkpt>
      <trkpt lat="49.89479" lon="2.30043">
        <ele>34.9</ele>
        <time>2022-04-11T08:05:48Z</time>
      </trkpt>
      <trkpt lat="49.89479" lon="2.30043">
        <ele>34.9</ele>
        <time>2022-04-11T08:05:49Z</time>
      </trkpt>
      <trkpt lat="49.89479" lon="2.30043">
        <ele>34.9</ele>
        <time>2022-04-11T08:05:50Z</time>
      </trkpt>
      <trkpt lat="49.89479" lon="2.30043">
        <ele>34.9</ele>
        <time>2022-04-11T08:05:51Z</time>
      </trkpt>
      <trkpt lat="49.89479" lon="2.30043">
        <ele>34.9</ele>
        <time>2022-04-11T08:05:52Z</time>
      </trkpt>
      <trkpt lat="49.89479" lon="2.30043">
        <ele>34.9</ele>
        <time>2022-04-11T08:05:53Z</time>
      </trkpt>
      <trkpt lat="49.89479" lon="2.30043">
        <ele>34.9</ele>
        <time>2022-04-11T08:05:54Z</time>
      </trkpt>
      <trkpt lat="49.89479" lon="2.30043">
        <ele>34.9</ele>
        <time>2022-04-11T08:05:55Z</time>
      </trkpt>
      <trkpt lat="49.89479" lon="2.30043">
        <ele>34.9</ele>
        <time>2022-04-11T08:05:56Z</time>
      </trkpt>
      <trkpt lat="49.89479" lon="2.30043">
        <ele>34.9</ele>
        <time>2022-04-11T08:05:57Z</time>
      </trkpt>
      <trkpt lat="49.89479" lon="2.30043">
        <ele>34.9</ele>
        <time>2022-04-11T08:05:58Z</time>
      </trkpt>
      <trkpt lat="49.89479" lon="2.30043">
        <ele>34.9</ele>
        <time>2022-04-11T08:05:59Z</time>
      </trkpt>
      <trkpt lat="49.89479" lon="2.30043">
        <ele>34.9</ele>
        <time>2022-04-11T08:06:00Z</time>
      </trkpt>
      <trkpt lat="49.89479" lon="2.30043">
        <ele>34.9</ele>
        <time>2022-04-11T08:06:01Z</time>
      </trkpt>
      <trkpt lat="49.89479" lon="2.30043">
        <ele>34.9</ele>
        <time>2022-04-11T08:06:02Z</time>
      </trkpt>
      <trkpt lat="49.89479" lon="2.30043">
        <ele>34.9</ele>
        <time>2022-04-11T08:06:03Z</time>
      </trkpt>
      <trkpt lat="49.89479" lon="2.30043">
        <ele>34.9</ele>
        <time>2022-04-11T08:06:04Z</time>
      </trkpt>
      <trkpt lat="49.89479" lon="2.30043">
        <ele>34.9</ele>
        <time>2022-04-11T08:06:05Z</time>
      </trkpt>
      <trkpt lat="49.89479" lon="2.30043">
        <ele>34.9</ele>
        <time>2022-04-11T08:06:06Z</time>
      </trkpt>
      <trkpt lat="49.89479" lon="2.30043">
        <ele>34.9</ele>
        <time>2022-04-11T08:06:07Z</time>
      </trkpt>
      <trkpt lat="49.89479" lon="2.30043">
        <ele>34.9</ele>
        <time>2022-04-11T08:06:08Z</time>
      </trkpt>
      <trkpt lat="49.89479" lon="2.30043">
        <ele>34.9</ele>
        <time>2022-04-11T08:06:09Z</time>
      </trkpt>
      <trkpt lat="49.89479" lon="2.30043">
        <ele>34.9</ele>
        <time>2022-04-11T08:06:10Z</time>
      </trkpt>
      <trkpt lat="49.89479" lon="2.30043">
        <ele>34.9</ele>
        <time>2022-04-11T08:06:11Z</time>
      </trkpt>
      <trkpt lat="49.89479" lon="2.30043">
        <ele>34.9</ele>
        <time>2022-04-11T08:06:12Z</time>
      </trkpt>
      <trkpt lat="49.89479" lon="2.30043">
        <ele>34.9</ele>
        <time>2022-04-11T08:06:13Z</time>
      </trkpt>
      <trkpt lat="49.89479" lon="2.30043">
        <ele>34.9</ele>
        <time>2022-04-11T08:06:14Z</time>
      </trkpt>
      <trkpt lat="49.89479" lon="2.30043">
        <ele>34.9</ele>
        <time>2022-04-11T08:06:15Z</time>
      </trkpt>
      <trkpt lat="49.89479" lon="2.30043">
        <ele>34.9</ele>
        <time>2022-04-11T08:06:16Z</time>
      </trkpt>
      <trkpt lat="49.89479" lon="2.30043">
        <ele>34.9</ele>
        <time>2022-04-11T08:06:17Z</time>
      </trkpt>
      <trkpt lat="49.89479" lon="2.30043">
        <ele>34.9</ele>
        <time>2022-04-11T08:06:18Z</time>
      </trkpt>
      <trkpt lat="49.89479" lon="2.30043">
        <ele>34.9</ele>
        <time>2022-04-11T08:06:19Z</time>
      </trkpt>
      <trkpt lat="49.89479" lon="2.30043">
        <ele>34.9</ele>
        <time>2022-04-11T08:06:20Z</time>
      </trkpt>
      <trkpt lat="49.89479" lon="2.30043">
        <ele>34.9</ele>
        <time>2022-04-11T08:06:21Z</time>
      </trkpt>
      <trkpt lat="49.89479" lon="2.30043">
        <ele>34.9</ele>
        <time>2022-04-11T08:06:22Z</time>
      </trkpt>
      <trkpt lat="49.89479" lon="2.30043">
        <ele>34.9</ele>
        <time>2022-04-11T08:06:23Z</time>
      </trkpt>
      <trkpt lat="49.89479" lon="2.30043">
        <ele>34.9</ele>
        <time>2022-04-11T08:06:24Z</time>
      </trkpt>
      <trkpt lat="49.89479" lon="2.30043">
        <ele>34.9</ele>
        <time>2022-04-11T08:06:25Z</time>
      </trkpt>
      <trkpt lat="49.89479" lon="2.30043">
        <ele>34.9</ele>
        <time>2022-04-11T08:06:26Z</time>
      </trkpt>
      <trkpt lat="49.89479" lon="2.30043">
        <ele>34.9</ele>
        <time>2022-04-11T08:06:27Z</time>
      </trkpt>
      <trkpt lat="49.89479" lon="2.30043">
        <ele>34.9</ele>
        <time>2022-04-11T08:06:28Z</time>
      </trkpt>
      <trkpt lat="49.89479" lon="2.30043">
        <ele>34.9</ele>
        <time>2022-04-11T08:06:29Z</time>
      </trkpt>
      <trkpt lat="49.89479" lon="2.30043">
        <ele>34.9</ele>
        <time>2022-04-11T08:06:30Z</time>
      </trkpt>
      <trkpt lat="49.89479" lon="2.30043">
        <ele>34.9</ele>
        <time>2022-04-11T08:06:31Z</time>
      </trkpt>
      <trkpt lat="49.89479" lon="2.30043">
        <ele>34.9</ele>
        <time>2022-04-11T08:06:32Z</time>
      </trkpt>
      <trkpt lat="49.89479" lon="2.30043">
        <ele>34.9</ele>
        <time>2022-04-11T08:06:33Z</time>
      </trkpt>
      <trkpt lat="49.89479" lon="2.30043">
        <ele>34.9</ele>
        <time>2022-04-11T08:06:34Z</time>
      </trkpt>
      <trkpt lat="49.89479" lon="2.30043">
        <ele>34.9</ele>
        <time>2022-04-11T08:06:35Z</time>
      </trkpt>
      <trkpt lat="49.89479" lon="2.30043">
        <ele>34.9</ele>
        <time>2022-04-11T08:06:36Z</time>
      </trkpt>
      <trkpt lat="49.89479" lon="2.30043">
        <ele>34.9</ele>
        <time>2022-04-11T08:06:37Z</time>
      </trkpt>
      <trkpt lat="49.89479" lon="2.30043">
        <ele>34.9</ele>
        <time>2022-04-11T08:06:38Z</time>
      </trkpt>
      <trkpt lat="49.89479" lon="2.30043">
        <ele>34.9</ele>
        <time>2022-04-11T08:06:39Z</time>
      </trkpt>
      <trkpt lat="49.89479" lon="2.30043">
        <ele>34.9</ele>
        <time>2022-04-11T08:06:40Z</time>
      </trkpt>
      <trkpt lat="49.89479" lon="2.30043">
        <ele>34.9</ele>
        <time>2022-04-11T08:06:41Z</time>
      </trkpt>
      <trkpt lat="49.89479" lon="2.30043">
        <ele>34.9</ele>
        <time>2022-04-11T08:06:42Z</time>
      </trkpt>
      <trkpt lat="49.89479" lon="2.30043">
        <ele>34.9</ele>
        <time>2022-04-11T08:06:43Z</time>
      </trkpt>
      <trkpt lat="49.89479" lon="2.30043">
        <ele>34.9</ele>
        <time>2022-04-11T08:06:44Z</time>
      </trkpt>
      <trkpt lat="49.89479" lon="2.30043">
        <ele>34.9</ele>
        <time>2022-04-11T08:06:45Z</time>
      </trkpt>
      <trkpt lat="49.89479" lon="2.30043">
        <ele>34.9</ele>
        <time>2022-04-11T08:06:46Z</time>
      </trkpt>
      <trkpt lat="49.89479" lon="2.30043">
        <ele>34.9</ele>
        <time>2022-04-11T08:06:47Z</time>
      </trkpt>
      <trkpt lat="49.8948" lon="2.30044">
        <ele>34.9</ele>
        <time>2022-04-11T08:06:48Z</time>
      </trkpt>
      <trkpt lat="49.89481" lon="2.30045">
        <ele>34.9</ele>
        <time>2022-04-11T08:06:49Z</time>
      </trkpt>
      <trkpt lat="49.89482" lon="2.30045">
        <ele>34.9</ele>
        <time>2022-04-11T08:06:50Z</time>
      </trkpt>
      <trkpt lat="49.89482" lon="2.30044">
        <ele>34.9</ele>
        <time>2022-04-11T08:06:51Z</time>
      </trkpt>
      <trkpt lat="49.89482" lon="2.30043">
        <ele>34.9</ele>
        <time>2022-04-11T08:06:52Z</time>
      </trkpt>
      <trkpt lat="49.89481" lon="2.30042">
        <ele>34.9</ele>
        <time>2022-04-11T08:06:53Z</time>
      </trkpt>
      <trkpt lat="49.89481" lon="2.3004">
        <ele>34.9</ele>
        <time>2022-04-11T08:06:54Z</time>
      </trkpt>
      <trkpt lat="49.89481" lon="2.30041">
        <ele>34.9</ele>
        <time>2022-04-11T08:06:55Z</time>
      </trkpt>
      <trkpt lat="49.89481" lon="2.30043">
        <ele>34.9</ele>
        <time>2022-04-11T08:06:56Z</time>
      </trkpt>
      <trkpt lat="49.89482" lon="2.30043">
        <ele>34.9</ele>
        <time>2022-04-11T08:06:57Z</time>
      </trkpt>
      <trkpt lat="49.89482" lon="2.30043">
        <ele>34.9</ele>
        <time>2022-04-11T08:06:58Z</time>
      </trkpt>
      <trkpt lat="49.89482" lon="2.30043">
        <ele>34.9</ele>
        <time>2022-04-11T08:06:59Z</time>
      </trkpt>
      <trkpt lat="49.89482" lon="2.30042">
        <ele>34.9</ele>
        <time>2022-04-11T08:07:00Z</time>
      </trkpt>
      <trkpt lat="49.89482" lon="2.30042">
        <ele>34.9</ele>
        <time>2022-04-11T08:07:01Z</time>
      </trkpt>
      <trkpt lat="49.89482" lon="2.30042">
        <ele>34.9</ele>
        <time>2022-04-11T08:07:02Z</time>
      </trkpt>
      <trkpt lat="49.89482" lon="2.30041">
        <ele>34.9</ele>
        <time>2022-04-11T08:07:03Z</time>
      </trkpt>
      <trkpt lat="49.89482" lon="2.30041">
        <ele>34.9</ele>
        <time>2022-04-11T08:07:04Z</time>
      </trkpt>
      <trkpt lat="49.89482" lon="2.30041">
        <ele>34.9</ele>
        <time>2022-04-11T08:07:05Z</time>
      </trkpt>
      <trkpt lat="49.89482" lon="2.30041">
        <ele>34.9</ele>
        <time>2022-04-11T08:07:06Z</time>
      </trkpt>
      <trkpt lat="49.89482" lon="2.30041">
        <ele>34.9</ele>
        <time>2022-04-11T08:07:07Z</time>
      </trkpt>
      <trkpt lat="49.89482" lon="2.30041">
        <ele>34.9</ele>
        <time>2022-04-11T08:07:08Z</time>
      </trkpt>
      <trkpt lat="49.89482" lon="2.30041">
        <ele>34.9</ele>
        <time>2022-04-11T08:07:09Z</time>
      </trkpt>
      <trkpt lat="49.89482" lon="2.30041">
        <ele>34.9</ele>
        <time>2022-04-11T08:07:10Z</time>
      </trkpt>
      <trkpt lat="49.89482" lon="2.30041">
        <ele>34.9</ele>
        <time>2022-04-11T08:07:11Z</time>
      </trkpt>
      <trkpt lat="49.89482" lon="2.3004">
        <ele>34.9</ele>
        <time>2022-04-11T08:07:12Z</time>
      </trkpt>
      <trkpt lat="49.89482" lon="2.3004">
        <ele>34.9</ele>
        <time>2022-04-11T08:07:13Z</time>
      </trkpt>
      <trkpt lat="49.89482" lon="2.3004">
        <ele>34.9</ele>
        <time>2022-04-11T08:07:14Z</time>
      </trkpt>
      <trkpt lat="49.89482" lon="2.3004">
        <ele>34.9</ele>
        <time>2022-04-11T08:07:15Z</time>
      </trkpt>
      <trkpt lat="49.89482" lon="2.3004">
        <ele>34.9</ele>
        <time>2022-04-11T08:07:16Z</time>
      </trkpt>
      <trkpt lat="49.89482" lon="2.3004">
        <ele>34.9</ele>
        <time>2022-04-11T08:07:17Z</time>
      </trkpt>
      <trkpt lat="49.89482" lon="2.3004">
        <ele>34.9</ele>
        <time>2022-04-11T08:07:18Z</time>
      </trkpt>
      <trkpt lat="49.89482" lon="2.3004">
        <ele>34.9</ele>
        <time>2022-04-11T08:07:19Z</time>
      </trkpt>
      <trkpt lat="49.89482" lon="2.3004">
        <ele>34.9</ele>
        <time>2022-04-11T08:07:20Z</time>
      </trkpt>
      <trkpt lat="49.89482" lon="2.3004">
        <ele>34.9</ele>
        <time>2022-04-11T08:07:21Z</time>
      </trkpt>
      <trkpt lat="49.89482" lon="2.3004">
        <ele>34.9</ele>
        <time>2022-04-11T08:07:22Z</time>
      </trkpt>
      <trkpt lat="49.89482" lon="2.3004">
        <ele>34.9</ele>
        <time>2022-04-11T08:07:23Z</time>
      </trkpt>
      <trkpt lat="49.89482" lon="2.3004">
        <ele>34.9</ele>
        <time>2022-04-11T08:07:24Z</time>
      </trkpt>
      <trkpt lat="49.89482" lon="2.3004">
        <ele>34.9</ele>
        <time>2022-04-11T08:07:25Z</time>
      </trkpt>
      <trkpt lat="49.89482" lon="2.3004">
        <ele>34.9</ele>
        <time>2022-04-11T08:07:26Z</time>
      </trkpt>
      <trkpt lat="49.89482" lon="2.3004">
        <ele>34.9</ele>
        <time>2022-04-11T08:07:27Z</time>
      </trkpt>
      <trkpt lat="49.89482" lon="2.3004">
        <ele>34.9</ele>
        <time>2022-04-11T08:07:28Z</time>
      </trkpt>
      <trkpt lat="49.89482" lon="2.3004">
        <ele>34.9</ele>
        <time>2022-04-11T08:07:29Z</time>
      </trkpt>
      <trkpt lat="49.89482" lon="2.3004">
        <ele>34.9</ele>
        <time>2022-04-11T08:07:30Z</time>
      </trkpt>
      <trkpt lat="49.89482" lon="2.3004">
        <ele>34.9</ele>
        <time>2022-04-11T08:07:31Z</time>
      </trkpt>
      <trkpt lat="49.89482" lon="2.3004">
        <ele>34.9</ele>
        <time>2022-04-11T08:07:32Z</time>
      </trkpt>
      <trkpt lat="49.89482" lon="2.3004">
        <ele>34.9</ele>
        <time>2022-04-11T08:07:33Z</time>
      </trkpt>
      <trkpt lat="49.89482" lon="2.3004">
        <ele>34.9</ele>
        <time>2022-04-11T08:07:34Z</time>
      </trkpt>
      <trkpt lat="49.89482" lon="2.3004">
        <ele>34.9</ele>
        <time>2022-04-11T08:07:35Z</time>
      </trkpt>
      <trkpt lat="49.89482" lon="2.3004">
        <ele>34.9</ele>
        <time>2022-04-11T08:07:36Z</time>
      </trkpt>
      <trkpt lat="49.89482" lon="2.3004">
        <ele>34.9</ele>
        <time>2022-04-11T08:07:37Z</time>
      </trkpt>
      <trkpt lat="49.89482" lon="2.3004">
        <ele>34.9</ele>
        <time>2022-04-11T08:07:38Z</time>
      </trkpt>
      <trkpt lat="49.89482" lon="2.3004">
        <ele>34.9</ele>
        <time>2022-04-11T08:07:39Z</time>
      </trkpt>
      <trkpt lat="49.89482" lon="2.3004">
        <ele>34.9</ele>
        <time>2022-04-11T08:07:40Z</time>
      </trkpt>
      <trkpt lat="49.89482" lon="2.3004">
        <ele>34.9</ele>
        <time>2022-04-11T08:07:41Z</time>
      </trkpt>
      <trkpt lat="49.89482" lon="2.3004">
        <ele>34.9</ele>
        <time>2022-04-11T08:07:42Z</time>
      </trkpt>
      <trkpt lat="49.89482" lon="2.3004">
        <ele>34.9</ele>
        <time>2022-04-11T08:07:43Z</time>
      </trkpt>
      <trkpt lat="49.89482" lon="2.3004">
        <ele>34.9</ele>
        <time>2022-04-11T08:07:44Z</time>
      </trkpt>
      <trkpt lat="49.89482" lon="2.3004">
        <ele>34.9</ele>
        <time>2022-04-11T08:07:45Z</time>
      </trkpt>
      <trkpt lat="49.89482" lon="2.3004">
        <ele>34.9</ele>
        <time>2022-04-11T08:07:46Z</time>
      </trkpt>
      <trkpt lat="49.89482" lon="2.3004">
        <ele>34.9</ele>
        <time>2022-04-11T08:07:47Z</time>
      </trkpt>
      <trkpt lat="49.89482" lon="2.3004">
        <ele>34.9</ele>
        <time>2022-04-11T08:07:48Z</time>
      </trkpt>
      <trkpt lat="49.89482" lon="2.3004">
        <ele>34.9</ele>
        <time>2022-04-11T08:07:49Z</time>
      </trkpt>
      <trkpt lat="49.89482" lon="2.3004">
        <ele>34.9</ele>
        <time>2022-04-11T08:07:50Z</time>
      </trkpt>
      <trkpt lat="49.89482" lon="2.3004">
        <ele>34.9</ele>
        <time>2022-04-11T08:07:51Z</time>
      </trkpt>
      <trkpt lat="49.89482" lon="2.3004">
        <ele>34.9</ele>
        <time>2022-04-11T08:07:52Z</time>
      </trkpt>
      <trkpt lat="49.89482" lon="2.3004">
        <ele>34.9</ele>
        <time>2022-04-11T08:07:53Z</time>
      </trkpt>
      <trkpt lat="49.89482" lon="2.3004">
        <ele>34.9</ele>
        <time>2022-04-11T08:07:54Z</time>
      </trkpt>
      <trkpt lat="49.89482" lon="2.3004">
        <ele>34.9</ele>
        <time>2022-04-11T08:07:55Z</time>
      </trkpt>
      <trkpt lat="49.89482" lon="2.3004">
        <ele>34.9</ele>
        <time>2022-04-11T08:07:56Z</time>
      </trkpt>
      <trkpt lat="49.89482" lon="2.3004">
        <ele>34.9</ele>
        <time>2022-04-11T08:07:57Z</time>
      </trkpt>
      <trkpt lat="49.89482" lon="2.3004">
        <ele>34.9</ele>
        <time>2022-04-11T08:07:58Z</time>
      </trkpt>
      <trkpt lat="49.89482" lon="2.3004">
        <ele>34.9</ele>
        <time>2022-04-11T08:07:59Z</time>
      </trkpt>
      <trkpt lat="49.89482" lon="2.3004">
        <ele>34.9</ele>
        <time>2022-04-11T08:08:00Z</time>
      </trkpt>
      <trkpt lat="49.89482" lon="2.3004">
        <ele>34.9</ele>
        <time>2022-04-11T08:08:01Z</time>
      </trkpt>
      <trkpt lat="49.89482" lon="2.3004">
        <ele>34.9</ele>
        <time>2022-04-11T08:08:02Z</time>
      </trkpt>
      <trkpt lat="49.89482" lon="2.3004">
        <ele>34.9</ele>
        <time>2022-04-11T08:08:03Z</time>
      </trkpt>
      <trkpt lat="49.89482" lon="2.3004">
        <ele>34.9</ele>
        <time>2022-04-11T08:08:04Z</time>
      </trkpt>
      <trkpt lat="49.89482" lon="2.3004">
        <ele>34.9</ele>
        <time>2022-04-11T08:08:05Z</time>
      </trkpt>
      <trkpt lat="49.89482" lon="2.3004">
        <ele>34.9</ele>
        <time>2022-04-11T08:08:06Z</time>
      </trkpt>
      <trkpt lat="49.89482" lon="2.3004">
        <ele>34.9</ele>
        <time>2022-04-11T08:08:07Z</time>
      </trkpt>
      <trkpt lat="49.89482" lon="2.3004">
        <ele>34.9</ele>
        <time>2022-04-11T08:08:08Z</time>
      </trkpt>
      <trkpt lat="49.89482" lon="2.3004">
        <ele>34.9</ele>
        <time>2022-04-11T08:08:09Z</time>
      </trkpt>
      <trkpt lat="49.89482" lon="2.3004">
        <ele>34.9</ele>
        <time>2022-04-11T08:08:10Z</time>
      </trkpt>
      <trkpt lat="49.89482" lon="2.3004">
        <ele>34.9</ele>
        <time>2022-04-11T08:08:11Z</time>
      </trkpt>
      <trkpt lat="49.89482" lon="2.3004">
        <ele>34.9</ele>
        <time>2022-04-11T08:08:12Z</time>
      </trkpt>
      <trkpt lat="49.89482" lon="2.3004">
        <ele>34.9</ele>
        <time>2022-04-11T08:08:13Z</time>
      </trkpt>
      <trkpt lat="49.89482" lon="2.3004">
        <ele>34.9</ele>
        <time>2022-04-11T08:08:14Z</time>
      </trkpt>
      <trkpt lat="49.89482" lon="2.3004">
        <ele>34.9</ele>
        <time>2022-04-11T08:08:15Z</time>
      </trkpt>
      <trkpt lat="49.89482" lon="2.3004">
        <ele>34.9</ele>
        <time>2022-04-11T08:08:16Z</time>
      </trkpt>
      <trkpt lat="49.89482" lon="2.3004">
        <ele>34.9</ele>
        <time>2022-04-11T08:08:17Z</time>
      </trkpt>
      <trkpt lat="49.89482" lon="2.3004">
        <ele>34.9</ele>
        <time>2022-04-11T08:08:18Z</time>
      </trkpt>
      <trkpt lat="49.89482" lon="2.3004">
        <ele>34.9</ele>
        <time>2022-04-11T08:08:19Z</time>
      </trkpt>
      <trkpt lat="49.89482" lon="2.3004">
        <ele>34.9</ele>
        <time>2022-04-11T08:08:20Z</time>
      </trkpt>
      <trkpt lat="49.89482" lon="2.3004">
        <ele>34.9</ele>
        <time>2022-04-11T08:08:21Z</time>
      </trkpt>
      <trkpt lat="49.89482" lon="2.3004">
        <ele>34.9</ele>
        <time>2022-04-11T08:08:22Z</time>
      </trkpt>
      <trkpt lat="49.89482" lon="2.3004">
        <ele>34.9</ele>
        <time>2022-04-11T08:08:23Z</time>
      </trkpt>
      <trkpt lat="49.89482" lon="2.3004">
        <ele>34.9</ele>
        <time>2022-04-11T08:08:24Z</time>
      </trkpt>
      <trkpt lat="49.89482" lon="2.3004">
        <ele>34.9</ele>
        <time>2022-04-11T08:08:25Z</time>
      </trkpt>
      <trkpt lat="49.89482" lon="2.3004">
        <ele>34.9</ele>
        <time>2022-04-11T08:08:26Z</time>
      </trkpt>
      <trkpt lat="49.89482" lon="2.3004">
        <ele>34.9</ele>
        <time>2022-04-11T08:08:27Z</time>
      </trkpt>
      <trkpt lat="49.89482" lon="2.3004">
        <ele>34.9</ele>
        <time>2022-04-11T08:08:28Z</time>
      </trkpt>
      <trkpt lat="49.89482" lon="2.3004">
        <ele>34.9</ele>
        <time>2022-04-11T08:08:29Z</time>
      </trkpt>
      <trkpt lat="49.89482" lon="2.3004">
        <ele>34.9</ele>
        <time>2022-04-11T08:08:30Z</time>
      </trkpt>
      <trkpt lat="49.89482" lon="2.3004">
        <ele>34.9</ele>
        <time>2022-04-11T08:08:31Z</time>
      </trkpt>
      <trkpt lat="49.89482" lon="2.3004">
        <ele>34.9</ele>
        <time>2022-04-11T08:08:32Z</time>
      </trkpt>
      <trkpt lat="49.89482" lon="2.3004">
        <ele>34.9</ele>
        <time>2022-04-11T08:08:33Z</time>
      </trkpt>
      <trkpt lat="49.89482" lon="2.3004">
        <ele>34.9</ele>
        <time>2022-04-11T08:08:34Z</time>
      </trkpt>
      <trkpt lat="49.89482" lon="2.3004">
        <ele>34.9</ele>
        <time>2022-04-11T08:08:35Z</time>
      </trkpt>
      <trkpt lat="49.89482" lon="2.3004">
        <ele>34.9</ele>
        <time>2022-04-11T08:08:36Z</time>
      </trkpt>
      <trkpt lat="49.89482" lon="2.3004">
        <ele>34.9</ele>
        <time>2022-04-11T08:08:37Z</time>
      </trkpt>
      <trkpt lat="49.89482" lon="2.3004">
        <ele>34.9</ele>
        <time>2022-04-11T08:08:38Z</time>
      </trkpt>
      <trkpt lat="49.89482" lon="2.3004">
        <ele>34.9</ele>
        <time>2022-04-11T08:08:39Z</time>
      </trkpt>
      <trkpt lat="49.89482" lon="2.3004">
        <ele>34.9</ele>
        <time>2022-04-11T08:08:40Z</time>
      </trkpt>
      <trkpt lat="49.89482" lon="2.3004">
        <ele>34.9</ele>
        <time>2022-04-11T08:08:41Z</time>
      </trkpt>
      <trkpt lat="49.89482" lon="2.3004">
        <ele>34.9</ele>
        <time>2022-04-11T08:08:42Z</time>
      </trkpt>
      <trkpt lat="49.89482" lon="2.3004">
        <ele>34.9</ele>
        <time>2022-04-11T08:08:43Z</time>
      </trkpt>
      <trkpt lat="49.89482" lon="2.3004">
        <ele>34.9</ele>
        <time>2022-04-11T08:08:44Z</time>
      </trkpt>
      <trkpt lat="49.89482" lon="2.3004">
        <ele>34.9</ele>
        <time>2022-04-11T08:08:45Z</time>
      </trkpt>
      <trkpt lat="49.89482" lon="2.3004">
        <ele>34.9</ele>
        <time>2022-04-11T08:08:46Z</time>
      </trkpt>
      <trkpt lat="49.89482" lon="2.3004">
        <ele>34.9</ele>
        <time>2022-04-11T08:08:47Z</time>
      </trkpt>
      <trkpt lat="49.89482" lon="2.3004">
        <ele>34.9</ele>
        <time>2022-04-11T08:08:48Z</time>
      </trkpt>
      <trkpt lat="49.89482" lon="2.3004">
        <ele>34.9</ele>
        <time>2022-04-11T08:08:49Z</time>
      </trkpt>
      <trkpt lat="49.89482" lon="2.3004">
        <ele>34.9</ele>
        <time>2022-04-11T08:08:50Z</time>
      </trkpt>
      <trkpt lat="49.89482" lon="2.3004">
        <ele>34.9</ele>
        <time>2022-04-11T08:08:51Z</time>
      </trkpt>
      <trkpt lat="49.89482" lon="2.3004">
        <ele>34.9</ele>
        <time>2022-04-11T08:08:52Z</time>
      </trkpt>
      <trkpt lat="49.89482" lon="2.3004">
        <ele>34.9</ele>
        <time>2022-04-11T08:08:53Z</time>
      </trkpt>
      <trkpt lat="49.89482" lon="2.3004">
        <ele>34.9</ele>
        <time>2022-04-11T08:08:54Z</time>
      </trkpt>
      <trkpt lat="49.89482" lon="2.3004">
        <ele>34.9</ele>
        <time>2022-04-11T08:08:55Z</time>
      </trkpt>
      <trkpt lat="49.89482" lon="2.3004">
        <ele>34.9</ele>
        <time>2022-04-11T08:08:56Z</time>
      </trkpt>
      <trkpt lat="49.89482" lon="2.3004">
        <ele>34.9</ele>
        <time>2022-04-11T08:08:57Z</time>
      </trkpt>
      <trkpt lat="49.89482" lon="2.3004">
        <ele>34.9</ele>
        <time>2022-04-11T08:08:58Z</time>
      </trkpt>
      <trkpt lat="49.89482" lon="2.3004">
        <ele>34.9</ele>
        <time>2022-04-11T08:08:59Z</time>
      </trkpt>
      <trkpt lat="49.89482" lon="2.3004">
        <ele>34.9</ele>
        <time>2022-04-11T08:09:00Z</time>
      </trkpt>
      <trkpt lat="49.89482" lon="2.3004">
        <ele>34.9</ele>
        <time>2022-04-11T08:09:01Z</time>
      </trkpt>
      <trkpt lat="49.89482" lon="2.3004">
        <ele>34.9</ele>
        <time>2022-04-11T08:09:02Z</time>
      </trkpt>
      <trkpt lat="49.89482" lon="2.3004">
        <ele>34.9</ele>
        <time>2022-04-11T08:09:03Z</time>
      </trkpt>
      <trkpt lat="49.89482" lon="2.3004">
        <ele>34.9</ele>
        <time>2022-04-11T08:09:04Z</time>
      </trkpt>
      <trkpt lat="49.89482" lon="2.3004">
        <ele>34.9</ele>
        <time>2022-04-11T08:09:05Z</time>
      </trkpt>
      <trkpt lat="49.89482" lon="2.3004">
        <ele>34.9</ele>
        <time>2022-04-11T08:09:06Z</time>
      </trkpt>
      <trkpt lat="49.89482" lon="2.3004">
        <ele>34.9</ele>
        <time>2022-04-11T08:09:07Z</time>
      </trkpt>
      <trkpt lat="49.89482" lon="2.3004">
        <ele>34.9</ele>
        <time>2022-04-11T08:09:08Z</time>
      </trkpt>
      <trkpt lat="49.89482" lon="2.3004">
        <ele>34.9</ele>
        <time>2022-04-11T08:09:09Z</time>
      </trkpt>
      <trkpt lat="49.89482" lon="2.3004">
        <ele>34.9</ele>
        <time>2022-04-11T08:09:10Z</time>
      </trkpt>
      <trkpt lat="49.89482" lon="2.3004">
        <ele>34.9</ele>
        <time>2022-04-11T08:09:11Z</time>
      </trkpt>
      <trkpt lat="49.89482" lon="2.3004">
        <ele>34.9</ele>
        <time>2022-04-11T08:09:12Z</time>
      </trkpt>
      <trkpt lat="49.89482" lon="2.3004">
        <ele>34.9</ele>
        <time>2022-04-11T08:09:13Z</time>
      </trkpt>
      <trkpt lat="49.89482" lon="2.3004">
        <ele>34.9</ele>
        <time>2022-04-11T08:09:14Z</time>
      </trkpt>
      <trkpt lat="49.89482" lon="2.30042">
        <ele>34.9</ele>
        <time>2022-04-11T08:09:15Z</time>
      </trkpt>
      <trkpt lat="49.89482" lon="2.30045">
        <ele>34.9</ele>
        <time>2022-04-11T08:09:16Z</time>
      </trkpt>
      <trkpt lat="49.89482" lon="2.30047">
        <ele>34.9</ele>
        <time>2022-04-11T08:09:17Z</time>
      </trkpt>
      <trkpt lat="49.89481" lon="2.30047">
        <ele>34.9</ele>
        <time>2022-04-11T08:09:18Z</time>
      </trkpt>
      <trkpt lat="49.89481" lon="2.30046">
        <ele>34.9</ele>
        <time>2022-04-11T08:09:19Z</time>
      </trkpt>
      <trkpt lat="49.89481" lon="2.30045">
        <ele>34.9</ele>
        <time>2022-04-11T08:09:20Z</time>
      </trkpt>
      <trkpt lat="49.8948" lon="2.30045">
        <ele>34.9</ele>
        <time>2022-04-11T08:09:21Z</time>
      </trkpt>
      <trkpt lat="49.8948" lon="2.30043">
        <ele>34.9</ele>
        <time>2022-04-11T08:09:22Z</time>
      </trkpt>
      <trkpt lat="49.89481" lon="2.30041">
        <ele>34.9</ele>
        <time>2022-04-11T08:09:23Z</time>
      </trkpt>
      <trkpt lat="49.89481" lon="2.30037">
        <ele>34.9</ele>
        <time>2022-04-11T08:09:24Z</time>
      </trkpt>
      <trkpt lat="49.89481" lon="2.30036">
        <ele>34.9</ele>
        <time>2022-04-11T08:09:25Z</time>
      </trkpt>
      <trkpt lat="49.89482" lon="2.30034">
        <ele>34.9</ele>
        <time>2022-04-11T08:09:26Z</time>
      </trkpt>
      <trkpt lat="49.89482" lon="2.30032">
        <ele>34.9</ele>
        <time>2022-04-11T08:09:28Z</time>
      </trkpt>
      <trkpt lat="49.89482" lon="2.3003">
        <ele>34.9</ele>
        <time>2022-04-11T08:09:29Z</time>
      </trkpt>
      <trkpt lat="49.89482" lon="2.30029">
        <ele>34.9</ele>
        <time>2022-04-11T08:09:30Z</time>
      </trkpt>
      <trkpt lat="49.89481" lon="2.30029">
        <ele>34.9</ele>
        <time>2022-04-11T08:09:31Z</time>
      </trkpt>
      <trkpt lat="49.89481" lon="2.30029">
        <ele>34.9</ele>
        <time>2022-04-11T08:09:32Z</time>
      </trkpt>
      <trkpt lat="49.89482" lon="2.30029">
        <ele>34.9</ele>
        <time>2022-04-11T08:09:33Z</time>
      </trkpt>
      <trkpt lat="49.89482" lon="2.30029">
        <ele>34.9</ele>
        <time>2022-04-11T08:09:34Z</time>
      </trkpt>
      <trkpt lat="49.89482" lon="2.30029">
        <ele>34.9</ele>
        <time>2022-04-11T08:09:35Z</time>
      </trkpt>
      <trkpt lat="49.89482" lon="2.30029">
        <ele>34.9</ele>
        <time>2022-04-11T08:09:36Z</time>
      </trkpt>
      <trkpt lat="49.89482" lon="2.30029">
        <ele>34.9</ele>
        <time>2022-04-11T08:09:37Z</time>
      </trkpt>
      <trkpt lat="49.89482" lon="2.30029">
        <ele>34.9</ele>
        <time>2022-04-11T08:09:38Z</time>
      </trkpt>
      <trkpt lat="49.89482" lon="2.30029">
        <ele>34.9</ele>
        <time>2022-04-11T08:09:39Z</time>
      </trkpt>
      <trkpt lat="49.89482" lon="2.30029">
        <ele>34.9</ele>
        <time>2022-04-11T08:09:40Z</time>
      </trkpt>
      <trkpt lat="49.89482" lon="2.30029">
        <ele>34.9</ele>
        <time>2022-04-11T08:09:41Z</time>
      </trkpt>
      <trkpt lat="49.89482" lon="2.30029">
        <ele>34.9</ele>
        <time>2022-04-11T08:09:42Z</time>
      </trkpt>
      <trkpt lat="49.89482" lon="2.30029">
        <ele>34.9</ele>
        <time>2022-04-11T08:09:43Z</time>
      </trkpt>
      <trkpt lat="49.89482" lon="2.30029">
        <ele>34.9</ele>
        <time>2022-04-11T08:09:44Z</time>
      </trkpt>
      <trkpt lat="49.89482" lon="2.30029">
        <ele>34.9</ele>
        <time>2022-04-11T08:09:45Z</time>
      </trkpt>
      <trkpt lat="49.89482" lon="2.30029">
        <ele>34.9</ele>
        <time>2022-04-11T08:09:46Z</time>
      </trkpt>
      <trkpt lat="49.89482" lon="2.30029">
        <ele>34.9</ele>
        <time>2022-04-11T08:09:47Z</time>
      </trkpt>
      <trkpt lat="49.89482" lon="2.30029">
        <ele>34.9</ele>
        <time>2022-04-11T08:09:48Z</time>
      </trkpt>
      <trkpt lat="49.89482" lon="2.30029">
        <ele>34.9</ele>
        <time>2022-04-11T08:09:49Z</time>
      </trkpt>
      <trkpt lat="49.89482" lon="2.30029">
        <ele>34.9</ele>
        <time>2022-04-11T08:09:50Z</time>
      </trkpt>
      <trkpt lat="49.89483" lon="2.30029">
        <ele>34.9</ele>
        <time>2022-04-11T08:09:51Z</time>
      </trkpt>
      <trkpt lat="49.89483" lon="2.30029">
        <ele>34.9</ele>
        <time>2022-04-11T08:09:52Z</time>
      </trkpt>
      <trkpt lat="49.89483" lon="2.30029">
        <ele>34.9</ele>
        <time>2022-04-11T08:09:53Z</time>
      </trkpt>
      <trkpt lat="49.89483" lon="2.30029">
        <ele>34.9</ele>
        <time>2022-04-11T08:09:54Z</time>
      </trkpt>
      <trkpt lat="49.89483" lon="2.30029">
        <ele>34.9</ele>
        <time>2022-04-11T08:09:55Z</time>
      </trkpt>
      <trkpt lat="49.89483" lon="2.30029">
        <ele>34.9</ele>
        <time>2022-04-11T08:09:56Z</time>
      </trkpt>
      <trkpt lat="49.89483" lon="2.30029">
        <ele>34.9</ele>
        <time>2022-04-11T08:09:57Z</time>
      </trkpt>
      <trkpt lat="49.89483" lon="2.30029">
        <ele>34.9</ele>
        <time>2022-04-11T08:09:58Z</time>
      </trkpt>
      <trkpt lat="49.89483" lon="2.30029">
        <ele>34.9</ele>
        <time>2022-04-11T08:09:59Z</time>
      </trkpt>
      <trkpt lat="49.89483" lon="2.30029">
        <ele>34.9</ele>
        <time>2022-04-11T08:10:00Z</time>
      </trkpt>
      <trkpt lat="49.89483" lon="2.30029">
        <ele>35.1</ele>
        <time>2022-04-11T08:10:01Z</time>
      </trkpt>
      <trkpt lat="49.89483" lon="2.30029">
        <ele>35.1</ele>
        <time>2022-04-11T08:10:02Z</time>
      </trkpt>
      <trkpt lat="49.89483" lon="2.30029">
        <ele>35.1</ele>
        <time>2022-04-11T08:10:03Z</time>
      </trkpt>
      <trkpt lat="49.89483" lon="2.30029">
        <ele>35.1</ele>
        <time>2022-04-11T08:10:04Z</time>
      </trkpt>
      <trkpt lat="49.89483" lon="2.30029">
        <ele>35.1</ele>
        <time>2022-04-11T08:10:05Z</time>
      </trkpt>
      <trkpt lat="49.89483" lon="2.30029">
        <ele>35.1</ele>
        <time>2022-04-11T08:10:06Z</time>
      </trkpt>
      <trkpt lat="49.89483" lon="2.30029">
        <ele>35.1</ele>
        <time>2022-04-11T08:10:07Z</time>
      </trkpt>
      <trkpt lat="49.89483" lon="2.30029">
        <ele>35.1</ele>
        <time>2022-04-11T08:10:08Z</time>
      </trkpt>
      <trkpt lat="49.89484" lon="2.30029">
        <ele>35.1</ele>
        <time>2022-04-11T08:10:09Z</time>
      </trkpt>
      <trkpt lat="49.89484" lon="2.30029">
        <ele>35.1</ele>
        <time>2022-04-11T08:10:10Z</time>
      </trkpt>
      <trkpt lat="49.89484" lon="2.30029">
        <ele>35.1</ele>
        <time>2022-04-11T08:10:11Z</time>
      </trkpt>
      <trkpt lat="49.89484" lon="2.30029">
        <ele>35.1</ele>
        <time>2022-04-11T08:10:12Z</time>
      </trkpt>
      <trkpt lat="49.89484" lon="2.30029">
        <ele>35.1</ele>
        <time>2022-04-11T08:10:13Z</time>
      </trkpt>
      <trkpt lat="49.89484" lon="2.30029">
        <ele>35.1</ele>
        <time>2022-04-11T08:10:14Z</time>
      </trkpt>
      <trkpt lat="49.89484" lon="2.30029">
        <ele>35.1</ele>
        <time>2022-04-11T08:10:15Z</time>
      </trkpt>
      <trkpt lat="49.89484" lon="2.30029">
        <ele>35.1</ele>
        <time>2022-04-11T08:10:16Z</time>
      </trkpt>
      <trkpt lat="49.89484" lon="2.30029">
        <ele>35.1</ele>
        <time>2022-04-11T08:10:17Z</time>
      </trkpt>
      <trkpt lat="49.89484" lon="2.30029">
        <ele>35.1</ele>
        <time>2022-04-11T08:10:18Z</time>
      </trkpt>
      <trkpt lat="49.89484" lon="2.30029">
        <ele>35.1</ele>
        <time>2022-04-11T08:10:19Z</time>
      </trkpt>
      <trkpt lat="49.89484" lon="2.30029">
        <ele>35.1</ele>
        <time>2022-04-11T08:10:20Z</time>
      </trkpt>
      <trkpt lat="49.89484" lon="2.30029">
        <ele>35.1</ele>
        <time>2022-04-11T08:10:21Z</time>
      </trkpt>
      <trkpt lat="49.89484" lon="2.3003">
        <ele>35.1</ele>
        <time>2022-04-11T08:10:22Z</time>
      </trkpt>
      <trkpt lat="49.89484" lon="2.3003">
        <ele>35.1</ele>
        <time>2022-04-11T08:10:23Z</time>
      </trkpt>
      <trkpt lat="49.89484" lon="2.3003">
        <ele>35.1</ele>
        <time>2022-04-11T08:10:24Z</time>
      </trkpt>
      <trkpt lat="49.89484" lon="2.3003">
        <ele>35.1</ele>
        <time>2022-04-11T08:10:25Z</time>
      </trkpt>
      <trkpt lat="49.89484" lon="2.3003">
        <ele>35.1</ele>
        <time>2022-04-11T08:10:26Z</time>
      </trkpt>
      <trkpt lat="49.89484" lon="2.3003">
        <ele>35.1</ele>
        <time>2022-04-11T08:10:27Z</time>
      </trkpt>
      <trkpt lat="49.89485" lon="2.3003">
        <ele>35.1</ele>
        <time>2022-04-11T08:10:28Z</time>
      </trkpt>
      <trkpt lat="49.89485" lon="2.3003">
        <ele>35.1</ele>
        <time>2022-04-11T08:10:29Z</time>
      </trkpt>
      <trkpt lat="49.89485" lon="2.3003">
        <ele>35.1</ele>
        <time>2022-04-11T08:10:30Z</time>
      </trkpt>
      <trkpt lat="49.89485" lon="2.3003">
        <ele>35.1</ele>
        <time>2022-04-11T08:10:31Z</time>
      </trkpt>
      <trkpt lat="49.89485" lon="2.3003">
        <ele>35.1</ele>
        <time>2022-04-11T08:10:32Z</time>
      </trkpt>
      <trkpt lat="49.89485" lon="2.3003">
        <ele>35.1</ele>
        <time>2022-04-11T08:10:33Z</time>
      </trkpt>
      <trkpt lat="49.89485" lon="2.3003">
        <ele>35.1</ele>
        <time>2022-04-11T08:10:34Z</time>
      </trkpt>
      <trkpt lat="49.89485" lon="2.3003">
        <ele>35.1</ele>
        <time>2022-04-11T08:10:35Z</time>
      </trkpt>
      <trkpt lat="49.89485" lon="2.3003">
        <ele>35.1</ele>
        <time>2022-04-11T08:10:36Z</time>
      </trkpt>
      <trkpt lat="49.89485" lon="2.3003">
        <ele>35.1</ele>
        <time>2022-04-11T08:10:37Z</time>
      </trkpt>
      <trkpt lat="49.89485" lon="2.3003">
        <ele>35.1</ele>
        <time>2022-04-11T08:10:38Z</time>
      </trkpt>
      <trkpt lat="49.89485" lon="2.3003">
        <ele>35.1</ele>
        <time>2022-04-11T08:10:39Z</time>
      </trkpt>
      <trkpt lat="49.89485" lon="2.3003">
        <ele>35.1</ele>
        <time>2022-04-11T08:10:40Z</time>
      </trkpt>
      <trkpt lat="49.89485" lon="2.3003">
        <ele>35.1</ele>
        <time>2022-04-11T08:10:41Z</time>
      </trkpt>
      <trkpt lat="49.89485" lon="2.3003">
        <ele>35.1</ele>
        <time>2022-04-11T08:10:42Z</time>
      </trkpt>
      <trkpt lat="49.89487" lon="2.3003">
        <ele>35.1</ele>
        <time>2022-04-11T08:10:43Z</time>
      </trkpt>
      <trkpt lat="49.89488" lon="2.30029">
        <ele>35.1</ele>
        <time>2022-04-11T08:10:44Z</time>
      </trkpt>
      <trkpt lat="49.89488" lon="2.30029">
        <ele>35.1</ele>
        <time>2022-04-11T08:10:45Z</time>
      </trkpt>
      <trkpt lat="49.89488" lon="2.30029">
        <ele>35.1</ele>
        <time>2022-04-11T08:10:46Z</time>
      </trkpt>
      <trkpt lat="49.89488" lon="2.30029">
        <ele>35.1</ele>
        <time>2022-04-11T08:10:47Z</time>
      </trkpt>
      <trkpt lat="49.89488" lon="2.30029">
        <ele>35.1</ele>
        <time>2022-04-11T08:10:48Z</time>
      </trkpt>
      <trkpt lat="49.89488" lon="2.30029">
        <ele>35.1</ele>
        <time>2022-04-11T08:10:49Z</time>
      </trkpt>
      <trkpt lat="49.89488" lon="2.30029">
        <ele>35.1</ele>
        <time>2022-04-11T08:10:50Z</time>
      </trkpt>
      <trkpt lat="49.89488" lon="2.30029">
        <ele>35.1</ele>
        <time>2022-04-11T08:10:51Z</time>
      </trkpt>
      <trkpt lat="49.89488" lon="2.30029">
        <ele>35.1</ele>
        <time>2022-04-11T08:10:52Z</time>
      </trkpt>
      <trkpt lat="49.89488" lon="2.30029">
        <ele>35.1</ele>
        <time>2022-04-11T08:10:53Z</time>
      </trkpt>
      <trkpt lat="49.89488" lon="2.30029">
        <ele>35.1</ele>
        <time>2022-04-11T08:10:54Z</time>
      </trkpt>
      <trkpt lat="49.89488" lon="2.30029">
        <ele>35.1</ele>
        <time>2022-04-11T08:10:55Z</time>
      </trkpt>
      <trkpt lat="49.89488" lon="2.30029">
        <ele>35.1</ele>
        <time>2022-04-11T08:10:56Z</time>
      </trkpt>
      <trkpt lat="49.89488" lon="2.30029">
        <ele>35.1</ele>
        <time>2022-04-11T08:10:57Z</time>
      </trkpt>
      <trkpt lat="49.89487" lon="2.30029">
        <ele>35.1</ele>
        <time>2022-04-11T08:10:58Z</time>
      </trkpt>
      <trkpt lat="49.89487" lon="2.30029">
        <ele>35.1</ele>
        <time>2022-04-11T08:10:59Z</time>
      </trkpt>
      <trkpt lat="49.89487" lon="2.30029">
        <ele>35.1</ele>
        <time>2022-04-11T08:11:00Z</time>
      </trkpt>
      <trkpt lat="49.89487" lon="2.30029">
        <ele>35.1</ele>
        <time>2022-04-11T08:11:01Z</time>
      </trkpt>
      <trkpt lat="49.89487" lon="2.30029">
        <ele>35.1</ele>
        <time>2022-04-11T08:11:02Z</time>
      </trkpt>
      <trkpt lat="49.89487" lon="2.30029">
        <ele>35.1</ele>
        <time>2022-04-11T08:11:03Z</time>
      </trkpt>
      <trkpt lat="49.89487" lon="2.30029">
        <ele>35.1</ele>
        <time>2022-04-11T08:11:04Z</time>
      </trkpt>
      <trkpt lat="49.89487" lon="2.30029">
        <ele>35.1</ele>
        <time>2022-04-11T08:11:05Z</time>
      </trkpt>
      <trkpt lat="49.89487" lon="2.30029">
        <ele>35.1</ele>
        <time>2022-04-11T08:11:06Z</time>
      </trkpt>
      <trkpt lat="49.89487" lon="2.30029">
        <ele>35.1</ele>
        <time>2022-04-11T08:11:07Z</time>
      </trkpt>
      <trkpt lat="49.89487" lon="2.30029">
        <ele>35.1</ele>
        <time>2022-04-11T08:11:08Z</time>
      </trkpt>
      <trkpt lat="49.89487" lon="2.30029">
        <ele>35.1</ele>
        <time>2022-04-11T08:11:09Z</time>
      </trkpt>
      <trkpt lat="49.89487" lon="2.30029">
        <ele>35.1</ele>
        <time>2022-04-11T08:11:10Z</time>
      </trkpt>
      <trkpt lat="49.89486" lon="2.30029">
        <ele>35.1</ele>
        <time>2022-04-11T08:11:11Z</time>
      </trkpt>
      <trkpt lat="49.89486" lon="2.30029">
        <ele>35.1</ele>
        <time>2022-04-11T08:11:12Z</time>
      </trkpt>
      <trkpt lat="49.89486" lon="2.30029">
        <ele>35.1</ele>
        <time>2022-04-11T08:11:13Z</time>
      </trkpt>
      <trkpt lat="49.89486" lon="2.30029">
        <ele>35.1</ele>
        <time>2022-04-11T08:11:14Z</time>
      </trkpt>
      <trkpt lat="49.89486" lon="2.30029">
        <ele>35.1</ele>
        <time>2022-04-11T08:11:15Z</time>
      </trkpt>
      <trkpt lat="49.89486" lon="2.30029">
        <ele>35.1</ele>
        <time>2022-04-11T08:11:16Z</time>
      </trkpt>
      <trkpt lat="49.89486" lon="2.30029">
        <ele>35.1</ele>
        <time>2022-04-11T08:11:17Z</time>
      </trkpt>
      <trkpt lat="49.89486" lon="2.30029">
        <ele>35.1</ele>
        <time>2022-04-11T08:11:18Z</time>
      </trkpt>
      <trkpt lat="49.89486" lon="2.30029">
        <ele>35.1</ele>
        <time>2022-04-11T08:11:19Z</time>
      </trkpt>
      <trkpt lat="49.89486" lon="2.30029">
        <ele>35.1</ele>
        <time>2022-04-11T08:11:20Z</time>
      </trkpt>
      <trkpt lat="49.89486" lon="2.30029">
        <ele>35.1</ele>
        <time>2022-04-11T08:11:21Z</time>
      </trkpt>
      <trkpt lat="49.89486" lon="2.30029">
        <ele>35.1</ele>
        <time>2022-04-11T08:11:22Z</time>
      </trkpt>
      <trkpt lat="49.89486" lon="2.30029">
        <ele>35.1</ele>
        <time>2022-04-11T08:11:23Z</time>
      </trkpt>
      <trkpt lat="49.89485" lon="2.30029">
        <ele>35.1</ele>
        <time>2022-04-11T08:11:24Z</time>
      </trkpt>
      <trkpt lat="49.89485" lon="2.30029">
        <ele>35.1</ele>
        <time>2022-04-11T08:11:25Z</time>
      </trkpt>
      <trkpt lat="49.89485" lon="2.30029">
        <ele>35.1</ele>
        <time>2022-04-11T08:11:26Z</time>
      </trkpt>
      <trkpt lat="49.89485" lon="2.30029">
        <ele>35.1</ele>
        <time>2022-04-11T08:11:27Z</time>
      </trkpt>
      <trkpt lat="49.89485" lon="2.30029">
        <ele>35.1</ele>
        <time>2022-04-11T08:11:28Z</time>
      </trkpt>
      <trkpt lat="49.89485" lon="2.30029">
        <ele>35.1</ele>
        <time>2022-04-11T08:11:29Z</time>
      </trkpt>
      <trkpt lat="49.89485" lon="2.30029">
        <ele>35.1</ele>
        <time>2022-04-11T08:11:30Z</time>
      </trkpt>
      <trkpt lat="49.89485" lon="2.30029">
        <ele>35.1</ele>
        <time>2022-04-11T08:11:31Z</time>
      </trkpt>
      <trkpt lat="49.89485" lon="2.30029">
        <ele>35.1</ele>
        <time>2022-04-11T08:11:32Z</time>
      </trkpt>
      <trkpt lat="49.89485" lon="2.30029">
        <ele>35.1</ele>
        <time>2022-04-11T08:11:33Z</time>
      </trkpt>
      <trkpt lat="49.89485" lon="2.30029">
        <ele>35.1</ele>
        <time>2022-04-11T08:11:34Z</time>
      </trkpt>
      <trkpt lat="49.89485" lon="2.30029">
        <ele>35.1</ele>
        <time>2022-04-11T08:11:35Z</time>
      </trkpt>
      <trkpt lat="49.89485" lon="2.30029">
        <ele>35.1</ele>
        <time>2022-04-11T08:11:36Z</time>
      </trkpt>
      <trkpt lat="49.89484" lon="2.30029">
        <ele>35.1</ele>
        <time>2022-04-11T08:11:37Z</time>
      </trkpt>
      <trkpt lat="49.89484" lon="2.30029">
        <ele>35.1</ele>
        <time>2022-04-11T08:11:38Z</time>
      </trkpt>
      <trkpt lat="49.89484" lon="2.30029">
        <ele>35.1</ele>
        <time>2022-04-11T08:11:39Z</time>
      </trkpt>
      <trkpt lat="49.89484" lon="2.30029">
        <ele>35.1</ele>
        <time>2022-04-11T08:11:40Z</time>
      </trkpt>
      <trkpt lat="49.89484" lon="2.30029">
        <ele>35.1</ele>
        <time>2022-04-11T08:11:41Z</time>
      </trkpt>
      <trkpt lat="49.89484" lon="2.30029">
        <ele>35.1</ele>
        <time>2022-04-11T08:11:42Z</time>
      </trkpt>
      <trkpt lat="49.89484" lon="2.30029">
        <ele>35.1</ele>
        <time>2022-04-11T08:11:43Z</time>
      </trkpt>
      <trkpt lat="49.89484" lon="2.30029">
        <ele>35.1</ele>
        <time>2022-04-11T08:11:44Z</time>
      </trkpt>
      <trkpt lat="49.89484" lon="2.30029">
        <ele>35.1</ele>
        <time>2022-04-11T08:11:45Z</time>
      </trkpt>
      <trkpt lat="49.89484" lon="2.30029">
        <ele>35.1</ele>
        <time>2022-04-11T08:11:46Z</time>
      </trkpt>
      <trkpt lat="49.89484" lon="2.30029">
        <ele>35.1</ele>
        <time>2022-04-11T08:11:47Z</time>
      </trkpt>
      <trkpt lat="49.89484" lon="2.30029">
        <ele>35.1</ele>
        <time>2022-04-11T08:11:48Z</time>
      </trkpt>
      <trkpt lat="49.89484" lon="2.30029">
        <ele>35.1</ele>
        <time>2022-04-11T08:11:49Z</time>
      </trkpt>
      <trkpt lat="49.89484" lon="2.30029">
        <ele>35.1</ele>
        <time>2022-04-11T08:11:50Z</time>
      </trkpt>
      <trkpt lat="49.89483" lon="2.30029">
        <ele>35.1</ele>
        <time>2022-04-11T08:11:51Z</time>
      </trkpt>
      <trkpt lat="49.89483" lon="2.30029">
        <ele>35.1</ele>
        <time>2022-04-11T08:11:52Z</time>
      </trkpt>
      <trkpt lat="49.89483" lon="2.30029">
        <ele>35.1</ele>
        <time>2022-04-11T08:11:53Z</time>
      </trkpt>
      <trkpt lat="49.89481" lon="2.30029">
        <ele>35.1</ele>
        <time>2022-04-11T08:11:54Z</time>
      </trkpt>
      <trkpt lat="49.89479" lon="2.30028">
        <ele>35.1</ele>
        <time>2022-04-11T08:11:55Z</time>
      </trkpt>
      <trkpt lat="49.89478" lon="2.30028">
        <ele>35.1</ele>
        <time>2022-04-11T08:11:56Z</time>
      </trkpt>
      <trkpt lat="49.89478" lon="2.30028">
        <ele>35.1</ele>
        <time>2022-04-11T08:11:57Z</time>
      </trkpt>
      <trkpt lat="49.89478" lon="2.30028">
        <ele>35.1</ele>
        <time>2022-04-11T08:11:58Z</time>
      </trkpt>
      <trkpt lat="49.89478" lon="2.30028">
        <ele>35.1</ele>
        <time>2022-04-11T08:11:59Z</time>
      </trkpt>
      <trkpt lat="49.89478" lon="2.30028">
        <ele>35.1</ele>
        <time>2022-04-11T08:12:00Z</time>
      </trkpt>
      <trkpt lat="49.89478" lon="2.30028">
        <ele>35.1</ele>
        <time>2022-04-11T08:12:01Z</time>
      </trkpt>
      <trkpt lat="49.89478" lon="2.30028">
        <ele>35.1</ele>
        <time>2022-04-11T08:12:02Z</time>
      </trkpt>
      <trkpt lat="49.89478" lon="2.30028">
        <ele>35.1</ele>
        <time>2022-04-11T08:12:03Z</time>
      </trkpt>
      <trkpt lat="49.89478" lon="2.30028">
        <ele>35.1</ele>
        <time>2022-04-11T08:12:04Z</time>
      </trkpt>
      <trkpt lat="49.89478" lon="2.30028">
        <ele>35.1</ele>
        <time>2022-04-11T08:12:05Z</time>
      </trkpt>
      <trkpt lat="49.89478" lon="2.30028">
        <ele>35.1</ele>
        <time>2022-04-11T08:12:06Z</time>
      </trkpt>
      <trkpt lat="49.89478" lon="2.30028">
        <ele>35.1</ele>
        <time>2022-04-11T08:12:07Z</time>
      </trkpt>
      <trkpt lat="49.89478" lon="2.30028">
        <ele>35.1</ele>
        <time>2022-04-11T08:12:08Z</time>
      </trkpt>
      <trkpt lat="49.89478" lon="2.30028">
        <ele>35.1</ele>
        <time>2022-04-11T08:12:09Z</time>
      </trkpt>
      <trkpt lat="49.89478" lon="2.30028">
        <ele>35.1</ele>
        <time>2022-04-11T08:12:10Z</time>
      </trkpt>
      <trkpt lat="49.89478" lon="2.30028">
        <ele>35.1</ele>
        <time>2022-04-11T08:12:11Z</time>
      </trkpt>
      <trkpt lat="49.89478" lon="2.30027">
        <ele>35.1</ele>
        <time>2022-04-11T08:12:12Z</time>
      </trkpt>
      <trkpt lat="49.89478" lon="2.30027">
        <ele>35.1</ele>
        <time>2022-04-11T08:12:13Z</time>
      </trkpt>
      <trkpt lat="49.89478" lon="2.30027">
        <ele>35.1</ele>
        <time>2022-04-11T08:12:14Z</time>
      </trkpt>
      <trkpt lat="49.89478" lon="2.30027">
        <ele>35.1</ele>
        <time>2022-04-11T08:12:15Z</time>
      </trkpt>
      <trkpt lat="49.89478" lon="2.30027">
        <ele>35.1</ele>
        <time>2022-04-11T08:12:16Z</time>
      </trkpt>
      <trkpt lat="49.89478" lon="2.30027">
        <ele>35.1</ele>
        <time>2022-04-11T08:12:17Z</time>
      </trkpt>
      <trkpt lat="49.89478" lon="2.30027">
        <ele>35.1</ele>
        <time>2022-04-11T08:12:18Z</time>
      </trkpt>
      <trkpt lat="49.89478" lon="2.30027">
        <ele>35.1</ele>
        <time>2022-04-11T08:12:19Z</time>
      </trkpt>
      <trkpt lat="49.89478" lon="2.30027">
        <ele>35.1</ele>
        <time>2022-04-11T08:12:20Z</time>
      </trkpt>
      <trkpt lat="49.89478" lon="2.30027">
        <ele>35.1</ele>
        <time>2022-04-11T08:12:21Z</time>
      </trkpt>
      <trkpt lat="49.89478" lon="2.30027">
        <ele>35.1</ele>
        <time>2022-04-11T08:12:22Z</time>
      </trkpt>
      <trkpt lat="49.89478" lon="2.30027">
        <ele>35.1</ele>
        <time>2022-04-11T08:12:23Z</time>
      </trkpt>
      <trkpt lat="49.89477" lon="2.30027">
        <ele>35.1</ele>
        <time>2022-04-11T08:12:24Z</time>
      </trkpt>
      <trkpt lat="49.89477" lon="2.30027">
        <ele>35.1</ele>
        <time>2022-04-11T08:12:25Z</time>
      </trkpt>
      <trkpt lat="49.89477" lon="2.30027">
        <ele>35.1</ele>
        <time>2022-04-11T08:12:26Z</time>
      </trkpt>
      <trkpt lat="49.89477" lon="2.30027">
        <ele>35.1</ele>
        <time>2022-04-11T08:12:27Z</time>
      </trkpt>
      <trkpt lat="49.89477" lon="2.30027">
        <ele>35.1</ele>
        <time>2022-04-11T08:12:28Z</time>
      </trkpt>
      <trkpt lat="49.89477" lon="2.30027">
        <ele>35.1</ele>
        <time>2022-04-11T08:12:29Z</time>
      </trkpt>
      <trkpt lat="49.89477" lon="2.30027">
        <ele>35.1</ele>
        <time>2022-04-11T08:12:30Z</time>
      </trkpt>
      <trkpt lat="49.89477" lon="2.30027">
        <ele>35.1</ele>
        <time>2022-04-11T08:12:31Z</time>
      </trkpt>
      <trkpt lat="49.89477" lon="2.30027">
        <ele>35.1</ele>
        <time>2022-04-11T08:12:32Z</time>
      </trkpt>
      <trkpt lat="49.89477" lon="2.30027">
        <ele>35.1</ele>
        <time>2022-04-11T08:12:33Z</time>
      </trkpt>
      <trkpt lat="49.89477" lon="2.30027">
        <ele>35.1</ele>
        <time>2022-04-11T08:12:34Z</time>
      </trkpt>
      <trkpt lat="49.89477" lon="2.30027">
        <ele>35.1</ele>
        <time>2022-04-11T08:12:35Z</time>
      </trkpt>
      <trkpt lat="49.89477" lon="2.30027">
        <ele>35.1</ele>
        <time>2022-04-11T08:12:36Z</time>
      </trkpt>
      <trkpt lat="49.89477" lon="2.30026">
        <ele>35.1</ele>
        <time>2022-04-11T08:12:37Z</time>
      </trkpt>
      <trkpt lat="49.89477" lon="2.30026">
        <ele>35.1</ele>
        <time>2022-04-11T08:12:38Z</time>
      </trkpt>
      <trkpt lat="49.89477" lon="2.30026">
        <ele>35.1</ele>
        <time>2022-04-11T08:12:39Z</time>
      </trkpt>
      <trkpt lat="49.89477" lon="2.30026">
        <ele>35.1</ele>
        <time>2022-04-11T08:12:40Z</time>
      </trkpt>
      <trkpt lat="49.89477" lon="2.30026">
        <ele>35.1</ele>
        <time>2022-04-11T08:12:41Z</time>
      </trkpt>
      <trkpt lat="49.89477" lon="2.30026">
        <ele>35.1</ele>
        <time>2022-04-11T08:12:42Z</time>
      </trkpt>
      <trkpt lat="49.89477" lon="2.30026">
        <ele>35.1</ele>
        <time>2022-04-11T08:12:43Z</time>
      </trkpt>
      <trkpt lat="49.89477" lon="2.30026">
        <ele>35.1</ele>
        <time>2022-04-11T08:12:44Z</time>
      </trkpt>
      <trkpt lat="49.89477" lon="2.30026">
        <ele>35.1</ele>
        <time>2022-04-11T08:12:45Z</time>
      </trkpt>
      <trkpt lat="49.89477" lon="2.30026">
        <ele>35.1</ele>
        <time>2022-04-11T08:12:46Z</time>
      </trkpt>
      <trkpt lat="49.89477" lon="2.30026">
        <ele>35.1</ele>
        <time>2022-04-11T08:12:47Z</time>
      </trkpt>
      <trkpt lat="49.89477" lon="2.30026">
        <ele>35.1</ele>
        <time>2022-04-11T08:12:48Z</time>
      </trkpt>
      <trkpt lat="49.89477" lon="2.30026">
        <ele>35.1</ele>
        <time>2022-04-11T08:12:49Z</time>
      </trkpt>
      <trkpt lat="49.89477" lon="2.30026">
        <ele>35.1</ele>
        <time>2022-04-11T08:12:50Z</time>
      </trkpt>
      <trkpt lat="49.89477" lon="2.30026">
        <ele>35.1</ele>
        <time>2022-04-11T08:12:51Z</time>
      </trkpt>
      <trkpt lat="49.89477" lon="2.30026">
        <ele>35.1</ele>
        <time>2022-04-11T08:12:52Z</time>
      </trkpt>
      <trkpt lat="49.89477" lon="2.30026">
        <ele>35.1</ele>
        <time>2022-04-11T08:12:53Z</time>
      </trkpt>
      <trkpt lat="49.89477" lon="2.30026">
        <ele>35.1</ele>
        <time>2022-04-11T08:12:54Z</time>
      </trkpt>
      <trkpt lat="49.89477" lon="2.30026">
        <ele>35.1</ele>
        <time>2022-04-11T08:12:55Z</time>
      </trkpt>
      <trkpt lat="49.89477" lon="2.30026">
        <ele>35.1</ele>
        <time>2022-04-11T08:12:56Z</time>
      </trkpt>
      <trkpt lat="49.89477" lon="2.30026">
        <ele>35.1</ele>
        <time>2022-04-11T08:12:57Z</time>
      </trkpt>
      <trkpt lat="49.89477" lon="2.30026">
        <ele>35.1</ele>
        <time>2022-04-11T08:12:58Z</time>
      </trkpt>
      <trkpt lat="49.89477" lon="2.30026">
        <ele>35.1</ele>
        <time>2022-04-11T08:12:59Z</time>
      </trkpt>
      <trkpt lat="49.89477" lon="2.30026">
        <ele>35.1</ele>
        <time>2022-04-11T08:13:00Z</time>
      </trkpt>
      <trkpt lat="49.89477" lon="2.30026">
        <ele>35.1</ele>
        <time>2022-04-11T08:13:01Z</time>
      </trkpt>
      <trkpt lat="49.89477" lon="2.30025">
        <ele>35.1</ele>
        <time>2022-04-11T08:13:02Z</time>
      </trkpt>
      <trkpt lat="49.89477" lon="2.30025">
        <ele>35.1</ele>
        <time>2022-04-11T08:13:03Z</time>
      </trkpt>
      <trkpt lat="49.89477" lon="2.30025">
        <ele>35.1</ele>
        <time>2022-04-11T08:13:04Z</time>
      </trkpt>
      <trkpt lat="49.89477" lon="2.30025">
        <ele>35.1</ele>
        <time>2022-04-11T08:13:05Z</time>
      </trkpt>
      <trkpt lat="49.89477" lon="2.30025">
        <ele>35.1</ele>
        <time>2022-04-11T08:13:06Z</time>
      </trkpt>
      <trkpt lat="49.89477" lon="2.30025">
        <ele>35.1</ele>
        <time>2022-04-11T08:13:07Z</time>
      </trkpt>
      <trkpt lat="49.89477" lon="2.30025">
        <ele>35.1</ele>
        <time>2022-04-11T08:13:08Z</time>
      </trkpt>
      <trkpt lat="49.89477" lon="2.30025">
        <ele>35.1</ele>
        <time>2022-04-11T08:13:09Z</time>
      </trkpt>
      <trkpt lat="49.89477" lon="2.30025">
        <ele>35.1</ele>
        <time>2022-04-11T08:13:10Z</time>
      </trkpt>
      <trkpt lat="49.89477" lon="2.30025">
        <ele>35.1</ele>
        <time>2022-04-11T08:13:11Z</time>
      </trkpt>
      <trkpt lat="49.89477" lon="2.30025">
        <ele>35.1</ele>
        <time>2022-04-11T08:13:12Z</time>
      </trkpt>
      <trkpt lat="49.89477" lon="2.30025">
        <ele>35.1</ele>
        <time>2022-04-11T08:13:13Z</time>
      </trkpt>
      <trkpt lat="49.89477" lon="2.30025">
        <ele>35.1</ele>
        <time>2022-04-11T08:13:14Z</time>
      </trkpt>
      <trkpt lat="49.89477" lon="2.30025">
        <ele>35.1</ele>
        <time>2022-04-11T08:13:15Z</time>
      </trkpt>
      <trkpt lat="49.89477" lon="2.30025">
        <ele>35.1</ele>
        <time>2022-04-11T08:13:16Z</time>
      </trkpt>
      <trkpt lat="49.89477" lon="2.30025">
        <ele>35.1</ele>
        <time>2022-04-11T08:13:17Z</time>
      </trkpt>
      <trkpt lat="49.89477" lon="2.30025">
        <ele>35.1</ele>
        <time>2022-04-11T08:13:18Z</time>
      </trkpt>
      <trkpt lat="49.89477" lon="2.30025">
        <ele>35.1</ele>
        <time>2022-04-11T08:13:19Z</time>
      </trkpt>
      <trkpt lat="49.89477" lon="2.30025">
        <ele>35.1</ele>
        <time>2022-04-11T08:13:20Z</time>
      </trkpt>
      <trkpt lat="49.89477" lon="2.30025">
        <ele>35.1</ele>
        <time>2022-04-11T08:13:21Z</time>
      </trkpt>
      <trkpt lat="49.89477" lon="2.30025">
        <ele>35.1</ele>
        <time>2022-04-11T08:13:22Z</time>
      </trkpt>
      <trkpt lat="49.89477" lon="2.30025">
        <ele>35.1</ele>
        <time>2022-04-11T08:13:23Z</time>
      </trkpt>
      <trkpt lat="49.89477" lon="2.30025">
        <ele>35.1</ele>
        <time>2022-04-11T08:13:24Z</time>
      </trkpt>
      <trkpt lat="49.89477" lon="2.30025">
        <ele>35.1</ele>
        <time>2022-04-11T08:13:25Z</time>
      </trkpt>
      <trkpt lat="49.89477" lon="2.30025">
        <ele>35.1</ele>
        <time>2022-04-11T08:13:26Z</time>
      </trkpt>
      <trkpt lat="49.89477" lon="2.30025">
        <ele>35.1</ele>
        <time>2022-04-11T08:13:27Z</time>
      </trkpt>
      <trkpt lat="49.89477" lon="2.30024">
        <ele>35.1</ele>
        <time>2022-04-11T08:13:28Z</time>
      </trkpt>
      <trkpt lat="49.89477" lon="2.30024">
        <ele>35.1</ele>
        <time>2022-04-11T08:13:29Z</time>
      </trkpt>
      <trkpt lat="49.89477" lon="2.30024">
        <ele>35.1</ele>
        <time>2022-04-11T08:13:30Z</time>
      </trkpt>
      <trkpt lat="49.89477" lon="2.30024">
        <ele>35.1</ele>
        <time>2022-04-11T08:13:31Z</time>
      </trkpt>
      <trkpt lat="49.89477" lon="2.30024">
        <ele>35.1</ele>
        <time>2022-04-11T08:13:32Z</time>
      </trkpt>
      <trkpt lat="49.89477" lon="2.30024">
        <ele>35.1</ele>
        <time>2022-04-11T08:13:33Z</time>
      </trkpt>
      <trkpt lat="49.89477" lon="2.30024">
        <ele>35.1</ele>
        <time>2022-04-11T08:13:34Z</time>
      </trkpt>
      <trkpt lat="49.89477" lon="2.30024">
        <ele>35.1</ele>
        <time>2022-04-11T08:13:35Z</time>
      </trkpt>
      <trkpt lat="49.89477" lon="2.30024">
        <ele>35.1</ele>
        <time>2022-04-11T08:13:36Z</time>
      </trkpt>
      <trkpt lat="49.89477" lon="2.30024">
        <ele>35.1</ele>
        <time>2022-04-11T08:13:37Z</time>
      </trkpt>
      <trkpt lat="49.89477" lon="2.30024">
        <ele>35.1</ele>
        <time>2022-04-11T08:13:38Z</time>
      </trkpt>
      <trkpt lat="49.89476" lon="2.30024">
        <ele>35.1</ele>
        <time>2022-04-11T08:13:39Z</time>
      </trkpt>
      <trkpt lat="49.89476" lon="2.30024">
        <ele>35.1</ele>
        <time>2022-04-11T08:13:40Z</time>
      </trkpt>
      <trkpt lat="49.89476" lon="2.30024">
        <ele>35.1</ele>
        <time>2022-04-11T08:13:41Z</time>
      </trkpt>
      <trkpt lat="49.89476" lon="2.30024">
        <ele>35.1</ele>
        <time>2022-04-11T08:13:42Z</time>
      </trkpt>
      <trkpt lat="49.89476" lon="2.30024">
        <ele>35.1</ele>
        <time>2022-04-11T08:13:43Z</time>
      </trkpt>
      <trkpt lat="49.89476" lon="2.30024">
        <ele>35.1</ele>
        <time>2022-04-11T08:13:44Z</time>
      </trkpt>
      <trkpt lat="49.89476" lon="2.30024">
        <ele>35.1</ele>
        <time>2022-04-11T08:13:45Z</time>
      </trkpt>
      <trkpt lat="49.89476" lon="2.30024">
        <ele>35.1</ele>
        <time>2022-04-11T08:13:46Z</time>
      </trkpt>
      <trkpt lat="49.89476" lon="2.30024">
        <ele>35.1</ele>
        <time>2022-04-11T08:13:47Z</time>
      </trkpt>
      <trkpt lat="49.89476" lon="2.30024">
        <ele>35.1</ele>
        <time>2022-04-11T08:13:48Z</time>
      </trkpt>
      <trkpt lat="49.89476" lon="2.30024">
        <ele>35.1</ele>
        <time>2022-04-11T08:13:49Z</time>
      </trkpt>
      <trkpt lat="49.89477" lon="2.30022">
        <ele>35.1</ele>
        <time>2022-04-11T08:13:50Z</time>
      </trkpt>
      <trkpt lat="49.89479" lon="2.30021">
        <ele>35</ele>
        <time>2022-04-11T08:13:51Z</time>
      </trkpt>
      <trkpt lat="49.89479" lon="2.3002">
        <ele>35</ele>
        <time>2022-04-11T08:13:52Z</time>
      </trkpt>
      <trkpt lat="49.8948" lon="2.3002">
        <ele>35</ele>
        <time>2022-04-11T08:13:53Z</time>
      </trkpt>
      <trkpt lat="49.8948" lon="2.3002">
        <ele>35</ele>
        <time>2022-04-11T08:13:54Z</time>
      </trkpt>
      <trkpt lat="49.8948" lon="2.3002">
        <ele>35</ele>
        <time>2022-04-11T08:13:55Z</time>
      </trkpt>
      <trkpt lat="49.8948" lon="2.3002">
        <ele>35</ele>
        <time>2022-04-11T08:13:56Z</time>
      </trkpt>
      <trkpt lat="49.8948" lon="2.3002">
        <ele>35</ele>
        <time>2022-04-11T08:13:57Z</time>
      </trkpt>
      <trkpt lat="49.8948" lon="2.3002">
        <ele>35</ele>
        <time>2022-04-11T08:13:58Z</time>
      </trkpt>
      <trkpt lat="49.8948" lon="2.3002">
        <ele>35</ele>
        <time>2022-04-11T08:13:59Z</time>
      </trkpt>
      <trkpt lat="49.8948" lon="2.3002">
        <ele>35</ele>
        <time>2022-04-11T08:14:00Z</time>
      </trkpt>
      <trkpt lat="49.8948" lon="2.3002">
        <ele>35</ele>
        <time>2022-04-11T08:14:01Z</time>
      </trkpt>
      <trkpt lat="49.8948" lon="2.3002">
        <ele>35</ele>
        <time>2022-04-11T08:14:02Z</time>
      </trkpt>
      <trkpt lat="49.8948" lon="2.3002">
        <ele>35</ele>
        <time>2022-04-11T08:14:03Z</time>
      </trkpt>
      <trkpt lat="49.8948" lon="2.3002">
        <ele>35</ele>
        <time>2022-04-11T08:14:04Z</time>
      </trkpt>
      <trkpt lat="49.8948" lon="2.3002">
        <ele>35</ele>
        <time>2022-04-11T08:14:05Z</time>
      </trkpt>
      <trkpt lat="49.8948" lon="2.3002">
        <ele>35</ele>
        <time>2022-04-11T08:14:06Z</time>
      </trkpt>
      <trkpt lat="49.8948" lon="2.3002">
        <ele>35</ele>
        <time>2022-04-11T08:14:07Z</time>
      </trkpt>
      <trkpt lat="49.8948" lon="2.3002">
        <ele>35</ele>
        <time>2022-04-11T08:14:08Z</time>
      </trkpt>
      <trkpt lat="49.8948" lon="2.3002">
        <ele>35</ele>
        <time>2022-04-11T08:14:09Z</time>
      </trkpt>
      <trkpt lat="49.8948" lon="2.3002">
        <ele>35</ele>
        <time>2022-04-11T08:14:10Z</time>
      </trkpt>
      <trkpt lat="49.8948" lon="2.3002">
        <ele>35</ele>
        <time>2022-04-11T08:14:11Z</time>
      </trkpt>
      <trkpt lat="49.8948" lon="2.3002">
        <ele>35</ele>
        <time>2022-04-11T08:14:12Z</time>
      </trkpt>
      <trkpt lat="49.8948" lon="2.3002">
        <ele>35</ele>
        <time>2022-04-11T08:14:13Z</time>
      </trkpt>
      <trkpt lat="49.8948" lon="2.3002">
        <ele>35</ele>
        <time>2022-04-11T08:14:14Z</time>
      </trkpt>
      <trkpt lat="49.8948" lon="2.3002">
        <ele>35</ele>
        <time>2022-04-11T08:14:15Z</time>
      </trkpt>
      <trkpt lat="49.8948" lon="2.3002">
        <ele>35</ele>
        <time>2022-04-11T08:14:16Z</time>
      </trkpt>
      <trkpt lat="49.8948" lon="2.3002">
        <ele>35</ele>
        <time>2022-04-11T08:14:17Z</time>
      </trkpt>
      <trkpt lat="49.8948" lon="2.3002">
        <ele>35</ele>
        <time>2022-04-11T08:14:18Z</time>
      </trkpt>
      <trkpt lat="49.8948" lon="2.3002">
        <ele>35</ele>
        <time>2022-04-11T08:14:19Z</time>
      </trkpt>
      <trkpt lat="49.8948" lon="2.3002">
        <ele>35</ele>
        <time>2022-04-11T08:14:20Z</time>
      </trkpt>
      <trkpt lat="49.8948" lon="2.3002">
        <ele>35</ele>
        <time>2022-04-11T08:14:21Z</time>
      </trkpt>
      <trkpt lat="49.8948" lon="2.3002">
        <ele>35</ele>
        <time>2022-04-11T08:14:22Z</time>
      </trkpt>
      <trkpt lat="49.8948" lon="2.3002">
        <ele>35</ele>
        <time>2022-04-11T08:14:23Z</time>
      </trkpt>
      <trkpt lat="49.8948" lon="2.3002">
        <ele>35</ele>
        <time>2022-04-11T08:14:24Z</time>
      </trkpt>
      <trkpt lat="49.8948" lon="2.3002">
        <ele>35</ele>
        <time>2022-04-11T08:14:25Z</time>
      </trkpt>
      <trkpt lat="49.8948" lon="2.3002">
        <ele>35</ele>
        <time>2022-04-11T08:14:26Z</time>
      </trkpt>
      <trkpt lat="49.8948" lon="2.3002">
        <ele>35</ele>
        <time>2022-04-11T08:14:27Z</time>
      </trkpt>
      <trkpt lat="49.8948" lon="2.3002">
        <ele>35</ele>
        <time>2022-04-11T08:14:28Z</time>
      </trkpt>
      <trkpt lat="49.8948" lon="2.3002">
        <ele>35</ele>
        <time>2022-04-11T08:14:29Z</time>
      </trkpt>
      <trkpt lat="49.8948" lon="2.3002">
        <ele>35</ele>
        <time>2022-04-11T08:14:30Z</time>
      </trkpt>
      <trkpt lat="49.8948" lon="2.3002">
        <ele>35</ele>
        <time>2022-04-11T08:14:31Z</time>
      </trkpt>
      <trkpt lat="49.8948" lon="2.3002">
        <ele>35</ele>
        <time>2022-04-11T08:14:32Z</time>
      </trkpt>
      <trkpt lat="49.8948" lon="2.3002">
        <ele>35</ele>
        <time>2022-04-11T08:14:33Z</time>
      </trkpt>
      <trkpt lat="49.8948" lon="2.3002">
        <ele>35</ele>
        <time>2022-04-11T08:14:34Z</time>
      </trkpt>
      <trkpt lat="49.8948" lon="2.3002">
        <ele>35</ele>
        <time>2022-04-11T08:14:35Z</time>
      </trkpt>
      <trkpt lat="49.8948" lon="2.3002">
        <ele>35</ele>
        <time>2022-04-11T08:14:36Z</time>
      </trkpt>
      <trkpt lat="49.8948" lon="2.3002">
        <ele>35</ele>
        <time>2022-04-11T08:14:37Z</time>
      </trkpt>
      <trkpt lat="49.8948" lon="2.3002">
        <ele>35</ele>
        <time>2022-04-11T08:14:38Z</time>
      </trkpt>
      <trkpt lat="49.8948" lon="2.3002">
        <ele>35</ele>
        <time>2022-04-11T08:14:39Z</time>
      </trkpt>
      <trkpt lat="49.8948" lon="2.3002">
        <ele>35</ele>
        <time>2022-04-11T08:14:40Z</time>
      </trkpt>
      <trkpt lat="49.8948" lon="2.3002">
        <ele>35</ele>
        <time>2022-04-11T08:14:41Z</time>
      </trkpt>
      <trkpt lat="49.8948" lon="2.3002">
        <ele>35</ele>
        <time>2022-04-11T08:14:42Z</time>
      </trkpt>
      <trkpt lat="49.8948" lon="2.3002">
        <ele>35</ele>
        <time>2022-04-11T08:14:43Z</time>
      </trkpt>
      <trkpt lat="49.8948" lon="2.3002">
        <ele>35</ele>
        <time>2022-04-11T08:14:44Z</time>
      </trkpt>
      <trkpt lat="49.8948" lon="2.3002">
        <ele>35</ele>
        <time>2022-04-11T08:14:45Z</time>
      </trkpt>
      <trkpt lat="49.8948" lon="2.3002">
        <ele>35</ele>
        <time>2022-04-11T08:14:46Z</time>
      </trkpt>
      <trkpt lat="49.8948" lon="2.3002">
        <ele>35</ele>
        <time>2022-04-11T08:14:47Z</time>
      </trkpt>
      <trkpt lat="49.8948" lon="2.3002">
        <ele>35</ele>
        <time>2022-04-11T08:14:48Z</time>
      </trkpt>
      <trkpt lat="49.8948" lon="2.3002">
        <ele>35</ele>
        <time>2022-04-11T08:14:49Z</time>
      </trkpt>
      <trkpt lat="49.8948" lon="2.3002">
        <ele>35</ele>
        <time>2022-04-11T08:14:50Z</time>
      </trkpt>
      <trkpt lat="49.8948" lon="2.3002">
        <ele>35</ele>
        <time>2022-04-11T08:14:51Z</time>
      </trkpt>
      <trkpt lat="49.8948" lon="2.3002">
        <ele>35</ele>
        <time>2022-04-11T08:14:52Z</time>
      </trkpt>
      <trkpt lat="49.8948" lon="2.3002">
        <ele>35</ele>
        <time>2022-04-11T08:14:53Z</time>
      </trkpt>
      <trkpt lat="49.8948" lon="2.3002">
        <ele>35</ele>
        <time>2022-04-11T08:14:54Z</time>
      </trkpt>
      <trkpt lat="49.8948" lon="2.3002">
        <ele>35</ele>
        <time>2022-04-11T08:14:55Z</time>
      </trkpt>
      <trkpt lat="49.8948" lon="2.3002">
        <ele>35</ele>
        <time>2022-04-11T08:14:56Z</time>
      </trkpt>
      <trkpt lat="49.8948" lon="2.3002">
        <ele>35</ele>
        <time>2022-04-11T08:14:57Z</time>
      </trkpt>
      <trkpt lat="49.8948" lon="2.3002">
        <ele>35</ele>
        <time>2022-04-11T08:14:58Z</time>
      </trkpt>
      <trkpt lat="49.8948" lon="2.3002">
        <ele>35</ele>
        <time>2022-04-11T08:14:59Z</time>
      </trkpt>
      <trkpt lat="49.8948" lon="2.3002">
        <ele>35</ele>
        <time>2022-04-11T08:15:00Z</time>
      </trkpt>
      <trkpt lat="49.8948" lon="2.3002">
        <ele>35</ele>
        <time>2022-04-11T08:15:01Z</time>
      </trkpt>
      <trkpt lat="49.8948" lon="2.3002">
        <ele>35</ele>
        <time>2022-04-11T08:15:02Z</time>
      </trkpt>
      <trkpt lat="49.8948" lon="2.3002">
        <ele>35</ele>
        <time>2022-04-11T08:15:03Z</time>
      </trkpt>
      <trkpt lat="49.8948" lon="2.3002">
        <ele>35</ele>
        <time>2022-04-11T08:15:04Z</time>
      </trkpt>
      <trkpt lat="49.8948" lon="2.3002">
        <ele>35</ele>
        <time>2022-04-11T08:15:05Z</time>
      </trkpt>
      <trkpt lat="49.8948" lon="2.3002">
        <ele>35</ele>
        <time>2022-04-11T08:15:06Z</time>
      </trkpt>
      <trkpt lat="49.8948" lon="2.3002">
        <ele>35</ele>
        <time>2022-04-11T08:15:07Z</time>
      </trkpt>
      <trkpt lat="49.8948" lon="2.3002">
        <ele>35</ele>
        <time>2022-04-11T08:15:08Z</time>
      </trkpt>
      <trkpt lat="49.8948" lon="2.30021">
        <ele>35</ele>
        <time>2022-04-11T08:15:09Z</time>
      </trkpt>
      <trkpt lat="49.8948" lon="2.30021">
        <ele>35</ele>
        <time>2022-04-11T08:15:10Z</time>
      </trkpt>
      <trkpt lat="49.89481" lon="2.30022">
        <ele>35</ele>
        <time>2022-04-11T08:15:11Z</time>
      </trkpt>
      <trkpt lat="49.89481" lon="2.30023">
        <ele>35</ele>
        <time>2022-04-11T08:15:12Z</time>
      </trkpt>
      <trkpt lat="49.89481" lon="2.30024">
        <ele>35</ele>
        <time>2022-04-11T08:15:14Z</time>
      </trkpt>
      <trkpt lat="49.89482" lon="2.30024">
        <ele>35</ele>
        <time>2022-04-11T08:15:15Z</time>
      </trkpt>
      <trkpt lat="49.89483" lon="2.30025">
        <ele>35</ele>
        <time>2022-04-11T08:15:16Z</time>
      </trkpt>
      <trkpt lat="49.89484" lon="2.30027">
        <ele>35</ele>
        <time>2022-04-11T08:15:17Z</time>
      </trkpt>
      <trkpt lat="49.89485" lon="2.3003">
        <ele>35.1</ele>
        <time>2022-04-11T08:15:18Z</time>
      </trkpt>
      <trkpt lat="49.89485" lon="2.30031">
        <ele>35.1</ele>
        <time>2022-04-11T08:15:19Z</time>
      </trkpt>
      <trkpt lat="49.89487" lon="2.30036">
        <ele>35.1</ele>
        <time>2022-04-11T08:15:21Z</time>
      </trkpt>
      <trkpt lat="49.89487" lon="2.30037">
        <ele>35.1</ele>
        <time>2022-04-11T08:15:22Z</time>
      </trkpt>
      <trkpt lat="49.89488" lon="2.30038">
        <ele>35.1</ele>
        <time>2022-04-11T08:15:23Z</time>
      </trkpt>
      <trkpt lat="49.89488" lon="2.3004">
        <ele>35.1</ele>
        <time>2022-04-11T08:15:24Z</time>
      </trkpt>
      <trkpt lat="49.89489" lon="2.30041">
        <ele>35.1</ele>
        <time>2022-04-11T08:15:25Z</time>
      </trkpt>
      <trkpt lat="49.89489" lon="2.30042">
        <ele>35.1</ele>
        <time>2022-04-11T08:15:26Z</time>
      </trkpt>
      <trkpt lat="49.8949" lon="2.30042">
        <ele>35.1</ele>
        <time>2022-04-11T08:15:27Z</time>
      </trkpt>
      <trkpt lat="49.8949" lon="2.30043">
        <ele>35.1</ele>
        <time>2022-04-11T08:15:28Z</time>
      </trkpt>
      <trkpt lat="49.8949" lon="2.30043">
        <ele>35.1</ele>
        <time>2022-04-11T08:15:29Z</time>
      </trkpt>
      <trkpt lat="49.8949" lon="2.30043">
        <ele>35.1</ele>
        <time>2022-04-11T08:15:30Z</time>
      </trkpt>
      <trkpt lat="49.8949" lon="2.30043">
        <ele>35.1</ele>
        <time>2022-04-11T08:15:31Z</time>
      </trkpt>
      <trkpt lat="49.89489" lon="2.30043">
        <ele>35.1</ele>
        <time>2022-04-11T08:15:32Z</time>
      </trkpt>
      <trkpt lat="49.89681" lon="2.30057">
        <ele>27.6</ele>
        <time>2022-04-11T08:22:11Z</time>
      </trkpt>
      <trkpt lat="49.89681" lon="2.30057">
        <ele>27.6</ele>
        <time>2022-04-11T08:22:12Z</time>
      </trkpt>
      <trkpt lat="49.89681" lon="2.30057">
        <ele>27.6</ele>
        <time>2022-04-11T08:22:13Z</time>
      </trkpt>
      <trkpt lat="49.89681" lon="2.30057">
        <ele>27.6</ele>
        <time>2022-04-11T08:22:14Z</time>
      </trkpt>
      <trkpt lat="49.89681" lon="2.30057">
        <ele>27.6</ele>
        <time>2022-04-11T08:22:15Z</time>
      </trkpt>
      <trkpt lat="49.89681" lon="2.30057">
        <ele>27.6</ele>
        <time>2022-04-11T08:22:16Z</time>
      </trkpt>
      <trkpt lat="49.89681" lon="2.30057">
        <ele>27.6</ele>
        <time>2022-04-11T08:22:17Z</time>
      </trkpt>
      <trkpt lat="49.89681" lon="2.30057">
        <ele>27.6</ele>
        <time>2022-04-11T08:22:18Z</time>
      </trkpt>
      <trkpt lat="49.89681" lon="2.30057">
        <ele>27.6</ele>
        <time>2022-04-11T08:22:19Z</time>
      </trkpt>
      <trkpt lat="49.89681" lon="2.30057">
        <ele>27.6</ele>
        <time>2022-04-11T08:22:20Z</time>
      </trkpt>
      <trkpt lat="49.89681" lon="2.30057">
        <ele>27.6</ele>
        <time>2022-04-11T08:22:21Z</time>
      </trkpt>
      <trkpt lat="49.89681" lon="2.30057">
        <ele>27.6</ele>
        <time>2022-04-11T08:22:22Z</time>
      </trkpt>
      <trkpt lat="49.89681" lon="2.30057">
        <ele>27.6</ele>
        <time>2022-04-11T08:22:23Z</time>
      </trkpt>
      <trkpt lat="49.89681" lon="2.30057">
        <ele>27.6</ele>
        <time>2022-04-11T08:22:24Z</time>
      </trkpt>
      <trkpt lat="49.89681" lon="2.30057">
        <ele>27.6</ele>
        <time>2022-04-11T08:22:25Z</time>
      </trkpt>
      <trkpt lat="49.89681" lon="2.30057">
        <ele>27.6</ele>
        <time>2022-04-11T08:22:26Z</time>
      </trkpt>
      <trkpt lat="49.89681" lon="2.30057">
        <ele>27.6</ele>
        <time>2022-04-11T08:22:27Z</time>
      </trkpt>
      <trkpt lat="49.89681" lon="2.30057">
        <ele>27.6</ele>
        <time>2022-04-11T08:22:28Z</time>
      </trkpt>
      <trkpt lat="49.89681" lon="2.30057">
        <ele>27.6</ele>
        <time>2022-04-11T08:22:29Z</time>
      </trkpt>
      <trkpt lat="49.89681" lon="2.30057">
        <ele>27.6</ele>
        <time>2022-04-11T08:22:30Z</time>
      </trkpt>
      <trkpt lat="49.89681" lon="2.30057">
        <ele>27.6</ele>
        <time>2022-04-11T08:22:31Z</time>
      </trkpt>
      <trkpt lat="49.89681" lon="2.30057">
        <ele>27.6</ele>
        <time>2022-04-11T08:22:32Z</time>
      </trkpt>
      <trkpt lat="49.89681" lon="2.30057">
        <ele>27.6</ele>
        <time>2022-04-11T08:22:33Z</time>
      </trkpt>
      <trkpt lat="49.89681" lon="2.30057">
        <ele>27.6</ele>
        <time>2022-04-11T08:22:34Z</time>
      </trkpt>
      <trkpt lat="49.89681" lon="2.30057">
        <ele>27.6</ele>
        <time>2022-04-11T08:22:35Z</time>
      </trkpt>
      <trkpt lat="49.89681" lon="2.30057">
        <ele>27.6</ele>
        <time>2022-04-11T08:22:36Z</time>
      </trkpt>
      <trkpt lat="49.89681" lon="2.30057">
        <ele>27.6</ele>
        <time>2022-04-11T08:22:37Z</time>
      </trkpt>
      <trkpt lat="49.89681" lon="2.30057">
        <ele>27.6</ele>
        <time>2022-04-11T08:22:38Z</time>
      </trkpt>
      <trkpt lat="49.89681" lon="2.30057">
        <ele>27.6</ele>
        <time>2022-04-11T08:22:39Z</time>
      </trkpt>
      <trkpt lat="49.89681" lon="2.30057">
        <ele>27.6</ele>
        <time>2022-04-11T08:22:40Z</time>
      </trkpt>
      <trkpt lat="49.89681" lon="2.30057">
        <ele>27.6</ele>
        <time>2022-04-11T08:22:41Z</time>
      </trkpt>
      <trkpt lat="49.89681" lon="2.30057">
        <ele>27.6</ele>
        <time>2022-04-11T08:22:42Z</time>
      </trkpt>
      <trkpt lat="49.89681" lon="2.30057">
        <ele>27.6</ele>
        <time>2022-04-11T08:22:43Z</time>
      </trkpt>
      <trkpt lat="49.89681" lon="2.30057">
        <ele>27.6</ele>
        <time>2022-04-11T08:22:44Z</time>
      </trkpt>
      <trkpt lat="49.89681" lon="2.30057">
        <ele>27.6</ele>
        <time>2022-04-11T08:22:45Z</time>
      </trkpt>
      <trkpt lat="49.89681" lon="2.30057">
        <ele>27.6</ele>
        <time>2022-04-11T08:22:46Z</time>
      </trkpt>
      <trkpt lat="49.89681" lon="2.30057">
        <ele>27.6</ele>
        <time>2022-04-11T08:22:47Z</time>
      </trkpt>
      <trkpt lat="49.89681" lon="2.30057">
        <ele>27.6</ele>
        <time>2022-04-11T08:22:48Z</time>
      </trkpt>
      <trkpt lat="49.89681" lon="2.30057">
        <ele>27.6</ele>
        <time>2022-04-11T08:22:49Z</time>
      </trkpt>
      <trkpt lat="49.89681" lon="2.30057">
        <ele>27.6</ele>
        <time>2022-04-11T08:22:50Z</time>
      </trkpt>
      <trkpt lat="49.89681" lon="2.30057">
        <ele>27.6</ele>
        <time>2022-04-11T08:22:51Z</time>
      </trkpt>
      <trkpt lat="49.89681" lon="2.30057">
        <ele>27.6</ele>
        <time>2022-04-11T08:22:52Z</time>
      </trkpt>
      <trkpt lat="49.89681" lon="2.30057">
        <ele>27.6</ele>
        <time>2022-04-11T08:22:53Z</time>
      </trkpt>
      <trkpt lat="49.89681" lon="2.30057">
        <ele>27.6</ele>
        <time>2022-04-11T08:22:54Z</time>
      </trkpt>
      <trkpt lat="49.89681" lon="2.30057">
        <ele>27.6</ele>
        <time>2022-04-11T08:22:55Z</time>
      </trkpt>
      <trkpt lat="49.89681" lon="2.30057">
        <ele>27.6</ele>
        <time>2022-04-11T08:22:56Z</time>
      </trkpt>
      <trkpt lat="49.89681" lon="2.30057">
        <ele>27.6</ele>
        <time>2022-04-11T08:22:57Z</time>
      </trkpt>
      <trkpt lat="49.89681" lon="2.30057">
        <ele>27.6</ele>
        <time>2022-04-11T08:22:58Z</time>
      </trkpt>
      <trkpt lat="49.89681" lon="2.30057">
        <ele>27.6</ele>
        <time>2022-04-11T08:22:59Z</time>
      </trkpt>
      <trkpt lat="49.89681" lon="2.30057">
        <ele>27.6</ele>
        <time>2022-04-11T08:23:00Z</time>
      </trkpt>
      <trkpt lat="49.89681" lon="2.30057">
        <ele>27.6</ele>
        <time>2022-04-11T08:23:01Z</time>
      </trkpt>
      <trkpt lat="49.89681" lon="2.30057">
        <ele>27.6</ele>
        <time>2022-04-11T08:23:02Z</time>
      </trkpt>
      <trkpt lat="49.89681" lon="2.30057">
        <ele>27.6</ele>
        <time>2022-04-11T08:23:03Z</time>
      </trkpt>
      <trkpt lat="49.89681" lon="2.30057">
        <ele>27.6</ele>
        <time>2022-04-11T08:23:04Z</time>
      </trkpt>
      <trkpt lat="49.89681" lon="2.30057">
        <ele>27.6</ele>
        <time>2022-04-11T08:23:05Z</time>
      </trkpt>
      <trkpt lat="49.89681" lon="2.30057">
        <ele>27.6</ele>
        <time>2022-04-11T08:23:06Z</time>
      </trkpt>
      <trkpt lat="49.89681" lon="2.30057">
        <ele>27.6</ele>
        <time>2022-04-11T08:23:07Z</time>
      </trkpt>
      <trkpt lat="49.89681" lon="2.30057">
        <ele>27.6</ele>
        <time>2022-04-11T08:23:08Z</time>
      </trkpt>
      <trkpt lat="49.89681" lon="2.30057">
        <ele>27.6</ele>
        <time>2022-04-11T08:23:09Z</time>
      </trkpt>
      <trkpt lat="49.89681" lon="2.30057">
        <ele>27.6</ele>
        <time>2022-04-11T08:23:10Z</time>
      </trkpt>
      <trkpt lat="49.89681" lon="2.30057">
        <ele>27.6</ele>
        <time>2022-04-11T08:23:11Z</time>
      </trkpt>
      <trkpt lat="49.89681" lon="2.30057">
        <ele>27.6</ele>
        <time>2022-04-11T08:23:12Z</time>
      </trkpt>
      <trkpt lat="49.89681" lon="2.30057">
        <ele>27.6</ele>
        <time>2022-04-11T08:23:13Z</time>
      </trkpt>
      <trkpt lat="49.89681" lon="2.30057">
        <ele>27.6</ele>
        <time>2022-04-11T08:23:14Z</time>
      </trkpt>
      <trkpt lat="49.89681" lon="2.30057">
        <ele>27.6</ele>
        <time>2022-04-11T08:23:15Z</time>
      </trkpt>
      <trkpt lat="49.89681" lon="2.30057">
        <ele>27.6</ele>
        <time>2022-04-11T08:23:16Z</time>
      </trkpt>
      <trkpt lat="49.89681" lon="2.30057">
        <ele>27.6</ele>
        <time>2022-04-11T08:23:17Z</time>
      </trkpt>
      <trkpt lat="49.89681" lon="2.30057">
        <ele>27.6</ele>
        <time>2022-04-11T08:23:18Z</time>
      </trkpt>
      <trkpt lat="49.89681" lon="2.30057">
        <ele>27.6</ele>
        <time>2022-04-11T08:23:19Z</time>
      </trkpt>
      <trkpt lat="49.89681" lon="2.30057">
        <ele>27.6</ele>
        <time>2022-04-11T08:23:20Z</time>
      </trkpt>
      <trkpt lat="49.89681" lon="2.30057">
        <ele>27.6</ele>
        <time>2022-04-11T08:23:21Z</time>
      </trkpt>
      <trkpt lat="49.89681" lon="2.30057">
        <ele>27.6</ele>
        <time>2022-04-11T08:23:22Z</time>
      </trkpt>
      <trkpt lat="49.89681" lon="2.30057">
        <ele>27.6</ele>
        <time>2022-04-11T08:23:23Z</time>
      </trkpt>
      <trkpt lat="49.89681" lon="2.30057">
        <ele>27.6</ele>
        <time>2022-04-11T08:23:24Z</time>
      </trkpt>
      <trkpt lat="49.89681" lon="2.30057">
        <ele>27.6</ele>
        <time>2022-04-11T08:23:25Z</time>
      </trkpt>
      <trkpt lat="49.89681" lon="2.30057">
        <ele>27.6</ele>
        <time>2022-04-11T08:23:26Z</time>
      </trkpt>
      <trkpt lat="49.89681" lon="2.30057">
        <ele>27.6</ele>
        <time>2022-04-11T08:23:27Z</time>
      </trkpt>
      <trkpt lat="49.89681" lon="2.30057">
        <ele>27.6</ele>
        <time>2022-04-11T08:23:28Z</time>
      </trkpt>
      <trkpt lat="49.89681" lon="2.30057">
        <ele>27.6</ele>
        <time>2022-04-11T08:23:29Z</time>
      </trkpt>
      <trkpt lat="49.89681" lon="2.30057">
        <ele>27.6</ele>
        <time>2022-04-11T08:23:30Z</time>
      </trkpt>
      <trkpt lat="49.89681" lon="2.30057">
        <ele>27.6</ele>
        <time>2022-04-11T08:23:31Z</time>
      </trkpt>
      <trkpt lat="49.89681" lon="2.30057">
        <ele>27.6</ele>
        <time>2022-04-11T08:23:32Z</time>
      </trkpt>
      <trkpt lat="49.89684" lon="2.30056">
        <ele>27.6</ele>
        <time>2022-04-11T08:23:33Z</time>
      </trkpt>
      <trkpt lat="49.89683" lon="2.30057">
        <ele>27.6</ele>
        <time>2022-04-11T08:23:34Z</time>
      </trkpt>
      <trkpt lat="49.89685" lon="2.30056">
        <ele>27.6</ele>
        <time>2022-04-11T08:23:35Z</time>
      </trkpt>
      <trkpt lat="49.89686" lon="2.30056">
        <ele>27.6</ele>
        <time>2022-04-11T08:23:36Z</time>
      </trkpt>
      <trkpt lat="49.89688" lon="2.30055">
        <ele>27.6</ele>
        <time>2022-04-11T08:23:37Z</time>
      </trkpt>
      <trkpt lat="49.8969" lon="2.30054">
        <ele>27.6</ele>
        <time>2022-04-11T08:23:39Z</time>
      </trkpt>
      <trkpt lat="49.89691" lon="2.30054">
        <ele>27.6</ele>
        <time>2022-04-11T08:23:40Z</time>
      </trkpt>
      <trkpt lat="49.89692" lon="2.30053">
        <ele>27.6</ele>
        <time>2022-04-11T08:23:41Z</time>
      </trkpt>
      <trkpt lat="49.89693" lon="2.30053">
        <ele>27.6</ele>
        <time>2022-04-11T08:23:42Z</time>
      </trkpt>
      <trkpt lat="49.89694" lon="2.30053">
        <ele>27.6</ele>
        <time>2022-04-11T08:23:43Z</time>
      </trkpt>
      <trkpt lat="49.89695" lon="2.30053">
        <ele>27.6</ele>
        <time>2022-04-11T08:23:44Z</time>
      </trkpt>
      <trkpt lat="49.89696" lon="2.30053">
        <ele>27.6</ele>
        <time>2022-04-11T08:23:45Z</time>
      </trkpt>
      <trkpt lat="49.89697" lon="2.30053">
        <ele>27.6</ele>
        <time>2022-04-11T08:23:46Z</time>
      </trkpt>
      <trkpt lat="49.89698" lon="2.30054">
        <ele>27.6</ele>
        <time>2022-04-11T08:23:47Z</time>
      </trkpt>
      <trkpt lat="49.89699" lon="2.30055">
        <ele>27.6</ele>
        <time>2022-04-11T08:23:48Z</time>
      </trkpt>
      <trkpt lat="49.897" lon="2.30056">
        <ele>27.6</ele>
        <time>2022-04-11T08:23:49Z</time>
      </trkpt>
      <trkpt lat="49.89701" lon="2.30056">
        <ele>27.6</ele>
        <time>2022-04-11T08:23:51Z</time>
      </trkpt>
      <trkpt lat="49.89702" lon="2.30057">
        <ele>27.6</ele>
        <time>2022-04-11T08:23:52Z</time>
      </trkpt>
      <trkpt lat="49.89703" lon="2.30058">
        <ele>27.6</ele>
        <time>2022-04-11T08:23:53Z</time>
      </trkpt>
      <trkpt lat="49.89703" lon="2.30059">
        <ele>27.6</ele>
        <time>2022-04-11T08:23:54Z</time>
      </trkpt>
      <trkpt lat="49.89703" lon="2.30062">
        <ele>27.6</ele>
        <time>2022-04-11T08:23:55Z</time>
      </trkpt>
      <trkpt lat="49.89703" lon="2.30063">
        <ele>27.6</ele>
        <time>2022-04-11T08:23:56Z</time>
      </trkpt>
      <trkpt lat="49.89704" lon="2.30062">
        <ele>27.6</ele>
        <time>2022-04-11T08:23:57Z</time>
      </trkpt>
      <trkpt lat="49.89705" lon="2.30062">
        <ele>27.6</ele>
        <time>2022-04-11T08:23:59Z</time>
      </trkpt>
      <trkpt lat="49.89706" lon="2.30061">
        <ele>27.6</ele>
        <time>2022-04-11T08:24:00Z</time>
      </trkpt>
      <trkpt lat="49.89707" lon="2.30061">
        <ele>27.6</ele>
        <time>2022-04-11T08:24:01Z</time>
      </trkpt>
      <trkpt lat="49.89707" lon="2.30062">
        <ele>27.6</ele>
        <time>2022-04-11T08:24:02Z</time>
      </trkpt>
      <trkpt lat="49.89707" lon="2.30062">
        <ele>27.6</ele>
        <time>2022-04-11T08:24:03Z</time>
      </trkpt>
      <trkpt lat="49.89707" lon="2.30063">
        <ele>27.6</ele>
        <time>2022-04-11T08:24:04Z</time>
      </trkpt>
      <trkpt lat="49.89708" lon="2.30063">
        <ele>27.6</ele>
        <time>2022-04-11T08:24:06Z</time>
      </trkpt>
      <trkpt lat="49.89708" lon="2.30063">
        <ele>27.6</ele>
        <time>2022-04-11T08:24:07Z</time>
      </trkpt>
      <trkpt lat="49.89708" lon="2.30064">
        <ele>27.6</ele>
        <time>2022-04-11T08:24:08Z</time>
      </trkpt>
      <trkpt lat="49.89708" lon="2.30064">
        <ele>27.6</ele>
        <time>2022-04-11T08:24:09Z</time>
      </trkpt>
      <trkpt lat="49.89709" lon="2.30065">
        <ele>27.6</ele>
        <time>2022-04-11T08:24:10Z</time>
      </trkpt>
      <trkpt lat="49.8971" lon="2.30066">
        <ele>27.6</ele>
        <time>2022-04-11T08:24:11Z</time>
      </trkpt>
      <trkpt lat="49.8971" lon="2.30067">
        <ele>27.6</ele>
        <time>2022-04-11T08:24:12Z</time>
      </trkpt>
      <trkpt lat="49.89711" lon="2.30069">
        <ele>27.6</ele>
        <time>2022-04-11T08:24:13Z</time>
      </trkpt>
      <trkpt lat="49.89711" lon="2.30071">
        <ele>27.6</ele>
        <time>2022-04-11T08:24:14Z</time>
      </trkpt>
      <trkpt lat="49.89712" lon="2.30072">
        <ele>27.6</ele>
        <time>2022-04-11T08:24:15Z</time>
      </trkpt>
      <trkpt lat="49.89714" lon="2.30073">
        <ele>27.6</ele>
        <time>2022-04-11T08:24:17Z</time>
      </trkpt>
      <trkpt lat="49.89715" lon="2.30073">
        <ele>27.6</ele>
        <time>2022-04-11T08:24:18Z</time>
      </trkpt>
      <trkpt lat="49.89717" lon="2.30072">
        <ele>27.6</ele>
        <time>2022-04-11T08:24:19Z</time>
      </trkpt>
      <trkpt lat="49.89719" lon="2.30072">
        <ele>27.6</ele>
        <time>2022-04-11T08:24:20Z</time>
      </trkpt>
      <trkpt lat="49.89721" lon="2.30072">
        <ele>27.6</ele>
        <time>2022-04-11T08:24:21Z</time>
      </trkpt>
      <trkpt lat="49.89724" lon="2.30072">
        <ele>27.6</ele>
        <time>2022-04-11T08:24:22Z</time>
      </trkpt>
      <trkpt lat="49.89725" lon="2.30072">
        <ele>27.6</ele>
        <time>2022-04-11T08:24:23Z</time>
      </trkpt>
      <trkpt lat="49.89727" lon="2.30072">
        <ele>27.6</ele>
        <time>2022-04-11T08:24:24Z</time>
      </trkpt>
      <trkpt lat="49.8973" lon="2.30072">
        <ele>27.7</ele>
        <time>2022-04-11T08:24:26Z</time>
      </trkpt>
      <trkpt lat="49.89732" lon="2.30072">
        <ele>27.7</ele>
        <time>2022-04-11T08:24:27Z</time>
      </trkpt>
      <trkpt lat="49.89733" lon="2.30073">
        <ele>27.7</ele>
        <time>2022-04-11T08:24:28Z</time>
      </trkpt>
      <trkpt lat="49.89735" lon="2.30073">
        <ele>27.7</ele>
        <time>2022-04-11T08:24:29Z</time>
      </trkpt>
      <trkpt lat="49.89737" lon="2.30072">
        <ele>27.7</ele>
        <time>2022-04-11T08:24:30Z</time>
      </trkpt>
      <trkpt lat="49.89739" lon="2.30073">
        <ele>27.7</ele>
        <time>2022-04-11T08:24:31Z</time>
      </trkpt>
      <trkpt lat="49.89741" lon="2.30073">
        <ele>27.7</ele>
        <time>2022-04-11T08:24:33Z</time>
      </trkpt>
      <trkpt lat="49.89742" lon="2.30073">
        <ele>27.7</ele>
        <time>2022-04-11T08:24:34Z</time>
      </trkpt>
      <trkpt lat="49.89743" lon="2.30074">
        <ele>27.7</ele>
        <time>2022-04-11T08:24:35Z</time>
      </trkpt>
      <trkpt lat="49.89745" lon="2.30074">
        <ele>27.6</ele>
        <time>2022-04-11T08:24:36Z</time>
      </trkpt>
      <trkpt lat="49.89747" lon="2.30075">
        <ele>27.6</ele>
        <time>2022-04-11T08:24:37Z</time>
      </trkpt>
      <trkpt lat="49.89748" lon="2.30076">
        <ele>27.6</ele>
        <time>2022-04-11T08:24:38Z</time>
      </trkpt>
      <trkpt lat="49.8975" lon="2.30077">
        <ele>27.6</ele>
        <time>2022-04-11T08:24:39Z</time>
      </trkpt>
      <trkpt lat="49.89751" lon="2.30077">
        <ele>27.6</ele>
        <time>2022-04-11T08:24:40Z</time>
      </trkpt>
      <trkpt lat="49.89753" lon="2.30078">
        <ele>27.6</ele>
        <time>2022-04-11T08:24:41Z</time>
      </trkpt>
      <trkpt lat="49.89754" lon="2.30079">
        <ele>27.6</ele>
        <time>2022-04-11T08:24:42Z</time>
      </trkpt>
      <trkpt lat="49.89755" lon="2.30079">
        <ele>27.6</ele>
        <time>2022-04-11T08:24:43Z</time>
      </trkpt>
      <trkpt lat="49.89756" lon="2.30079">
        <ele>27.6</ele>
        <time>2022-04-11T08:24:44Z</time>
      </trkpt>
      <trkpt lat="49.89757" lon="2.3008">
        <ele>27.6</ele>
        <time>2022-04-11T08:24:45Z</time>
      </trkpt>
      <trkpt lat="49.89757" lon="2.3008">
        <ele>27.6</ele>
        <time>2022-04-11T08:24:47Z</time>
      </trkpt>
      <trkpt lat="49.89758" lon="2.30081">
        <ele>27.5</ele>
        <time>2022-04-11T08:24:48Z</time>
      </trkpt>
      <trkpt lat="49.89758" lon="2.30081">
        <ele>27.5</ele>
        <time>2022-04-11T08:24:49Z</time>
      </trkpt>
      <trkpt lat="49.89758" lon="2.30082">
        <ele>27.5</ele>
        <time>2022-04-11T08:24:50Z</time>
      </trkpt>
      <trkpt lat="49.89758" lon="2.30082">
        <ele>27.5</ele>
        <time>2022-04-11T08:24:51Z</time>
      </trkpt>
      <trkpt lat="49.8976" lon="2.30083">
        <ele>27.5</ele>
        <time>2022-04-11T08:24:52Z</time>
      </trkpt>
      <trkpt lat="49.89761" lon="2.30083">
        <ele>27.5</ele>
        <time>2022-04-11T08:24:53Z</time>
      </trkpt>
      <trkpt lat="49.89761" lon="2.30083">
        <ele>27.5</ele>
        <time>2022-04-11T08:24:54Z</time>
      </trkpt>
      <trkpt lat="49.89762" lon="2.30084">
        <ele>27.5</ele>
        <time>2022-04-11T08:24:55Z</time>
      </trkpt>
      <trkpt lat="49.89763" lon="2.30084">
        <ele>27.5</ele>
        <time>2022-04-11T08:24:56Z</time>
      </trkpt>
      <trkpt lat="49.89763" lon="2.30084">
        <ele>27.5</ele>
        <time>2022-04-11T08:24:57Z</time>
      </trkpt>
      <trkpt lat="49.89764" lon="2.30084">
        <ele>27.5</ele>
        <time>2022-04-11T08:24:59Z</time>
      </trkpt>
      <trkpt lat="49.89765" lon="2.30084">
        <ele>27.5</ele>
        <time>2022-04-11T08:25:00Z</time>
      </trkpt>
      <trkpt lat="49.89766" lon="2.30084">
        <ele>27.5</ele>
        <time>2022-04-11T08:25:01Z</time>
      </trkpt>
      <trkpt lat="49.89767" lon="2.30084">
        <ele>27.5</ele>
        <time>2022-04-11T08:25:02Z</time>
      </trkpt>
      <trkpt lat="49.89768" lon="2.30083">
        <ele>27.5</ele>
        <time>2022-04-11T08:25:03Z</time>
      </trkpt>
      <trkpt lat="49.89771" lon="2.30083">
        <ele>27.5</ele>
        <time>2022-04-11T08:25:04Z</time>
      </trkpt>
      <trkpt lat="49.89772" lon="2.30083">
        <ele>27.5</ele>
        <time>2022-04-11T08:25:05Z</time>
      </trkpt>
      <trkpt lat="49.89774" lon="2.30083">
        <ele>27.4</ele>
        <time>2022-04-11T08:25:06Z</time>
      </trkpt>
      <trkpt lat="49.89775" lon="2.30084">
        <ele>27.4</ele>
        <time>2022-04-11T08:25:07Z</time>
      </trkpt>
      <trkpt lat="49.89778" lon="2.30083">
        <ele>27.4</ele>
        <time>2022-04-11T08:25:08Z</time>
      </trkpt>
      <trkpt lat="49.89779" lon="2.30083">
        <ele>27.4</ele>
        <time>2022-04-11T08:25:09Z</time>
      </trkpt>
      <trkpt lat="49.89783" lon="2.30083">
        <ele>27.4</ele>
        <time>2022-04-11T08:25:11Z</time>
      </trkpt>
      <trkpt lat="49.89785" lon="2.30083">
        <ele>27.4</ele>
        <time>2022-04-11T08:25:12Z</time>
      </trkpt>
      <trkpt lat="49.89788" lon="2.30082">
        <ele>27.4</ele>
        <time>2022-04-11T08:25:13Z</time>
      </trkpt>
      <trkpt lat="49.89789" lon="2.30082">
        <ele>27.4</ele>
        <time>2022-04-11T08:25:14Z</time>
      </trkpt>
      <trkpt lat="49.89792" lon="2.30081">
        <ele>27.4</ele>
        <time>2022-04-11T08:25:15Z</time>
      </trkpt>
      <trkpt lat="49.89793" lon="2.30081">
        <ele>27.3</ele>
        <time>2022-04-11T08:25:16Z</time>
      </trkpt>
      <trkpt lat="49.89795" lon="2.3008">
        <ele>27.3</ele>
        <time>2022-04-11T08:25:17Z</time>
      </trkpt>
      <trkpt lat="49.89796" lon="2.30079">
        <ele>27.3</ele>
        <time>2022-04-11T08:25:18Z</time>
      </trkpt>
      <trkpt lat="49.89797" lon="2.30078">
        <ele>27.3</ele>
        <time>2022-04-11T08:25:19Z</time>
      </trkpt>
      <trkpt lat="49.89798" lon="2.30077">
        <ele>27.3</ele>
        <time>2022-04-11T08:25:21Z</time>
      </trkpt>
      <trkpt lat="49.898" lon="2.30076">
        <ele>27.3</ele>
        <time>2022-04-11T08:25:22Z</time>
      </trkpt>
      <trkpt lat="49.89801" lon="2.30075">
        <ele>27.3</ele>
        <time>2022-04-11T08:25:23Z</time>
      </trkpt>
      <trkpt lat="49.89802" lon="2.30073">
        <ele>27.3</ele>
        <time>2022-04-11T08:25:24Z</time>
      </trkpt>
      <trkpt lat="49.89803" lon="2.30072">
        <ele>27.3</ele>
        <time>2022-04-11T08:25:25Z</time>
      </trkpt>
      <trkpt lat="49.89804" lon="2.30068">
        <ele>27.3</ele>
        <time>2022-04-11T08:25:26Z</time>
      </trkpt>
      <trkpt lat="49.89805" lon="2.30066">
        <ele>27.3</ele>
        <time>2022-04-11T08:25:27Z</time>
      </trkpt>
      <trkpt lat="49.89806" lon="2.30064">
        <ele>27.3</ele>
        <time>2022-04-11T08:25:28Z</time>
      </trkpt>
      <trkpt lat="49.89806" lon="2.30062">
        <ele>27.3</ele>
        <time>2022-04-11T08:25:29Z</time>
      </trkpt>
      <trkpt lat="49.89807" lon="2.3006">
        <ele>27.2</ele>
        <time>2022-04-11T08:25:31Z</time>
      </trkpt>
      <trkpt lat="49.89808" lon="2.30058">
        <ele>27.2</ele>
        <time>2022-04-11T08:25:32Z</time>
      </trkpt>
      <trkpt lat="49.89809" lon="2.30057">
        <ele>27.2</ele>
        <time>2022-04-11T08:25:33Z</time>
      </trkpt>
      <trkpt lat="49.8981" lon="2.30056">
        <ele>27.2</ele>
        <time>2022-04-11T08:25:34Z</time>
      </trkpt>
      <trkpt lat="49.89811" lon="2.30055">
        <ele>27.2</ele>
        <time>2022-04-11T08:25:35Z</time>
      </trkpt>
      <trkpt lat="49.89812" lon="2.30054">
        <ele>27.2</ele>
        <time>2022-04-11T08:25:36Z</time>
      </trkpt>
      <trkpt lat="49.89814" lon="2.30054">
        <ele>27.2</ele>
        <time>2022-04-11T08:25:37Z</time>
      </trkpt>
      <trkpt lat="49.89815" lon="2.30054">
        <ele>27.2</ele>
        <time>2022-04-11T08:25:39Z</time>
      </trkpt>
      <trkpt lat="49.89817" lon="2.30054">
        <ele>27.2</ele>
        <time>2022-04-11T08:25:40Z</time>
      </trkpt>
      <trkpt lat="49.8982" lon="2.30054">
        <ele>27.1</ele>
        <time>2022-04-11T08:25:41Z</time>
      </trkpt>
      <trkpt lat="49.89821" lon="2.30054">
        <ele>27.1</ele>
        <time>2022-04-11T08:25:42Z</time>
      </trkpt>
      <trkpt lat="49.89824" lon="2.30054">
        <ele>27.1</ele>
        <time>2022-04-11T08:25:43Z</time>
      </trkpt>
      <trkpt lat="49.89825" lon="2.30055">
        <ele>27.1</ele>
        <time>2022-04-11T08:25:44Z</time>
      </trkpt>
      <trkpt lat="49.89827" lon="2.30055">
        <ele>27.1</ele>
        <time>2022-04-11T08:25:45Z</time>
      </trkpt>
      <trkpt lat="49.89829" lon="2.30056">
        <ele>27</ele>
        <time>2022-04-11T08:25:46Z</time>
      </trkpt>
      <trkpt lat="49.8983" lon="2.30057">
        <ele>27</ele>
        <time>2022-04-11T08:25:47Z</time>
      </trkpt>
      <trkpt lat="49.89831" lon="2.30058">
        <ele>27</ele>
        <time>2022-04-11T08:25:49Z</time>
      </trkpt>
      <trkpt lat="49.89833" lon="2.30059">
        <ele>27</ele>
        <time>2022-04-11T08:25:50Z</time>
      </trkpt>
      <trkpt lat="49.89834" lon="2.3006">
        <ele>27</ele>
        <time>2022-04-11T08:25:51Z</time>
      </trkpt>
      <trkpt lat="49.89835" lon="2.30061">
        <ele>27</ele>
        <time>2022-04-11T08:25:52Z</time>
      </trkpt>
      <trkpt lat="49.89837" lon="2.30062">
        <ele>27</ele>
        <time>2022-04-11T08:25:53Z</time>
      </trkpt>
      <trkpt lat="49.89839" lon="2.30062">
        <ele>27</ele>
        <time>2022-04-11T08:25:54Z</time>
      </trkpt>
      <trkpt lat="49.8984" lon="2.30063">
        <ele>27</ele>
        <time>2022-04-11T08:25:55Z</time>
      </trkpt>
      <trkpt lat="49.89841" lon="2.30064">
        <ele>26.9</ele>
        <time>2022-04-11T08:25:56Z</time>
      </trkpt>
      <trkpt lat="49.89842" lon="2.30065">
        <ele>26.9</ele>
        <time>2022-04-11T08:25:57Z</time>
      </trkpt>
      <trkpt lat="49.89842" lon="2.30066">
        <ele>26.9</ele>
        <time>2022-04-11T08:25:58Z</time>
      </trkpt>
      <trkpt lat="49.89841" lon="2.30067">
        <ele>26.9</ele>
        <time>2022-04-11T08:26:00Z</time>
      </trkpt>
      <trkpt lat="49.89842" lon="2.30068">
        <ele>26.9</ele>
        <time>2022-04-11T08:26:01Z</time>
      </trkpt>
      <trkpt lat="49.89842" lon="2.30068">
        <ele>26.9</ele>
        <time>2022-04-11T08:26:02Z</time>
      </trkpt>
      <trkpt lat="49.89843" lon="2.30068">
        <ele>26.9</ele>
        <time>2022-04-11T08:26:03Z</time>
      </trkpt>
      <trkpt lat="49.89845" lon="2.30068">
        <ele>26.9</ele>
        <time>2022-04-11T08:26:04Z</time>
      </trkpt>
      <trkpt lat="49.89846" lon="2.30068">
        <ele>26.9</ele>
        <time>2022-04-11T08:26:05Z</time>
      </trkpt>
      <trkpt lat="49.89847" lon="2.30069">
        <ele>26.9</ele>
        <time>2022-04-11T08:26:06Z</time>
      </trkpt>
      <trkpt lat="49.89848" lon="2.30069">
        <ele>26.9</ele>
        <time>2022-04-11T08:26:07Z</time>
      </trkpt>
      <trkpt lat="49.89849" lon="2.30069">
        <ele>26.9</ele>
        <time>2022-04-11T08:26:08Z</time>
      </trkpt>
      <trkpt lat="49.8985" lon="2.30069">
        <ele>26.9</ele>
        <time>2022-04-11T08:26:10Z</time>
      </trkpt>
      <trkpt lat="49.89851" lon="2.30069">
        <ele>26.9</ele>
        <time>2022-04-11T08:26:11Z</time>
      </trkpt>
      <trkpt lat="49.89853" lon="2.3007">
        <ele>26.8</ele>
        <time>2022-04-11T08:26:12Z</time>
      </trkpt>
      <trkpt lat="49.89854" lon="2.3007">
        <ele>26.8</ele>
        <time>2022-04-11T08:26:13Z</time>
      </trkpt>
      <trkpt lat="49.89855" lon="2.30071">
        <ele>26.8</ele>
        <time>2022-04-11T08:26:14Z</time>
      </trkpt>
      <trkpt lat="49.89857" lon="2.30072">
        <ele>26.8</ele>
        <time>2022-04-11T08:26:15Z</time>
      </trkpt>
      <trkpt lat="49.89858" lon="2.30072">
        <ele>26.8</ele>
        <time>2022-04-11T08:26:16Z</time>
      </trkpt>
      <trkpt lat="49.89859" lon="2.30073">
        <ele>26.8</ele>
        <time>2022-04-11T08:26:17Z</time>
      </trkpt>
      <trkpt lat="49.8986" lon="2.30073">
        <ele>26.8</ele>
        <time>2022-04-11T08:26:18Z</time>
      </trkpt>
      <trkpt lat="49.89861" lon="2.30074">
        <ele>26.8</ele>
        <time>2022-04-11T08:26:20Z</time>
      </trkpt>
      <trkpt lat="49.89863" lon="2.30074">
        <ele>26.8</ele>
        <time>2022-04-11T08:26:21Z</time>
      </trkpt>
      <trkpt lat="49.89865" lon="2.30075">
        <ele>26.8</ele>
        <time>2022-04-11T08:26:22Z</time>
      </trkpt>
      <trkpt lat="49.89865" lon="2.30075">
        <ele>26.8</ele>
        <time>2022-04-11T08:26:23Z</time>
      </trkpt>
      <trkpt lat="49.89866" lon="2.30075">
        <ele>26.8</ele>
        <time>2022-04-11T08:26:24Z</time>
      </trkpt>
      <trkpt lat="49.89867" lon="2.30075">
        <ele>26.8</ele>
        <time>2022-04-11T08:26:25Z</time>
      </trkpt>
      <trkpt lat="49.89869" lon="2.30075">
        <ele>26.8</ele>
        <time>2022-04-11T08:26:26Z</time>
      </trkpt>
      <trkpt lat="49.8987" lon="2.30076">
        <ele>26.8</ele>
        <time>2022-04-11T08:26:27Z</time>
      </trkpt>
      <trkpt lat="49.89872" lon="2.30076">
        <ele>26.8</ele>
        <time>2022-04-11T08:26:28Z</time>
      </trkpt>
      <trkpt lat="49.89873" lon="2.30076">
        <ele>26.7</ele>
        <time>2022-04-11T08:26:29Z</time>
      </trkpt>
      <trkpt lat="49.89875" lon="2.30075">
        <ele>26.7</ele>
        <time>2022-04-11T08:26:31Z</time>
      </trkpt>
      <trkpt lat="49.89876" lon="2.30075">
        <ele>26.7</ele>
        <time>2022-04-11T08:26:32Z</time>
      </trkpt>
      <trkpt lat="49.89877" lon="2.30075">
        <ele>26.7</ele>
        <time>2022-04-11T08:26:33Z</time>
      </trkpt>
      <trkpt lat="49.89879" lon="2.30075">
        <ele>26.7</ele>
        <time>2022-04-11T08:26:34Z</time>
      </trkpt>
      <trkpt lat="49.8988" lon="2.30074">
        <ele>26.7</ele>
        <time>2022-04-11T08:26:35Z</time>
      </trkpt>
      <trkpt lat="49.89882" lon="2.30074">
        <ele>26.7</ele>
        <time>2022-04-11T08:26:37Z</time>
      </trkpt>
      <trkpt lat="49.89883" lon="2.30074">
        <ele>26.7</ele>
        <time>2022-04-11T08:26:38Z</time>
      </trkpt>
      <trkpt lat="49.89885" lon="2.30073">
        <ele>26.7</ele>
        <time>2022-04-11T08:26:39Z</time>
      </trkpt>
      <trkpt lat="49.89885" lon="2.30073">
        <ele>26.7</ele>
        <time>2022-04-11T08:26:40Z</time>
      </trkpt>
      <trkpt lat="49.89886" lon="2.30073">
        <ele>26.7</ele>
        <time>2022-04-11T08:26:41Z</time>
      </trkpt>
      <trkpt lat="49.89887" lon="2.30073">
        <ele>26.7</ele>
        <time>2022-04-11T08:26:42Z</time>
      </trkpt>
      <trkpt lat="49.89888" lon="2.30073">
        <ele>26.7</ele>
        <time>2022-04-11T08:26:43Z</time>
      </trkpt>
      <trkpt lat="49.89889" lon="2.30074">
        <ele>26.7</ele>
        <time>2022-04-11T08:26:44Z</time>
      </trkpt>
      <trkpt lat="49.8989" lon="2.30074">
        <ele>26.7</ele>
        <time>2022-04-11T08:26:45Z</time>
      </trkpt>
      <trkpt lat="49.8989" lon="2.30074">
        <ele>26.7</ele>
        <time>2022-04-11T08:26:46Z</time>
      </trkpt>
      <trkpt lat="49.89891" lon="2.30074">
        <ele>26.7</ele>
        <time>2022-04-11T08:26:48Z</time>
      </trkpt>
      <trkpt lat="49.89892" lon="2.30074">
        <ele>26.7</ele>
        <time>2022-04-11T08:26:49Z</time>
      </trkpt>
      <trkpt lat="49.89893" lon="2.30074">
        <ele>26.7</ele>
        <time>2022-04-11T08:26:50Z</time>
      </trkpt>
      <trkpt lat="49.89894" lon="2.30074">
        <ele>26.7</ele>
        <time>2022-04-11T08:26:51Z</time>
      </trkpt>
      <trkpt lat="49.89895" lon="2.30074">
        <ele>26.7</ele>
        <time>2022-04-11T08:26:52Z</time>
      </trkpt>
      <trkpt lat="49.89897" lon="2.30074">
        <ele>26.7</ele>
        <time>2022-04-11T08:26:53Z</time>
      </trkpt>
      <trkpt lat="49.89898" lon="2.30074">
        <ele>26.7</ele>
        <time>2022-04-11T08:26:54Z</time>
      </trkpt>
      <trkpt lat="49.89899" lon="2.30073">
        <ele>26.7</ele>
        <time>2022-04-11T08:26:55Z</time>
      </trkpt>
      <trkpt lat="49.89901" lon="2.30072">
        <ele>26.8</ele>
        <time>2022-04-11T08:26:56Z</time>
      </trkpt>
      <trkpt lat="49.89902" lon="2.30071">
        <ele>26.8</ele>
        <time>2022-04-11T08:26:58Z</time>
      </trkpt>
      <trkpt lat="49.89902" lon="2.30071">
        <ele>26.8</ele>
        <time>2022-04-11T08:26:59Z</time>
      </trkpt>
      <trkpt lat="49.89904" lon="2.30069">
        <ele>26.8</ele>
        <time>2022-04-11T08:27:00Z</time>
      </trkpt>
      <trkpt lat="49.89905" lon="2.30067">
        <ele>26.8</ele>
        <time>2022-04-11T08:27:01Z</time>
      </trkpt>
      <trkpt lat="49.89905" lon="2.30066">
        <ele>26.8</ele>
        <time>2022-04-11T08:27:02Z</time>
      </trkpt>
      <trkpt lat="49.89907" lon="2.30066">
        <ele>26.8</ele>
        <time>2022-04-11T08:27:03Z</time>
      </trkpt>
      <trkpt lat="49.89909" lon="2.30065">
        <ele>26.8</ele>
        <time>2022-04-11T08:27:05Z</time>
      </trkpt>
      <trkpt lat="49.89911" lon="2.30064">
        <ele>26.8</ele>
        <time>2022-04-11T08:27:06Z</time>
      </trkpt>
      <trkpt lat="49.89912" lon="2.30064">
        <ele>26.8</ele>
        <time>2022-04-11T08:27:07Z</time>
      </trkpt>
      <trkpt lat="49.89913" lon="2.30064">
        <ele>26.9</ele>
        <time>2022-04-11T08:27:08Z</time>
      </trkpt>
      <trkpt lat="49.89914" lon="2.30063">
        <ele>26.9</ele>
        <time>2022-04-11T08:27:09Z</time>
      </trkpt>
      <trkpt lat="49.89915" lon="2.30063">
        <ele>26.9</ele>
        <time>2022-04-11T08:27:10Z</time>
      </trkpt>
      <trkpt lat="49.89916" lon="2.30062">
        <ele>26.9</ele>
        <time>2022-04-11T08:27:11Z</time>
      </trkpt>
      <trkpt lat="49.89917" lon="2.30061">
        <ele>26.9</ele>
        <time>2022-04-11T08:27:12Z</time>
      </trkpt>
      <trkpt lat="49.89919" lon="2.30059">
        <ele>26.9</ele>
        <time>2022-04-11T08:27:13Z</time>
      </trkpt>
      <trkpt lat="49.8992" lon="2.30059">
        <ele>26.9</ele>
        <time>2022-04-11T08:27:14Z</time>
      </trkpt>
      <trkpt lat="49.89921" lon="2.30058">
        <ele>26.9</ele>
        <time>2022-04-11T08:27:15Z</time>
      </trkpt>
      <trkpt lat="49.89923" lon="2.30057">
        <ele>27</ele>
        <time>2022-04-11T08:27:16Z</time>
      </trkpt>
      <trkpt lat="49.89924" lon="2.30057">
        <ele>27</ele>
        <time>2022-04-11T08:27:17Z</time>
      </trkpt>
      <trkpt lat="49.89925" lon="2.30056">
        <ele>27</ele>
        <time>2022-04-11T08:27:19Z</time>
      </trkpt>
      <trkpt lat="49.89927" lon="2.30055">
        <ele>27</ele>
        <time>2022-04-11T08:27:20Z</time>
      </trkpt>
      <trkpt lat="49.89929" lon="2.30054">
        <ele>27</ele>
        <time>2022-04-11T08:27:21Z</time>
      </trkpt>
      <trkpt lat="49.89929" lon="2.30054">
        <ele>27</ele>
        <time>2022-04-11T08:27:22Z</time>
      </trkpt>
      <trkpt lat="49.8993" lon="2.30054">
        <ele>27</ele>
        <time>2022-04-11T08:27:23Z</time>
      </trkpt>
      <trkpt lat="49.89932" lon="2.30053">
        <ele>27</ele>
        <time>2022-04-11T08:27:24Z</time>
      </trkpt>
      <trkpt lat="49.89933" lon="2.30052">
        <ele>27</ele>
        <time>2022-04-11T08:27:25Z</time>
      </trkpt>
      <trkpt lat="49.89934" lon="2.30052">
        <ele>27.1</ele>
        <time>2022-04-11T08:27:26Z</time>
      </trkpt>
      <trkpt lat="49.89936" lon="2.30051">
        <ele>27.1</ele>
        <time>2022-04-11T08:27:27Z</time>
      </trkpt>
      <trkpt lat="49.89937" lon="2.30051">
        <ele>27.1</ele>
        <time>2022-04-11T08:27:29Z</time>
      </trkpt>
      <trkpt lat="49.89938" lon="2.30051">
        <ele>27.1</ele>
        <time>2022-04-11T08:27:30Z</time>
      </trkpt>
      <trkpt lat="49.8994" lon="2.3005">
        <ele>27.1</ele>
        <time>2022-04-11T08:27:31Z</time>
      </trkpt>
      <trkpt lat="49.89941" lon="2.30049">
        <ele>27.1</ele>
        <time>2022-04-11T08:27:32Z</time>
      </trkpt>
      <trkpt lat="49.89942" lon="2.30049">
        <ele>27.1</ele>
        <time>2022-04-11T08:27:33Z</time>
      </trkpt>
      <trkpt lat="49.89944" lon="2.30048">
        <ele>27.1</ele>
        <time>2022-04-11T08:27:34Z</time>
      </trkpt>
      <trkpt lat="49.89945" lon="2.30047">
        <ele>27.1</ele>
        <time>2022-04-11T08:27:35Z</time>
      </trkpt>
      <trkpt lat="49.89946" lon="2.30047">
        <ele>27.1</ele>
        <time>2022-04-11T08:27:36Z</time>
      </trkpt>
      <trkpt lat="49.89946" lon="2.30046">
        <ele>27.1</ele>
        <time>2022-04-11T08:27:38Z</time>
      </trkpt>
      <trkpt lat="49.89947" lon="2.30046">
        <ele>27.1</ele>
        <time>2022-04-11T08:27:39Z</time>
      </trkpt>
      <trkpt lat="49.89948" lon="2.30045">
        <ele>27.1</ele>
        <time>2022-04-11T08:27:40Z</time>
      </trkpt>
      <trkpt lat="49.89949" lon="2.30044">
        <ele>27.1</ele>
        <time>2022-04-11T08:27:41Z</time>
      </trkpt>
      <trkpt lat="49.8995" lon="2.30044">
        <ele>27.1</ele>
        <time>2022-04-11T08:27:42Z</time>
      </trkpt>
      <trkpt lat="49.89951" lon="2.30044">
        <ele>27.1</ele>
        <time>2022-04-11T08:27:43Z</time>
      </trkpt>
      <trkpt lat="49.89953" lon="2.30043">
        <ele>27.1</ele>
        <time>2022-04-11T08:27:44Z</time>
      </trkpt>
      <trkpt lat="49.89954" lon="2.30042">
        <ele>27.2</ele>
        <time>2022-04-11T08:27:45Z</time>
      </trkpt>
      <trkpt lat="49.89956" lon="2.30041">
        <ele>27.2</ele>
        <time>2022-04-11T08:27:46Z</time>
      </trkpt>
      <trkpt lat="49.89958" lon="2.3004">
        <ele>27.2</ele>
        <time>2022-04-11T08:27:48Z</time>
      </trkpt>
      <trkpt lat="49.89961" lon="2.30039">
        <ele>27.2</ele>
        <time>2022-04-11T08:27:49Z</time>
      </trkpt>
      <trkpt lat="49.89962" lon="2.30038">
        <ele>27.2</ele>
        <time>2022-04-11T08:27:50Z</time>
      </trkpt>
      <trkpt lat="49.89963" lon="2.30037">
        <ele>27.2</ele>
        <time>2022-04-11T08:27:51Z</time>
      </trkpt>
      <trkpt lat="49.89965" lon="2.30036">
        <ele>27.2</ele>
        <time>2022-04-11T08:27:53Z</time>
      </trkpt>
      <trkpt lat="49.89966" lon="2.30035">
        <ele>27.2</ele>
        <time>2022-04-11T08:27:54Z</time>
      </trkpt>
      <trkpt lat="49.89968" lon="2.30034">
        <ele>27.2</ele>
        <time>2022-04-11T08:27:56Z</time>
      </trkpt>
      <trkpt lat="49.89967" lon="2.30035">
        <ele>27.2</ele>
        <time>2022-04-11T08:27:57Z</time>
      </trkpt>
      <trkpt lat="49.89967" lon="2.30035">
        <ele>27.2</ele>
        <time>2022-04-11T08:27:58Z</time>
      </trkpt>
      <trkpt lat="49.89967" lon="2.30035">
        <ele>27.2</ele>
        <time>2022-04-11T08:27:59Z</time>
      </trkpt>
      <trkpt lat="49.89967" lon="2.30035">
        <ele>27.2</ele>
        <time>2022-04-11T08:28:00Z</time>
      </trkpt>
      <trkpt lat="49.89967" lon="2.30035">
        <ele>27.2</ele>
        <time>2022-04-11T08:28:01Z</time>
      </trkpt>
      <trkpt lat="49.89966" lon="2.30035">
        <ele>27.2</ele>
        <time>2022-04-11T08:28:02Z</time>
      </trkpt>
      <trkpt lat="49.89965" lon="2.30034">
        <ele>27.2</ele>
        <time>2022-04-11T08:28:03Z</time>
      </trkpt>
      <trkpt lat="49.89965" lon="2.30034">
        <ele>27.2</ele>
        <time>2022-04-11T08:28:04Z</time>
      </trkpt>
      <trkpt lat="49.89965" lon="2.30034">
        <ele>27.2</ele>
        <time>2022-04-11T08:28:05Z</time>
      </trkpt>
      <trkpt lat="49.89964" lon="2.30034">
        <ele>27.2</ele>
        <time>2022-04-11T08:28:06Z</time>
      </trkpt>
      <trkpt lat="49.89964" lon="2.30034">
        <ele>27.2</ele>
        <time>2022-04-11T08:28:07Z</time>
      </trkpt>
      <trkpt lat="49.89964" lon="2.30034">
        <ele>27.2</ele>
        <time>2022-04-11T08:28:08Z</time>
      </trkpt>
      <trkpt lat="49.89964" lon="2.30034">
        <ele>27.2</ele>
        <time>2022-04-11T08:28:09Z</time>
      </trkpt>
      <trkpt lat="49.89964" lon="2.30035">
        <ele>27.2</ele>
        <time>2022-04-11T08:28:10Z</time>
      </trkpt>
      <trkpt lat="49.89964" lon="2.30035">
        <ele>27.2</ele>
        <time>2022-04-11T08:28:11Z</time>
      </trkpt>
      <trkpt lat="49.89964" lon="2.30035">
        <ele>27.2</ele>
        <time>2022-04-11T08:28:12Z</time>
      </trkpt>
      <trkpt lat="49.89964" lon="2.30035">
        <ele>27.2</ele>
        <time>2022-04-11T08:28:13Z</time>
      </trkpt>
      <trkpt lat="49.89964" lon="2.30034">
        <ele>27.2</ele>
        <time>2022-04-11T08:28:14Z</time>
      </trkpt>
      <trkpt lat="49.89963" lon="2.30034">
        <ele>27.2</ele>
        <time>2022-04-11T08:28:15Z</time>
      </trkpt>
      <trkpt lat="49.89963" lon="2.30034">
        <ele>27.2</ele>
        <time>2022-04-11T08:28:16Z</time>
      </trkpt>
      <trkpt lat="49.89963" lon="2.30034">
        <ele>27.2</ele>
        <time>2022-04-11T08:28:17Z</time>
      </trkpt>
      <trkpt lat="49.89963" lon="2.30034">
        <ele>27.2</ele>
        <time>2022-04-11T08:28:18Z</time>
      </trkpt>
      <trkpt lat="49.89963" lon="2.30034">
        <ele>27.2</ele>
        <time>2022-04-11T08:28:19Z</time>
      </trkpt>
      <trkpt lat="49.89963" lon="2.30034">
        <ele>27.2</ele>
        <time>2022-04-11T08:28:20Z</time>
      </trkpt>
      <trkpt lat="49.89963" lon="2.30034">
        <ele>27.2</ele>
        <time>2022-04-11T08:28:21Z</time>
      </trkpt>
      <trkpt lat="49.89963" lon="2.30034">
        <ele>27.2</ele>
        <time>2022-04-11T08:28:22Z</time>
      </trkpt>
      <trkpt lat="49.89963" lon="2.30034">
        <ele>27.2</ele>
        <time>2022-04-11T08:28:23Z</time>
      </trkpt>
      <trkpt lat="49.89963" lon="2.30034">
        <ele>27.2</ele>
        <time>2022-04-11T08:28:24Z</time>
      </trkpt>
      <trkpt lat="49.89963" lon="2.30034">
        <ele>27.2</ele>
        <time>2022-04-11T08:28:25Z</time>
      </trkpt>
      <trkpt lat="49.89963" lon="2.30034">
        <ele>27.2</ele>
        <time>2022-04-11T08:28:26Z</time>
      </trkpt>
      <trkpt lat="49.89963" lon="2.30034">
        <ele>27.2</ele>
        <time>2022-04-11T08:28:27Z</time>
      </trkpt>
      <trkpt lat="49.89963" lon="2.30034">
        <ele>27.2</ele>
        <time>2022-04-11T08:28:28Z</time>
      </trkpt>
      <trkpt lat="49.89963" lon="2.30034">
        <ele>27.2</ele>
        <time>2022-04-11T08:28:29Z</time>
      </trkpt>
      <trkpt lat="49.89963" lon="2.30034">
        <ele>27.2</ele>
        <time>2022-04-11T08:28:30Z</time>
      </trkpt>
      <trkpt lat="49.89963" lon="2.30034">
        <ele>27.2</ele>
        <time>2022-04-11T08:28:31Z</time>
      </trkpt>
      <trkpt lat="49.89963" lon="2.30034">
        <ele>27.2</ele>
        <time>2022-04-11T08:28:32Z</time>
      </trkpt>
      <trkpt lat="49.89963" lon="2.30034">
        <ele>27.2</ele>
        <time>2022-04-11T08:28:33Z</time>
      </trkpt>
      <trkpt lat="49.89963" lon="2.30034">
        <ele>27.2</ele>
        <time>2022-04-11T08:28:34Z</time>
      </trkpt>
      <trkpt lat="49.89963" lon="2.30034">
        <ele>27.2</ele>
        <time>2022-04-11T08:28:35Z</time>
      </trkpt>
      <trkpt lat="49.89963" lon="2.30034">
        <ele>27.2</ele>
        <time>2022-04-11T08:28:36Z</time>
      </trkpt>
      <trkpt lat="49.89963" lon="2.30034">
        <ele>27.2</ele>
        <time>2022-04-11T08:28:37Z</time>
      </trkpt>
      <trkpt lat="49.89963" lon="2.30034">
        <ele>27.2</ele>
        <time>2022-04-11T08:28:38Z</time>
      </trkpt>
      <trkpt lat="49.89963" lon="2.30034">
        <ele>27.2</ele>
        <time>2022-04-11T08:28:39Z</time>
      </trkpt>
      <trkpt lat="49.89963" lon="2.30034">
        <ele>27.2</ele>
        <time>2022-04-11T08:28:40Z</time>
      </trkpt>
      <trkpt lat="49.89963" lon="2.30034">
        <ele>27.2</ele>
        <time>2022-04-11T08:28:41Z</time>
      </trkpt>
      <trkpt lat="49.89963" lon="2.30034">
        <ele>27.2</ele>
        <time>2022-04-11T08:28:42Z</time>
      </trkpt>
      <trkpt lat="49.89963" lon="2.30034">
        <ele>27.2</ele>
        <time>2022-04-11T08:28:43Z</time>
      </trkpt>
      <trkpt lat="49.89963" lon="2.30034">
        <ele>27.2</ele>
        <time>2022-04-11T08:28:44Z</time>
      </trkpt>
      <trkpt lat="49.89963" lon="2.30034">
        <ele>27.2</ele>
        <time>2022-04-11T08:28:45Z</time>
      </trkpt>
      <trkpt lat="49.89963" lon="2.30034">
        <ele>27.2</ele>
        <time>2022-04-11T08:28:46Z</time>
      </trkpt>
      <trkpt lat="49.89963" lon="2.30034">
        <ele>27.2</ele>
        <time>2022-04-11T08:28:47Z</time>
      </trkpt>
      <trkpt lat="49.89963" lon="2.30034">
        <ele>27.2</ele>
        <time>2022-04-11T08:28:48Z</time>
      </trkpt>
      <trkpt lat="49.89963" lon="2.30034">
        <ele>27.2</ele>
        <time>2022-04-11T08:28:49Z</time>
      </trkpt>
      <trkpt lat="49.89963" lon="2.30034">
        <ele>27.2</ele>
        <time>2022-04-11T08:28:50Z</time>
      </trkpt>
      <trkpt lat="49.89962" lon="2.30035">
        <ele>27.2</ele>
        <time>2022-04-11T08:28:51Z</time>
      </trkpt>
      <trkpt lat="49.8996" lon="2.30036">
        <ele>27.2</ele>
        <time>2022-04-11T08:28:52Z</time>
      </trkpt>
      <trkpt lat="49.8996" lon="2.30036">
        <ele>27.2</ele>
        <time>2022-04-11T08:28:53Z</time>
      </trkpt>
      <trkpt lat="49.8996" lon="2.30036">
        <ele>27.2</ele>
        <time>2022-04-11T08:28:54Z</time>
      </trkpt>
      <trkpt lat="49.8996" lon="2.30035">
        <ele>27.2</ele>
        <time>2022-04-11T08:28:55Z</time>
      </trkpt>
      <trkpt lat="49.89961" lon="2.30035">
        <ele>27.2</ele>
        <time>2022-04-11T08:28:56Z</time>
      </trkpt>
      <trkpt lat="49.89962" lon="2.30035">
        <ele>27.2</ele>
        <time>2022-04-11T08:28:57Z</time>
      </trkpt>
      <trkpt lat="49.89962" lon="2.30035">
        <ele>27.2</ele>
        <time>2022-04-11T08:28:58Z</time>
      </trkpt>
      <trkpt lat="49.89964" lon="2.30034">
        <ele>27.2</ele>
        <time>2022-04-11T08:28:59Z</time>
      </trkpt>
      <trkpt lat="49.89965" lon="2.30033">
        <ele>27.2</ele>
        <time>2022-04-11T08:29:01Z</time>
      </trkpt>
      <trkpt lat="49.89966" lon="2.30033">
        <ele>27.2</ele>
        <time>2022-04-11T08:29:02Z</time>
      </trkpt>
      <trkpt lat="49.89967" lon="2.30033">
        <ele>27.2</ele>
        <time>2022-04-11T08:29:03Z</time>
      </trkpt>
      <trkpt lat="49.89968" lon="2.30032">
        <ele>27.2</ele>
        <time>2022-04-11T08:29:04Z</time>
      </trkpt>
      <trkpt lat="49.8997" lon="2.30032">
        <ele>27.2</ele>
        <time>2022-04-11T08:29:05Z</time>
      </trkpt>
      <trkpt lat="49.89971" lon="2.30032">
        <ele>27.2</ele>
        <time>2022-04-11T08:29:06Z</time>
      </trkpt>
      <trkpt lat="49.89971" lon="2.30031">
        <ele>27.2</ele>
        <time>2022-04-11T08:29:07Z</time>
      </trkpt>
      <trkpt lat="49.89973" lon="2.3003">
        <ele>27.1</ele>
        <time>2022-04-11T08:29:09Z</time>
      </trkpt>
      <trkpt lat="49.89974" lon="2.3003">
        <ele>27.1</ele>
        <time>2022-04-11T08:29:10Z</time>
      </trkpt>
      <trkpt lat="49.89975" lon="2.30029">
        <ele>27.1</ele>
        <time>2022-04-11T08:29:11Z</time>
      </trkpt>
      <trkpt lat="49.89976" lon="2.30029">
        <ele>27.1</ele>
        <time>2022-04-11T08:29:12Z</time>
      </trkpt>
      <trkpt lat="49.89976" lon="2.30029">
        <ele>27</ele>
        <time>2022-04-11T08:29:13Z</time>
      </trkpt>
      <trkpt lat="49.89977" lon="2.3003">
        <ele>27</ele>
        <time>2022-04-11T08:29:14Z</time>
      </trkpt>
      <trkpt lat="49.89977" lon="2.3003">
        <ele>27</ele>
        <time>2022-04-11T08:29:15Z</time>
      </trkpt>
      <trkpt lat="49.89977" lon="2.3003">
        <ele>27</ele>
        <time>2022-04-11T08:29:16Z</time>
      </trkpt>
      <trkpt lat="49.89976" lon="2.30031">
        <ele>27</ele>
        <time>2022-04-11T08:29:17Z</time>
      </trkpt>
      <trkpt lat="49.89976" lon="2.30031">
        <ele>27</ele>
        <time>2022-04-11T08:29:18Z</time>
      </trkpt>
      <trkpt lat="49.89976" lon="2.30031">
        <ele>27</ele>
        <time>2022-04-11T08:29:19Z</time>
      </trkpt>
      <trkpt lat="49.89976" lon="2.30031">
        <ele>27</ele>
        <time>2022-04-11T08:29:20Z</time>
      </trkpt>
      <trkpt lat="49.89976" lon="2.30031">
        <ele>27</ele>
        <time>2022-04-11T08:29:21Z</time>
      </trkpt>
      <trkpt lat="49.89976" lon="2.30032">
        <ele>27</ele>
        <time>2022-04-11T08:29:22Z</time>
      </trkpt>
      <trkpt lat="49.89975" lon="2.30032">
        <ele>27</ele>
        <time>2022-04-11T08:29:23Z</time>
      </trkpt>
      <trkpt lat="49.89975" lon="2.30032">
        <ele>27</ele>
        <time>2022-04-11T08:29:24Z</time>
      </trkpt>
      <trkpt lat="49.89975" lon="2.30032">
        <ele>27</ele>
        <time>2022-04-11T08:29:25Z</time>
      </trkpt>
      <trkpt lat="49.89975" lon="2.30032">
        <ele>27</ele>
        <time>2022-04-11T08:29:26Z</time>
      </trkpt>
      <trkpt lat="49.89975" lon="2.30032">
        <ele>27</ele>
        <time>2022-04-11T08:29:27Z</time>
      </trkpt>
      <trkpt lat="49.89974" lon="2.30032">
        <ele>27</ele>
        <time>2022-04-11T08:29:28Z</time>
      </trkpt>
      <trkpt lat="49.89974" lon="2.30032">
        <ele>27</ele>
        <time>2022-04-11T08:29:29Z</time>
      </trkpt>
      <trkpt lat="49.89974" lon="2.30032">
        <ele>27</ele>
        <time>2022-04-11T08:29:30Z</time>
      </trkpt>
      <trkpt lat="49.89974" lon="2.30032">
        <ele>27</ele>
        <time>2022-04-11T08:29:31Z</time>
      </trkpt>
      <trkpt lat="49.89974" lon="2.30032">
        <ele>27</ele>
        <time>2022-04-11T08:29:32Z</time>
      </trkpt>
      <trkpt lat="49.89974" lon="2.30032">
        <ele>27</ele>
        <time>2022-04-11T08:29:33Z</time>
      </trkpt>
      <trkpt lat="49.89974" lon="2.30032">
        <ele>27</ele>
        <time>2022-04-11T08:29:34Z</time>
      </trkpt>
      <trkpt lat="49.89974" lon="2.30032">
        <ele>27</ele>
        <time>2022-04-11T08:29:35Z</time>
      </trkpt>
      <trkpt lat="49.89974" lon="2.30032">
        <ele>27</ele>
        <time>2022-04-11T08:29:36Z</time>
      </trkpt>
      <trkpt lat="49.89974" lon="2.30032">
        <ele>27</ele>
        <time>2022-04-11T08:29:37Z</time>
      </trkpt>
      <trkpt lat="49.89974" lon="2.30032">
        <ele>27</ele>
        <time>2022-04-11T08:29:38Z</time>
      </trkpt>
      <trkpt lat="49.89974" lon="2.30032">
        <ele>27</ele>
        <time>2022-04-11T08:29:39Z</time>
      </trkpt>
      <trkpt lat="49.89974" lon="2.30032">
        <ele>27</ele>
        <time>2022-04-11T08:29:40Z</time>
      </trkpt>
      <trkpt lat="49.89974" lon="2.30032">
        <ele>27</ele>
        <time>2022-04-11T08:29:41Z</time>
      </trkpt>
      <trkpt lat="49.89974" lon="2.30032">
        <ele>27</ele>
        <time>2022-04-11T08:29:42Z</time>
      </trkpt>
      <trkpt lat="49.89974" lon="2.30032">
        <ele>27</ele>
        <time>2022-04-11T08:29:43Z</time>
      </trkpt>
      <trkpt lat="49.89974" lon="2.30032">
        <ele>27</ele>
        <time>2022-04-11T08:29:44Z</time>
      </trkpt>
      <trkpt lat="49.89974" lon="2.30032">
        <ele>27</ele>
        <time>2022-04-11T08:29:45Z</time>
      </trkpt>
      <trkpt lat="49.89974" lon="2.30032">
        <ele>27</ele>
        <time>2022-04-11T08:29:46Z</time>
      </trkpt>
      <trkpt lat="49.89974" lon="2.30032">
        <ele>27</ele>
        <time>2022-04-11T08:29:47Z</time>
      </trkpt>
      <trkpt lat="49.89974" lon="2.30032">
        <ele>27</ele>
        <time>2022-04-11T08:29:48Z</time>
      </trkpt>
      <trkpt lat="49.89974" lon="2.30032">
        <ele>27</ele>
        <time>2022-04-11T08:29:49Z</time>
      </trkpt>
      <trkpt lat="49.89974" lon="2.30032">
        <ele>27</ele>
        <time>2022-04-11T08:29:50Z</time>
      </trkpt>
      <trkpt lat="49.89974" lon="2.30032">
        <ele>27</ele>
        <time>2022-04-11T08:29:51Z</time>
      </trkpt>
      <trkpt lat="49.89974" lon="2.30032">
        <ele>27</ele>
        <time>2022-04-11T08:29:52Z</time>
      </trkpt>
      <trkpt lat="49.89974" lon="2.30032">
        <ele>27</ele>
        <time>2022-04-11T08:29:53Z</time>
      </trkpt>
      <trkpt lat="49.89974" lon="2.30032">
        <ele>27</ele>
        <time>2022-04-11T08:29:54Z</time>
      </trkpt>
      <trkpt lat="49.89974" lon="2.30032">
        <ele>27</ele>
        <time>2022-04-11T08:29:55Z</time>
      </trkpt>
      <trkpt lat="49.89974" lon="2.30032">
        <ele>27</ele>
        <time>2022-04-11T08:29:56Z</time>
      </trkpt>
      <trkpt lat="49.89974" lon="2.30032">
        <ele>27</ele>
        <time>2022-04-11T08:29:57Z</time>
      </trkpt>
      <trkpt lat="49.89974" lon="2.30032">
        <ele>27</ele>
        <time>2022-04-11T08:29:58Z</time>
      </trkpt>
      <trkpt lat="49.89974" lon="2.30032">
        <ele>27</ele>
        <time>2022-04-11T08:29:59Z</time>
      </trkpt>
      <trkpt lat="49.89974" lon="2.30032">
        <ele>27</ele>
        <time>2022-04-11T08:30:00Z</time>
      </trkpt>
      <trkpt lat="49.89974" lon="2.30032">
        <ele>27</ele>
        <time>2022-04-11T08:30:01Z</time>
      </trkpt>
      <trkpt lat="49.89974" lon="2.30032">
        <ele>27</ele>
        <time>2022-04-11T08:30:02Z</time>
      </trkpt>
      <trkpt lat="49.89974" lon="2.30032">
        <ele>27</ele>
        <time>2022-04-11T08:30:03Z</time>
      </trkpt>
      <trkpt lat="49.89974" lon="2.30032">
        <ele>27</ele>
        <time>2022-04-11T08:30:04Z</time>
      </trkpt>
      <trkpt lat="49.89974" lon="2.30032">
        <ele>27</ele>
        <time>2022-04-11T08:30:05Z</time>
      </trkpt>
      <trkpt lat="49.89974" lon="2.30032">
        <ele>27</ele>
        <time>2022-04-11T08:30:06Z</time>
      </trkpt>
      <trkpt lat="49.89974" lon="2.30032">
        <ele>27</ele>
        <time>2022-04-11T08:30:07Z</time>
      </trkpt>
      <trkpt lat="49.89974" lon="2.30032">
        <ele>27</ele>
        <time>2022-04-11T08:30:08Z</time>
      </trkpt>
      <trkpt lat="49.89974" lon="2.30032">
        <ele>27</ele>
        <time>2022-04-11T08:30:09Z</time>
      </trkpt>
      <trkpt lat="49.89974" lon="2.30032">
        <ele>27</ele>
        <time>2022-04-11T08:30:10Z</time>
      </trkpt>
      <trkpt lat="49.89974" lon="2.30032">
        <ele>27</ele>
        <time>2022-04-11T08:30:11Z</time>
      </trkpt>
      <trkpt lat="49.89974" lon="2.30032">
        <ele>27</ele>
        <time>2022-04-11T08:30:12Z</time>
      </trkpt>
      <trkpt lat="49.89974" lon="2.30032">
        <ele>27</ele>
        <time>2022-04-11T08:30:13Z</time>
      </trkpt>
      <trkpt lat="49.89974" lon="2.30032">
        <ele>27</ele>
        <time>2022-04-11T08:30:14Z</time>
      </trkpt>
      <trkpt lat="49.89974" lon="2.30032">
        <ele>27</ele>
        <time>2022-04-11T08:30:15Z</time>
      </trkpt>
      <trkpt lat="49.89974" lon="2.30032">
        <ele>27</ele>
        <time>2022-04-11T08:30:16Z</time>
      </trkpt>
      <trkpt lat="49.89974" lon="2.30032">
        <ele>27</ele>
        <time>2022-04-11T08:30:17Z</time>
      </trkpt>
      <trkpt lat="49.89974" lon="2.30032">
        <ele>27</ele>
        <time>2022-04-11T08:30:18Z</time>
      </trkpt>
      <trkpt lat="49.89974" lon="2.30032">
        <ele>27</ele>
        <time>2022-04-11T08:30:19Z</time>
      </trkpt>
      <trkpt lat="49.89974" lon="2.30032">
        <ele>27</ele>
        <time>2022-04-11T08:30:20Z</time>
      </trkpt>
      <trkpt lat="49.89974" lon="2.30032">
        <ele>27</ele>
        <time>2022-04-11T08:30:21Z</time>
      </trkpt>
      <trkpt lat="49.89974" lon="2.30032">
        <ele>27</ele>
        <time>2022-04-11T08:30:22Z</time>
      </trkpt>
      <trkpt lat="49.89974" lon="2.30032">
        <ele>27</ele>
        <time>2022-04-11T08:30:23Z</time>
      </trkpt>
      <trkpt lat="49.89974" lon="2.30032">
        <ele>27</ele>
        <time>2022-04-11T08:30:24Z</time>
      </trkpt>
      <trkpt lat="49.89974" lon="2.30032">
        <ele>27</ele>
        <time>2022-04-11T08:30:25Z</time>
      </trkpt>
      <trkpt lat="49.89974" lon="2.30032">
        <ele>27</ele>
        <time>2022-04-11T08:30:26Z</time>
      </trkpt>
      <trkpt lat="49.89974" lon="2.30032">
        <ele>27</ele>
        <time>2022-04-11T08:30:27Z</time>
      </trkpt>
      <trkpt lat="49.89974" lon="2.30032">
        <ele>27</ele>
        <time>2022-04-11T08:30:28Z</time>
      </trkpt>
      <trkpt lat="49.89974" lon="2.30032">
        <ele>27</ele>
        <time>2022-04-11T08:30:29Z</time>
      </trkpt>
      <trkpt lat="49.89974" lon="2.30032">
        <ele>27</ele>
        <time>2022-04-11T08:30:30Z</time>
      </trkpt>
      <trkpt lat="49.89974" lon="2.30032">
        <ele>27</ele>
        <time>2022-04-11T08:30:31Z</time>
      </trkpt>
      <trkpt lat="49.89974" lon="2.30032">
        <ele>27</ele>
        <time>2022-04-11T08:30:32Z</time>
      </trkpt>
      <trkpt lat="49.89974" lon="2.30032">
        <ele>27</ele>
        <time>2022-04-11T08:30:33Z</time>
      </trkpt>
      <trkpt lat="49.89975" lon="2.30031">
        <ele>27</ele>
        <time>2022-04-11T08:30:34Z</time>
      </trkpt>
      <trkpt lat="49.89976" lon="2.30031">
        <ele>27</ele>
        <time>2022-04-11T08:30:35Z</time>
      </trkpt>
      <trkpt lat="49.89976" lon="2.30031">
        <ele>27</ele>
        <time>2022-04-11T08:30:36Z</time>
      </trkpt>
      <trkpt lat="49.89976" lon="2.30031">
        <ele>27</ele>
        <time>2022-04-11T08:30:37Z</time>
      </trkpt>
      <trkpt lat="49.89976" lon="2.30031">
        <ele>27</ele>
        <time>2022-04-11T08:30:38Z</time>
      </trkpt>
      <trkpt lat="49.89977" lon="2.30031">
        <ele>27</ele>
        <time>2022-04-11T08:30:39Z</time>
      </trkpt>
      <trkpt lat="49.89977" lon="2.3003">
        <ele>26.9</ele>
        <time>2022-04-11T08:30:40Z</time>
      </trkpt>
      <trkpt lat="49.89976" lon="2.3003">
        <ele>26.9</ele>
        <time>2022-04-11T08:30:41Z</time>
      </trkpt>
      <trkpt lat="49.89976" lon="2.30029">
        <ele>26.9</ele>
        <time>2022-04-11T08:30:43Z</time>
      </trkpt>
      <trkpt lat="49.89976" lon="2.30029">
        <ele>26.9</ele>
        <time>2022-04-11T08:30:44Z</time>
      </trkpt>
      <trkpt lat="49.89976" lon="2.30029">
        <ele>26.9</ele>
        <time>2022-04-11T08:30:45Z</time>
      </trkpt>
      <trkpt lat="49.89976" lon="2.30029">
        <ele>26.9</ele>
        <time>2022-04-11T08:30:46Z</time>
      </trkpt>
      <trkpt lat="49.89976" lon="2.3003">
        <ele>26.9</ele>
        <time>2022-04-11T08:30:47Z</time>
      </trkpt>
      <trkpt lat="49.89975" lon="2.3003">
        <ele>26.9</ele>
        <time>2022-04-11T08:30:48Z</time>
      </trkpt>
      <trkpt lat="49.89975" lon="2.3003">
        <ele>26.9</ele>
        <time>2022-04-11T08:30:49Z</time>
      </trkpt>
      <trkpt lat="49.89975" lon="2.3003">
        <ele>26.9</ele>
        <time>2022-04-11T08:30:50Z</time>
      </trkpt>
      <trkpt lat="49.89975" lon="2.3003">
        <ele>26.9</ele>
        <time>2022-04-11T08:30:51Z</time>
      </trkpt>
      <trkpt lat="49.89975" lon="2.30031">
        <ele>26.9</ele>
        <time>2022-04-11T08:30:52Z</time>
      </trkpt>
      <trkpt lat="49.89975" lon="2.30031">
        <ele>26.9</ele>
        <time>2022-04-11T08:30:53Z</time>
      </trkpt>
      <trkpt lat="49.89975" lon="2.30031">
        <ele>26.9</ele>
        <time>2022-04-11T08:30:54Z</time>
      </trkpt>
      <trkpt lat="49.89975" lon="2.30031">
        <ele>26.9</ele>
        <time>2022-04-11T08:30:55Z</time>
      </trkpt>
      <trkpt lat="49.89975" lon="2.30031">
        <ele>26.9</ele>
        <time>2022-04-11T08:30:56Z</time>
      </trkpt>
      <trkpt lat="49.89975" lon="2.30031">
        <ele>26.9</ele>
        <time>2022-04-11T08:30:57Z</time>
      </trkpt>
      <trkpt lat="49.89975" lon="2.30031">
        <ele>26.9</ele>
        <time>2022-04-11T08:30:58Z</time>
      </trkpt>
      <trkpt lat="49.89975" lon="2.30031">
        <ele>26.9</ele>
        <time>2022-04-11T08:30:59Z</time>
      </trkpt>
      <trkpt lat="49.89976" lon="2.30031">
        <ele>26.9</ele>
        <time>2022-04-11T08:31:00Z</time>
      </trkpt>
      <trkpt lat="49.89976" lon="2.30031">
        <ele>26.9</ele>
        <time>2022-04-11T08:31:01Z</time>
      </trkpt>
      <trkpt lat="49.89976" lon="2.30031">
        <ele>26.9</ele>
        <time>2022-04-11T08:31:02Z</time>
      </trkpt>
      <trkpt lat="49.89976" lon="2.30031">
        <ele>26.9</ele>
        <time>2022-04-11T08:31:03Z</time>
      </trkpt>
      <trkpt lat="49.89976" lon="2.30031">
        <ele>26.9</ele>
        <time>2022-04-11T08:31:04Z</time>
      </trkpt>
      <trkpt lat="49.89976" lon="2.30031">
        <ele>26.9</ele>
        <time>2022-04-11T08:31:05Z</time>
      </trkpt>
      <trkpt lat="49.89976" lon="2.30031">
        <ele>26.9</ele>
        <time>2022-04-11T08:31:06Z</time>
      </trkpt>
      <trkpt lat="49.89976" lon="2.30031">
        <ele>26.9</ele>
        <time>2022-04-11T08:31:07Z</time>
      </trkpt>
      <trkpt lat="49.89976" lon="2.30031">
        <ele>26.9</ele>
        <time>2022-04-11T08:31:08Z</time>
      </trkpt>
      <trkpt lat="49.89976" lon="2.30031">
        <ele>26.9</ele>
        <time>2022-04-11T08:31:09Z</time>
      </trkpt>
      <trkpt lat="49.89976" lon="2.30031">
        <ele>26.9</ele>
        <time>2022-04-11T08:31:10Z</time>
      </trkpt>
      <trkpt lat="49.89976" lon="2.30031">
        <ele>26.9</ele>
        <time>2022-04-11T08:31:11Z</time>
      </trkpt>
      <trkpt lat="49.89976" lon="2.30031">
        <ele>26.9</ele>
        <time>2022-04-11T08:31:12Z</time>
      </trkpt>
      <trkpt lat="49.89976" lon="2.30031">
        <ele>26.9</ele>
        <time>2022-04-11T08:31:13Z</time>
      </trkpt>
      <trkpt lat="49.89976" lon="2.30031">
        <ele>26.9</ele>
        <time>2022-04-11T08:31:14Z</time>
      </trkpt>
      <trkpt lat="49.89976" lon="2.30031">
        <ele>26.9</ele>
        <time>2022-04-11T08:31:15Z</time>
      </trkpt>
      <trkpt lat="49.89976" lon="2.30031">
        <ele>26.9</ele>
        <time>2022-04-11T08:31:16Z</time>
      </trkpt>
      <trkpt lat="49.89976" lon="2.30031">
        <ele>26.9</ele>
        <time>2022-04-11T08:31:17Z</time>
      </trkpt>
      <trkpt lat="49.89976" lon="2.30031">
        <ele>26.9</ele>
        <time>2022-04-11T08:31:18Z</time>
      </trkpt>
      <trkpt lat="49.89976" lon="2.30031">
        <ele>26.9</ele>
        <time>2022-04-11T08:31:19Z</time>
      </trkpt>
      <trkpt lat="49.89976" lon="2.30031">
        <ele>26.9</ele>
        <time>2022-04-11T08:31:20Z</time>
      </trkpt>
      <trkpt lat="49.89976" lon="2.30031">
        <ele>26.9</ele>
        <time>2022-04-11T08:31:21Z</time>
      </trkpt>
      <trkpt lat="49.89976" lon="2.30031">
        <ele>26.9</ele>
        <time>2022-04-11T08:31:22Z</time>
      </trkpt>
      <trkpt lat="49.89975" lon="2.30031">
        <ele>26.9</ele>
        <time>2022-04-11T08:31:23Z</time>
      </trkpt>
      <trkpt lat="49.89975" lon="2.30031">
        <ele>26.9</ele>
        <time>2022-04-11T08:31:24Z</time>
      </trkpt>
      <trkpt lat="49.89975" lon="2.30031">
        <ele>26.9</ele>
        <time>2022-04-11T08:31:25Z</time>
      </trkpt>
      <trkpt lat="49.89975" lon="2.3003">
        <ele>26.9</ele>
        <time>2022-04-11T08:31:26Z</time>
      </trkpt>
      <trkpt lat="49.89975" lon="2.30031">
        <ele>26.9</ele>
        <time>2022-04-11T08:31:27Z</time>
      </trkpt>
      <trkpt lat="49.89975" lon="2.30031">
        <ele>26.9</ele>
        <time>2022-04-11T08:31:28Z</time>
      </trkpt>
      <trkpt lat="49.89975" lon="2.30031">
        <ele>26.9</ele>
        <time>2022-04-11T08:31:30Z</time>
      </trkpt>
      <trkpt lat="49.89974" lon="2.30031">
        <ele>26.9</ele>
        <time>2022-04-11T08:31:31Z</time>
      </trkpt>
      <trkpt lat="49.89973" lon="2.3003">
        <ele>26.9</ele>
        <time>2022-04-11T08:31:32Z</time>
      </trkpt>
      <trkpt lat="49.89973" lon="2.30029">
        <ele>26.8</ele>
        <time>2022-04-11T08:31:33Z</time>
      </trkpt>
      <trkpt lat="49.89973" lon="2.30028">
        <ele>26.8</ele>
        <time>2022-04-11T08:31:34Z</time>
      </trkpt>
      <trkpt lat="49.89972" lon="2.30027">
        <ele>26.8</ele>
        <time>2022-04-11T08:31:35Z</time>
      </trkpt>
      <trkpt lat="49.89972" lon="2.30026">
        <ele>26.8</ele>
        <time>2022-04-11T08:31:36Z</time>
      </trkpt>
      <trkpt lat="49.89972" lon="2.30022">
        <ele>26.8</ele>
        <time>2022-04-11T08:31:37Z</time>
      </trkpt>
      <trkpt lat="49.89972" lon="2.30021">
        <ele>26.8</ele>
        <time>2022-04-11T08:31:38Z</time>
      </trkpt>
      <trkpt lat="49.89972" lon="2.30018">
        <ele>26.8</ele>
        <time>2022-04-11T08:31:40Z</time>
      </trkpt>
      <trkpt lat="49.89972" lon="2.30015">
        <ele>26.7</ele>
        <time>2022-04-11T08:31:41Z</time>
      </trkpt>
      <trkpt lat="49.89973" lon="2.30013">
        <ele>26.7</ele>
        <time>2022-04-11T08:31:42Z</time>
      </trkpt>
      <trkpt lat="49.89973" lon="2.30011">
        <ele>26.7</ele>
        <time>2022-04-11T08:31:43Z</time>
      </trkpt>
      <trkpt lat="49.89974" lon="2.30008">
        <ele>26.7</ele>
        <time>2022-04-11T08:31:44Z</time>
      </trkpt>
      <trkpt lat="49.89974" lon="2.30007">
        <ele>26.7</ele>
        <time>2022-04-11T08:31:45Z</time>
      </trkpt>
      <trkpt lat="49.89975" lon="2.30006">
        <ele>26.6</ele>
        <time>2022-04-11T08:31:46Z</time>
      </trkpt>
      <trkpt lat="49.89975" lon="2.30004">
        <ele>26.6</ele>
        <time>2022-04-11T08:31:47Z</time>
      </trkpt>
      <trkpt lat="49.89975" lon="2.30002">
        <ele>26.6</ele>
        <time>2022-04-11T08:31:48Z</time>
      </trkpt>
      <trkpt lat="49.89976" lon="2.3">
        <ele>26.6</ele>
        <time>2022-04-11T08:31:49Z</time>
      </trkpt>
      <trkpt lat="49.89976" lon="2.29998">
        <ele>26.6</ele>
        <time>2022-04-11T08:31:50Z</time>
      </trkpt>
      <trkpt lat="49.89976" lon="2.29997">
        <ele>26.6</ele>
        <time>2022-04-11T08:31:51Z</time>
      </trkpt>
      <trkpt lat="49.89976" lon="2.29996">
        <ele>26.6</ele>
        <time>2022-04-11T08:31:52Z</time>
      </trkpt>
      <trkpt lat="49.89976" lon="2.29995">
        <ele>26.6</ele>
        <time>2022-04-11T08:31:53Z</time>
      </trkpt>
      <trkpt lat="49.89976" lon="2.29992">
        <ele>26.5</ele>
        <time>2022-04-11T08:31:55Z</time>
      </trkpt>
      <trkpt lat="49.89977" lon="2.2999">
        <ele>26.5</ele>
        <time>2022-04-11T08:31:56Z</time>
      </trkpt>
      <trkpt lat="49.89977" lon="2.29987">
        <ele>26.5</ele>
        <time>2022-04-11T08:31:57Z</time>
      </trkpt>
      <trkpt lat="49.89977" lon="2.29985">
        <ele>26.5</ele>
        <time>2022-04-11T08:31:58Z</time>
      </trkpt>
      <trkpt lat="49.89978" lon="2.29982">
        <ele>26.4</ele>
        <time>2022-04-11T08:31:59Z</time>
      </trkpt>
      <trkpt lat="49.89978" lon="2.2998">
        <ele>26.4</ele>
        <time>2022-04-11T08:32:00Z</time>
      </trkpt>
      <trkpt lat="49.89978" lon="2.29979">
        <ele>26.4</ele>
        <time>2022-04-11T08:32:01Z</time>
      </trkpt>
      <trkpt lat="49.89978" lon="2.29977">
        <ele>26.4</ele>
        <time>2022-04-11T08:32:02Z</time>
      </trkpt>
      <trkpt lat="49.89979" lon="2.29976">
        <ele>26.4</ele>
        <time>2022-04-11T08:32:03Z</time>
      </trkpt>
      <trkpt lat="49.8998" lon="2.29974">
        <ele>26.4</ele>
        <time>2022-04-11T08:32:05Z</time>
      </trkpt>
      <trkpt lat="49.8998" lon="2.29971">
        <ele>26.3</ele>
        <time>2022-04-11T08:32:06Z</time>
      </trkpt>
      <trkpt lat="49.89981" lon="2.29969">
        <ele>26.3</ele>
        <time>2022-04-11T08:32:07Z</time>
      </trkpt>
      <trkpt lat="49.89981" lon="2.29968">
        <ele>26.3</ele>
        <time>2022-04-11T08:32:08Z</time>
      </trkpt>
      <trkpt lat="49.89981" lon="2.29966">
        <ele>26.3</ele>
        <time>2022-04-11T08:32:09Z</time>
      </trkpt>
      <trkpt lat="49.89981" lon="2.29965">
        <ele>26.3</ele>
        <time>2022-04-11T08:32:10Z</time>
      </trkpt>
      <trkpt lat="49.89982" lon="2.29963">
        <ele>26.3</ele>
        <time>2022-04-11T08:32:11Z</time>
      </trkpt>
      <trkpt lat="49.89982" lon="2.29961">
        <ele>26.3</ele>
        <time>2022-04-11T08:32:12Z</time>
      </trkpt>
      <trkpt lat="49.89982" lon="2.29958">
        <ele>26.2</ele>
        <time>2022-04-11T08:32:13Z</time>
      </trkpt>
      <trkpt lat="49.89983" lon="2.29956">
        <ele>26.2</ele>
        <time>2022-04-11T08:32:14Z</time>
      </trkpt>
      <trkpt lat="49.89983" lon="2.29954">
        <ele>26.2</ele>
        <time>2022-04-11T08:32:15Z</time>
      </trkpt>
      <trkpt lat="49.89983" lon="2.29951">
        <ele>26.2</ele>
        <time>2022-04-11T08:32:16Z</time>
      </trkpt>
      <trkpt lat="49.89983" lon="2.29949">
        <ele>26.2</ele>
        <time>2022-04-11T08:32:17Z</time>
      </trkpt>
      <trkpt lat="49.89983" lon="2.29946">
        <ele>26.1</ele>
        <time>2022-04-11T08:32:18Z</time>
      </trkpt>
      <trkpt lat="49.89983" lon="2.29944">
        <ele>26.1</ele>
        <time>2022-04-11T08:32:20Z</time>
      </trkpt>
      <trkpt lat="49.89983" lon="2.29941">
        <ele>26.1</ele>
        <time>2022-04-11T08:32:21Z</time>
      </trkpt>
      <trkpt lat="49.89983" lon="2.29939">
        <ele>26.1</ele>
        <time>2022-04-11T08:32:22Z</time>
      </trkpt>
      <trkpt lat="49.89983" lon="2.29937">
        <ele>26.1</ele>
        <time>2022-04-11T08:32:23Z</time>
      </trkpt>
      <trkpt lat="49.89983" lon="2.29934">
        <ele>26</ele>
        <time>2022-04-11T08:32:24Z</time>
      </trkpt>
      <trkpt lat="49.89982" lon="2.29932">
        <ele>26</ele>
        <time>2022-04-11T08:32:25Z</time>
      </trkpt>
      <trkpt lat="49.89982" lon="2.29929">
        <ele>26</ele>
        <time>2022-04-11T08:32:26Z</time>
      </trkpt>
      <trkpt lat="49.89981" lon="2.29927">
        <ele>26</ele>
        <time>2022-04-11T08:32:27Z</time>
      </trkpt>
      <trkpt lat="49.8998" lon="2.29926">
        <ele>25.9</ele>
        <time>2022-04-11T08:32:28Z</time>
      </trkpt>
      <trkpt lat="49.89978" lon="2.29924">
        <ele>25.9</ele>
        <time>2022-04-11T08:32:30Z</time>
      </trkpt>
      <trkpt lat="49.89977" lon="2.29924">
        <ele>26</ele>
        <time>2022-04-11T08:32:31Z</time>
      </trkpt>
      <trkpt lat="49.89976" lon="2.29923">
        <ele>26</ele>
        <time>2022-04-11T08:32:32Z</time>
      </trkpt>
      <trkpt lat="49.89974" lon="2.29922">
        <ele>26</ele>
        <time>2022-04-11T08:32:33Z</time>
      </trkpt>
      <trkpt lat="49.89973" lon="2.29922">
        <ele>26</ele>
        <time>2022-04-11T08:32:34Z</time>
      </trkpt>
      <trkpt lat="49.89973" lon="2.2992">
        <ele>26</ele>
        <time>2022-04-11T08:32:35Z</time>
      </trkpt>
      <trkpt lat="49.89973" lon="2.29918">
        <ele>26</ele>
        <time>2022-04-11T08:32:36Z</time>
      </trkpt>
      <trkpt lat="49.89973" lon="2.29915">
        <ele>26</ele>
        <time>2022-04-11T08:32:38Z</time>
      </trkpt>
      <trkpt lat="49.89974" lon="2.29914">
        <ele>26</ele>
        <time>2022-04-11T08:32:39Z</time>
      </trkpt>
      <trkpt lat="49.89975" lon="2.29911">
        <ele>26</ele>
        <time>2022-04-11T08:32:40Z</time>
      </trkpt>
      <trkpt lat="49.89976" lon="2.2991">
        <ele>26</ele>
        <time>2022-04-11T08:32:41Z</time>
      </trkpt>
      <trkpt lat="49.89977" lon="2.29909">
        <ele>25.9</ele>
        <time>2022-04-11T08:32:42Z</time>
      </trkpt>
      <trkpt lat="49.89978" lon="2.29908">
        <ele>25.9</ele>
        <time>2022-04-11T08:32:43Z</time>
      </trkpt>
      <trkpt lat="49.89978" lon="2.29906">
        <ele>25.9</ele>
        <time>2022-04-11T08:32:44Z</time>
      </trkpt>
      <trkpt lat="49.89979" lon="2.29903">
        <ele>25.9</ele>
        <time>2022-04-11T08:32:45Z</time>
      </trkpt>
      <trkpt lat="49.8998" lon="2.29902">
        <ele>25.9</ele>
        <time>2022-04-11T08:32:46Z</time>
      </trkpt>
      <trkpt lat="49.8998" lon="2.29901">
        <ele>25.8</ele>
        <time>2022-04-11T08:32:47Z</time>
      </trkpt>
      <trkpt lat="49.8998" lon="2.29897">
        <ele>25.8</ele>
        <time>2022-04-11T08:32:49Z</time>
      </trkpt>
      <trkpt lat="49.89981" lon="2.29896">
        <ele>25.8</ele>
        <time>2022-04-11T08:32:50Z</time>
      </trkpt>
      <trkpt lat="49.89981" lon="2.29895">
        <ele>25.8</ele>
        <time>2022-04-11T08:32:51Z</time>
      </trkpt>
      <trkpt lat="49.8998" lon="2.29893">
        <ele>25.8</ele>
        <time>2022-04-11T08:32:52Z</time>
      </trkpt>
      <trkpt lat="49.8998" lon="2.29891">
        <ele>25.7</ele>
        <time>2022-04-11T08:32:53Z</time>
      </trkpt>
      <trkpt lat="49.89979" lon="2.29889">
        <ele>25.7</ele>
        <time>2022-04-11T08:32:54Z</time>
      </trkpt>
      <trkpt lat="49.89978" lon="2.29884">
        <ele>25.6</ele>
        <time>2022-04-11T08:32:56Z</time>
      </trkpt>
      <trkpt lat="49.89976" lon="2.29882">
        <ele>25.6</ele>
        <time>2022-04-11T08:32:57Z</time>
      </trkpt>
      <trkpt lat="49.89975" lon="2.2988">
        <ele>25.6</ele>
        <time>2022-04-11T08:32:58Z</time>
      </trkpt>
      <trkpt lat="49.89974" lon="2.29878">
        <ele>25.5</ele>
        <time>2022-04-11T08:32:59Z</time>
      </trkpt>
      <trkpt lat="49.89973" lon="2.29876">
        <ele>25.5</ele>
        <time>2022-04-11T08:33:00Z</time>
      </trkpt>
      <trkpt lat="49.89972" lon="2.29874">
        <ele>25.4</ele>
        <time>2022-04-11T08:33:02Z</time>
      </trkpt>
      <trkpt lat="49.89971" lon="2.29872">
        <ele>25.4</ele>
        <time>2022-04-11T08:33:03Z</time>
      </trkpt>
      <trkpt lat="49.8997" lon="2.2987">
        <ele>25.4</ele>
        <time>2022-04-11T08:33:04Z</time>
      </trkpt>
      <trkpt lat="49.89969" lon="2.29867">
        <ele>25.3</ele>
        <time>2022-04-11T08:33:05Z</time>
      </trkpt>
      <trkpt lat="49.89969" lon="2.29866">
        <ele>25.3</ele>
        <time>2022-04-11T08:33:06Z</time>
      </trkpt>
      <trkpt lat="49.89969" lon="2.29864">
        <ele>25.3</ele>
        <time>2022-04-11T08:33:07Z</time>
      </trkpt>
      <trkpt lat="49.89968" lon="2.29862">
        <ele>25.3</ele>
        <time>2022-04-11T08:33:08Z</time>
      </trkpt>
      <trkpt lat="49.89968" lon="2.2986">
        <ele>25.2</ele>
        <time>2022-04-11T08:33:09Z</time>
      </trkpt>
      <trkpt lat="49.89967" lon="2.29857">
        <ele>25.2</ele>
        <time>2022-04-11T08:33:10Z</time>
      </trkpt>
      <trkpt lat="49.89967" lon="2.29856">
        <ele>25.2</ele>
        <time>2022-04-11T08:33:11Z</time>
      </trkpt>
      <trkpt lat="49.89967" lon="2.29855">
        <ele>25.1</ele>
        <time>2022-04-11T08:33:12Z</time>
      </trkpt>
      <trkpt lat="49.89966" lon="2.29853">
        <ele>25.1</ele>
        <time>2022-04-11T08:33:14Z</time>
      </trkpt>
      <trkpt lat="49.89966" lon="2.29852">
        <ele>25.1</ele>
        <time>2022-04-11T08:33:15Z</time>
      </trkpt>
      <trkpt lat="49.89965" lon="2.2985">
        <ele>25.1</ele>
        <time>2022-04-11T08:33:16Z</time>
      </trkpt>
      <trkpt lat="49.89965" lon="2.29846">
        <ele>25</ele>
        <time>2022-04-11T08:33:17Z</time>
      </trkpt>
      <trkpt lat="49.89964" lon="2.29845">
        <ele>25</ele>
        <time>2022-04-11T08:33:18Z</time>
      </trkpt>
      <trkpt lat="49.89964" lon="2.29843">
        <ele>25</ele>
        <time>2022-04-11T08:33:19Z</time>
      </trkpt>
      <trkpt lat="49.89964" lon="2.29841">
        <ele>24.9</ele>
        <time>2022-04-11T08:33:20Z</time>
      </trkpt>
      <trkpt lat="49.89964" lon="2.29838">
        <ele>24.9</ele>
        <time>2022-04-11T08:33:21Z</time>
      </trkpt>
      <trkpt lat="49.89965" lon="2.29836">
        <ele>24.9</ele>
        <time>2022-04-11T08:33:22Z</time>
      </trkpt>
      <trkpt lat="49.89964" lon="2.29834">
        <ele>24.9</ele>
        <time>2022-04-11T08:33:23Z</time>
      </trkpt>
      <trkpt lat="49.89964" lon="2.29832">
        <ele>24.9</ele>
        <time>2022-04-11T08:33:25Z</time>
      </trkpt>
      <trkpt lat="49.89963" lon="2.2983">
        <ele>24.8</ele>
        <time>2022-04-11T08:33:26Z</time>
      </trkpt>
      <trkpt lat="49.89963" lon="2.29828">
        <ele>24.8</ele>
        <time>2022-04-11T08:33:27Z</time>
      </trkpt>
      <trkpt lat="49.89963" lon="2.29826">
        <ele>24.8</ele>
        <time>2022-04-11T08:33:28Z</time>
      </trkpt>
      <trkpt lat="49.89962" lon="2.29824">
        <ele>24.8</ele>
        <time>2022-04-11T08:33:29Z</time>
      </trkpt>
      <trkpt lat="49.89962" lon="2.29823">
        <ele>24.8</ele>
        <time>2022-04-11T08:33:30Z</time>
      </trkpt>
      <trkpt lat="49.89961" lon="2.29821">
        <ele>24.8</ele>
        <time>2022-04-11T08:33:31Z</time>
      </trkpt>
      <trkpt lat="49.89961" lon="2.29819">
        <ele>24.8</ele>
        <time>2022-04-11T08:33:32Z</time>
      </trkpt>
      <trkpt lat="49.89961" lon="2.29818">
        <ele>24.8</ele>
        <time>2022-04-11T08:33:33Z</time>
      </trkpt>
      <trkpt lat="49.8996" lon="2.29816">
        <ele>24.7</ele>
        <time>2022-04-11T08:33:34Z</time>
      </trkpt>
      <trkpt lat="49.89959" lon="2.29814">
        <ele>24.7</ele>
        <time>2022-04-11T08:33:35Z</time>
      </trkpt>
      <trkpt lat="49.89959" lon="2.2981">
        <ele>24.7</ele>
        <time>2022-04-11T08:33:36Z</time>
      </trkpt>
      <trkpt lat="49.89959" lon="2.29808">
        <ele>24.7</ele>
        <time>2022-04-11T08:33:38Z</time>
      </trkpt>
      <trkpt lat="49.89959" lon="2.29807">
        <ele>24.7</ele>
        <time>2022-04-11T08:33:39Z</time>
      </trkpt>
      <trkpt lat="49.89959" lon="2.29805">
        <ele>24.7</ele>
        <time>2022-04-11T08:33:40Z</time>
      </trkpt>
      <trkpt lat="49.89959" lon="2.29804">
        <ele>24.7</ele>
        <time>2022-04-11T08:33:41Z</time>
      </trkpt>
      <trkpt lat="49.89959" lon="2.298">
        <ele>24.7</ele>
        <time>2022-04-11T08:33:42Z</time>
      </trkpt>
      <trkpt lat="49.89959" lon="2.29799">
        <ele>24.7</ele>
        <time>2022-04-11T08:33:43Z</time>
      </trkpt>
      <trkpt lat="49.89959" lon="2.29798">
        <ele>24.7</ele>
        <time>2022-04-11T08:33:44Z</time>
      </trkpt>
      <trkpt lat="49.89959" lon="2.29796">
        <ele>24.7</ele>
        <time>2022-04-11T08:33:45Z</time>
      </trkpt>
      <trkpt lat="49.89959" lon="2.29794">
        <ele>24.7</ele>
        <time>2022-04-11T08:33:46Z</time>
      </trkpt>
      <trkpt lat="49.89959" lon="2.29792">
        <ele>24.8</ele>
        <time>2022-04-11T08:33:47Z</time>
      </trkpt>
      <trkpt lat="49.89959" lon="2.2979">
        <ele>24.8</ele>
        <time>2022-04-11T08:33:48Z</time>
      </trkpt>
      <trkpt lat="49.89959" lon="2.29788">
        <ele>24.8</ele>
        <time>2022-04-11T08:33:50Z</time>
      </trkpt>
      <trkpt lat="49.89958" lon="2.29786">
        <ele>24.8</ele>
        <time>2022-04-11T08:33:51Z</time>
      </trkpt>
      <trkpt lat="49.89957" lon="2.29784">
        <ele>24.8</ele>
        <time>2022-04-11T08:33:52Z</time>
      </trkpt>
      <trkpt lat="49.89957" lon="2.29783">
        <ele>24.8</ele>
        <time>2022-04-11T08:33:53Z</time>
      </trkpt>
      <trkpt lat="49.89956" lon="2.29782">
        <ele>24.9</ele>
        <time>2022-04-11T08:33:54Z</time>
      </trkpt>
      <trkpt lat="49.89955" lon="2.29781">
        <ele>24.9</ele>
        <time>2022-04-11T08:33:55Z</time>
      </trkpt>
      <trkpt lat="49.89954" lon="2.2978">
        <ele>25</ele>
        <time>2022-04-11T08:33:56Z</time>
      </trkpt>
      <trkpt lat="49.89953" lon="2.29779">
        <ele>25</ele>
        <time>2022-04-11T08:33:57Z</time>
      </trkpt>
      <trkpt lat="49.89952" lon="2.29778">
        <ele>25</ele>
        <time>2022-04-11T08:33:58Z</time>
      </trkpt>
      <trkpt lat="49.89952" lon="2.29777">
        <ele>25</ele>
        <time>2022-04-11T08:33:59Z</time>
      </trkpt>
      <trkpt lat="49.89951" lon="2.29775">
        <ele>25</ele>
        <time>2022-04-11T08:34:01Z</time>
      </trkpt>
      <trkpt lat="49.89952" lon="2.29775">
        <ele>25</ele>
        <time>2022-04-11T08:34:02Z</time>
      </trkpt>
      <trkpt lat="49.89951" lon="2.29773">
        <ele>25</ele>
        <time>2022-04-11T08:34:03Z</time>
      </trkpt>
      <trkpt lat="49.8995" lon="2.29772">
        <ele>25</ele>
        <time>2022-04-11T08:34:04Z</time>
      </trkpt>
      <trkpt lat="49.8995" lon="2.29769">
        <ele>25</ele>
        <time>2022-04-11T08:34:05Z</time>
      </trkpt>
      <trkpt lat="49.8995" lon="2.29767">
        <ele>25</ele>
        <time>2022-04-11T08:34:06Z</time>
      </trkpt>
      <trkpt lat="49.8995" lon="2.29766">
        <ele>25</ele>
        <time>2022-04-11T08:34:07Z</time>
      </trkpt>
      <trkpt lat="49.8995" lon="2.29764">
        <ele>24.9</ele>
        <time>2022-04-11T08:34:08Z</time>
      </trkpt>
      <trkpt lat="49.89949" lon="2.29762">
        <ele>24.9</ele>
        <time>2022-04-11T08:34:09Z</time>
      </trkpt>
      <trkpt lat="49.89949" lon="2.2976">
        <ele>24.8</ele>
        <time>2022-04-11T08:34:10Z</time>
      </trkpt>
      <trkpt lat="49.89949" lon="2.29758">
        <ele>24.7</ele>
        <time>2022-04-11T08:34:11Z</time>
      </trkpt>
      <trkpt lat="49.89949" lon="2.29755">
        <ele>24.6</ele>
        <time>2022-04-11T08:34:13Z</time>
      </trkpt>
      <trkpt lat="49.89949" lon="2.29753">
        <ele>24.6</ele>
        <time>2022-04-11T08:34:14Z</time>
      </trkpt>
      <trkpt lat="49.89949" lon="2.2975">
        <ele>24.5</ele>
        <time>2022-04-11T08:34:15Z</time>
      </trkpt>
      <trkpt lat="49.89949" lon="2.29749">
        <ele>24.4</ele>
        <time>2022-04-11T08:34:16Z</time>
      </trkpt>
      <trkpt lat="49.89949" lon="2.29747">
        <ele>24.4</ele>
        <time>2022-04-11T08:34:17Z</time>
      </trkpt>
      <trkpt lat="49.8995" lon="2.29747">
        <ele>24.3</ele>
        <time>2022-04-11T08:34:18Z</time>
      </trkpt>
      <trkpt lat="49.89951" lon="2.29747">
        <ele>24.3</ele>
        <time>2022-04-11T08:34:19Z</time>
      </trkpt>
      <trkpt lat="49.89951" lon="2.29747">
        <ele>24.3</ele>
        <time>2022-04-11T08:34:20Z</time>
      </trkpt>
      <trkpt lat="49.89951" lon="2.29747">
        <ele>24.3</ele>
        <time>2022-04-11T08:34:21Z</time>
      </trkpt>
      <trkpt lat="49.89952" lon="2.29747">
        <ele>24.2</ele>
        <time>2022-04-11T08:34:22Z</time>
      </trkpt>
      <trkpt lat="49.89952" lon="2.29747">
        <ele>24.2</ele>
        <time>2022-04-11T08:34:24Z</time>
      </trkpt>
      <trkpt lat="49.89953" lon="2.29746">
        <ele>24.2</ele>
        <time>2022-04-11T08:34:25Z</time>
      </trkpt>
      <trkpt lat="49.89953" lon="2.29744">
        <ele>24.1</ele>
        <time>2022-04-11T08:34:26Z</time>
      </trkpt>
      <trkpt lat="49.89954" lon="2.29743">
        <ele>24.1</ele>
        <time>2022-04-11T08:34:27Z</time>
      </trkpt>
      <trkpt lat="49.89956" lon="2.29741">
        <ele>24.1</ele>
        <time>2022-04-11T08:34:28Z</time>
      </trkpt>
      <trkpt lat="49.89957" lon="2.2974">
        <ele>24</ele>
        <time>2022-04-11T08:34:30Z</time>
      </trkpt>
      <trkpt lat="49.89958" lon="2.29738">
        <ele>24</ele>
        <time>2022-04-11T08:34:31Z</time>
      </trkpt>
      <trkpt lat="49.89958" lon="2.29737">
        <ele>24</ele>
        <time>2022-04-11T08:34:32Z</time>
      </trkpt>
      <trkpt lat="49.89959" lon="2.29736">
        <ele>24</ele>
        <time>2022-04-11T08:34:33Z</time>
      </trkpt>
      <trkpt lat="49.89959" lon="2.29734">
        <ele>24</ele>
        <time>2022-04-11T08:34:34Z</time>
      </trkpt>
      <trkpt lat="49.89959" lon="2.29731">
        <ele>24</ele>
        <time>2022-04-11T08:34:35Z</time>
      </trkpt>
      <trkpt lat="49.89959" lon="2.29729">
        <ele>24</ele>
        <time>2022-04-11T08:34:37Z</time>
      </trkpt>
      <trkpt lat="49.89958" lon="2.29727">
        <ele>24</ele>
        <time>2022-04-11T08:34:38Z</time>
      </trkpt>
      <trkpt lat="49.89956" lon="2.29725">
        <ele>24</ele>
        <time>2022-04-11T08:34:39Z</time>
      </trkpt>
      <trkpt lat="49.89955" lon="2.29724">
        <ele>24</ele>
        <time>2022-04-11T08:34:40Z</time>
      </trkpt>
      <trkpt lat="49.89953" lon="2.29723">
        <ele>24</ele>
        <time>2022-04-11T08:34:41Z</time>
      </trkpt>
      <trkpt lat="49.89952" lon="2.29721">
        <ele>24</ele>
        <time>2022-04-11T08:34:43Z</time>
      </trkpt>
      <trkpt lat="49.89951" lon="2.29721">
        <ele>24</ele>
        <time>2022-04-11T08:34:44Z</time>
      </trkpt>
      <trkpt lat="49.8995" lon="2.2972">
        <ele>24</ele>
        <time>2022-04-11T08:34:45Z</time>
      </trkpt>
      <trkpt lat="49.89949" lon="2.29719">
        <ele>24</ele>
        <time>2022-04-11T08:34:46Z</time>
      </trkpt>
      <trkpt lat="49.89947" lon="2.29719">
        <ele>24</ele>
        <time>2022-04-11T08:34:47Z</time>
      </trkpt>
      <trkpt lat="49.89946" lon="2.29717">
        <ele>24</ele>
        <time>2022-04-11T08:34:48Z</time>
      </trkpt>
      <trkpt lat="49.89945" lon="2.29716">
        <ele>24</ele>
        <time>2022-04-11T08:34:49Z</time>
      </trkpt>
      <trkpt lat="49.89944" lon="2.29715">
        <ele>24</ele>
        <time>2022-04-11T08:34:50Z</time>
      </trkpt>
      <trkpt lat="49.89943" lon="2.29713">
        <ele>24</ele>
        <time>2022-04-11T08:34:51Z</time>
      </trkpt>
      <trkpt lat="49.89942" lon="2.29712">
        <ele>24</ele>
        <time>2022-04-11T08:34:52Z</time>
      </trkpt>
      <trkpt lat="49.8994" lon="2.2971">
        <ele>24</ele>
        <time>2022-04-11T08:34:53Z</time>
      </trkpt>
      <trkpt lat="49.89939" lon="2.29709">
        <ele>24.1</ele>
        <time>2022-04-11T08:34:55Z</time>
      </trkpt>
      <trkpt lat="49.89938" lon="2.29707">
        <ele>24.1</ele>
        <time>2022-04-11T08:34:56Z</time>
      </trkpt>
      <trkpt lat="49.89937" lon="2.29706">
        <ele>24.1</ele>
        <time>2022-04-11T08:34:57Z</time>
      </trkpt>
      <trkpt lat="49.89935" lon="2.29704">
        <ele>24.1</ele>
        <time>2022-04-11T08:34:58Z</time>
      </trkpt>
      <trkpt lat="49.89935" lon="2.29703">
        <ele>24.1</ele>
        <time>2022-04-11T08:34:59Z</time>
      </trkpt>
      <trkpt lat="49.89934" lon="2.29703">
        <ele>24.1</ele>
        <time>2022-04-11T08:35:00Z</time>
      </trkpt>
      <trkpt lat="49.89933" lon="2.29701">
        <ele>24.1</ele>
        <time>2022-04-11T08:35:01Z</time>
      </trkpt>
      <trkpt lat="49.89932" lon="2.297">
        <ele>24.1</ele>
        <time>2022-04-11T08:35:02Z</time>
      </trkpt>
      <trkpt lat="49.89931" lon="2.29699">
        <ele>24.1</ele>
        <time>2022-04-11T08:35:04Z</time>
      </trkpt>
      <trkpt lat="49.8993" lon="2.29698">
        <ele>24.1</ele>
        <time>2022-04-11T08:35:05Z</time>
      </trkpt>
      <trkpt lat="49.89929" lon="2.29697">
        <ele>24.1</ele>
        <time>2022-04-11T08:35:06Z</time>
      </trkpt>
      <trkpt lat="49.89928" lon="2.29697">
        <ele>24.1</ele>
        <time>2022-04-11T08:35:07Z</time>
      </trkpt>
      <trkpt lat="49.89926" lon="2.29694">
        <ele>24.1</ele>
        <time>2022-04-11T08:35:08Z</time>
      </trkpt>
      <trkpt lat="49.89926" lon="2.29694">
        <ele>24.1</ele>
        <time>2022-04-11T08:35:09Z</time>
      </trkpt>
      <trkpt lat="49.89925" lon="2.29693">
        <ele>24.1</ele>
        <time>2022-04-11T08:35:10Z</time>
      </trkpt>
      <trkpt lat="49.89923" lon="2.29691">
        <ele>24.1</ele>
        <time>2022-04-11T08:35:11Z</time>
      </trkpt>
      <trkpt lat="49.89922" lon="2.2969">
        <ele>24.1</ele>
        <time>2022-04-11T08:35:12Z</time>
      </trkpt>
      <trkpt lat="49.89922" lon="2.2969">
        <ele>24.1</ele>
        <time>2022-04-11T08:35:13Z</time>
      </trkpt>
      <trkpt lat="49.89921" lon="2.29689">
        <ele>24.1</ele>
        <time>2022-04-11T08:35:14Z</time>
      </trkpt>
      <trkpt lat="49.89919" lon="2.29688">
        <ele>24.1</ele>
        <time>2022-04-11T08:35:16Z</time>
      </trkpt>
      <trkpt lat="49.89917" lon="2.29686">
        <ele>24.1</ele>
        <time>2022-04-11T08:35:18Z</time>
      </trkpt>
      <trkpt lat="49.89916" lon="2.29685">
        <ele>24.1</ele>
        <time>2022-04-11T08:35:19Z</time>
      </trkpt>
      <trkpt lat="49.89914" lon="2.29684">
        <ele>24.1</ele>
        <time>2022-04-11T08:35:20Z</time>
      </trkpt>
      <trkpt lat="49.89913" lon="2.29683">
        <ele>24.1</ele>
        <time>2022-04-11T08:35:21Z</time>
      </trkpt>
      <trkpt lat="49.89912" lon="2.29682">
        <ele>24.1</ele>
        <time>2022-04-11T08:35:22Z</time>
      </trkpt>
      <trkpt lat="49.89911" lon="2.2968">
        <ele>24.1</ele>
        <time>2022-04-11T08:35:23Z</time>
      </trkpt>
      <trkpt lat="49.8991" lon="2.29678">
        <ele>24.1</ele>
        <time>2022-04-11T08:35:25Z</time>
      </trkpt>
      <trkpt lat="49.89909" lon="2.29676">
        <ele>24.1</ele>
        <time>2022-04-11T08:35:26Z</time>
      </trkpt>
      <trkpt lat="49.89908" lon="2.29675">
        <ele>24.1</ele>
        <time>2022-04-11T08:35:27Z</time>
      </trkpt>
      <trkpt lat="49.89908" lon="2.29674">
        <ele>24.1</ele>
        <time>2022-04-11T08:35:28Z</time>
      </trkpt>
      <trkpt lat="49.89907" lon="2.29673">
        <ele>24.2</ele>
        <time>2022-04-11T08:35:29Z</time>
      </trkpt>
      <trkpt lat="49.89906" lon="2.29672">
        <ele>24.2</ele>
        <time>2022-04-11T08:35:30Z</time>
      </trkpt>
      <trkpt lat="49.89904" lon="2.29671">
        <ele>24.2</ele>
        <time>2022-04-11T08:35:32Z</time>
      </trkpt>
      <trkpt lat="49.89904" lon="2.29671">
        <ele>24.2</ele>
        <time>2022-04-11T08:35:33Z</time>
      </trkpt>
      <trkpt lat="49.89903" lon="2.2967">
        <ele>24.2</ele>
        <time>2022-04-11T08:35:34Z</time>
      </trkpt>
      <trkpt lat="49.89902" lon="2.29669">
        <ele>24.2</ele>
        <time>2022-04-11T08:35:35Z</time>
      </trkpt>
      <trkpt lat="49.89901" lon="2.29668">
        <ele>24.2</ele>
        <time>2022-04-11T08:35:36Z</time>
      </trkpt>
      <trkpt lat="49.899" lon="2.29667">
        <ele>24.2</ele>
        <time>2022-04-11T08:35:37Z</time>
      </trkpt>
      <trkpt lat="49.89899" lon="2.29666">
        <ele>24.2</ele>
        <time>2022-04-11T08:35:38Z</time>
      </trkpt>
      <trkpt lat="49.89899" lon="2.29665">
        <ele>24.2</ele>
        <time>2022-04-11T08:35:39Z</time>
      </trkpt>
      <trkpt lat="49.89898" lon="2.29664">
        <ele>24.2</ele>
        <time>2022-04-11T08:35:40Z</time>
      </trkpt>
      <trkpt lat="49.89897" lon="2.29662">
        <ele>24.2</ele>
        <time>2022-04-11T08:35:41Z</time>
      </trkpt>
      <trkpt lat="49.89896" lon="2.2966">
        <ele>24.2</ele>
        <time>2022-04-11T08:35:42Z</time>
      </trkpt>
      <trkpt lat="49.89896" lon="2.29659">
        <ele>24.2</ele>
        <time>2022-04-11T08:35:44Z</time>
      </trkpt>
      <trkpt lat="49.89895" lon="2.29657">
        <ele>24.2</ele>
        <time>2022-04-11T08:35:45Z</time>
      </trkpt>
      <trkpt lat="49.89895" lon="2.29656">
        <ele>24.2</ele>
        <time>2022-04-11T08:35:46Z</time>
      </trkpt>
      <trkpt lat="49.89893" lon="2.29654">
        <ele>24.3</ele>
        <time>2022-04-11T08:35:47Z</time>
      </trkpt>
      <trkpt lat="49.89892" lon="2.29653">
        <ele>24.3</ele>
        <time>2022-04-11T08:35:49Z</time>
      </trkpt>
      <trkpt lat="49.89891" lon="2.29652">
        <ele>24.3</ele>
        <time>2022-04-11T08:35:50Z</time>
      </trkpt>
      <trkpt lat="49.89891" lon="2.29652">
        <ele>24.3</ele>
        <time>2022-04-11T08:35:51Z</time>
      </trkpt>
      <trkpt lat="49.8989" lon="2.29651">
        <ele>24.3</ele>
        <time>2022-04-11T08:35:52Z</time>
      </trkpt>
      <trkpt lat="49.89889" lon="2.2965">
        <ele>24.3</ele>
        <time>2022-04-11T08:35:53Z</time>
      </trkpt>
      <trkpt lat="49.89889" lon="2.29649">
        <ele>24.3</ele>
        <time>2022-04-11T08:35:54Z</time>
      </trkpt>
      <trkpt lat="49.89887" lon="2.29645">
        <ele>24.3</ele>
        <time>2022-04-11T08:35:55Z</time>
      </trkpt>
      <trkpt lat="49.89887" lon="2.29644">
        <ele>24.3</ele>
        <time>2022-04-11T08:35:57Z</time>
      </trkpt>
      <trkpt lat="49.89886" lon="2.29642">
        <ele>24.3</ele>
        <time>2022-04-11T08:35:58Z</time>
      </trkpt>
      <trkpt lat="49.89886" lon="2.29641">
        <ele>24.3</ele>
        <time>2022-04-11T08:35:59Z</time>
      </trkpt>
      <trkpt lat="49.89885" lon="2.2964">
        <ele>24.3</ele>
        <time>2022-04-11T08:36:00Z</time>
      </trkpt>
      <trkpt lat="49.89885" lon="2.29638">
        <ele>24.3</ele>
        <time>2022-04-11T08:36:01Z</time>
      </trkpt>
      <trkpt lat="49.89884" lon="2.29635">
        <ele>24.4</ele>
        <time>2022-04-11T08:36:03Z</time>
      </trkpt>
      <trkpt lat="49.89883" lon="2.29634">
        <ele>24.4</ele>
        <time>2022-04-11T08:36:04Z</time>
      </trkpt>
      <trkpt lat="49.89882" lon="2.29632">
        <ele>24.4</ele>
        <time>2022-04-11T08:36:05Z</time>
      </trkpt>
      <trkpt lat="49.89881" lon="2.29629">
        <ele>24.4</ele>
        <time>2022-04-11T08:36:06Z</time>
      </trkpt>
      <trkpt lat="49.8988" lon="2.29628">
        <ele>24.4</ele>
        <time>2022-04-11T08:36:07Z</time>
      </trkpt>
      <trkpt lat="49.8988" lon="2.29627">
        <ele>24.4</ele>
        <time>2022-04-11T08:36:08Z</time>
      </trkpt>
      <trkpt lat="49.89879" lon="2.29625">
        <ele>24.4</ele>
        <time>2022-04-11T08:36:10Z</time>
      </trkpt>
      <trkpt lat="49.89878" lon="2.29623">
        <ele>24.4</ele>
        <time>2022-04-11T08:36:11Z</time>
      </trkpt>
      <trkpt lat="49.89877" lon="2.2962">
        <ele>24.4</ele>
        <time>2022-04-11T08:36:12Z</time>
      </trkpt>
      <trkpt lat="49.89877" lon="2.29619">
        <ele>24.4</ele>
        <time>2022-04-11T08:36:13Z</time>
      </trkpt>
      <trkpt lat="49.89876" lon="2.29617">
        <ele>24.5</ele>
        <time>2022-04-11T08:36:14Z</time>
      </trkpt>
      <trkpt lat="49.89875" lon="2.29616">
        <ele>24.5</ele>
        <time>2022-04-11T08:36:15Z</time>
      </trkpt>
      <trkpt lat="49.89875" lon="2.29613">
        <ele>24.5</ele>
        <time>2022-04-11T08:36:16Z</time>
      </trkpt>
      <trkpt lat="49.89874" lon="2.29611">
        <ele>24.5</ele>
        <time>2022-04-11T08:36:17Z</time>
      </trkpt>
      <trkpt lat="49.89874" lon="2.2961">
        <ele>24.5</ele>
        <time>2022-04-11T08:36:18Z</time>
      </trkpt>
      <trkpt lat="49.89874" lon="2.29607">
        <ele>24.5</ele>
        <time>2022-04-11T08:36:20Z</time>
      </trkpt>
      <trkpt lat="49.89873" lon="2.29606">
        <ele>24.5</ele>
        <time>2022-04-11T08:36:21Z</time>
      </trkpt>
      <trkpt lat="49.89872" lon="2.29604">
        <ele>24.5</ele>
        <time>2022-04-11T08:36:22Z</time>
      </trkpt>
      <trkpt lat="49.89871" lon="2.296">
        <ele>24.6</ele>
        <time>2022-04-11T08:36:24Z</time>
      </trkpt>
      <trkpt lat="49.8987" lon="2.29598">
        <ele>24.6</ele>
        <time>2022-04-11T08:36:25Z</time>
      </trkpt>
      <trkpt lat="49.89869" lon="2.29596">
        <ele>24.6</ele>
        <time>2022-04-11T08:36:26Z</time>
      </trkpt>
      <trkpt lat="49.89868" lon="2.29594">
        <ele>24.6</ele>
        <time>2022-04-11T08:36:27Z</time>
      </trkpt>
      <trkpt lat="49.89867" lon="2.29592">
        <ele>24.6</ele>
        <time>2022-04-11T08:36:28Z</time>
      </trkpt>
      <trkpt lat="49.89866" lon="2.2959">
        <ele>24.6</ele>
        <time>2022-04-11T08:36:29Z</time>
      </trkpt>
      <trkpt lat="49.89865" lon="2.29588">
        <ele>24.6</ele>
        <time>2022-04-11T08:36:30Z</time>
      </trkpt>
      <trkpt lat="49.89863" lon="2.29586">
        <ele>24.7</ele>
        <time>2022-04-11T08:36:32Z</time>
      </trkpt>
      <trkpt lat="49.89862" lon="2.29584">
        <ele>24.7</ele>
        <time>2022-04-11T08:36:33Z</time>
      </trkpt>
      <trkpt lat="49.89861" lon="2.29583">
        <ele>24.7</ele>
        <time>2022-04-11T08:36:34Z</time>
      </trkpt>
      <trkpt lat="49.8986" lon="2.29581">
        <ele>24.7</ele>
        <time>2022-04-11T08:36:35Z</time>
      </trkpt>
      <trkpt lat="49.89859" lon="2.2958">
        <ele>24.7</ele>
        <time>2022-04-11T08:36:36Z</time>
      </trkpt>
      <trkpt lat="49.89858" lon="2.29578">
        <ele>24.7</ele>
        <time>2022-04-11T08:36:37Z</time>
      </trkpt>
      <trkpt lat="49.89857" lon="2.29576">
        <ele>24.8</ele>
        <time>2022-04-11T08:36:38Z</time>
      </trkpt>
      <trkpt lat="49.89855" lon="2.29575">
        <ele>24.8</ele>
        <time>2022-04-11T08:36:39Z</time>
      </trkpt>
      <trkpt lat="49.89854" lon="2.29573">
        <ele>24.8</ele>
        <time>2022-04-11T08:36:40Z</time>
      </trkpt>
      <trkpt lat="49.89853" lon="2.29572">
        <ele>24.8</ele>
        <time>2022-04-11T08:36:41Z</time>
      </trkpt>
      <trkpt lat="49.89852" lon="2.29571">
        <ele>24.8</ele>
        <time>2022-04-11T08:36:43Z</time>
      </trkpt>
      <trkpt lat="49.8985" lon="2.2957">
        <ele>24.8</ele>
        <time>2022-04-11T08:36:44Z</time>
      </trkpt>
      <trkpt lat="49.89849" lon="2.2957">
        <ele>24.9</ele>
        <time>2022-04-11T08:36:45Z</time>
      </trkpt>
      <trkpt lat="49.89848" lon="2.29569">
        <ele>24.9</ele>
        <time>2022-04-11T08:36:46Z</time>
      </trkpt>
      <trkpt lat="49.89845" lon="2.29567">
        <ele>24.9</ele>
        <time>2022-04-11T08:36:48Z</time>
      </trkpt>
      <trkpt lat="49.89844" lon="2.29567">
        <ele>24.9</ele>
        <time>2022-04-11T08:36:49Z</time>
      </trkpt>
      <trkpt lat="49.89843" lon="2.29566">
        <ele>24.9</ele>
        <time>2022-04-11T08:36:50Z</time>
      </trkpt>
      <trkpt lat="49.89841" lon="2.29565">
        <ele>25</ele>
        <time>2022-04-11T08:36:51Z</time>
      </trkpt>
      <trkpt lat="49.8984" lon="2.29565">
        <ele>25</ele>
        <time>2022-04-11T08:36:52Z</time>
      </trkpt>
      <trkpt lat="49.89839" lon="2.29564">
        <ele>25</ele>
        <time>2022-04-11T08:36:53Z</time>
      </trkpt>
      <trkpt lat="49.89837" lon="2.29563">
        <ele>25</ele>
        <time>2022-04-11T08:36:54Z</time>
      </trkpt>
      <trkpt lat="49.89836" lon="2.29562">
        <ele>25</ele>
        <time>2022-04-11T08:36:55Z</time>
      </trkpt>
      <trkpt lat="49.89835" lon="2.29561">
        <ele>25.1</ele>
        <time>2022-04-11T08:36:57Z</time>
      </trkpt>
      <trkpt lat="49.89834" lon="2.29559">
        <ele>25.1</ele>
        <time>2022-04-11T08:36:58Z</time>
      </trkpt>
      <trkpt lat="49.89832" lon="2.29557">
        <ele>25.1</ele>
        <time>2022-04-11T08:36:59Z</time>
      </trkpt>
      <trkpt lat="49.89832" lon="2.29556">
        <ele>25.1</ele>
        <time>2022-04-11T08:37:00Z</time>
      </trkpt>
      <trkpt lat="49.89831" lon="2.29555">
        <ele>25.1</ele>
        <time>2022-04-11T08:37:01Z</time>
      </trkpt>
      <trkpt lat="49.8983" lon="2.29554">
        <ele>25.2</ele>
        <time>2022-04-11T08:37:03Z</time>
      </trkpt>
      <trkpt lat="49.89829" lon="2.29553">
        <ele>25.2</ele>
        <time>2022-04-11T08:37:04Z</time>
      </trkpt>
      <trkpt lat="49.89829" lon="2.29552">
        <ele>25.2</ele>
        <time>2022-04-11T08:37:05Z</time>
      </trkpt>
      <trkpt lat="49.89828" lon="2.29551">
        <ele>25.2</ele>
        <time>2022-04-11T08:37:06Z</time>
      </trkpt>
      <trkpt lat="49.89828" lon="2.29549">
        <ele>25.2</ele>
        <time>2022-04-11T08:37:07Z</time>
      </trkpt>
      <trkpt lat="49.89827" lon="2.29547">
        <ele>25.2</ele>
        <time>2022-04-11T08:37:08Z</time>
      </trkpt>
      <trkpt lat="49.89828" lon="2.29545">
        <ele>25.2</ele>
        <time>2022-04-11T08:37:09Z</time>
      </trkpt>
      <trkpt lat="49.89828" lon="2.29543">
        <ele>25.3</ele>
        <time>2022-04-11T08:37:10Z</time>
      </trkpt>
      <trkpt lat="49.89829" lon="2.29541">
        <ele>25.3</ele>
        <time>2022-04-11T08:37:12Z</time>
      </trkpt>
      <trkpt lat="49.8983" lon="2.2954">
        <ele>25.3</ele>
        <time>2022-04-11T08:37:13Z</time>
      </trkpt>
      <trkpt lat="49.8983" lon="2.29538">
        <ele>25.3</ele>
        <time>2022-04-11T08:37:14Z</time>
      </trkpt>
      <trkpt lat="49.89831" lon="2.29538">
        <ele>25.3</ele>
        <time>2022-04-11T08:37:15Z</time>
      </trkpt>
      <trkpt lat="49.89832" lon="2.29538">
        <ele>25.5</ele>
        <time>2022-04-11T08:37:16Z</time>
      </trkpt>
      <trkpt lat="49.89834" lon="2.29538">
        <ele>25.7</ele>
        <time>2022-04-11T08:37:17Z</time>
      </trkpt>
      <trkpt lat="49.89834" lon="2.29537">
        <ele>25.7</ele>
        <time>2022-04-11T08:37:18Z</time>
      </trkpt>
      <trkpt lat="49.89835" lon="2.29536">
        <ele>25.6</ele>
        <time>2022-04-11T08:37:19Z</time>
      </trkpt>
      <trkpt lat="49.89836" lon="2.29534">
        <ele>25.6</ele>
        <time>2022-04-11T08:37:21Z</time>
      </trkpt>
      <trkpt lat="49.89836" lon="2.29533">
        <ele>25.6</ele>
        <time>2022-04-11T08:37:22Z</time>
      </trkpt>
      <trkpt lat="49.89836" lon="2.29533">
        <ele>25.6</ele>
        <time>2022-04-11T08:37:23Z</time>
      </trkpt>
      <trkpt lat="49.89836" lon="2.29532">
        <ele>25.6</ele>
        <time>2022-04-11T08:37:24Z</time>
      </trkpt>
      <trkpt lat="49.89836" lon="2.29532">
        <ele>25.6</ele>
        <time>2022-04-11T08:37:25Z</time>
      </trkpt>
      <trkpt lat="49.89836" lon="2.29532">
        <ele>25.6</ele>
        <time>2022-04-11T08:37:26Z</time>
      </trkpt>
      <trkpt lat="49.89836" lon="2.29532">
        <ele>25.6</ele>
        <time>2022-04-11T08:37:27Z</time>
      </trkpt>
      <trkpt lat="49.89835" lon="2.29532">
        <ele>25.6</ele>
        <time>2022-04-11T08:37:28Z</time>
      </trkpt>
      <trkpt lat="49.89835" lon="2.29532">
        <ele>25.6</ele>
        <time>2022-04-11T08:37:29Z</time>
      </trkpt>
      <trkpt lat="49.89835" lon="2.29532">
        <ele>25.6</ele>
        <time>2022-04-11T08:37:30Z</time>
      </trkpt>
      <trkpt lat="49.89834" lon="2.29532">
        <ele>25.6</ele>
        <time>2022-04-11T08:37:31Z</time>
      </trkpt>
      <trkpt lat="49.89834" lon="2.29532">
        <ele>25.6</ele>
        <time>2022-04-11T08:37:32Z</time>
      </trkpt>
      <trkpt lat="49.89833" lon="2.29532">
        <ele>25.6</ele>
        <time>2022-04-11T08:37:33Z</time>
      </trkpt>
      <trkpt lat="49.89833" lon="2.29532">
        <ele>25.6</ele>
        <time>2022-04-11T08:37:34Z</time>
      </trkpt>
      <trkpt lat="49.89833" lon="2.29532">
        <ele>25.6</ele>
        <time>2022-04-11T08:37:35Z</time>
      </trkpt>
      <trkpt lat="49.89833" lon="2.29532">
        <ele>25.6</ele>
        <time>2022-04-11T08:37:36Z</time>
      </trkpt>
      <trkpt lat="49.89833" lon="2.29532">
        <ele>25.6</ele>
        <time>2022-04-11T08:37:37Z</time>
      </trkpt>
      <trkpt lat="49.89833" lon="2.29532">
        <ele>25.6</ele>
        <time>2022-04-11T08:37:38Z</time>
      </trkpt>
      <trkpt lat="49.89833" lon="2.29532">
        <ele>25.6</ele>
        <time>2022-04-11T08:37:39Z</time>
      </trkpt>
      <trkpt lat="49.89832" lon="2.29532">
        <ele>25.6</ele>
        <time>2022-04-11T08:37:40Z</time>
      </trkpt>
      <trkpt lat="49.89832" lon="2.29532">
        <ele>25.6</ele>
        <time>2022-04-11T08:37:41Z</time>
      </trkpt>
      <trkpt lat="49.89832" lon="2.29532">
        <ele>25.6</ele>
        <time>2022-04-11T08:37:42Z</time>
      </trkpt>
      <trkpt lat="49.89832" lon="2.29532">
        <ele>25.6</ele>
        <time>2022-04-11T08:37:43Z</time>
      </trkpt>
      <trkpt lat="49.89832" lon="2.29532">
        <ele>25.6</ele>
        <time>2022-04-11T08:37:44Z</time>
      </trkpt>
      <trkpt lat="49.89832" lon="2.29532">
        <ele>25.6</ele>
        <time>2022-04-11T08:37:45Z</time>
      </trkpt>
      <trkpt lat="49.89832" lon="2.29532">
        <ele>25.6</ele>
        <time>2022-04-11T08:37:46Z</time>
      </trkpt>
      <trkpt lat="49.89832" lon="2.29532">
        <ele>25.6</ele>
        <time>2022-04-11T08:37:47Z</time>
      </trkpt>
      <trkpt lat="49.89833" lon="2.29532">
        <ele>25.6</ele>
        <time>2022-04-11T08:37:48Z</time>
      </trkpt>
      <trkpt lat="49.89834" lon="2.29533">
        <ele>25.6</ele>
        <time>2022-04-11T08:37:49Z</time>
      </trkpt>
      <trkpt lat="49.89834" lon="2.29533">
        <ele>25.6</ele>
        <time>2022-04-11T08:37:50Z</time>
      </trkpt>
      <trkpt lat="49.89836" lon="2.29534">
        <ele>25.6</ele>
        <time>2022-04-11T08:37:51Z</time>
      </trkpt>
      <trkpt lat="49.89837" lon="2.29534">
        <ele>25.6</ele>
        <time>2022-04-11T08:37:52Z</time>
      </trkpt>
      <trkpt lat="49.89838" lon="2.29534">
        <ele>25.6</ele>
        <time>2022-04-11T08:37:54Z</time>
      </trkpt>
      <trkpt lat="49.89839" lon="2.29535">
        <ele>25.6</ele>
        <time>2022-04-11T08:37:55Z</time>
      </trkpt>
      <trkpt lat="49.89839" lon="2.29535">
        <ele>25.6</ele>
        <time>2022-04-11T08:37:56Z</time>
      </trkpt>
      <trkpt lat="49.8984" lon="2.29535">
        <ele>25.6</ele>
        <time>2022-04-11T08:37:57Z</time>
      </trkpt>
      <trkpt lat="49.89841" lon="2.29535">
        <ele>25.6</ele>
        <time>2022-04-11T08:37:58Z</time>
      </trkpt>
      <trkpt lat="49.89842" lon="2.29535">
        <ele>25.6</ele>
        <time>2022-04-11T08:37:59Z</time>
      </trkpt>
      <trkpt lat="49.89842" lon="2.29534">
        <ele>25.6</ele>
        <time>2022-04-11T08:38:00Z</time>
      </trkpt>
      <trkpt lat="49.89842" lon="2.29533">
        <ele>25.6</ele>
        <time>2022-04-11T08:38:01Z</time>
      </trkpt>
      <trkpt lat="49.89841" lon="2.29531">
        <ele>25.6</ele>
        <time>2022-04-11T08:38:02Z</time>
      </trkpt>
      <trkpt lat="49.89841" lon="2.2953">
        <ele>25.6</ele>
        <time>2022-04-11T08:38:03Z</time>
      </trkpt>
      <trkpt lat="49.89841" lon="2.29528">
        <ele>25.6</ele>
        <time>2022-04-11T08:38:04Z</time>
      </trkpt>
      <trkpt lat="49.89841" lon="2.29527">
        <ele>25.6</ele>
        <time>2022-04-11T08:38:06Z</time>
      </trkpt>
      <trkpt lat="49.89841" lon="2.29526">
        <ele>25.6</ele>
        <time>2022-04-11T08:38:07Z</time>
      </trkpt>
      <trkpt lat="49.89841" lon="2.29525">
        <ele>25.6</ele>
        <time>2022-04-11T08:38:08Z</time>
      </trkpt>
      <trkpt lat="49.89841" lon="2.29524">
        <ele>25.6</ele>
        <time>2022-04-11T08:38:09Z</time>
      </trkpt>
      <trkpt lat="49.89841" lon="2.29524">
        <ele>25.6</ele>
        <time>2022-04-11T08:38:10Z</time>
      </trkpt>
      <trkpt lat="49.89842" lon="2.29523">
        <ele>25.6</ele>
        <time>2022-04-11T08:38:11Z</time>
      </trkpt>
      <trkpt lat="49.89842" lon="2.29523">
        <ele>25.6</ele>
        <time>2022-04-11T08:38:12Z</time>
      </trkpt>
      <trkpt lat="49.89842" lon="2.29523">
        <ele>25.6</ele>
        <time>2022-04-11T08:38:13Z</time>
      </trkpt>
      <trkpt lat="49.89842" lon="2.29524">
        <ele>25.6</ele>
        <time>2022-04-11T08:38:14Z</time>
      </trkpt>
      <trkpt lat="49.89842" lon="2.29524">
        <ele>25.6</ele>
        <time>2022-04-11T08:38:15Z</time>
      </trkpt>
      <trkpt lat="49.89843" lon="2.29525">
        <ele>25.6</ele>
        <time>2022-04-11T08:38:16Z</time>
      </trkpt>
      <trkpt lat="49.89843" lon="2.29525">
        <ele>25.6</ele>
        <time>2022-04-11T08:38:17Z</time>
      </trkpt>
      <trkpt lat="49.89843" lon="2.29525">
        <ele>25.6</ele>
        <time>2022-04-11T08:38:18Z</time>
      </trkpt>
      <trkpt lat="49.89843" lon="2.29525">
        <ele>25.6</ele>
        <time>2022-04-11T08:38:19Z</time>
      </trkpt>
      <trkpt lat="49.89843" lon="2.29526">
        <ele>25.6</ele>
        <time>2022-04-11T08:38:20Z</time>
      </trkpt>
      <trkpt lat="49.89843" lon="2.29526">
        <ele>25.6</ele>
        <time>2022-04-11T08:38:21Z</time>
      </trkpt>
      <trkpt lat="49.89843" lon="2.29526">
        <ele>25.6</ele>
        <time>2022-04-11T08:38:22Z</time>
      </trkpt>
      <trkpt lat="49.89843" lon="2.29526">
        <ele>25.6</ele>
        <time>2022-04-11T08:38:23Z</time>
      </trkpt>
      <trkpt lat="49.89843" lon="2.29526">
        <ele>25.6</ele>
        <time>2022-04-11T08:38:24Z</time>
      </trkpt>
      <trkpt lat="49.89843" lon="2.29526">
        <ele>25.6</ele>
        <time>2022-04-11T08:38:25Z</time>
      </trkpt>
      <trkpt lat="49.89843" lon="2.29527">
        <ele>25.6</ele>
        <time>2022-04-11T08:38:26Z</time>
      </trkpt>
      <trkpt lat="49.89843" lon="2.29527">
        <ele>25.6</ele>
        <time>2022-04-11T08:38:27Z</time>
      </trkpt>
      <trkpt lat="49.89843" lon="2.29528">
        <ele>25.6</ele>
        <time>2022-04-11T08:38:28Z</time>
      </trkpt>
      <trkpt lat="49.89843" lon="2.29528">
        <ele>25.6</ele>
        <time>2022-04-11T08:38:29Z</time>
      </trkpt>
      <trkpt lat="49.89843" lon="2.29528">
        <ele>25.6</ele>
        <time>2022-04-11T08:38:30Z</time>
      </trkpt>
      <trkpt lat="49.89843" lon="2.29528">
        <ele>25.6</ele>
        <time>2022-04-11T08:38:31Z</time>
      </trkpt>
      <trkpt lat="49.89843" lon="2.29529">
        <ele>25.6</ele>
        <time>2022-04-11T08:38:32Z</time>
      </trkpt>
      <trkpt lat="49.89843" lon="2.29529">
        <ele>25.6</ele>
        <time>2022-04-11T08:38:33Z</time>
      </trkpt>
      <trkpt lat="49.89843" lon="2.29529">
        <ele>25.6</ele>
        <time>2022-04-11T08:38:34Z</time>
      </trkpt>
      <trkpt lat="49.89843" lon="2.29529">
        <ele>25.6</ele>
        <time>2022-04-11T08:38:35Z</time>
      </trkpt>
      <trkpt lat="49.89843" lon="2.29529">
        <ele>25.6</ele>
        <time>2022-04-11T08:38:36Z</time>
      </trkpt>
      <trkpt lat="49.89843" lon="2.29529">
        <ele>25.6</ele>
        <time>2022-04-11T08:38:37Z</time>
      </trkpt>
      <trkpt lat="49.89843" lon="2.29529">
        <ele>25.6</ele>
        <time>2022-04-11T08:38:38Z</time>
      </trkpt>
      <trkpt lat="49.89843" lon="2.29529">
        <ele>25.6</ele>
        <time>2022-04-11T08:38:39Z</time>
      </trkpt>
      <trkpt lat="49.89843" lon="2.29529">
        <ele>25.6</ele>
        <time>2022-04-11T08:38:40Z</time>
      </trkpt>
      <trkpt lat="49.89843" lon="2.29529">
        <ele>25.6</ele>
        <time>2022-04-11T08:38:41Z</time>
      </trkpt>
      <trkpt lat="49.89843" lon="2.29529">
        <ele>25.6</ele>
        <time>2022-04-11T08:38:42Z</time>
      </trkpt>
      <trkpt lat="49.89843" lon="2.29529">
        <ele>25.6</ele>
        <time>2022-04-11T08:38:43Z</time>
      </trkpt>
      <trkpt lat="49.89843" lon="2.29528">
        <ele>25.6</ele>
        <time>2022-04-11T08:38:44Z</time>
      </trkpt>
      <trkpt lat="49.89844" lon="2.29527">
        <ele>25.6</ele>
        <time>2022-04-11T08:38:45Z</time>
      </trkpt>
      <trkpt lat="49.89845" lon="2.29526">
        <ele>25.6</ele>
        <time>2022-04-11T08:38:46Z</time>
      </trkpt>
      <trkpt lat="49.89846" lon="2.29526">
        <ele>25.6</ele>
        <time>2022-04-11T08:38:47Z</time>
      </trkpt>
      <trkpt lat="49.89846" lon="2.29526">
        <ele>25.6</ele>
        <time>2022-04-11T08:38:48Z</time>
      </trkpt>
      <trkpt lat="49.89846" lon="2.29526">
        <ele>25.6</ele>
        <time>2022-04-11T08:38:49Z</time>
      </trkpt>
      <trkpt lat="49.89846" lon="2.29527">
        <ele>25.6</ele>
        <time>2022-04-11T08:38:50Z</time>
      </trkpt>
      <trkpt lat="49.89847" lon="2.29527">
        <ele>25.6</ele>
        <time>2022-04-11T08:38:51Z</time>
      </trkpt>
      <trkpt lat="49.89848" lon="2.29528">
        <ele>25.6</ele>
        <time>2022-04-11T08:38:52Z</time>
      </trkpt>
      <trkpt lat="49.89849" lon="2.29528">
        <ele>25.5</ele>
        <time>2022-04-11T08:38:53Z</time>
      </trkpt>
      <trkpt lat="49.8985" lon="2.29528">
        <ele>25.5</ele>
        <time>2022-04-11T08:38:55Z</time>
      </trkpt>
      <trkpt lat="49.89851" lon="2.29528">
        <ele>25.5</ele>
        <time>2022-04-11T08:38:56Z</time>
      </trkpt>
      <trkpt lat="49.89852" lon="2.29528">
        <ele>25.5</ele>
        <time>2022-04-11T08:38:57Z</time>
      </trkpt>
      <trkpt lat="49.89852" lon="2.29527">
        <ele>25.5</ele>
        <time>2022-04-11T08:38:58Z</time>
      </trkpt>
      <trkpt lat="49.89852" lon="2.29526">
        <ele>25.5</ele>
        <time>2022-04-11T08:39:00Z</time>
      </trkpt>
      <trkpt lat="49.89852" lon="2.29525">
        <ele>25.5</ele>
        <time>2022-04-11T08:39:01Z</time>
      </trkpt>
      <trkpt lat="49.89853" lon="2.29524">
        <ele>25.5</ele>
        <time>2022-04-11T08:39:02Z</time>
      </trkpt>
      <trkpt lat="49.89853" lon="2.29523">
        <ele>25.4</ele>
        <time>2022-04-11T08:39:03Z</time>
      </trkpt>
      <trkpt lat="49.89854" lon="2.29522">
        <ele>25.4</ele>
        <time>2022-04-11T08:39:04Z</time>
      </trkpt>
      <trkpt lat="49.89854" lon="2.29521">
        <ele>25.4</ele>
        <time>2022-04-11T08:39:05Z</time>
      </trkpt>
      <trkpt lat="49.89855" lon="2.2952">
        <ele>25.4</ele>
        <time>2022-04-11T08:39:06Z</time>
      </trkpt>
      <trkpt lat="49.89855" lon="2.29519">
        <ele>25.4</ele>
        <time>2022-04-11T08:39:08Z</time>
      </trkpt>
      <trkpt lat="49.89855" lon="2.29517">
        <ele>25.4</ele>
        <time>2022-04-11T08:39:09Z</time>
      </trkpt>
      <trkpt lat="49.89854" lon="2.29515">
        <ele>25.4</ele>
        <time>2022-04-11T08:39:10Z</time>
      </trkpt>
      <trkpt lat="49.89854" lon="2.29514">
        <ele>25.3</ele>
        <time>2022-04-11T08:39:11Z</time>
      </trkpt>
      <trkpt lat="49.89853" lon="2.29513">
        <ele>25.3</ele>
        <time>2022-04-11T08:39:12Z</time>
      </trkpt>
      <trkpt lat="49.89852" lon="2.29511">
        <ele>25.3</ele>
        <time>2022-04-11T08:39:13Z</time>
      </trkpt>
      <trkpt lat="49.89851" lon="2.29509">
        <ele>25.3</ele>
        <time>2022-04-11T08:39:14Z</time>
      </trkpt>
      <trkpt lat="49.89851" lon="2.29507">
        <ele>25.3</ele>
        <time>2022-04-11T08:39:16Z</time>
      </trkpt>
      <trkpt lat="49.89851" lon="2.29506">
        <ele>25.3</ele>
        <time>2022-04-11T08:39:17Z</time>
      </trkpt>
      <trkpt lat="49.89851" lon="2.29505">
        <ele>25.3</ele>
        <time>2022-04-11T08:39:18Z</time>
      </trkpt>
      <trkpt lat="49.8985" lon="2.29503">
        <ele>25.3</ele>
        <time>2022-04-11T08:39:19Z</time>
      </trkpt>
      <trkpt lat="49.8985" lon="2.29502">
        <ele>25.1</ele>
        <time>2022-04-11T08:39:20Z</time>
      </trkpt>
      <trkpt lat="49.8985" lon="2.29501">
        <ele>25</ele>
        <time>2022-04-11T08:39:21Z</time>
      </trkpt>
      <trkpt lat="49.89851" lon="2.29501">
        <ele>25</ele>
        <time>2022-04-11T08:39:22Z</time>
      </trkpt>
      <trkpt lat="49.89852" lon="2.29501">
        <ele>25</ele>
        <time>2022-04-11T08:39:23Z</time>
      </trkpt>
      <trkpt lat="49.89853" lon="2.29501">
        <ele>25</ele>
        <time>2022-04-11T08:39:24Z</time>
      </trkpt>
      <trkpt lat="49.89853" lon="2.29502">
        <ele>25</ele>
        <time>2022-04-11T08:39:25Z</time>
      </trkpt>
      <trkpt lat="49.89853" lon="2.29501">
        <ele>25</ele>
        <time>2022-04-11T08:39:27Z</time>
      </trkpt>
      <trkpt lat="49.89853" lon="2.29501">
        <ele>25</ele>
        <time>2022-04-11T08:39:28Z</time>
      </trkpt>
      <trkpt lat="49.89853" lon="2.29501">
        <ele>25</ele>
        <time>2022-04-11T08:39:29Z</time>
      </trkpt>
      <trkpt lat="49.89853" lon="2.29501">
        <ele>25</ele>
        <time>2022-04-11T08:39:30Z</time>
      </trkpt>
      <trkpt lat="49.89853" lon="2.29501">
        <ele>25</ele>
        <time>2022-04-11T08:39:31Z</time>
      </trkpt>
      <trkpt lat="49.89853" lon="2.29501">
        <ele>25</ele>
        <time>2022-04-11T08:39:32Z</time>
      </trkpt>
      <trkpt lat="49.89853" lon="2.29501">
        <ele>25</ele>
        <time>2022-04-11T08:39:33Z</time>
      </trkpt>
      <trkpt lat="49.89853" lon="2.29501">
        <ele>25</ele>
        <time>2022-04-11T08:39:34Z</time>
      </trkpt>
      <trkpt lat="49.89853" lon="2.29501">
        <ele>24.9</ele>
        <time>2022-04-11T08:39:35Z</time>
      </trkpt>
      <trkpt lat="49.89853" lon="2.29502">
        <ele>24.9</ele>
        <time>2022-04-11T08:39:36Z</time>
      </trkpt>
      <trkpt lat="49.89854" lon="2.29502">
        <ele>24.9</ele>
        <time>2022-04-11T08:39:38Z</time>
      </trkpt>
      <trkpt lat="49.89854" lon="2.29501">
        <ele>24.9</ele>
        <time>2022-04-11T08:39:39Z</time>
      </trkpt>
      <trkpt lat="49.89854" lon="2.295">
        <ele>24.9</ele>
        <time>2022-04-11T08:39:40Z</time>
      </trkpt>
      <trkpt lat="49.89854" lon="2.29499">
        <ele>24.9</ele>
        <time>2022-04-11T08:39:41Z</time>
      </trkpt>
      <trkpt lat="49.89854" lon="2.29498">
        <ele>24.9</ele>
        <time>2022-04-11T08:39:43Z</time>
      </trkpt>
      <trkpt lat="49.89854" lon="2.29497">
        <ele>24.9</ele>
        <time>2022-04-11T08:39:44Z</time>
      </trkpt>
      <trkpt lat="49.89854" lon="2.29496">
        <ele>24.9</ele>
        <time>2022-04-11T08:39:45Z</time>
      </trkpt>
      <trkpt lat="49.89854" lon="2.29496">
        <ele>24.9</ele>
        <time>2022-04-11T08:39:47Z</time>
      </trkpt>
      <trkpt lat="49.89854" lon="2.29495">
        <ele>24.9</ele>
        <time>2022-04-11T08:39:48Z</time>
      </trkpt>
      <trkpt lat="49.89854" lon="2.29495">
        <ele>24.8</ele>
        <time>2022-04-11T08:39:49Z</time>
      </trkpt>
      <trkpt lat="49.89854" lon="2.29494">
        <ele>24.8</ele>
        <time>2022-04-11T08:39:51Z</time>
      </trkpt>
      <trkpt lat="49.89855" lon="2.29493">
        <ele>24.8</ele>
        <time>2022-04-11T08:39:52Z</time>
      </trkpt>
      <trkpt lat="49.89856" lon="2.29492">
        <ele>24.8</ele>
        <time>2022-04-11T08:39:53Z</time>
      </trkpt>
      <trkpt lat="49.89856" lon="2.29491">
        <ele>24.8</ele>
        <time>2022-04-11T08:39:55Z</time>
      </trkpt>
      <trkpt lat="49.89857" lon="2.2949">
        <ele>24.8</ele>
        <time>2022-04-11T08:39:56Z</time>
      </trkpt>
      <trkpt lat="49.89857" lon="2.2949">
        <ele>24.8</ele>
        <time>2022-04-11T08:39:57Z</time>
      </trkpt>
      <trkpt lat="49.89857" lon="2.29489">
        <ele>24.7</ele>
        <time>2022-04-11T08:39:58Z</time>
      </trkpt>
      <trkpt lat="49.89858" lon="2.29488">
        <ele>24.7</ele>
        <time>2022-04-11T08:39:59Z</time>
      </trkpt>
      <trkpt lat="49.89858" lon="2.29487">
        <ele>24.7</ele>
        <time>2022-04-11T08:40:00Z</time>
      </trkpt>
      <trkpt lat="49.89858" lon="2.29487">
        <ele>24.7</ele>
        <time>2022-04-11T08:40:01Z</time>
      </trkpt>
      <trkpt lat="49.89858" lon="2.29488">
        <ele>24.7</ele>
        <time>2022-04-11T08:40:02Z</time>
      </trkpt>
      <trkpt lat="49.89857" lon="2.2949">
        <ele>24.7</ele>
        <time>2022-04-11T08:40:03Z</time>
      </trkpt>
      <trkpt lat="49.89857" lon="2.2949">
        <ele>24.7</ele>
        <time>2022-04-11T08:40:04Z</time>
      </trkpt>
      <trkpt lat="49.89857" lon="2.2949">
        <ele>24.7</ele>
        <time>2022-04-11T08:40:05Z</time>
      </trkpt>
      <trkpt lat="49.89857" lon="2.2949">
        <ele>24.7</ele>
        <time>2022-04-11T08:40:06Z</time>
      </trkpt>
      <trkpt lat="49.89857" lon="2.2949">
        <ele>24.7</ele>
        <time>2022-04-11T08:40:07Z</time>
      </trkpt>
      <trkpt lat="49.89856" lon="2.2949">
        <ele>24.7</ele>
        <time>2022-04-11T08:40:09Z</time>
      </trkpt>
      <trkpt lat="49.89856" lon="2.2949">
        <ele>24.7</ele>
        <time>2022-04-11T08:40:10Z</time>
      </trkpt>
      <trkpt lat="49.89856" lon="2.2949">
        <ele>24.7</ele>
        <time>2022-04-11T08:40:11Z</time>
      </trkpt>
      <trkpt lat="49.89857" lon="2.29491">
        <ele>24.7</ele>
        <time>2022-04-11T08:40:12Z</time>
      </trkpt>
      <trkpt lat="49.89857" lon="2.29491">
        <ele>24.7</ele>
        <time>2022-04-11T08:40:13Z</time>
      </trkpt>
      <trkpt lat="49.89857" lon="2.29491">
        <ele>24.7</ele>
        <time>2022-04-11T08:40:14Z</time>
      </trkpt>
      <trkpt lat="49.89857" lon="2.29492">
        <ele>24.7</ele>
        <time>2022-04-11T08:40:15Z</time>
      </trkpt>
      <trkpt lat="49.89857" lon="2.29492">
        <ele>24.7</ele>
        <time>2022-04-11T08:40:17Z</time>
      </trkpt>
      <trkpt lat="49.89858" lon="2.29492">
        <ele>24.6</ele>
        <time>2022-04-11T08:40:18Z</time>
      </trkpt>
      <trkpt lat="49.89859" lon="2.29492">
        <ele>24.6</ele>
        <time>2022-04-11T08:40:19Z</time>
      </trkpt>
      <trkpt lat="49.8986" lon="2.29491">
        <ele>24.6</ele>
        <time>2022-04-11T08:40:21Z</time>
      </trkpt>
      <trkpt lat="49.89861" lon="2.29492">
        <ele>24.6</ele>
        <time>2022-04-11T08:40:22Z</time>
      </trkpt>
      <trkpt lat="49.89861" lon="2.29492">
        <ele>24.6</ele>
        <time>2022-04-11T08:40:23Z</time>
      </trkpt>
      <trkpt lat="49.89862" lon="2.29491">
        <ele>24.6</ele>
        <time>2022-04-11T08:40:24Z</time>
      </trkpt>
      <trkpt lat="49.89863" lon="2.29489">
        <ele>24.5</ele>
        <time>2022-04-11T08:40:25Z</time>
      </trkpt>
      <trkpt lat="49.89863" lon="2.29483">
        <ele>24.5</ele>
        <time>2022-04-11T08:40:27Z</time>
      </trkpt>
      <trkpt lat="49.89864" lon="2.29481">
        <ele>24.4</ele>
        <time>2022-04-11T08:40:28Z</time>
      </trkpt>
      <trkpt lat="49.89864" lon="2.29479">
        <ele>24.4</ele>
        <time>2022-04-11T08:40:29Z</time>
      </trkpt>
      <trkpt lat="49.89864" lon="2.29479">
        <ele>24.4</ele>
        <time>2022-04-11T08:40:30Z</time>
      </trkpt>
      <trkpt lat="49.89864" lon="2.29478">
        <ele>24.4</ele>
        <time>2022-04-11T08:40:31Z</time>
      </trkpt>
      <trkpt lat="49.89863" lon="2.29478">
        <ele>24.4</ele>
        <time>2022-04-11T08:40:32Z</time>
      </trkpt>
      <trkpt lat="49.89862" lon="2.29478">
        <ele>24.4</ele>
        <time>2022-04-11T08:40:33Z</time>
      </trkpt>
      <trkpt lat="49.89862" lon="2.29478">
        <ele>24.4</ele>
        <time>2022-04-11T08:40:34Z</time>
      </trkpt>
      <trkpt lat="49.89862" lon="2.29478">
        <ele>24.4</ele>
        <time>2022-04-11T08:40:35Z</time>
      </trkpt>
      <trkpt lat="49.89861" lon="2.29478">
        <ele>24.4</ele>
        <time>2022-04-11T08:40:36Z</time>
      </trkpt>
      <trkpt lat="49.89861" lon="2.29478">
        <ele>24.4</ele>
        <time>2022-04-11T08:40:37Z</time>
      </trkpt>
      <trkpt lat="49.89861" lon="2.29477">
        <ele>24.4</ele>
        <time>2022-04-11T08:40:38Z</time>
      </trkpt>
      <trkpt lat="49.89861" lon="2.29477">
        <ele>24.4</ele>
        <time>2022-04-11T08:40:39Z</time>
      </trkpt>
      <trkpt lat="49.89861" lon="2.29477">
        <ele>24.4</ele>
        <time>2022-04-11T08:40:40Z</time>
      </trkpt>
      <trkpt lat="49.89861" lon="2.29477">
        <ele>24.4</ele>
        <time>2022-04-11T08:40:41Z</time>
      </trkpt>
      <trkpt lat="49.89861" lon="2.29477">
        <ele>24.4</ele>
        <time>2022-04-11T08:40:42Z</time>
      </trkpt>
      <trkpt lat="49.89861" lon="2.29477">
        <ele>24.4</ele>
        <time>2022-04-11T08:40:43Z</time>
      </trkpt>
      <trkpt lat="49.8986" lon="2.29477">
        <ele>24.4</ele>
        <time>2022-04-11T08:40:44Z</time>
      </trkpt>
      <trkpt lat="49.8986" lon="2.29476">
        <ele>24.4</ele>
        <time>2022-04-11T08:40:45Z</time>
      </trkpt>
      <trkpt lat="49.8986" lon="2.29476">
        <ele>24.4</ele>
        <time>2022-04-11T08:40:46Z</time>
      </trkpt>
      <trkpt lat="49.89861" lon="2.29476">
        <ele>24.4</ele>
        <time>2022-04-11T08:40:47Z</time>
      </trkpt>
      <trkpt lat="49.89861" lon="2.29475">
        <ele>24.3</ele>
        <time>2022-04-11T08:40:49Z</time>
      </trkpt>
      <trkpt lat="49.89862" lon="2.29474">
        <ele>24.3</ele>
        <time>2022-04-11T08:40:50Z</time>
      </trkpt>
      <trkpt lat="49.89863" lon="2.29472">
        <ele>24.3</ele>
        <time>2022-04-11T08:40:51Z</time>
      </trkpt>
      <trkpt lat="49.89864" lon="2.29469">
        <ele>24.3</ele>
        <time>2022-04-11T08:40:52Z</time>
      </trkpt>
      <trkpt lat="49.89864" lon="2.29467">
        <ele>24.2</ele>
        <time>2022-04-11T08:40:54Z</time>
      </trkpt>
      <trkpt lat="49.89864" lon="2.29464">
        <ele>24.2</ele>
        <time>2022-04-11T08:40:55Z</time>
      </trkpt>
      <trkpt lat="49.89864" lon="2.29462">
        <ele>24.2</ele>
        <time>2022-04-11T08:40:56Z</time>
      </trkpt>
      <trkpt lat="49.89865" lon="2.2946">
        <ele>24.2</ele>
        <time>2022-04-11T08:40:57Z</time>
      </trkpt>
      <trkpt lat="49.89865" lon="2.29457">
        <ele>24.2</ele>
        <time>2022-04-11T08:40:58Z</time>
      </trkpt>
      <trkpt lat="49.89865" lon="2.29453">
        <ele>24.1</ele>
        <time>2022-04-11T08:41:00Z</time>
      </trkpt>
      <trkpt lat="49.89864" lon="2.29452">
        <ele>24.1</ele>
        <time>2022-04-11T08:41:02Z</time>
      </trkpt>
      <trkpt lat="49.89864" lon="2.2945">
        <ele>24.1</ele>
        <time>2022-04-11T08:41:03Z</time>
      </trkpt>
      <trkpt lat="49.89864" lon="2.29448">
        <ele>24.1</ele>
        <time>2022-04-11T08:41:04Z</time>
      </trkpt>
      <trkpt lat="49.89865" lon="2.29447">
        <ele>24.1</ele>
        <time>2022-04-11T08:41:05Z</time>
      </trkpt>
      <trkpt lat="49.89865" lon="2.29445">
        <ele>24</ele>
        <time>2022-04-11T08:41:06Z</time>
      </trkpt>
      <trkpt lat="49.89867" lon="2.29443">
        <ele>24</ele>
        <time>2022-04-11T08:41:07Z</time>
      </trkpt>
      <trkpt lat="49.89867" lon="2.29442">
        <ele>24</ele>
        <time>2022-04-11T08:41:08Z</time>
      </trkpt>
      <trkpt lat="49.89868" lon="2.29441">
        <ele>24</ele>
        <time>2022-04-11T08:41:09Z</time>
      </trkpt>
      <trkpt lat="49.89869" lon="2.2944">
        <ele>24</ele>
        <time>2022-04-11T08:41:10Z</time>
      </trkpt>
      <trkpt lat="49.8987" lon="2.29438">
        <ele>23.9</ele>
        <time>2022-04-11T08:41:12Z</time>
      </trkpt>
      <trkpt lat="49.89871" lon="2.29436">
        <ele>23.9</ele>
        <time>2022-04-11T08:41:13Z</time>
      </trkpt>
      <trkpt lat="49.89872" lon="2.29434">
        <ele>23.9</ele>
        <time>2022-04-11T08:41:14Z</time>
      </trkpt>
      <trkpt lat="49.89874" lon="2.2943">
        <ele>23.8</ele>
        <time>2022-04-11T08:41:16Z</time>
      </trkpt>
      <trkpt lat="49.89874" lon="2.29429">
        <ele>23.8</ele>
        <time>2022-04-11T08:41:17Z</time>
      </trkpt>
      <trkpt lat="49.89874" lon="2.29427">
        <ele>23.8</ele>
        <time>2022-04-11T08:41:18Z</time>
      </trkpt>
      <trkpt lat="49.89875" lon="2.29426">
        <ele>23.8</ele>
        <time>2022-04-11T08:41:19Z</time>
      </trkpt>
      <trkpt lat="49.89875" lon="2.29424">
        <ele>23.8</ele>
        <time>2022-04-11T08:41:20Z</time>
      </trkpt>
      <trkpt lat="49.89875" lon="2.29423">
        <ele>23.8</ele>
        <time>2022-04-11T08:41:21Z</time>
      </trkpt>
      <trkpt lat="49.89875" lon="2.29423">
        <ele>23.8</ele>
        <time>2022-04-11T08:41:22Z</time>
      </trkpt>
      <trkpt lat="49.89875" lon="2.29424">
        <ele>23.8</ele>
        <time>2022-04-11T08:41:23Z</time>
      </trkpt>
      <trkpt lat="49.89874" lon="2.29424">
        <ele>23.8</ele>
        <time>2022-04-11T08:41:24Z</time>
      </trkpt>
      <trkpt lat="49.89874" lon="2.29424">
        <ele>23.8</ele>
        <time>2022-04-11T08:41:25Z</time>
      </trkpt>
      <trkpt lat="49.89874" lon="2.29424">
        <ele>23.8</ele>
        <time>2022-04-11T08:41:26Z</time>
      </trkpt>
      <trkpt lat="49.89874" lon="2.29424">
        <ele>23.8</ele>
        <time>2022-04-11T08:41:27Z</time>
      </trkpt>
      <trkpt lat="49.89874" lon="2.29424">
        <ele>23.8</ele>
        <time>2022-04-11T08:41:28Z</time>
      </trkpt>
      <trkpt lat="49.89874" lon="2.29424">
        <ele>23.8</ele>
        <time>2022-04-11T08:41:29Z</time>
      </trkpt>
      <trkpt lat="49.89874" lon="2.29424">
        <ele>23.8</ele>
        <time>2022-04-11T08:41:30Z</time>
      </trkpt>
      <trkpt lat="49.89874" lon="2.29424">
        <ele>23.8</ele>
        <time>2022-04-11T08:41:31Z</time>
      </trkpt>
      <trkpt lat="49.89874" lon="2.29424">
        <ele>23.8</ele>
        <time>2022-04-11T08:41:32Z</time>
      </trkpt>
      <trkpt lat="49.89874" lon="2.29424">
        <ele>23.8</ele>
        <time>2022-04-11T08:41:33Z</time>
      </trkpt>
      <trkpt lat="49.89873" lon="2.29424">
        <ele>23.8</ele>
        <time>2022-04-11T08:41:34Z</time>
      </trkpt>
      <trkpt lat="49.89873" lon="2.29424">
        <ele>23.8</ele>
        <time>2022-04-11T08:41:35Z</time>
      </trkpt>
      <trkpt lat="49.89873" lon="2.29424">
        <ele>23.8</ele>
        <time>2022-04-11T08:41:36Z</time>
      </trkpt>
      <trkpt lat="49.89873" lon="2.29424">
        <ele>23.8</ele>
        <time>2022-04-11T08:41:37Z</time>
      </trkpt>
      <trkpt lat="49.89873" lon="2.29424">
        <ele>23.8</ele>
        <time>2022-04-11T08:41:38Z</time>
      </trkpt>
      <trkpt lat="49.89873" lon="2.29424">
        <ele>23.8</ele>
        <time>2022-04-11T08:41:39Z</time>
      </trkpt>
      <trkpt lat="49.89873" lon="2.29424">
        <ele>23.8</ele>
        <time>2022-04-11T08:41:40Z</time>
      </trkpt>
      <trkpt lat="49.89873" lon="2.29424">
        <ele>23.8</ele>
        <time>2022-04-11T08:41:41Z</time>
      </trkpt>
      <trkpt lat="49.89873" lon="2.29424">
        <ele>23.8</ele>
        <time>2022-04-11T08:41:42Z</time>
      </trkpt>
      <trkpt lat="49.89873" lon="2.29424">
        <ele>23.8</ele>
        <time>2022-04-11T08:41:43Z</time>
      </trkpt>
      <trkpt lat="49.89873" lon="2.29424">
        <ele>23.8</ele>
        <time>2022-04-11T08:41:44Z</time>
      </trkpt>
      <trkpt lat="49.89873" lon="2.29424">
        <ele>23.8</ele>
        <time>2022-04-11T08:41:45Z</time>
      </trkpt>
      <trkpt lat="49.89873" lon="2.29424">
        <ele>23.8</ele>
        <time>2022-04-11T08:41:46Z</time>
      </trkpt>
      <trkpt lat="49.89873" lon="2.29424">
        <ele>23.8</ele>
        <time>2022-04-11T08:41:47Z</time>
      </trkpt>
      <trkpt lat="49.89873" lon="2.29424">
        <ele>23.8</ele>
        <time>2022-04-11T08:41:48Z</time>
      </trkpt>
      <trkpt lat="49.89873" lon="2.29424">
        <ele>23.8</ele>
        <time>2022-04-11T08:41:49Z</time>
      </trkpt>
      <trkpt lat="49.89873" lon="2.29424">
        <ele>23.8</ele>
        <time>2022-04-11T08:41:50Z</time>
      </trkpt>
      <trkpt lat="49.89873" lon="2.29424">
        <ele>23.8</ele>
        <time>2022-04-11T08:41:51Z</time>
      </trkpt>
      <trkpt lat="49.89873" lon="2.29424">
        <ele>23.8</ele>
        <time>2022-04-11T08:41:52Z</time>
      </trkpt>
      <trkpt lat="49.89873" lon="2.29424">
        <ele>23.8</ele>
        <time>2022-04-11T08:41:53Z</time>
      </trkpt>
      <trkpt lat="49.89873" lon="2.29424">
        <ele>23.8</ele>
        <time>2022-04-11T08:41:54Z</time>
      </trkpt>
      <trkpt lat="49.89873" lon="2.29424">
        <ele>23.8</ele>
        <time>2022-04-11T08:41:55Z</time>
      </trkpt>
      <trkpt lat="49.89873" lon="2.29424">
        <ele>23.8</ele>
        <time>2022-04-11T08:41:56Z</time>
      </trkpt>
      <trkpt lat="49.89873" lon="2.29424">
        <ele>23.8</ele>
        <time>2022-04-11T08:41:57Z</time>
      </trkpt>
      <trkpt lat="49.89873" lon="2.29424">
        <ele>23.8</ele>
        <time>2022-04-11T08:41:58Z</time>
      </trkpt>
      <trkpt lat="49.89873" lon="2.29421">
        <ele>23.7</ele>
        <time>2022-04-11T08:41:59Z</time>
      </trkpt>
      <trkpt lat="49.89873" lon="2.29416">
        <ele>23.7</ele>
        <time>2022-04-11T08:42:00Z</time>
      </trkpt>
      <trkpt lat="49.89873" lon="2.29413">
        <ele>23.7</ele>
        <time>2022-04-11T08:42:01Z</time>
      </trkpt>
      <trkpt lat="49.89873" lon="2.29411">
        <ele>23.7</ele>
        <time>2022-04-11T08:42:02Z</time>
      </trkpt>
      <trkpt lat="49.89873" lon="2.2941">
        <ele>23.7</ele>
        <time>2022-04-11T08:42:03Z</time>
      </trkpt>
      <trkpt lat="49.89873" lon="2.29409">
        <ele>23.7</ele>
        <time>2022-04-11T08:42:04Z</time>
      </trkpt>
      <trkpt lat="49.89873" lon="2.29409">
        <ele>23.7</ele>
        <time>2022-04-11T08:42:05Z</time>
      </trkpt>
      <trkpt lat="49.89873" lon="2.29407">
        <ele>23.6</ele>
        <time>2022-04-11T08:42:06Z</time>
      </trkpt>
      <trkpt lat="49.89873" lon="2.29406">
        <ele>23.6</ele>
        <time>2022-04-11T08:42:07Z</time>
      </trkpt>
      <trkpt lat="49.89873" lon="2.29406">
        <ele>23.6</ele>
        <time>2022-04-11T08:42:08Z</time>
      </trkpt>
      <trkpt lat="49.89873" lon="2.29404">
        <ele>23.6</ele>
        <time>2022-04-11T08:42:09Z</time>
      </trkpt>
      <trkpt lat="49.89873" lon="2.29403">
        <ele>23.6</ele>
        <time>2022-04-11T08:42:10Z</time>
      </trkpt>
      <trkpt lat="49.89873" lon="2.29402">
        <ele>23.6</ele>
        <time>2022-04-11T08:42:11Z</time>
      </trkpt>
      <trkpt lat="49.89874" lon="2.29399">
        <ele>23.6</ele>
        <time>2022-04-11T08:42:12Z</time>
      </trkpt>
      <trkpt lat="49.89875" lon="2.29398">
        <ele>23.6</ele>
        <time>2022-04-11T08:42:13Z</time>
      </trkpt>
      <trkpt lat="49.89876" lon="2.29398">
        <ele>23.6</ele>
        <time>2022-04-11T08:42:14Z</time>
      </trkpt>
      <trkpt lat="49.89876" lon="2.29396">
        <ele>23.6</ele>
        <time>2022-04-11T08:42:15Z</time>
      </trkpt>
      <trkpt lat="49.89877" lon="2.29394">
        <ele>23.6</ele>
        <time>2022-04-11T08:42:16Z</time>
      </trkpt>
      <trkpt lat="49.89877" lon="2.29393">
        <ele>23.6</ele>
        <time>2022-04-11T08:42:17Z</time>
      </trkpt>
      <trkpt lat="49.89877" lon="2.29391">
        <ele>23.6</ele>
        <time>2022-04-11T08:42:19Z</time>
      </trkpt>
      <trkpt lat="49.89878" lon="2.29389">
        <ele>23.6</ele>
        <time>2022-04-11T08:42:20Z</time>
      </trkpt>
      <trkpt lat="49.89878" lon="2.29388">
        <ele>23.6</ele>
        <time>2022-04-11T08:42:21Z</time>
      </trkpt>
      <trkpt lat="49.89878" lon="2.29386">
        <ele>23.5</ele>
        <time>2022-04-11T08:42:22Z</time>
      </trkpt>
      <trkpt lat="49.89879" lon="2.29385">
        <ele>23.5</ele>
        <time>2022-04-11T08:42:23Z</time>
      </trkpt>
      <trkpt lat="49.89879" lon="2.29383">
        <ele>23.5</ele>
        <time>2022-04-11T08:42:24Z</time>
      </trkpt>
      <trkpt lat="49.89881" lon="2.29379">
        <ele>23.5</ele>
        <time>2022-04-11T08:42:25Z</time>
      </trkpt>
      <trkpt lat="49.89882" lon="2.29378">
        <ele>23.5</ele>
        <time>2022-04-11T08:42:26Z</time>
      </trkpt>
      <trkpt lat="49.89883" lon="2.29376">
        <ele>23.5</ele>
        <time>2022-04-11T08:42:27Z</time>
      </trkpt>
      <trkpt lat="49.89883" lon="2.29372">
        <ele>23.5</ele>
        <time>2022-04-11T08:42:29Z</time>
      </trkpt>
      <trkpt lat="49.89884" lon="2.2937">
        <ele>23.5</ele>
        <time>2022-04-11T08:42:30Z</time>
      </trkpt>
      <trkpt lat="49.89885" lon="2.29368">
        <ele>23.5</ele>
        <time>2022-04-11T08:42:31Z</time>
      </trkpt>
      <trkpt lat="49.89885" lon="2.29365">
        <ele>23.5</ele>
        <time>2022-04-11T08:42:32Z</time>
      </trkpt>
      <trkpt lat="49.89886" lon="2.29363">
        <ele>23.5</ele>
        <time>2022-04-11T08:42:33Z</time>
      </trkpt>
      <trkpt lat="49.89887" lon="2.29361">
        <ele>23.6</ele>
        <time>2022-04-11T08:42:34Z</time>
      </trkpt>
      <trkpt lat="49.89888" lon="2.29358">
        <ele>23.6</ele>
        <time>2022-04-11T08:42:36Z</time>
      </trkpt>
      <trkpt lat="49.89888" lon="2.29356">
        <ele>23.6</ele>
        <time>2022-04-11T08:42:37Z</time>
      </trkpt>
      <trkpt lat="49.89889" lon="2.29355">
        <ele>23.6</ele>
        <time>2022-04-11T08:42:38Z</time>
      </trkpt>
      <trkpt lat="49.89889" lon="2.29353">
        <ele>23.6</ele>
        <time>2022-04-11T08:42:39Z</time>
      </trkpt>
      <trkpt lat="49.8989" lon="2.29351">
        <ele>23.6</ele>
        <time>2022-04-11T08:42:40Z</time>
      </trkpt>
      <trkpt lat="49.89891" lon="2.2935">
        <ele>23.6</ele>
        <time>2022-04-11T08:42:41Z</time>
      </trkpt>
      <trkpt lat="49.89892" lon="2.2935">
        <ele>23.6</ele>
        <time>2022-04-11T08:42:42Z</time>
      </trkpt>
      <trkpt lat="49.89893" lon="2.29349">
        <ele>23.7</ele>
        <time>2022-04-11T08:42:43Z</time>
      </trkpt>
      <trkpt lat="49.89894" lon="2.29348">
        <ele>23.7</ele>
        <time>2022-04-11T08:42:44Z</time>
      </trkpt>
      <trkpt lat="49.89895" lon="2.29347">
        <ele>23.7</ele>
        <time>2022-04-11T08:42:45Z</time>
      </trkpt>
      <trkpt lat="49.89896" lon="2.29345">
        <ele>23.7</ele>
        <time>2022-04-11T08:42:46Z</time>
      </trkpt>
      <trkpt lat="49.89897" lon="2.29344">
        <ele>23.7</ele>
        <time>2022-04-11T08:42:48Z</time>
      </trkpt>
      <trkpt lat="49.89898" lon="2.29342">
        <ele>23.7</ele>
        <time>2022-04-11T08:42:49Z</time>
      </trkpt>
      <trkpt lat="49.89899" lon="2.29341">
        <ele>23.8</ele>
        <time>2022-04-11T08:42:50Z</time>
      </trkpt>
      <trkpt lat="49.899" lon="2.2934">
        <ele>23.8</ele>
        <time>2022-04-11T08:42:51Z</time>
      </trkpt>
      <trkpt lat="49.89901" lon="2.29339">
        <ele>23.8</ele>
        <time>2022-04-11T08:42:52Z</time>
      </trkpt>
      <trkpt lat="49.89902" lon="2.29337">
        <ele>23.8</ele>
        <time>2022-04-11T08:42:54Z</time>
      </trkpt>
      <trkpt lat="49.89904" lon="2.29336">
        <ele>23.9</ele>
        <time>2022-04-11T08:42:55Z</time>
      </trkpt>
      <trkpt lat="49.89905" lon="2.29335">
        <ele>23.9</ele>
        <time>2022-04-11T08:42:56Z</time>
      </trkpt>
      <trkpt lat="49.89905" lon="2.29335">
        <ele>23.9</ele>
        <time>2022-04-11T08:42:57Z</time>
      </trkpt>
      <trkpt lat="49.89907" lon="2.29334">
        <ele>23.9</ele>
        <time>2022-04-11T08:42:58Z</time>
      </trkpt>
      <trkpt lat="49.89908" lon="2.29333">
        <ele>24</ele>
        <time>2022-04-11T08:42:59Z</time>
      </trkpt>
      <trkpt lat="49.89909" lon="2.29333">
        <ele>24.1</ele>
        <time>2022-04-11T08:43:00Z</time>
      </trkpt>
      <trkpt lat="49.8991" lon="2.29332">
        <ele>24.1</ele>
        <time>2022-04-11T08:43:01Z</time>
      </trkpt>
      <trkpt lat="49.89912" lon="2.29332">
        <ele>24.1</ele>
        <time>2022-04-11T08:43:03Z</time>
      </trkpt>
      <trkpt lat="49.89913" lon="2.29333">
        <ele>24.2</ele>
        <time>2022-04-11T08:43:04Z</time>
      </trkpt>
      <trkpt lat="49.89914" lon="2.29333">
        <ele>24.2</ele>
        <time>2022-04-11T08:43:05Z</time>
      </trkpt>
      <trkpt lat="49.89915" lon="2.29334">
        <ele>24.3</ele>
        <time>2022-04-11T08:43:06Z</time>
      </trkpt>
      <trkpt lat="49.89916" lon="2.29334">
        <ele>24.3</ele>
        <time>2022-04-11T08:43:07Z</time>
      </trkpt>
      <trkpt lat="49.89918" lon="2.29335">
        <ele>24.4</ele>
        <time>2022-04-11T08:43:09Z</time>
      </trkpt>
      <trkpt lat="49.8992" lon="2.29336">
        <ele>24.5</ele>
        <time>2022-04-11T08:43:10Z</time>
      </trkpt>
      <trkpt lat="49.89921" lon="2.29337">
        <ele>24.5</ele>
        <time>2022-04-11T08:43:11Z</time>
      </trkpt>
      <trkpt lat="49.89922" lon="2.29337">
        <ele>24.5</ele>
        <time>2022-04-11T08:43:12Z</time>
      </trkpt>
      <trkpt lat="49.89923" lon="2.29338">
        <ele>24.6</ele>
        <time>2022-04-11T08:43:13Z</time>
      </trkpt>
      <trkpt lat="49.89924" lon="2.29339">
        <ele>24.6</ele>
        <time>2022-04-11T08:43:15Z</time>
      </trkpt>
      <trkpt lat="49.89925" lon="2.29339">
        <ele>24.6</ele>
        <time>2022-04-11T08:43:16Z</time>
      </trkpt>
      <trkpt lat="49.89926" lon="2.2934">
        <ele>24.7</ele>
        <time>2022-04-11T08:43:17Z</time>
      </trkpt>
      <trkpt lat="49.89927" lon="2.29341">
        <ele>24.7</ele>
        <time>2022-04-11T08:43:18Z</time>
      </trkpt>
      <trkpt lat="49.89928" lon="2.29341">
        <ele>24.7</ele>
        <time>2022-04-11T08:43:19Z</time>
      </trkpt>
      <trkpt lat="49.89929" lon="2.2934">
        <ele>24.7</ele>
        <time>2022-04-11T08:43:21Z</time>
      </trkpt>
      <trkpt lat="49.8993" lon="2.2934">
        <ele>24.8</ele>
        <time>2022-04-11T08:43:22Z</time>
      </trkpt>
      <trkpt lat="49.89929" lon="2.29338">
        <ele>24.8</ele>
        <time>2022-04-11T08:43:23Z</time>
      </trkpt>
      <trkpt lat="49.8993" lon="2.29337">
        <ele>24.8</ele>
        <time>2022-04-11T08:43:24Z</time>
      </trkpt>
      <trkpt lat="49.8993" lon="2.29335">
        <ele>24.8</ele>
        <time>2022-04-11T08:43:25Z</time>
      </trkpt>
      <trkpt lat="49.8993" lon="2.29333">
        <ele>24.8</ele>
        <time>2022-04-11T08:43:26Z</time>
      </trkpt>
      <trkpt lat="49.8993" lon="2.29331">
        <ele>24.8</ele>
        <time>2022-04-11T08:43:27Z</time>
      </trkpt>
      <trkpt lat="49.89931" lon="2.29329">
        <ele>24.8</ele>
        <time>2022-04-11T08:43:28Z</time>
      </trkpt>
      <trkpt lat="49.89931" lon="2.29328">
        <ele>24.8</ele>
        <time>2022-04-11T08:43:29Z</time>
      </trkpt>
      <trkpt lat="49.89931" lon="2.29326">
        <ele>24.8</ele>
        <time>2022-04-11T08:43:31Z</time>
      </trkpt>
      <trkpt lat="49.89932" lon="2.29324">
        <ele>24.8</ele>
        <time>2022-04-11T08:43:32Z</time>
      </trkpt>
      <trkpt lat="49.89933" lon="2.29322">
        <ele>24.8</ele>
        <time>2022-04-11T08:43:33Z</time>
      </trkpt>
      <trkpt lat="49.89934" lon="2.29318">
        <ele>24.8</ele>
        <time>2022-04-11T08:43:34Z</time>
      </trkpt>
      <trkpt lat="49.89934" lon="2.29317">
        <ele>24.8</ele>
        <time>2022-04-11T08:43:35Z</time>
      </trkpt>
      <trkpt lat="49.89935" lon="2.29313">
        <ele>24.5</ele>
        <time>2022-04-11T08:43:36Z</time>
      </trkpt>
      <trkpt lat="49.89935" lon="2.29311">
        <ele>24.5</ele>
        <time>2022-04-11T08:43:37Z</time>
      </trkpt>
      <trkpt lat="49.89935" lon="2.29308">
        <ele>24.4</ele>
        <time>2022-04-11T08:43:38Z</time>
      </trkpt>
      <trkpt lat="49.89934" lon="2.29306">
        <ele>24.3</ele>
        <time>2022-04-11T08:43:39Z</time>
      </trkpt>
      <trkpt lat="49.89933" lon="2.29304">
        <ele>24.3</ele>
        <time>2022-04-11T08:43:40Z</time>
      </trkpt>
      <trkpt lat="49.89932" lon="2.29302">
        <ele>24.2</ele>
        <time>2022-04-11T08:43:42Z</time>
      </trkpt>
      <trkpt lat="49.89931" lon="2.293">
        <ele>24.1</ele>
        <time>2022-04-11T08:43:43Z</time>
      </trkpt>
      <trkpt lat="49.8993" lon="2.29297">
        <ele>24</ele>
        <time>2022-04-11T08:43:44Z</time>
      </trkpt>
      <trkpt lat="49.89929" lon="2.29293">
        <ele>23.9</ele>
        <time>2022-04-11T08:43:45Z</time>
      </trkpt>
      <trkpt lat="49.89928" lon="2.29292">
        <ele>23.8</ele>
        <time>2022-04-11T08:43:46Z</time>
      </trkpt>
      <trkpt lat="49.89928" lon="2.29289">
        <ele>23.7</ele>
        <time>2022-04-11T08:43:47Z</time>
      </trkpt>
      <trkpt lat="49.89927" lon="2.29286">
        <ele>23.6</ele>
        <time>2022-04-11T08:43:48Z</time>
      </trkpt>
      <trkpt lat="49.89927" lon="2.29283">
        <ele>23.4</ele>
        <time>2022-04-11T08:43:49Z</time>
      </trkpt>
      <trkpt lat="49.89927" lon="2.29281">
        <ele>23.3</ele>
        <time>2022-04-11T08:43:50Z</time>
      </trkpt>
      <trkpt lat="49.89927" lon="2.2928">
        <ele>23.3</ele>
        <time>2022-04-11T08:43:51Z</time>
      </trkpt>
      <trkpt lat="49.89928" lon="2.29278">
        <ele>23.2</ele>
        <time>2022-04-11T08:43:52Z</time>
      </trkpt>
      <trkpt lat="49.89928" lon="2.29277">
        <ele>23.1</ele>
        <time>2022-04-11T08:43:53Z</time>
      </trkpt>
      <trkpt lat="49.89929" lon="2.29274">
        <ele>23</ele>
        <time>2022-04-11T08:43:55Z</time>
      </trkpt>
      <trkpt lat="49.89929" lon="2.29272">
        <ele>22.9</ele>
        <time>2022-04-11T08:43:56Z</time>
      </trkpt>
      <trkpt lat="49.89929" lon="2.2927">
        <ele>22.8</ele>
        <time>2022-04-11T08:43:57Z</time>
      </trkpt>
      <trkpt lat="49.89929" lon="2.29268">
        <ele>22.7</ele>
        <time>2022-04-11T08:43:58Z</time>
      </trkpt>
      <trkpt lat="49.8993" lon="2.29267">
        <ele>22.6</ele>
        <time>2022-04-11T08:43:59Z</time>
      </trkpt>
      <trkpt lat="49.8993" lon="2.29266">
        <ele>22.5</ele>
        <time>2022-04-11T08:44:00Z</time>
      </trkpt>
      <trkpt lat="49.8993" lon="2.29264">
        <ele>22.4</ele>
        <time>2022-04-11T08:44:01Z</time>
      </trkpt>
      <trkpt lat="49.89931" lon="2.29263">
        <ele>22.4</ele>
        <time>2022-04-11T08:44:02Z</time>
      </trkpt>
      <trkpt lat="49.89931" lon="2.29261">
        <ele>22.4</ele>
        <time>2022-04-11T08:44:03Z</time>
      </trkpt>
      <trkpt lat="49.89932" lon="2.2926">
        <ele>22.4</ele>
        <time>2022-04-11T08:44:04Z</time>
      </trkpt>
      <trkpt lat="49.89932" lon="2.29259">
        <ele>22.4</ele>
        <time>2022-04-11T08:44:05Z</time>
      </trkpt>
      <trkpt lat="49.89932" lon="2.29257">
        <ele>22.4</ele>
        <time>2022-04-11T08:44:07Z</time>
      </trkpt>
      <trkpt lat="49.89933" lon="2.29257">
        <ele>22.4</ele>
        <time>2022-04-11T08:44:08Z</time>
      </trkpt>
      <trkpt lat="49.89933" lon="2.29259">
        <ele>22.4</ele>
        <time>2022-04-11T08:44:09Z</time>
      </trkpt>
      <trkpt lat="49.89933" lon="2.2926">
        <ele>22.4</ele>
        <time>2022-04-11T08:44:10Z</time>
      </trkpt>
      <trkpt lat="49.89933" lon="2.29261">
        <ele>22.4</ele>
        <time>2022-04-11T08:44:11Z</time>
      </trkpt>
      <trkpt lat="49.89934" lon="2.29261">
        <ele>22.4</ele>
        <time>2022-04-11T08:44:12Z</time>
      </trkpt>
      <trkpt lat="49.89933" lon="2.29261">
        <ele>22.4</ele>
        <time>2022-04-11T08:44:13Z</time>
      </trkpt>
      <trkpt lat="49.89933" lon="2.29261">
        <ele>22.4</ele>
        <time>2022-04-11T08:44:14Z</time>
      </trkpt>
      <trkpt lat="49.89933" lon="2.29261">
        <ele>22.4</ele>
        <time>2022-04-11T08:44:15Z</time>
      </trkpt>
      <trkpt lat="49.89933" lon="2.29261">
        <ele>22.4</ele>
        <time>2022-04-11T08:44:16Z</time>
      </trkpt>
      <trkpt lat="49.89933" lon="2.29261">
        <ele>22.4</ele>
        <time>2022-04-11T08:44:17Z</time>
      </trkpt>
      <trkpt lat="49.89932" lon="2.29261">
        <ele>22.4</ele>
        <time>2022-04-11T08:44:18Z</time>
      </trkpt>
      <trkpt lat="49.89932" lon="2.29261">
        <ele>22.4</ele>
        <time>2022-04-11T08:44:19Z</time>
      </trkpt>
      <trkpt lat="49.89932" lon="2.29261">
        <ele>22.4</ele>
        <time>2022-04-11T08:44:20Z</time>
      </trkpt>
      <trkpt lat="49.89932" lon="2.29261">
        <ele>22.4</ele>
        <time>2022-04-11T08:44:21Z</time>
      </trkpt>
      <trkpt lat="49.89932" lon="2.29261">
        <ele>22.4</ele>
        <time>2022-04-11T08:44:22Z</time>
      </trkpt>
      <trkpt lat="49.89932" lon="2.29261">
        <ele>22.4</ele>
        <time>2022-04-11T08:44:23Z</time>
      </trkpt>
      <trkpt lat="49.89932" lon="2.29261">
        <ele>22.4</ele>
        <time>2022-04-11T08:44:24Z</time>
      </trkpt>
      <trkpt lat="49.89932" lon="2.29261">
        <ele>22.4</ele>
        <time>2022-04-11T08:44:25Z</time>
      </trkpt>
      <trkpt lat="49.89932" lon="2.29261">
        <ele>22.4</ele>
        <time>2022-04-11T08:44:26Z</time>
      </trkpt>
      <trkpt lat="49.89932" lon="2.29261">
        <ele>22.4</ele>
        <time>2022-04-11T08:44:27Z</time>
      </trkpt>
      <trkpt lat="49.89931" lon="2.29261">
        <ele>22.4</ele>
        <time>2022-04-11T08:44:28Z</time>
      </trkpt>
      <trkpt lat="49.89931" lon="2.29261">
        <ele>22.4</ele>
        <time>2022-04-11T08:44:29Z</time>
      </trkpt>
      <trkpt lat="49.89931" lon="2.29261">
        <ele>22.4</ele>
        <time>2022-04-11T08:44:30Z</time>
      </trkpt>
      <trkpt lat="49.89931" lon="2.29261">
        <ele>22.4</ele>
        <time>2022-04-11T08:44:31Z</time>
      </trkpt>
      <trkpt lat="49.89931" lon="2.29261">
        <ele>22.4</ele>
        <time>2022-04-11T08:44:32Z</time>
      </trkpt>
      <trkpt lat="49.89931" lon="2.29261">
        <ele>22.4</ele>
        <time>2022-04-11T08:44:33Z</time>
      </trkpt>
      <trkpt lat="49.89931" lon="2.29261">
        <ele>22.4</ele>
        <time>2022-04-11T08:44:34Z</time>
      </trkpt>
      <trkpt lat="49.89931" lon="2.29261">
        <ele>22.4</ele>
        <time>2022-04-11T08:44:35Z</time>
      </trkpt>
      <trkpt lat="49.89931" lon="2.29261">
        <ele>22.4</ele>
        <time>2022-04-11T08:44:36Z</time>
      </trkpt>
      <trkpt lat="49.89931" lon="2.29261">
        <ele>22.4</ele>
        <time>2022-04-11T08:44:37Z</time>
      </trkpt>
      <trkpt lat="49.89931" lon="2.29261">
        <ele>22.4</ele>
        <time>2022-04-11T08:44:38Z</time>
      </trkpt>
      <trkpt lat="49.89931" lon="2.29261">
        <ele>22.4</ele>
        <time>2022-04-11T08:44:39Z</time>
      </trkpt>
      <trkpt lat="49.89931" lon="2.29261">
        <ele>22.4</ele>
        <time>2022-04-11T08:44:40Z</time>
      </trkpt>
      <trkpt lat="49.89931" lon="2.29261">
        <ele>22.4</ele>
        <time>2022-04-11T08:44:41Z</time>
      </trkpt>
      <trkpt lat="49.89931" lon="2.29261">
        <ele>22.4</ele>
        <time>2022-04-11T08:44:42Z</time>
      </trkpt>
      <trkpt lat="49.89931" lon="2.29261">
        <ele>22.4</ele>
        <time>2022-04-11T08:44:43Z</time>
      </trkpt>
      <trkpt lat="49.89931" lon="2.29261">
        <ele>22.4</ele>
        <time>2022-04-11T08:44:44Z</time>
      </trkpt>
      <trkpt lat="49.89931" lon="2.29261">
        <ele>22.4</ele>
        <time>2022-04-11T08:44:45Z</time>
      </trkpt>
      <trkpt lat="49.89931" lon="2.29261">
        <ele>22.4</ele>
        <time>2022-04-11T08:44:46Z</time>
      </trkpt>
      <trkpt lat="49.89931" lon="2.29261">
        <ele>22.4</ele>
        <time>2022-04-11T08:44:47Z</time>
      </trkpt>
      <trkpt lat="49.89931" lon="2.29261">
        <ele>22.4</ele>
        <time>2022-04-11T08:44:48Z</time>
      </trkpt>
      <trkpt lat="49.89931" lon="2.29261">
        <ele>22.4</ele>
        <time>2022-04-11T08:44:49Z</time>
      </trkpt>
      <trkpt lat="49.89931" lon="2.29261">
        <ele>22.4</ele>
        <time>2022-04-11T08:44:50Z</time>
      </trkpt>
      <trkpt lat="49.89931" lon="2.29261">
        <ele>22.4</ele>
        <time>2022-04-11T08:44:51Z</time>
      </trkpt>
      <trkpt lat="49.89931" lon="2.29261">
        <ele>22.4</ele>
        <time>2022-04-11T08:44:52Z</time>
      </trkpt>
      <trkpt lat="49.89931" lon="2.29261">
        <ele>22.4</ele>
        <time>2022-04-11T08:44:53Z</time>
      </trkpt>
      <trkpt lat="49.89931" lon="2.29261">
        <ele>22.4</ele>
        <time>2022-04-11T08:44:54Z</time>
      </trkpt>
      <trkpt lat="49.89931" lon="2.29261">
        <ele>22.4</ele>
        <time>2022-04-11T08:44:55Z</time>
      </trkpt>
      <trkpt lat="49.89931" lon="2.29261">
        <ele>22.4</ele>
        <time>2022-04-11T08:44:56Z</time>
      </trkpt>
      <trkpt lat="49.89931" lon="2.29261">
        <ele>22.4</ele>
        <time>2022-04-11T08:44:57Z</time>
      </trkpt>
      <trkpt lat="49.89931" lon="2.29261">
        <ele>22.4</ele>
        <time>2022-04-11T08:44:58Z</time>
      </trkpt>
      <trkpt lat="49.89931" lon="2.29261">
        <ele>22.4</ele>
        <time>2022-04-11T08:44:59Z</time>
      </trkpt>
      <trkpt lat="49.89931" lon="2.29261">
        <ele>22.4</ele>
        <time>2022-04-11T08:45:00Z</time>
      </trkpt>
      <trkpt lat="49.89931" lon="2.29261">
        <ele>22.4</ele>
        <time>2022-04-11T08:45:01Z</time>
      </trkpt>
      <trkpt lat="49.89931" lon="2.29261">
        <ele>22.4</ele>
        <time>2022-04-11T08:45:02Z</time>
      </trkpt>
      <trkpt lat="49.89931" lon="2.29261">
        <ele>22.4</ele>
        <time>2022-04-11T08:45:03Z</time>
      </trkpt>
      <trkpt lat="49.89931" lon="2.29261">
        <ele>22.4</ele>
        <time>2022-04-11T08:45:04Z</time>
      </trkpt>
      <trkpt lat="49.89931" lon="2.29261">
        <ele>22.4</ele>
        <time>2022-04-11T08:45:05Z</time>
      </trkpt>
      <trkpt lat="49.89931" lon="2.29261">
        <ele>22.4</ele>
        <time>2022-04-11T08:45:06Z</time>
      </trkpt>
      <trkpt lat="49.89931" lon="2.29261">
        <ele>22.4</ele>
        <time>2022-04-11T08:45:07Z</time>
      </trkpt>
      <trkpt lat="49.89931" lon="2.29261">
        <ele>22.4</ele>
        <time>2022-04-11T08:45:08Z</time>
      </trkpt>
      <trkpt lat="49.89931" lon="2.29261">
        <ele>22.4</ele>
        <time>2022-04-11T08:45:09Z</time>
      </trkpt>
      <trkpt lat="49.89931" lon="2.29261">
        <ele>22.4</ele>
        <time>2022-04-11T08:45:10Z</time>
      </trkpt>
      <trkpt lat="49.89931" lon="2.29261">
        <ele>22.4</ele>
        <time>2022-04-11T08:45:11Z</time>
      </trkpt>
      <trkpt lat="49.89931" lon="2.29261">
        <ele>22.4</ele>
        <time>2022-04-11T08:45:12Z</time>
      </trkpt>
      <trkpt lat="49.89931" lon="2.29261">
        <ele>22.4</ele>
        <time>2022-04-11T08:45:13Z</time>
      </trkpt>
      <trkpt lat="49.89931" lon="2.29261">
        <ele>22.4</ele>
        <time>2022-04-11T08:45:14Z</time>
      </trkpt>
      <trkpt lat="49.89931" lon="2.29261">
        <ele>22.4</ele>
        <time>2022-04-11T08:45:15Z</time>
      </trkpt>
      <trkpt lat="49.89931" lon="2.29261">
        <ele>22.4</ele>
        <time>2022-04-11T08:45:16Z</time>
      </trkpt>
      <trkpt lat="49.89931" lon="2.29261">
        <ele>22.4</ele>
        <time>2022-04-11T08:45:17Z</time>
      </trkpt>
      <trkpt lat="49.89931" lon="2.29261">
        <ele>22.4</ele>
        <time>2022-04-11T08:45:18Z</time>
      </trkpt>
      <trkpt lat="49.89931" lon="2.29261">
        <ele>22.4</ele>
        <time>2022-04-11T08:45:19Z</time>
      </trkpt>
      <trkpt lat="49.89931" lon="2.29261">
        <ele>22.4</ele>
        <time>2022-04-11T08:45:20Z</time>
      </trkpt>
      <trkpt lat="49.89931" lon="2.29261">
        <ele>22.4</ele>
        <time>2022-04-11T08:45:21Z</time>
      </trkpt>
      <trkpt lat="49.89931" lon="2.29261">
        <ele>22.4</ele>
        <time>2022-04-11T08:45:22Z</time>
      </trkpt>
      <trkpt lat="49.89931" lon="2.29261">
        <ele>22.4</ele>
        <time>2022-04-11T08:45:23Z</time>
      </trkpt>
      <trkpt lat="49.89931" lon="2.29261">
        <ele>22.4</ele>
        <time>2022-04-11T08:45:24Z</time>
      </trkpt>
      <trkpt lat="49.89931" lon="2.29261">
        <ele>22.4</ele>
        <time>2022-04-11T08:45:25Z</time>
      </trkpt>
      <trkpt lat="49.89931" lon="2.29261">
        <ele>22.4</ele>
        <time>2022-04-11T08:45:26Z</time>
      </trkpt>
      <trkpt lat="49.89931" lon="2.29261">
        <ele>22.4</ele>
        <time>2022-04-11T08:45:27Z</time>
      </trkpt>
      <trkpt lat="49.89931" lon="2.29261">
        <ele>22.4</ele>
        <time>2022-04-11T08:45:28Z</time>
      </trkpt>
      <trkpt lat="49.89931" lon="2.29261">
        <ele>22.4</ele>
        <time>2022-04-11T08:45:29Z</time>
      </trkpt>
      <trkpt lat="49.89931" lon="2.29261">
        <ele>22.4</ele>
        <time>2022-04-11T08:45:30Z</time>
      </trkpt>
      <trkpt lat="49.89931" lon="2.29261">
        <ele>22.4</ele>
        <time>2022-04-11T08:45:31Z</time>
      </trkpt>
      <trkpt lat="49.89931" lon="2.29261">
        <ele>22.4</ele>
        <time>2022-04-11T08:45:32Z</time>
      </trkpt>
      <trkpt lat="49.89931" lon="2.29261">
        <ele>22.4</ele>
        <time>2022-04-11T08:45:33Z</time>
      </trkpt>
      <trkpt lat="49.89931" lon="2.29261">
        <ele>22.4</ele>
        <time>2022-04-11T08:45:34Z</time>
      </trkpt>
      <trkpt lat="49.89931" lon="2.29261">
        <ele>22.4</ele>
        <time>2022-04-11T08:45:35Z</time>
      </trkpt>
      <trkpt lat="49.89931" lon="2.29261">
        <ele>22.4</ele>
        <time>2022-04-11T08:45:36Z</time>
      </trkpt>
      <trkpt lat="49.89931" lon="2.29261">
        <ele>22.4</ele>
        <time>2022-04-11T08:45:37Z</time>
      </trkpt>
      <trkpt lat="49.89931" lon="2.29261">
        <ele>22.4</ele>
        <time>2022-04-11T08:45:38Z</time>
      </trkpt>
      <trkpt lat="49.89931" lon="2.29261">
        <ele>22.4</ele>
        <time>2022-04-11T08:45:39Z</time>
      </trkpt>
      <trkpt lat="49.89931" lon="2.29261">
        <ele>22.4</ele>
        <time>2022-04-11T08:45:40Z</time>
      </trkpt>
      <trkpt lat="49.89931" lon="2.29261">
        <ele>22.4</ele>
        <time>2022-04-11T08:45:41Z</time>
      </trkpt>
      <trkpt lat="49.89931" lon="2.29261">
        <ele>22.4</ele>
        <time>2022-04-11T08:45:42Z</time>
      </trkpt>
      <trkpt lat="49.89931" lon="2.29261">
        <ele>22.4</ele>
        <time>2022-04-11T08:45:43Z</time>
      </trkpt>
      <trkpt lat="49.89931" lon="2.29261">
        <ele>22.4</ele>
        <time>2022-04-11T08:45:44Z</time>
      </trkpt>
      <trkpt lat="49.89931" lon="2.29261">
        <ele>22.4</ele>
        <time>2022-04-11T08:45:45Z</time>
      </trkpt>
      <trkpt lat="49.89931" lon="2.29261">
        <ele>22.4</ele>
        <time>2022-04-11T08:45:46Z</time>
      </trkpt>
      <trkpt lat="49.89931" lon="2.29261">
        <ele>22.4</ele>
        <time>2022-04-11T08:45:47Z</time>
      </trkpt>
      <trkpt lat="49.89931" lon="2.29261">
        <ele>22.4</ele>
        <time>2022-04-11T08:45:48Z</time>
      </trkpt>
      <trkpt lat="49.89931" lon="2.29261">
        <ele>22.4</ele>
        <time>2022-04-11T08:45:49Z</time>
      </trkpt>
      <trkpt lat="49.89931" lon="2.29261">
        <ele>22.4</ele>
        <time>2022-04-11T08:45:50Z</time>
      </trkpt>
      <trkpt lat="49.89931" lon="2.29261">
        <ele>22.4</ele>
        <time>2022-04-11T08:45:51Z</time>
      </trkpt>
      <trkpt lat="49.89931" lon="2.29261">
        <ele>22.4</ele>
        <time>2022-04-11T08:45:52Z</time>
      </trkpt>
      <trkpt lat="49.89931" lon="2.29261">
        <ele>22.4</ele>
        <time>2022-04-11T08:45:53Z</time>
      </trkpt>
      <trkpt lat="49.89931" lon="2.29261">
        <ele>22.4</ele>
        <time>2022-04-11T08:45:54Z</time>
      </trkpt>
      <trkpt lat="49.89931" lon="2.29261">
        <ele>22.4</ele>
        <time>2022-04-11T08:45:55Z</time>
      </trkpt>
      <trkpt lat="49.89931" lon="2.29261">
        <ele>22.4</ele>
        <time>2022-04-11T08:45:56Z</time>
      </trkpt>
      <trkpt lat="49.89931" lon="2.29261">
        <ele>22.4</ele>
        <time>2022-04-11T08:45:57Z</time>
      </trkpt>
      <trkpt lat="49.89931" lon="2.29261">
        <ele>22.4</ele>
        <time>2022-04-11T08:45:58Z</time>
      </trkpt>
      <trkpt lat="49.89931" lon="2.29261">
        <ele>22.4</ele>
        <time>2022-04-11T08:45:59Z</time>
      </trkpt>
      <trkpt lat="49.89931" lon="2.29261">
        <ele>22.4</ele>
        <time>2022-04-11T08:46:00Z</time>
      </trkpt>
      <trkpt lat="49.89931" lon="2.29261">
        <ele>22.4</ele>
        <time>2022-04-11T08:46:01Z</time>
      </trkpt>
      <trkpt lat="49.89931" lon="2.29261">
        <ele>22.4</ele>
        <time>2022-04-11T08:46:02Z</time>
      </trkpt>
      <trkpt lat="49.89931" lon="2.29261">
        <ele>22.4</ele>
        <time>2022-04-11T08:46:03Z</time>
      </trkpt>
      <trkpt lat="49.89931" lon="2.29261">
        <ele>22.4</ele>
        <time>2022-04-11T08:46:04Z</time>
      </trkpt>
      <trkpt lat="49.89931" lon="2.29261">
        <ele>22.4</ele>
        <time>2022-04-11T08:46:05Z</time>
      </trkpt>
      <trkpt lat="49.89931" lon="2.29261">
        <ele>22.4</ele>
        <time>2022-04-11T08:46:06Z</time>
      </trkpt>
      <trkpt lat="49.89931" lon="2.29261">
        <ele>22.4</ele>
        <time>2022-04-11T08:46:07Z</time>
      </trkpt>
      <trkpt lat="49.89931" lon="2.29261">
        <ele>22.4</ele>
        <time>2022-04-11T08:46:08Z</time>
      </trkpt>
      <trkpt lat="49.89931" lon="2.29261">
        <ele>22.4</ele>
        <time>2022-04-11T08:46:09Z</time>
      </trkpt>
      <trkpt lat="49.89931" lon="2.29261">
        <ele>22.4</ele>
        <time>2022-04-11T08:46:10Z</time>
      </trkpt>
      <trkpt lat="49.89931" lon="2.29261">
        <ele>22.4</ele>
        <time>2022-04-11T08:46:11Z</time>
      </trkpt>
      <trkpt lat="49.89931" lon="2.29261">
        <ele>22.4</ele>
        <time>2022-04-11T08:46:12Z</time>
      </trkpt>
      <trkpt lat="49.89931" lon="2.29261">
        <ele>22.4</ele>
        <time>2022-04-11T08:46:13Z</time>
      </trkpt>
      <trkpt lat="49.89931" lon="2.29261">
        <ele>22.4</ele>
        <time>2022-04-11T08:46:14Z</time>
      </trkpt>
      <trkpt lat="49.89931" lon="2.29261">
        <ele>22.4</ele>
        <time>2022-04-11T08:46:15Z</time>
      </trkpt>
      <trkpt lat="49.89931" lon="2.29261">
        <ele>22.4</ele>
        <time>2022-04-11T08:46:16Z</time>
      </trkpt>
      <trkpt lat="49.89931" lon="2.29261">
        <ele>22.4</ele>
        <time>2022-04-11T08:46:17Z</time>
      </trkpt>
      <trkpt lat="49.89931" lon="2.29261">
        <ele>22.4</ele>
        <time>2022-04-11T08:46:18Z</time>
      </trkpt>
      <trkpt lat="49.89931" lon="2.29261">
        <ele>22.4</ele>
        <time>2022-04-11T08:46:19Z</time>
      </trkpt>
      <trkpt lat="49.89931" lon="2.29261">
        <ele>22.4</ele>
        <time>2022-04-11T08:46:20Z</time>
      </trkpt>
      <trkpt lat="49.89931" lon="2.29261">
        <ele>22.4</ele>
        <time>2022-04-11T08:46:21Z</time>
      </trkpt>
      <trkpt lat="49.89931" lon="2.29261">
        <ele>22.4</ele>
        <time>2022-04-11T08:46:22Z</time>
      </trkpt>
      <trkpt lat="49.89931" lon="2.29261">
        <ele>22.4</ele>
        <time>2022-04-11T08:46:23Z</time>
      </trkpt>
      <trkpt lat="49.89931" lon="2.29261">
        <ele>22.4</ele>
        <time>2022-04-11T08:46:24Z</time>
      </trkpt>
      <trkpt lat="49.89931" lon="2.29261">
        <ele>22.4</ele>
        <time>2022-04-11T08:46:25Z</time>
      </trkpt>
      <trkpt lat="49.89931" lon="2.29261">
        <ele>22.4</ele>
        <time>2022-04-11T08:46:26Z</time>
      </trkpt>
      <trkpt lat="49.89931" lon="2.29262">
        <ele>22.4</ele>
        <time>2022-04-11T08:46:27Z</time>
      </trkpt>
      <trkpt lat="49.89931" lon="2.29262">
        <ele>22.4</ele>
        <time>2022-04-11T08:46:28Z</time>
      </trkpt>
      <trkpt lat="49.89931" lon="2.2926">
        <ele>22.4</ele>
        <time>2022-04-11T08:46:29Z</time>
      </trkpt>
      <trkpt lat="49.89931" lon="2.29259">
        <ele>22.4</ele>
        <time>2022-04-11T08:46:30Z</time>
      </trkpt>
      <trkpt lat="49.89932" lon="2.29258">
        <ele>22.4</ele>
        <time>2022-04-11T08:46:31Z</time>
      </trkpt>
      <trkpt lat="49.89932" lon="2.29257">
        <ele>22.4</ele>
        <time>2022-04-11T08:46:32Z</time>
      </trkpt>
      <trkpt lat="49.89932" lon="2.29255">
        <ele>22.4</ele>
        <time>2022-04-11T08:46:34Z</time>
      </trkpt>
      <trkpt lat="49.89932" lon="2.29254">
        <ele>22.4</ele>
        <time>2022-04-11T08:46:35Z</time>
      </trkpt>
      <trkpt lat="49.89933" lon="2.29253">
        <ele>22.4</ele>
        <time>2022-04-11T08:46:36Z</time>
      </trkpt>
      <trkpt lat="49.89933" lon="2.29252">
        <ele>22.4</ele>
        <time>2022-04-11T08:46:37Z</time>
      </trkpt>
      <trkpt lat="49.89933" lon="2.29249">
        <ele>22.4</ele>
        <time>2022-04-11T08:46:38Z</time>
      </trkpt>
      <trkpt lat="49.89933" lon="2.29247">
        <ele>22.3</ele>
        <time>2022-04-11T08:46:39Z</time>
      </trkpt>
      <trkpt lat="49.89933" lon="2.29245">
        <ele>22.3</ele>
        <time>2022-04-11T08:46:40Z</time>
      </trkpt>
      <trkpt lat="49.89933" lon="2.29244">
        <ele>22.3</ele>
        <time>2022-04-11T08:46:41Z</time>
      </trkpt>
      <trkpt lat="49.89934" lon="2.29243">
        <ele>22.3</ele>
        <time>2022-04-11T08:46:42Z</time>
      </trkpt>
      <trkpt lat="49.89934" lon="2.29242">
        <ele>22.3</ele>
        <time>2022-04-11T08:46:43Z</time>
      </trkpt>
      <trkpt lat="49.89934" lon="2.2924">
        <ele>22.3</ele>
        <time>2022-04-11T08:46:45Z</time>
      </trkpt>
      <trkpt lat="49.89934" lon="2.29238">
        <ele>22.3</ele>
        <time>2022-04-11T08:46:46Z</time>
      </trkpt>
      <trkpt lat="49.89935" lon="2.29234">
        <ele>22.3</ele>
        <time>2022-04-11T08:46:47Z</time>
      </trkpt>
      <trkpt lat="49.89935" lon="2.29233">
        <ele>22.3</ele>
        <time>2022-04-11T08:46:48Z</time>
      </trkpt>
      <trkpt lat="49.89935" lon="2.29232">
        <ele>22.3</ele>
        <time>2022-04-11T08:46:49Z</time>
      </trkpt>
      <trkpt lat="49.89935" lon="2.29229">
        <ele>22.3</ele>
        <time>2022-04-11T08:46:51Z</time>
      </trkpt>
      <trkpt lat="49.89935" lon="2.29227">
        <ele>22.3</ele>
        <time>2022-04-11T08:46:52Z</time>
      </trkpt>
      <trkpt lat="49.89935" lon="2.29224">
        <ele>22.3</ele>
        <time>2022-04-11T08:46:54Z</time>
      </trkpt>
      <trkpt lat="49.89935" lon="2.29222">
        <ele>22.3</ele>
        <time>2022-04-11T08:46:55Z</time>
      </trkpt>
      <trkpt lat="49.89935" lon="2.29221">
        <ele>22.3</ele>
        <time>2022-04-11T08:46:56Z</time>
      </trkpt>
      <trkpt lat="49.89935" lon="2.2922">
        <ele>22.3</ele>
        <time>2022-04-11T08:46:57Z</time>
      </trkpt>
      <trkpt lat="49.89935" lon="2.29219">
        <ele>22.3</ele>
        <time>2022-04-11T08:46:58Z</time>
      </trkpt>
      <trkpt lat="49.89935" lon="2.29218">
        <ele>22.3</ele>
        <time>2022-04-11T08:46:59Z</time>
      </trkpt>
      <trkpt lat="49.89935" lon="2.29217">
        <ele>22.3</ele>
        <time>2022-04-11T08:47:00Z</time>
      </trkpt>
      <trkpt lat="49.89936" lon="2.29214">
        <ele>22.2</ele>
        <time>2022-04-11T08:47:01Z</time>
      </trkpt>
      <trkpt lat="49.89936" lon="2.29212">
        <ele>22.2</ele>
        <time>2022-04-11T08:47:03Z</time>
      </trkpt>
      <trkpt lat="49.89936" lon="2.29211">
        <ele>22.2</ele>
        <time>2022-04-11T08:47:04Z</time>
      </trkpt>
      <trkpt lat="49.89936" lon="2.29208">
        <ele>22.2</ele>
        <time>2022-04-11T08:47:06Z</time>
      </trkpt>
      <trkpt lat="49.89936" lon="2.29206">
        <ele>22.2</ele>
        <time>2022-04-11T08:47:07Z</time>
      </trkpt>
      <trkpt lat="49.89937" lon="2.29205">
        <ele>22.2</ele>
        <time>2022-04-11T08:47:08Z</time>
      </trkpt>
      <trkpt lat="49.89937" lon="2.29203">
        <ele>22.2</ele>
        <time>2022-04-11T08:47:09Z</time>
      </trkpt>
      <trkpt lat="49.89937" lon="2.292">
        <ele>22.2</ele>
        <time>2022-04-11T08:47:11Z</time>
      </trkpt>
      <trkpt lat="49.89937" lon="2.292">
        <ele>22.2</ele>
        <time>2022-04-11T08:47:12Z</time>
      </trkpt>
      <trkpt lat="49.89937" lon="2.29199">
        <ele>22.2</ele>
        <time>2022-04-11T08:47:13Z</time>
      </trkpt>
      <trkpt lat="49.89936" lon="2.29198">
        <ele>22.2</ele>
        <time>2022-04-11T08:47:14Z</time>
      </trkpt>
      <trkpt lat="49.89936" lon="2.29197">
        <ele>22.2</ele>
        <time>2022-04-11T08:47:15Z</time>
      </trkpt>
      <trkpt lat="49.89936" lon="2.29196">
        <ele>22.2</ele>
        <time>2022-04-11T08:47:16Z</time>
      </trkpt>
      <trkpt lat="49.89936" lon="2.29195">
        <ele>22.2</ele>
        <time>2022-04-11T08:47:17Z</time>
      </trkpt>
      <trkpt lat="49.89936" lon="2.29194">
        <ele>22.2</ele>
        <time>2022-04-11T08:47:18Z</time>
      </trkpt>
      <trkpt lat="49.89936" lon="2.29192">
        <ele>22.2</ele>
        <time>2022-04-11T08:47:19Z</time>
      </trkpt>
      <trkpt lat="49.89936" lon="2.2919">
        <ele>22.2</ele>
        <time>2022-04-11T08:47:20Z</time>
      </trkpt>
      <trkpt lat="49.89935" lon="2.29188">
        <ele>22.2</ele>
        <time>2022-04-11T08:47:21Z</time>
      </trkpt>
      <trkpt lat="49.89935" lon="2.29185">
        <ele>22.2</ele>
        <time>2022-04-11T08:47:22Z</time>
      </trkpt>
      <trkpt lat="49.89934" lon="2.2918">
        <ele>22.2</ele>
        <time>2022-04-11T08:47:24Z</time>
      </trkpt>
      <trkpt lat="49.89934" lon="2.29178">
        <ele>22.2</ele>
        <time>2022-04-11T08:47:25Z</time>
      </trkpt>
      <trkpt lat="49.89934" lon="2.29173">
        <ele>22.2</ele>
        <time>2022-04-11T08:47:26Z</time>
      </trkpt>
      <trkpt lat="49.89934" lon="2.29171">
        <ele>22.2</ele>
        <time>2022-04-11T08:47:27Z</time>
      </trkpt>
      <trkpt lat="49.89934" lon="2.29166">
        <ele>22.1</ele>
        <time>2022-04-11T08:47:28Z</time>
      </trkpt>
      <trkpt lat="49.89935" lon="2.29164">
        <ele>22.1</ele>
        <time>2022-04-11T08:47:29Z</time>
      </trkpt>
      <trkpt lat="49.89935" lon="2.2916">
        <ele>22.1</ele>
        <time>2022-04-11T08:47:30Z</time>
      </trkpt>
      <trkpt lat="49.89935" lon="2.29158">
        <ele>22.1</ele>
        <time>2022-04-11T08:47:31Z</time>
      </trkpt>
      <trkpt lat="49.89935" lon="2.29153">
        <ele>22.1</ele>
        <time>2022-04-11T08:47:32Z</time>
      </trkpt>
      <trkpt lat="49.89935" lon="2.29152">
        <ele>22.1</ele>
        <time>2022-04-11T08:47:33Z</time>
      </trkpt>
      <trkpt lat="49.89936" lon="2.29147">
        <ele>22.1</ele>
        <time>2022-04-11T08:47:34Z</time>
      </trkpt>
      <trkpt lat="49.89936" lon="2.29146">
        <ele>22.1</ele>
        <time>2022-04-11T08:47:35Z</time>
      </trkpt>
      <trkpt lat="49.89937" lon="2.29142">
        <ele>22.1</ele>
        <time>2022-04-11T08:47:37Z</time>
      </trkpt>
      <trkpt lat="49.89937" lon="2.2914">
        <ele>22.1</ele>
        <time>2022-04-11T08:47:38Z</time>
      </trkpt>
      <trkpt lat="49.89937" lon="2.29138">
        <ele>22.1</ele>
        <time>2022-04-11T08:47:39Z</time>
      </trkpt>
      <trkpt lat="49.89938" lon="2.29136">
        <ele>22.1</ele>
        <time>2022-04-11T08:47:40Z</time>
      </trkpt>
      <trkpt lat="49.89938" lon="2.29133">
        <ele>22.1</ele>
        <time>2022-04-11T08:47:41Z</time>
      </trkpt>
      <trkpt lat="49.89939" lon="2.2913">
        <ele>22.1</ele>
        <time>2022-04-11T08:47:43Z</time>
      </trkpt>
      <trkpt lat="49.89939" lon="2.29128">
        <ele>22.1</ele>
        <time>2022-04-11T08:47:44Z</time>
      </trkpt>
      <trkpt lat="49.89939" lon="2.29126">
        <ele>22.1</ele>
        <time>2022-04-11T08:47:45Z</time>
      </trkpt>
      <trkpt lat="49.8994" lon="2.29123">
        <ele>22.1</ele>
        <time>2022-04-11T08:47:46Z</time>
      </trkpt>
      <trkpt lat="49.8994" lon="2.2912">
        <ele>22.1</ele>
        <time>2022-04-11T08:47:47Z</time>
      </trkpt>
      <trkpt lat="49.89941" lon="2.29118">
        <ele>22.1</ele>
        <time>2022-04-11T08:47:48Z</time>
      </trkpt>
      <trkpt lat="49.89941" lon="2.29116">
        <ele>22.1</ele>
        <time>2022-04-11T08:47:49Z</time>
      </trkpt>
      <trkpt lat="49.89942" lon="2.29114">
        <ele>22.1</ele>
        <time>2022-04-11T08:47:51Z</time>
      </trkpt>
      <trkpt lat="49.89943" lon="2.29112">
        <ele>22.1</ele>
        <time>2022-04-11T08:47:52Z</time>
      </trkpt>
      <trkpt lat="49.89944" lon="2.29109">
        <ele>22.1</ele>
        <time>2022-04-11T08:47:53Z</time>
      </trkpt>
      <trkpt lat="49.89944" lon="2.29108">
        <ele>22.1</ele>
        <time>2022-04-11T08:47:54Z</time>
      </trkpt>
      <trkpt lat="49.89945" lon="2.29107">
        <ele>22.1</ele>
        <time>2022-04-11T08:47:55Z</time>
      </trkpt>
      <trkpt lat="49.89945" lon="2.29106">
        <ele>22.1</ele>
        <time>2022-04-11T08:47:56Z</time>
      </trkpt>
      <trkpt lat="49.89946" lon="2.29103">
        <ele>22.1</ele>
        <time>2022-04-11T08:47:57Z</time>
      </trkpt>
      <trkpt lat="49.89947" lon="2.29102">
        <ele>22.1</ele>
        <time>2022-04-11T08:47:59Z</time>
      </trkpt>
      <trkpt lat="49.89948" lon="2.291">
        <ele>22.1</ele>
        <time>2022-04-11T08:48:00Z</time>
      </trkpt>
      <trkpt lat="49.89949" lon="2.29097">
        <ele>22.1</ele>
        <time>2022-04-11T08:48:01Z</time>
      </trkpt>
      <trkpt lat="49.89949" lon="2.29096">
        <ele>22.1</ele>
        <time>2022-04-11T08:48:02Z</time>
      </trkpt>
      <trkpt lat="49.89949" lon="2.29095">
        <ele>22.1</ele>
        <time>2022-04-11T08:48:03Z</time>
      </trkpt>
      <trkpt lat="49.8995" lon="2.29092">
        <ele>22.1</ele>
        <time>2022-04-11T08:48:04Z</time>
      </trkpt>
      <trkpt lat="49.89951" lon="2.2909">
        <ele>22.1</ele>
        <time>2022-04-11T08:48:05Z</time>
      </trkpt>
      <trkpt lat="49.89951" lon="2.29089">
        <ele>22.1</ele>
        <time>2022-04-11T08:48:06Z</time>
      </trkpt>
      <trkpt lat="49.89952" lon="2.29088">
        <ele>22.1</ele>
        <time>2022-04-11T08:48:07Z</time>
      </trkpt>
      <trkpt lat="49.89952" lon="2.29087">
        <ele>22.1</ele>
        <time>2022-04-11T08:48:08Z</time>
      </trkpt>
      <trkpt lat="49.89953" lon="2.29086">
        <ele>22.1</ele>
        <time>2022-04-11T08:48:09Z</time>
      </trkpt>
      <trkpt lat="49.89954" lon="2.29085">
        <ele>22.1</ele>
        <time>2022-04-11T08:48:11Z</time>
      </trkpt>
      <trkpt lat="49.89955" lon="2.29082">
        <ele>22</ele>
        <time>2022-04-11T08:48:12Z</time>
      </trkpt>
      <trkpt lat="49.89956" lon="2.2908">
        <ele>22</ele>
        <time>2022-04-11T08:48:13Z</time>
      </trkpt>
      <trkpt lat="49.89957" lon="2.29079">
        <ele>22</ele>
        <time>2022-04-11T08:48:14Z</time>
      </trkpt>
      <trkpt lat="49.89957" lon="2.29078">
        <ele>22</ele>
        <time>2022-04-11T08:48:15Z</time>
      </trkpt>
      <trkpt lat="49.89958" lon="2.29076">
        <ele>22</ele>
        <time>2022-04-11T08:48:17Z</time>
      </trkpt>
      <trkpt lat="49.89958" lon="2.29074">
        <ele>22</ele>
        <time>2022-04-11T08:48:18Z</time>
      </trkpt>
      <trkpt lat="49.89959" lon="2.29072">
        <ele>22</ele>
        <time>2022-04-11T08:48:19Z</time>
      </trkpt>
      <trkpt lat="49.89959" lon="2.29071">
        <ele>22</ele>
        <time>2022-04-11T08:48:20Z</time>
      </trkpt>
      <trkpt lat="49.89959" lon="2.29069">
        <ele>22</ele>
        <time>2022-04-11T08:48:21Z</time>
      </trkpt>
      <trkpt lat="49.89959" lon="2.29068">
        <ele>22</ele>
        <time>2022-04-11T08:48:22Z</time>
      </trkpt>
      <trkpt lat="49.8996" lon="2.29066">
        <ele>22</ele>
        <time>2022-04-11T08:48:23Z</time>
      </trkpt>
      <trkpt lat="49.8996" lon="2.29064">
        <ele>22</ele>
        <time>2022-04-11T08:48:24Z</time>
      </trkpt>
      <trkpt lat="49.89961" lon="2.29061">
        <ele>22</ele>
        <time>2022-04-11T08:48:25Z</time>
      </trkpt>
      <trkpt lat="49.89961" lon="2.29059">
        <ele>22</ele>
        <time>2022-04-11T08:48:27Z</time>
      </trkpt>
      <trkpt lat="49.89962" lon="2.29058">
        <ele>22</ele>
        <time>2022-04-11T08:48:28Z</time>
      </trkpt>
      <trkpt lat="49.89962" lon="2.29056">
        <ele>22</ele>
        <time>2022-04-11T08:48:29Z</time>
      </trkpt>
      <trkpt lat="49.89963" lon="2.29055">
        <ele>22</ele>
        <time>2022-04-11T08:48:30Z</time>
      </trkpt>
      <trkpt lat="49.89963" lon="2.29053">
        <ele>21.9</ele>
        <time>2022-04-11T08:48:31Z</time>
      </trkpt>
      <trkpt lat="49.89963" lon="2.2905">
        <ele>21.9</ele>
        <time>2022-04-11T08:48:32Z</time>
      </trkpt>
      <trkpt lat="49.89964" lon="2.29048">
        <ele>21.9</ele>
        <time>2022-04-11T08:48:33Z</time>
      </trkpt>
      <trkpt lat="49.89964" lon="2.29046">
        <ele>21.9</ele>
        <time>2022-04-11T08:48:34Z</time>
      </trkpt>
      <trkpt lat="49.89964" lon="2.29045">
        <ele>21.9</ele>
        <time>2022-04-11T08:48:35Z</time>
      </trkpt>
      <trkpt lat="49.89965" lon="2.29045">
        <ele>21.9</ele>
        <time>2022-04-11T08:48:37Z</time>
      </trkpt>
      <trkpt lat="49.89965" lon="2.29043">
        <ele>21.9</ele>
        <time>2022-04-11T08:48:38Z</time>
      </trkpt>
      <trkpt lat="49.89965" lon="2.29042">
        <ele>21.9</ele>
        <time>2022-04-11T08:48:39Z</time>
      </trkpt>
      <trkpt lat="49.89965" lon="2.2904">
        <ele>21.9</ele>
        <time>2022-04-11T08:48:40Z</time>
      </trkpt>
      <trkpt lat="49.89965" lon="2.29039">
        <ele>21.9</ele>
        <time>2022-04-11T08:48:41Z</time>
      </trkpt>
      <trkpt lat="49.89965" lon="2.29036">
        <ele>21.9</ele>
        <time>2022-04-11T08:48:42Z</time>
      </trkpt>
      <trkpt lat="49.89965" lon="2.29034">
        <ele>21.9</ele>
        <time>2022-04-11T08:48:44Z</time>
      </trkpt>
      <trkpt lat="49.89965" lon="2.29031">
        <ele>21.9</ele>
        <time>2022-04-11T08:48:45Z</time>
      </trkpt>
      <trkpt lat="49.89966" lon="2.2903">
        <ele>21.9</ele>
        <time>2022-04-11T08:48:46Z</time>
      </trkpt>
      <trkpt lat="49.89966" lon="2.29028">
        <ele>21.8</ele>
        <time>2022-04-11T08:48:47Z</time>
      </trkpt>
      <trkpt lat="49.89967" lon="2.29026">
        <ele>21.8</ele>
        <time>2022-04-11T08:48:48Z</time>
      </trkpt>
      <trkpt lat="49.89967" lon="2.29024">
        <ele>21.8</ele>
        <time>2022-04-11T08:48:49Z</time>
      </trkpt>
      <trkpt lat="49.89968" lon="2.29023">
        <ele>21.8</ele>
        <time>2022-04-11T08:48:50Z</time>
      </trkpt>
      <trkpt lat="49.89968" lon="2.29021">
        <ele>21.8</ele>
        <time>2022-04-11T08:48:51Z</time>
      </trkpt>
      <trkpt lat="49.89969" lon="2.2902">
        <ele>21.8</ele>
        <time>2022-04-11T08:48:52Z</time>
      </trkpt>
      <trkpt lat="49.8997" lon="2.29019">
        <ele>21.8</ele>
        <time>2022-04-11T08:48:53Z</time>
      </trkpt>
      <trkpt lat="49.8997" lon="2.29017">
        <ele>21.8</ele>
        <time>2022-04-11T08:48:55Z</time>
      </trkpt>
      <trkpt lat="49.89971" lon="2.29016">
        <ele>21.8</ele>
        <time>2022-04-11T08:48:56Z</time>
      </trkpt>
      <trkpt lat="49.89971" lon="2.29015">
        <ele>21.8</ele>
        <time>2022-04-11T08:48:57Z</time>
      </trkpt>
      <trkpt lat="49.89972" lon="2.29013">
        <ele>21.8</ele>
        <time>2022-04-11T08:48:58Z</time>
      </trkpt>
      <trkpt lat="49.89972" lon="2.29012">
        <ele>21.8</ele>
        <time>2022-04-11T08:48:59Z</time>
      </trkpt>
      <trkpt lat="49.89973" lon="2.29009">
        <ele>21.8</ele>
        <time>2022-04-11T08:49:00Z</time>
      </trkpt>
      <trkpt lat="49.89973" lon="2.29008">
        <ele>21.8</ele>
        <time>2022-04-11T08:49:01Z</time>
      </trkpt>
      <trkpt lat="49.89973" lon="2.29007">
        <ele>21.8</ele>
        <time>2022-04-11T08:49:02Z</time>
      </trkpt>
      <trkpt lat="49.89974" lon="2.29005">
        <ele>21.8</ele>
        <time>2022-04-11T08:49:04Z</time>
      </trkpt>
      <trkpt lat="49.89975" lon="2.29004">
        <ele>21.8</ele>
        <time>2022-04-11T08:49:05Z</time>
      </trkpt>
      <trkpt lat="49.89976" lon="2.29003">
        <ele>21.8</ele>
        <time>2022-04-11T08:49:06Z</time>
      </trkpt>
      <trkpt lat="49.89977" lon="2.29002">
        <ele>21.7</ele>
        <time>2022-04-11T08:49:07Z</time>
      </trkpt>
      <trkpt lat="49.89977" lon="2.29">
        <ele>21.7</ele>
        <time>2022-04-11T08:49:08Z</time>
      </trkpt>
      <trkpt lat="49.89977" lon="2.28998">
        <ele>21.7</ele>
        <time>2022-04-11T08:49:09Z</time>
      </trkpt>
      <trkpt lat="49.89978" lon="2.28996">
        <ele>21.7</ele>
        <time>2022-04-11T08:49:10Z</time>
      </trkpt>
      <trkpt lat="49.89979" lon="2.28994">
        <ele>21.7</ele>
        <time>2022-04-11T08:49:11Z</time>
      </trkpt>
      <trkpt lat="49.8998" lon="2.28991">
        <ele>21.7</ele>
        <time>2022-04-11T08:49:12Z</time>
      </trkpt>
      <trkpt lat="49.89981" lon="2.28989">
        <ele>21.7</ele>
        <time>2022-04-11T08:49:14Z</time>
      </trkpt>
      <trkpt lat="49.89981" lon="2.28987">
        <ele>21.7</ele>
        <time>2022-04-11T08:49:15Z</time>
      </trkpt>
      <trkpt lat="49.89982" lon="2.28986">
        <ele>21.7</ele>
        <time>2022-04-11T08:49:16Z</time>
      </trkpt>
      <trkpt lat="49.89982" lon="2.28984">
        <ele>21.7</ele>
        <time>2022-04-11T08:49:17Z</time>
      </trkpt>
      <trkpt lat="49.89983" lon="2.28982">
        <ele>21.7</ele>
        <time>2022-04-11T08:49:18Z</time>
      </trkpt>
      <trkpt lat="49.89984" lon="2.2898">
        <ele>21.7</ele>
        <time>2022-04-11T08:49:19Z</time>
      </trkpt>
      <trkpt lat="49.89984" lon="2.28979">
        <ele>21.7</ele>
        <time>2022-04-11T08:49:20Z</time>
      </trkpt>
      <trkpt lat="49.89985" lon="2.28977">
        <ele>21.7</ele>
        <time>2022-04-11T08:49:21Z</time>
      </trkpt>
      <trkpt lat="49.89985" lon="2.28976">
        <ele>21.7</ele>
        <time>2022-04-11T08:49:22Z</time>
      </trkpt>
      <trkpt lat="49.89986" lon="2.28973">
        <ele>21.7</ele>
        <time>2022-04-11T08:49:24Z</time>
      </trkpt>
      <trkpt lat="49.89987" lon="2.28972">
        <ele>21.7</ele>
        <time>2022-04-11T08:49:25Z</time>
      </trkpt>
      <trkpt lat="49.89987" lon="2.28971">
        <ele>21.7</ele>
        <time>2022-04-11T08:49:26Z</time>
      </trkpt>
      <trkpt lat="49.89989" lon="2.28968">
        <ele>21.6</ele>
        <time>2022-04-11T08:49:27Z</time>
      </trkpt>
      <trkpt lat="49.89989" lon="2.28967">
        <ele>21.6</ele>
        <time>2022-04-11T08:49:28Z</time>
      </trkpt>
      <trkpt lat="49.8999" lon="2.28966">
        <ele>21.6</ele>
        <time>2022-04-11T08:49:29Z</time>
      </trkpt>
      <trkpt lat="49.89991" lon="2.28964">
        <ele>21.6</ele>
        <time>2022-04-11T08:49:31Z</time>
      </trkpt>
      <trkpt lat="49.89992" lon="2.28962">
        <ele>21.6</ele>
        <time>2022-04-11T08:49:32Z</time>
      </trkpt>
      <trkpt lat="49.89993" lon="2.28961">
        <ele>21.6</ele>
        <time>2022-04-11T08:49:33Z</time>
      </trkpt>
      <trkpt lat="49.89994" lon="2.28961">
        <ele>21.6</ele>
        <time>2022-04-11T08:49:34Z</time>
      </trkpt>
      <trkpt lat="49.89994" lon="2.2896">
        <ele>21.6</ele>
        <time>2022-04-11T08:49:35Z</time>
      </trkpt>
      <trkpt lat="49.89995" lon="2.2896">
        <ele>21.6</ele>
        <time>2022-04-11T08:49:36Z</time>
      </trkpt>
      <trkpt lat="49.89996" lon="2.28958">
        <ele>21.6</ele>
        <time>2022-04-11T08:49:37Z</time>
      </trkpt>
      <trkpt lat="49.89998" lon="2.28956">
        <ele>21.6</ele>
        <time>2022-04-11T08:49:39Z</time>
      </trkpt>
      <trkpt lat="49.89999" lon="2.28955">
        <ele>21.6</ele>
        <time>2022-04-11T08:49:40Z</time>
      </trkpt>
      <trkpt lat="49.90001" lon="2.28955">
        <ele>21.6</ele>
        <time>2022-04-11T08:49:41Z</time>
      </trkpt>
      <trkpt lat="49.90002" lon="2.28954">
        <ele>21.6</ele>
        <time>2022-04-11T08:49:42Z</time>
      </trkpt>
      <trkpt lat="49.90003" lon="2.28953">
        <ele>21.6</ele>
        <time>2022-04-11T08:49:43Z</time>
      </trkpt>
      <trkpt lat="49.90005" lon="2.28952">
        <ele>21.6</ele>
        <time>2022-04-11T08:49:44Z</time>
      </trkpt>
      <trkpt lat="49.90006" lon="2.28951">
        <ele>21.6</ele>
        <time>2022-04-11T08:49:45Z</time>
      </trkpt>
      <trkpt lat="49.90007" lon="2.2895">
        <ele>21.6</ele>
        <time>2022-04-11T08:49:47Z</time>
      </trkpt>
      <trkpt lat="49.90008" lon="2.28949">
        <ele>21.6</ele>
        <time>2022-04-11T08:49:48Z</time>
      </trkpt>
      <trkpt lat="49.9001" lon="2.28948">
        <ele>21.6</ele>
        <time>2022-04-11T08:49:49Z</time>
      </trkpt>
      <trkpt lat="49.90011" lon="2.28948">
        <ele>21.6</ele>
        <time>2022-04-11T08:49:50Z</time>
      </trkpt>
      <trkpt lat="49.90012" lon="2.28947">
        <ele>21.6</ele>
        <time>2022-04-11T08:49:51Z</time>
      </trkpt>
      <trkpt lat="49.90013" lon="2.28946">
        <ele>21.6</ele>
        <time>2022-04-11T08:49:52Z</time>
      </trkpt>
      <trkpt lat="49.90015" lon="2.28945">
        <ele>21.6</ele>
        <time>2022-04-11T08:49:53Z</time>
      </trkpt>
      <trkpt lat="49.90017" lon="2.28944">
        <ele>21.6</ele>
        <time>2022-04-11T08:49:54Z</time>
      </trkpt>
      <trkpt lat="49.90017" lon="2.28943">
        <ele>21.6</ele>
        <time>2022-04-11T08:49:56Z</time>
      </trkpt>
      <trkpt lat="49.90018" lon="2.28943">
        <ele>21.6</ele>
        <time>2022-04-11T08:49:57Z</time>
      </trkpt>
      <trkpt lat="49.90019" lon="2.28942">
        <ele>21.6</ele>
        <time>2022-04-11T08:49:58Z</time>
      </trkpt>
      <trkpt lat="49.9002" lon="2.28941">
        <ele>21.6</ele>
        <time>2022-04-11T08:49:59Z</time>
      </trkpt>
      <trkpt lat="49.90021" lon="2.2894">
        <ele>21.6</ele>
        <time>2022-04-11T08:50:00Z</time>
      </trkpt>
      <trkpt lat="49.90023" lon="2.28939">
        <ele>21.6</ele>
        <time>2022-04-11T08:50:01Z</time>
      </trkpt>
      <trkpt lat="49.90024" lon="2.28938">
        <ele>21.6</ele>
        <time>2022-04-11T08:50:02Z</time>
      </trkpt>
      <trkpt lat="49.90026" lon="2.28936">
        <ele>21.6</ele>
        <time>2022-04-11T08:50:04Z</time>
      </trkpt>
      <trkpt lat="49.90026" lon="2.28935">
        <ele>21.6</ele>
        <time>2022-04-11T08:50:05Z</time>
      </trkpt>
      <trkpt lat="49.90027" lon="2.28934">
        <ele>21.6</ele>
        <time>2022-04-11T08:50:06Z</time>
      </trkpt>
      <trkpt lat="49.90029" lon="2.28933">
        <ele>21.6</ele>
        <time>2022-04-11T08:50:07Z</time>
      </trkpt>
      <trkpt lat="49.9003" lon="2.28932">
        <ele>21.6</ele>
        <time>2022-04-11T08:50:08Z</time>
      </trkpt>
      <trkpt lat="49.90032" lon="2.2893">
        <ele>21.6</ele>
        <time>2022-04-11T08:50:09Z</time>
      </trkpt>
      <trkpt lat="49.90033" lon="2.28929">
        <ele>21.6</ele>
        <time>2022-04-11T08:50:10Z</time>
      </trkpt>
      <trkpt lat="49.90033" lon="2.28928">
        <ele>21.6</ele>
        <time>2022-04-11T08:50:11Z</time>
      </trkpt>
      <trkpt lat="49.90034" lon="2.28926">
        <ele>21.6</ele>
        <time>2022-04-11T08:50:12Z</time>
      </trkpt>
      <trkpt lat="49.90035" lon="2.28925">
        <ele>21.6</ele>
        <time>2022-04-11T08:50:13Z</time>
      </trkpt>
      <trkpt lat="49.90036" lon="2.28924">
        <ele>21.6</ele>
        <time>2022-04-11T08:50:15Z</time>
      </trkpt>
      <trkpt lat="49.90036" lon="2.28923">
        <ele>21.6</ele>
        <time>2022-04-11T08:50:16Z</time>
      </trkpt>
      <trkpt lat="49.90037" lon="2.28923">
        <ele>21.6</ele>
        <time>2022-04-11T08:50:17Z</time>
      </trkpt>
      <trkpt lat="49.90038" lon="2.28922">
        <ele>21.6</ele>
        <time>2022-04-11T08:50:18Z</time>
      </trkpt>
      <trkpt lat="49.90039" lon="2.2892">
        <ele>21.6</ele>
        <time>2022-04-11T08:50:19Z</time>
      </trkpt>
      <trkpt lat="49.9004" lon="2.28919">
        <ele>21.6</ele>
        <time>2022-04-11T08:50:20Z</time>
      </trkpt>
      <trkpt lat="49.90042" lon="2.28918">
        <ele>21.6</ele>
        <time>2022-04-11T08:50:21Z</time>
      </trkpt>
      <trkpt lat="49.90044" lon="2.28917">
        <ele>21.6</ele>
        <time>2022-04-11T08:50:22Z</time>
      </trkpt>
      <trkpt lat="49.90046" lon="2.28915">
        <ele>21.6</ele>
        <time>2022-04-11T08:50:23Z</time>
      </trkpt>
      <trkpt lat="49.90046" lon="2.28914">
        <ele>21.6</ele>
        <time>2022-04-11T08:50:25Z</time>
      </trkpt>
      <trkpt lat="49.90047" lon="2.28912">
        <ele>21.6</ele>
        <time>2022-04-11T08:50:26Z</time>
      </trkpt>
      <trkpt lat="49.90048" lon="2.28909">
        <ele>21.6</ele>
        <time>2022-04-11T08:50:27Z</time>
      </trkpt>
      <trkpt lat="49.90048" lon="2.28904">
        <ele>21.6</ele>
        <time>2022-04-11T08:50:28Z</time>
      </trkpt>
      <trkpt lat="49.90048" lon="2.28901">
        <ele>21.6</ele>
        <time>2022-04-11T08:50:29Z</time>
      </trkpt>
      <trkpt lat="49.90048" lon="2.28896">
        <ele>21.6</ele>
        <time>2022-04-11T08:50:30Z</time>
      </trkpt>
      <trkpt lat="49.90048" lon="2.28895">
        <ele>21.6</ele>
        <time>2022-04-11T08:50:31Z</time>
      </trkpt>
      <trkpt lat="49.90048" lon="2.28893">
        <ele>21.6</ele>
        <time>2022-04-11T08:50:32Z</time>
      </trkpt>
      <trkpt lat="49.90049" lon="2.28889">
        <ele>21.6</ele>
        <time>2022-04-11T08:50:34Z</time>
      </trkpt>
      <trkpt lat="49.90049" lon="2.28889">
        <ele>21.6</ele>
        <time>2022-04-11T08:50:35Z</time>
      </trkpt>
      <trkpt lat="49.9005" lon="2.28887">
        <ele>21.7</ele>
        <time>2022-04-11T08:50:36Z</time>
      </trkpt>
      <trkpt lat="49.90051" lon="2.28886">
        <ele>21.7</ele>
        <time>2022-04-11T08:50:37Z</time>
      </trkpt>
      <trkpt lat="49.90053" lon="2.28885">
        <ele>21.7</ele>
        <time>2022-04-11T08:50:39Z</time>
      </trkpt>
      <trkpt lat="49.90054" lon="2.28884">
        <ele>21.7</ele>
        <time>2022-04-11T08:50:40Z</time>
      </trkpt>
      <trkpt lat="49.90055" lon="2.28883">
        <ele>21.7</ele>
        <time>2022-04-11T08:50:41Z</time>
      </trkpt>
      <trkpt lat="49.90056" lon="2.28882">
        <ele>21.7</ele>
        <time>2022-04-11T08:50:42Z</time>
      </trkpt>
      <trkpt lat="49.90058" lon="2.28881">
        <ele>21.7</ele>
        <time>2022-04-11T08:50:43Z</time>
      </trkpt>
      <trkpt lat="49.90059" lon="2.28879">
        <ele>21.7</ele>
        <time>2022-04-11T08:50:44Z</time>
      </trkpt>
      <trkpt lat="49.90059" lon="2.28879">
        <ele>21.7</ele>
        <time>2022-04-11T08:50:45Z</time>
      </trkpt>
      <trkpt lat="49.9006" lon="2.28877">
        <ele>21.7</ele>
        <time>2022-04-11T08:50:46Z</time>
      </trkpt>
      <trkpt lat="49.90061" lon="2.28876">
        <ele>21.7</ele>
        <time>2022-04-11T08:50:47Z</time>
      </trkpt>
      <trkpt lat="49.90064" lon="2.28875">
        <ele>21.7</ele>
        <time>2022-04-11T08:50:48Z</time>
      </trkpt>
      <trkpt lat="49.90064" lon="2.28874">
        <ele>21.7</ele>
        <time>2022-04-11T08:50:49Z</time>
      </trkpt>
      <trkpt lat="49.90065" lon="2.28874">
        <ele>21.7</ele>
        <time>2022-04-11T08:50:50Z</time>
      </trkpt>
      <trkpt lat="49.90067" lon="2.28872">
        <ele>21.7</ele>
        <time>2022-04-11T08:50:52Z</time>
      </trkpt>
      <trkpt lat="49.90068" lon="2.28872">
        <ele>21.7</ele>
        <time>2022-04-11T08:50:53Z</time>
      </trkpt>
      <trkpt lat="49.90069" lon="2.28871">
        <ele>21.7</ele>
        <time>2022-04-11T08:50:54Z</time>
      </trkpt>
      <trkpt lat="49.9007" lon="2.2887">
        <ele>21.7</ele>
        <time>2022-04-11T08:50:55Z</time>
      </trkpt>
      <trkpt lat="49.90071" lon="2.28869">
        <ele>21.7</ele>
        <time>2022-04-11T08:50:56Z</time>
      </trkpt>
      <trkpt lat="49.90072" lon="2.28868">
        <ele>21.7</ele>
        <time>2022-04-11T08:50:57Z</time>
      </trkpt>
      <trkpt lat="49.90073" lon="2.28868">
        <ele>21.7</ele>
        <time>2022-04-11T08:50:59Z</time>
      </trkpt>
      <trkpt lat="49.90075" lon="2.28867">
        <ele>21.7</ele>
        <time>2022-04-11T08:51:00Z</time>
      </trkpt>
      <trkpt lat="49.90076" lon="2.28867">
        <ele>21.7</ele>
        <time>2022-04-11T08:51:01Z</time>
      </trkpt>
      <trkpt lat="49.90077" lon="2.28867">
        <ele>21.7</ele>
        <time>2022-04-11T08:51:02Z</time>
      </trkpt>
      <trkpt lat="49.90079" lon="2.28867">
        <ele>21.7</ele>
        <time>2022-04-11T08:51:04Z</time>
      </trkpt>
      <trkpt lat="49.9008" lon="2.28867">
        <ele>21.7</ele>
        <time>2022-04-11T08:51:05Z</time>
      </trkpt>
      <trkpt lat="49.9008" lon="2.28866">
        <ele>21.7</ele>
        <time>2022-04-11T08:51:06Z</time>
      </trkpt>
      <trkpt lat="49.90081" lon="2.28865">
        <ele>21.7</ele>
        <time>2022-04-11T08:51:07Z</time>
      </trkpt>
      <trkpt lat="49.90082" lon="2.28863">
        <ele>21.7</ele>
        <time>2022-04-11T08:51:08Z</time>
      </trkpt>
      <trkpt lat="49.90083" lon="2.28862">
        <ele>21.7</ele>
        <time>2022-04-11T08:51:09Z</time>
      </trkpt>
      <trkpt lat="49.90084" lon="2.28861">
        <ele>21.7</ele>
        <time>2022-04-11T08:51:10Z</time>
      </trkpt>
      <trkpt lat="49.90085" lon="2.28858">
        <ele>21.7</ele>
        <time>2022-04-11T08:51:11Z</time>
      </trkpt>
      <trkpt lat="49.90085" lon="2.28857">
        <ele>21.7</ele>
        <time>2022-04-11T08:51:12Z</time>
      </trkpt>
      <trkpt lat="49.90086" lon="2.28856">
        <ele>21.7</ele>
        <time>2022-04-11T08:51:13Z</time>
      </trkpt>
      <trkpt lat="49.90088" lon="2.28854">
        <ele>21.8</ele>
        <time>2022-04-11T08:51:14Z</time>
      </trkpt>
      <trkpt lat="49.90088" lon="2.28854">
        <ele>21.8</ele>
        <time>2022-04-11T08:51:16Z</time>
      </trkpt>
      <trkpt lat="49.90089" lon="2.28853">
        <ele>21.8</ele>
        <time>2022-04-11T08:51:17Z</time>
      </trkpt>
      <trkpt lat="49.9009" lon="2.28852">
        <ele>21.8</ele>
        <time>2022-04-11T08:51:18Z</time>
      </trkpt>
      <trkpt lat="49.90091" lon="2.2885">
        <ele>21.8</ele>
        <time>2022-04-11T08:51:19Z</time>
      </trkpt>
      <trkpt lat="49.90092" lon="2.28849">
        <ele>21.8</ele>
        <time>2022-04-11T08:51:20Z</time>
      </trkpt>
      <trkpt lat="49.90093" lon="2.28847">
        <ele>21.8</ele>
        <time>2022-04-11T08:51:21Z</time>
      </trkpt>
      <trkpt lat="49.90094" lon="2.28844">
        <ele>21.8</ele>
        <time>2022-04-11T08:51:22Z</time>
      </trkpt>
      <trkpt lat="49.90095" lon="2.28843">
        <ele>21.8</ele>
        <time>2022-04-11T08:51:23Z</time>
      </trkpt>
      <trkpt lat="49.90096" lon="2.28843">
        <ele>21.8</ele>
        <time>2022-04-11T08:51:24Z</time>
      </trkpt>
      <trkpt lat="49.90097" lon="2.28842">
        <ele>21.8</ele>
        <time>2022-04-11T08:51:25Z</time>
      </trkpt>
      <trkpt lat="49.90097" lon="2.28841">
        <ele>21.8</ele>
        <time>2022-04-11T08:51:27Z</time>
      </trkpt>
      <trkpt lat="49.90098" lon="2.28839">
        <ele>21.8</ele>
        <time>2022-04-11T08:51:28Z</time>
      </trkpt>
      <trkpt lat="49.90099" lon="2.28838">
        <ele>21.8</ele>
        <time>2022-04-11T08:51:29Z</time>
      </trkpt>
      <trkpt lat="49.901" lon="2.28837">
        <ele>21.9</ele>
        <time>2022-04-11T08:51:30Z</time>
      </trkpt>
      <trkpt lat="49.90101" lon="2.28837">
        <ele>21.9</ele>
        <time>2022-04-11T08:51:31Z</time>
      </trkpt>
      <trkpt lat="49.90103" lon="2.28835">
        <ele>21.9</ele>
        <time>2022-04-11T08:51:32Z</time>
      </trkpt>
      <trkpt lat="49.90104" lon="2.28835">
        <ele>21.9</ele>
        <time>2022-04-11T08:51:33Z</time>
      </trkpt>
      <trkpt lat="49.90104" lon="2.28834">
        <ele>21.9</ele>
        <time>2022-04-11T08:51:34Z</time>
      </trkpt>
      <trkpt lat="49.90106" lon="2.28833">
        <ele>21.9</ele>
        <time>2022-04-11T08:51:35Z</time>
      </trkpt>
      <trkpt lat="49.90107" lon="2.28832">
        <ele>21.9</ele>
        <time>2022-04-11T08:51:36Z</time>
      </trkpt>
      <trkpt lat="49.90109" lon="2.28831">
        <ele>21.9</ele>
        <time>2022-04-11T08:51:37Z</time>
      </trkpt>
      <trkpt lat="49.9011" lon="2.28831">
        <ele>21.9</ele>
        <time>2022-04-11T08:51:39Z</time>
      </trkpt>
      <trkpt lat="49.90111" lon="2.28831">
        <ele>21.9</ele>
        <time>2022-04-11T08:51:40Z</time>
      </trkpt>
      <trkpt lat="49.90112" lon="2.2883">
        <ele>21.9</ele>
        <time>2022-04-11T08:51:41Z</time>
      </trkpt>
      <trkpt lat="49.90113" lon="2.28829">
        <ele>21.9</ele>
        <time>2022-04-11T08:51:42Z</time>
      </trkpt>
      <trkpt lat="49.90115" lon="2.28827">
        <ele>21.9</ele>
        <time>2022-04-11T08:51:43Z</time>
      </trkpt>
      <trkpt lat="49.90116" lon="2.28826">
        <ele>21.9</ele>
        <time>2022-04-11T08:51:44Z</time>
      </trkpt>
      <trkpt lat="49.90117" lon="2.28825">
        <ele>21.9</ele>
        <time>2022-04-11T08:51:45Z</time>
      </trkpt>
      <trkpt lat="49.90119" lon="2.28824">
        <ele>21.9</ele>
        <time>2022-04-11T08:51:46Z</time>
      </trkpt>
      <trkpt lat="49.9012" lon="2.28822">
        <ele>22</ele>
        <time>2022-04-11T08:51:47Z</time>
      </trkpt>
      <trkpt lat="49.90121" lon="2.28821">
        <ele>22</ele>
        <time>2022-04-11T08:51:48Z</time>
      </trkpt>
      <trkpt lat="49.90122" lon="2.2882">
        <ele>22</ele>
        <time>2022-04-11T08:51:50Z</time>
      </trkpt>
      <trkpt lat="49.90123" lon="2.28819">
        <ele>22</ele>
        <time>2022-04-11T08:51:51Z</time>
      </trkpt>
      <trkpt lat="49.90125" lon="2.28818">
        <ele>22</ele>
        <time>2022-04-11T08:51:52Z</time>
      </trkpt>
      <trkpt lat="49.90126" lon="2.28817">
        <ele>22</ele>
        <time>2022-04-11T08:51:53Z</time>
      </trkpt>
      <trkpt lat="49.90127" lon="2.28816">
        <ele>22</ele>
        <time>2022-04-11T08:51:54Z</time>
      </trkpt>
      <trkpt lat="49.90128" lon="2.28816">
        <ele>22</ele>
        <time>2022-04-11T08:51:55Z</time>
      </trkpt>
      <trkpt lat="49.9013" lon="2.28815">
        <ele>22</ele>
        <time>2022-04-11T08:51:56Z</time>
      </trkpt>
      <trkpt lat="49.90131" lon="2.28814">
        <ele>22</ele>
        <time>2022-04-11T08:51:57Z</time>
      </trkpt>
      <trkpt lat="49.90133" lon="2.28814">
        <ele>22</ele>
        <time>2022-04-11T08:51:58Z</time>
      </trkpt>
      <trkpt lat="49.90134" lon="2.28814">
        <ele>22</ele>
        <time>2022-04-11T08:51:59Z</time>
      </trkpt>
      <trkpt lat="49.90135" lon="2.28814">
        <ele>22</ele>
        <time>2022-04-11T08:52:00Z</time>
      </trkpt>
      <trkpt lat="49.90136" lon="2.28813">
        <ele>22</ele>
        <time>2022-04-11T08:52:01Z</time>
      </trkpt>
      <trkpt lat="49.90137" lon="2.28813">
        <ele>22</ele>
        <time>2022-04-11T08:52:02Z</time>
      </trkpt>
      <trkpt lat="49.90138" lon="2.28813">
        <ele>22</ele>
        <time>2022-04-11T08:52:04Z</time>
      </trkpt>
      <trkpt lat="49.90139" lon="2.28812">
        <ele>22</ele>
        <time>2022-04-11T08:52:05Z</time>
      </trkpt>
      <trkpt lat="49.90141" lon="2.28812">
        <ele>22</ele>
        <time>2022-04-11T08:52:06Z</time>
      </trkpt>
      <trkpt lat="49.90142" lon="2.28812">
        <ele>22</ele>
        <time>2022-04-11T08:52:07Z</time>
      </trkpt>
      <trkpt lat="49.90143" lon="2.28812">
        <ele>22</ele>
        <time>2022-04-11T08:52:08Z</time>
      </trkpt>
      <trkpt lat="49.90144" lon="2.28811">
        <ele>22</ele>
        <time>2022-04-11T08:52:09Z</time>
      </trkpt>
      <trkpt lat="49.90145" lon="2.28811">
        <ele>22</ele>
        <time>2022-04-11T08:52:10Z</time>
      </trkpt>
      <trkpt lat="49.90146" lon="2.2881">
        <ele>22</ele>
        <time>2022-04-11T08:52:11Z</time>
      </trkpt>
      <trkpt lat="49.90148" lon="2.28809">
        <ele>22</ele>
        <time>2022-04-11T08:52:12Z</time>
      </trkpt>
      <trkpt lat="49.90149" lon="2.28808">
        <ele>22</ele>
        <time>2022-04-11T08:52:13Z</time>
      </trkpt>
      <trkpt lat="49.9015" lon="2.28807">
        <ele>22</ele>
        <time>2022-04-11T08:52:14Z</time>
      </trkpt>
      <trkpt lat="49.90151" lon="2.28807">
        <ele>22</ele>
        <time>2022-04-11T08:52:15Z</time>
      </trkpt>
      <trkpt lat="49.90152" lon="2.28806">
        <ele>22</ele>
        <time>2022-04-11T08:52:16Z</time>
      </trkpt>
      <trkpt lat="49.90153" lon="2.28805">
        <ele>22</ele>
        <time>2022-04-11T08:52:18Z</time>
      </trkpt>
      <trkpt lat="49.90154" lon="2.28805">
        <ele>22</ele>
        <time>2022-04-11T08:52:19Z</time>
      </trkpt>
      <trkpt lat="49.90156" lon="2.28804">
        <ele>22</ele>
        <time>2022-04-11T08:52:20Z</time>
      </trkpt>
      <trkpt lat="49.90158" lon="2.28803">
        <ele>22</ele>
        <time>2022-04-11T08:52:21Z</time>
      </trkpt>
      <trkpt lat="49.90158" lon="2.28802">
        <ele>22</ele>
        <time>2022-04-11T08:52:22Z</time>
      </trkpt>
      <trkpt lat="49.90159" lon="2.28802">
        <ele>22</ele>
        <time>2022-04-11T08:52:23Z</time>
      </trkpt>
      <trkpt lat="49.90161" lon="2.288">
        <ele>22</ele>
        <time>2022-04-11T08:52:24Z</time>
      </trkpt>
      <trkpt lat="49.90162" lon="2.288">
        <ele>22</ele>
        <time>2022-04-11T08:52:25Z</time>
      </trkpt>
      <trkpt lat="49.90163" lon="2.288">
        <ele>22</ele>
        <time>2022-04-11T08:52:26Z</time>
      </trkpt>
      <trkpt lat="49.90165" lon="2.28798">
        <ele>22</ele>
        <time>2022-04-11T08:52:27Z</time>
      </trkpt>
      <trkpt lat="49.90166" lon="2.28798">
        <ele>22</ele>
        <time>2022-04-11T08:52:28Z</time>
      </trkpt>
      <trkpt lat="49.90166" lon="2.28797">
        <ele>22</ele>
        <time>2022-04-11T08:52:29Z</time>
      </trkpt>
      <trkpt lat="49.90168" lon="2.28796">
        <ele>22</ele>
        <time>2022-04-11T08:52:31Z</time>
      </trkpt>
      <trkpt lat="49.90169" lon="2.28795">
        <ele>22</ele>
        <time>2022-04-11T08:52:32Z</time>
      </trkpt>
      <trkpt lat="49.9017" lon="2.28795">
        <ele>22</ele>
        <time>2022-04-11T08:52:33Z</time>
      </trkpt>
      <trkpt lat="49.90172" lon="2.28794">
        <ele>22</ele>
        <time>2022-04-11T08:52:34Z</time>
      </trkpt>
      <trkpt lat="49.90174" lon="2.28793">
        <ele>22</ele>
        <time>2022-04-11T08:52:35Z</time>
      </trkpt>
      <trkpt lat="49.90174" lon="2.28792">
        <ele>22</ele>
        <time>2022-04-11T08:52:36Z</time>
      </trkpt>
      <trkpt lat="49.90175" lon="2.28792">
        <ele>22</ele>
        <time>2022-04-11T08:52:37Z</time>
      </trkpt>
      <trkpt lat="49.90177" lon="2.28791">
        <ele>22</ele>
        <time>2022-04-11T08:52:38Z</time>
      </trkpt>
      <trkpt lat="49.90178" lon="2.2879">
        <ele>22</ele>
        <time>2022-04-11T08:52:39Z</time>
      </trkpt>
      <trkpt lat="49.9018" lon="2.28789">
        <ele>22</ele>
        <time>2022-04-11T08:52:40Z</time>
      </trkpt>
      <trkpt lat="49.90181" lon="2.28789">
        <ele>22</ele>
        <time>2022-04-11T08:52:41Z</time>
      </trkpt>
      <trkpt lat="49.90182" lon="2.28789">
        <ele>22</ele>
        <time>2022-04-11T08:52:42Z</time>
      </trkpt>
      <trkpt lat="49.90183" lon="2.28788">
        <ele>22</ele>
        <time>2022-04-11T08:52:43Z</time>
      </trkpt>
      <trkpt lat="49.90184" lon="2.28788">
        <ele>22</ele>
        <time>2022-04-11T08:52:44Z</time>
      </trkpt>
      <trkpt lat="49.90185" lon="2.28788">
        <ele>22</ele>
        <time>2022-04-11T08:52:45Z</time>
      </trkpt>
      <trkpt lat="49.90187" lon="2.28787">
        <ele>21.9</ele>
        <time>2022-04-11T08:52:47Z</time>
      </trkpt>
      <trkpt lat="49.90188" lon="2.28786">
        <ele>21.9</ele>
        <time>2022-04-11T08:52:48Z</time>
      </trkpt>
      <trkpt lat="49.90189" lon="2.28786">
        <ele>21.9</ele>
        <time>2022-04-11T08:52:49Z</time>
      </trkpt>
      <trkpt lat="49.9019" lon="2.28785">
        <ele>21.9</ele>
        <time>2022-04-11T08:52:50Z</time>
      </trkpt>
      <trkpt lat="49.90191" lon="2.28784">
        <ele>21.9</ele>
        <time>2022-04-11T08:52:51Z</time>
      </trkpt>
      <trkpt lat="49.90193" lon="2.28783">
        <ele>21.9</ele>
        <time>2022-04-11T08:52:52Z</time>
      </trkpt>
      <trkpt lat="49.90194" lon="2.28783">
        <ele>21.9</ele>
        <time>2022-04-11T08:52:53Z</time>
      </trkpt>
      <trkpt lat="49.90196" lon="2.28783">
        <ele>21.9</ele>
        <time>2022-04-11T08:52:54Z</time>
      </trkpt>
      <trkpt lat="49.90197" lon="2.28782">
        <ele>21.9</ele>
        <time>2022-04-11T08:52:55Z</time>
      </trkpt>
      <trkpt lat="49.90199" lon="2.28782">
        <ele>21.9</ele>
        <time>2022-04-11T08:52:57Z</time>
      </trkpt>
      <trkpt lat="49.902" lon="2.28781">
        <ele>21.9</ele>
        <time>2022-04-11T08:52:58Z</time>
      </trkpt>
      <trkpt lat="49.90202" lon="2.2878">
        <ele>21.9</ele>
        <time>2022-04-11T08:52:59Z</time>
      </trkpt>
      <trkpt lat="49.90203" lon="2.2878">
        <ele>21.9</ele>
        <time>2022-04-11T08:53:00Z</time>
      </trkpt>
      <trkpt lat="49.90205" lon="2.2878">
        <ele>21.9</ele>
        <time>2022-04-11T08:53:01Z</time>
      </trkpt>
      <trkpt lat="49.90206" lon="2.28779">
        <ele>21.9</ele>
        <time>2022-04-11T08:53:02Z</time>
      </trkpt>
      <trkpt lat="49.90207" lon="2.28779">
        <ele>21.9</ele>
        <time>2022-04-11T08:53:03Z</time>
      </trkpt>
      <trkpt lat="49.90209" lon="2.28778">
        <ele>21.9</ele>
        <time>2022-04-11T08:53:04Z</time>
      </trkpt>
      <trkpt lat="49.9021" lon="2.28778">
        <ele>21.9</ele>
        <time>2022-04-11T08:53:05Z</time>
      </trkpt>
      <trkpt lat="49.90212" lon="2.28777">
        <ele>21.9</ele>
        <time>2022-04-11T08:53:07Z</time>
      </trkpt>
      <trkpt lat="49.90213" lon="2.28777">
        <ele>21.9</ele>
        <time>2022-04-11T08:53:08Z</time>
      </trkpt>
      <trkpt lat="49.90214" lon="2.28776">
        <ele>21.9</ele>
        <time>2022-04-11T08:53:09Z</time>
      </trkpt>
      <trkpt lat="49.90216" lon="2.28776">
        <ele>21.9</ele>
        <time>2022-04-11T08:53:10Z</time>
      </trkpt>
      <trkpt lat="49.90217" lon="2.28776">
        <ele>21.9</ele>
        <time>2022-04-11T08:53:11Z</time>
      </trkpt>
      <trkpt lat="49.90218" lon="2.28775">
        <ele>21.9</ele>
        <time>2022-04-11T08:53:12Z</time>
      </trkpt>
      <trkpt lat="49.90219" lon="2.28775">
        <ele>21.9</ele>
        <time>2022-04-11T08:53:14Z</time>
      </trkpt>
      <trkpt lat="49.9022" lon="2.28775">
        <ele>21.9</ele>
        <time>2022-04-11T08:53:15Z</time>
      </trkpt>
      <trkpt lat="49.90221" lon="2.28774">
        <ele>21.9</ele>
        <time>2022-04-11T08:53:16Z</time>
      </trkpt>
      <trkpt lat="49.90222" lon="2.28774">
        <ele>21.9</ele>
        <time>2022-04-11T08:53:17Z</time>
      </trkpt>
      <trkpt lat="49.90223" lon="2.28773">
        <ele>21.9</ele>
        <time>2022-04-11T08:53:18Z</time>
      </trkpt>
      <trkpt lat="49.90224" lon="2.28772">
        <ele>21.9</ele>
        <time>2022-04-11T08:53:19Z</time>
      </trkpt>
      <trkpt lat="49.90226" lon="2.28771">
        <ele>21.9</ele>
        <time>2022-04-11T08:53:20Z</time>
      </trkpt>
      <trkpt lat="49.90227" lon="2.2877">
        <ele>21.9</ele>
        <time>2022-04-11T08:53:21Z</time>
      </trkpt>
      <trkpt lat="49.90229" lon="2.28769">
        <ele>21.9</ele>
        <time>2022-04-11T08:53:22Z</time>
      </trkpt>
      <trkpt lat="49.9023" lon="2.28768">
        <ele>21.9</ele>
        <time>2022-04-11T08:53:23Z</time>
      </trkpt>
      <trkpt lat="49.90232" lon="2.28767">
        <ele>21.9</ele>
        <time>2022-04-11T08:53:24Z</time>
      </trkpt>
      <trkpt lat="49.90233" lon="2.28766">
        <ele>21.9</ele>
        <time>2022-04-11T08:53:25Z</time>
      </trkpt>
      <trkpt lat="49.90235" lon="2.28764">
        <ele>21.9</ele>
        <time>2022-04-11T08:53:27Z</time>
      </trkpt>
      <trkpt lat="49.90236" lon="2.28763">
        <ele>21.9</ele>
        <time>2022-04-11T08:53:28Z</time>
      </trkpt>
      <trkpt lat="49.90237" lon="2.28762">
        <ele>21.9</ele>
        <time>2022-04-11T08:53:29Z</time>
      </trkpt>
      <trkpt lat="49.90238" lon="2.2876">
        <ele>21.9</ele>
        <time>2022-04-11T08:53:30Z</time>
      </trkpt>
      <trkpt lat="49.9024" lon="2.28759">
        <ele>21.9</ele>
        <time>2022-04-11T08:53:31Z</time>
      </trkpt>
      <trkpt lat="49.90241" lon="2.28758">
        <ele>21.9</ele>
        <time>2022-04-11T08:53:32Z</time>
      </trkpt>
      <trkpt lat="49.90242" lon="2.28758">
        <ele>21.9</ele>
        <time>2022-04-11T08:53:33Z</time>
      </trkpt>
      <trkpt lat="49.90244" lon="2.28757">
        <ele>21.9</ele>
        <time>2022-04-11T08:53:34Z</time>
      </trkpt>
      <trkpt lat="49.90244" lon="2.28757">
        <ele>21.9</ele>
        <time>2022-04-11T08:53:35Z</time>
      </trkpt>
      <trkpt lat="49.90245" lon="2.28757">
        <ele>21.9</ele>
        <time>2022-04-11T08:53:36Z</time>
      </trkpt>
      <trkpt lat="49.90246" lon="2.28756">
        <ele>21.9</ele>
        <time>2022-04-11T08:53:37Z</time>
      </trkpt>
      <trkpt lat="49.90248" lon="2.28756">
        <ele>21.9</ele>
        <time>2022-04-11T08:53:39Z</time>
      </trkpt>
      <trkpt lat="49.90249" lon="2.28755">
        <ele>21.9</ele>
        <time>2022-04-11T08:53:40Z</time>
      </trkpt>
      <trkpt lat="49.9025" lon="2.28754">
        <ele>21.9</ele>
        <time>2022-04-11T08:53:41Z</time>
      </trkpt>
      <trkpt lat="49.90251" lon="2.28754">
        <ele>21.9</ele>
        <time>2022-04-11T08:53:42Z</time>
      </trkpt>
      <trkpt lat="49.90252" lon="2.28753">
        <ele>21.9</ele>
        <time>2022-04-11T08:53:43Z</time>
      </trkpt>
      <trkpt lat="49.90253" lon="2.28753">
        <ele>21.9</ele>
        <time>2022-04-11T08:53:44Z</time>
      </trkpt>
      <trkpt lat="49.90254" lon="2.28752">
        <ele>21.9</ele>
        <time>2022-04-11T08:53:45Z</time>
      </trkpt>
      <trkpt lat="49.90256" lon="2.28751">
        <ele>21.9</ele>
        <time>2022-04-11T08:53:46Z</time>
      </trkpt>
      <trkpt lat="49.90256" lon="2.2875">
        <ele>21.9</ele>
        <time>2022-04-11T08:53:47Z</time>
      </trkpt>
      <trkpt lat="49.90258" lon="2.28749">
        <ele>21.9</ele>
        <time>2022-04-11T08:53:49Z</time>
      </trkpt>
      <trkpt lat="49.90259" lon="2.28748">
        <ele>21.9</ele>
        <time>2022-04-11T08:53:50Z</time>
      </trkpt>
      <trkpt lat="49.9026" lon="2.28747">
        <ele>22</ele>
        <time>2022-04-11T08:53:51Z</time>
      </trkpt>
      <trkpt lat="49.90261" lon="2.28746">
        <ele>22</ele>
        <time>2022-04-11T08:53:52Z</time>
      </trkpt>
      <trkpt lat="49.90262" lon="2.28746">
        <ele>22</ele>
        <time>2022-04-11T08:53:53Z</time>
      </trkpt>
      <trkpt lat="49.90263" lon="2.28745">
        <ele>22</ele>
        <time>2022-04-11T08:53:54Z</time>
      </trkpt>
      <trkpt lat="49.90264" lon="2.28745">
        <ele>22</ele>
        <time>2022-04-11T08:53:55Z</time>
      </trkpt>
      <trkpt lat="49.90264" lon="2.28745">
        <ele>22</ele>
        <time>2022-04-11T08:53:56Z</time>
      </trkpt>
      <trkpt lat="49.90266" lon="2.28745">
        <ele>22</ele>
        <time>2022-04-11T08:53:57Z</time>
      </trkpt>
      <trkpt lat="49.90267" lon="2.28744">
        <ele>22</ele>
        <time>2022-04-11T08:53:58Z</time>
      </trkpt>
      <trkpt lat="49.90269" lon="2.28744">
        <ele>22</ele>
        <time>2022-04-11T08:53:59Z</time>
      </trkpt>
      <trkpt lat="49.9027" lon="2.28743">
        <ele>22</ele>
        <time>2022-04-11T08:54:00Z</time>
      </trkpt>
      <trkpt lat="49.90271" lon="2.28742">
        <ele>22</ele>
        <time>2022-04-11T08:54:02Z</time>
      </trkpt>
      <trkpt lat="49.90273" lon="2.28742">
        <ele>22</ele>
        <time>2022-04-11T08:54:03Z</time>
      </trkpt>
      <trkpt lat="49.90274" lon="2.28742">
        <ele>22</ele>
        <time>2022-04-11T08:54:04Z</time>
      </trkpt>
      <trkpt lat="49.90274" lon="2.28743">
        <ele>22</ele>
        <time>2022-04-11T08:54:05Z</time>
      </trkpt>
      <trkpt lat="49.90276" lon="2.28743">
        <ele>22.1</ele>
        <time>2022-04-11T08:54:06Z</time>
      </trkpt>
      <trkpt lat="49.90277" lon="2.28743">
        <ele>22.1</ele>
        <time>2022-04-11T08:54:07Z</time>
      </trkpt>
      <trkpt lat="49.90278" lon="2.28743">
        <ele>22.1</ele>
        <time>2022-04-11T08:54:08Z</time>
      </trkpt>
      <trkpt lat="49.90279" lon="2.28742">
        <ele>22.1</ele>
        <time>2022-04-11T08:54:09Z</time>
      </trkpt>
      <trkpt lat="49.90281" lon="2.28742">
        <ele>22.1</ele>
        <time>2022-04-11T08:54:10Z</time>
      </trkpt>
      <trkpt lat="49.90282" lon="2.28742">
        <ele>22.1</ele>
        <time>2022-04-11T08:54:12Z</time>
      </trkpt>
      <trkpt lat="49.90283" lon="2.28741">
        <ele>22.1</ele>
        <time>2022-04-11T08:54:13Z</time>
      </trkpt>
      <trkpt lat="49.90284" lon="2.28741">
        <ele>22.1</ele>
        <time>2022-04-11T08:54:14Z</time>
      </trkpt>
      <trkpt lat="49.90285" lon="2.28741">
        <ele>22.1</ele>
        <time>2022-04-11T08:54:15Z</time>
      </trkpt>
      <trkpt lat="49.90286" lon="2.28741">
        <ele>22.1</ele>
        <time>2022-04-11T08:54:16Z</time>
      </trkpt>
      <trkpt lat="49.90287" lon="2.28741">
        <ele>22.1</ele>
        <time>2022-04-11T08:54:17Z</time>
      </trkpt>
      <trkpt lat="49.90288" lon="2.28742">
        <ele>22.2</ele>
        <time>2022-04-11T08:54:19Z</time>
      </trkpt>
      <trkpt lat="49.90288" lon="2.28743">
        <ele>22.2</ele>
        <time>2022-04-11T08:54:20Z</time>
      </trkpt>
      <trkpt lat="49.90288" lon="2.28743">
        <ele>22.2</ele>
        <time>2022-04-11T08:54:21Z</time>
      </trkpt>
      <trkpt lat="49.90287" lon="2.28743">
        <ele>22.2</ele>
        <time>2022-04-11T08:54:22Z</time>
      </trkpt>
      <trkpt lat="49.90288" lon="2.28743">
        <ele>22.2</ele>
        <time>2022-04-11T08:54:24Z</time>
      </trkpt>
      <trkpt lat="49.90289" lon="2.28743">
        <ele>22.2</ele>
        <time>2022-04-11T08:54:25Z</time>
      </trkpt>
      <trkpt lat="49.90289" lon="2.28742">
        <ele>22.2</ele>
        <time>2022-04-11T08:54:26Z</time>
      </trkpt>
      <trkpt lat="49.9029" lon="2.28742">
        <ele>22.2</ele>
        <time>2022-04-11T08:54:27Z</time>
      </trkpt>
      <trkpt lat="49.9029" lon="2.28741">
        <ele>22.2</ele>
        <time>2022-04-11T08:54:28Z</time>
      </trkpt>
      <trkpt lat="49.90291" lon="2.2874">
        <ele>22.2</ele>
        <time>2022-04-11T08:54:29Z</time>
      </trkpt>
      <trkpt lat="49.90292" lon="2.28739">
        <ele>22.2</ele>
        <time>2022-04-11T08:54:31Z</time>
      </trkpt>
      <trkpt lat="49.90293" lon="2.28739">
        <ele>22.2</ele>
        <time>2022-04-11T08:54:32Z</time>
      </trkpt>
      <trkpt lat="49.90294" lon="2.28738">
        <ele>22.2</ele>
        <time>2022-04-11T08:54:33Z</time>
      </trkpt>
      <trkpt lat="49.90295" lon="2.28737">
        <ele>22.2</ele>
        <time>2022-04-11T08:54:34Z</time>
      </trkpt>
      <trkpt lat="49.90295" lon="2.28737">
        <ele>22.2</ele>
        <time>2022-04-11T08:54:35Z</time>
      </trkpt>
      <trkpt lat="49.90296" lon="2.28737">
        <ele>22.2</ele>
        <time>2022-04-11T08:54:36Z</time>
      </trkpt>
      <trkpt lat="49.90296" lon="2.28737">
        <ele>22.2</ele>
        <time>2022-04-11T08:54:37Z</time>
      </trkpt>
      <trkpt lat="49.90296" lon="2.28736">
        <ele>22.2</ele>
        <time>2022-04-11T08:54:38Z</time>
      </trkpt>
      <trkpt lat="49.90295" lon="2.28736">
        <ele>22.2</ele>
        <time>2022-04-11T08:54:39Z</time>
      </trkpt>
      <trkpt lat="49.90295" lon="2.28735">
        <ele>22.2</ele>
        <time>2022-04-11T08:54:40Z</time>
      </trkpt>
      <trkpt lat="49.90295" lon="2.28735">
        <ele>22.3</ele>
        <time>2022-04-11T08:54:41Z</time>
      </trkpt>
      <trkpt lat="49.90294" lon="2.28735">
        <ele>22.3</ele>
        <time>2022-04-11T08:54:42Z</time>
      </trkpt>
      <trkpt lat="49.90294" lon="2.28734">
        <ele>22.3</ele>
        <time>2022-04-11T08:54:43Z</time>
      </trkpt>
      <trkpt lat="49.90294" lon="2.28734">
        <ele>22.3</ele>
        <time>2022-04-11T08:54:44Z</time>
      </trkpt>
      <trkpt lat="49.90294" lon="2.28734">
        <ele>22.3</ele>
        <time>2022-04-11T08:54:45Z</time>
      </trkpt>
      <trkpt lat="49.90294" lon="2.28734">
        <ele>22.3</ele>
        <time>2022-04-11T08:54:46Z</time>
      </trkpt>
      <trkpt lat="49.90294" lon="2.28733">
        <ele>22.3</ele>
        <time>2022-04-11T08:54:47Z</time>
      </trkpt>
      <trkpt lat="49.90293" lon="2.28733">
        <ele>22.3</ele>
        <time>2022-04-11T08:54:48Z</time>
      </trkpt>
      <trkpt lat="49.90293" lon="2.28733">
        <ele>22.3</ele>
        <time>2022-04-11T08:54:49Z</time>
      </trkpt>
      <trkpt lat="49.90293" lon="2.28733">
        <ele>22.3</ele>
        <time>2022-04-11T08:54:50Z</time>
      </trkpt>
      <trkpt lat="49.90293" lon="2.28733">
        <ele>22.3</ele>
        <time>2022-04-11T08:54:51Z</time>
      </trkpt>
      <trkpt lat="49.90293" lon="2.28733">
        <ele>22.3</ele>
        <time>2022-04-11T08:54:52Z</time>
      </trkpt>
      <trkpt lat="49.90292" lon="2.28732">
        <ele>22.3</ele>
        <time>2022-04-11T08:54:53Z</time>
      </trkpt>
      <trkpt lat="49.90292" lon="2.28732">
        <ele>22.3</ele>
        <time>2022-04-11T08:54:54Z</time>
      </trkpt>
      <trkpt lat="49.90292" lon="2.28732">
        <ele>22.3</ele>
        <time>2022-04-11T08:54:55Z</time>
      </trkpt>
      <trkpt lat="49.90292" lon="2.28732">
        <ele>22.3</ele>
        <time>2022-04-11T08:54:56Z</time>
      </trkpt>
      <trkpt lat="49.90292" lon="2.28731">
        <ele>22.3</ele>
        <time>2022-04-11T08:54:57Z</time>
      </trkpt>
      <trkpt lat="49.90293" lon="2.28731">
        <ele>22.3</ele>
        <time>2022-04-11T08:54:58Z</time>
      </trkpt>
      <trkpt lat="49.90294" lon="2.28731">
        <ele>22.3</ele>
        <time>2022-04-11T08:54:59Z</time>
      </trkpt>
      <trkpt lat="49.90295" lon="2.2873">
        <ele>22.3</ele>
        <time>2022-04-11T08:55:01Z</time>
      </trkpt>
      <trkpt lat="49.90296" lon="2.2873">
        <ele>22.3</ele>
        <time>2022-04-11T08:55:02Z</time>
      </trkpt>
      <trkpt lat="49.90297" lon="2.28729">
        <ele>22.4</ele>
        <time>2022-04-11T08:55:03Z</time>
      </trkpt>
      <trkpt lat="49.90298" lon="2.28728">
        <ele>22.4</ele>
        <time>2022-04-11T08:55:04Z</time>
      </trkpt>
      <trkpt lat="49.90299" lon="2.28727">
        <ele>22.4</ele>
        <time>2022-04-11T08:55:05Z</time>
      </trkpt>
      <trkpt lat="49.90301" lon="2.28726">
        <ele>22.5</ele>
        <time>2022-04-11T08:55:07Z</time>
      </trkpt>
      <trkpt lat="49.90301" lon="2.28725">
        <ele>22.5</ele>
        <time>2022-04-11T08:55:08Z</time>
      </trkpt>
      <trkpt lat="49.90302" lon="2.28724">
        <ele>22.6</ele>
        <time>2022-04-11T08:55:09Z</time>
      </trkpt>
      <trkpt lat="49.90304" lon="2.28723">
        <ele>22.6</ele>
        <time>2022-04-11T08:55:10Z</time>
      </trkpt>
      <trkpt lat="49.90305" lon="2.28722">
        <ele>22.7</ele>
        <time>2022-04-11T08:55:11Z</time>
      </trkpt>
      <trkpt lat="49.90307" lon="2.28722">
        <ele>22.7</ele>
        <time>2022-04-11T08:55:12Z</time>
      </trkpt>
      <trkpt lat="49.90309" lon="2.28721">
        <ele>22.8</ele>
        <time>2022-04-11T08:55:14Z</time>
      </trkpt>
      <trkpt lat="49.9031" lon="2.2872">
        <ele>22.8</ele>
        <time>2022-04-11T08:55:15Z</time>
      </trkpt>
      <trkpt lat="49.90311" lon="2.2872">
        <ele>22.9</ele>
        <time>2022-04-11T08:55:16Z</time>
      </trkpt>
      <trkpt lat="49.90314" lon="2.2872">
        <ele>23</ele>
        <time>2022-04-11T08:55:17Z</time>
      </trkpt>
      <trkpt lat="49.90314" lon="2.2872">
        <ele>23</ele>
        <time>2022-04-11T08:55:18Z</time>
      </trkpt>
      <trkpt lat="49.90315" lon="2.2872">
        <ele>23</ele>
        <time>2022-04-11T08:55:19Z</time>
      </trkpt>
      <trkpt lat="49.90317" lon="2.2872">
        <ele>23.1</ele>
        <time>2022-04-11T08:55:20Z</time>
      </trkpt>
      <trkpt lat="49.90318" lon="2.28719">
        <ele>23.1</ele>
        <time>2022-04-11T08:55:21Z</time>
      </trkpt>
      <trkpt lat="49.90319" lon="2.28718">
        <ele>23.2</ele>
        <time>2022-04-11T08:55:23Z</time>
      </trkpt>
      <trkpt lat="49.9032" lon="2.28717">
        <ele>23.2</ele>
        <time>2022-04-11T08:55:24Z</time>
      </trkpt>
      <trkpt lat="49.90321" lon="2.28718">
        <ele>23.2</ele>
        <time>2022-04-11T08:55:25Z</time>
      </trkpt>
      <trkpt lat="49.90322" lon="2.28717">
        <ele>23.3</ele>
        <time>2022-04-11T08:55:26Z</time>
      </trkpt>
      <trkpt lat="49.90325" lon="2.28716">
        <ele>23.4</ele>
        <time>2022-04-11T08:55:27Z</time>
      </trkpt>
      <trkpt lat="49.90326" lon="2.28716">
        <ele>23.5</ele>
        <time>2022-04-11T08:55:28Z</time>
      </trkpt>
      <trkpt lat="49.90328" lon="2.28716">
        <ele>23.5</ele>
        <time>2022-04-11T08:55:30Z</time>
      </trkpt>
      <trkpt lat="49.90329" lon="2.28716">
        <ele>23.6</ele>
        <time>2022-04-11T08:55:31Z</time>
      </trkpt>
      <trkpt lat="49.90331" lon="2.28715">
        <ele>23.6</ele>
        <time>2022-04-11T08:55:32Z</time>
      </trkpt>
      <trkpt lat="49.90332" lon="2.28715">
        <ele>23.7</ele>
        <time>2022-04-11T08:55:33Z</time>
      </trkpt>
      <trkpt lat="49.90334" lon="2.28715">
        <ele>23.8</ele>
        <time>2022-04-11T08:55:34Z</time>
      </trkpt>
      <trkpt lat="49.90335" lon="2.28714">
        <ele>23.8</ele>
        <time>2022-04-11T08:55:36Z</time>
      </trkpt>
      <trkpt lat="49.90336" lon="2.28714">
        <ele>23.9</ele>
        <time>2022-04-11T08:55:37Z</time>
      </trkpt>
      <trkpt lat="49.90337" lon="2.28714">
        <ele>23.9</ele>
        <time>2022-04-11T08:55:38Z</time>
      </trkpt>
      <trkpt lat="49.90338" lon="2.28714">
        <ele>24</ele>
        <time>2022-04-11T08:55:39Z</time>
      </trkpt>
      <trkpt lat="49.9034" lon="2.28713">
        <ele>24</ele>
        <time>2022-04-11T08:55:40Z</time>
      </trkpt>
      <trkpt lat="49.90341" lon="2.28712">
        <ele>24.1</ele>
        <time>2022-04-11T08:55:41Z</time>
      </trkpt>
      <trkpt lat="49.90342" lon="2.2871">
        <ele>24.1</ele>
        <time>2022-04-11T08:55:43Z</time>
      </trkpt>
      <trkpt lat="49.90342" lon="2.28708">
        <ele>24.2</ele>
        <time>2022-04-11T08:55:44Z</time>
      </trkpt>
      <trkpt lat="49.90342" lon="2.28707">
        <ele>24.2</ele>
        <time>2022-04-11T08:55:45Z</time>
      </trkpt>
      <trkpt lat="49.90342" lon="2.28705">
        <ele>24.5</ele>
        <time>2022-04-11T08:55:46Z</time>
      </trkpt>
      <trkpt lat="49.90343" lon="2.28704">
        <ele>24.5</ele>
        <time>2022-04-11T08:55:48Z</time>
      </trkpt>
      <trkpt lat="49.90344" lon="2.28703">
        <ele>24.5</ele>
        <time>2022-04-11T08:55:49Z</time>
      </trkpt>
      <trkpt lat="49.90344" lon="2.28702">
        <ele>24.5</ele>
        <time>2022-04-11T08:55:50Z</time>
      </trkpt>
      <trkpt lat="49.90344" lon="2.28702">
        <ele>24.5</ele>
        <time>2022-04-11T08:55:51Z</time>
      </trkpt>
      <trkpt lat="49.90344" lon="2.28701">
        <ele>24.5</ele>
        <time>2022-04-11T08:55:52Z</time>
      </trkpt>
      <trkpt lat="49.90344" lon="2.287">
        <ele>24.5</ele>
        <time>2022-04-11T08:55:53Z</time>
      </trkpt>
      <trkpt lat="49.90345" lon="2.287">
        <ele>24.5</ele>
        <time>2022-04-11T08:55:54Z</time>
      </trkpt>
      <trkpt lat="49.90345" lon="2.28699">
        <ele>24.5</ele>
        <time>2022-04-11T08:55:56Z</time>
      </trkpt>
      <trkpt lat="49.90345" lon="2.28698">
        <ele>24.5</ele>
        <time>2022-04-11T08:55:57Z</time>
      </trkpt>
      <trkpt lat="49.90345" lon="2.28698">
        <ele>24.5</ele>
        <time>2022-04-11T08:55:58Z</time>
      </trkpt>
      <trkpt lat="49.90345" lon="2.28697">
        <ele>24.5</ele>
        <time>2022-04-11T08:55:59Z</time>
      </trkpt>
      <trkpt lat="49.90344" lon="2.28695">
        <ele>24.5</ele>
        <time>2022-04-11T08:56:00Z</time>
      </trkpt>
      <trkpt lat="49.90343" lon="2.28693">
        <ele>24.5</ele>
        <time>2022-04-11T08:56:01Z</time>
      </trkpt>
      <trkpt lat="49.90342" lon="2.28689">
        <ele>24.5</ele>
        <time>2022-04-11T08:56:02Z</time>
      </trkpt>
      <trkpt lat="49.90341" lon="2.28687">
        <ele>24.5</ele>
        <time>2022-04-11T08:56:04Z</time>
      </trkpt>
      <trkpt lat="49.9034" lon="2.28686">
        <ele>24.5</ele>
        <time>2022-04-11T08:56:05Z</time>
      </trkpt>
      <trkpt lat="49.9034" lon="2.28684">
        <ele>24.5</ele>
        <time>2022-04-11T08:56:06Z</time>
      </trkpt>
      <trkpt lat="49.90339" lon="2.28682">
        <ele>24.5</ele>
        <time>2022-04-11T08:56:07Z</time>
      </trkpt>
      <trkpt lat="49.90338" lon="2.2868">
        <ele>24.5</ele>
        <time>2022-04-11T08:56:08Z</time>
      </trkpt>
      <trkpt lat="49.90337" lon="2.28676">
        <ele>24.4</ele>
        <time>2022-04-11T08:56:09Z</time>
      </trkpt>
      <trkpt lat="49.90337" lon="2.28675">
        <ele>24.4</ele>
        <time>2022-04-11T08:56:10Z</time>
      </trkpt>
      <trkpt lat="49.90336" lon="2.28672">
        <ele>24.4</ele>
        <time>2022-04-11T08:56:11Z</time>
      </trkpt>
      <trkpt lat="49.90336" lon="2.2867">
        <ele>24.4</ele>
        <time>2022-04-11T08:56:12Z</time>
      </trkpt>
      <trkpt lat="49.90335" lon="2.28668">
        <ele>24.4</ele>
        <time>2022-04-11T08:56:13Z</time>
      </trkpt>
      <trkpt lat="49.90335" lon="2.28666">
        <ele>24.4</ele>
        <time>2022-04-11T08:56:14Z</time>
      </trkpt>
      <trkpt lat="49.90334" lon="2.28664">
        <ele>24.4</ele>
        <time>2022-04-11T08:56:16Z</time>
      </trkpt>
      <trkpt lat="49.90334" lon="2.28661">
        <ele>24.3</ele>
        <time>2022-04-11T08:56:17Z</time>
      </trkpt>
      <trkpt lat="49.90334" lon="2.28659">
        <ele>24.3</ele>
        <time>2022-04-11T08:56:18Z</time>
      </trkpt>
      <trkpt lat="49.90334" lon="2.28656">
        <ele>24.3</ele>
        <time>2022-04-11T08:56:19Z</time>
      </trkpt>
      <trkpt lat="49.90333" lon="2.28654">
        <ele>24.3</ele>
        <time>2022-04-11T08:56:20Z</time>
      </trkpt>
      <trkpt lat="49.90333" lon="2.28652">
        <ele>24.3</ele>
        <time>2022-04-11T08:56:21Z</time>
      </trkpt>
      <trkpt lat="49.90333" lon="2.2865">
        <ele>24.3</ele>
        <time>2022-04-11T08:56:22Z</time>
      </trkpt>
      <trkpt lat="49.90334" lon="2.28648">
        <ele>24.3</ele>
        <time>2022-04-11T08:56:23Z</time>
      </trkpt>
      <trkpt lat="49.90334" lon="2.28647">
        <ele>23.9</ele>
        <time>2022-04-11T08:56:24Z</time>
      </trkpt>
      <trkpt lat="49.90334" lon="2.28643">
        <ele>23.9</ele>
        <time>2022-04-11T08:56:26Z</time>
      </trkpt>
      <trkpt lat="49.90335" lon="2.28642">
        <ele>23.8</ele>
        <time>2022-04-11T08:56:28Z</time>
      </trkpt>
      <trkpt lat="49.90336" lon="2.28641">
        <ele>23.7</ele>
        <time>2022-04-11T08:56:29Z</time>
      </trkpt>
      <trkpt lat="49.90338" lon="2.2864">
        <ele>23.7</ele>
        <time>2022-04-11T08:56:30Z</time>
      </trkpt>
      <trkpt lat="49.90339" lon="2.28639">
        <ele>23.6</ele>
        <time>2022-04-11T08:56:31Z</time>
      </trkpt>
      <trkpt lat="49.90341" lon="2.2864">
        <ele>23.6</ele>
        <time>2022-04-11T08:56:32Z</time>
      </trkpt>
      <trkpt lat="49.90342" lon="2.2864">
        <ele>23.5</ele>
        <time>2022-04-11T08:56:33Z</time>
      </trkpt>
      <trkpt lat="49.90343" lon="2.28639">
        <ele>23.5</ele>
        <time>2022-04-11T08:56:34Z</time>
      </trkpt>
      <trkpt lat="49.90344" lon="2.28638">
        <ele>23.4</ele>
        <time>2022-04-11T08:56:35Z</time>
      </trkpt>
      <trkpt lat="49.90345" lon="2.28637">
        <ele>23.4</ele>
        <time>2022-04-11T08:56:36Z</time>
      </trkpt>
      <trkpt lat="49.90345" lon="2.28635">
        <ele>23.4</ele>
        <time>2022-04-11T08:56:37Z</time>
      </trkpt>
      <trkpt lat="49.90346" lon="2.28633">
        <ele>23.3</ele>
        <time>2022-04-11T08:56:39Z</time>
      </trkpt>
      <trkpt lat="49.90346" lon="2.28632">
        <ele>23.3</ele>
        <time>2022-04-11T08:56:41Z</time>
      </trkpt>
      <trkpt lat="49.90347" lon="2.28631">
        <ele>23.2</ele>
        <time>2022-04-11T08:56:42Z</time>
      </trkpt>
      <trkpt lat="49.90348" lon="2.28631">
        <ele>23.2</ele>
        <time>2022-04-11T08:56:43Z</time>
      </trkpt>
      <trkpt lat="49.90349" lon="2.2863">
        <ele>23.2</ele>
        <time>2022-04-11T08:56:44Z</time>
      </trkpt>
      <trkpt lat="49.9035" lon="2.2863">
        <ele>23.1</ele>
        <time>2022-04-11T08:56:45Z</time>
      </trkpt>
      <trkpt lat="49.9035" lon="2.2863">
        <ele>23.1</ele>
        <time>2022-04-11T08:56:46Z</time>
      </trkpt>
      <trkpt lat="49.90351" lon="2.2863">
        <ele>23.1</ele>
        <time>2022-04-11T08:56:47Z</time>
      </trkpt>
      <trkpt lat="49.90352" lon="2.28629">
        <ele>23</ele>
        <time>2022-04-11T08:56:49Z</time>
      </trkpt>
      <trkpt lat="49.90353" lon="2.28628">
        <ele>23</ele>
        <time>2022-04-11T08:56:50Z</time>
      </trkpt>
      <trkpt lat="49.90353" lon="2.28627">
        <ele>23</ele>
        <time>2022-04-11T08:56:51Z</time>
      </trkpt>
      <trkpt lat="49.90353" lon="2.28627">
        <ele>23</ele>
        <time>2022-04-11T08:56:52Z</time>
      </trkpt>
      <trkpt lat="49.90354" lon="2.28626">
        <ele>22.9</ele>
        <time>2022-04-11T08:56:53Z</time>
      </trkpt>
      <trkpt lat="49.90355" lon="2.28625">
        <ele>22.9</ele>
        <time>2022-04-11T08:56:54Z</time>
      </trkpt>
      <trkpt lat="49.90356" lon="2.28623">
        <ele>22.8</ele>
        <time>2022-04-11T08:56:55Z</time>
      </trkpt>
      <trkpt lat="49.90359" lon="2.2862">
        <ele>22.7</ele>
        <time>2022-04-11T08:56:57Z</time>
      </trkpt>
      <trkpt lat="49.9036" lon="2.2862">
        <ele>22.7</ele>
        <time>2022-04-11T08:56:58Z</time>
      </trkpt>
      <trkpt lat="49.90361" lon="2.28618">
        <ele>22.6</ele>
        <time>2022-04-11T08:56:59Z</time>
      </trkpt>
      <trkpt lat="49.90362" lon="2.28617">
        <ele>22.6</ele>
        <time>2022-04-11T08:57:00Z</time>
      </trkpt>
      <trkpt lat="49.90363" lon="2.28615">
        <ele>22.5</ele>
        <time>2022-04-11T08:57:01Z</time>
      </trkpt>
      <trkpt lat="49.90364" lon="2.28614">
        <ele>22.5</ele>
        <time>2022-04-11T08:57:02Z</time>
      </trkpt>
      <trkpt lat="49.90366" lon="2.28613">
        <ele>22.4</ele>
        <time>2022-04-11T08:57:03Z</time>
      </trkpt>
      <trkpt lat="49.90367" lon="2.28612">
        <ele>22.4</ele>
        <time>2022-04-11T08:57:04Z</time>
      </trkpt>
      <trkpt lat="49.90369" lon="2.2861">
        <ele>22.3</ele>
        <time>2022-04-11T08:57:05Z</time>
      </trkpt>
      <trkpt lat="49.9037" lon="2.28609">
        <ele>22.3</ele>
        <time>2022-04-11T08:57:06Z</time>
      </trkpt>
      <trkpt lat="49.90371" lon="2.28607">
        <ele>22.2</ele>
        <time>2022-04-11T08:57:07Z</time>
      </trkpt>
      <trkpt lat="49.90372" lon="2.28606">
        <ele>22.2</ele>
        <time>2022-04-11T08:57:08Z</time>
      </trkpt>
      <trkpt lat="49.90374" lon="2.28605">
        <ele>22.1</ele>
        <time>2022-04-11T08:57:09Z</time>
      </trkpt>
      <trkpt lat="49.90375" lon="2.28604">
        <ele>22.1</ele>
        <time>2022-04-11T08:57:11Z</time>
      </trkpt>
      <trkpt lat="49.90376" lon="2.28604">
        <ele>22.1</ele>
        <time>2022-04-11T08:57:12Z</time>
      </trkpt>
      <trkpt lat="49.90377" lon="2.28603">
        <ele>22.1</ele>
        <time>2022-04-11T08:57:13Z</time>
      </trkpt>
      <trkpt lat="49.90378" lon="2.28602">
        <ele>22</ele>
        <time>2022-04-11T08:57:14Z</time>
      </trkpt>
      <trkpt lat="49.9038" lon="2.28601">
        <ele>22</ele>
        <time>2022-04-11T08:57:15Z</time>
      </trkpt>
      <trkpt lat="49.90381" lon="2.286">
        <ele>21.9</ele>
        <time>2022-04-11T08:57:16Z</time>
      </trkpt>
      <trkpt lat="49.90383" lon="2.28599">
        <ele>21.9</ele>
        <time>2022-04-11T08:57:17Z</time>
      </trkpt>
      <trkpt lat="49.90384" lon="2.28598">
        <ele>21.8</ele>
        <time>2022-04-11T08:57:18Z</time>
      </trkpt>
      <trkpt lat="49.90385" lon="2.28598">
        <ele>21.8</ele>
        <time>2022-04-11T08:57:19Z</time>
      </trkpt>
      <trkpt lat="49.90386" lon="2.28597">
        <ele>21.8</ele>
        <time>2022-04-11T08:57:20Z</time>
      </trkpt>
      <trkpt lat="49.90387" lon="2.28597">
        <ele>21.7</ele>
        <time>2022-04-11T08:57:21Z</time>
      </trkpt>
      <trkpt lat="49.90389" lon="2.28596">
        <ele>21.7</ele>
        <time>2022-04-11T08:57:22Z</time>
      </trkpt>
      <trkpt lat="49.9039" lon="2.28596">
        <ele>21.6</ele>
        <time>2022-04-11T08:57:23Z</time>
      </trkpt>
      <trkpt lat="49.90391" lon="2.28595">
        <ele>21.6</ele>
        <time>2022-04-11T08:57:24Z</time>
      </trkpt>
      <trkpt lat="49.90393" lon="2.28594">
        <ele>21.6</ele>
        <time>2022-04-11T08:57:25Z</time>
      </trkpt>
      <trkpt lat="49.90394" lon="2.28594">
        <ele>21.6</ele>
        <time>2022-04-11T08:57:26Z</time>
      </trkpt>
      <trkpt lat="49.90395" lon="2.28594">
        <ele>21.5</ele>
        <time>2022-04-11T08:57:27Z</time>
      </trkpt>
      <trkpt lat="49.90396" lon="2.28593">
        <ele>21.5</ele>
        <time>2022-04-11T08:57:29Z</time>
      </trkpt>
      <trkpt lat="49.90398" lon="2.28592">
        <ele>21.5</ele>
        <time>2022-04-11T08:57:30Z</time>
      </trkpt>
      <trkpt lat="49.90399" lon="2.28592">
        <ele>21.4</ele>
        <time>2022-04-11T08:57:31Z</time>
      </trkpt>
      <trkpt lat="49.90401" lon="2.28591">
        <ele>21.4</ele>
        <time>2022-04-11T08:57:32Z</time>
      </trkpt>
      <trkpt lat="49.90402" lon="2.2859">
        <ele>21.3</ele>
        <time>2022-04-11T08:57:33Z</time>
      </trkpt>
      <trkpt lat="49.90403" lon="2.28588">
        <ele>21.3</ele>
        <time>2022-04-11T08:57:34Z</time>
      </trkpt>
      <trkpt lat="49.90406" lon="2.28587">
        <ele>21.3</ele>
        <time>2022-04-11T08:57:35Z</time>
      </trkpt>
      <trkpt lat="49.90407" lon="2.28585">
        <ele>21.2</ele>
        <time>2022-04-11T08:57:37Z</time>
      </trkpt>
      <trkpt lat="49.90408" lon="2.28584">
        <ele>21.2</ele>
        <time>2022-04-11T08:57:38Z</time>
      </trkpt>
      <trkpt lat="49.9041" lon="2.28582">
        <ele>21.2</ele>
        <time>2022-04-11T08:57:39Z</time>
      </trkpt>
      <trkpt lat="49.90411" lon="2.28581">
        <ele>21.1</ele>
        <time>2022-04-11T08:57:40Z</time>
      </trkpt>
      <trkpt lat="49.90412" lon="2.28579">
        <ele>21.1</ele>
        <time>2022-04-11T08:57:41Z</time>
      </trkpt>
      <trkpt lat="49.90414" lon="2.28578">
        <ele>21.1</ele>
        <time>2022-04-11T08:57:42Z</time>
      </trkpt>
      <trkpt lat="49.90415" lon="2.28577">
        <ele>21.1</ele>
        <time>2022-04-11T08:57:43Z</time>
      </trkpt>
      <trkpt lat="49.90416" lon="2.28573">
        <ele>21</ele>
        <time>2022-04-11T08:57:45Z</time>
      </trkpt>
      <trkpt lat="49.90417" lon="2.28572">
        <ele>21</ele>
        <time>2022-04-11T08:57:46Z</time>
      </trkpt>
      <trkpt lat="49.90418" lon="2.2857">
        <ele>21</ele>
        <time>2022-04-11T08:57:48Z</time>
      </trkpt>
      <trkpt lat="49.9042" lon="2.28568">
        <ele>21</ele>
        <time>2022-04-11T08:57:49Z</time>
      </trkpt>
      <trkpt lat="49.90421" lon="2.28567">
        <ele>21</ele>
        <time>2022-04-11T08:57:50Z</time>
      </trkpt>
      <trkpt lat="49.90422" lon="2.28565">
        <ele>21</ele>
        <time>2022-04-11T08:57:51Z</time>
      </trkpt>
      <trkpt lat="49.90423" lon="2.28564">
        <ele>21</ele>
        <time>2022-04-11T08:57:52Z</time>
      </trkpt>
      <trkpt lat="49.90424" lon="2.28563">
        <ele>20.9</ele>
        <time>2022-04-11T08:57:53Z</time>
      </trkpt>
      <trkpt lat="49.90426" lon="2.28561">
        <ele>20.9</ele>
        <time>2022-04-11T08:57:55Z</time>
      </trkpt>
      <trkpt lat="49.90427" lon="2.2856">
        <ele>20.9</ele>
        <time>2022-04-11T08:57:56Z</time>
      </trkpt>
      <trkpt lat="49.90428" lon="2.28559">
        <ele>20.9</ele>
        <time>2022-04-11T08:57:57Z</time>
      </trkpt>
      <trkpt lat="49.9043" lon="2.28557">
        <ele>20.9</ele>
        <time>2022-04-11T08:57:58Z</time>
      </trkpt>
      <trkpt lat="49.90431" lon="2.28556">
        <ele>20.9</ele>
        <time>2022-04-11T08:57:59Z</time>
      </trkpt>
      <trkpt lat="49.90432" lon="2.28555">
        <ele>20.9</ele>
        <time>2022-04-11T08:58:00Z</time>
      </trkpt>
      <trkpt lat="49.90434" lon="2.28553">
        <ele>20.9</ele>
        <time>2022-04-11T08:58:01Z</time>
      </trkpt>
      <trkpt lat="49.90435" lon="2.28552">
        <ele>20.9</ele>
        <time>2022-04-11T08:58:02Z</time>
      </trkpt>
      <trkpt lat="49.90437" lon="2.2855">
        <ele>20.9</ele>
        <time>2022-04-11T08:58:03Z</time>
      </trkpt>
      <trkpt lat="49.90438" lon="2.28549">
        <ele>20.9</ele>
        <time>2022-04-11T08:58:04Z</time>
      </trkpt>
      <trkpt lat="49.9044" lon="2.28547">
        <ele>20.9</ele>
        <time>2022-04-11T08:58:05Z</time>
      </trkpt>
      <trkpt lat="49.90442" lon="2.28545">
        <ele>20.9</ele>
        <time>2022-04-11T08:58:07Z</time>
      </trkpt>
      <trkpt lat="49.90444" lon="2.28541">
        <ele>20.9</ele>
        <time>2022-04-11T08:58:08Z</time>
      </trkpt>
      <trkpt lat="49.90445" lon="2.28541">
        <ele>20.9</ele>
        <time>2022-04-11T08:58:09Z</time>
      </trkpt>
      <trkpt lat="49.90446" lon="2.28539">
        <ele>20.8</ele>
        <time>2022-04-11T08:58:10Z</time>
      </trkpt>
      <trkpt lat="49.90447" lon="2.28537">
        <ele>20.8</ele>
        <time>2022-04-11T08:58:11Z</time>
      </trkpt>
      <trkpt lat="49.90448" lon="2.28536">
        <ele>20.8</ele>
        <time>2022-04-11T08:58:12Z</time>
      </trkpt>
      <trkpt lat="49.90448" lon="2.28535">
        <ele>20.8</ele>
        <time>2022-04-11T08:58:14Z</time>
      </trkpt>
      <trkpt lat="49.90449" lon="2.28533">
        <ele>20.8</ele>
        <time>2022-04-11T08:58:15Z</time>
      </trkpt>
      <trkpt lat="49.90451" lon="2.28531">
        <ele>20.8</ele>
        <time>2022-04-11T08:58:16Z</time>
      </trkpt>
      <trkpt lat="49.90451" lon="2.2853">
        <ele>20.8</ele>
        <time>2022-04-11T08:58:17Z</time>
      </trkpt>
      <trkpt lat="49.90452" lon="2.28529">
        <ele>20.8</ele>
        <time>2022-04-11T08:58:18Z</time>
      </trkpt>
      <trkpt lat="49.90453" lon="2.28528">
        <ele>20.8</ele>
        <time>2022-04-11T08:58:19Z</time>
      </trkpt>
      <trkpt lat="49.90454" lon="2.28526">
        <ele>20.8</ele>
        <time>2022-04-11T08:58:20Z</time>
      </trkpt>
      <trkpt lat="49.90455" lon="2.28525">
        <ele>20.8</ele>
        <time>2022-04-11T08:58:22Z</time>
      </trkpt>
      <trkpt lat="49.90457" lon="2.28524">
        <ele>20.8</ele>
        <time>2022-04-11T08:58:23Z</time>
      </trkpt>
      <trkpt lat="49.90458" lon="2.28523">
        <ele>20.8</ele>
        <time>2022-04-11T08:58:24Z</time>
      </trkpt>
      <trkpt lat="49.90459" lon="2.28522">
        <ele>20.8</ele>
        <time>2022-04-11T08:58:25Z</time>
      </trkpt>
      <trkpt lat="49.90461" lon="2.2852">
        <ele>20.7</ele>
        <time>2022-04-11T08:58:26Z</time>
      </trkpt>
      <trkpt lat="49.90462" lon="2.28519">
        <ele>20.7</ele>
        <time>2022-04-11T08:58:27Z</time>
      </trkpt>
      <trkpt lat="49.90463" lon="2.28517">
        <ele>20.7</ele>
        <time>2022-04-11T08:58:29Z</time>
      </trkpt>
      <trkpt lat="49.90464" lon="2.28516">
        <ele>20.7</ele>
        <time>2022-04-11T08:58:30Z</time>
      </trkpt>
      <trkpt lat="49.90465" lon="2.28515">
        <ele>20.7</ele>
        <time>2022-04-11T08:58:31Z</time>
      </trkpt>
      <trkpt lat="49.90466" lon="2.28514">
        <ele>20.7</ele>
        <time>2022-04-11T08:58:32Z</time>
      </trkpt>
      <trkpt lat="49.90466" lon="2.28513">
        <ele>20.7</ele>
        <time>2022-04-11T08:58:33Z</time>
      </trkpt>
      <trkpt lat="49.90468" lon="2.28511">
        <ele>20.7</ele>
        <time>2022-04-11T08:58:34Z</time>
      </trkpt>
      <trkpt lat="49.90469" lon="2.2851">
        <ele>20.7</ele>
        <time>2022-04-11T08:58:35Z</time>
      </trkpt>
      <trkpt lat="49.9047" lon="2.28509">
        <ele>20.7</ele>
        <time>2022-04-11T08:58:36Z</time>
      </trkpt>
      <trkpt lat="49.90471" lon="2.28509">
        <ele>20.7</ele>
        <time>2022-04-11T08:58:37Z</time>
      </trkpt>
      <trkpt lat="49.90472" lon="2.28508">
        <ele>20.7</ele>
        <time>2022-04-11T08:58:38Z</time>
      </trkpt>
      <trkpt lat="49.90474" lon="2.28505">
        <ele>20.7</ele>
        <time>2022-04-11T08:58:39Z</time>
      </trkpt>
      <trkpt lat="49.90475" lon="2.28504">
        <ele>20.7</ele>
        <time>2022-04-11T08:58:41Z</time>
      </trkpt>
      <trkpt lat="49.90476" lon="2.28503">
        <ele>20.7</ele>
        <time>2022-04-11T08:58:42Z</time>
      </trkpt>
      <trkpt lat="49.90477" lon="2.28502">
        <ele>20.7</ele>
        <time>2022-04-11T08:58:43Z</time>
      </trkpt>
      <trkpt lat="49.90477" lon="2.285">
        <ele>20.7</ele>
        <time>2022-04-11T08:58:44Z</time>
      </trkpt>
      <trkpt lat="49.90478" lon="2.28498">
        <ele>20.7</ele>
        <time>2022-04-11T08:58:45Z</time>
      </trkpt>
      <trkpt lat="49.90479" lon="2.28496">
        <ele>20.7</ele>
        <time>2022-04-11T08:58:46Z</time>
      </trkpt>
      <trkpt lat="49.90479" lon="2.28495">
        <ele>20.7</ele>
        <time>2022-04-11T08:58:47Z</time>
      </trkpt>
      <trkpt lat="49.9048" lon="2.28493">
        <ele>20.7</ele>
        <time>2022-04-11T08:58:49Z</time>
      </trkpt>
      <trkpt lat="49.90481" lon="2.28491">
        <ele>20.7</ele>
        <time>2022-04-11T08:58:50Z</time>
      </trkpt>
      <trkpt lat="49.90482" lon="2.28489">
        <ele>20.7</ele>
        <time>2022-04-11T08:58:51Z</time>
      </trkpt>
      <trkpt lat="49.90483" lon="2.28488">
        <ele>20.7</ele>
        <time>2022-04-11T08:58:52Z</time>
      </trkpt>
      <trkpt lat="49.90483" lon="2.28487">
        <ele>20.7</ele>
        <time>2022-04-11T08:58:53Z</time>
      </trkpt>
      <trkpt lat="49.90484" lon="2.28486">
        <ele>20.7</ele>
        <time>2022-04-11T08:58:54Z</time>
      </trkpt>
      <trkpt lat="49.90485" lon="2.28484">
        <ele>20.7</ele>
        <time>2022-04-11T08:58:55Z</time>
      </trkpt>
      <trkpt lat="49.90486" lon="2.28483">
        <ele>20.7</ele>
        <time>2022-04-11T08:58:56Z</time>
      </trkpt>
      <trkpt lat="49.90487" lon="2.28481">
        <ele>20.7</ele>
        <time>2022-04-11T08:58:58Z</time>
      </trkpt>
      <trkpt lat="49.90488" lon="2.2848">
        <ele>20.7</ele>
        <time>2022-04-11T08:58:59Z</time>
      </trkpt>
      <trkpt lat="49.90488" lon="2.28479">
        <ele>20.7</ele>
        <time>2022-04-11T08:59:00Z</time>
      </trkpt>
      <trkpt lat="49.90489" lon="2.28478">
        <ele>20.7</ele>
        <time>2022-04-11T08:59:01Z</time>
      </trkpt>
      <trkpt lat="49.90489" lon="2.28476">
        <ele>20.7</ele>
        <time>2022-04-11T08:59:02Z</time>
      </trkpt>
      <trkpt lat="49.9049" lon="2.28475">
        <ele>20.7</ele>
        <time>2022-04-11T08:59:03Z</time>
      </trkpt>
      <trkpt lat="49.90491" lon="2.28474">
        <ele>20.7</ele>
        <time>2022-04-11T08:59:04Z</time>
      </trkpt>
      <trkpt lat="49.90492" lon="2.28472">
        <ele>20.6</ele>
        <time>2022-04-11T08:59:06Z</time>
      </trkpt>
      <trkpt lat="49.90493" lon="2.2847">
        <ele>20.6</ele>
        <time>2022-04-11T08:59:07Z</time>
      </trkpt>
      <trkpt lat="49.90493" lon="2.28468">
        <ele>20.6</ele>
        <time>2022-04-11T08:59:08Z</time>
      </trkpt>
      <trkpt lat="49.90494" lon="2.28466">
        <ele>20.6</ele>
        <time>2022-04-11T08:59:09Z</time>
      </trkpt>
      <trkpt lat="49.90495" lon="2.28464">
        <ele>20.6</ele>
        <time>2022-04-11T08:59:10Z</time>
      </trkpt>
      <trkpt lat="49.90496" lon="2.28462">
        <ele>20.6</ele>
        <time>2022-04-11T08:59:12Z</time>
      </trkpt>
      <trkpt lat="49.90497" lon="2.2846">
        <ele>20.6</ele>
        <time>2022-04-11T08:59:13Z</time>
      </trkpt>
      <trkpt lat="49.90498" lon="2.28458">
        <ele>20.6</ele>
        <time>2022-04-11T08:59:14Z</time>
      </trkpt>
      <trkpt lat="49.90499" lon="2.28457">
        <ele>20.6</ele>
        <time>2022-04-11T08:59:15Z</time>
      </trkpt>
      <trkpt lat="49.90499" lon="2.28456">
        <ele>20.6</ele>
        <time>2022-04-11T08:59:16Z</time>
      </trkpt>
      <trkpt lat="49.905" lon="2.28454">
        <ele>20.6</ele>
        <time>2022-04-11T08:59:17Z</time>
      </trkpt>
      <trkpt lat="49.90501" lon="2.28452">
        <ele>20.6</ele>
        <time>2022-04-11T08:59:18Z</time>
      </trkpt>
      <trkpt lat="49.90503" lon="2.28449">
        <ele>20.6</ele>
        <time>2022-04-11T08:59:19Z</time>
      </trkpt>
      <trkpt lat="49.90503" lon="2.28448">
        <ele>20.6</ele>
        <time>2022-04-11T08:59:20Z</time>
      </trkpt>
      <trkpt lat="49.90504" lon="2.28447">
        <ele>20.6</ele>
        <time>2022-04-11T08:59:21Z</time>
      </trkpt>
      <trkpt lat="49.90504" lon="2.28446">
        <ele>20.6</ele>
        <time>2022-04-11T08:59:23Z</time>
      </trkpt>
      <trkpt lat="49.90505" lon="2.28445">
        <ele>20.6</ele>
        <time>2022-04-11T08:59:24Z</time>
      </trkpt>
      <trkpt lat="49.90506" lon="2.28444">
        <ele>20.6</ele>
        <time>2022-04-11T08:59:25Z</time>
      </trkpt>
      <trkpt lat="49.90507" lon="2.28443">
        <ele>20.5</ele>
        <time>2022-04-11T08:59:26Z</time>
      </trkpt>
      <trkpt lat="49.90508" lon="2.28442">
        <ele>20.5</ele>
        <time>2022-04-11T08:59:27Z</time>
      </trkpt>
      <trkpt lat="49.90509" lon="2.2844">
        <ele>20.5</ele>
        <time>2022-04-11T08:59:28Z</time>
      </trkpt>
      <trkpt lat="49.90509" lon="2.28439">
        <ele>20.5</ele>
        <time>2022-04-11T08:59:29Z</time>
      </trkpt>
      <trkpt lat="49.9051" lon="2.28437">
        <ele>20.5</ele>
        <time>2022-04-11T08:59:30Z</time>
      </trkpt>
      <trkpt lat="49.90511" lon="2.28435">
        <ele>20.5</ele>
        <time>2022-04-11T08:59:32Z</time>
      </trkpt>
      <trkpt lat="49.90512" lon="2.28433">
        <ele>20.5</ele>
        <time>2022-04-11T08:59:33Z</time>
      </trkpt>
      <trkpt lat="49.90514" lon="2.28431">
        <ele>20.5</ele>
        <time>2022-04-11T08:59:34Z</time>
      </trkpt>
      <trkpt lat="49.90515" lon="2.2843">
        <ele>20.5</ele>
        <time>2022-04-11T08:59:36Z</time>
      </trkpt>
      <trkpt lat="49.90516" lon="2.28429">
        <ele>20.5</ele>
        <time>2022-04-11T08:59:37Z</time>
      </trkpt>
      <trkpt lat="49.90516" lon="2.28429">
        <ele>20.5</ele>
        <time>2022-04-11T08:59:38Z</time>
      </trkpt>
      <trkpt lat="49.90516" lon="2.28429">
        <ele>20.5</ele>
        <time>2022-04-11T08:59:39Z</time>
      </trkpt>
      <trkpt lat="49.90516" lon="2.28429">
        <ele>20.5</ele>
        <time>2022-04-11T08:59:40Z</time>
      </trkpt>
      <trkpt lat="49.90517" lon="2.28429">
        <ele>20.5</ele>
        <time>2022-04-11T08:59:41Z</time>
      </trkpt>
      <trkpt lat="49.90517" lon="2.28429">
        <ele>20.5</ele>
        <time>2022-04-11T08:59:42Z</time>
      </trkpt>
      <trkpt lat="49.90517" lon="2.28429">
        <ele>20.5</ele>
        <time>2022-04-11T08:59:43Z</time>
      </trkpt>
      <trkpt lat="49.90516" lon="2.28429">
        <ele>20.5</ele>
        <time>2022-04-11T08:59:44Z</time>
      </trkpt>
      <trkpt lat="49.90516" lon="2.28429">
        <ele>20.5</ele>
        <time>2022-04-11T08:59:45Z</time>
      </trkpt>
      <trkpt lat="49.90516" lon="2.28429">
        <ele>20.5</ele>
        <time>2022-04-11T08:59:46Z</time>
      </trkpt>
      <trkpt lat="49.90516" lon="2.28429">
        <ele>20.5</ele>
        <time>2022-04-11T08:59:47Z</time>
      </trkpt>
      <trkpt lat="49.90516" lon="2.28428">
        <ele>20.5</ele>
        <time>2022-04-11T08:59:48Z</time>
      </trkpt>
      <trkpt lat="49.90515" lon="2.28429">
        <ele>20.5</ele>
        <time>2022-04-11T08:59:49Z</time>
      </trkpt>
      <trkpt lat="49.90515" lon="2.28429">
        <ele>20.5</ele>
        <time>2022-04-11T08:59:50Z</time>
      </trkpt>
      <trkpt lat="49.90515" lon="2.28428">
        <ele>20.5</ele>
        <time>2022-04-11T08:59:51Z</time>
      </trkpt>
      <trkpt lat="49.90515" lon="2.28428">
        <ele>20.5</ele>
        <time>2022-04-11T08:59:52Z</time>
      </trkpt>
      <trkpt lat="49.90515" lon="2.28428">
        <ele>20.5</ele>
        <time>2022-04-11T08:59:53Z</time>
      </trkpt>
      <trkpt lat="49.90515" lon="2.28428">
        <ele>20.5</ele>
        <time>2022-04-11T08:59:54Z</time>
      </trkpt>
      <trkpt lat="49.90515" lon="2.28428">
        <ele>20.5</ele>
        <time>2022-04-11T08:59:55Z</time>
      </trkpt>
      <trkpt lat="49.90515" lon="2.28428">
        <ele>20.5</ele>
        <time>2022-04-11T08:59:56Z</time>
      </trkpt>
      <trkpt lat="49.90515" lon="2.28428">
        <ele>20.5</ele>
        <time>2022-04-11T08:59:57Z</time>
      </trkpt>
      <trkpt lat="49.90515" lon="2.28428">
        <ele>20.5</ele>
        <time>2022-04-11T08:59:58Z</time>
      </trkpt>
      <trkpt lat="49.90515" lon="2.28428">
        <ele>20.5</ele>
        <time>2022-04-11T08:59:59Z</time>
      </trkpt>
      <trkpt lat="49.90515" lon="2.28428">
        <ele>20.5</ele>
        <time>2022-04-11T09:00:00Z</time>
      </trkpt>
      <trkpt lat="49.90515" lon="2.28428">
        <ele>20.5</ele>
        <time>2022-04-11T09:00:01Z</time>
      </trkpt>
      <trkpt lat="49.90515" lon="2.28428">
        <ele>20.5</ele>
        <time>2022-04-11T09:00:02Z</time>
      </trkpt>
      <trkpt lat="49.90515" lon="2.28428">
        <ele>20.5</ele>
        <time>2022-04-11T09:00:03Z</time>
      </trkpt>
      <trkpt lat="49.90515" lon="2.28428">
        <ele>20.5</ele>
        <time>2022-04-11T09:00:04Z</time>
      </trkpt>
      <trkpt lat="49.90515" lon="2.28428">
        <ele>20.5</ele>
        <time>2022-04-11T09:00:05Z</time>
      </trkpt>
      <trkpt lat="49.90515" lon="2.28428">
        <ele>20.5</ele>
        <time>2022-04-11T09:00:06Z</time>
      </trkpt>
      <trkpt lat="49.90515" lon="2.28428">
        <ele>20.5</ele>
        <time>2022-04-11T09:00:07Z</time>
      </trkpt>
      <trkpt lat="49.90515" lon="2.28428">
        <ele>20.5</ele>
        <time>2022-04-11T09:00:08Z</time>
      </trkpt>
      <trkpt lat="49.90515" lon="2.28428">
        <ele>20.5</ele>
        <time>2022-04-11T09:00:09Z</time>
      </trkpt>
      <trkpt lat="49.90515" lon="2.28428">
        <ele>20.5</ele>
        <time>2022-04-11T09:00:10Z</time>
      </trkpt>
      <trkpt lat="49.90515" lon="2.28428">
        <ele>20.5</ele>
        <time>2022-04-11T09:00:11Z</time>
      </trkpt>
      <trkpt lat="49.90515" lon="2.28428">
        <ele>20.5</ele>
        <time>2022-04-11T09:00:12Z</time>
      </trkpt>
      <trkpt lat="49.90515" lon="2.28428">
        <ele>20.5</ele>
        <time>2022-04-11T09:00:13Z</time>
      </trkpt>
      <trkpt lat="49.90515" lon="2.28428">
        <ele>20.5</ele>
        <time>2022-04-11T09:00:14Z</time>
      </trkpt>
      <trkpt lat="49.90515" lon="2.28428">
        <ele>20.5</ele>
        <time>2022-04-11T09:00:15Z</time>
      </trkpt>
      <trkpt lat="49.90515" lon="2.28428">
        <ele>20.5</ele>
        <time>2022-04-11T09:00:16Z</time>
      </trkpt>
      <trkpt lat="49.90515" lon="2.28428">
        <ele>20.5</ele>
        <time>2022-04-11T09:00:17Z</time>
      </trkpt>
      <trkpt lat="49.90515" lon="2.28428">
        <ele>20.5</ele>
        <time>2022-04-11T09:00:18Z</time>
      </trkpt>
      <trkpt lat="49.90515" lon="2.28428">
        <ele>20.5</ele>
        <time>2022-04-11T09:00:19Z</time>
      </trkpt>
      <trkpt lat="49.90515" lon="2.28428">
        <ele>20.5</ele>
        <time>2022-04-11T09:00:20Z</time>
      </trkpt>
      <trkpt lat="49.90515" lon="2.28428">
        <ele>20.5</ele>
        <time>2022-04-11T09:00:21Z</time>
      </trkpt>
      <trkpt lat="49.90515" lon="2.28428">
        <ele>20.5</ele>
        <time>2022-04-11T09:00:22Z</time>
      </trkpt>
      <trkpt lat="49.90515" lon="2.28428">
        <ele>20.5</ele>
        <time>2022-04-11T09:00:23Z</time>
      </trkpt>
      <trkpt lat="49.90515" lon="2.28428">
        <ele>20.5</ele>
        <time>2022-04-11T09:00:24Z</time>
      </trkpt>
      <trkpt lat="49.90515" lon="2.28428">
        <ele>20.5</ele>
        <time>2022-04-11T09:00:25Z</time>
      </trkpt>
      <trkpt lat="49.90515" lon="2.28428">
        <ele>20.5</ele>
        <time>2022-04-11T09:00:26Z</time>
      </trkpt>
      <trkpt lat="49.90515" lon="2.28428">
        <ele>20.5</ele>
        <time>2022-04-11T09:00:27Z</time>
      </trkpt>
      <trkpt lat="49.90515" lon="2.28428">
        <ele>20.5</ele>
        <time>2022-04-11T09:00:28Z</time>
      </trkpt>
      <trkpt lat="49.90515" lon="2.28428">
        <ele>20.5</ele>
        <time>2022-04-11T09:00:29Z</time>
      </trkpt>
      <trkpt lat="49.90515" lon="2.28428">
        <ele>20.5</ele>
        <time>2022-04-11T09:00:30Z</time>
      </trkpt>
      <trkpt lat="49.90515" lon="2.28428">
        <ele>20.5</ele>
        <time>2022-04-11T09:00:31Z</time>
      </trkpt>
      <trkpt lat="49.90515" lon="2.28428">
        <ele>20.5</ele>
        <time>2022-04-11T09:00:32Z</time>
      </trkpt>
      <trkpt lat="49.90515" lon="2.28428">
        <ele>20.5</ele>
        <time>2022-04-11T09:00:33Z</time>
      </trkpt>
      <trkpt lat="49.90515" lon="2.28428">
        <ele>20.5</ele>
        <time>2022-04-11T09:00:34Z</time>
      </trkpt>
      <trkpt lat="49.90515" lon="2.28428">
        <ele>20.5</ele>
        <time>2022-04-11T09:00:35Z</time>
      </trkpt>
      <trkpt lat="49.90515" lon="2.28428">
        <ele>20.5</ele>
        <time>2022-04-11T09:00:36Z</time>
      </trkpt>
      <trkpt lat="49.90515" lon="2.28428">
        <ele>20.5</ele>
        <time>2022-04-11T09:00:37Z</time>
      </trkpt>
      <trkpt lat="49.90515" lon="2.28428">
        <ele>20.5</ele>
        <time>2022-04-11T09:00:38Z</time>
      </trkpt>
      <trkpt lat="49.90515" lon="2.28428">
        <ele>20.5</ele>
        <time>2022-04-11T09:00:39Z</time>
      </trkpt>
      <trkpt lat="49.90515" lon="2.28428">
        <ele>20.5</ele>
        <time>2022-04-11T09:00:40Z</time>
      </trkpt>
      <trkpt lat="49.90515" lon="2.28428">
        <ele>20.5</ele>
        <time>2022-04-11T09:00:41Z</time>
      </trkpt>
      <trkpt lat="49.90515" lon="2.28428">
        <ele>20.5</ele>
        <time>2022-04-11T09:00:42Z</time>
      </trkpt>
      <trkpt lat="49.90515" lon="2.28428">
        <ele>20.5</ele>
        <time>2022-04-11T09:00:43Z</time>
      </trkpt>
      <trkpt lat="49.90515" lon="2.28428">
        <ele>20.5</ele>
        <time>2022-04-11T09:00:44Z</time>
      </trkpt>
      <trkpt lat="49.90515" lon="2.28428">
        <ele>20.5</ele>
        <time>2022-04-11T09:00:45Z</time>
      </trkpt>
      <trkpt lat="49.90515" lon="2.28428">
        <ele>20.5</ele>
        <time>2022-04-11T09:00:46Z</time>
      </trkpt>
      <trkpt lat="49.90515" lon="2.28428">
        <ele>20.5</ele>
        <time>2022-04-11T09:00:47Z</time>
      </trkpt>
      <trkpt lat="49.90515" lon="2.28428">
        <ele>20.5</ele>
        <time>2022-04-11T09:00:48Z</time>
      </trkpt>
      <trkpt lat="49.90515" lon="2.28428">
        <ele>20.5</ele>
        <time>2022-04-11T09:00:49Z</time>
      </trkpt>
      <trkpt lat="49.90515" lon="2.28428">
        <ele>20.5</ele>
        <time>2022-04-11T09:00:50Z</time>
      </trkpt>
      <trkpt lat="49.90515" lon="2.28428">
        <ele>20.5</ele>
        <time>2022-04-11T09:00:51Z</time>
      </trkpt>
      <trkpt lat="49.90515" lon="2.28428">
        <ele>20.5</ele>
        <time>2022-04-11T09:00:52Z</time>
      </trkpt>
      <trkpt lat="49.90515" lon="2.28428">
        <ele>20.5</ele>
        <time>2022-04-11T09:00:53Z</time>
      </trkpt>
      <trkpt lat="49.90515" lon="2.28428">
        <ele>20.5</ele>
        <time>2022-04-11T09:00:54Z</time>
      </trkpt>
      <trkpt lat="49.90515" lon="2.28428">
        <ele>20.5</ele>
        <time>2022-04-11T09:00:55Z</time>
      </trkpt>
      <trkpt lat="49.90515" lon="2.28428">
        <ele>20.5</ele>
        <time>2022-04-11T09:00:56Z</time>
      </trkpt>
      <trkpt lat="49.90515" lon="2.28428">
        <ele>20.5</ele>
        <time>2022-04-11T09:00:57Z</time>
      </trkpt>
      <trkpt lat="49.90515" lon="2.28428">
        <ele>20.5</ele>
        <time>2022-04-11T09:00:58Z</time>
      </trkpt>
      <trkpt lat="49.90515" lon="2.28428">
        <ele>20.5</ele>
        <time>2022-04-11T09:00:59Z</time>
      </trkpt>
      <trkpt lat="49.90515" lon="2.28428">
        <ele>20.5</ele>
        <time>2022-04-11T09:01:00Z</time>
      </trkpt>
      <trkpt lat="49.90515" lon="2.28428">
        <ele>20.5</ele>
        <time>2022-04-11T09:01:01Z</time>
      </trkpt>
      <trkpt lat="49.90515" lon="2.28428">
        <ele>20.5</ele>
        <time>2022-04-11T09:01:02Z</time>
      </trkpt>
      <trkpt lat="49.90515" lon="2.28428">
        <ele>20.5</ele>
        <time>2022-04-11T09:01:03Z</time>
      </trkpt>
      <trkpt lat="49.90515" lon="2.28428">
        <ele>20.5</ele>
        <time>2022-04-11T09:01:04Z</time>
      </trkpt>
      <trkpt lat="49.90515" lon="2.28428">
        <ele>20.5</ele>
        <time>2022-04-11T09:01:05Z</time>
      </trkpt>
      <trkpt lat="49.90515" lon="2.28428">
        <ele>20.5</ele>
        <time>2022-04-11T09:01:06Z</time>
      </trkpt>
      <trkpt lat="49.90515" lon="2.28428">
        <ele>20.5</ele>
        <time>2022-04-11T09:01:07Z</time>
      </trkpt>
      <trkpt lat="49.90515" lon="2.28428">
        <ele>20.5</ele>
        <time>2022-04-11T09:01:08Z</time>
      </trkpt>
      <trkpt lat="49.90515" lon="2.28428">
        <ele>20.5</ele>
        <time>2022-04-11T09:01:09Z</time>
      </trkpt>
      <trkpt lat="49.90514" lon="2.2843">
        <ele>20.5</ele>
        <time>2022-04-11T09:01:10Z</time>
      </trkpt>
      <trkpt lat="49.90514" lon="2.2843">
        <ele>20.5</ele>
        <time>2022-04-11T09:01:11Z</time>
      </trkpt>
      <trkpt lat="49.90514" lon="2.2843">
        <ele>20.5</ele>
        <time>2022-04-11T09:01:12Z</time>
      </trkpt>
      <trkpt lat="49.90514" lon="2.2843">
        <ele>20.5</ele>
        <time>2022-04-11T09:01:13Z</time>
      </trkpt>
      <trkpt lat="49.90514" lon="2.2843">
        <ele>20.5</ele>
        <time>2022-04-11T09:01:14Z</time>
      </trkpt>
      <trkpt lat="49.90514" lon="2.2843">
        <ele>20.5</ele>
        <time>2022-04-11T09:01:15Z</time>
      </trkpt>
      <trkpt lat="49.90514" lon="2.28431">
        <ele>20.5</ele>
        <time>2022-04-11T09:01:16Z</time>
      </trkpt>
      <trkpt lat="49.90514" lon="2.2843">
        <ele>20.5</ele>
        <time>2022-04-11T09:01:17Z</time>
      </trkpt>
      <trkpt lat="49.90514" lon="2.2843">
        <ele>20.5</ele>
        <time>2022-04-11T09:01:18Z</time>
      </trkpt>
      <trkpt lat="49.90514" lon="2.2843">
        <ele>20.5</ele>
        <time>2022-04-11T09:01:19Z</time>
      </trkpt>
      <trkpt lat="49.90514" lon="2.2843">
        <ele>20.5</ele>
        <time>2022-04-11T09:01:20Z</time>
      </trkpt>
      <trkpt lat="49.90514" lon="2.2843">
        <ele>20.5</ele>
        <time>2022-04-11T09:01:21Z</time>
      </trkpt>
      <trkpt lat="49.90514" lon="2.2843">
        <ele>20.5</ele>
        <time>2022-04-11T09:01:22Z</time>
      </trkpt>
      <trkpt lat="49.90514" lon="2.2843">
        <ele>20.5</ele>
        <time>2022-04-11T09:01:23Z</time>
      </trkpt>
      <trkpt lat="49.90514" lon="2.2843">
        <ele>20.5</ele>
        <time>2022-04-11T09:01:24Z</time>
      </trkpt>
      <trkpt lat="49.90514" lon="2.2843">
        <ele>20.5</ele>
        <time>2022-04-11T09:01:25Z</time>
      </trkpt>
      <trkpt lat="49.90514" lon="2.2843">
        <ele>20.5</ele>
        <time>2022-04-11T09:01:26Z</time>
      </trkpt>
      <trkpt lat="49.90514" lon="2.2843">
        <ele>20.5</ele>
        <time>2022-04-11T09:01:27Z</time>
      </trkpt>
      <trkpt lat="49.90514" lon="2.2843">
        <ele>20.5</ele>
        <time>2022-04-11T09:01:28Z</time>
      </trkpt>
      <trkpt lat="49.90514" lon="2.28429">
        <ele>20.5</ele>
        <time>2022-04-11T09:01:29Z</time>
      </trkpt>
      <trkpt lat="49.90514" lon="2.28429">
        <ele>20.5</ele>
        <time>2022-04-11T09:01:30Z</time>
      </trkpt>
      <trkpt lat="49.90514" lon="2.28429">
        <ele>20.5</ele>
        <time>2022-04-11T09:01:31Z</time>
      </trkpt>
      <trkpt lat="49.90514" lon="2.28429">
        <ele>20.5</ele>
        <time>2022-04-11T09:01:32Z</time>
      </trkpt>
      <trkpt lat="49.90514" lon="2.28429">
        <ele>20.5</ele>
        <time>2022-04-11T09:01:33Z</time>
      </trkpt>
      <trkpt lat="49.90514" lon="2.28429">
        <ele>20.5</ele>
        <time>2022-04-11T09:01:34Z</time>
      </trkpt>
      <trkpt lat="49.90514" lon="2.28429">
        <ele>20.5</ele>
        <time>2022-04-11T09:01:35Z</time>
      </trkpt>
      <trkpt lat="49.90514" lon="2.28429">
        <ele>20.5</ele>
        <time>2022-04-11T09:01:36Z</time>
      </trkpt>
      <trkpt lat="49.90514" lon="2.28429">
        <ele>20.5</ele>
        <time>2022-04-11T09:01:37Z</time>
      </trkpt>
      <trkpt lat="49.90514" lon="2.28429">
        <ele>20.5</ele>
        <time>2022-04-11T09:01:38Z</time>
      </trkpt>
      <trkpt lat="49.90514" lon="2.28429">
        <ele>20.5</ele>
        <time>2022-04-11T09:01:39Z</time>
      </trkpt>
      <trkpt lat="49.90514" lon="2.28429">
        <ele>20.5</ele>
        <time>2022-04-11T09:01:40Z</time>
      </trkpt>
      <trkpt lat="49.90514" lon="2.28428">
        <ele>20.5</ele>
        <time>2022-04-11T09:01:41Z</time>
      </trkpt>
      <trkpt lat="49.90514" lon="2.28428">
        <ele>20.5</ele>
        <time>2022-04-11T09:01:42Z</time>
      </trkpt>
      <trkpt lat="49.90515" lon="2.28428">
        <ele>20.5</ele>
        <time>2022-04-11T09:01:43Z</time>
      </trkpt>
      <trkpt lat="49.90515" lon="2.28428">
        <ele>20.5</ele>
        <time>2022-04-11T09:01:44Z</time>
      </trkpt>
      <trkpt lat="49.90515" lon="2.28428">
        <ele>20.5</ele>
        <time>2022-04-11T09:01:45Z</time>
      </trkpt>
      <trkpt lat="49.90515" lon="2.28428">
        <ele>20.5</ele>
        <time>2022-04-11T09:01:46Z</time>
      </trkpt>
      <trkpt lat="49.90515" lon="2.28428">
        <ele>20.5</ele>
        <time>2022-04-11T09:01:47Z</time>
      </trkpt>
      <trkpt lat="49.90515" lon="2.28428">
        <ele>20.5</ele>
        <time>2022-04-11T09:01:48Z</time>
      </trkpt>
      <trkpt lat="49.90515" lon="2.28428">
        <ele>20.5</ele>
        <time>2022-04-11T09:01:49Z</time>
      </trkpt>
      <trkpt lat="49.90515" lon="2.28428">
        <ele>20.5</ele>
        <time>2022-04-11T09:01:50Z</time>
      </trkpt>
      <trkpt lat="49.90515" lon="2.28428">
        <ele>20.5</ele>
        <time>2022-04-11T09:01:51Z</time>
      </trkpt>
      <trkpt lat="49.90515" lon="2.28428">
        <ele>20.5</ele>
        <time>2022-04-11T09:01:52Z</time>
      </trkpt>
      <trkpt lat="49.90515" lon="2.28427">
        <ele>20.5</ele>
        <time>2022-04-11T09:01:53Z</time>
      </trkpt>
      <trkpt lat="49.90515" lon="2.28427">
        <ele>20.5</ele>
        <time>2022-04-11T09:01:54Z</time>
      </trkpt>
      <trkpt lat="49.90515" lon="2.28427">
        <ele>20.5</ele>
        <time>2022-04-11T09:01:55Z</time>
      </trkpt>
      <trkpt lat="49.90515" lon="2.28427">
        <ele>20.5</ele>
        <time>2022-04-11T09:01:56Z</time>
      </trkpt>
      <trkpt lat="49.90515" lon="2.28427">
        <ele>20.5</ele>
        <time>2022-04-11T09:01:57Z</time>
      </trkpt>
      <trkpt lat="49.90515" lon="2.28427">
        <ele>20.5</ele>
        <time>2022-04-11T09:01:58Z</time>
      </trkpt>
      <trkpt lat="49.90515" lon="2.28427">
        <ele>20.5</ele>
        <time>2022-04-11T09:01:59Z</time>
      </trkpt>
      <trkpt lat="49.90515" lon="2.28427">
        <ele>20.5</ele>
        <time>2022-04-11T09:02:00Z</time>
      </trkpt>
      <trkpt lat="49.90515" lon="2.28427">
        <ele>20.5</ele>
        <time>2022-04-11T09:02:01Z</time>
      </trkpt>
      <trkpt lat="49.90515" lon="2.28427">
        <ele>20.5</ele>
        <time>2022-04-11T09:02:02Z</time>
      </trkpt>
      <trkpt lat="49.90515" lon="2.28427">
        <ele>20.5</ele>
        <time>2022-04-11T09:02:03Z</time>
      </trkpt>
      <trkpt lat="49.90515" lon="2.28427">
        <ele>20.5</ele>
        <time>2022-04-11T09:02:04Z</time>
      </trkpt>
      <trkpt lat="49.90515" lon="2.28427">
        <ele>20.5</ele>
        <time>2022-04-11T09:02:05Z</time>
      </trkpt>
      <trkpt lat="49.90515" lon="2.28426">
        <ele>20.5</ele>
        <time>2022-04-11T09:02:06Z</time>
      </trkpt>
      <trkpt lat="49.90515" lon="2.28426">
        <ele>20.5</ele>
        <time>2022-04-11T09:02:07Z</time>
      </trkpt>
      <trkpt lat="49.90515" lon="2.28426">
        <ele>20.5</ele>
        <time>2022-04-11T09:02:08Z</time>
      </trkpt>
      <trkpt lat="49.90515" lon="2.28426">
        <ele>20.5</ele>
        <time>2022-04-11T09:02:09Z</time>
      </trkpt>
      <trkpt lat="49.90515" lon="2.28426">
        <ele>20.5</ele>
        <time>2022-04-11T09:02:10Z</time>
      </trkpt>
      <trkpt lat="49.90515" lon="2.28426">
        <ele>20.5</ele>
        <time>2022-04-11T09:02:11Z</time>
      </trkpt>
      <trkpt lat="49.90515" lon="2.28426">
        <ele>20.5</ele>
        <time>2022-04-11T09:02:12Z</time>
      </trkpt>
      <trkpt lat="49.90515" lon="2.28426">
        <ele>20.5</ele>
        <time>2022-04-11T09:02:13Z</time>
      </trkpt>
      <trkpt lat="49.90515" lon="2.28426">
        <ele>20.5</ele>
        <time>2022-04-11T09:02:14Z</time>
      </trkpt>
      <trkpt lat="49.90515" lon="2.28426">
        <ele>20.5</ele>
        <time>2022-04-11T09:02:15Z</time>
      </trkpt>
      <trkpt lat="49.90516" lon="2.28426">
        <ele>20.5</ele>
        <time>2022-04-11T09:02:16Z</time>
      </trkpt>
      <trkpt lat="49.90516" lon="2.28426">
        <ele>20.5</ele>
        <time>2022-04-11T09:02:17Z</time>
      </trkpt>
      <trkpt lat="49.90516" lon="2.28423">
        <ele>20.5</ele>
        <time>2022-04-11T09:02:18Z</time>
      </trkpt>
      <trkpt lat="49.90517" lon="2.28422">
        <ele>20.5</ele>
        <time>2022-04-11T09:02:19Z</time>
      </trkpt>
      <trkpt lat="49.90518" lon="2.2842">
        <ele>20.5</ele>
        <time>2022-04-11T09:02:20Z</time>
      </trkpt>
      <trkpt lat="49.90519" lon="2.28419">
        <ele>20.5</ele>
        <time>2022-04-11T09:02:21Z</time>
      </trkpt>
      <trkpt lat="49.9052" lon="2.28417">
        <ele>20.5</ele>
        <time>2022-04-11T09:02:22Z</time>
      </trkpt>
      <trkpt lat="49.90521" lon="2.28415">
        <ele>20.5</ele>
        <time>2022-04-11T09:02:24Z</time>
      </trkpt>
      <trkpt lat="49.90522" lon="2.28414">
        <ele>20.5</ele>
        <time>2022-04-11T09:02:25Z</time>
      </trkpt>
      <trkpt lat="49.90524" lon="2.28413">
        <ele>20.5</ele>
        <time>2022-04-11T09:02:26Z</time>
      </trkpt>
      <trkpt lat="49.90525" lon="2.28412">
        <ele>20.5</ele>
        <time>2022-04-11T09:02:27Z</time>
      </trkpt>
      <trkpt lat="49.90527" lon="2.2841">
        <ele>20.5</ele>
        <time>2022-04-11T09:02:28Z</time>
      </trkpt>
      <trkpt lat="49.90527" lon="2.28409">
        <ele>20.5</ele>
        <time>2022-04-11T09:02:29Z</time>
      </trkpt>
      <trkpt lat="49.90528" lon="2.28408">
        <ele>20.5</ele>
        <time>2022-04-11T09:02:31Z</time>
      </trkpt>
      <trkpt lat="49.90529" lon="2.28407">
        <ele>20.5</ele>
        <time>2022-04-11T09:02:32Z</time>
      </trkpt>
      <trkpt lat="49.90529" lon="2.28406">
        <ele>20.5</ele>
        <time>2022-04-11T09:02:33Z</time>
      </trkpt>
      <trkpt lat="49.9053" lon="2.28405">
        <ele>20.5</ele>
        <time>2022-04-11T09:02:34Z</time>
      </trkpt>
      <trkpt lat="49.90532" lon="2.28403">
        <ele>20.5</ele>
        <time>2022-04-11T09:02:35Z</time>
      </trkpt>
      <trkpt lat="49.90533" lon="2.28401">
        <ele>20.5</ele>
        <time>2022-04-11T09:02:36Z</time>
      </trkpt>
      <trkpt lat="49.90534" lon="2.284">
        <ele>20.5</ele>
        <time>2022-04-11T09:02:37Z</time>
      </trkpt>
      <trkpt lat="49.90535" lon="2.28398">
        <ele>20.5</ele>
        <time>2022-04-11T09:02:38Z</time>
      </trkpt>
      <trkpt lat="49.90536" lon="2.28396">
        <ele>20.5</ele>
        <time>2022-04-11T09:02:39Z</time>
      </trkpt>
      <trkpt lat="49.90537" lon="2.28394">
        <ele>20.5</ele>
        <time>2022-04-11T09:02:41Z</time>
      </trkpt>
      <trkpt lat="49.90538" lon="2.28392">
        <ele>20.5</ele>
        <time>2022-04-11T09:02:42Z</time>
      </trkpt>
      <trkpt lat="49.90539" lon="2.2839">
        <ele>20.5</ele>
        <time>2022-04-11T09:02:43Z</time>
      </trkpt>
      <trkpt lat="49.90541" lon="2.28387">
        <ele>20.5</ele>
        <time>2022-04-11T09:02:44Z</time>
      </trkpt>
      <trkpt lat="49.90541" lon="2.28386">
        <ele>20.5</ele>
        <time>2022-04-11T09:02:45Z</time>
      </trkpt>
      <trkpt lat="49.90542" lon="2.28385">
        <ele>20.5</ele>
        <time>2022-04-11T09:02:46Z</time>
      </trkpt>
      <trkpt lat="49.90543" lon="2.28382">
        <ele>20.5</ele>
        <time>2022-04-11T09:02:48Z</time>
      </trkpt>
      <trkpt lat="49.90544" lon="2.28381">
        <ele>20.5</ele>
        <time>2022-04-11T09:02:49Z</time>
      </trkpt>
      <trkpt lat="49.90544" lon="2.2838">
        <ele>20.5</ele>
        <time>2022-04-11T09:02:50Z</time>
      </trkpt>
      <trkpt lat="49.90545" lon="2.28378">
        <ele>20.5</ele>
        <time>2022-04-11T09:02:51Z</time>
      </trkpt>
      <trkpt lat="49.90546" lon="2.28377">
        <ele>20.5</ele>
        <time>2022-04-11T09:02:52Z</time>
      </trkpt>
      <trkpt lat="49.90547" lon="2.28374">
        <ele>20.5</ele>
        <time>2022-04-11T09:02:53Z</time>
      </trkpt>
      <trkpt lat="49.90548" lon="2.28373">
        <ele>20.5</ele>
        <time>2022-04-11T09:02:54Z</time>
      </trkpt>
      <trkpt lat="49.90549" lon="2.28372">
        <ele>20.5</ele>
        <time>2022-04-11T09:02:55Z</time>
      </trkpt>
      <trkpt lat="49.90549" lon="2.28371">
        <ele>20.5</ele>
        <time>2022-04-11T09:02:56Z</time>
      </trkpt>
      <trkpt lat="49.90551" lon="2.28368">
        <ele>20.5</ele>
        <time>2022-04-11T09:02:58Z</time>
      </trkpt>
      <trkpt lat="49.90551" lon="2.28366">
        <ele>20.5</ele>
        <time>2022-04-11T09:02:59Z</time>
      </trkpt>
      <trkpt lat="49.90551" lon="2.28364">
        <ele>20.4</ele>
        <time>2022-04-11T09:03:00Z</time>
      </trkpt>
      <trkpt lat="49.90552" lon="2.28361">
        <ele>20.4</ele>
        <time>2022-04-11T09:03:01Z</time>
      </trkpt>
      <trkpt lat="49.90552" lon="2.28359">
        <ele>20.4</ele>
        <time>2022-04-11T09:03:02Z</time>
      </trkpt>
      <trkpt lat="49.90552" lon="2.28357">
        <ele>20.4</ele>
        <time>2022-04-11T09:03:03Z</time>
      </trkpt>
      <trkpt lat="49.90553" lon="2.28354">
        <ele>20.4</ele>
        <time>2022-04-11T09:03:05Z</time>
      </trkpt>
      <trkpt lat="49.90554" lon="2.28353">
        <ele>20.4</ele>
        <time>2022-04-11T09:03:06Z</time>
      </trkpt>
      <trkpt lat="49.90555" lon="2.28351">
        <ele>20.4</ele>
        <time>2022-04-11T09:03:07Z</time>
      </trkpt>
      <trkpt lat="49.90555" lon="2.2835">
        <ele>20.4</ele>
        <time>2022-04-11T09:03:08Z</time>
      </trkpt>
      <trkpt lat="49.90556" lon="2.28348">
        <ele>20.4</ele>
        <time>2022-04-11T09:03:09Z</time>
      </trkpt>
      <trkpt lat="49.90557" lon="2.28346">
        <ele>20.4</ele>
        <time>2022-04-11T09:03:10Z</time>
      </trkpt>
      <trkpt lat="49.90558" lon="2.28343">
        <ele>20.4</ele>
        <time>2022-04-11T09:03:11Z</time>
      </trkpt>
      <trkpt lat="49.90558" lon="2.28342">
        <ele>20.4</ele>
        <time>2022-04-11T09:03:12Z</time>
      </trkpt>
      <trkpt lat="49.90559" lon="2.28341">
        <ele>20.4</ele>
        <time>2022-04-11T09:03:13Z</time>
      </trkpt>
      <trkpt lat="49.90559" lon="2.28339">
        <ele>20.4</ele>
        <time>2022-04-11T09:03:14Z</time>
      </trkpt>
      <trkpt lat="49.9056" lon="2.28338">
        <ele>20.4</ele>
        <time>2022-04-11T09:03:15Z</time>
      </trkpt>
      <trkpt lat="49.9056" lon="2.28335">
        <ele>20.4</ele>
        <time>2022-04-11T09:03:17Z</time>
      </trkpt>
      <trkpt lat="49.90561" lon="2.28334">
        <ele>20.4</ele>
        <time>2022-04-11T09:03:18Z</time>
      </trkpt>
      <trkpt lat="49.90561" lon="2.28331">
        <ele>20.4</ele>
        <time>2022-04-11T09:03:19Z</time>
      </trkpt>
      <trkpt lat="49.90562" lon="2.28329">
        <ele>20.3</ele>
        <time>2022-04-11T09:03:20Z</time>
      </trkpt>
      <trkpt lat="49.90562" lon="2.28327">
        <ele>20.3</ele>
        <time>2022-04-11T09:03:21Z</time>
      </trkpt>
      <trkpt lat="49.90564" lon="2.28324">
        <ele>20.3</ele>
        <time>2022-04-11T09:03:22Z</time>
      </trkpt>
      <trkpt lat="49.90565" lon="2.28323">
        <ele>20.3</ele>
        <time>2022-04-11T09:03:24Z</time>
      </trkpt>
      <trkpt lat="49.90565" lon="2.28322">
        <ele>20.3</ele>
        <time>2022-04-11T09:03:25Z</time>
      </trkpt>
      <trkpt lat="49.90566" lon="2.2832">
        <ele>20.3</ele>
        <time>2022-04-11T09:03:26Z</time>
      </trkpt>
      <trkpt lat="49.90567" lon="2.28319">
        <ele>20.3</ele>
        <time>2022-04-11T09:03:27Z</time>
      </trkpt>
      <trkpt lat="49.90568" lon="2.28318">
        <ele>20.3</ele>
        <time>2022-04-11T09:03:28Z</time>
      </trkpt>
      <trkpt lat="49.90568" lon="2.28317">
        <ele>20.3</ele>
        <time>2022-04-11T09:03:29Z</time>
      </trkpt>
      <trkpt lat="49.90569" lon="2.28315">
        <ele>20.3</ele>
        <time>2022-04-11T09:03:31Z</time>
      </trkpt>
      <trkpt lat="49.9057" lon="2.28314">
        <ele>20.3</ele>
        <time>2022-04-11T09:03:32Z</time>
      </trkpt>
      <trkpt lat="49.90572" lon="2.28312">
        <ele>20.3</ele>
        <time>2022-04-11T09:03:33Z</time>
      </trkpt>
      <trkpt lat="49.90573" lon="2.28311">
        <ele>20.3</ele>
        <time>2022-04-11T09:03:34Z</time>
      </trkpt>
      <trkpt lat="49.90574" lon="2.28309">
        <ele>20.3</ele>
        <time>2022-04-11T09:03:35Z</time>
      </trkpt>
      <trkpt lat="49.90575" lon="2.28307">
        <ele>20.3</ele>
        <time>2022-04-11T09:03:36Z</time>
      </trkpt>
      <trkpt lat="49.90576" lon="2.28305">
        <ele>20.3</ele>
        <time>2022-04-11T09:03:38Z</time>
      </trkpt>
      <trkpt lat="49.90578" lon="2.28303">
        <ele>20.3</ele>
        <time>2022-04-11T09:03:39Z</time>
      </trkpt>
      <trkpt lat="49.90579" lon="2.28302">
        <ele>20.3</ele>
        <time>2022-04-11T09:03:40Z</time>
      </trkpt>
      <trkpt lat="49.90579" lon="2.28301">
        <ele>20.3</ele>
        <time>2022-04-11T09:03:41Z</time>
      </trkpt>
      <trkpt lat="49.9058" lon="2.283">
        <ele>20.3</ele>
        <time>2022-04-11T09:03:42Z</time>
      </trkpt>
      <trkpt lat="49.90581" lon="2.28297">
        <ele>20.3</ele>
        <time>2022-04-11T09:03:44Z</time>
      </trkpt>
      <trkpt lat="49.90582" lon="2.28296">
        <ele>20.3</ele>
        <time>2022-04-11T09:03:45Z</time>
      </trkpt>
      <trkpt lat="49.90583" lon="2.28294">
        <ele>20.3</ele>
        <time>2022-04-11T09:03:46Z</time>
      </trkpt>
      <trkpt lat="49.90585" lon="2.28292">
        <ele>20.3</ele>
        <time>2022-04-11T09:03:47Z</time>
      </trkpt>
      <trkpt lat="49.90585" lon="2.28291">
        <ele>20.3</ele>
        <time>2022-04-11T09:03:48Z</time>
      </trkpt>
      <trkpt lat="49.90586" lon="2.28289">
        <ele>20.3</ele>
        <time>2022-04-11T09:03:49Z</time>
      </trkpt>
      <trkpt lat="49.90587" lon="2.28288">
        <ele>20.3</ele>
        <time>2022-04-11T09:03:50Z</time>
      </trkpt>
      <trkpt lat="49.90588" lon="2.28286">
        <ele>20.3</ele>
        <time>2022-04-11T09:03:51Z</time>
      </trkpt>
      <trkpt lat="49.90589" lon="2.28285">
        <ele>20.3</ele>
        <time>2022-04-11T09:03:52Z</time>
      </trkpt>
      <trkpt lat="49.9059" lon="2.28284">
        <ele>20.3</ele>
        <time>2022-04-11T09:03:53Z</time>
      </trkpt>
      <trkpt lat="49.9059" lon="2.28282">
        <ele>20.3</ele>
        <time>2022-04-11T09:03:54Z</time>
      </trkpt>
      <trkpt lat="49.90592" lon="2.2828">
        <ele>20.3</ele>
        <time>2022-04-11T09:03:55Z</time>
      </trkpt>
      <trkpt lat="49.90593" lon="2.2828">
        <ele>20.3</ele>
        <time>2022-04-11T09:03:57Z</time>
      </trkpt>
      <trkpt lat="49.90593" lon="2.28279">
        <ele>20.3</ele>
        <time>2022-04-11T09:03:58Z</time>
      </trkpt>
      <trkpt lat="49.90594" lon="2.28277">
        <ele>20.3</ele>
        <time>2022-04-11T09:03:59Z</time>
      </trkpt>
      <trkpt lat="49.90595" lon="2.28276">
        <ele>20.3</ele>
        <time>2022-04-11T09:04:00Z</time>
      </trkpt>
      <trkpt lat="49.90595" lon="2.28275">
        <ele>20.3</ele>
        <time>2022-04-11T09:04:01Z</time>
      </trkpt>
      <trkpt lat="49.90596" lon="2.28275">
        <ele>20.3</ele>
        <time>2022-04-11T09:04:02Z</time>
      </trkpt>
      <trkpt lat="49.90596" lon="2.28274">
        <ele>20.3</ele>
        <time>2022-04-11T09:04:03Z</time>
      </trkpt>
      <trkpt lat="49.90597" lon="2.28272">
        <ele>20.3</ele>
        <time>2022-04-11T09:04:05Z</time>
      </trkpt>
      <trkpt lat="49.90598" lon="2.28271">
        <ele>20.3</ele>
        <time>2022-04-11T09:04:06Z</time>
      </trkpt>
      <trkpt lat="49.90599" lon="2.28269">
        <ele>20.3</ele>
        <time>2022-04-11T09:04:07Z</time>
      </trkpt>
      <trkpt lat="49.90599" lon="2.28268">
        <ele>20.3</ele>
        <time>2022-04-11T09:04:08Z</time>
      </trkpt>
      <trkpt lat="49.906" lon="2.28267">
        <ele>20.3</ele>
        <time>2022-04-11T09:04:09Z</time>
      </trkpt>
      <trkpt lat="49.90601" lon="2.28265">
        <ele>20.3</ele>
        <time>2022-04-11T09:04:10Z</time>
      </trkpt>
      <trkpt lat="49.90602" lon="2.28264">
        <ele>20.3</ele>
        <time>2022-04-11T09:04:11Z</time>
      </trkpt>
      <trkpt lat="49.90603" lon="2.28263">
        <ele>20.3</ele>
        <time>2022-04-11T09:04:13Z</time>
      </trkpt>
      <trkpt lat="49.90604" lon="2.28262">
        <ele>20.3</ele>
        <time>2022-04-11T09:04:14Z</time>
      </trkpt>
      <trkpt lat="49.90604" lon="2.28261">
        <ele>20.3</ele>
        <time>2022-04-11T09:04:15Z</time>
      </trkpt>
      <trkpt lat="49.90607" lon="2.28259">
        <ele>20.3</ele>
        <time>2022-04-11T09:04:16Z</time>
      </trkpt>
      <trkpt lat="49.90608" lon="2.28258">
        <ele>20.3</ele>
        <time>2022-04-11T09:04:17Z</time>
      </trkpt>
      <trkpt lat="49.9061" lon="2.28256">
        <ele>20.2</ele>
        <time>2022-04-11T09:04:18Z</time>
      </trkpt>
      <trkpt lat="49.9061" lon="2.28256">
        <ele>20.2</ele>
        <time>2022-04-11T09:04:19Z</time>
      </trkpt>
      <trkpt lat="49.90611" lon="2.28255">
        <ele>20.2</ele>
        <time>2022-04-11T09:04:20Z</time>
      </trkpt>
      <trkpt lat="49.90612" lon="2.28254">
        <ele>20.2</ele>
        <time>2022-04-11T09:04:22Z</time>
      </trkpt>
      <trkpt lat="49.90613" lon="2.28254">
        <ele>20.2</ele>
        <time>2022-04-11T09:04:23Z</time>
      </trkpt>
      <trkpt lat="49.90614" lon="2.28252">
        <ele>20.2</ele>
        <time>2022-04-11T09:04:24Z</time>
      </trkpt>
      <trkpt lat="49.90616" lon="2.2825">
        <ele>20.2</ele>
        <time>2022-04-11T09:04:25Z</time>
      </trkpt>
      <trkpt lat="49.90616" lon="2.28249">
        <ele>20.2</ele>
        <time>2022-04-11T09:04:26Z</time>
      </trkpt>
      <trkpt lat="49.90617" lon="2.28248">
        <ele>20.2</ele>
        <time>2022-04-11T09:04:27Z</time>
      </trkpt>
      <trkpt lat="49.90618" lon="2.28247">
        <ele>20.2</ele>
        <time>2022-04-11T09:04:28Z</time>
      </trkpt>
      <trkpt lat="49.90619" lon="2.28244">
        <ele>20.2</ele>
        <time>2022-04-11T09:04:30Z</time>
      </trkpt>
      <trkpt lat="49.9062" lon="2.28243">
        <ele>20.2</ele>
        <time>2022-04-11T09:04:31Z</time>
      </trkpt>
      <trkpt lat="49.90622" lon="2.28241">
        <ele>20.2</ele>
        <time>2022-04-11T09:04:32Z</time>
      </trkpt>
      <trkpt lat="49.90623" lon="2.28239">
        <ele>20.2</ele>
        <time>2022-04-11T09:04:33Z</time>
      </trkpt>
      <trkpt lat="49.90624" lon="2.28238">
        <ele>20.2</ele>
        <time>2022-04-11T09:04:34Z</time>
      </trkpt>
      <trkpt lat="49.90626" lon="2.28236">
        <ele>20.2</ele>
        <time>2022-04-11T09:04:35Z</time>
      </trkpt>
      <trkpt lat="49.90627" lon="2.28235">
        <ele>20.1</ele>
        <time>2022-04-11T09:04:36Z</time>
      </trkpt>
      <trkpt lat="49.90629" lon="2.28233">
        <ele>20.1</ele>
        <time>2022-04-11T09:04:37Z</time>
      </trkpt>
      <trkpt lat="49.90629" lon="2.28232">
        <ele>20.1</ele>
        <time>2022-04-11T09:04:39Z</time>
      </trkpt>
      <trkpt lat="49.9063" lon="2.28231">
        <ele>20.1</ele>
        <time>2022-04-11T09:04:40Z</time>
      </trkpt>
      <trkpt lat="49.90632" lon="2.28229">
        <ele>20.1</ele>
        <time>2022-04-11T09:04:41Z</time>
      </trkpt>
      <trkpt lat="49.90632" lon="2.28228">
        <ele>20.1</ele>
        <time>2022-04-11T09:04:42Z</time>
      </trkpt>
      <trkpt lat="49.90633" lon="2.28227">
        <ele>20.1</ele>
        <time>2022-04-11T09:04:43Z</time>
      </trkpt>
      <trkpt lat="49.90634" lon="2.28225">
        <ele>20.1</ele>
        <time>2022-04-11T09:04:44Z</time>
      </trkpt>
      <trkpt lat="49.90635" lon="2.28224">
        <ele>20.1</ele>
        <time>2022-04-11T09:04:45Z</time>
      </trkpt>
      <trkpt lat="49.90636" lon="2.28223">
        <ele>20.1</ele>
        <time>2022-04-11T09:04:46Z</time>
      </trkpt>
      <trkpt lat="49.90637" lon="2.28221">
        <ele>20.1</ele>
        <time>2022-04-11T09:04:47Z</time>
      </trkpt>
      <trkpt lat="49.90638" lon="2.2822">
        <ele>20.1</ele>
        <time>2022-04-11T09:04:49Z</time>
      </trkpt>
      <trkpt lat="49.90638" lon="2.28219">
        <ele>20.1</ele>
        <time>2022-04-11T09:04:50Z</time>
      </trkpt>
      <trkpt lat="49.9064" lon="2.28218">
        <ele>20.1</ele>
        <time>2022-04-11T09:04:51Z</time>
      </trkpt>
      <trkpt lat="49.90641" lon="2.28218">
        <ele>20.1</ele>
        <time>2022-04-11T09:04:52Z</time>
      </trkpt>
      <trkpt lat="49.90642" lon="2.28217">
        <ele>20.1</ele>
        <time>2022-04-11T09:04:53Z</time>
      </trkpt>
      <trkpt lat="49.90643" lon="2.28217">
        <ele>20.1</ele>
        <time>2022-04-11T09:04:55Z</time>
      </trkpt>
      <trkpt lat="49.90644" lon="2.28216">
        <ele>20.2</ele>
        <time>2022-04-11T09:04:56Z</time>
      </trkpt>
      <trkpt lat="49.90645" lon="2.28215">
        <ele>20.2</ele>
        <time>2022-04-11T09:04:57Z</time>
      </trkpt>
      <trkpt lat="49.90646" lon="2.28213">
        <ele>20.2</ele>
        <time>2022-04-11T09:04:58Z</time>
      </trkpt>
      <trkpt lat="49.90646" lon="2.28212">
        <ele>20.2</ele>
        <time>2022-04-11T09:04:59Z</time>
      </trkpt>
      <trkpt lat="49.90647" lon="2.2821">
        <ele>20.2</ele>
        <time>2022-04-11T09:05:00Z</time>
      </trkpt>
      <trkpt lat="49.90648" lon="2.28208">
        <ele>20.2</ele>
        <time>2022-04-11T09:05:01Z</time>
      </trkpt>
      <trkpt lat="49.90649" lon="2.28207">
        <ele>20.2</ele>
        <time>2022-04-11T09:05:02Z</time>
      </trkpt>
      <trkpt lat="49.90649" lon="2.28206">
        <ele>20.2</ele>
        <time>2022-04-11T09:05:03Z</time>
      </trkpt>
      <trkpt lat="49.9065" lon="2.28205">
        <ele>20.2</ele>
        <time>2022-04-11T09:05:05Z</time>
      </trkpt>
      <trkpt lat="49.90651" lon="2.28203">
        <ele>20.2</ele>
        <time>2022-04-11T09:05:06Z</time>
      </trkpt>
      <trkpt lat="49.90652" lon="2.28202">
        <ele>20.2</ele>
        <time>2022-04-11T09:05:07Z</time>
      </trkpt>
      <trkpt lat="49.90653" lon="2.28202">
        <ele>20.2</ele>
        <time>2022-04-11T09:05:08Z</time>
      </trkpt>
      <trkpt lat="49.90653" lon="2.28201">
        <ele>20.2</ele>
        <time>2022-04-11T09:05:09Z</time>
      </trkpt>
      <trkpt lat="49.90654" lon="2.282">
        <ele>20.2</ele>
        <time>2022-04-11T09:05:10Z</time>
      </trkpt>
      <trkpt lat="49.90656" lon="2.28199">
        <ele>20.2</ele>
        <time>2022-04-11T09:05:11Z</time>
      </trkpt>
      <trkpt lat="49.90657" lon="2.28198">
        <ele>20.2</ele>
        <time>2022-04-11T09:05:12Z</time>
      </trkpt>
      <trkpt lat="49.90658" lon="2.28198">
        <ele>20.2</ele>
        <time>2022-04-11T09:05:13Z</time>
      </trkpt>
      <trkpt lat="49.9066" lon="2.28196">
        <ele>20.2</ele>
        <time>2022-04-11T09:05:14Z</time>
      </trkpt>
      <trkpt lat="49.90661" lon="2.28196">
        <ele>20.2</ele>
        <time>2022-04-11T09:05:16Z</time>
      </trkpt>
      <trkpt lat="49.90662" lon="2.28195">
        <ele>20.2</ele>
        <time>2022-04-11T09:05:17Z</time>
      </trkpt>
      <trkpt lat="49.90663" lon="2.28194">
        <ele>20.2</ele>
        <time>2022-04-11T09:05:18Z</time>
      </trkpt>
      <trkpt lat="49.90665" lon="2.28193">
        <ele>20.2</ele>
        <time>2022-04-11T09:05:19Z</time>
      </trkpt>
      <trkpt lat="49.90667" lon="2.28192">
        <ele>20.2</ele>
        <time>2022-04-11T09:05:20Z</time>
      </trkpt>
      <trkpt lat="49.90668" lon="2.28191">
        <ele>20.2</ele>
        <time>2022-04-11T09:05:21Z</time>
      </trkpt>
      <trkpt lat="49.9067" lon="2.2819">
        <ele>20.2</ele>
        <time>2022-04-11T09:05:22Z</time>
      </trkpt>
      <trkpt lat="49.90671" lon="2.28189">
        <ele>20.2</ele>
        <time>2022-04-11T09:05:23Z</time>
      </trkpt>
      <trkpt lat="49.90673" lon="2.28188">
        <ele>20.2</ele>
        <time>2022-04-11T09:05:24Z</time>
      </trkpt>
      <trkpt lat="49.90674" lon="2.28187">
        <ele>20.2</ele>
        <time>2022-04-11T09:05:25Z</time>
      </trkpt>
      <trkpt lat="49.90676" lon="2.28187">
        <ele>20.2</ele>
        <time>2022-04-11T09:05:26Z</time>
      </trkpt>
      <trkpt lat="49.90677" lon="2.28186">
        <ele>20.2</ele>
        <time>2022-04-11T09:05:28Z</time>
      </trkpt>
      <trkpt lat="49.90678" lon="2.28185">
        <ele>20.3</ele>
        <time>2022-04-11T09:05:29Z</time>
      </trkpt>
      <trkpt lat="49.90679" lon="2.28184">
        <ele>20.3</ele>
        <time>2022-04-11T09:05:30Z</time>
      </trkpt>
      <trkpt lat="49.90679" lon="2.28184">
        <ele>20.3</ele>
        <time>2022-04-11T09:05:31Z</time>
      </trkpt>
      <trkpt lat="49.9068" lon="2.28184">
        <ele>20.3</ele>
        <time>2022-04-11T09:05:32Z</time>
      </trkpt>
      <trkpt lat="49.90681" lon="2.28183">
        <ele>20.3</ele>
        <time>2022-04-11T09:05:33Z</time>
      </trkpt>
      <trkpt lat="49.90682" lon="2.28183">
        <ele>20.3</ele>
        <time>2022-04-11T09:05:34Z</time>
      </trkpt>
      <trkpt lat="49.90684" lon="2.28182">
        <ele>20.3</ele>
        <time>2022-04-11T09:05:36Z</time>
      </trkpt>
      <trkpt lat="49.90686" lon="2.28181">
        <ele>20.3</ele>
        <time>2022-04-11T09:05:37Z</time>
      </trkpt>
      <trkpt lat="49.90686" lon="2.2818">
        <ele>20.3</ele>
        <time>2022-04-11T09:05:38Z</time>
      </trkpt>
      <trkpt lat="49.90687" lon="2.2818">
        <ele>20.3</ele>
        <time>2022-04-11T09:05:39Z</time>
      </trkpt>
      <trkpt lat="49.90689" lon="2.28178">
        <ele>20.3</ele>
        <time>2022-04-11T09:05:40Z</time>
      </trkpt>
      <trkpt lat="49.9069" lon="2.28178">
        <ele>20.3</ele>
        <time>2022-04-11T09:05:41Z</time>
      </trkpt>
      <trkpt lat="49.9069" lon="2.28177">
        <ele>20.3</ele>
        <time>2022-04-11T09:05:42Z</time>
      </trkpt>
      <trkpt lat="49.90692" lon="2.28177">
        <ele>20.4</ele>
        <time>2022-04-11T09:05:43Z</time>
      </trkpt>
      <trkpt lat="49.90693" lon="2.28177">
        <ele>20.4</ele>
        <time>2022-04-11T09:05:44Z</time>
      </trkpt>
      <trkpt lat="49.90694" lon="2.28177">
        <ele>20.4</ele>
        <time>2022-04-11T09:05:46Z</time>
      </trkpt>
      <trkpt lat="49.90695" lon="2.28177">
        <ele>20.4</ele>
        <time>2022-04-11T09:05:47Z</time>
      </trkpt>
      <trkpt lat="49.90696" lon="2.28177">
        <ele>20.4</ele>
        <time>2022-04-11T09:05:48Z</time>
      </trkpt>
      <trkpt lat="49.90697" lon="2.28177">
        <ele>20.4</ele>
        <time>2022-04-11T09:05:49Z</time>
      </trkpt>
      <trkpt lat="49.90698" lon="2.28177">
        <ele>20.4</ele>
        <time>2022-04-11T09:05:50Z</time>
      </trkpt>
      <trkpt lat="49.907" lon="2.28176">
        <ele>20.4</ele>
        <time>2022-04-11T09:05:51Z</time>
      </trkpt>
      <trkpt lat="49.90701" lon="2.28175">
        <ele>20.5</ele>
        <time>2022-04-11T09:05:53Z</time>
      </trkpt>
      <trkpt lat="49.90702" lon="2.28175">
        <ele>20.5</ele>
        <time>2022-04-11T09:05:54Z</time>
      </trkpt>
      <trkpt lat="49.90703" lon="2.28174">
        <ele>20.5</ele>
        <time>2022-04-11T09:05:55Z</time>
      </trkpt>
      <trkpt lat="49.90704" lon="2.28174">
        <ele>20.5</ele>
        <time>2022-04-11T09:05:56Z</time>
      </trkpt>
      <trkpt lat="49.90704" lon="2.28173">
        <ele>20.5</ele>
        <time>2022-04-11T09:05:57Z</time>
      </trkpt>
      <trkpt lat="49.90706" lon="2.28173">
        <ele>20.5</ele>
        <time>2022-04-11T09:05:58Z</time>
      </trkpt>
      <trkpt lat="49.90707" lon="2.28173">
        <ele>20.5</ele>
        <time>2022-04-11T09:05:59Z</time>
      </trkpt>
      <trkpt lat="49.90708" lon="2.28173">
        <ele>20.5</ele>
        <time>2022-04-11T09:06:00Z</time>
      </trkpt>
      <trkpt lat="49.90709" lon="2.28173">
        <ele>20.5</ele>
        <time>2022-04-11T09:06:02Z</time>
      </trkpt>
      <trkpt lat="49.9071" lon="2.28173">
        <ele>20.5</ele>
        <time>2022-04-11T09:06:03Z</time>
      </trkpt>
      <trkpt lat="49.90711" lon="2.28172">
        <ele>20.5</ele>
        <time>2022-04-11T09:06:04Z</time>
      </trkpt>
      <trkpt lat="49.90712" lon="2.28172">
        <ele>20.5</ele>
        <time>2022-04-11T09:06:05Z</time>
      </trkpt>
      <trkpt lat="49.90713" lon="2.28172">
        <ele>20.5</ele>
        <time>2022-04-11T09:06:06Z</time>
      </trkpt>
      <trkpt lat="49.90714" lon="2.28171">
        <ele>20.5</ele>
        <time>2022-04-11T09:06:07Z</time>
      </trkpt>
      <trkpt lat="49.90716" lon="2.28172">
        <ele>20.5</ele>
        <time>2022-04-11T09:06:08Z</time>
      </trkpt>
      <trkpt lat="49.90717" lon="2.28172">
        <ele>20.5</ele>
        <time>2022-04-11T09:06:09Z</time>
      </trkpt>
      <trkpt lat="49.90718" lon="2.28173">
        <ele>20.6</ele>
        <time>2022-04-11T09:06:10Z</time>
      </trkpt>
      <trkpt lat="49.9072" lon="2.28173">
        <ele>20.6</ele>
        <time>2022-04-11T09:06:12Z</time>
      </trkpt>
      <trkpt lat="49.9072" lon="2.28173">
        <ele>20.6</ele>
        <time>2022-04-11T09:06:13Z</time>
      </trkpt>
      <trkpt lat="49.90721" lon="2.28173">
        <ele>20.6</ele>
        <time>2022-04-11T09:06:14Z</time>
      </trkpt>
      <trkpt lat="49.90722" lon="2.28173">
        <ele>20.6</ele>
        <time>2022-04-11T09:06:15Z</time>
      </trkpt>
      <trkpt lat="49.90723" lon="2.28173">
        <ele>20.6</ele>
        <time>2022-04-11T09:06:16Z</time>
      </trkpt>
      <trkpt lat="49.90724" lon="2.28173">
        <ele>20.6</ele>
        <time>2022-04-11T09:06:17Z</time>
      </trkpt>
      <trkpt lat="49.90726" lon="2.28172">
        <ele>20.6</ele>
        <time>2022-04-11T09:06:18Z</time>
      </trkpt>
      <trkpt lat="49.90727" lon="2.28172">
        <ele>20.6</ele>
        <time>2022-04-11T09:06:19Z</time>
      </trkpt>
      <trkpt lat="49.90728" lon="2.28172">
        <ele>20.6</ele>
        <time>2022-04-11T09:06:20Z</time>
      </trkpt>
      <trkpt lat="49.9073" lon="2.28171">
        <ele>20.6</ele>
        <time>2022-04-11T09:06:22Z</time>
      </trkpt>
      <trkpt lat="49.90731" lon="2.2817">
        <ele>20.6</ele>
        <time>2022-04-11T09:06:23Z</time>
      </trkpt>
      <trkpt lat="49.90733" lon="2.28169">
        <ele>20.6</ele>
        <time>2022-04-11T09:06:24Z</time>
      </trkpt>
      <trkpt lat="49.90734" lon="2.28168">
        <ele>20.6</ele>
        <time>2022-04-11T09:06:25Z</time>
      </trkpt>
      <trkpt lat="49.90734" lon="2.28168">
        <ele>20.6</ele>
        <time>2022-04-11T09:06:26Z</time>
      </trkpt>
      <trkpt lat="49.90736" lon="2.28167">
        <ele>20.6</ele>
        <time>2022-04-11T09:06:27Z</time>
      </trkpt>
      <trkpt lat="49.90737" lon="2.28166">
        <ele>20.6</ele>
        <time>2022-04-11T09:06:28Z</time>
      </trkpt>
      <trkpt lat="49.90738" lon="2.28165">
        <ele>20.6</ele>
        <time>2022-04-11T09:06:29Z</time>
      </trkpt>
      <trkpt lat="49.90739" lon="2.28164">
        <ele>20.6</ele>
        <time>2022-04-11T09:06:30Z</time>
      </trkpt>
      <trkpt lat="49.90741" lon="2.28164">
        <ele>20.5</ele>
        <time>2022-04-11T09:06:32Z</time>
      </trkpt>
      <trkpt lat="49.90743" lon="2.28162">
        <ele>20.5</ele>
        <time>2022-04-11T09:06:33Z</time>
      </trkpt>
      <trkpt lat="49.90744" lon="2.28162">
        <ele>20.5</ele>
        <time>2022-04-11T09:06:34Z</time>
      </trkpt>
      <trkpt lat="49.90744" lon="2.28161">
        <ele>20.5</ele>
        <time>2022-04-11T09:06:35Z</time>
      </trkpt>
      <trkpt lat="49.90745" lon="2.2816">
        <ele>20.5</ele>
        <time>2022-04-11T09:06:36Z</time>
      </trkpt>
      <trkpt lat="49.90746" lon="2.28159">
        <ele>20.5</ele>
        <time>2022-04-11T09:06:37Z</time>
      </trkpt>
      <trkpt lat="49.90746" lon="2.28157">
        <ele>20.5</ele>
        <time>2022-04-11T09:06:38Z</time>
      </trkpt>
      <trkpt lat="49.90747" lon="2.28155">
        <ele>20.5</ele>
        <time>2022-04-11T09:06:40Z</time>
      </trkpt>
      <trkpt lat="49.90748" lon="2.28154">
        <ele>20.5</ele>
        <time>2022-04-11T09:06:41Z</time>
      </trkpt>
      <trkpt lat="49.9075" lon="2.28153">
        <ele>20.5</ele>
        <time>2022-04-11T09:06:42Z</time>
      </trkpt>
      <trkpt lat="49.90751" lon="2.28152">
        <ele>20.5</ele>
        <time>2022-04-11T09:06:43Z</time>
      </trkpt>
      <trkpt lat="49.90752" lon="2.28151">
        <ele>20.5</ele>
        <time>2022-04-11T09:06:44Z</time>
      </trkpt>
      <trkpt lat="49.90753" lon="2.28149">
        <ele>20.5</ele>
        <time>2022-04-11T09:06:45Z</time>
      </trkpt>
      <trkpt lat="49.90755" lon="2.28148">
        <ele>20.5</ele>
        <time>2022-04-11T09:06:46Z</time>
      </trkpt>
      <trkpt lat="49.90756" lon="2.28146">
        <ele>20.5</ele>
        <time>2022-04-11T09:06:47Z</time>
      </trkpt>
      <trkpt lat="49.90757" lon="2.28144">
        <ele>20.5</ele>
        <time>2022-04-11T09:06:49Z</time>
      </trkpt>
      <trkpt lat="49.90758" lon="2.28143">
        <ele>20.5</ele>
        <time>2022-04-11T09:06:50Z</time>
      </trkpt>
      <trkpt lat="49.90758" lon="2.28142">
        <ele>20.5</ele>
        <time>2022-04-11T09:06:51Z</time>
      </trkpt>
      <trkpt lat="49.9076" lon="2.28138">
        <ele>20.5</ele>
        <time>2022-04-11T09:06:52Z</time>
      </trkpt>
      <trkpt lat="49.9076" lon="2.28137">
        <ele>20.5</ele>
        <time>2022-04-11T09:06:54Z</time>
      </trkpt>
      <trkpt lat="49.90761" lon="2.28135">
        <ele>20.5</ele>
        <time>2022-04-11T09:06:55Z</time>
      </trkpt>
      <trkpt lat="49.90761" lon="2.28133">
        <ele>20.5</ele>
        <time>2022-04-11T09:06:56Z</time>
      </trkpt>
      <trkpt lat="49.90762" lon="2.28132">
        <ele>20.5</ele>
        <time>2022-04-11T09:06:58Z</time>
      </trkpt>
      <trkpt lat="49.90762" lon="2.2813">
        <ele>20.5</ele>
        <time>2022-04-11T09:06:59Z</time>
      </trkpt>
      <trkpt lat="49.90763" lon="2.28128">
        <ele>20.5</ele>
        <time>2022-04-11T09:07:00Z</time>
      </trkpt>
      <trkpt lat="49.90763" lon="2.28125">
        <ele>20.5</ele>
        <time>2022-04-11T09:07:01Z</time>
      </trkpt>
      <trkpt lat="49.90764" lon="2.28124">
        <ele>20.5</ele>
        <time>2022-04-11T09:07:02Z</time>
      </trkpt>
      <trkpt lat="49.90764" lon="2.28123">
        <ele>20.5</ele>
        <time>2022-04-11T09:07:03Z</time>
      </trkpt>
      <trkpt lat="49.90765" lon="2.28121">
        <ele>20.5</ele>
        <time>2022-04-11T09:07:04Z</time>
      </trkpt>
      <trkpt lat="49.90765" lon="2.28119">
        <ele>20.4</ele>
        <time>2022-04-11T09:07:05Z</time>
      </trkpt>
      <trkpt lat="49.90766" lon="2.28116">
        <ele>20.4</ele>
        <time>2022-04-11T09:07:06Z</time>
      </trkpt>
      <trkpt lat="49.90766" lon="2.28115">
        <ele>20.4</ele>
        <time>2022-04-11T09:07:08Z</time>
      </trkpt>
      <trkpt lat="49.90767" lon="2.28113">
        <ele>20.4</ele>
        <time>2022-04-11T09:07:09Z</time>
      </trkpt>
      <trkpt lat="49.90767" lon="2.28111">
        <ele>20.4</ele>
        <time>2022-04-11T09:07:10Z</time>
      </trkpt>
      <trkpt lat="49.90768" lon="2.28109">
        <ele>20.4</ele>
        <time>2022-04-11T09:07:11Z</time>
      </trkpt>
      <trkpt lat="49.90768" lon="2.28107">
        <ele>20.4</ele>
        <time>2022-04-11T09:07:12Z</time>
      </trkpt>
      <trkpt lat="49.90769" lon="2.28105">
        <ele>20.4</ele>
        <time>2022-04-11T09:07:13Z</time>
      </trkpt>
      <trkpt lat="49.9077" lon="2.28102">
        <ele>20.4</ele>
        <time>2022-04-11T09:07:14Z</time>
      </trkpt>
      <trkpt lat="49.90771" lon="2.28101">
        <ele>20.4</ele>
        <time>2022-04-11T09:07:16Z</time>
      </trkpt>
      <trkpt lat="49.90771" lon="2.281">
        <ele>20.4</ele>
        <time>2022-04-11T09:07:17Z</time>
      </trkpt>
      <trkpt lat="49.90772" lon="2.28098">
        <ele>20.4</ele>
        <time>2022-04-11T09:07:18Z</time>
      </trkpt>
      <trkpt lat="49.90772" lon="2.28096">
        <ele>20.4</ele>
        <time>2022-04-11T09:07:19Z</time>
      </trkpt>
      <trkpt lat="49.90773" lon="2.28094">
        <ele>20.4</ele>
        <time>2022-04-11T09:07:20Z</time>
      </trkpt>
      <trkpt lat="49.90773" lon="2.28092">
        <ele>20.4</ele>
        <time>2022-04-11T09:07:21Z</time>
      </trkpt>
      <trkpt lat="49.90775" lon="2.28089">
        <ele>20.4</ele>
        <time>2022-04-11T09:07:23Z</time>
      </trkpt>
      <trkpt lat="49.90775" lon="2.28088">
        <ele>20.4</ele>
        <time>2022-04-11T09:07:24Z</time>
      </trkpt>
      <trkpt lat="49.90776" lon="2.28087">
        <ele>20.4</ele>
        <time>2022-04-11T09:07:25Z</time>
      </trkpt>
      <trkpt lat="49.90777" lon="2.28085">
        <ele>20.4</ele>
        <time>2022-04-11T09:07:26Z</time>
      </trkpt>
      <trkpt lat="49.90777" lon="2.28083">
        <ele>20.4</ele>
        <time>2022-04-11T09:07:27Z</time>
      </trkpt>
      <trkpt lat="49.90778" lon="2.28082">
        <ele>20.4</ele>
        <time>2022-04-11T09:07:29Z</time>
      </trkpt>
      <trkpt lat="49.90779" lon="2.28081">
        <ele>20.4</ele>
        <time>2022-04-11T09:07:30Z</time>
      </trkpt>
      <trkpt lat="49.9078" lon="2.2808">
        <ele>20.4</ele>
        <time>2022-04-11T09:07:31Z</time>
      </trkpt>
      <trkpt lat="49.90782" lon="2.2808">
        <ele>20.4</ele>
        <time>2022-04-11T09:07:32Z</time>
      </trkpt>
      <trkpt lat="49.90783" lon="2.2808">
        <ele>20.4</ele>
        <time>2022-04-11T09:07:33Z</time>
      </trkpt>
      <trkpt lat="49.90784" lon="2.2808">
        <ele>20.4</ele>
        <time>2022-04-11T09:07:34Z</time>
      </trkpt>
      <trkpt lat="49.90786" lon="2.28082">
        <ele>20.4</ele>
        <time>2022-04-11T09:07:35Z</time>
      </trkpt>
      <trkpt lat="49.90786" lon="2.28083">
        <ele>20.4</ele>
        <time>2022-04-11T09:07:37Z</time>
      </trkpt>
      <trkpt lat="49.90787" lon="2.28084">
        <ele>20.4</ele>
        <time>2022-04-11T09:07:38Z</time>
      </trkpt>
      <trkpt lat="49.90789" lon="2.28086">
        <ele>20.4</ele>
        <time>2022-04-11T09:07:39Z</time>
      </trkpt>
      <trkpt lat="49.90789" lon="2.28086">
        <ele>20.4</ele>
        <time>2022-04-11T09:07:40Z</time>
      </trkpt>
      <trkpt lat="49.9079" lon="2.28087">
        <ele>20.4</ele>
        <time>2022-04-11T09:07:41Z</time>
      </trkpt>
      <trkpt lat="49.90791" lon="2.28088">
        <ele>20.4</ele>
        <time>2022-04-11T09:07:42Z</time>
      </trkpt>
      <trkpt lat="49.90792" lon="2.28089">
        <ele>20.4</ele>
        <time>2022-04-11T09:07:43Z</time>
      </trkpt>
      <trkpt lat="49.90793" lon="2.2809">
        <ele>20.4</ele>
        <time>2022-04-11T09:07:44Z</time>
      </trkpt>
      <trkpt lat="49.90794" lon="2.28092">
        <ele>20.4</ele>
        <time>2022-04-11T09:07:45Z</time>
      </trkpt>
      <trkpt lat="49.90794" lon="2.28093">
        <ele>20.4</ele>
        <time>2022-04-11T09:07:46Z</time>
      </trkpt>
      <trkpt lat="49.90795" lon="2.28094">
        <ele>20.4</ele>
        <time>2022-04-11T09:07:48Z</time>
      </trkpt>
      <trkpt lat="49.90796" lon="2.28095">
        <ele>20.4</ele>
        <time>2022-04-11T09:07:49Z</time>
      </trkpt>
      <trkpt lat="49.90797" lon="2.28096">
        <ele>20.4</ele>
        <time>2022-04-11T09:07:50Z</time>
      </trkpt>
      <trkpt lat="49.90797" lon="2.28097">
        <ele>20.4</ele>
        <time>2022-04-11T09:07:51Z</time>
      </trkpt>
      <trkpt lat="49.90798" lon="2.28098">
        <ele>20.4</ele>
        <time>2022-04-11T09:07:52Z</time>
      </trkpt>
      <trkpt lat="49.90798" lon="2.28099">
        <ele>20.4</ele>
        <time>2022-04-11T09:07:53Z</time>
      </trkpt>
      <trkpt lat="49.90799" lon="2.281">
        <ele>20.4</ele>
        <time>2022-04-11T09:07:54Z</time>
      </trkpt>
      <trkpt lat="49.90799" lon="2.28101">
        <ele>20.4</ele>
        <time>2022-04-11T09:07:55Z</time>
      </trkpt>
      <trkpt lat="49.908" lon="2.28102">
        <ele>20.4</ele>
        <time>2022-04-11T09:07:57Z</time>
      </trkpt>
      <trkpt lat="49.908" lon="2.28103">
        <ele>20.4</ele>
        <time>2022-04-11T09:07:58Z</time>
      </trkpt>
      <trkpt lat="49.90801" lon="2.28104">
        <ele>20.4</ele>
        <time>2022-04-11T09:07:59Z</time>
      </trkpt>
      <trkpt lat="49.90801" lon="2.28104">
        <ele>20.4</ele>
        <time>2022-04-11T09:08:00Z</time>
      </trkpt>
      <trkpt lat="49.90802" lon="2.28105">
        <ele>20.4</ele>
        <time>2022-04-11T09:08:01Z</time>
      </trkpt>
      <trkpt lat="49.90803" lon="2.28106">
        <ele>20.4</ele>
        <time>2022-04-11T09:08:02Z</time>
      </trkpt>
      <trkpt lat="49.90803" lon="2.28107">
        <ele>20.4</ele>
        <time>2022-04-11T09:08:03Z</time>
      </trkpt>
      <trkpt lat="49.90803" lon="2.28108">
        <ele>20.4</ele>
        <time>2022-04-11T09:08:04Z</time>
      </trkpt>
      <trkpt lat="49.90803" lon="2.28108">
        <ele>20.4</ele>
        <time>2022-04-11T09:08:05Z</time>
      </trkpt>
      <trkpt lat="49.90803" lon="2.28109">
        <ele>20.4</ele>
        <time>2022-04-11T09:08:07Z</time>
      </trkpt>
      <trkpt lat="49.90804" lon="2.2811">
        <ele>20.4</ele>
        <time>2022-04-11T09:08:08Z</time>
      </trkpt>
      <trkpt lat="49.90803" lon="2.28111">
        <ele>20.4</ele>
        <time>2022-04-11T09:08:09Z</time>
      </trkpt>
      <trkpt lat="49.90803" lon="2.28112">
        <ele>20.4</ele>
        <time>2022-04-11T09:08:10Z</time>
      </trkpt>
      <trkpt lat="49.90803" lon="2.28114">
        <ele>20.4</ele>
        <time>2022-04-11T09:08:11Z</time>
      </trkpt>
      <trkpt lat="49.90803" lon="2.28115">
        <ele>20.4</ele>
        <time>2022-04-11T09:08:12Z</time>
      </trkpt>
      <trkpt lat="49.90803" lon="2.28116">
        <ele>20.4</ele>
        <time>2022-04-11T09:08:13Z</time>
      </trkpt>
      <trkpt lat="49.90803" lon="2.28117">
        <ele>20.4</ele>
        <time>2022-04-11T09:08:15Z</time>
      </trkpt>
      <trkpt lat="49.90803" lon="2.28119">
        <ele>20.4</ele>
        <time>2022-04-11T09:08:16Z</time>
      </trkpt>
      <trkpt lat="49.90804" lon="2.2812">
        <ele>20.4</ele>
        <time>2022-04-11T09:08:17Z</time>
      </trkpt>
      <trkpt lat="49.90805" lon="2.28121">
        <ele>20.4</ele>
        <time>2022-04-11T09:08:18Z</time>
      </trkpt>
      <trkpt lat="49.90806" lon="2.28123">
        <ele>20.4</ele>
        <time>2022-04-11T09:08:19Z</time>
      </trkpt>
      <trkpt lat="49.90807" lon="2.28123">
        <ele>20.5</ele>
        <time>2022-04-11T09:08:20Z</time>
      </trkpt>
      <trkpt lat="49.90809" lon="2.28124">
        <ele>20.5</ele>
        <time>2022-04-11T09:08:21Z</time>
      </trkpt>
      <trkpt lat="49.9081" lon="2.28125">
        <ele>20.5</ele>
        <time>2022-04-11T09:08:22Z</time>
      </trkpt>
      <trkpt lat="49.90812" lon="2.28125">
        <ele>20.5</ele>
        <time>2022-04-11T09:08:24Z</time>
      </trkpt>
      <trkpt lat="49.90813" lon="2.28125">
        <ele>20.5</ele>
        <time>2022-04-11T09:08:25Z</time>
      </trkpt>
      <trkpt lat="49.90814" lon="2.28126">
        <ele>20.5</ele>
        <time>2022-04-11T09:08:26Z</time>
      </trkpt>
      <trkpt lat="49.90816" lon="2.28127">
        <ele>20.5</ele>
        <time>2022-04-11T09:08:27Z</time>
      </trkpt>
      <trkpt lat="49.90817" lon="2.28128">
        <ele>20.5</ele>
        <time>2022-04-11T09:08:28Z</time>
      </trkpt>
      <trkpt lat="49.90819" lon="2.28129">
        <ele>20.5</ele>
        <time>2022-04-11T09:08:29Z</time>
      </trkpt>
      <trkpt lat="49.9082" lon="2.28129">
        <ele>20.5</ele>
        <time>2022-04-11T09:08:30Z</time>
      </trkpt>
      <trkpt lat="49.90821" lon="2.2813">
        <ele>20.5</ele>
        <time>2022-04-11T09:08:31Z</time>
      </trkpt>
      <trkpt lat="49.90823" lon="2.28131">
        <ele>20.5</ele>
        <time>2022-04-11T09:08:33Z</time>
      </trkpt>
      <trkpt lat="49.90824" lon="2.28132">
        <ele>20.5</ele>
        <time>2022-04-11T09:08:34Z</time>
      </trkpt>
      <trkpt lat="49.90826" lon="2.28132">
        <ele>20.5</ele>
        <time>2022-04-11T09:08:35Z</time>
      </trkpt>
      <trkpt lat="49.90828" lon="2.28132">
        <ele>20.5</ele>
        <time>2022-04-11T09:08:36Z</time>
      </trkpt>
      <trkpt lat="49.9083" lon="2.28132">
        <ele>20.5</ele>
        <time>2022-04-11T09:08:37Z</time>
      </trkpt>
      <trkpt lat="49.90831" lon="2.28132">
        <ele>20.5</ele>
        <time>2022-04-11T09:08:38Z</time>
      </trkpt>
      <trkpt lat="49.90833" lon="2.28132">
        <ele>20.5</ele>
        <time>2022-04-11T09:08:39Z</time>
      </trkpt>
      <trkpt lat="49.90835" lon="2.28132">
        <ele>20.5</ele>
        <time>2022-04-11T09:08:41Z</time>
      </trkpt>
      <trkpt lat="49.90836" lon="2.28131">
        <ele>20.5</ele>
        <time>2022-04-11T09:08:42Z</time>
      </trkpt>
      <trkpt lat="49.90838" lon="2.28131">
        <ele>20.5</ele>
        <time>2022-04-11T09:08:43Z</time>
      </trkpt>
      <trkpt lat="49.90839" lon="2.2813">
        <ele>20.5</ele>
        <time>2022-04-11T09:08:44Z</time>
      </trkpt>
      <trkpt lat="49.90841" lon="2.2813">
        <ele>20.5</ele>
        <time>2022-04-11T09:08:45Z</time>
      </trkpt>
      <trkpt lat="49.90842" lon="2.28129">
        <ele>20.5</ele>
        <time>2022-04-11T09:08:47Z</time>
      </trkpt>
      <trkpt lat="49.90843" lon="2.28128">
        <ele>20.5</ele>
        <time>2022-04-11T09:08:48Z</time>
      </trkpt>
      <trkpt lat="49.90843" lon="2.28126">
        <ele>20.5</ele>
        <time>2022-04-11T09:08:49Z</time>
      </trkpt>
      <trkpt lat="49.90844" lon="2.28125">
        <ele>20.5</ele>
        <time>2022-04-11T09:08:50Z</time>
      </trkpt>
      <trkpt lat="49.90844" lon="2.28124">
        <ele>20.5</ele>
        <time>2022-04-11T09:08:51Z</time>
      </trkpt>
      <trkpt lat="49.90844" lon="2.28123">
        <ele>20.5</ele>
        <time>2022-04-11T09:08:52Z</time>
      </trkpt>
      <trkpt lat="49.90844" lon="2.28122">
        <ele>20.5</ele>
        <time>2022-04-11T09:08:53Z</time>
      </trkpt>
      <trkpt lat="49.90844" lon="2.28121">
        <ele>20.5</ele>
        <time>2022-04-11T09:08:54Z</time>
      </trkpt>
      <trkpt lat="49.90844" lon="2.28121">
        <ele>20.5</ele>
        <time>2022-04-11T09:08:55Z</time>
      </trkpt>
      <trkpt lat="49.90843" lon="2.28121">
        <ele>20.5</ele>
        <time>2022-04-11T09:08:56Z</time>
      </trkpt>
      <trkpt lat="49.90843" lon="2.28121">
        <ele>20.5</ele>
        <time>2022-04-11T09:08:57Z</time>
      </trkpt>
      <trkpt lat="49.90843" lon="2.28121">
        <ele>20.5</ele>
        <time>2022-04-11T09:08:58Z</time>
      </trkpt>
      <trkpt lat="49.90843" lon="2.2812">
        <ele>20.5</ele>
        <time>2022-04-11T09:08:59Z</time>
      </trkpt>
      <trkpt lat="49.90843" lon="2.2812">
        <ele>20.5</ele>
        <time>2022-04-11T09:09:00Z</time>
      </trkpt>
      <trkpt lat="49.90843" lon="2.2812">
        <ele>20.5</ele>
        <time>2022-04-11T09:09:01Z</time>
      </trkpt>
      <trkpt lat="49.90843" lon="2.2812">
        <ele>20.5</ele>
        <time>2022-04-11T09:09:02Z</time>
      </trkpt>
      <trkpt lat="49.90843" lon="2.2812">
        <ele>20.5</ele>
        <time>2022-04-11T09:09:03Z</time>
      </trkpt>
      <trkpt lat="49.90842" lon="2.28121">
        <ele>20.5</ele>
        <time>2022-04-11T09:09:04Z</time>
      </trkpt>
      <trkpt lat="49.90842" lon="2.28121">
        <ele>20.5</ele>
        <time>2022-04-11T09:09:05Z</time>
      </trkpt>
      <trkpt lat="49.90842" lon="2.28121">
        <ele>20.5</ele>
        <time>2022-04-11T09:09:06Z</time>
      </trkpt>
      <trkpt lat="49.90842" lon="2.28121">
        <ele>20.5</ele>
        <time>2022-04-11T09:09:07Z</time>
      </trkpt>
      <trkpt lat="49.90842" lon="2.28122">
        <ele>20.5</ele>
        <time>2022-04-11T09:09:08Z</time>
      </trkpt>
      <trkpt lat="49.90842" lon="2.28122">
        <ele>20.5</ele>
        <time>2022-04-11T09:09:09Z</time>
      </trkpt>
      <trkpt lat="49.90841" lon="2.28122">
        <ele>20.5</ele>
        <time>2022-04-11T09:09:10Z</time>
      </trkpt>
      <trkpt lat="49.90841" lon="2.28122">
        <ele>20.5</ele>
        <time>2022-04-11T09:09:11Z</time>
      </trkpt>
      <trkpt lat="49.90841" lon="2.28122">
        <ele>20.5</ele>
        <time>2022-04-11T09:09:12Z</time>
      </trkpt>
      <trkpt lat="49.90841" lon="2.28122">
        <ele>20.5</ele>
        <time>2022-04-11T09:09:13Z</time>
      </trkpt>
      <trkpt lat="49.90841" lon="2.28122">
        <ele>20.5</ele>
        <time>2022-04-11T09:09:14Z</time>
      </trkpt>
      <trkpt lat="49.90841" lon="2.28122">
        <ele>20.5</ele>
        <time>2022-04-11T09:09:15Z</time>
      </trkpt>
      <trkpt lat="49.90841" lon="2.28122">
        <ele>20.5</ele>
        <time>2022-04-11T09:09:16Z</time>
      </trkpt>
      <trkpt lat="49.90841" lon="2.28122">
        <ele>20.5</ele>
        <time>2022-04-11T09:09:17Z</time>
      </trkpt>
      <trkpt lat="49.90841" lon="2.28122">
        <ele>20.5</ele>
        <time>2022-04-11T09:09:18Z</time>
      </trkpt>
      <trkpt lat="49.90841" lon="2.28122">
        <ele>20.5</ele>
        <time>2022-04-11T09:09:19Z</time>
      </trkpt>
      <trkpt lat="49.90841" lon="2.28122">
        <ele>20.5</ele>
        <time>2022-04-11T09:09:20Z</time>
      </trkpt>
      <trkpt lat="49.90841" lon="2.28122">
        <ele>20.5</ele>
        <time>2022-04-11T09:09:21Z</time>
      </trkpt>
      <trkpt lat="49.90841" lon="2.28122">
        <ele>20.5</ele>
        <time>2022-04-11T09:09:22Z</time>
      </trkpt>
      <trkpt lat="49.90841" lon="2.28123">
        <ele>20.5</ele>
        <time>2022-04-11T09:09:23Z</time>
      </trkpt>
      <trkpt lat="49.90841" lon="2.28123">
        <ele>20.5</ele>
        <time>2022-04-11T09:09:24Z</time>
      </trkpt>
      <trkpt lat="49.90841" lon="2.28123">
        <ele>20.5</ele>
        <time>2022-04-11T09:09:25Z</time>
      </trkpt>
      <trkpt lat="49.90841" lon="2.28123">
        <ele>20.5</ele>
        <time>2022-04-11T09:09:26Z</time>
      </trkpt>
      <trkpt lat="49.90841" lon="2.28123">
        <ele>20.5</ele>
        <time>2022-04-11T09:09:27Z</time>
      </trkpt>
      <trkpt lat="49.90841" lon="2.28123">
        <ele>20.5</ele>
        <time>2022-04-11T09:09:28Z</time>
      </trkpt>
      <trkpt lat="49.90841" lon="2.28123">
        <ele>20.5</ele>
        <time>2022-04-11T09:09:29Z</time>
      </trkpt>
      <trkpt lat="49.90841" lon="2.28123">
        <ele>20.5</ele>
        <time>2022-04-11T09:09:30Z</time>
      </trkpt>
      <trkpt lat="49.90841" lon="2.28123">
        <ele>20.5</ele>
        <time>2022-04-11T09:09:31Z</time>
      </trkpt>
      <trkpt lat="49.90841" lon="2.28123">
        <ele>20.5</ele>
        <time>2022-04-11T09:09:32Z</time>
      </trkpt>
      <trkpt lat="49.90841" lon="2.28123">
        <ele>20.5</ele>
        <time>2022-04-11T09:09:33Z</time>
      </trkpt>
      <trkpt lat="49.90841" lon="2.28123">
        <ele>20.5</ele>
        <time>2022-04-11T09:09:34Z</time>
      </trkpt>
      <trkpt lat="49.90841" lon="2.28123">
        <ele>20.5</ele>
        <time>2022-04-11T09:09:35Z</time>
      </trkpt>
      <trkpt lat="49.90841" lon="2.28123">
        <ele>20.5</ele>
        <time>2022-04-11T09:09:36Z</time>
      </trkpt>
      <trkpt lat="49.90841" lon="2.28123">
        <ele>20.5</ele>
        <time>2022-04-11T09:09:37Z</time>
      </trkpt>
      <trkpt lat="49.90841" lon="2.28123">
        <ele>20.5</ele>
        <time>2022-04-11T09:09:38Z</time>
      </trkpt>
      <trkpt lat="49.90841" lon="2.28123">
        <ele>20.5</ele>
        <time>2022-04-11T09:09:39Z</time>
      </trkpt>
      <trkpt lat="49.90841" lon="2.28123">
        <ele>20.5</ele>
        <time>2022-04-11T09:09:40Z</time>
      </trkpt>
      <trkpt lat="49.90841" lon="2.28123">
        <ele>20.5</ele>
        <time>2022-04-11T09:09:41Z</time>
      </trkpt>
      <trkpt lat="49.90841" lon="2.28123">
        <ele>20.5</ele>
        <time>2022-04-11T09:09:42Z</time>
      </trkpt>
      <trkpt lat="49.90841" lon="2.28123">
        <ele>20.5</ele>
        <time>2022-04-11T09:09:43Z</time>
      </trkpt>
      <trkpt lat="49.90841" lon="2.28123">
        <ele>20.5</ele>
        <time>2022-04-11T09:09:44Z</time>
      </trkpt>
      <trkpt lat="49.90841" lon="2.28123">
        <ele>20.5</ele>
        <time>2022-04-11T09:09:45Z</time>
      </trkpt>
      <trkpt lat="49.90841" lon="2.28123">
        <ele>20.5</ele>
        <time>2022-04-11T09:09:46Z</time>
      </trkpt>
      <trkpt lat="49.90841" lon="2.28123">
        <ele>20.5</ele>
        <time>2022-04-11T09:09:47Z</time>
      </trkpt>
      <trkpt lat="49.90841" lon="2.28123">
        <ele>20.5</ele>
        <time>2022-04-11T09:09:48Z</time>
      </trkpt>
      <trkpt lat="49.90841" lon="2.28123">
        <ele>20.5</ele>
        <time>2022-04-11T09:09:49Z</time>
      </trkpt>
      <trkpt lat="49.90841" lon="2.28123">
        <ele>20.5</ele>
        <time>2022-04-11T09:09:50Z</time>
      </trkpt>
      <trkpt lat="49.90841" lon="2.28123">
        <ele>20.5</ele>
        <time>2022-04-11T09:09:51Z</time>
      </trkpt>
      <trkpt lat="49.90841" lon="2.28123">
        <ele>20.5</ele>
        <time>2022-04-11T09:09:52Z</time>
      </trkpt>
      <trkpt lat="49.90841" lon="2.28123">
        <ele>20.5</ele>
        <time>2022-04-11T09:09:53Z</time>
      </trkpt>
      <trkpt lat="49.90841" lon="2.28123">
        <ele>20.5</ele>
        <time>2022-04-11T09:09:54Z</time>
      </trkpt>
      <trkpt lat="49.90841" lon="2.28123">
        <ele>20.5</ele>
        <time>2022-04-11T09:09:55Z</time>
      </trkpt>
      <trkpt lat="49.90841" lon="2.28123">
        <ele>20.5</ele>
        <time>2022-04-11T09:09:56Z</time>
      </trkpt>
      <trkpt lat="49.90841" lon="2.28123">
        <ele>20.5</ele>
        <time>2022-04-11T09:09:57Z</time>
      </trkpt>
      <trkpt lat="49.90841" lon="2.28123">
        <ele>20.5</ele>
        <time>2022-04-11T09:09:58Z</time>
      </trkpt>
      <trkpt lat="49.90841" lon="2.28123">
        <ele>20.5</ele>
        <time>2022-04-11T09:09:59Z</time>
      </trkpt>
      <trkpt lat="49.90841" lon="2.28123">
        <ele>20.5</ele>
        <time>2022-04-11T09:10:00Z</time>
      </trkpt>
      <trkpt lat="49.90841" lon="2.28123">
        <ele>20.5</ele>
        <time>2022-04-11T09:10:01Z</time>
      </trkpt>
      <trkpt lat="49.90841" lon="2.28123">
        <ele>20.5</ele>
        <time>2022-04-11T09:10:02Z</time>
      </trkpt>
      <trkpt lat="49.90841" lon="2.28123">
        <ele>20.5</ele>
        <time>2022-04-11T09:10:03Z</time>
      </trkpt>
      <trkpt lat="49.90841" lon="2.28123">
        <ele>20.5</ele>
        <time>2022-04-11T09:10:04Z</time>
      </trkpt>
      <trkpt lat="49.90841" lon="2.28123">
        <ele>20.5</ele>
        <time>2022-04-11T09:10:05Z</time>
      </trkpt>
      <trkpt lat="49.90841" lon="2.28123">
        <ele>20.5</ele>
        <time>2022-04-11T09:10:06Z</time>
      </trkpt>
      <trkpt lat="49.90841" lon="2.28123">
        <ele>20.5</ele>
        <time>2022-04-11T09:10:07Z</time>
      </trkpt>
      <trkpt lat="49.90841" lon="2.28123">
        <ele>20.5</ele>
        <time>2022-04-11T09:10:08Z</time>
      </trkpt>
      <trkpt lat="49.90841" lon="2.28123">
        <ele>20.5</ele>
        <time>2022-04-11T09:10:09Z</time>
      </trkpt>
      <trkpt lat="49.90841" lon="2.28123">
        <ele>20.5</ele>
        <time>2022-04-11T09:10:10Z</time>
      </trkpt>
      <trkpt lat="49.90841" lon="2.28123">
        <ele>20.5</ele>
        <time>2022-04-11T09:10:11Z</time>
      </trkpt>
      <trkpt lat="49.90841" lon="2.28123">
        <ele>20.5</ele>
        <time>2022-04-11T09:10:12Z</time>
      </trkpt>
      <trkpt lat="49.90841" lon="2.28123">
        <ele>20.5</ele>
        <time>2022-04-11T09:10:13Z</time>
      </trkpt>
      <trkpt lat="49.90841" lon="2.28123">
        <ele>20.5</ele>
        <time>2022-04-11T09:10:14Z</time>
      </trkpt>
      <trkpt lat="49.90841" lon="2.28123">
        <ele>20.5</ele>
        <time>2022-04-11T09:10:15Z</time>
      </trkpt>
      <trkpt lat="49.90841" lon="2.28123">
        <ele>20.5</ele>
        <time>2022-04-11T09:10:16Z</time>
      </trkpt>
      <trkpt lat="49.90841" lon="2.28123">
        <ele>20.5</ele>
        <time>2022-04-11T09:10:17Z</time>
      </trkpt>
      <trkpt lat="49.90841" lon="2.28123">
        <ele>20.5</ele>
        <time>2022-04-11T09:10:18Z</time>
      </trkpt>
      <trkpt lat="49.90841" lon="2.28123">
        <ele>20.5</ele>
        <time>2022-04-11T09:10:19Z</time>
      </trkpt>
      <trkpt lat="49.90841" lon="2.28123">
        <ele>20.5</ele>
        <time>2022-04-11T09:10:20Z</time>
      </trkpt>
      <trkpt lat="49.90841" lon="2.28123">
        <ele>20.5</ele>
        <time>2022-04-11T09:10:21Z</time>
      </trkpt>
      <trkpt lat="49.90841" lon="2.28123">
        <ele>20.5</ele>
        <time>2022-04-11T09:10:22Z</time>
      </trkpt>
      <trkpt lat="49.90841" lon="2.28123">
        <ele>20.5</ele>
        <time>2022-04-11T09:10:23Z</time>
      </trkpt>
      <trkpt lat="49.90841" lon="2.28123">
        <ele>20.5</ele>
        <time>2022-04-11T09:10:24Z</time>
      </trkpt>
      <trkpt lat="49.90841" lon="2.28123">
        <ele>20.5</ele>
        <time>2022-04-11T09:10:25Z</time>
      </trkpt>
      <trkpt lat="49.90841" lon="2.28123">
        <ele>20.5</ele>
        <time>2022-04-11T09:10:26Z</time>
      </trkpt>
      <trkpt lat="49.90841" lon="2.28123">
        <ele>20.5</ele>
        <time>2022-04-11T09:10:27Z</time>
      </trkpt>
      <trkpt lat="49.90841" lon="2.28123">
        <ele>20.5</ele>
        <time>2022-04-11T09:10:28Z</time>
      </trkpt>
      <trkpt lat="49.90841" lon="2.28123">
        <ele>20.5</ele>
        <time>2022-04-11T09:10:29Z</time>
      </trkpt>
      <trkpt lat="49.90841" lon="2.28123">
        <ele>20.5</ele>
        <time>2022-04-11T09:10:30Z</time>
      </trkpt>
      <trkpt lat="49.90841" lon="2.28123">
        <ele>20.5</ele>
        <time>2022-04-11T09:10:31Z</time>
      </trkpt>
      <trkpt lat="49.90841" lon="2.28123">
        <ele>20.5</ele>
        <time>2022-04-11T09:10:32Z</time>
      </trkpt>
      <trkpt lat="49.90841" lon="2.28123">
        <ele>20.5</ele>
        <time>2022-04-11T09:10:33Z</time>
      </trkpt>
      <trkpt lat="49.90841" lon="2.28123">
        <ele>20.5</ele>
        <time>2022-04-11T09:10:34Z</time>
      </trkpt>
      <trkpt lat="49.90841" lon="2.28123">
        <ele>20.5</ele>
        <time>2022-04-11T09:10:35Z</time>
      </trkpt>
      <trkpt lat="49.90841" lon="2.28123">
        <ele>20.5</ele>
        <time>2022-04-11T09:10:36Z</time>
      </trkpt>
      <trkpt lat="49.90841" lon="2.28123">
        <ele>20.5</ele>
        <time>2022-04-11T09:10:37Z</time>
      </trkpt>
      <trkpt lat="49.90841" lon="2.28123">
        <ele>20.5</ele>
        <time>2022-04-11T09:10:38Z</time>
      </trkpt>
      <trkpt lat="49.90841" lon="2.28123">
        <ele>20.5</ele>
        <time>2022-04-11T09:10:39Z</time>
      </trkpt>
      <trkpt lat="49.90841" lon="2.28123">
        <ele>20.5</ele>
        <time>2022-04-11T09:10:40Z</time>
      </trkpt>
      <trkpt lat="49.90841" lon="2.28123">
        <ele>20.5</ele>
        <time>2022-04-11T09:10:41Z</time>
      </trkpt>
      <trkpt lat="49.90841" lon="2.28123">
        <ele>20.5</ele>
        <time>2022-04-11T09:10:42Z</time>
      </trkpt>
      <trkpt lat="49.90841" lon="2.28123">
        <ele>20.5</ele>
        <time>2022-04-11T09:10:43Z</time>
      </trkpt>
      <trkpt lat="49.90841" lon="2.28123">
        <ele>20.5</ele>
        <time>2022-04-11T09:10:44Z</time>
      </trkpt>
      <trkpt lat="49.90841" lon="2.28123">
        <ele>20.5</ele>
        <time>2022-04-11T09:10:45Z</time>
      </trkpt>
      <trkpt lat="49.90841" lon="2.28123">
        <ele>20.5</ele>
        <time>2022-04-11T09:10:46Z</time>
      </trkpt>
      <trkpt lat="49.90841" lon="2.28123">
        <ele>20.5</ele>
        <time>2022-04-11T09:10:47Z</time>
      </trkpt>
      <trkpt lat="49.90841" lon="2.28123">
        <ele>20.5</ele>
        <time>2022-04-11T09:10:48Z</time>
      </trkpt>
      <trkpt lat="49.90841" lon="2.28123">
        <ele>20.5</ele>
        <time>2022-04-11T09:10:49Z</time>
      </trkpt>
      <trkpt lat="49.90841" lon="2.28123">
        <ele>20.5</ele>
        <time>2022-04-11T09:10:50Z</time>
      </trkpt>
      <trkpt lat="49.90841" lon="2.28123">
        <ele>20.5</ele>
        <time>2022-04-11T09:10:51Z</time>
      </trkpt>
      <trkpt lat="49.90841" lon="2.28123">
        <ele>20.5</ele>
        <time>2022-04-11T09:10:52Z</time>
      </trkpt>
      <trkpt lat="49.90841" lon="2.28123">
        <ele>20.5</ele>
        <time>2022-04-11T09:10:53Z</time>
      </trkpt>
      <trkpt lat="49.90841" lon="2.28123">
        <ele>20.5</ele>
        <time>2022-04-11T09:10:54Z</time>
      </trkpt>
      <trkpt lat="49.90841" lon="2.28123">
        <ele>20.5</ele>
        <time>2022-04-11T09:10:55Z</time>
      </trkpt>
      <trkpt lat="49.90841" lon="2.28123">
        <ele>20.5</ele>
        <time>2022-04-11T09:10:56Z</time>
      </trkpt>
      <trkpt lat="49.90841" lon="2.28123">
        <ele>20.5</ele>
        <time>2022-04-11T09:10:57Z</time>
      </trkpt>
      <trkpt lat="49.90841" lon="2.28123">
        <ele>20.5</ele>
        <time>2022-04-11T09:10:58Z</time>
      </trkpt>
      <trkpt lat="49.90841" lon="2.28123">
        <ele>20.5</ele>
        <time>2022-04-11T09:10:59Z</time>
      </trkpt>
      <trkpt lat="49.90841" lon="2.28123">
        <ele>20.5</ele>
        <time>2022-04-11T09:11:00Z</time>
      </trkpt>
      <trkpt lat="49.90841" lon="2.28123">
        <ele>20.5</ele>
        <time>2022-04-11T09:11:01Z</time>
      </trkpt>
      <trkpt lat="49.90841" lon="2.28123">
        <ele>20.5</ele>
        <time>2022-04-11T09:11:02Z</time>
      </trkpt>
      <trkpt lat="49.90841" lon="2.28123">
        <ele>20.5</ele>
        <time>2022-04-11T09:11:03Z</time>
      </trkpt>
      <trkpt lat="49.90841" lon="2.28123">
        <ele>20.5</ele>
        <time>2022-04-11T09:11:04Z</time>
      </trkpt>
      <trkpt lat="49.90841" lon="2.28123">
        <ele>20.5</ele>
        <time>2022-04-11T09:11:05Z</time>
      </trkpt>
      <trkpt lat="49.90841" lon="2.28123">
        <ele>20.5</ele>
        <time>2022-04-11T09:11:06Z</time>
      </trkpt>
      <trkpt lat="49.90841" lon="2.28123">
        <ele>20.5</ele>
        <time>2022-04-11T09:11:07Z</time>
      </trkpt>
      <trkpt lat="49.90841" lon="2.28123">
        <ele>20.5</ele>
        <time>2022-04-11T09:11:08Z</time>
      </trkpt>
      <trkpt lat="49.90841" lon="2.28123">
        <ele>20.5</ele>
        <time>2022-04-11T09:11:09Z</time>
      </trkpt>
      <trkpt lat="49.90841" lon="2.28123">
        <ele>20.5</ele>
        <time>2022-04-11T09:11:10Z</time>
      </trkpt>
      <trkpt lat="49.90841" lon="2.28123">
        <ele>20.5</ele>
        <time>2022-04-11T09:11:11Z</time>
      </trkpt>
      <trkpt lat="49.90841" lon="2.28123">
        <ele>20.5</ele>
        <time>2022-04-11T09:11:12Z</time>
      </trkpt>
      <trkpt lat="49.90841" lon="2.28123">
        <ele>20.5</ele>
        <time>2022-04-11T09:11:13Z</time>
      </trkpt>
      <trkpt lat="49.90841" lon="2.28123">
        <ele>20.5</ele>
        <time>2022-04-11T09:11:14Z</time>
      </trkpt>
      <trkpt lat="49.90841" lon="2.28123">
        <ele>20.5</ele>
        <time>2022-04-11T09:11:15Z</time>
      </trkpt>
      <trkpt lat="49.90841" lon="2.28123">
        <ele>20.5</ele>
        <time>2022-04-11T09:11:16Z</time>
      </trkpt>
      <trkpt lat="49.90841" lon="2.28123">
        <ele>20.5</ele>
        <time>2022-04-11T09:11:17Z</time>
      </trkpt>
      <trkpt lat="49.90841" lon="2.28123">
        <ele>20.5</ele>
        <time>2022-04-11T09:11:18Z</time>
      </trkpt>
      <trkpt lat="49.90841" lon="2.28123">
        <ele>20.5</ele>
        <time>2022-04-11T09:11:19Z</time>
      </trkpt>
      <trkpt lat="49.90841" lon="2.28123">
        <ele>20.5</ele>
        <time>2022-04-11T09:11:20Z</time>
      </trkpt>
      <trkpt lat="49.90841" lon="2.28123">
        <ele>20.5</ele>
        <time>2022-04-11T09:11:21Z</time>
      </trkpt>
      <trkpt lat="49.90841" lon="2.28123">
        <ele>20.5</ele>
        <time>2022-04-11T09:11:22Z</time>
      </trkpt>
      <trkpt lat="49.90841" lon="2.28123">
        <ele>20.5</ele>
        <time>2022-04-11T09:11:23Z</time>
      </trkpt>
      <trkpt lat="49.90841" lon="2.28123">
        <ele>20.5</ele>
        <time>2022-04-11T09:11:24Z</time>
      </trkpt>
      <trkpt lat="49.90841" lon="2.28123">
        <ele>20.5</ele>
        <time>2022-04-11T09:11:25Z</time>
      </trkpt>
      <trkpt lat="49.90841" lon="2.28123">
        <ele>20.5</ele>
        <time>2022-04-11T09:11:26Z</time>
      </trkpt>
      <trkpt lat="49.90841" lon="2.28123">
        <ele>20.5</ele>
        <time>2022-04-11T09:11:27Z</time>
      </trkpt>
      <trkpt lat="49.90841" lon="2.28123">
        <ele>20.5</ele>
        <time>2022-04-11T09:11:28Z</time>
      </trkpt>
      <trkpt lat="49.90841" lon="2.28123">
        <ele>20.5</ele>
        <time>2022-04-11T09:11:29Z</time>
      </trkpt>
      <trkpt lat="49.90841" lon="2.28123">
        <ele>20.5</ele>
        <time>2022-04-11T09:11:30Z</time>
      </trkpt>
      <trkpt lat="49.90841" lon="2.28123">
        <ele>20.5</ele>
        <time>2022-04-11T09:11:31Z</time>
      </trkpt>
      <trkpt lat="49.90841" lon="2.28123">
        <ele>20.5</ele>
        <time>2022-04-11T09:11:32Z</time>
      </trkpt>
      <trkpt lat="49.90841" lon="2.28123">
        <ele>20.5</ele>
        <time>2022-04-11T09:11:33Z</time>
      </trkpt>
      <trkpt lat="49.90841" lon="2.28123">
        <ele>20.5</ele>
        <time>2022-04-11T09:11:34Z</time>
      </trkpt>
      <trkpt lat="49.90841" lon="2.28123">
        <ele>20.5</ele>
        <time>2022-04-11T09:11:35Z</time>
      </trkpt>
      <trkpt lat="49.90841" lon="2.28123">
        <ele>20.5</ele>
        <time>2022-04-11T09:11:36Z</time>
      </trkpt>
      <trkpt lat="49.90841" lon="2.28123">
        <ele>20.5</ele>
        <time>2022-04-11T09:11:37Z</time>
      </trkpt>
      <trkpt lat="49.90841" lon="2.28123">
        <ele>20.5</ele>
        <time>2022-04-11T09:11:38Z</time>
      </trkpt>
      <trkpt lat="49.90841" lon="2.28123">
        <ele>20.5</ele>
        <time>2022-04-11T09:11:39Z</time>
      </trkpt>
      <trkpt lat="49.90841" lon="2.28123">
        <ele>20.5</ele>
        <time>2022-04-11T09:11:40Z</time>
      </trkpt>
      <trkpt lat="49.90841" lon="2.28123">
        <ele>20.5</ele>
        <time>2022-04-11T09:11:41Z</time>
      </trkpt>
      <trkpt lat="49.90841" lon="2.28123">
        <ele>20.5</ele>
        <time>2022-04-11T09:11:42Z</time>
      </trkpt>
      <trkpt lat="49.90841" lon="2.28123">
        <ele>20.5</ele>
        <time>2022-04-11T09:11:43Z</time>
      </trkpt>
      <trkpt lat="49.90841" lon="2.28123">
        <ele>20.5</ele>
        <time>2022-04-11T09:11:44Z</time>
      </trkpt>
      <trkpt lat="49.90841" lon="2.28123">
        <ele>20.5</ele>
        <time>2022-04-11T09:11:45Z</time>
      </trkpt>
      <trkpt lat="49.90841" lon="2.28123">
        <ele>20.5</ele>
        <time>2022-04-11T09:11:46Z</time>
      </trkpt>
      <trkpt lat="49.90841" lon="2.28123">
        <ele>20.5</ele>
        <time>2022-04-11T09:11:47Z</time>
      </trkpt>
      <trkpt lat="49.90841" lon="2.28123">
        <ele>20.5</ele>
        <time>2022-04-11T09:11:48Z</time>
      </trkpt>
      <trkpt lat="49.90841" lon="2.28123">
        <ele>20.5</ele>
        <time>2022-04-11T09:11:49Z</time>
      </trkpt>
      <trkpt lat="49.90841" lon="2.28123">
        <ele>20.5</ele>
        <time>2022-04-11T09:11:50Z</time>
      </trkpt>
      <trkpt lat="49.90841" lon="2.28123">
        <ele>20.5</ele>
        <time>2022-04-11T09:11:51Z</time>
      </trkpt>
      <trkpt lat="49.90841" lon="2.28123">
        <ele>20.5</ele>
        <time>2022-04-11T09:11:52Z</time>
      </trkpt>
      <trkpt lat="49.90841" lon="2.28123">
        <ele>20.5</ele>
        <time>2022-04-11T09:11:53Z</time>
      </trkpt>
      <trkpt lat="49.90841" lon="2.28123">
        <ele>20.5</ele>
        <time>2022-04-11T09:11:54Z</time>
      </trkpt>
      <trkpt lat="49.90841" lon="2.28123">
        <ele>20.5</ele>
        <time>2022-04-11T09:11:55Z</time>
      </trkpt>
      <trkpt lat="49.90841" lon="2.28123">
        <ele>20.5</ele>
        <time>2022-04-11T09:11:56Z</time>
      </trkpt>
      <trkpt lat="49.90841" lon="2.28123">
        <ele>20.5</ele>
        <time>2022-04-11T09:11:57Z</time>
      </trkpt>
      <trkpt lat="49.90841" lon="2.28123">
        <ele>20.5</ele>
        <time>2022-04-11T09:11:58Z</time>
      </trkpt>
      <trkpt lat="49.90841" lon="2.28123">
        <ele>20.5</ele>
        <time>2022-04-11T09:11:59Z</time>
      </trkpt>
      <trkpt lat="49.90841" lon="2.28123">
        <ele>20.5</ele>
        <time>2022-04-11T09:12:00Z</time>
      </trkpt>
      <trkpt lat="49.90841" lon="2.28123">
        <ele>20.5</ele>
        <time>2022-04-11T09:12:01Z</time>
      </trkpt>
      <trkpt lat="49.90841" lon="2.28123">
        <ele>20.5</ele>
        <time>2022-04-11T09:12:02Z</time>
      </trkpt>
      <trkpt lat="49.90841" lon="2.28123">
        <ele>20.5</ele>
        <time>2022-04-11T09:12:03Z</time>
      </trkpt>
      <trkpt lat="49.90841" lon="2.28123">
        <ele>20.5</ele>
        <time>2022-04-11T09:12:04Z</time>
      </trkpt>
      <trkpt lat="49.90841" lon="2.28123">
        <ele>20.5</ele>
        <time>2022-04-11T09:12:05Z</time>
      </trkpt>
      <trkpt lat="49.90841" lon="2.28123">
        <ele>20.5</ele>
        <time>2022-04-11T09:12:06Z</time>
      </trkpt>
      <trkpt lat="49.90841" lon="2.28123">
        <ele>20.5</ele>
        <time>2022-04-11T09:12:07Z</time>
      </trkpt>
      <trkpt lat="49.90841" lon="2.28123">
        <ele>20.5</ele>
        <time>2022-04-11T09:12:08Z</time>
      </trkpt>
      <trkpt lat="49.90841" lon="2.28123">
        <ele>20.5</ele>
        <time>2022-04-11T09:12:09Z</time>
      </trkpt>
      <trkpt lat="49.90841" lon="2.28124">
        <ele>20.5</ele>
        <time>2022-04-11T09:12:10Z</time>
      </trkpt>
      <trkpt lat="49.9084" lon="2.28126">
        <ele>20.5</ele>
        <time>2022-04-11T09:12:11Z</time>
      </trkpt>
      <trkpt lat="49.9084" lon="2.28126">
        <ele>20.5</ele>
        <time>2022-04-11T09:12:12Z</time>
      </trkpt>
      <trkpt lat="49.9084" lon="2.28126">
        <ele>20.5</ele>
        <time>2022-04-11T09:12:13Z</time>
      </trkpt>
      <trkpt lat="49.9084" lon="2.28126">
        <ele>20.5</ele>
        <time>2022-04-11T09:12:14Z</time>
      </trkpt>
      <trkpt lat="49.9084" lon="2.28126">
        <ele>20.5</ele>
        <time>2022-04-11T09:12:15Z</time>
      </trkpt>
      <trkpt lat="49.9084" lon="2.28126">
        <ele>20.5</ele>
        <time>2022-04-11T09:12:16Z</time>
      </trkpt>
      <trkpt lat="49.9084" lon="2.28126">
        <ele>20.5</ele>
        <time>2022-04-11T09:12:17Z</time>
      </trkpt>
      <trkpt lat="49.90839" lon="2.28126">
        <ele>20.5</ele>
        <time>2022-04-11T09:12:18Z</time>
      </trkpt>
      <trkpt lat="49.90839" lon="2.28126">
        <ele>20.5</ele>
        <time>2022-04-11T09:12:19Z</time>
      </trkpt>
      <trkpt lat="49.90839" lon="2.28127">
        <ele>20.5</ele>
        <time>2022-04-11T09:12:20Z</time>
      </trkpt>
      <trkpt lat="49.90839" lon="2.28127">
        <ele>20.5</ele>
        <time>2022-04-11T09:12:21Z</time>
      </trkpt>
      <trkpt lat="49.90839" lon="2.28127">
        <ele>20.5</ele>
        <time>2022-04-11T09:12:22Z</time>
      </trkpt>
      <trkpt lat="49.90839" lon="2.28127">
        <ele>20.5</ele>
        <time>2022-04-11T09:12:23Z</time>
      </trkpt>
      <trkpt lat="49.90839" lon="2.28127">
        <ele>20.5</ele>
        <time>2022-04-11T09:12:24Z</time>
      </trkpt>
      <trkpt lat="49.91894" lon="2.24102">
        <ele>18.3</ele>
        <time>2022-04-11T10:17:28Z</time>
      </trkpt>
      <trkpt lat="49.91894" lon="2.24102">
        <ele>18.3</ele>
        <time>2022-04-11T10:17:29Z</time>
      </trkpt>
      <trkpt lat="49.91894" lon="2.24102">
        <ele>18.3</ele>
        <time>2022-04-11T10:17:30Z</time>
      </trkpt>
      <trkpt lat="49.91894" lon="2.24102">
        <ele>18.3</ele>
        <time>2022-04-11T10:17:31Z</time>
      </trkpt>
      <trkpt lat="49.91894" lon="2.24102">
        <ele>18.3</ele>
        <time>2022-04-11T10:17:32Z</time>
      </trkpt>
      <trkpt lat="49.91894" lon="2.24102">
        <ele>18.3</ele>
        <time>2022-04-11T10:17:33Z</time>
      </trkpt>
      <trkpt lat="49.91894" lon="2.24102">
        <ele>18.3</ele>
        <time>2022-04-11T10:17:34Z</time>
      </trkpt>
      <trkpt lat="49.91894" lon="2.24102">
        <ele>18.3</ele>
        <time>2022-04-11T10:17:35Z</time>
      </trkpt>
      <trkpt lat="49.91894" lon="2.24102">
        <ele>18.3</ele>
        <time>2022-04-11T10:17:36Z</time>
      </trkpt>
      <trkpt lat="49.91894" lon="2.24102">
        <ele>18.3</ele>
        <time>2022-04-11T10:17:37Z</time>
      </trkpt>
      <trkpt lat="49.91894" lon="2.24102">
        <ele>18.3</ele>
        <time>2022-04-11T10:17:38Z</time>
      </trkpt>
      <trkpt lat="49.91894" lon="2.24102">
        <ele>18.3</ele>
        <time>2022-04-11T10:17:39Z</time>
      </trkpt>
      <trkpt lat="49.91894" lon="2.24102">
        <ele>18.3</ele>
        <time>2022-04-11T10:17:40Z</time>
      </trkpt>
      <trkpt lat="49.91894" lon="2.24102">
        <ele>18.3</ele>
        <time>2022-04-11T10:17:41Z</time>
      </trkpt>
      <trkpt lat="49.91894" lon="2.24102">
        <ele>18.3</ele>
        <time>2022-04-11T10:17:42Z</time>
      </trkpt>
      <trkpt lat="49.91894" lon="2.24102">
        <ele>18.3</ele>
        <time>2022-04-11T10:17:43Z</time>
      </trkpt>
      <trkpt lat="49.91894" lon="2.24102">
        <ele>18.3</ele>
        <time>2022-04-11T10:17:44Z</time>
      </trkpt>
      <trkpt lat="49.91894" lon="2.24102">
        <ele>18.3</ele>
        <time>2022-04-11T10:17:45Z</time>
      </trkpt>
      <trkpt lat="49.91894" lon="2.24102">
        <ele>18.3</ele>
        <time>2022-04-11T10:17:46Z</time>
      </trkpt>
      <trkpt lat="49.91894" lon="2.24102">
        <ele>18.3</ele>
        <time>2022-04-11T10:17:50Z</time>
      </trkpt>
      <trkpt lat="49.91894" lon="2.24102">
        <ele>18.3</ele>
        <time>2022-04-11T10:17:51Z</time>
      </trkpt>
      <trkpt lat="49.91894" lon="2.24102">
        <ele>18.3</ele>
        <time>2022-04-11T10:17:52Z</time>
      </trkpt>
      <trkpt lat="49.91894" lon="2.24102">
        <ele>18.3</ele>
        <time>2022-04-11T10:17:53Z</time>
      </trkpt>
      <trkpt lat="49.91894" lon="2.24102">
        <ele>18.3</ele>
        <time>2022-04-11T10:17:54Z</time>
      </trkpt>
      <trkpt lat="49.91894" lon="2.24102">
        <ele>18.3</ele>
        <time>2022-04-11T10:17:55Z</time>
      </trkpt>
      <trkpt lat="49.91894" lon="2.24102">
        <ele>18.3</ele>
        <time>2022-04-11T10:17:56Z</time>
      </trkpt>
      <trkpt lat="49.91894" lon="2.24102">
        <ele>18.3</ele>
        <time>2022-04-11T10:17:57Z</time>
      </trkpt>
      <trkpt lat="49.91894" lon="2.24102">
        <ele>18.3</ele>
        <time>2022-04-11T10:17:58Z</time>
      </trkpt>
      <trkpt lat="49.91894" lon="2.24102">
        <ele>18.3</ele>
        <time>2022-04-11T10:17:59Z</time>
      </trkpt>
      <trkpt lat="49.91894" lon="2.24102">
        <ele>18.3</ele>
        <time>2022-04-11T10:18:00Z</time>
      </trkpt>
      <trkpt lat="49.91894" lon="2.24102">
        <ele>18.3</ele>
        <time>2022-04-11T10:18:01Z</time>
      </trkpt>
      <trkpt lat="49.91894" lon="2.24102">
        <ele>18.3</ele>
        <time>2022-04-11T10:18:02Z</time>
      </trkpt>
      <trkpt lat="49.91894" lon="2.24102">
        <ele>18.3</ele>
        <time>2022-04-11T10:18:03Z</time>
      </trkpt>
      <trkpt lat="49.91894" lon="2.24102">
        <ele>18.3</ele>
        <time>2022-04-11T10:18:04Z</time>
      </trkpt>
      <trkpt lat="49.91894" lon="2.24102">
        <ele>18.3</ele>
        <time>2022-04-11T10:18:05Z</time>
      </trkpt>
      <trkpt lat="49.91894" lon="2.24102">
        <ele>18.3</ele>
        <time>2022-04-11T10:18:06Z</time>
      </trkpt>
      <trkpt lat="49.91894" lon="2.24102">
        <ele>18.3</ele>
        <time>2022-04-11T10:18:07Z</time>
      </trkpt>
      <trkpt lat="49.91894" lon="2.24102">
        <ele>18.3</ele>
        <time>2022-04-11T10:18:08Z</time>
      </trkpt>
      <trkpt lat="49.91894" lon="2.24102">
        <ele>18.3</ele>
        <time>2022-04-11T10:18:09Z</time>
      </trkpt>
      <trkpt lat="49.91894" lon="2.24102">
        <ele>18.3</ele>
        <time>2022-04-11T10:18:10Z</time>
      </trkpt>
      <trkpt lat="49.91894" lon="2.24102">
        <ele>18.3</ele>
        <time>2022-04-11T10:18:11Z</time>
      </trkpt>
      <trkpt lat="49.91894" lon="2.24102">
        <ele>18.3</ele>
        <time>2022-04-11T10:18:12Z</time>
      </trkpt>
      <trkpt lat="49.91894" lon="2.24102">
        <ele>18.3</ele>
        <time>2022-04-11T10:18:13Z</time>
      </trkpt>
      <trkpt lat="49.91894" lon="2.24102">
        <ele>18.3</ele>
        <time>2022-04-11T10:18:14Z</time>
      </trkpt>
      <trkpt lat="49.91894" lon="2.24102">
        <ele>18.3</ele>
        <time>2022-04-11T10:18:15Z</time>
      </trkpt>
      <trkpt lat="49.91894" lon="2.24102">
        <ele>18.3</ele>
        <time>2022-04-11T10:18:16Z</time>
      </trkpt>
      <trkpt lat="49.91894" lon="2.24102">
        <ele>18.3</ele>
        <time>2022-04-11T10:18:17Z</time>
      </trkpt>
      <trkpt lat="49.91894" lon="2.24102">
        <ele>18.3</ele>
        <time>2022-04-11T10:18:18Z</time>
      </trkpt>
      <trkpt lat="49.91894" lon="2.24102">
        <ele>18.3</ele>
        <time>2022-04-11T10:18:19Z</time>
      </trkpt>
      <trkpt lat="49.91894" lon="2.24102">
        <ele>18.3</ele>
        <time>2022-04-11T10:18:20Z</time>
      </trkpt>
      <trkpt lat="49.91894" lon="2.24102">
        <ele>18.3</ele>
        <time>2022-04-11T10:18:21Z</time>
      </trkpt>
      <trkpt lat="49.91894" lon="2.24102">
        <ele>18.3</ele>
        <time>2022-04-11T10:18:22Z</time>
      </trkpt>
      <trkpt lat="49.91894" lon="2.24102">
        <ele>18.3</ele>
        <time>2022-04-11T10:18:23Z</time>
      </trkpt>
      <trkpt lat="49.91894" lon="2.24102">
        <ele>18.3</ele>
        <time>2022-04-11T10:18:24Z</time>
      </trkpt>
      <trkpt lat="49.91894" lon="2.24102">
        <ele>18.3</ele>
        <time>2022-04-11T10:18:25Z</time>
      </trkpt>
      <trkpt lat="49.91894" lon="2.24102">
        <ele>18.3</ele>
        <time>2022-04-11T10:18:26Z</time>
      </trkpt>
      <trkpt lat="49.91894" lon="2.24102">
        <ele>18.3</ele>
        <time>2022-04-11T10:18:27Z</time>
      </trkpt>
      <trkpt lat="49.91894" lon="2.24102">
        <ele>18.3</ele>
        <time>2022-04-11T10:18:28Z</time>
      </trkpt>
      <trkpt lat="49.91894" lon="2.24102">
        <ele>18.3</ele>
        <time>2022-04-11T10:18:29Z</time>
      </trkpt>
      <trkpt lat="49.91894" lon="2.24102">
        <ele>18.3</ele>
        <time>2022-04-11T10:18:30Z</time>
      </trkpt>
      <trkpt lat="49.91894" lon="2.24102">
        <ele>18.3</ele>
        <time>2022-04-11T10:18:31Z</time>
      </trkpt>
      <trkpt lat="49.91894" lon="2.24102">
        <ele>18.3</ele>
        <time>2022-04-11T10:18:32Z</time>
      </trkpt>
      <trkpt lat="49.91894" lon="2.24102">
        <ele>18.3</ele>
        <time>2022-04-11T10:18:33Z</time>
      </trkpt>
      <trkpt lat="49.91894" lon="2.24102">
        <ele>18.3</ele>
        <time>2022-04-11T10:18:34Z</time>
      </trkpt>
      <trkpt lat="49.91894" lon="2.24102">
        <ele>18.3</ele>
        <time>2022-04-11T10:18:35Z</time>
      </trkpt>
      <trkpt lat="49.91894" lon="2.24102">
        <ele>18.3</ele>
        <time>2022-04-11T10:18:36Z</time>
      </trkpt>
      <trkpt lat="49.91894" lon="2.24102">
        <ele>18.3</ele>
        <time>2022-04-11T10:18:37Z</time>
      </trkpt>
      <trkpt lat="49.91894" lon="2.24102">
        <ele>18.3</ele>
        <time>2022-04-11T10:18:38Z</time>
      </trkpt>
      <trkpt lat="49.91894" lon="2.24102">
        <ele>18.3</ele>
        <time>2022-04-11T10:18:39Z</time>
      </trkpt>
      <trkpt lat="49.91894" lon="2.24102">
        <ele>18.3</ele>
        <time>2022-04-11T10:18:40Z</time>
      </trkpt>
      <trkpt lat="49.91894" lon="2.24102">
        <ele>18.3</ele>
        <time>2022-04-11T10:18:41Z</time>
      </trkpt>
      <trkpt lat="49.91894" lon="2.24102">
        <ele>18.3</ele>
        <time>2022-04-11T10:18:42Z</time>
      </trkpt>
      <trkpt lat="49.91894" lon="2.24102">
        <ele>18.3</ele>
        <time>2022-04-11T10:18:43Z</time>
      </trkpt>
      <trkpt lat="49.91894" lon="2.24102">
        <ele>18.3</ele>
        <time>2022-04-11T10:18:44Z</time>
      </trkpt>
      <trkpt lat="49.91894" lon="2.24102">
        <ele>18.3</ele>
        <time>2022-04-11T10:18:45Z</time>
      </trkpt>
      <trkpt lat="49.91894" lon="2.24102">
        <ele>18.3</ele>
        <time>2022-04-11T10:18:46Z</time>
      </trkpt>
      <trkpt lat="49.91894" lon="2.24102">
        <ele>18.3</ele>
        <time>2022-04-11T10:18:47Z</time>
      </trkpt>
      <trkpt lat="49.91894" lon="2.24102">
        <ele>18.3</ele>
        <time>2022-04-11T10:18:48Z</time>
      </trkpt>
      <trkpt lat="49.91894" lon="2.24102">
        <ele>18.3</ele>
        <time>2022-04-11T10:18:49Z</time>
      </trkpt>
      <trkpt lat="49.91894" lon="2.24102">
        <ele>18.3</ele>
        <time>2022-04-11T10:18:50Z</time>
      </trkpt>
      <trkpt lat="49.91894" lon="2.24102">
        <ele>18.3</ele>
        <time>2022-04-11T10:18:51Z</time>
      </trkpt>
      <trkpt lat="49.91894" lon="2.24102">
        <ele>18.3</ele>
        <time>2022-04-11T10:18:52Z</time>
      </trkpt>
      <trkpt lat="49.91894" lon="2.24102">
        <ele>18.3</ele>
        <time>2022-04-11T10:18:53Z</time>
      </trkpt>
      <trkpt lat="49.91894" lon="2.24102">
        <ele>18.3</ele>
        <time>2022-04-11T10:18:54Z</time>
      </trkpt>
      <trkpt lat="49.91894" lon="2.24102">
        <ele>18.3</ele>
        <time>2022-04-11T10:18:55Z</time>
      </trkpt>
      <trkpt lat="49.91894" lon="2.24102">
        <ele>18.3</ele>
        <time>2022-04-11T10:18:56Z</time>
      </trkpt>
      <trkpt lat="49.91894" lon="2.24102">
        <ele>18.3</ele>
        <time>2022-04-11T10:18:57Z</time>
      </trkpt>
      <trkpt lat="49.91894" lon="2.24102">
        <ele>18.3</ele>
        <time>2022-04-11T10:18:58Z</time>
      </trkpt>
      <trkpt lat="49.91894" lon="2.24102">
        <ele>18.3</ele>
        <time>2022-04-11T10:18:59Z</time>
      </trkpt>
      <trkpt lat="49.91894" lon="2.24102">
        <ele>18.3</ele>
        <time>2022-04-11T10:19:00Z</time>
      </trkpt>
      <trkpt lat="49.91894" lon="2.24102">
        <ele>18.3</ele>
        <time>2022-04-11T10:19:01Z</time>
      </trkpt>
      <trkpt lat="49.91894" lon="2.24102">
        <ele>18.3</ele>
        <time>2022-04-11T10:19:02Z</time>
      </trkpt>
      <trkpt lat="49.91894" lon="2.24102">
        <ele>18.3</ele>
        <time>2022-04-11T10:19:03Z</time>
      </trkpt>
      <trkpt lat="49.91894" lon="2.24102">
        <ele>18.3</ele>
        <time>2022-04-11T10:19:04Z</time>
      </trkpt>
      <trkpt lat="49.91894" lon="2.24102">
        <ele>18.3</ele>
        <time>2022-04-11T10:19:05Z</time>
      </trkpt>
      <trkpt lat="49.91894" lon="2.24102">
        <ele>18.3</ele>
        <time>2022-04-11T10:19:06Z</time>
      </trkpt>
      <trkpt lat="49.91894" lon="2.24102">
        <ele>18.3</ele>
        <time>2022-04-11T10:19:07Z</time>
      </trkpt>
      <trkpt lat="49.91894" lon="2.24102">
        <ele>18.3</ele>
        <time>2022-04-11T10:19:08Z</time>
      </trkpt>
      <trkpt lat="49.91894" lon="2.24102">
        <ele>18.3</ele>
        <time>2022-04-11T10:19:09Z</time>
      </trkpt>
      <trkpt lat="49.91894" lon="2.24102">
        <ele>18.3</ele>
        <time>2022-04-11T10:19:10Z</time>
      </trkpt>
      <trkpt lat="49.91894" lon="2.24102">
        <ele>18.3</ele>
        <time>2022-04-11T10:19:11Z</time>
      </trkpt>
      <trkpt lat="49.91894" lon="2.24102">
        <ele>18.3</ele>
        <time>2022-04-11T10:19:12Z</time>
      </trkpt>
      <trkpt lat="49.91894" lon="2.24102">
        <ele>18.3</ele>
        <time>2022-04-11T10:19:13Z</time>
      </trkpt>
      <trkpt lat="49.91894" lon="2.24102">
        <ele>18.3</ele>
        <time>2022-04-11T10:19:14Z</time>
      </trkpt>
      <trkpt lat="49.91894" lon="2.24102">
        <ele>18.3</ele>
        <time>2022-04-11T10:19:15Z</time>
      </trkpt>
      <trkpt lat="49.91894" lon="2.24102">
        <ele>18.3</ele>
        <time>2022-04-11T10:19:16Z</time>
      </trkpt>
      <trkpt lat="49.91894" lon="2.24102">
        <ele>18.3</ele>
        <time>2022-04-11T10:19:17Z</time>
      </trkpt>
      <trkpt lat="49.91894" lon="2.24102">
        <ele>18.3</ele>
        <time>2022-04-11T10:19:18Z</time>
      </trkpt>
      <trkpt lat="49.91894" lon="2.24102">
        <ele>18.3</ele>
        <time>2022-04-11T10:19:19Z</time>
      </trkpt>
      <trkpt lat="49.91894" lon="2.24102">
        <ele>18.3</ele>
        <time>2022-04-11T10:19:20Z</time>
      </trkpt>
      <trkpt lat="49.91894" lon="2.24102">
        <ele>18.3</ele>
        <time>2022-04-11T10:19:21Z</time>
      </trkpt>
      <trkpt lat="49.91894" lon="2.24102">
        <ele>18.3</ele>
        <time>2022-04-11T10:19:22Z</time>
      </trkpt>
      <trkpt lat="49.91894" lon="2.24102">
        <ele>18.3</ele>
        <time>2022-04-11T10:19:23Z</time>
      </trkpt>
      <trkpt lat="49.91894" lon="2.24102">
        <ele>18.3</ele>
        <time>2022-04-11T10:19:24Z</time>
      </trkpt>
      <trkpt lat="49.91894" lon="2.24102">
        <ele>18.3</ele>
        <time>2022-04-11T10:19:25Z</time>
      </trkpt>
      <trkpt lat="49.91894" lon="2.24102">
        <ele>18.3</ele>
        <time>2022-04-11T10:19:26Z</time>
      </trkpt>
      <trkpt lat="49.91894" lon="2.24102">
        <ele>18.3</ele>
        <time>2022-04-11T10:19:27Z</time>
      </trkpt>
      <trkpt lat="49.91894" lon="2.24102">
        <ele>18.3</ele>
        <time>2022-04-11T10:19:28Z</time>
      </trkpt>
      <trkpt lat="49.91894" lon="2.24102">
        <ele>18.3</ele>
        <time>2022-04-11T10:19:29Z</time>
      </trkpt>
      <trkpt lat="49.91894" lon="2.24102">
        <ele>18.3</ele>
        <time>2022-04-11T10:19:30Z</time>
      </trkpt>
      <trkpt lat="49.91894" lon="2.24102">
        <ele>18.3</ele>
        <time>2022-04-11T10:19:31Z</time>
      </trkpt>
      <trkpt lat="49.91894" lon="2.24102">
        <ele>18.3</ele>
        <time>2022-04-11T10:19:32Z</time>
      </trkpt>
      <trkpt lat="49.91894" lon="2.24102">
        <ele>18.3</ele>
        <time>2022-04-11T10:19:33Z</time>
      </trkpt>
      <trkpt lat="49.91894" lon="2.24102">
        <ele>18.3</ele>
        <time>2022-04-11T10:19:34Z</time>
      </trkpt>
      <trkpt lat="49.91894" lon="2.24102">
        <ele>18.3</ele>
        <time>2022-04-11T10:19:35Z</time>
      </trkpt>
      <trkpt lat="49.91894" lon="2.24102">
        <ele>18.3</ele>
        <time>2022-04-11T10:19:36Z</time>
      </trkpt>
      <trkpt lat="49.91894" lon="2.24102">
        <ele>18.3</ele>
        <time>2022-04-11T10:19:37Z</time>
      </trkpt>
      <trkpt lat="49.91894" lon="2.24102">
        <ele>18.3</ele>
        <time>2022-04-11T10:19:38Z</time>
      </trkpt>
      <trkpt lat="49.91894" lon="2.24102">
        <ele>18.3</ele>
        <time>2022-04-11T10:19:39Z</time>
      </trkpt>
      <trkpt lat="49.91894" lon="2.24102">
        <ele>18.3</ele>
        <time>2022-04-11T10:19:40Z</time>
      </trkpt>
      <trkpt lat="49.91894" lon="2.24102">
        <ele>18.3</ele>
        <time>2022-04-11T10:19:41Z</time>
      </trkpt>
      <trkpt lat="49.91894" lon="2.24102">
        <ele>18.3</ele>
        <time>2022-04-11T10:19:42Z</time>
      </trkpt>
      <trkpt lat="49.91894" lon="2.24102">
        <ele>18.3</ele>
        <time>2022-04-11T10:19:43Z</time>
      </trkpt>
      <trkpt lat="49.91894" lon="2.24102">
        <ele>18.3</ele>
        <time>2022-04-11T10:19:44Z</time>
      </trkpt>
      <trkpt lat="49.91894" lon="2.24102">
        <ele>18.3</ele>
        <time>2022-04-11T10:19:45Z</time>
      </trkpt>
      <trkpt lat="49.91894" lon="2.24102">
        <ele>18.3</ele>
        <time>2022-04-11T10:19:46Z</time>
      </trkpt>
      <trkpt lat="49.91894" lon="2.24102">
        <ele>18.3</ele>
        <time>2022-04-11T10:19:47Z</time>
      </trkpt>
      <trkpt lat="49.91894" lon="2.24102">
        <ele>18.3</ele>
        <time>2022-04-11T10:19:48Z</time>
      </trkpt>
      <trkpt lat="49.91894" lon="2.24102">
        <ele>18.3</ele>
        <time>2022-04-11T10:19:49Z</time>
      </trkpt>
      <trkpt lat="49.91894" lon="2.24102">
        <ele>18.3</ele>
        <time>2022-04-11T10:19:50Z</time>
      </trkpt>
      <trkpt lat="49.91894" lon="2.24102">
        <ele>18.3</ele>
        <time>2022-04-11T10:19:51Z</time>
      </trkpt>
      <trkpt lat="49.91895" lon="2.24102">
        <ele>18.3</ele>
        <time>2022-04-11T10:19:52Z</time>
      </trkpt>
      <trkpt lat="49.91895" lon="2.24102">
        <ele>18.3</ele>
        <time>2022-04-11T10:19:53Z</time>
      </trkpt>
      <trkpt lat="49.91895" lon="2.24102">
        <ele>18.3</ele>
        <time>2022-04-11T10:19:54Z</time>
      </trkpt>
      <trkpt lat="49.91896" lon="2.24103">
        <ele>18.3</ele>
        <time>2022-04-11T10:19:55Z</time>
      </trkpt>
      <trkpt lat="49.91896" lon="2.24103">
        <ele>18.3</ele>
        <time>2022-04-11T10:19:56Z</time>
      </trkpt>
      <trkpt lat="49.91896" lon="2.24103">
        <ele>18.3</ele>
        <time>2022-04-11T10:19:57Z</time>
      </trkpt>
      <trkpt lat="49.91895" lon="2.24102">
        <ele>18.3</ele>
        <time>2022-04-11T10:19:58Z</time>
      </trkpt>
      <trkpt lat="49.91895" lon="2.24102">
        <ele>18.3</ele>
        <time>2022-04-11T10:19:59Z</time>
      </trkpt>
      <trkpt lat="49.91895" lon="2.24102">
        <ele>18.3</ele>
        <time>2022-04-11T10:20:00Z</time>
      </trkpt>
      <trkpt lat="49.91895" lon="2.24102">
        <ele>18.3</ele>
        <time>2022-04-11T10:20:01Z</time>
      </trkpt>
      <trkpt lat="49.91895" lon="2.24102">
        <ele>18.3</ele>
        <time>2022-04-11T10:20:02Z</time>
      </trkpt>
      <trkpt lat="49.91895" lon="2.24102">
        <ele>18.3</ele>
        <time>2022-04-11T10:20:03Z</time>
      </trkpt>
      <trkpt lat="49.91895" lon="2.24102">
        <ele>18.3</ele>
        <time>2022-04-11T10:20:04Z</time>
      </trkpt>
      <trkpt lat="49.91895" lon="2.24102">
        <ele>18.3</ele>
        <time>2022-04-11T10:20:05Z</time>
      </trkpt>
      <trkpt lat="49.91894" lon="2.24102">
        <ele>18.3</ele>
        <time>2022-04-11T10:20:06Z</time>
      </trkpt>
      <trkpt lat="49.91894" lon="2.24102">
        <ele>18.3</ele>
        <time>2022-04-11T10:20:07Z</time>
      </trkpt>
      <trkpt lat="49.91894" lon="2.24102">
        <ele>18.3</ele>
        <time>2022-04-11T10:20:08Z</time>
      </trkpt>
      <trkpt lat="49.91894" lon="2.24102">
        <ele>18.3</ele>
        <time>2022-04-11T10:20:09Z</time>
      </trkpt>
      <trkpt lat="49.91894" lon="2.24102">
        <ele>18.3</ele>
        <time>2022-04-11T10:20:10Z</time>
      </trkpt>
      <trkpt lat="49.91894" lon="2.24102">
        <ele>18.3</ele>
        <time>2022-04-11T10:20:11Z</time>
      </trkpt>
      <trkpt lat="49.91894" lon="2.24102">
        <ele>18.3</ele>
        <time>2022-04-11T10:20:12Z</time>
      </trkpt>
      <trkpt lat="49.91894" lon="2.24102">
        <ele>18.3</ele>
        <time>2022-04-11T10:20:13Z</time>
      </trkpt>
      <trkpt lat="49.91894" lon="2.24102">
        <ele>18.3</ele>
        <time>2022-04-11T10:20:14Z</time>
      </trkpt>
      <trkpt lat="49.91894" lon="2.24102">
        <ele>18.3</ele>
        <time>2022-04-11T10:20:15Z</time>
      </trkpt>
      <trkpt lat="49.91894" lon="2.24102">
        <ele>18.3</ele>
        <time>2022-04-11T10:20:16Z</time>
      </trkpt>
      <trkpt lat="49.91894" lon="2.24102">
        <ele>18.3</ele>
        <time>2022-04-11T10:20:17Z</time>
      </trkpt>
      <trkpt lat="49.91894" lon="2.24102">
        <ele>18.3</ele>
        <time>2022-04-11T10:20:18Z</time>
      </trkpt>
      <trkpt lat="49.91894" lon="2.24102">
        <ele>18.3</ele>
        <time>2022-04-11T10:20:19Z</time>
      </trkpt>
      <trkpt lat="49.91894" lon="2.24102">
        <ele>18.3</ele>
        <time>2022-04-11T10:20:20Z</time>
      </trkpt>
      <trkpt lat="49.91894" lon="2.24102">
        <ele>18.3</ele>
        <time>2022-04-11T10:20:21Z</time>
      </trkpt>
      <trkpt lat="49.91894" lon="2.24102">
        <ele>18.3</ele>
        <time>2022-04-11T10:20:22Z</time>
      </trkpt>
      <trkpt lat="49.91894" lon="2.24102">
        <ele>18.3</ele>
        <time>2022-04-11T10:20:23Z</time>
      </trkpt>
      <trkpt lat="49.91894" lon="2.24102">
        <ele>18.3</ele>
        <time>2022-04-11T10:20:24Z</time>
      </trkpt>
      <trkpt lat="49.91894" lon="2.24102">
        <ele>18.3</ele>
        <time>2022-04-11T10:20:25Z</time>
      </trkpt>
      <trkpt lat="49.91894" lon="2.24102">
        <ele>18.3</ele>
        <time>2022-04-11T10:20:26Z</time>
      </trkpt>
      <trkpt lat="49.91894" lon="2.24102">
        <ele>18.3</ele>
        <time>2022-04-11T10:20:27Z</time>
      </trkpt>
      <trkpt lat="49.91895" lon="2.24102">
        <ele>18.3</ele>
        <time>2022-04-11T10:20:28Z</time>
      </trkpt>
      <trkpt lat="49.91897" lon="2.24102">
        <ele>18.3</ele>
        <time>2022-04-11T10:20:29Z</time>
      </trkpt>
      <trkpt lat="49.91897" lon="2.24102">
        <ele>18.3</ele>
        <time>2022-04-11T10:20:30Z</time>
      </trkpt>
      <trkpt lat="49.91897" lon="2.24102">
        <ele>18.3</ele>
        <time>2022-04-11T10:20:31Z</time>
      </trkpt>
      <trkpt lat="49.91897" lon="2.24102">
        <ele>18.3</ele>
        <time>2022-04-11T10:20:32Z</time>
      </trkpt>
      <trkpt lat="49.91897" lon="2.24102">
        <ele>18.3</ele>
        <time>2022-04-11T10:20:33Z</time>
      </trkpt>
      <trkpt lat="49.91897" lon="2.24101">
        <ele>18.3</ele>
        <time>2022-04-11T10:20:34Z</time>
      </trkpt>
      <trkpt lat="49.91897" lon="2.24101">
        <ele>18.3</ele>
        <time>2022-04-11T10:20:35Z</time>
      </trkpt>
      <trkpt lat="49.91897" lon="2.24101">
        <ele>18.3</ele>
        <time>2022-04-11T10:20:36Z</time>
      </trkpt>
      <trkpt lat="49.91897" lon="2.24101">
        <ele>18.3</ele>
        <time>2022-04-11T10:20:37Z</time>
      </trkpt>
      <trkpt lat="49.91897" lon="2.241">
        <ele>18.3</ele>
        <time>2022-04-11T10:20:38Z</time>
      </trkpt>
      <trkpt lat="49.91897" lon="2.241">
        <ele>18.3</ele>
        <time>2022-04-11T10:20:39Z</time>
      </trkpt>
      <trkpt lat="49.91897" lon="2.241">
        <ele>18.3</ele>
        <time>2022-04-11T10:20:40Z</time>
      </trkpt>
      <trkpt lat="49.91896" lon="2.241">
        <ele>18.3</ele>
        <time>2022-04-11T10:20:41Z</time>
      </trkpt>
      <trkpt lat="49.91896" lon="2.24099">
        <ele>18.3</ele>
        <time>2022-04-11T10:20:42Z</time>
      </trkpt>
      <trkpt lat="49.91896" lon="2.24099">
        <ele>18.3</ele>
        <time>2022-04-11T10:20:43Z</time>
      </trkpt>
      <trkpt lat="49.91896" lon="2.24099">
        <ele>18.3</ele>
        <time>2022-04-11T10:20:44Z</time>
      </trkpt>
      <trkpt lat="49.91896" lon="2.24099">
        <ele>18.3</ele>
        <time>2022-04-11T10:20:45Z</time>
      </trkpt>
      <trkpt lat="49.91896" lon="2.24099">
        <ele>18.3</ele>
        <time>2022-04-11T10:20:46Z</time>
      </trkpt>
      <trkpt lat="49.91896" lon="2.24098">
        <ele>18.3</ele>
        <time>2022-04-11T10:20:47Z</time>
      </trkpt>
      <trkpt lat="49.91896" lon="2.24098">
        <ele>18.3</ele>
        <time>2022-04-11T10:20:48Z</time>
      </trkpt>
      <trkpt lat="49.91896" lon="2.24098">
        <ele>18.3</ele>
        <time>2022-04-11T10:20:49Z</time>
      </trkpt>
      <trkpt lat="49.91896" lon="2.24098">
        <ele>18.3</ele>
        <time>2022-04-11T10:20:50Z</time>
      </trkpt>
      <trkpt lat="49.91896" lon="2.24098">
        <ele>18.3</ele>
        <time>2022-04-11T10:20:51Z</time>
      </trkpt>
      <trkpt lat="49.91896" lon="2.24097">
        <ele>18.3</ele>
        <time>2022-04-11T10:20:52Z</time>
      </trkpt>
      <trkpt lat="49.91896" lon="2.24097">
        <ele>18.3</ele>
        <time>2022-04-11T10:20:53Z</time>
      </trkpt>
      <trkpt lat="49.91896" lon="2.24097">
        <ele>18.3</ele>
        <time>2022-04-11T10:20:54Z</time>
      </trkpt>
      <trkpt lat="49.91896" lon="2.24097">
        <ele>18.3</ele>
        <time>2022-04-11T10:20:55Z</time>
      </trkpt>
      <trkpt lat="49.91896" lon="2.24097">
        <ele>18.3</ele>
        <time>2022-04-11T10:20:56Z</time>
      </trkpt>
      <trkpt lat="49.91896" lon="2.24096">
        <ele>18.3</ele>
        <time>2022-04-11T10:20:57Z</time>
      </trkpt>
      <trkpt lat="49.91896" lon="2.24096">
        <ele>18.3</ele>
        <time>2022-04-11T10:20:58Z</time>
      </trkpt>
      <trkpt lat="49.91896" lon="2.24096">
        <ele>18.2</ele>
        <time>2022-04-11T10:20:59Z</time>
      </trkpt>
      <trkpt lat="49.91895" lon="2.24096">
        <ele>18.2</ele>
        <time>2022-04-11T10:21:00Z</time>
      </trkpt>
      <trkpt lat="49.91895" lon="2.24096">
        <ele>18.2</ele>
        <time>2022-04-11T10:21:01Z</time>
      </trkpt>
      <trkpt lat="49.91895" lon="2.24095">
        <ele>18.2</ele>
        <time>2022-04-11T10:21:02Z</time>
      </trkpt>
      <trkpt lat="49.91895" lon="2.24095">
        <ele>18.2</ele>
        <time>2022-04-11T10:21:03Z</time>
      </trkpt>
      <trkpt lat="49.91895" lon="2.24095">
        <ele>18.2</ele>
        <time>2022-04-11T10:21:04Z</time>
      </trkpt>
      <trkpt lat="49.91895" lon="2.24095">
        <ele>18.2</ele>
        <time>2022-04-11T10:21:05Z</time>
      </trkpt>
      <trkpt lat="49.91895" lon="2.24095">
        <ele>18.2</ele>
        <time>2022-04-11T10:21:06Z</time>
      </trkpt>
      <trkpt lat="49.91895" lon="2.24094">
        <ele>18.2</ele>
        <time>2022-04-11T10:21:07Z</time>
      </trkpt>
      <trkpt lat="49.91895" lon="2.24094">
        <ele>18.2</ele>
        <time>2022-04-11T10:21:08Z</time>
      </trkpt>
      <trkpt lat="49.91895" lon="2.24094">
        <ele>18.2</ele>
        <time>2022-04-11T10:21:09Z</time>
      </trkpt>
      <trkpt lat="49.91895" lon="2.24094">
        <ele>18.2</ele>
        <time>2022-04-11T10:21:10Z</time>
      </trkpt>
      <trkpt lat="49.91895" lon="2.24093">
        <ele>18.2</ele>
        <time>2022-04-11T10:21:11Z</time>
      </trkpt>
      <trkpt lat="49.91895" lon="2.24093">
        <ele>18.2</ele>
        <time>2022-04-11T10:21:12Z</time>
      </trkpt>
      <trkpt lat="49.91895" lon="2.24093">
        <ele>18.2</ele>
        <time>2022-04-11T10:21:13Z</time>
      </trkpt>
      <trkpt lat="49.91895" lon="2.24093">
        <ele>18.2</ele>
        <time>2022-04-11T10:21:14Z</time>
      </trkpt>
      <trkpt lat="49.91895" lon="2.24093">
        <ele>18.2</ele>
        <time>2022-04-11T10:21:15Z</time>
      </trkpt>
      <trkpt lat="49.91895" lon="2.24092">
        <ele>18.2</ele>
        <time>2022-04-11T10:21:16Z</time>
      </trkpt>
      <trkpt lat="49.91895" lon="2.24092">
        <ele>18.2</ele>
        <time>2022-04-11T10:21:17Z</time>
      </trkpt>
      <trkpt lat="49.91895" lon="2.24092">
        <ele>18.2</ele>
        <time>2022-04-11T10:21:18Z</time>
      </trkpt>
      <trkpt lat="49.91895" lon="2.24092">
        <ele>18.2</ele>
        <time>2022-04-11T10:21:19Z</time>
      </trkpt>
      <trkpt lat="49.91894" lon="2.24092">
        <ele>18.2</ele>
        <time>2022-04-11T10:21:20Z</time>
      </trkpt>
      <trkpt lat="49.91894" lon="2.24091">
        <ele>18.2</ele>
        <time>2022-04-11T10:21:21Z</time>
      </trkpt>
      <trkpt lat="49.91894" lon="2.24091">
        <ele>18.2</ele>
        <time>2022-04-11T10:21:22Z</time>
      </trkpt>
      <trkpt lat="49.91894" lon="2.24091">
        <ele>18.2</ele>
        <time>2022-04-11T10:21:23Z</time>
      </trkpt>
      <trkpt lat="49.91894" lon="2.24091">
        <ele>18.2</ele>
        <time>2022-04-11T10:21:25Z</time>
      </trkpt>
      <trkpt lat="49.91894" lon="2.24091">
        <ele>18.2</ele>
        <time>2022-04-11T10:21:26Z</time>
      </trkpt>
      <trkpt lat="49.91894" lon="2.2409">
        <ele>18.2</ele>
        <time>2022-04-11T10:21:27Z</time>
      </trkpt>
      <trkpt lat="49.91894" lon="2.2409">
        <ele>18.2</ele>
        <time>2022-04-11T10:21:28Z</time>
      </trkpt>
      <trkpt lat="49.91893" lon="2.24087">
        <ele>18.2</ele>
        <time>2022-04-11T10:21:29Z</time>
      </trkpt>
      <trkpt lat="49.91892" lon="2.24085">
        <ele>18.2</ele>
        <time>2022-04-11T10:21:30Z</time>
      </trkpt>
      <trkpt lat="49.91892" lon="2.24083">
        <ele>18.2</ele>
        <time>2022-04-11T10:21:32Z</time>
      </trkpt>
      <trkpt lat="49.91891" lon="2.24081">
        <ele>18.2</ele>
        <time>2022-04-11T10:21:33Z</time>
      </trkpt>
      <trkpt lat="49.9189" lon="2.24078">
        <ele>18.2</ele>
        <time>2022-04-11T10:21:34Z</time>
      </trkpt>
      <trkpt lat="49.9189" lon="2.24076">
        <ele>18.2</ele>
        <time>2022-04-11T10:21:35Z</time>
      </trkpt>
      <trkpt lat="49.9189" lon="2.24074">
        <ele>18.2</ele>
        <time>2022-04-11T10:21:36Z</time>
      </trkpt>
      <trkpt lat="49.91891" lon="2.24071">
        <ele>18.2</ele>
        <time>2022-04-11T10:21:37Z</time>
      </trkpt>
      <trkpt lat="49.91891" lon="2.24068">
        <ele>18.2</ele>
        <time>2022-04-11T10:21:38Z</time>
      </trkpt>
      <trkpt lat="49.9189" lon="2.24067">
        <ele>18.2</ele>
        <time>2022-04-11T10:21:39Z</time>
      </trkpt>
      <trkpt lat="49.9189" lon="2.24066">
        <ele>18.2</ele>
        <time>2022-04-11T10:21:40Z</time>
      </trkpt>
      <trkpt lat="49.9189" lon="2.24063">
        <ele>18.2</ele>
        <time>2022-04-11T10:21:42Z</time>
      </trkpt>
      <trkpt lat="49.91889" lon="2.24062">
        <ele>18.2</ele>
        <time>2022-04-11T10:21:43Z</time>
      </trkpt>
      <trkpt lat="49.91889" lon="2.24061">
        <ele>18.2</ele>
        <time>2022-04-11T10:21:44Z</time>
      </trkpt>
      <trkpt lat="49.91888" lon="2.2406">
        <ele>18.2</ele>
        <time>2022-04-11T10:21:45Z</time>
      </trkpt>
      <trkpt lat="49.91888" lon="2.24059">
        <ele>18.2</ele>
        <time>2022-04-11T10:21:46Z</time>
      </trkpt>
      <trkpt lat="49.91887" lon="2.24058">
        <ele>18.2</ele>
        <time>2022-04-11T10:21:47Z</time>
      </trkpt>
      <trkpt lat="49.91887" lon="2.24057">
        <ele>18.2</ele>
        <time>2022-04-11T10:21:48Z</time>
      </trkpt>
      <trkpt lat="49.91886" lon="2.24055">
        <ele>18.1</ele>
        <time>2022-04-11T10:21:49Z</time>
      </trkpt>
      <trkpt lat="49.91885" lon="2.24053">
        <ele>18.1</ele>
        <time>2022-04-11T10:21:50Z</time>
      </trkpt>
      <trkpt lat="49.91884" lon="2.24052">
        <ele>18.1</ele>
        <time>2022-04-11T10:21:51Z</time>
      </trkpt>
      <trkpt lat="49.91884" lon="2.24051">
        <ele>18.1</ele>
        <time>2022-04-11T10:21:53Z</time>
      </trkpt>
      <trkpt lat="49.91883" lon="2.24049">
        <ele>18.1</ele>
        <time>2022-04-11T10:21:54Z</time>
      </trkpt>
      <trkpt lat="49.91883" lon="2.24048">
        <ele>18.1</ele>
        <time>2022-04-11T10:21:55Z</time>
      </trkpt>
      <trkpt lat="49.91884" lon="2.2405">
        <ele>18.1</ele>
        <time>2022-04-11T10:21:56Z</time>
      </trkpt>
      <trkpt lat="49.91884" lon="2.24049">
        <ele>18.1</ele>
        <time>2022-04-11T10:21:57Z</time>
      </trkpt>
      <trkpt lat="49.91883" lon="2.24047">
        <ele>18.1</ele>
        <time>2022-04-11T10:21:59Z</time>
      </trkpt>
      <trkpt lat="49.91882" lon="2.24045">
        <ele>18.1</ele>
        <time>2022-04-11T10:22:00Z</time>
      </trkpt>
      <trkpt lat="49.91881" lon="2.24043">
        <ele>18.1</ele>
        <time>2022-04-11T10:22:01Z</time>
      </trkpt>
      <trkpt lat="49.91881" lon="2.24041">
        <ele>18.1</ele>
        <time>2022-04-11T10:22:02Z</time>
      </trkpt>
      <trkpt lat="49.9188" lon="2.24039">
        <ele>18.1</ele>
        <time>2022-04-11T10:22:03Z</time>
      </trkpt>
      <trkpt lat="49.91879" lon="2.24037">
        <ele>18.1</ele>
        <time>2022-04-11T10:22:04Z</time>
      </trkpt>
      <trkpt lat="49.91878" lon="2.24036">
        <ele>18.1</ele>
        <time>2022-04-11T10:22:05Z</time>
      </trkpt>
      <trkpt lat="49.91878" lon="2.24035">
        <ele>18</ele>
        <time>2022-04-11T10:22:06Z</time>
      </trkpt>
      <trkpt lat="49.91878" lon="2.24034">
        <ele>18</ele>
        <time>2022-04-11T10:22:07Z</time>
      </trkpt>
      <trkpt lat="49.91877" lon="2.24033">
        <ele>18</ele>
        <time>2022-04-11T10:22:08Z</time>
      </trkpt>
      <trkpt lat="49.91875" lon="2.24031">
        <ele>18</ele>
        <time>2022-04-11T10:22:09Z</time>
      </trkpt>
      <trkpt lat="49.91874" lon="2.2403">
        <ele>18</ele>
        <time>2022-04-11T10:22:11Z</time>
      </trkpt>
      <trkpt lat="49.91874" lon="2.24029">
        <ele>18</ele>
        <time>2022-04-11T10:22:12Z</time>
      </trkpt>
      <trkpt lat="49.91872" lon="2.24028">
        <ele>18</ele>
        <time>2022-04-11T10:22:13Z</time>
      </trkpt>
      <trkpt lat="49.91871" lon="2.24026">
        <ele>18</ele>
        <time>2022-04-11T10:22:14Z</time>
      </trkpt>
      <trkpt lat="49.9187" lon="2.24024">
        <ele>18</ele>
        <time>2022-04-11T10:22:15Z</time>
      </trkpt>
      <trkpt lat="49.91868" lon="2.24023">
        <ele>18</ele>
        <time>2022-04-11T10:22:16Z</time>
      </trkpt>
      <trkpt lat="49.91867" lon="2.24021">
        <ele>18</ele>
        <time>2022-04-11T10:22:17Z</time>
      </trkpt>
      <trkpt lat="49.91866" lon="2.2402">
        <ele>18</ele>
        <time>2022-04-11T10:22:18Z</time>
      </trkpt>
      <trkpt lat="49.91863" lon="2.24017">
        <ele>18</ele>
        <time>2022-04-11T10:22:19Z</time>
      </trkpt>
      <trkpt lat="49.91863" lon="2.24015">
        <ele>18</ele>
        <time>2022-04-11T10:22:20Z</time>
      </trkpt>
      <trkpt lat="49.9186" lon="2.24012">
        <ele>18</ele>
        <time>2022-04-11T10:22:22Z</time>
      </trkpt>
      <trkpt lat="49.9186" lon="2.24011">
        <ele>18</ele>
        <time>2022-04-11T10:22:23Z</time>
      </trkpt>
      <trkpt lat="49.91858" lon="2.2401">
        <ele>18</ele>
        <time>2022-04-11T10:22:24Z</time>
      </trkpt>
      <trkpt lat="49.91857" lon="2.24009">
        <ele>18</ele>
        <time>2022-04-11T10:22:26Z</time>
      </trkpt>
      <trkpt lat="49.91856" lon="2.24008">
        <ele>18</ele>
        <time>2022-04-11T10:22:27Z</time>
      </trkpt>
      <trkpt lat="49.91854" lon="2.24007">
        <ele>18</ele>
        <time>2022-04-11T10:22:28Z</time>
      </trkpt>
      <trkpt lat="49.91853" lon="2.24006">
        <ele>18</ele>
        <time>2022-04-11T10:22:29Z</time>
      </trkpt>
      <trkpt lat="49.91852" lon="2.24005">
        <ele>18</ele>
        <time>2022-04-11T10:22:30Z</time>
      </trkpt>
      <trkpt lat="49.91851" lon="2.24004">
        <ele>18</ele>
        <time>2022-04-11T10:22:31Z</time>
      </trkpt>
      <trkpt lat="49.9185" lon="2.24004">
        <ele>18</ele>
        <time>2022-04-11T10:22:32Z</time>
      </trkpt>
      <trkpt lat="49.91849" lon="2.24003">
        <ele>18</ele>
        <time>2022-04-11T10:22:33Z</time>
      </trkpt>
      <trkpt lat="49.91847" lon="2.24002">
        <ele>18</ele>
        <time>2022-04-11T10:22:34Z</time>
      </trkpt>
      <trkpt lat="49.91846" lon="2.24002">
        <ele>18</ele>
        <time>2022-04-11T10:22:35Z</time>
      </trkpt>
      <trkpt lat="49.91845" lon="2.24001">
        <ele>18</ele>
        <time>2022-04-11T10:22:37Z</time>
      </trkpt>
      <trkpt lat="49.91844" lon="2.24">
        <ele>18</ele>
        <time>2022-04-11T10:22:38Z</time>
      </trkpt>
      <trkpt lat="49.91843" lon="2.24">
        <ele>18</ele>
        <time>2022-04-11T10:22:39Z</time>
      </trkpt>
      <trkpt lat="49.91842" lon="2.23999">
        <ele>18</ele>
        <time>2022-04-11T10:22:40Z</time>
      </trkpt>
      <trkpt lat="49.91841" lon="2.23998">
        <ele>18</ele>
        <time>2022-04-11T10:22:41Z</time>
      </trkpt>
      <trkpt lat="49.9184" lon="2.23997">
        <ele>18</ele>
        <time>2022-04-11T10:22:42Z</time>
      </trkpt>
      <trkpt lat="49.91838" lon="2.23996">
        <ele>18</ele>
        <time>2022-04-11T10:22:43Z</time>
      </trkpt>
      <trkpt lat="49.91837" lon="2.23995">
        <ele>18</ele>
        <time>2022-04-11T10:22:44Z</time>
      </trkpt>
      <trkpt lat="49.91836" lon="2.23995">
        <ele>18</ele>
        <time>2022-04-11T10:22:45Z</time>
      </trkpt>
      <trkpt lat="49.91835" lon="2.23994">
        <ele>18</ele>
        <time>2022-04-11T10:22:46Z</time>
      </trkpt>
      <trkpt lat="49.91834" lon="2.23993">
        <ele>18</ele>
        <time>2022-04-11T10:22:47Z</time>
      </trkpt>
      <trkpt lat="49.91833" lon="2.23992">
        <ele>18</ele>
        <time>2022-04-11T10:22:49Z</time>
      </trkpt>
      <trkpt lat="49.91832" lon="2.23991">
        <ele>18</ele>
        <time>2022-04-11T10:22:50Z</time>
      </trkpt>
      <trkpt lat="49.91831" lon="2.2399">
        <ele>18</ele>
        <time>2022-04-11T10:22:51Z</time>
      </trkpt>
      <trkpt lat="49.9183" lon="2.23989">
        <ele>18</ele>
        <time>2022-04-11T10:22:52Z</time>
      </trkpt>
      <trkpt lat="49.91827" lon="2.23987">
        <ele>17.9</ele>
        <time>2022-04-11T10:22:53Z</time>
      </trkpt>
      <trkpt lat="49.91826" lon="2.23987">
        <ele>17.9</ele>
        <time>2022-04-11T10:22:55Z</time>
      </trkpt>
      <trkpt lat="49.91825" lon="2.23986">
        <ele>17.9</ele>
        <time>2022-04-11T10:22:56Z</time>
      </trkpt>
      <trkpt lat="49.91824" lon="2.23985">
        <ele>17.9</ele>
        <time>2022-04-11T10:22:57Z</time>
      </trkpt>
      <trkpt lat="49.91823" lon="2.23984">
        <ele>17.9</ele>
        <time>2022-04-11T10:22:58Z</time>
      </trkpt>
      <trkpt lat="49.91821" lon="2.23983">
        <ele>17.9</ele>
        <time>2022-04-11T10:22:59Z</time>
      </trkpt>
      <trkpt lat="49.9182" lon="2.23983">
        <ele>17.9</ele>
        <time>2022-04-11T10:23:00Z</time>
      </trkpt>
      <trkpt lat="49.9182" lon="2.23982">
        <ele>17.9</ele>
        <time>2022-04-11T10:23:01Z</time>
      </trkpt>
      <trkpt lat="49.91818" lon="2.23981">
        <ele>17.9</ele>
        <time>2022-04-11T10:23:02Z</time>
      </trkpt>
      <trkpt lat="49.91817" lon="2.23981">
        <ele>17.9</ele>
        <time>2022-04-11T10:23:03Z</time>
      </trkpt>
      <trkpt lat="49.91816" lon="2.2398">
        <ele>17.9</ele>
        <time>2022-04-11T10:23:05Z</time>
      </trkpt>
      <trkpt lat="49.91814" lon="2.23978">
        <ele>17.9</ele>
        <time>2022-04-11T10:23:06Z</time>
      </trkpt>
      <trkpt lat="49.91813" lon="2.23977">
        <ele>17.9</ele>
        <time>2022-04-11T10:23:07Z</time>
      </trkpt>
      <trkpt lat="49.91812" lon="2.23977">
        <ele>17.9</ele>
        <time>2022-04-11T10:23:08Z</time>
      </trkpt>
      <trkpt lat="49.91811" lon="2.23976">
        <ele>17.9</ele>
        <time>2022-04-11T10:23:09Z</time>
      </trkpt>
      <trkpt lat="49.9181" lon="2.23975">
        <ele>17.9</ele>
        <time>2022-04-11T10:23:10Z</time>
      </trkpt>
      <trkpt lat="49.91809" lon="2.23974">
        <ele>17.9</ele>
        <time>2022-04-11T10:23:11Z</time>
      </trkpt>
      <trkpt lat="49.91808" lon="2.23973">
        <ele>17.9</ele>
        <time>2022-04-11T10:23:12Z</time>
      </trkpt>
      <trkpt lat="49.91807" lon="2.23973">
        <ele>17.9</ele>
        <time>2022-04-11T10:23:13Z</time>
      </trkpt>
      <trkpt lat="49.91806" lon="2.23972">
        <ele>17.9</ele>
        <time>2022-04-11T10:23:15Z</time>
      </trkpt>
      <trkpt lat="49.91804" lon="2.23971">
        <ele>17.9</ele>
        <time>2022-04-11T10:23:16Z</time>
      </trkpt>
      <trkpt lat="49.91803" lon="2.23971">
        <ele>17.9</ele>
        <time>2022-04-11T10:23:17Z</time>
      </trkpt>
      <trkpt lat="49.91801" lon="2.23969">
        <ele>17.9</ele>
        <time>2022-04-11T10:23:18Z</time>
      </trkpt>
      <trkpt lat="49.918" lon="2.23968">
        <ele>17.9</ele>
        <time>2022-04-11T10:23:20Z</time>
      </trkpt>
      <trkpt lat="49.918" lon="2.23967">
        <ele>17.9</ele>
        <time>2022-04-11T10:23:21Z</time>
      </trkpt>
      <trkpt lat="49.91799" lon="2.23966">
        <ele>17.9</ele>
        <time>2022-04-11T10:23:22Z</time>
      </trkpt>
      <trkpt lat="49.91798" lon="2.23966">
        <ele>17.9</ele>
        <time>2022-04-11T10:23:23Z</time>
      </trkpt>
      <trkpt lat="49.91797" lon="2.23964">
        <ele>17.9</ele>
        <time>2022-04-11T10:23:24Z</time>
      </trkpt>
      <trkpt lat="49.91796" lon="2.23963">
        <ele>17.9</ele>
        <time>2022-04-11T10:23:25Z</time>
      </trkpt>
      <trkpt lat="49.91794" lon="2.23961">
        <ele>17.9</ele>
        <time>2022-04-11T10:23:26Z</time>
      </trkpt>
      <trkpt lat="49.91793" lon="2.2396">
        <ele>17.9</ele>
        <time>2022-04-11T10:23:27Z</time>
      </trkpt>
      <trkpt lat="49.91793" lon="2.2396">
        <ele>17.9</ele>
        <time>2022-04-11T10:23:28Z</time>
      </trkpt>
      <trkpt lat="49.91792" lon="2.23958">
        <ele>17.9</ele>
        <time>2022-04-11T10:23:29Z</time>
      </trkpt>
      <trkpt lat="49.91791" lon="2.23957">
        <ele>17.9</ele>
        <time>2022-04-11T10:23:30Z</time>
      </trkpt>
      <trkpt lat="49.91789" lon="2.23956">
        <ele>17.9</ele>
        <time>2022-04-11T10:23:32Z</time>
      </trkpt>
      <trkpt lat="49.91788" lon="2.23954">
        <ele>17.9</ele>
        <time>2022-04-11T10:23:33Z</time>
      </trkpt>
      <trkpt lat="49.91787" lon="2.23953">
        <ele>17.9</ele>
        <time>2022-04-11T10:23:34Z</time>
      </trkpt>
      <trkpt lat="49.91786" lon="2.23951">
        <ele>17.9</ele>
        <time>2022-04-11T10:23:35Z</time>
      </trkpt>
      <trkpt lat="49.91785" lon="2.23949">
        <ele>17.9</ele>
        <time>2022-04-11T10:23:36Z</time>
      </trkpt>
      <trkpt lat="49.91785" lon="2.23947">
        <ele>17.9</ele>
        <time>2022-04-11T10:23:38Z</time>
      </trkpt>
      <trkpt lat="49.91784" lon="2.23945">
        <ele>17.9</ele>
        <time>2022-04-11T10:23:39Z</time>
      </trkpt>
      <trkpt lat="49.91783" lon="2.23943">
        <ele>17.9</ele>
        <time>2022-04-11T10:23:40Z</time>
      </trkpt>
      <trkpt lat="49.91782" lon="2.2394">
        <ele>17.9</ele>
        <time>2022-04-11T10:23:41Z</time>
      </trkpt>
      <trkpt lat="49.91782" lon="2.23938">
        <ele>17.9</ele>
        <time>2022-04-11T10:23:42Z</time>
      </trkpt>
      <trkpt lat="49.91782" lon="2.23937">
        <ele>17.9</ele>
        <time>2022-04-11T10:23:43Z</time>
      </trkpt>
      <trkpt lat="49.91781" lon="2.23934">
        <ele>17.9</ele>
        <time>2022-04-11T10:23:44Z</time>
      </trkpt>
      <trkpt lat="49.91781" lon="2.23933">
        <ele>17.9</ele>
        <time>2022-04-11T10:23:45Z</time>
      </trkpt>
      <trkpt lat="49.9178" lon="2.23932">
        <ele>17.9</ele>
        <time>2022-04-11T10:23:46Z</time>
      </trkpt>
      <trkpt lat="49.9178" lon="2.23929">
        <ele>17.9</ele>
        <time>2022-04-11T10:23:47Z</time>
      </trkpt>
      <trkpt lat="49.91779" lon="2.23927">
        <ele>17.9</ele>
        <time>2022-04-11T10:23:48Z</time>
      </trkpt>
      <trkpt lat="49.91779" lon="2.23926">
        <ele>17.9</ele>
        <time>2022-04-11T10:23:49Z</time>
      </trkpt>
      <trkpt lat="49.91778" lon="2.23924">
        <ele>17.9</ele>
        <time>2022-04-11T10:23:50Z</time>
      </trkpt>
      <trkpt lat="49.91778" lon="2.23922">
        <ele>17.9</ele>
        <time>2022-04-11T10:23:52Z</time>
      </trkpt>
      <trkpt lat="49.91777" lon="2.2392">
        <ele>17.9</ele>
        <time>2022-04-11T10:23:53Z</time>
      </trkpt>
      <trkpt lat="49.91777" lon="2.23918">
        <ele>17.9</ele>
        <time>2022-04-11T10:23:54Z</time>
      </trkpt>
      <trkpt lat="49.91776" lon="2.23917">
        <ele>17.9</ele>
        <time>2022-04-11T10:23:55Z</time>
      </trkpt>
      <trkpt lat="49.91776" lon="2.23916">
        <ele>17.9</ele>
        <time>2022-04-11T10:23:56Z</time>
      </trkpt>
      <trkpt lat="49.91775" lon="2.23914">
        <ele>17.9</ele>
        <time>2022-04-11T10:23:57Z</time>
      </trkpt>
      <trkpt lat="49.91775" lon="2.23912">
        <ele>17.9</ele>
        <time>2022-04-11T10:23:58Z</time>
      </trkpt>
      <trkpt lat="49.91774" lon="2.2391">
        <ele>17.9</ele>
        <time>2022-04-11T10:23:59Z</time>
      </trkpt>
      <trkpt lat="49.91774" lon="2.23909">
        <ele>18</ele>
        <time>2022-04-11T10:24:00Z</time>
      </trkpt>
      <trkpt lat="49.91774" lon="2.23908">
        <ele>18</ele>
        <time>2022-04-11T10:24:01Z</time>
      </trkpt>
      <trkpt lat="49.91773" lon="2.23906">
        <ele>18</ele>
        <time>2022-04-11T10:24:02Z</time>
      </trkpt>
      <trkpt lat="49.91773" lon="2.23904">
        <ele>18</ele>
        <time>2022-04-11T10:24:03Z</time>
      </trkpt>
      <trkpt lat="49.91773" lon="2.23901">
        <ele>18</ele>
        <time>2022-04-11T10:24:05Z</time>
      </trkpt>
      <trkpt lat="49.91773" lon="2.239">
        <ele>18</ele>
        <time>2022-04-11T10:24:06Z</time>
      </trkpt>
      <trkpt lat="49.91773" lon="2.23898">
        <ele>18</ele>
        <time>2022-04-11T10:24:07Z</time>
      </trkpt>
      <trkpt lat="49.91773" lon="2.23897">
        <ele>18</ele>
        <time>2022-04-11T10:24:08Z</time>
      </trkpt>
      <trkpt lat="49.91773" lon="2.23895">
        <ele>18</ele>
        <time>2022-04-11T10:24:09Z</time>
      </trkpt>
      <trkpt lat="49.91772" lon="2.23893">
        <ele>18</ele>
        <time>2022-04-11T10:24:10Z</time>
      </trkpt>
      <trkpt lat="49.91771" lon="2.2389">
        <ele>18</ele>
        <time>2022-04-11T10:24:11Z</time>
      </trkpt>
      <trkpt lat="49.91771" lon="2.23889">
        <ele>18</ele>
        <time>2022-04-11T10:24:12Z</time>
      </trkpt>
      <trkpt lat="49.9177" lon="2.23888">
        <ele>18</ele>
        <time>2022-04-11T10:24:13Z</time>
      </trkpt>
      <trkpt lat="49.9177" lon="2.23886">
        <ele>18</ele>
        <time>2022-04-11T10:24:14Z</time>
      </trkpt>
      <trkpt lat="49.91769" lon="2.23884">
        <ele>18</ele>
        <time>2022-04-11T10:24:15Z</time>
      </trkpt>
      <trkpt lat="49.91769" lon="2.23882">
        <ele>18</ele>
        <time>2022-04-11T10:24:17Z</time>
      </trkpt>
      <trkpt lat="49.91768" lon="2.2388">
        <ele>18</ele>
        <time>2022-04-11T10:24:18Z</time>
      </trkpt>
      <trkpt lat="49.91768" lon="2.23879">
        <ele>18</ele>
        <time>2022-04-11T10:24:19Z</time>
      </trkpt>
      <trkpt lat="49.91767" lon="2.23877">
        <ele>18</ele>
        <time>2022-04-11T10:24:20Z</time>
      </trkpt>
      <trkpt lat="49.91767" lon="2.23876">
        <ele>18</ele>
        <time>2022-04-11T10:24:21Z</time>
      </trkpt>
      <trkpt lat="49.91766" lon="2.23874">
        <ele>18</ele>
        <time>2022-04-11T10:24:22Z</time>
      </trkpt>
      <trkpt lat="49.91766" lon="2.23872">
        <ele>18</ele>
        <time>2022-04-11T10:24:23Z</time>
      </trkpt>
      <trkpt lat="49.91765" lon="2.23871">
        <ele>18</ele>
        <time>2022-04-11T10:24:24Z</time>
      </trkpt>
      <trkpt lat="49.91765" lon="2.23869">
        <ele>18</ele>
        <time>2022-04-11T10:24:25Z</time>
      </trkpt>
      <trkpt lat="49.91764" lon="2.23868">
        <ele>18</ele>
        <time>2022-04-11T10:24:26Z</time>
      </trkpt>
      <trkpt lat="49.91763" lon="2.23866">
        <ele>18</ele>
        <time>2022-04-11T10:24:28Z</time>
      </trkpt>
      <trkpt lat="49.91763" lon="2.23865">
        <ele>18</ele>
        <time>2022-04-11T10:24:29Z</time>
      </trkpt>
      <trkpt lat="49.91762" lon="2.23863">
        <ele>18</ele>
        <time>2022-04-11T10:24:30Z</time>
      </trkpt>
      <trkpt lat="49.91762" lon="2.23862">
        <ele>18</ele>
        <time>2022-04-11T10:24:31Z</time>
      </trkpt>
      <trkpt lat="49.91762" lon="2.2386">
        <ele>18</ele>
        <time>2022-04-11T10:24:32Z</time>
      </trkpt>
      <trkpt lat="49.91761" lon="2.23858">
        <ele>18</ele>
        <time>2022-04-11T10:24:33Z</time>
      </trkpt>
      <trkpt lat="49.91761" lon="2.23856">
        <ele>18</ele>
        <time>2022-04-11T10:24:34Z</time>
      </trkpt>
      <trkpt lat="49.9176" lon="2.23854">
        <ele>18</ele>
        <time>2022-04-11T10:24:35Z</time>
      </trkpt>
      <trkpt lat="49.9176" lon="2.23852">
        <ele>18</ele>
        <time>2022-04-11T10:24:37Z</time>
      </trkpt>
      <trkpt lat="49.91759" lon="2.23849">
        <ele>18</ele>
        <time>2022-04-11T10:24:38Z</time>
      </trkpt>
      <trkpt lat="49.91759" lon="2.23847">
        <ele>18</ele>
        <time>2022-04-11T10:24:39Z</time>
      </trkpt>
      <trkpt lat="49.91758" lon="2.23846">
        <ele>18</ele>
        <time>2022-04-11T10:24:40Z</time>
      </trkpt>
      <trkpt lat="49.91758" lon="2.23844">
        <ele>18</ele>
        <time>2022-04-11T10:24:41Z</time>
      </trkpt>
      <trkpt lat="49.91758" lon="2.23842">
        <ele>18</ele>
        <time>2022-04-11T10:24:42Z</time>
      </trkpt>
      <trkpt lat="49.91757" lon="2.23839">
        <ele>18</ele>
        <time>2022-04-11T10:24:44Z</time>
      </trkpt>
      <trkpt lat="49.91757" lon="2.23838">
        <ele>18</ele>
        <time>2022-04-11T10:24:45Z</time>
      </trkpt>
      <trkpt lat="49.91757" lon="2.23836">
        <ele>18</ele>
        <time>2022-04-11T10:24:46Z</time>
      </trkpt>
      <trkpt lat="49.91756" lon="2.23835">
        <ele>18</ele>
        <time>2022-04-11T10:24:47Z</time>
      </trkpt>
      <trkpt lat="49.91756" lon="2.23833">
        <ele>18</ele>
        <time>2022-04-11T10:24:48Z</time>
      </trkpt>
      <trkpt lat="49.91755" lon="2.23832">
        <ele>18</ele>
        <time>2022-04-11T10:24:49Z</time>
      </trkpt>
      <trkpt lat="49.91755" lon="2.23832">
        <ele>18</ele>
        <time>2022-04-11T10:24:50Z</time>
      </trkpt>
      <trkpt lat="49.91754" lon="2.2383">
        <ele>18</ele>
        <time>2022-04-11T10:24:52Z</time>
      </trkpt>
      <trkpt lat="49.91754" lon="2.23829">
        <ele>18</ele>
        <time>2022-04-11T10:24:53Z</time>
      </trkpt>
      <trkpt lat="49.91754" lon="2.23829">
        <ele>18</ele>
        <time>2022-04-11T10:24:54Z</time>
      </trkpt>
      <trkpt lat="49.91754" lon="2.23829">
        <ele>18</ele>
        <time>2022-04-11T10:24:55Z</time>
      </trkpt>
      <trkpt lat="49.91755" lon="2.23829">
        <ele>18</ele>
        <time>2022-04-11T10:24:56Z</time>
      </trkpt>
      <trkpt lat="49.91755" lon="2.2383">
        <ele>18</ele>
        <time>2022-04-11T10:24:57Z</time>
      </trkpt>
      <trkpt lat="49.91755" lon="2.23831">
        <ele>18</ele>
        <time>2022-04-11T10:24:58Z</time>
      </trkpt>
      <trkpt lat="49.91755" lon="2.23831">
        <ele>18</ele>
        <time>2022-04-11T10:24:59Z</time>
      </trkpt>
      <trkpt lat="49.91755" lon="2.23832">
        <ele>18</ele>
        <time>2022-04-11T10:25:00Z</time>
      </trkpt>
      <trkpt lat="49.91755" lon="2.23832">
        <ele>18</ele>
        <time>2022-04-11T10:25:01Z</time>
      </trkpt>
      <trkpt lat="49.91755" lon="2.23832">
        <ele>18</ele>
        <time>2022-04-11T10:25:02Z</time>
      </trkpt>
      <trkpt lat="49.91755" lon="2.23832">
        <ele>18</ele>
        <time>2022-04-11T10:25:03Z</time>
      </trkpt>
      <trkpt lat="49.91755" lon="2.23833">
        <ele>18</ele>
        <time>2022-04-11T10:25:04Z</time>
      </trkpt>
      <trkpt lat="49.91755" lon="2.23833">
        <ele>18</ele>
        <time>2022-04-11T10:25:05Z</time>
      </trkpt>
      <trkpt lat="49.91755" lon="2.23833">
        <ele>18</ele>
        <time>2022-04-11T10:25:06Z</time>
      </trkpt>
      <trkpt lat="49.91755" lon="2.23833">
        <ele>18</ele>
        <time>2022-04-11T10:25:07Z</time>
      </trkpt>
      <trkpt lat="49.91755" lon="2.23833">
        <ele>18</ele>
        <time>2022-04-11T10:25:08Z</time>
      </trkpt>
      <trkpt lat="49.91755" lon="2.23833">
        <ele>18</ele>
        <time>2022-04-11T10:25:09Z</time>
      </trkpt>
      <trkpt lat="49.91755" lon="2.23833">
        <ele>18</ele>
        <time>2022-04-11T10:25:10Z</time>
      </trkpt>
      <trkpt lat="49.91755" lon="2.23833">
        <ele>18</ele>
        <time>2022-04-11T10:25:11Z</time>
      </trkpt>
      <trkpt lat="49.91755" lon="2.23833">
        <ele>18</ele>
        <time>2022-04-11T10:25:12Z</time>
      </trkpt>
      <trkpt lat="49.91755" lon="2.23831">
        <ele>18</ele>
        <time>2022-04-11T10:25:14Z</time>
      </trkpt>
      <trkpt lat="49.91754" lon="2.23829">
        <ele>18</ele>
        <time>2022-04-11T10:25:15Z</time>
      </trkpt>
      <trkpt lat="49.91754" lon="2.23829">
        <ele>18</ele>
        <time>2022-04-11T10:25:16Z</time>
      </trkpt>
      <trkpt lat="49.91753" lon="2.23828">
        <ele>18</ele>
        <time>2022-04-11T10:25:17Z</time>
      </trkpt>
      <trkpt lat="49.91753" lon="2.23828">
        <ele>18</ele>
        <time>2022-04-11T10:25:18Z</time>
      </trkpt>
      <trkpt lat="49.91753" lon="2.23828">
        <ele>18</ele>
        <time>2022-04-11T10:25:19Z</time>
      </trkpt>
      <trkpt lat="49.91753" lon="2.23828">
        <ele>18</ele>
        <time>2022-04-11T10:25:20Z</time>
      </trkpt>
      <trkpt lat="49.91753" lon="2.23828">
        <ele>18</ele>
        <time>2022-04-11T10:25:21Z</time>
      </trkpt>
      <trkpt lat="49.91753" lon="2.23828">
        <ele>18</ele>
        <time>2022-04-11T10:25:22Z</time>
      </trkpt>
      <trkpt lat="49.91753" lon="2.23828">
        <ele>18</ele>
        <time>2022-04-11T10:25:23Z</time>
      </trkpt>
      <trkpt lat="49.91753" lon="2.23828">
        <ele>18</ele>
        <time>2022-04-11T10:25:24Z</time>
      </trkpt>
      <trkpt lat="49.91753" lon="2.23828">
        <ele>18</ele>
        <time>2022-04-11T10:25:25Z</time>
      </trkpt>
      <trkpt lat="49.91753" lon="2.23828">
        <ele>18</ele>
        <time>2022-04-11T10:25:26Z</time>
      </trkpt>
      <trkpt lat="49.91753" lon="2.23828">
        <ele>18</ele>
        <time>2022-04-11T10:25:27Z</time>
      </trkpt>
      <trkpt lat="49.91753" lon="2.23828">
        <ele>18</ele>
        <time>2022-04-11T10:25:28Z</time>
      </trkpt>
      <trkpt lat="49.91753" lon="2.23828">
        <ele>18</ele>
        <time>2022-04-11T10:25:29Z</time>
      </trkpt>
      <trkpt lat="49.91753" lon="2.23827">
        <ele>18</ele>
        <time>2022-04-11T10:25:31Z</time>
      </trkpt>
      <trkpt lat="49.91753" lon="2.23826">
        <ele>18</ele>
        <time>2022-04-11T10:25:32Z</time>
      </trkpt>
      <trkpt lat="49.91753" lon="2.23825">
        <ele>18</ele>
        <time>2022-04-11T10:25:33Z</time>
      </trkpt>
      <trkpt lat="49.91753" lon="2.23823">
        <ele>18</ele>
        <time>2022-04-11T10:25:34Z</time>
      </trkpt>
      <trkpt lat="49.91752" lon="2.23822">
        <ele>18</ele>
        <time>2022-04-11T10:25:35Z</time>
      </trkpt>
      <trkpt lat="49.91752" lon="2.23821">
        <ele>18</ele>
        <time>2022-04-11T10:25:36Z</time>
      </trkpt>
      <trkpt lat="49.91752" lon="2.23819">
        <ele>18</ele>
        <time>2022-04-11T10:25:37Z</time>
      </trkpt>
      <trkpt lat="49.91752" lon="2.23817">
        <ele>18</ele>
        <time>2022-04-11T10:25:38Z</time>
      </trkpt>
      <trkpt lat="49.91752" lon="2.23815">
        <ele>18</ele>
        <time>2022-04-11T10:25:40Z</time>
      </trkpt>
      <trkpt lat="49.91752" lon="2.23813">
        <ele>18</ele>
        <time>2022-04-11T10:25:41Z</time>
      </trkpt>
      <trkpt lat="49.91752" lon="2.23812">
        <ele>18</ele>
        <time>2022-04-11T10:25:42Z</time>
      </trkpt>
      <trkpt lat="49.91751" lon="2.2381">
        <ele>18</ele>
        <time>2022-04-11T10:25:43Z</time>
      </trkpt>
      <trkpt lat="49.91751" lon="2.23808">
        <ele>18</ele>
        <time>2022-04-11T10:25:44Z</time>
      </trkpt>
      <trkpt lat="49.91751" lon="2.23806">
        <ele>18</ele>
        <time>2022-04-11T10:25:45Z</time>
      </trkpt>
      <trkpt lat="49.91751" lon="2.23805">
        <ele>18</ele>
        <time>2022-04-11T10:25:46Z</time>
      </trkpt>
      <trkpt lat="49.91751" lon="2.23805">
        <ele>18</ele>
        <time>2022-04-11T10:25:47Z</time>
      </trkpt>
      <trkpt lat="49.91751" lon="2.23806">
        <ele>18</ele>
        <time>2022-04-11T10:25:48Z</time>
      </trkpt>
      <trkpt lat="49.91751" lon="2.23805">
        <ele>18</ele>
        <time>2022-04-11T10:25:49Z</time>
      </trkpt>
      <trkpt lat="49.91751" lon="2.23804">
        <ele>18</ele>
        <time>2022-04-11T10:25:50Z</time>
      </trkpt>
      <trkpt lat="49.91751" lon="2.23801">
        <ele>18</ele>
        <time>2022-04-11T10:25:52Z</time>
      </trkpt>
      <trkpt lat="49.91751" lon="2.238">
        <ele>18</ele>
        <time>2022-04-11T10:25:53Z</time>
      </trkpt>
      <trkpt lat="49.91751" lon="2.23798">
        <ele>18</ele>
        <time>2022-04-11T10:25:54Z</time>
      </trkpt>
      <trkpt lat="49.91751" lon="2.23796">
        <ele>18</ele>
        <time>2022-04-11T10:25:55Z</time>
      </trkpt>
      <trkpt lat="49.91751" lon="2.23794">
        <ele>18</ele>
        <time>2022-04-11T10:25:56Z</time>
      </trkpt>
      <trkpt lat="49.91751" lon="2.23793">
        <ele>18</ele>
        <time>2022-04-11T10:25:57Z</time>
      </trkpt>
      <trkpt lat="49.91751" lon="2.23791">
        <ele>18</ele>
        <time>2022-04-11T10:25:58Z</time>
      </trkpt>
      <trkpt lat="49.91751" lon="2.23789">
        <ele>18</ele>
        <time>2022-04-11T10:25:59Z</time>
      </trkpt>
      <trkpt lat="49.91752" lon="2.23787">
        <ele>18</ele>
        <time>2022-04-11T10:26:00Z</time>
      </trkpt>
      <trkpt lat="49.91753" lon="2.23786">
        <ele>18</ele>
        <time>2022-04-11T10:26:01Z</time>
      </trkpt>
      <trkpt lat="49.91753" lon="2.23785">
        <ele>18</ele>
        <time>2022-04-11T10:26:02Z</time>
      </trkpt>
      <trkpt lat="49.91753" lon="2.23784">
        <ele>18</ele>
        <time>2022-04-11T10:26:03Z</time>
      </trkpt>
      <trkpt lat="49.91753" lon="2.23782">
        <ele>18</ele>
        <time>2022-04-11T10:26:05Z</time>
      </trkpt>
      <trkpt lat="49.91753" lon="2.23779">
        <ele>18</ele>
        <time>2022-04-11T10:26:06Z</time>
      </trkpt>
      <trkpt lat="49.91754" lon="2.23777">
        <ele>18</ele>
        <time>2022-04-11T10:26:07Z</time>
      </trkpt>
      <trkpt lat="49.91754" lon="2.23775">
        <ele>18</ele>
        <time>2022-04-11T10:26:08Z</time>
      </trkpt>
      <trkpt lat="49.91754" lon="2.23773">
        <ele>18</ele>
        <time>2022-04-11T10:26:09Z</time>
      </trkpt>
      <trkpt lat="49.91754" lon="2.23771">
        <ele>18</ele>
        <time>2022-04-11T10:26:10Z</time>
      </trkpt>
      <trkpt lat="49.91755" lon="2.23769">
        <ele>18</ele>
        <time>2022-04-11T10:26:11Z</time>
      </trkpt>
      <trkpt lat="49.91756" lon="2.23767">
        <ele>17.9</ele>
        <time>2022-04-11T10:26:12Z</time>
      </trkpt>
      <trkpt lat="49.91757" lon="2.23764">
        <ele>17.9</ele>
        <time>2022-04-11T10:26:13Z</time>
      </trkpt>
      <trkpt lat="49.91758" lon="2.23763">
        <ele>17.9</ele>
        <time>2022-04-11T10:26:14Z</time>
      </trkpt>
      <trkpt lat="49.91758" lon="2.23762">
        <ele>17.9</ele>
        <time>2022-04-11T10:26:15Z</time>
      </trkpt>
      <trkpt lat="49.91759" lon="2.23759">
        <ele>17.9</ele>
        <time>2022-04-11T10:26:16Z</time>
      </trkpt>
      <trkpt lat="49.9176" lon="2.23758">
        <ele>17.9</ele>
        <time>2022-04-11T10:26:17Z</time>
      </trkpt>
      <trkpt lat="49.9176" lon="2.23757">
        <ele>17.9</ele>
        <time>2022-04-11T10:26:19Z</time>
      </trkpt>
      <trkpt lat="49.9176" lon="2.23755">
        <ele>17.9</ele>
        <time>2022-04-11T10:26:20Z</time>
      </trkpt>
      <trkpt lat="49.91761" lon="2.23754">
        <ele>17.9</ele>
        <time>2022-04-11T10:26:21Z</time>
      </trkpt>
      <trkpt lat="49.91761" lon="2.23752">
        <ele>17.9</ele>
        <time>2022-04-11T10:26:22Z</time>
      </trkpt>
      <trkpt lat="49.91761" lon="2.23751">
        <ele>17.9</ele>
        <time>2022-04-11T10:26:23Z</time>
      </trkpt>
      <trkpt lat="49.91762" lon="2.2375">
        <ele>17.9</ele>
        <time>2022-04-11T10:26:24Z</time>
      </trkpt>
      <trkpt lat="49.91763" lon="2.23748">
        <ele>17.8</ele>
        <time>2022-04-11T10:26:25Z</time>
      </trkpt>
      <trkpt lat="49.91764" lon="2.23746">
        <ele>17.8</ele>
        <time>2022-04-11T10:26:26Z</time>
      </trkpt>
      <trkpt lat="49.91764" lon="2.23745">
        <ele>17.8</ele>
        <time>2022-04-11T10:26:27Z</time>
      </trkpt>
      <trkpt lat="49.91764" lon="2.23743">
        <ele>17.8</ele>
        <time>2022-04-11T10:26:28Z</time>
      </trkpt>
      <trkpt lat="49.91764" lon="2.23742">
        <ele>17.8</ele>
        <time>2022-04-11T10:26:29Z</time>
      </trkpt>
      <trkpt lat="49.91764" lon="2.2374">
        <ele>17.8</ele>
        <time>2022-04-11T10:26:30Z</time>
      </trkpt>
      <trkpt lat="49.91765" lon="2.23738">
        <ele>17.8</ele>
        <time>2022-04-11T10:26:31Z</time>
      </trkpt>
      <trkpt lat="49.91765" lon="2.23736">
        <ele>17.8</ele>
        <time>2022-04-11T10:26:32Z</time>
      </trkpt>
      <trkpt lat="49.91766" lon="2.23734">
        <ele>17.8</ele>
        <time>2022-04-11T10:26:33Z</time>
      </trkpt>
      <trkpt lat="49.91767" lon="2.23731">
        <ele>17.8</ele>
        <time>2022-04-11T10:26:35Z</time>
      </trkpt>
      <trkpt lat="49.91768" lon="2.2373">
        <ele>17.8</ele>
        <time>2022-04-11T10:26:36Z</time>
      </trkpt>
      <trkpt lat="49.91768" lon="2.23729">
        <ele>17.8</ele>
        <time>2022-04-11T10:26:37Z</time>
      </trkpt>
      <trkpt lat="49.91769" lon="2.23727">
        <ele>17.7</ele>
        <time>2022-04-11T10:26:38Z</time>
      </trkpt>
      <trkpt lat="49.9177" lon="2.23726">
        <ele>17.7</ele>
        <time>2022-04-11T10:26:39Z</time>
      </trkpt>
      <trkpt lat="49.9177" lon="2.23722">
        <ele>17.7</ele>
        <time>2022-04-11T10:26:40Z</time>
      </trkpt>
      <trkpt lat="49.9177" lon="2.23721">
        <ele>17.7</ele>
        <time>2022-04-11T10:26:41Z</time>
      </trkpt>
      <trkpt lat="49.9177" lon="2.2372">
        <ele>17.7</ele>
        <time>2022-04-11T10:26:42Z</time>
      </trkpt>
      <trkpt lat="49.9177" lon="2.23718">
        <ele>17.7</ele>
        <time>2022-04-11T10:26:43Z</time>
      </trkpt>
      <trkpt lat="49.91771" lon="2.23716">
        <ele>17.7</ele>
        <time>2022-04-11T10:26:44Z</time>
      </trkpt>
      <trkpt lat="49.91772" lon="2.23716">
        <ele>17.7</ele>
        <time>2022-04-11T10:26:45Z</time>
      </trkpt>
      <trkpt lat="49.91772" lon="2.23714">
        <ele>17.7</ele>
        <time>2022-04-11T10:26:46Z</time>
      </trkpt>
      <trkpt lat="49.91773" lon="2.23712">
        <ele>17.7</ele>
        <time>2022-04-11T10:26:47Z</time>
      </trkpt>
      <trkpt lat="49.91773" lon="2.2371">
        <ele>17.7</ele>
        <time>2022-04-11T10:26:49Z</time>
      </trkpt>
      <trkpt lat="49.91774" lon="2.23707">
        <ele>17.7</ele>
        <time>2022-04-11T10:26:50Z</time>
      </trkpt>
      <trkpt lat="49.91774" lon="2.23706">
        <ele>17.7</ele>
        <time>2022-04-11T10:26:51Z</time>
      </trkpt>
      <trkpt lat="49.91775" lon="2.23704">
        <ele>17.7</ele>
        <time>2022-04-11T10:26:52Z</time>
      </trkpt>
      <trkpt lat="49.91775" lon="2.23702">
        <ele>17.7</ele>
        <time>2022-04-11T10:26:53Z</time>
      </trkpt>
      <trkpt lat="49.91776" lon="2.237">
        <ele>17.6</ele>
        <time>2022-04-11T10:26:54Z</time>
      </trkpt>
      <trkpt lat="49.91776" lon="2.23698">
        <ele>17.6</ele>
        <time>2022-04-11T10:26:55Z</time>
      </trkpt>
      <trkpt lat="49.91777" lon="2.23696">
        <ele>17.6</ele>
        <time>2022-04-11T10:26:56Z</time>
      </trkpt>
      <trkpt lat="49.91777" lon="2.23694">
        <ele>17.6</ele>
        <time>2022-04-11T10:26:57Z</time>
      </trkpt>
      <trkpt lat="49.91778" lon="2.23694">
        <ele>17.6</ele>
        <time>2022-04-11T10:26:58Z</time>
      </trkpt>
      <trkpt lat="49.91778" lon="2.23693">
        <ele>17.6</ele>
        <time>2022-04-11T10:26:59Z</time>
      </trkpt>
      <trkpt lat="49.91778" lon="2.23692">
        <ele>17.6</ele>
        <time>2022-04-11T10:27:00Z</time>
      </trkpt>
      <trkpt lat="49.91779" lon="2.2369">
        <ele>17.6</ele>
        <time>2022-04-11T10:27:01Z</time>
      </trkpt>
      <trkpt lat="49.91779" lon="2.23687">
        <ele>17.6</ele>
        <time>2022-04-11T10:27:02Z</time>
      </trkpt>
      <trkpt lat="49.9178" lon="2.23685">
        <ele>17.6</ele>
        <time>2022-04-11T10:27:04Z</time>
      </trkpt>
      <trkpt lat="49.9178" lon="2.23683">
        <ele>17.6</ele>
        <time>2022-04-11T10:27:05Z</time>
      </trkpt>
      <trkpt lat="49.91781" lon="2.2368">
        <ele>17.6</ele>
        <time>2022-04-11T10:27:06Z</time>
      </trkpt>
      <trkpt lat="49.91782" lon="2.23679">
        <ele>17.6</ele>
        <time>2022-04-11T10:27:07Z</time>
      </trkpt>
      <trkpt lat="49.91782" lon="2.23678">
        <ele>17.6</ele>
        <time>2022-04-11T10:27:08Z</time>
      </trkpt>
      <trkpt lat="49.91783" lon="2.23676">
        <ele>17.6</ele>
        <time>2022-04-11T10:27:09Z</time>
      </trkpt>
      <trkpt lat="49.91783" lon="2.23674">
        <ele>17.6</ele>
        <time>2022-04-11T10:27:10Z</time>
      </trkpt>
      <trkpt lat="49.91784" lon="2.23673">
        <ele>17.6</ele>
        <time>2022-04-11T10:27:11Z</time>
      </trkpt>
      <trkpt lat="49.91784" lon="2.23672">
        <ele>17.6</ele>
        <time>2022-04-11T10:27:12Z</time>
      </trkpt>
      <trkpt lat="49.91784" lon="2.23671">
        <ele>17.6</ele>
        <time>2022-04-11T10:27:13Z</time>
      </trkpt>
      <trkpt lat="49.91784" lon="2.23669">
        <ele>17.6</ele>
        <time>2022-04-11T10:27:14Z</time>
      </trkpt>
      <trkpt lat="49.91784" lon="2.23667">
        <ele>17.6</ele>
        <time>2022-04-11T10:27:16Z</time>
      </trkpt>
      <trkpt lat="49.91785" lon="2.23665">
        <ele>17.6</ele>
        <time>2022-04-11T10:27:17Z</time>
      </trkpt>
      <trkpt lat="49.91785" lon="2.23662">
        <ele>17.6</ele>
        <time>2022-04-11T10:27:18Z</time>
      </trkpt>
      <trkpt lat="49.91785" lon="2.2366">
        <ele>17.6</ele>
        <time>2022-04-11T10:27:19Z</time>
      </trkpt>
      <trkpt lat="49.91785" lon="2.23659">
        <ele>17.6</ele>
        <time>2022-04-11T10:27:20Z</time>
      </trkpt>
      <trkpt lat="49.91785" lon="2.23657">
        <ele>17.6</ele>
        <time>2022-04-11T10:27:21Z</time>
      </trkpt>
      <trkpt lat="49.91784" lon="2.23655">
        <ele>17.6</ele>
        <time>2022-04-11T10:27:22Z</time>
      </trkpt>
      <trkpt lat="49.91784" lon="2.23653">
        <ele>17.6</ele>
        <time>2022-04-11T10:27:23Z</time>
      </trkpt>
      <trkpt lat="49.91783" lon="2.23651">
        <ele>17.6</ele>
        <time>2022-04-11T10:27:24Z</time>
      </trkpt>
      <trkpt lat="49.91783" lon="2.23648">
        <ele>17.6</ele>
        <time>2022-04-11T10:27:25Z</time>
      </trkpt>
      <trkpt lat="49.91783" lon="2.23646">
        <ele>17.6</ele>
        <time>2022-04-11T10:27:27Z</time>
      </trkpt>
      <trkpt lat="49.91782" lon="2.23644">
        <ele>17.6</ele>
        <time>2022-04-11T10:27:28Z</time>
      </trkpt>
      <trkpt lat="49.91782" lon="2.23642">
        <ele>17.6</ele>
        <time>2022-04-11T10:27:29Z</time>
      </trkpt>
      <trkpt lat="49.91781" lon="2.2364">
        <ele>17.6</ele>
        <time>2022-04-11T10:27:30Z</time>
      </trkpt>
      <trkpt lat="49.91781" lon="2.23638">
        <ele>17.6</ele>
        <time>2022-04-11T10:27:31Z</time>
      </trkpt>
      <trkpt lat="49.91781" lon="2.23636">
        <ele>17.6</ele>
        <time>2022-04-11T10:27:32Z</time>
      </trkpt>
      <trkpt lat="49.9178" lon="2.23634">
        <ele>17.6</ele>
        <time>2022-04-11T10:27:33Z</time>
      </trkpt>
      <trkpt lat="49.9178" lon="2.23632">
        <ele>17.6</ele>
        <time>2022-04-11T10:27:34Z</time>
      </trkpt>
      <trkpt lat="49.9178" lon="2.2363">
        <ele>17.6</ele>
        <time>2022-04-11T10:27:35Z</time>
      </trkpt>
      <trkpt lat="49.9178" lon="2.23628">
        <ele>17.6</ele>
        <time>2022-04-11T10:27:36Z</time>
      </trkpt>
      <trkpt lat="49.9178" lon="2.23626">
        <ele>17.6</ele>
        <time>2022-04-11T10:27:37Z</time>
      </trkpt>
      <trkpt lat="49.9178" lon="2.23622">
        <ele>17.6</ele>
        <time>2022-04-11T10:27:39Z</time>
      </trkpt>
      <trkpt lat="49.9178" lon="2.23621">
        <ele>17.5</ele>
        <time>2022-04-11T10:27:40Z</time>
      </trkpt>
      <trkpt lat="49.9178" lon="2.2362">
        <ele>17.5</ele>
        <time>2022-04-11T10:27:41Z</time>
      </trkpt>
      <trkpt lat="49.9178" lon="2.23619">
        <ele>17.5</ele>
        <time>2022-04-11T10:27:42Z</time>
      </trkpt>
      <trkpt lat="49.9178" lon="2.23617">
        <ele>17.5</ele>
        <time>2022-04-11T10:27:43Z</time>
      </trkpt>
      <trkpt lat="49.9178" lon="2.23615">
        <ele>17.5</ele>
        <time>2022-04-11T10:27:44Z</time>
      </trkpt>
      <trkpt lat="49.91779" lon="2.23613">
        <ele>17.5</ele>
        <time>2022-04-11T10:27:45Z</time>
      </trkpt>
      <trkpt lat="49.91779" lon="2.23612">
        <ele>17.5</ele>
        <time>2022-04-11T10:27:47Z</time>
      </trkpt>
      <trkpt lat="49.91779" lon="2.23611">
        <ele>17.5</ele>
        <time>2022-04-11T10:27:48Z</time>
      </trkpt>
      <trkpt lat="49.91778" lon="2.23611">
        <ele>17.5</ele>
        <time>2022-04-11T10:27:49Z</time>
      </trkpt>
      <trkpt lat="49.91778" lon="2.2361">
        <ele>17.5</ele>
        <time>2022-04-11T10:27:50Z</time>
      </trkpt>
      <trkpt lat="49.91778" lon="2.23607">
        <ele>17.5</ele>
        <time>2022-04-11T10:27:52Z</time>
      </trkpt>
      <trkpt lat="49.91778" lon="2.23605">
        <ele>17.5</ele>
        <time>2022-04-11T10:27:53Z</time>
      </trkpt>
      <trkpt lat="49.91778" lon="2.23603">
        <ele>17.5</ele>
        <time>2022-04-11T10:27:54Z</time>
      </trkpt>
      <trkpt lat="49.91778" lon="2.23601">
        <ele>17.5</ele>
        <time>2022-04-11T10:27:55Z</time>
      </trkpt>
      <trkpt lat="49.91778" lon="2.23599">
        <ele>17.5</ele>
        <time>2022-04-11T10:27:56Z</time>
      </trkpt>
      <trkpt lat="49.91778" lon="2.23596">
        <ele>17.5</ele>
        <time>2022-04-11T10:27:57Z</time>
      </trkpt>
      <trkpt lat="49.91778" lon="2.23593">
        <ele>17.5</ele>
        <time>2022-04-11T10:27:59Z</time>
      </trkpt>
      <trkpt lat="49.91778" lon="2.23592">
        <ele>17.5</ele>
        <time>2022-04-11T10:28:00Z</time>
      </trkpt>
      <trkpt lat="49.91778" lon="2.2359">
        <ele>17.5</ele>
        <time>2022-04-11T10:28:01Z</time>
      </trkpt>
      <trkpt lat="49.91778" lon="2.23587">
        <ele>17.4</ele>
        <time>2022-04-11T10:28:02Z</time>
      </trkpt>
      <trkpt lat="49.91778" lon="2.23586">
        <ele>17.4</ele>
        <time>2022-04-11T10:28:03Z</time>
      </trkpt>
      <trkpt lat="49.91778" lon="2.23584">
        <ele>17.4</ele>
        <time>2022-04-11T10:28:04Z</time>
      </trkpt>
      <trkpt lat="49.91778" lon="2.23582">
        <ele>17.4</ele>
        <time>2022-04-11T10:28:05Z</time>
      </trkpt>
      <trkpt lat="49.91778" lon="2.23579">
        <ele>17.4</ele>
        <time>2022-04-11T10:28:07Z</time>
      </trkpt>
      <trkpt lat="49.91778" lon="2.23577">
        <ele>17.4</ele>
        <time>2022-04-11T10:28:08Z</time>
      </trkpt>
      <trkpt lat="49.91778" lon="2.23575">
        <ele>17.4</ele>
        <time>2022-04-11T10:28:09Z</time>
      </trkpt>
      <trkpt lat="49.91779" lon="2.23572">
        <ele>17.4</ele>
        <time>2022-04-11T10:28:10Z</time>
      </trkpt>
      <trkpt lat="49.91779" lon="2.2357">
        <ele>17.4</ele>
        <time>2022-04-11T10:28:11Z</time>
      </trkpt>
      <trkpt lat="49.91779" lon="2.23566">
        <ele>17.4</ele>
        <time>2022-04-11T10:28:13Z</time>
      </trkpt>
      <trkpt lat="49.91779" lon="2.23565">
        <ele>17.4</ele>
        <time>2022-04-11T10:28:14Z</time>
      </trkpt>
      <trkpt lat="49.9178" lon="2.23562">
        <ele>17.3</ele>
        <time>2022-04-11T10:28:15Z</time>
      </trkpt>
      <trkpt lat="49.9178" lon="2.2356">
        <ele>17.3</ele>
        <time>2022-04-11T10:28:16Z</time>
      </trkpt>
      <trkpt lat="49.9178" lon="2.23558">
        <ele>17.3</ele>
        <time>2022-04-11T10:28:17Z</time>
      </trkpt>
      <trkpt lat="49.9178" lon="2.23556">
        <ele>17.3</ele>
        <time>2022-04-11T10:28:18Z</time>
      </trkpt>
      <trkpt lat="49.9178" lon="2.23553">
        <ele>17.3</ele>
        <time>2022-04-11T10:28:19Z</time>
      </trkpt>
      <trkpt lat="49.91781" lon="2.2355">
        <ele>17.3</ele>
        <time>2022-04-11T10:28:21Z</time>
      </trkpt>
      <trkpt lat="49.91781" lon="2.23545">
        <ele>17.3</ele>
        <time>2022-04-11T10:28:22Z</time>
      </trkpt>
      <trkpt lat="49.91781" lon="2.23544">
        <ele>17.3</ele>
        <time>2022-04-11T10:28:23Z</time>
      </trkpt>
      <trkpt lat="49.91781" lon="2.23539">
        <ele>17.3</ele>
        <time>2022-04-11T10:28:24Z</time>
      </trkpt>
      <trkpt lat="49.91782" lon="2.23538">
        <ele>17.3</ele>
        <time>2022-04-11T10:28:25Z</time>
      </trkpt>
      <trkpt lat="49.91782" lon="2.23533">
        <ele>17.3</ele>
        <time>2022-04-11T10:28:26Z</time>
      </trkpt>
      <trkpt lat="49.91782" lon="2.23532">
        <ele>17.3</ele>
        <time>2022-04-11T10:28:27Z</time>
      </trkpt>
      <trkpt lat="49.91783" lon="2.23529">
        <ele>17.3</ele>
        <time>2022-04-11T10:28:28Z</time>
      </trkpt>
      <trkpt lat="49.91783" lon="2.23526">
        <ele>17.3</ele>
        <time>2022-04-11T10:28:30Z</time>
      </trkpt>
      <trkpt lat="49.91783" lon="2.23525">
        <ele>17.3</ele>
        <time>2022-04-11T10:28:31Z</time>
      </trkpt>
      <trkpt lat="49.91783" lon="2.23523">
        <ele>17.3</ele>
        <time>2022-04-11T10:28:32Z</time>
      </trkpt>
      <trkpt lat="49.91783" lon="2.23521">
        <ele>17.2</ele>
        <time>2022-04-11T10:28:33Z</time>
      </trkpt>
      <trkpt lat="49.91783" lon="2.23519">
        <ele>17.2</ele>
        <time>2022-04-11T10:28:34Z</time>
      </trkpt>
      <trkpt lat="49.91783" lon="2.23516">
        <ele>17.2</ele>
        <time>2022-04-11T10:28:35Z</time>
      </trkpt>
      <trkpt lat="49.91784" lon="2.23514">
        <ele>17.2</ele>
        <time>2022-04-11T10:28:36Z</time>
      </trkpt>
      <trkpt lat="49.91784" lon="2.23511">
        <ele>17.2</ele>
        <time>2022-04-11T10:28:38Z</time>
      </trkpt>
      <trkpt lat="49.91784" lon="2.23509">
        <ele>17.2</ele>
        <time>2022-04-11T10:28:39Z</time>
      </trkpt>
      <trkpt lat="49.91784" lon="2.23507">
        <ele>17.2</ele>
        <time>2022-04-11T10:28:40Z</time>
      </trkpt>
      <trkpt lat="49.91784" lon="2.23504">
        <ele>17.2</ele>
        <time>2022-04-11T10:28:41Z</time>
      </trkpt>
      <trkpt lat="49.91784" lon="2.23502">
        <ele>17.2</ele>
        <time>2022-04-11T10:28:42Z</time>
      </trkpt>
      <trkpt lat="49.91784" lon="2.23501">
        <ele>17.2</ele>
        <time>2022-04-11T10:28:43Z</time>
      </trkpt>
      <trkpt lat="49.91784" lon="2.23498">
        <ele>17.2</ele>
        <time>2022-04-11T10:28:44Z</time>
      </trkpt>
      <trkpt lat="49.91785" lon="2.23496">
        <ele>17.2</ele>
        <time>2022-04-11T10:28:45Z</time>
      </trkpt>
      <trkpt lat="49.91785" lon="2.23493">
        <ele>17.2</ele>
        <time>2022-04-11T10:28:46Z</time>
      </trkpt>
      <trkpt lat="49.91785" lon="2.23492">
        <ele>17.2</ele>
        <time>2022-04-11T10:28:47Z</time>
      </trkpt>
      <trkpt lat="49.91785" lon="2.2349">
        <ele>17.2</ele>
        <time>2022-04-11T10:28:48Z</time>
      </trkpt>
      <trkpt lat="49.91786" lon="2.23489">
        <ele>17.2</ele>
        <time>2022-04-11T10:28:49Z</time>
      </trkpt>
      <trkpt lat="49.91786" lon="2.23488">
        <ele>17.2</ele>
        <time>2022-04-11T10:28:50Z</time>
      </trkpt>
      <trkpt lat="49.91786" lon="2.23486">
        <ele>17.2</ele>
        <time>2022-04-11T10:28:51Z</time>
      </trkpt>
      <trkpt lat="49.91787" lon="2.23485">
        <ele>17.2</ele>
        <time>2022-04-11T10:28:52Z</time>
      </trkpt>
      <trkpt lat="49.91787" lon="2.23483">
        <ele>17.2</ele>
        <time>2022-04-11T10:28:54Z</time>
      </trkpt>
      <trkpt lat="49.91787" lon="2.23481">
        <ele>17.2</ele>
        <time>2022-04-11T10:28:55Z</time>
      </trkpt>
      <trkpt lat="49.91788" lon="2.23478">
        <ele>17.2</ele>
        <time>2022-04-11T10:28:56Z</time>
      </trkpt>
      <trkpt lat="49.91788" lon="2.23477">
        <ele>17.2</ele>
        <time>2022-04-11T10:28:57Z</time>
      </trkpt>
      <trkpt lat="49.91788" lon="2.23475">
        <ele>17.2</ele>
        <time>2022-04-11T10:28:58Z</time>
      </trkpt>
      <trkpt lat="49.91788" lon="2.23474">
        <ele>17.2</ele>
        <time>2022-04-11T10:28:59Z</time>
      </trkpt>
      <trkpt lat="49.91788" lon="2.23472">
        <ele>17.1</ele>
        <time>2022-04-11T10:29:00Z</time>
      </trkpt>
      <trkpt lat="49.91788" lon="2.2347">
        <ele>17.1</ele>
        <time>2022-04-11T10:29:01Z</time>
      </trkpt>
      <trkpt lat="49.91788" lon="2.23468">
        <ele>17.1</ele>
        <time>2022-04-11T10:29:02Z</time>
      </trkpt>
      <trkpt lat="49.91788" lon="2.23467">
        <ele>17.1</ele>
        <time>2022-04-11T10:29:03Z</time>
      </trkpt>
      <trkpt lat="49.91789" lon="2.23465">
        <ele>17.1</ele>
        <time>2022-04-11T10:29:04Z</time>
      </trkpt>
      <trkpt lat="49.91789" lon="2.23463">
        <ele>17.1</ele>
        <time>2022-04-11T10:29:05Z</time>
      </trkpt>
      <trkpt lat="49.91789" lon="2.23461">
        <ele>17.1</ele>
        <time>2022-04-11T10:29:06Z</time>
      </trkpt>
      <trkpt lat="49.9179" lon="2.2346">
        <ele>17.1</ele>
        <time>2022-04-11T10:29:08Z</time>
      </trkpt>
      <trkpt lat="49.9179" lon="2.23458">
        <ele>17.1</ele>
        <time>2022-04-11T10:29:09Z</time>
      </trkpt>
      <trkpt lat="49.9179" lon="2.23457">
        <ele>17.1</ele>
        <time>2022-04-11T10:29:10Z</time>
      </trkpt>
      <trkpt lat="49.91791" lon="2.23455">
        <ele>17.1</ele>
        <time>2022-04-11T10:29:11Z</time>
      </trkpt>
      <trkpt lat="49.91791" lon="2.23452">
        <ele>17.1</ele>
        <time>2022-04-11T10:29:12Z</time>
      </trkpt>
      <trkpt lat="49.91791" lon="2.23451">
        <ele>17.1</ele>
        <time>2022-04-11T10:29:13Z</time>
      </trkpt>
      <trkpt lat="49.91791" lon="2.23449">
        <ele>17.1</ele>
        <time>2022-04-11T10:29:14Z</time>
      </trkpt>
      <trkpt lat="49.91791" lon="2.23447">
        <ele>17.1</ele>
        <time>2022-04-11T10:29:15Z</time>
      </trkpt>
      <trkpt lat="49.91791" lon="2.23445">
        <ele>17.1</ele>
        <time>2022-04-11T10:29:16Z</time>
      </trkpt>
      <trkpt lat="49.91792" lon="2.23441">
        <ele>17.1</ele>
        <time>2022-04-11T10:29:17Z</time>
      </trkpt>
      <trkpt lat="49.91792" lon="2.2344">
        <ele>17.1</ele>
        <time>2022-04-11T10:29:18Z</time>
      </trkpt>
      <trkpt lat="49.91792" lon="2.23439">
        <ele>17.1</ele>
        <time>2022-04-11T10:29:19Z</time>
      </trkpt>
      <trkpt lat="49.91793" lon="2.23436">
        <ele>17.1</ele>
        <time>2022-04-11T10:29:21Z</time>
      </trkpt>
      <trkpt lat="49.91793" lon="2.23434">
        <ele>17.1</ele>
        <time>2022-04-11T10:29:22Z</time>
      </trkpt>
      <trkpt lat="49.91793" lon="2.23433">
        <ele>17.1</ele>
        <time>2022-04-11T10:29:23Z</time>
      </trkpt>
      <trkpt lat="49.91794" lon="2.2343">
        <ele>17.1</ele>
        <time>2022-04-11T10:29:24Z</time>
      </trkpt>
      <trkpt lat="49.91794" lon="2.23429">
        <ele>17.1</ele>
        <time>2022-04-11T10:29:25Z</time>
      </trkpt>
      <trkpt lat="49.91794" lon="2.23427">
        <ele>17.1</ele>
        <time>2022-04-11T10:29:26Z</time>
      </trkpt>
      <trkpt lat="49.91794" lon="2.23425">
        <ele>17.2</ele>
        <time>2022-04-11T10:29:27Z</time>
      </trkpt>
      <trkpt lat="49.91794" lon="2.23423">
        <ele>17.2</ele>
        <time>2022-04-11T10:29:28Z</time>
      </trkpt>
      <trkpt lat="49.91794" lon="2.23421">
        <ele>17.2</ele>
        <time>2022-04-11T10:29:29Z</time>
      </trkpt>
      <trkpt lat="49.91794" lon="2.2342">
        <ele>17.2</ele>
        <time>2022-04-11T10:29:30Z</time>
      </trkpt>
      <trkpt lat="49.91794" lon="2.23418">
        <ele>17.2</ele>
        <time>2022-04-11T10:29:31Z</time>
      </trkpt>
      <trkpt lat="49.91793" lon="2.23415">
        <ele>17.2</ele>
        <time>2022-04-11T10:29:33Z</time>
      </trkpt>
      <trkpt lat="49.91793" lon="2.23414">
        <ele>17.2</ele>
        <time>2022-04-11T10:29:34Z</time>
      </trkpt>
      <trkpt lat="49.91793" lon="2.23412">
        <ele>17.2</ele>
        <time>2022-04-11T10:29:35Z</time>
      </trkpt>
      <trkpt lat="49.91793" lon="2.23411">
        <ele>17.2</ele>
        <time>2022-04-11T10:29:36Z</time>
      </trkpt>
      <trkpt lat="49.91793" lon="2.23409">
        <ele>17.2</ele>
        <time>2022-04-11T10:29:37Z</time>
      </trkpt>
      <trkpt lat="49.91793" lon="2.23407">
        <ele>17.2</ele>
        <time>2022-04-11T10:29:38Z</time>
      </trkpt>
      <trkpt lat="49.91793" lon="2.23405">
        <ele>17.2</ele>
        <time>2022-04-11T10:29:39Z</time>
      </trkpt>
      <trkpt lat="49.91793" lon="2.23403">
        <ele>17.2</ele>
        <time>2022-04-11T10:29:40Z</time>
      </trkpt>
      <trkpt lat="49.91793" lon="2.23401">
        <ele>17.2</ele>
        <time>2022-04-11T10:29:41Z</time>
      </trkpt>
      <trkpt lat="49.91792" lon="2.234">
        <ele>17.2</ele>
        <time>2022-04-11T10:29:42Z</time>
      </trkpt>
      <trkpt lat="49.91792" lon="2.23398">
        <ele>17.2</ele>
        <time>2022-04-11T10:29:43Z</time>
      </trkpt>
      <trkpt lat="49.91792" lon="2.23396">
        <ele>17.2</ele>
        <time>2022-04-11T10:29:44Z</time>
      </trkpt>
      <trkpt lat="49.91792" lon="2.23393">
        <ele>17.2</ele>
        <time>2022-04-11T10:29:46Z</time>
      </trkpt>
      <trkpt lat="49.91792" lon="2.23392">
        <ele>17.2</ele>
        <time>2022-04-11T10:29:47Z</time>
      </trkpt>
      <trkpt lat="49.91792" lon="2.2339">
        <ele>17.2</ele>
        <time>2022-04-11T10:29:48Z</time>
      </trkpt>
      <trkpt lat="49.91792" lon="2.23388">
        <ele>17.2</ele>
        <time>2022-04-11T10:29:49Z</time>
      </trkpt>
      <trkpt lat="49.91792" lon="2.23387">
        <ele>17.2</ele>
        <time>2022-04-11T10:29:50Z</time>
      </trkpt>
      <trkpt lat="49.91792" lon="2.23385">
        <ele>17.1</ele>
        <time>2022-04-11T10:29:51Z</time>
      </trkpt>
      <trkpt lat="49.91792" lon="2.23383">
        <ele>17.1</ele>
        <time>2022-04-11T10:29:52Z</time>
      </trkpt>
      <trkpt lat="49.91792" lon="2.23381">
        <ele>17.1</ele>
        <time>2022-04-11T10:29:53Z</time>
      </trkpt>
      <trkpt lat="49.91791" lon="2.23379">
        <ele>17.1</ele>
        <time>2022-04-11T10:29:55Z</time>
      </trkpt>
      <trkpt lat="49.91791" lon="2.23377">
        <ele>17.1</ele>
        <time>2022-04-11T10:29:56Z</time>
      </trkpt>
      <trkpt lat="49.91791" lon="2.23376">
        <ele>17.1</ele>
        <time>2022-04-11T10:29:57Z</time>
      </trkpt>
      <trkpt lat="49.91791" lon="2.23374">
        <ele>17.1</ele>
        <time>2022-04-11T10:29:58Z</time>
      </trkpt>
      <trkpt lat="49.91791" lon="2.23371">
        <ele>17.1</ele>
        <time>2022-04-11T10:29:59Z</time>
      </trkpt>
      <trkpt lat="49.91791" lon="2.2337">
        <ele>17.1</ele>
        <time>2022-04-11T10:30:00Z</time>
      </trkpt>
      <trkpt lat="49.91791" lon="2.23368">
        <ele>17.1</ele>
        <time>2022-04-11T10:30:01Z</time>
      </trkpt>
      <trkpt lat="49.91791" lon="2.23366">
        <ele>17.1</ele>
        <time>2022-04-11T10:30:02Z</time>
      </trkpt>
      <trkpt lat="49.91791" lon="2.23365">
        <ele>17.1</ele>
        <time>2022-04-11T10:30:03Z</time>
      </trkpt>
      <trkpt lat="49.91791" lon="2.23363">
        <ele>17.1</ele>
        <time>2022-04-11T10:30:04Z</time>
      </trkpt>
      <trkpt lat="49.91791" lon="2.23361">
        <ele>17.2</ele>
        <time>2022-04-11T10:30:05Z</time>
      </trkpt>
      <trkpt lat="49.91791" lon="2.23359">
        <ele>17.2</ele>
        <time>2022-04-11T10:30:06Z</time>
      </trkpt>
      <trkpt lat="49.91791" lon="2.23357">
        <ele>17.2</ele>
        <time>2022-04-11T10:30:08Z</time>
      </trkpt>
      <trkpt lat="49.91791" lon="2.23355">
        <ele>17.2</ele>
        <time>2022-04-11T10:30:09Z</time>
      </trkpt>
      <trkpt lat="49.91792" lon="2.23353">
        <ele>17.2</ele>
        <time>2022-04-11T10:30:10Z</time>
      </trkpt>
      <trkpt lat="49.91792" lon="2.23352">
        <ele>17.2</ele>
        <time>2022-04-11T10:30:11Z</time>
      </trkpt>
      <trkpt lat="49.91792" lon="2.23349">
        <ele>17.2</ele>
        <time>2022-04-11T10:30:12Z</time>
      </trkpt>
      <trkpt lat="49.91792" lon="2.23348">
        <ele>17.2</ele>
        <time>2022-04-11T10:30:13Z</time>
      </trkpt>
      <trkpt lat="49.91792" lon="2.23346">
        <ele>17.2</ele>
        <time>2022-04-11T10:30:14Z</time>
      </trkpt>
      <trkpt lat="49.91792" lon="2.23344">
        <ele>17.2</ele>
        <time>2022-04-11T10:30:15Z</time>
      </trkpt>
      <trkpt lat="49.91792" lon="2.23342">
        <ele>17.2</ele>
        <time>2022-04-11T10:30:16Z</time>
      </trkpt>
      <trkpt lat="49.91792" lon="2.23341">
        <ele>17.2</ele>
        <time>2022-04-11T10:30:17Z</time>
      </trkpt>
      <trkpt lat="49.91791" lon="2.23337">
        <ele>17.2</ele>
        <time>2022-04-11T10:30:18Z</time>
      </trkpt>
      <trkpt lat="49.91791" lon="2.23336">
        <ele>17.2</ele>
        <time>2022-04-11T10:30:20Z</time>
      </trkpt>
      <trkpt lat="49.91791" lon="2.23335">
        <ele>17.2</ele>
        <time>2022-04-11T10:30:21Z</time>
      </trkpt>
      <trkpt lat="49.91791" lon="2.23333">
        <ele>17.2</ele>
        <time>2022-04-11T10:30:22Z</time>
      </trkpt>
      <trkpt lat="49.91791" lon="2.2333">
        <ele>17.2</ele>
        <time>2022-04-11T10:30:23Z</time>
      </trkpt>
      <trkpt lat="49.91791" lon="2.23328">
        <ele>17.2</ele>
        <time>2022-04-11T10:30:24Z</time>
      </trkpt>
      <trkpt lat="49.9179" lon="2.23326">
        <ele>17.2</ele>
        <time>2022-04-11T10:30:25Z</time>
      </trkpt>
      <trkpt lat="49.9179" lon="2.23324">
        <ele>17.2</ele>
        <time>2022-04-11T10:30:27Z</time>
      </trkpt>
      <trkpt lat="49.9179" lon="2.23322">
        <ele>17.2</ele>
        <time>2022-04-11T10:30:28Z</time>
      </trkpt>
      <trkpt lat="49.91789" lon="2.23321">
        <ele>17.2</ele>
        <time>2022-04-11T10:30:29Z</time>
      </trkpt>
      <trkpt lat="49.91789" lon="2.23319">
        <ele>17.2</ele>
        <time>2022-04-11T10:30:30Z</time>
      </trkpt>
      <trkpt lat="49.91789" lon="2.23318">
        <ele>17.2</ele>
        <time>2022-04-11T10:30:31Z</time>
      </trkpt>
      <trkpt lat="49.91788" lon="2.23316">
        <ele>17.2</ele>
        <time>2022-04-11T10:30:32Z</time>
      </trkpt>
      <trkpt lat="49.91788" lon="2.23314">
        <ele>17.2</ele>
        <time>2022-04-11T10:30:33Z</time>
      </trkpt>
      <trkpt lat="49.91787" lon="2.23311">
        <ele>17.2</ele>
        <time>2022-04-11T10:30:34Z</time>
      </trkpt>
      <trkpt lat="49.91787" lon="2.2331">
        <ele>17.2</ele>
        <time>2022-04-11T10:30:35Z</time>
      </trkpt>
      <trkpt lat="49.91787" lon="2.23309">
        <ele>17.2</ele>
        <time>2022-04-11T10:30:36Z</time>
      </trkpt>
      <trkpt lat="49.91786" lon="2.23307">
        <ele>17.2</ele>
        <time>2022-04-11T10:30:37Z</time>
      </trkpt>
      <trkpt lat="49.91786" lon="2.23305">
        <ele>17.2</ele>
        <time>2022-04-11T10:30:38Z</time>
      </trkpt>
      <trkpt lat="49.91785" lon="2.23303">
        <ele>17.2</ele>
        <time>2022-04-11T10:30:40Z</time>
      </trkpt>
      <trkpt lat="49.91784" lon="2.23301">
        <ele>17.2</ele>
        <time>2022-04-11T10:30:41Z</time>
      </trkpt>
      <trkpt lat="49.91784" lon="2.23299">
        <ele>17.2</ele>
        <time>2022-04-11T10:30:42Z</time>
      </trkpt>
      <trkpt lat="49.91784" lon="2.23298">
        <ele>17.2</ele>
        <time>2022-04-11T10:30:43Z</time>
      </trkpt>
      <trkpt lat="49.91783" lon="2.23295">
        <ele>17.1</ele>
        <time>2022-04-11T10:30:44Z</time>
      </trkpt>
      <trkpt lat="49.91782" lon="2.23294">
        <ele>17.1</ele>
        <time>2022-04-11T10:30:45Z</time>
      </trkpt>
      <trkpt lat="49.91782" lon="2.23293">
        <ele>17.1</ele>
        <time>2022-04-11T10:30:46Z</time>
      </trkpt>
      <trkpt lat="49.91781" lon="2.23289">
        <ele>17.1</ele>
        <time>2022-04-11T10:30:47Z</time>
      </trkpt>
      <trkpt lat="49.91781" lon="2.23288">
        <ele>17.1</ele>
        <time>2022-04-11T10:30:48Z</time>
      </trkpt>
      <trkpt lat="49.91781" lon="2.23287">
        <ele>17.1</ele>
        <time>2022-04-11T10:30:49Z</time>
      </trkpt>
      <trkpt lat="49.91781" lon="2.23286">
        <ele>17.1</ele>
        <time>2022-04-11T10:30:50Z</time>
      </trkpt>
      <trkpt lat="49.91781" lon="2.23284">
        <ele>17.1</ele>
        <time>2022-04-11T10:30:51Z</time>
      </trkpt>
      <trkpt lat="49.9178" lon="2.23282">
        <ele>17.1</ele>
        <time>2022-04-11T10:30:52Z</time>
      </trkpt>
      <trkpt lat="49.9178" lon="2.23278">
        <ele>17.1</ele>
        <time>2022-04-11T10:30:53Z</time>
      </trkpt>
      <trkpt lat="49.91779" lon="2.23277">
        <ele>17.1</ele>
        <time>2022-04-11T10:30:55Z</time>
      </trkpt>
      <trkpt lat="49.91779" lon="2.23276">
        <ele>17.1</ele>
        <time>2022-04-11T10:30:56Z</time>
      </trkpt>
      <trkpt lat="49.91779" lon="2.23273">
        <ele>17.1</ele>
        <time>2022-04-11T10:30:57Z</time>
      </trkpt>
      <trkpt lat="49.91779" lon="2.23271">
        <ele>17.1</ele>
        <time>2022-04-11T10:30:58Z</time>
      </trkpt>
      <trkpt lat="49.91779" lon="2.2327">
        <ele>17.1</ele>
        <time>2022-04-11T10:30:59Z</time>
      </trkpt>
      <trkpt lat="49.91779" lon="2.23268">
        <ele>17.1</ele>
        <time>2022-04-11T10:31:00Z</time>
      </trkpt>
      <trkpt lat="49.91779" lon="2.23266">
        <ele>17.1</ele>
        <time>2022-04-11T10:31:01Z</time>
      </trkpt>
      <trkpt lat="49.91779" lon="2.23264">
        <ele>17.1</ele>
        <time>2022-04-11T10:31:02Z</time>
      </trkpt>
      <trkpt lat="49.9178" lon="2.23261">
        <ele>17.1</ele>
        <time>2022-04-11T10:31:03Z</time>
      </trkpt>
      <trkpt lat="49.9178" lon="2.23259">
        <ele>17.1</ele>
        <time>2022-04-11T10:31:04Z</time>
      </trkpt>
      <trkpt lat="49.9178" lon="2.23257">
        <ele>17.1</ele>
        <time>2022-04-11T10:31:05Z</time>
      </trkpt>
      <trkpt lat="49.9178" lon="2.23255">
        <ele>17.1</ele>
        <time>2022-04-11T10:31:06Z</time>
      </trkpt>
      <trkpt lat="49.91781" lon="2.23254">
        <ele>17.1</ele>
        <time>2022-04-11T10:31:07Z</time>
      </trkpt>
      <trkpt lat="49.91781" lon="2.23252">
        <ele>17.1</ele>
        <time>2022-04-11T10:31:08Z</time>
      </trkpt>
      <trkpt lat="49.91781" lon="2.2325">
        <ele>17</ele>
        <time>2022-04-11T10:31:10Z</time>
      </trkpt>
      <trkpt lat="49.91781" lon="2.23248">
        <ele>17</ele>
        <time>2022-04-11T10:31:11Z</time>
      </trkpt>
      <trkpt lat="49.91781" lon="2.23247">
        <ele>17</ele>
        <time>2022-04-11T10:31:12Z</time>
      </trkpt>
      <trkpt lat="49.91781" lon="2.23245">
        <ele>17</ele>
        <time>2022-04-11T10:31:13Z</time>
      </trkpt>
      <trkpt lat="49.91781" lon="2.23243">
        <ele>17</ele>
        <time>2022-04-11T10:31:14Z</time>
      </trkpt>
      <trkpt lat="49.91782" lon="2.23241">
        <ele>17</ele>
        <time>2022-04-11T10:31:15Z</time>
      </trkpt>
      <trkpt lat="49.91783" lon="2.23238">
        <ele>17</ele>
        <time>2022-04-11T10:31:16Z</time>
      </trkpt>
      <trkpt lat="49.91783" lon="2.23237">
        <ele>17</ele>
        <time>2022-04-11T10:31:17Z</time>
      </trkpt>
      <trkpt lat="49.91783" lon="2.23236">
        <ele>17</ele>
        <time>2022-04-11T10:31:18Z</time>
      </trkpt>
      <trkpt lat="49.91784" lon="2.23234">
        <ele>17</ele>
        <time>2022-04-11T10:31:19Z</time>
      </trkpt>
      <trkpt lat="49.91784" lon="2.23232">
        <ele>17</ele>
        <time>2022-04-11T10:31:20Z</time>
      </trkpt>
      <trkpt lat="49.91784" lon="2.2323">
        <ele>17</ele>
        <time>2022-04-11T10:31:22Z</time>
      </trkpt>
      <trkpt lat="49.91785" lon="2.23228">
        <ele>17</ele>
        <time>2022-04-11T10:31:23Z</time>
      </trkpt>
      <trkpt lat="49.91785" lon="2.23227">
        <ele>17</ele>
        <time>2022-04-11T10:31:24Z</time>
      </trkpt>
      <trkpt lat="49.91785" lon="2.23225">
        <ele>17</ele>
        <time>2022-04-11T10:31:25Z</time>
      </trkpt>
      <trkpt lat="49.91786" lon="2.23222">
        <ele>17</ele>
        <time>2022-04-11T10:31:26Z</time>
      </trkpt>
      <trkpt lat="49.91786" lon="2.23221">
        <ele>17</ele>
        <time>2022-04-11T10:31:27Z</time>
      </trkpt>
      <trkpt lat="49.91786" lon="2.23219">
        <ele>17</ele>
        <time>2022-04-11T10:31:28Z</time>
      </trkpt>
      <trkpt lat="49.91787" lon="2.23218">
        <ele>17</ele>
        <time>2022-04-11T10:31:29Z</time>
      </trkpt>
      <trkpt lat="49.91788" lon="2.23216">
        <ele>17</ele>
        <time>2022-04-11T10:31:30Z</time>
      </trkpt>
      <trkpt lat="49.91788" lon="2.23214">
        <ele>17</ele>
        <time>2022-04-11T10:31:31Z</time>
      </trkpt>
      <trkpt lat="49.91789" lon="2.23213">
        <ele>17</ele>
        <time>2022-04-11T10:31:32Z</time>
      </trkpt>
      <trkpt lat="49.91789" lon="2.23211">
        <ele>17</ele>
        <time>2022-04-11T10:31:33Z</time>
      </trkpt>
      <trkpt lat="49.9179" lon="2.23209">
        <ele>17</ele>
        <time>2022-04-11T10:31:35Z</time>
      </trkpt>
      <trkpt lat="49.91791" lon="2.23206">
        <ele>17</ele>
        <time>2022-04-11T10:31:36Z</time>
      </trkpt>
      <trkpt lat="49.91791" lon="2.23205">
        <ele>17</ele>
        <time>2022-04-11T10:31:37Z</time>
      </trkpt>
      <trkpt lat="49.91792" lon="2.23204">
        <ele>17</ele>
        <time>2022-04-11T10:31:38Z</time>
      </trkpt>
      <trkpt lat="49.91792" lon="2.23203">
        <ele>17</ele>
        <time>2022-04-11T10:31:39Z</time>
      </trkpt>
      <trkpt lat="49.91793" lon="2.23201">
        <ele>17</ele>
        <time>2022-04-11T10:31:40Z</time>
      </trkpt>
      <trkpt lat="49.91794" lon="2.232">
        <ele>17</ele>
        <time>2022-04-11T10:31:41Z</time>
      </trkpt>
      <trkpt lat="49.91795" lon="2.23197">
        <ele>17</ele>
        <time>2022-04-11T10:31:42Z</time>
      </trkpt>
      <trkpt lat="49.91796" lon="2.23196">
        <ele>17</ele>
        <time>2022-04-11T10:31:43Z</time>
      </trkpt>
      <trkpt lat="49.91796" lon="2.23194">
        <ele>17</ele>
        <time>2022-04-11T10:31:44Z</time>
      </trkpt>
      <trkpt lat="49.91797" lon="2.23193">
        <ele>17</ele>
        <time>2022-04-11T10:31:45Z</time>
      </trkpt>
      <trkpt lat="49.91798" lon="2.23192">
        <ele>17</ele>
        <time>2022-04-11T10:31:46Z</time>
      </trkpt>
      <trkpt lat="49.91799" lon="2.23191">
        <ele>17</ele>
        <time>2022-04-11T10:31:47Z</time>
      </trkpt>
      <trkpt lat="49.91799" lon="2.23189">
        <ele>17</ele>
        <time>2022-04-11T10:31:48Z</time>
      </trkpt>
      <trkpt lat="49.918" lon="2.23188">
        <ele>17</ele>
        <time>2022-04-11T10:31:50Z</time>
      </trkpt>
      <trkpt lat="49.91801" lon="2.23185">
        <ele>17</ele>
        <time>2022-04-11T10:31:51Z</time>
      </trkpt>
      <trkpt lat="49.91802" lon="2.23184">
        <ele>17</ele>
        <time>2022-04-11T10:31:52Z</time>
      </trkpt>
      <trkpt lat="49.91802" lon="2.23183">
        <ele>17</ele>
        <time>2022-04-11T10:31:53Z</time>
      </trkpt>
      <trkpt lat="49.91803" lon="2.23181">
        <ele>17</ele>
        <time>2022-04-11T10:31:54Z</time>
      </trkpt>
      <trkpt lat="49.91804" lon="2.23179">
        <ele>17</ele>
        <time>2022-04-11T10:31:55Z</time>
      </trkpt>
      <trkpt lat="49.91805" lon="2.23177">
        <ele>16.9</ele>
        <time>2022-04-11T10:31:57Z</time>
      </trkpt>
      <trkpt lat="49.91805" lon="2.23175">
        <ele>16.9</ele>
        <time>2022-04-11T10:31:58Z</time>
      </trkpt>
      <trkpt lat="49.91806" lon="2.23174">
        <ele>16.9</ele>
        <time>2022-04-11T10:31:59Z</time>
      </trkpt>
      <trkpt lat="49.91806" lon="2.23172">
        <ele>16.9</ele>
        <time>2022-04-11T10:32:00Z</time>
      </trkpt>
      <trkpt lat="49.91808" lon="2.2317">
        <ele>16.9</ele>
        <time>2022-04-11T10:32:01Z</time>
      </trkpt>
      <trkpt lat="49.91808" lon="2.23169">
        <ele>16.9</ele>
        <time>2022-04-11T10:32:02Z</time>
      </trkpt>
      <trkpt lat="49.91809" lon="2.23168">
        <ele>16.9</ele>
        <time>2022-04-11T10:32:03Z</time>
      </trkpt>
      <trkpt lat="49.9181" lon="2.23165">
        <ele>16.9</ele>
        <time>2022-04-11T10:32:05Z</time>
      </trkpt>
      <trkpt lat="49.91811" lon="2.23163">
        <ele>16.9</ele>
        <time>2022-04-11T10:32:06Z</time>
      </trkpt>
      <trkpt lat="49.91811" lon="2.23159">
        <ele>16.9</ele>
        <time>2022-04-11T10:32:07Z</time>
      </trkpt>
      <trkpt lat="49.91811" lon="2.23158">
        <ele>16.9</ele>
        <time>2022-04-11T10:32:08Z</time>
      </trkpt>
      <trkpt lat="49.91812" lon="2.23157">
        <ele>16.9</ele>
        <time>2022-04-11T10:32:09Z</time>
      </trkpt>
      <trkpt lat="49.91812" lon="2.23155">
        <ele>16.9</ele>
        <time>2022-04-11T10:32:10Z</time>
      </trkpt>
      <trkpt lat="49.91813" lon="2.23153">
        <ele>16.9</ele>
        <time>2022-04-11T10:32:11Z</time>
      </trkpt>
      <trkpt lat="49.91814" lon="2.2315">
        <ele>16.9</ele>
        <time>2022-04-11T10:32:12Z</time>
      </trkpt>
      <trkpt lat="49.91815" lon="2.23149">
        <ele>16.9</ele>
        <time>2022-04-11T10:32:13Z</time>
      </trkpt>
      <trkpt lat="49.91815" lon="2.23148">
        <ele>16.9</ele>
        <time>2022-04-11T10:32:14Z</time>
      </trkpt>
      <trkpt lat="49.91816" lon="2.23146">
        <ele>16.9</ele>
        <time>2022-04-11T10:32:15Z</time>
      </trkpt>
      <trkpt lat="49.91816" lon="2.23145">
        <ele>16.8</ele>
        <time>2022-04-11T10:32:17Z</time>
      </trkpt>
      <trkpt lat="49.91817" lon="2.23144">
        <ele>16.8</ele>
        <time>2022-04-11T10:32:18Z</time>
      </trkpt>
      <trkpt lat="49.91818" lon="2.23141">
        <ele>16.8</ele>
        <time>2022-04-11T10:32:19Z</time>
      </trkpt>
      <trkpt lat="49.91819" lon="2.2314">
        <ele>16.8</ele>
        <time>2022-04-11T10:32:20Z</time>
      </trkpt>
      <trkpt lat="49.91819" lon="2.23138">
        <ele>16.8</ele>
        <time>2022-04-11T10:32:21Z</time>
      </trkpt>
      <trkpt lat="49.9182" lon="2.23136">
        <ele>16.8</ele>
        <time>2022-04-11T10:32:22Z</time>
      </trkpt>
      <trkpt lat="49.9182" lon="2.23134">
        <ele>16.8</ele>
        <time>2022-04-11T10:32:23Z</time>
      </trkpt>
      <trkpt lat="49.91821" lon="2.23131">
        <ele>16.8</ele>
        <time>2022-04-11T10:32:24Z</time>
      </trkpt>
      <trkpt lat="49.91821" lon="2.2313">
        <ele>16.8</ele>
        <time>2022-04-11T10:32:25Z</time>
      </trkpt>
      <trkpt lat="49.91822" lon="2.23129">
        <ele>16.8</ele>
        <time>2022-04-11T10:32:26Z</time>
      </trkpt>
      <trkpt lat="49.91822" lon="2.23126">
        <ele>16.8</ele>
        <time>2022-04-11T10:32:27Z</time>
      </trkpt>
      <trkpt lat="49.91822" lon="2.23124">
        <ele>16.8</ele>
        <time>2022-04-11T10:32:28Z</time>
      </trkpt>
      <trkpt lat="49.91823" lon="2.23123">
        <ele>16.8</ele>
        <time>2022-04-11T10:32:30Z</time>
      </trkpt>
      <trkpt lat="49.91823" lon="2.23121">
        <ele>16.8</ele>
        <time>2022-04-11T10:32:31Z</time>
      </trkpt>
      <trkpt lat="49.91823" lon="2.2312">
        <ele>16.8</ele>
        <time>2022-04-11T10:32:32Z</time>
      </trkpt>
      <trkpt lat="49.91824" lon="2.23118">
        <ele>16.8</ele>
        <time>2022-04-11T10:32:33Z</time>
      </trkpt>
      <trkpt lat="49.91824" lon="2.23115">
        <ele>16.8</ele>
        <time>2022-04-11T10:32:34Z</time>
      </trkpt>
      <trkpt lat="49.91824" lon="2.23114">
        <ele>16.8</ele>
        <time>2022-04-11T10:32:35Z</time>
      </trkpt>
      <trkpt lat="49.91824" lon="2.23112">
        <ele>16.8</ele>
        <time>2022-04-11T10:32:36Z</time>
      </trkpt>
      <trkpt lat="49.91825" lon="2.23111">
        <ele>16.8</ele>
        <time>2022-04-11T10:32:37Z</time>
      </trkpt>
      <trkpt lat="49.91825" lon="2.23109">
        <ele>16.8</ele>
        <time>2022-04-11T10:32:38Z</time>
      </trkpt>
      <trkpt lat="49.91826" lon="2.23108">
        <ele>16.8</ele>
        <time>2022-04-11T10:32:39Z</time>
      </trkpt>
      <trkpt lat="49.91826" lon="2.23106">
        <ele>16.8</ele>
        <time>2022-04-11T10:32:40Z</time>
      </trkpt>
      <trkpt lat="49.91827" lon="2.23104">
        <ele>16.8</ele>
        <time>2022-04-11T10:32:41Z</time>
      </trkpt>
      <trkpt lat="49.91827" lon="2.23102">
        <ele>16.8</ele>
        <time>2022-04-11T10:32:43Z</time>
      </trkpt>
      <trkpt lat="49.91827" lon="2.23099">
        <ele>16.8</ele>
        <time>2022-04-11T10:32:44Z</time>
      </trkpt>
      <trkpt lat="49.91827" lon="2.23097">
        <ele>16.8</ele>
        <time>2022-04-11T10:32:45Z</time>
      </trkpt>
      <trkpt lat="49.91827" lon="2.23096">
        <ele>16.8</ele>
        <time>2022-04-11T10:32:46Z</time>
      </trkpt>
      <trkpt lat="49.91828" lon="2.23094">
        <ele>16.8</ele>
        <time>2022-04-11T10:32:47Z</time>
      </trkpt>
      <trkpt lat="49.91828" lon="2.23092">
        <ele>16.8</ele>
        <time>2022-04-11T10:32:48Z</time>
      </trkpt>
      <trkpt lat="49.91827" lon="2.23088">
        <ele>16.9</ele>
        <time>2022-04-11T10:32:49Z</time>
      </trkpt>
      <trkpt lat="49.91827" lon="2.23087">
        <ele>16.9</ele>
        <time>2022-04-11T10:32:51Z</time>
      </trkpt>
      <trkpt lat="49.91827" lon="2.23086">
        <ele>16.9</ele>
        <time>2022-04-11T10:32:52Z</time>
      </trkpt>
      <trkpt lat="49.91827" lon="2.23084">
        <ele>16.9</ele>
        <time>2022-04-11T10:32:53Z</time>
      </trkpt>
      <trkpt lat="49.91827" lon="2.23082">
        <ele>16.9</ele>
        <time>2022-04-11T10:32:54Z</time>
      </trkpt>
      <trkpt lat="49.91827" lon="2.23078">
        <ele>16.9</ele>
        <time>2022-04-11T10:32:55Z</time>
      </trkpt>
      <trkpt lat="49.91828" lon="2.23077">
        <ele>16.9</ele>
        <time>2022-04-11T10:32:56Z</time>
      </trkpt>
      <trkpt lat="49.91828" lon="2.23076">
        <ele>16.9</ele>
        <time>2022-04-11T10:32:57Z</time>
      </trkpt>
      <trkpt lat="49.91828" lon="2.23074">
        <ele>16.9</ele>
        <time>2022-04-11T10:32:58Z</time>
      </trkpt>
      <trkpt lat="49.91829" lon="2.23072">
        <ele>16.9</ele>
        <time>2022-04-11T10:32:59Z</time>
      </trkpt>
      <trkpt lat="49.91829" lon="2.23071">
        <ele>16.9</ele>
        <time>2022-04-11T10:33:01Z</time>
      </trkpt>
      <trkpt lat="49.9183" lon="2.23069">
        <ele>16.9</ele>
        <time>2022-04-11T10:33:02Z</time>
      </trkpt>
      <trkpt lat="49.9183" lon="2.23068">
        <ele>16.9</ele>
        <time>2022-04-11T10:33:03Z</time>
      </trkpt>
      <trkpt lat="49.91831" lon="2.23066">
        <ele>16.9</ele>
        <time>2022-04-11T10:33:04Z</time>
      </trkpt>
      <trkpt lat="49.91832" lon="2.23064">
        <ele>16.9</ele>
        <time>2022-04-11T10:33:05Z</time>
      </trkpt>
      <trkpt lat="49.91832" lon="2.23063">
        <ele>16.9</ele>
        <time>2022-04-11T10:33:06Z</time>
      </trkpt>
      <trkpt lat="49.91832" lon="2.23061">
        <ele>16.9</ele>
        <time>2022-04-11T10:33:07Z</time>
      </trkpt>
      <trkpt lat="49.91833" lon="2.23058">
        <ele>16.9</ele>
        <time>2022-04-11T10:33:09Z</time>
      </trkpt>
      <trkpt lat="49.91833" lon="2.23057">
        <ele>16.9</ele>
        <time>2022-04-11T10:33:10Z</time>
      </trkpt>
      <trkpt lat="49.91834" lon="2.23056">
        <ele>16.9</ele>
        <time>2022-04-11T10:33:11Z</time>
      </trkpt>
      <trkpt lat="49.91834" lon="2.23053">
        <ele>16.9</ele>
        <time>2022-04-11T10:33:12Z</time>
      </trkpt>
      <trkpt lat="49.91834" lon="2.23051">
        <ele>16.9</ele>
        <time>2022-04-11T10:33:13Z</time>
      </trkpt>
      <trkpt lat="49.91835" lon="2.23049">
        <ele>16.9</ele>
        <time>2022-04-11T10:33:14Z</time>
      </trkpt>
      <trkpt lat="49.91835" lon="2.23048">
        <ele>16.9</ele>
        <time>2022-04-11T10:33:15Z</time>
      </trkpt>
      <trkpt lat="49.91835" lon="2.23046">
        <ele>16.9</ele>
        <time>2022-04-11T10:33:16Z</time>
      </trkpt>
      <trkpt lat="49.91836" lon="2.23045">
        <ele>17</ele>
        <time>2022-04-11T10:33:18Z</time>
      </trkpt>
      <trkpt lat="49.91837" lon="2.23043">
        <ele>17</ele>
        <time>2022-04-11T10:33:19Z</time>
      </trkpt>
      <trkpt lat="49.91837" lon="2.23042">
        <ele>17</ele>
        <time>2022-04-11T10:33:20Z</time>
      </trkpt>
      <trkpt lat="49.91837" lon="2.2304">
        <ele>17</ele>
        <time>2022-04-11T10:33:21Z</time>
      </trkpt>
      <trkpt lat="49.91838" lon="2.23038">
        <ele>17</ele>
        <time>2022-04-11T10:33:22Z</time>
      </trkpt>
      <trkpt lat="49.91838" lon="2.23037">
        <ele>17</ele>
        <time>2022-04-11T10:33:23Z</time>
      </trkpt>
      <trkpt lat="49.91839" lon="2.23034">
        <ele>17</ele>
        <time>2022-04-11T10:33:24Z</time>
      </trkpt>
      <trkpt lat="49.91839" lon="2.23032">
        <ele>17</ele>
        <time>2022-04-11T10:33:25Z</time>
      </trkpt>
      <trkpt lat="49.91839" lon="2.23031">
        <ele>17</ele>
        <time>2022-04-11T10:33:26Z</time>
      </trkpt>
      <trkpt lat="49.91839" lon="2.23028">
        <ele>17.1</ele>
        <time>2022-04-11T10:33:28Z</time>
      </trkpt>
      <trkpt lat="49.91839" lon="2.23026">
        <ele>17.1</ele>
        <time>2022-04-11T10:33:29Z</time>
      </trkpt>
      <trkpt lat="49.91839" lon="2.23025">
        <ele>17.1</ele>
        <time>2022-04-11T10:33:30Z</time>
      </trkpt>
      <trkpt lat="49.91839" lon="2.23023">
        <ele>17.1</ele>
        <time>2022-04-11T10:33:31Z</time>
      </trkpt>
      <trkpt lat="49.91839" lon="2.23021">
        <ele>17.1</ele>
        <time>2022-04-11T10:33:32Z</time>
      </trkpt>
      <trkpt lat="49.91839" lon="2.23019">
        <ele>17.1</ele>
        <time>2022-04-11T10:33:33Z</time>
      </trkpt>
      <trkpt lat="49.9184" lon="2.23018">
        <ele>17.2</ele>
        <time>2022-04-11T10:33:34Z</time>
      </trkpt>
      <trkpt lat="49.9184" lon="2.23016">
        <ele>17.2</ele>
        <time>2022-04-11T10:33:35Z</time>
      </trkpt>
      <trkpt lat="49.9184" lon="2.23014">
        <ele>17.2</ele>
        <time>2022-04-11T10:33:37Z</time>
      </trkpt>
      <trkpt lat="49.9184" lon="2.23013">
        <ele>17.2</ele>
        <time>2022-04-11T10:33:38Z</time>
      </trkpt>
      <trkpt lat="49.9184" lon="2.23011">
        <ele>17.3</ele>
        <time>2022-04-11T10:33:39Z</time>
      </trkpt>
      <trkpt lat="49.91841" lon="2.23008">
        <ele>17.3</ele>
        <time>2022-04-11T10:33:40Z</time>
      </trkpt>
      <trkpt lat="49.91841" lon="2.23006">
        <ele>17.3</ele>
        <time>2022-04-11T10:33:41Z</time>
      </trkpt>
      <trkpt lat="49.91841" lon="2.23005">
        <ele>17.3</ele>
        <time>2022-04-11T10:33:42Z</time>
      </trkpt>
      <trkpt lat="49.91841" lon="2.23003">
        <ele>17.4</ele>
        <time>2022-04-11T10:33:44Z</time>
      </trkpt>
      <trkpt lat="49.91842" lon="2.23002">
        <ele>17.4</ele>
        <time>2022-04-11T10:33:45Z</time>
      </trkpt>
      <trkpt lat="49.91843" lon="2.23">
        <ele>17.4</ele>
        <time>2022-04-11T10:33:46Z</time>
      </trkpt>
      <trkpt lat="49.91843" lon="2.22999">
        <ele>17.5</ele>
        <time>2022-04-11T10:33:47Z</time>
      </trkpt>
      <trkpt lat="49.91844" lon="2.22997">
        <ele>17.5</ele>
        <time>2022-04-11T10:33:48Z</time>
      </trkpt>
      <trkpt lat="49.91844" lon="2.22994">
        <ele>17.6</ele>
        <time>2022-04-11T10:33:49Z</time>
      </trkpt>
      <trkpt lat="49.91844" lon="2.22993">
        <ele>17.6</ele>
        <time>2022-04-11T10:33:51Z</time>
      </trkpt>
      <trkpt lat="49.91845" lon="2.22992">
        <ele>17.6</ele>
        <time>2022-04-11T10:33:52Z</time>
      </trkpt>
      <trkpt lat="49.91845" lon="2.22989">
        <ele>17.7</ele>
        <time>2022-04-11T10:33:53Z</time>
      </trkpt>
      <trkpt lat="49.91845" lon="2.22987">
        <ele>17.7</ele>
        <time>2022-04-11T10:33:54Z</time>
      </trkpt>
      <trkpt lat="49.91845" lon="2.22986">
        <ele>17.8</ele>
        <time>2022-04-11T10:33:55Z</time>
      </trkpt>
      <trkpt lat="49.91846" lon="2.22984">
        <ele>17.8</ele>
        <time>2022-04-11T10:33:56Z</time>
      </trkpt>
      <trkpt lat="49.91846" lon="2.22982">
        <ele>17.9</ele>
        <time>2022-04-11T10:33:58Z</time>
      </trkpt>
      <trkpt lat="49.91846" lon="2.22981">
        <ele>17.9</ele>
        <time>2022-04-11T10:33:59Z</time>
      </trkpt>
      <trkpt lat="49.91847" lon="2.22978">
        <ele>18</ele>
        <time>2022-04-11T10:34:00Z</time>
      </trkpt>
      <trkpt lat="49.91847" lon="2.22977">
        <ele>18</ele>
        <time>2022-04-11T10:34:01Z</time>
      </trkpt>
      <trkpt lat="49.91848" lon="2.22976">
        <ele>18.1</ele>
        <time>2022-04-11T10:34:02Z</time>
      </trkpt>
      <trkpt lat="49.91849" lon="2.22975">
        <ele>18.1</ele>
        <time>2022-04-11T10:34:04Z</time>
      </trkpt>
      <trkpt lat="49.91849" lon="2.22973">
        <ele>18.2</ele>
        <time>2022-04-11T10:34:05Z</time>
      </trkpt>
      <trkpt lat="49.9185" lon="2.22971">
        <ele>18.2</ele>
        <time>2022-04-11T10:34:06Z</time>
      </trkpt>
      <trkpt lat="49.91851" lon="2.22969">
        <ele>18.3</ele>
        <time>2022-04-11T10:34:07Z</time>
      </trkpt>
      <trkpt lat="49.91851" lon="2.22968">
        <ele>18.4</ele>
        <time>2022-04-11T10:34:08Z</time>
      </trkpt>
      <trkpt lat="49.91852" lon="2.22967">
        <ele>18.4</ele>
        <time>2022-04-11T10:34:09Z</time>
      </trkpt>
      <trkpt lat="49.91852" lon="2.22965">
        <ele>18.4</ele>
        <time>2022-04-11T10:34:11Z</time>
      </trkpt>
      <trkpt lat="49.91853" lon="2.22963">
        <ele>18.5</ele>
        <time>2022-04-11T10:34:12Z</time>
      </trkpt>
      <trkpt lat="49.91854" lon="2.22962">
        <ele>18.6</ele>
        <time>2022-04-11T10:34:13Z</time>
      </trkpt>
      <trkpt lat="49.91854" lon="2.2296">
        <ele>18.6</ele>
        <time>2022-04-11T10:34:14Z</time>
      </trkpt>
      <trkpt lat="49.91855" lon="2.22958">
        <ele>18.7</ele>
        <time>2022-04-11T10:34:15Z</time>
      </trkpt>
      <trkpt lat="49.91856" lon="2.22957">
        <ele>18.7</ele>
        <time>2022-04-11T10:34:17Z</time>
      </trkpt>
      <trkpt lat="49.91857" lon="2.22955">
        <ele>18.8</ele>
        <time>2022-04-11T10:34:18Z</time>
      </trkpt>
      <trkpt lat="49.91857" lon="2.22953">
        <ele>18.8</ele>
        <time>2022-04-11T10:34:19Z</time>
      </trkpt>
      <trkpt lat="49.91858" lon="2.2295">
        <ele>18.9</ele>
        <time>2022-04-11T10:34:20Z</time>
      </trkpt>
      <trkpt lat="49.91859" lon="2.22949">
        <ele>18.9</ele>
        <time>2022-04-11T10:34:22Z</time>
      </trkpt>
      <trkpt lat="49.91859" lon="2.22948">
        <ele>19</ele>
        <time>2022-04-11T10:34:23Z</time>
      </trkpt>
      <trkpt lat="49.91859" lon="2.22946">
        <ele>19</ele>
        <time>2022-04-11T10:34:24Z</time>
      </trkpt>
      <trkpt lat="49.91859" lon="2.22945">
        <ele>19</ele>
        <time>2022-04-11T10:34:25Z</time>
      </trkpt>
      <trkpt lat="49.9186" lon="2.22943">
        <ele>19.1</ele>
        <time>2022-04-11T10:34:26Z</time>
      </trkpt>
      <trkpt lat="49.9186" lon="2.22942">
        <ele>19.1</ele>
        <time>2022-04-11T10:34:27Z</time>
      </trkpt>
      <trkpt lat="49.9186" lon="2.22941">
        <ele>19.1</ele>
        <time>2022-04-11T10:34:28Z</time>
      </trkpt>
      <trkpt lat="49.91859" lon="2.22938">
        <ele>19.2</ele>
        <time>2022-04-11T10:34:29Z</time>
      </trkpt>
      <trkpt lat="49.9186" lon="2.22937">
        <ele>19.1</ele>
        <time>2022-04-11T10:34:30Z</time>
      </trkpt>
      <trkpt lat="49.9186" lon="2.22936">
        <ele>19.1</ele>
        <time>2022-04-11T10:34:32Z</time>
      </trkpt>
      <trkpt lat="49.91861" lon="2.22937">
        <ele>19.1</ele>
        <time>2022-04-11T10:34:33Z</time>
      </trkpt>
      <trkpt lat="49.91862" lon="2.22937">
        <ele>19.1</ele>
        <time>2022-04-11T10:34:34Z</time>
      </trkpt>
      <trkpt lat="49.91863" lon="2.22937">
        <ele>19.1</ele>
        <time>2022-04-11T10:34:35Z</time>
      </trkpt>
      <trkpt lat="49.91863" lon="2.22936">
        <ele>19.1</ele>
        <time>2022-04-11T10:34:36Z</time>
      </trkpt>
      <trkpt lat="49.91863" lon="2.22935">
        <ele>19.1</ele>
        <time>2022-04-11T10:34:37Z</time>
      </trkpt>
      <trkpt lat="49.91864" lon="2.22934">
        <ele>19</ele>
        <time>2022-04-11T10:34:38Z</time>
      </trkpt>
      <trkpt lat="49.91864" lon="2.22932">
        <ele>19</ele>
        <time>2022-04-11T10:34:39Z</time>
      </trkpt>
      <trkpt lat="49.91864" lon="2.22931">
        <ele>19</ele>
        <time>2022-04-11T10:34:40Z</time>
      </trkpt>
      <trkpt lat="49.91864" lon="2.22929">
        <ele>19</ele>
        <time>2022-04-11T10:34:41Z</time>
      </trkpt>
      <trkpt lat="49.91863" lon="2.22927">
        <ele>19</ele>
        <time>2022-04-11T10:34:42Z</time>
      </trkpt>
      <trkpt lat="49.91863" lon="2.22925">
        <ele>18.9</ele>
        <time>2022-04-11T10:34:43Z</time>
      </trkpt>
      <trkpt lat="49.91863" lon="2.22923">
        <ele>18.9</ele>
        <time>2022-04-11T10:34:44Z</time>
      </trkpt>
      <trkpt lat="49.91863" lon="2.22921">
        <ele>18.9</ele>
        <time>2022-04-11T10:34:46Z</time>
      </trkpt>
      <trkpt lat="49.91863" lon="2.22918">
        <ele>18.9</ele>
        <time>2022-04-11T10:34:47Z</time>
      </trkpt>
      <trkpt lat="49.91863" lon="2.22917">
        <ele>18.8</ele>
        <time>2022-04-11T10:34:48Z</time>
      </trkpt>
      <trkpt lat="49.91863" lon="2.22916">
        <ele>18.8</ele>
        <time>2022-04-11T10:34:49Z</time>
      </trkpt>
      <trkpt lat="49.91863" lon="2.22914">
        <ele>18.8</ele>
        <time>2022-04-11T10:34:50Z</time>
      </trkpt>
      <trkpt lat="49.91864" lon="2.22912">
        <ele>18.8</ele>
        <time>2022-04-11T10:34:51Z</time>
      </trkpt>
      <trkpt lat="49.91864" lon="2.2291">
        <ele>18.8</ele>
        <time>2022-04-11T10:34:52Z</time>
      </trkpt>
      <trkpt lat="49.91864" lon="2.22909">
        <ele>18.8</ele>
        <time>2022-04-11T10:34:53Z</time>
      </trkpt>
      <trkpt lat="49.91864" lon="2.22907">
        <ele>18.7</ele>
        <time>2022-04-11T10:34:54Z</time>
      </trkpt>
      <trkpt lat="49.91865" lon="2.22904">
        <ele>18.7</ele>
        <time>2022-04-11T10:34:56Z</time>
      </trkpt>
      <trkpt lat="49.91865" lon="2.22902">
        <ele>18.7</ele>
        <time>2022-04-11T10:34:57Z</time>
      </trkpt>
      <trkpt lat="49.91865" lon="2.22901">
        <ele>18.7</ele>
        <time>2022-04-11T10:34:58Z</time>
      </trkpt>
      <trkpt lat="49.91865" lon="2.22898">
        <ele>18.7</ele>
        <time>2022-04-11T10:34:59Z</time>
      </trkpt>
      <trkpt lat="49.91865" lon="2.22897">
        <ele>18.7</ele>
        <time>2022-04-11T10:35:00Z</time>
      </trkpt>
      <trkpt lat="49.91865" lon="2.22895">
        <ele>18.6</ele>
        <time>2022-04-11T10:35:01Z</time>
      </trkpt>
      <trkpt lat="49.91865" lon="2.22894">
        <ele>18.6</ele>
        <time>2022-04-11T10:35:02Z</time>
      </trkpt>
      <trkpt lat="49.91865" lon="2.22892">
        <ele>18.6</ele>
        <time>2022-04-11T10:35:03Z</time>
      </trkpt>
      <trkpt lat="49.91865" lon="2.22891">
        <ele>18.6</ele>
        <time>2022-04-11T10:35:05Z</time>
      </trkpt>
      <trkpt lat="49.91864" lon="2.22889">
        <ele>18.6</ele>
        <time>2022-04-11T10:35:06Z</time>
      </trkpt>
      <trkpt lat="49.91864" lon="2.22889">
        <ele>18.6</ele>
        <time>2022-04-11T10:35:07Z</time>
      </trkpt>
      <trkpt lat="49.91863" lon="2.22888">
        <ele>18.6</ele>
        <time>2022-04-11T10:35:08Z</time>
      </trkpt>
      <trkpt lat="49.91862" lon="2.22887">
        <ele>18.6</ele>
        <time>2022-04-11T10:35:09Z</time>
      </trkpt>
      <trkpt lat="49.91861" lon="2.22887">
        <ele>18.6</ele>
        <time>2022-04-11T10:35:10Z</time>
      </trkpt>
      <trkpt lat="49.9186" lon="2.22886">
        <ele>18.6</ele>
        <time>2022-04-11T10:35:11Z</time>
      </trkpt>
      <trkpt lat="49.91859" lon="2.22885">
        <ele>18.6</ele>
        <time>2022-04-11T10:35:12Z</time>
      </trkpt>
      <trkpt lat="49.91858" lon="2.22884">
        <ele>18.5</ele>
        <time>2022-04-11T10:35:14Z</time>
      </trkpt>
      <trkpt lat="49.91858" lon="2.22882">
        <ele>18.5</ele>
        <time>2022-04-11T10:35:15Z</time>
      </trkpt>
      <trkpt lat="49.91858" lon="2.22881">
        <ele>18.5</ele>
        <time>2022-04-11T10:35:16Z</time>
      </trkpt>
      <trkpt lat="49.91858" lon="2.22879">
        <ele>18.5</ele>
        <time>2022-04-11T10:35:17Z</time>
      </trkpt>
      <trkpt lat="49.91858" lon="2.22877">
        <ele>18.5</ele>
        <time>2022-04-11T10:35:18Z</time>
      </trkpt>
      <trkpt lat="49.91859" lon="2.22876">
        <ele>18.5</ele>
        <time>2022-04-11T10:35:19Z</time>
      </trkpt>
      <trkpt lat="49.9186" lon="2.22873">
        <ele>18.5</ele>
        <time>2022-04-11T10:35:20Z</time>
      </trkpt>
      <trkpt lat="49.9186" lon="2.22872">
        <ele>18.5</ele>
        <time>2022-04-11T10:35:22Z</time>
      </trkpt>
      <trkpt lat="49.9186" lon="2.22871">
        <ele>18.5</ele>
        <time>2022-04-11T10:35:23Z</time>
      </trkpt>
      <trkpt lat="49.91861" lon="2.22867">
        <ele>18.5</ele>
        <time>2022-04-11T10:35:24Z</time>
      </trkpt>
      <trkpt lat="49.91861" lon="2.22866">
        <ele>18.5</ele>
        <time>2022-04-11T10:35:25Z</time>
      </trkpt>
      <trkpt lat="49.91862" lon="2.22865">
        <ele>18.5</ele>
        <time>2022-04-11T10:35:26Z</time>
      </trkpt>
      <trkpt lat="49.91862" lon="2.22863">
        <ele>18.5</ele>
        <time>2022-04-11T10:35:27Z</time>
      </trkpt>
      <trkpt lat="49.91862" lon="2.22861">
        <ele>18.4</ele>
        <time>2022-04-11T10:35:28Z</time>
      </trkpt>
      <trkpt lat="49.91862" lon="2.22859">
        <ele>18.4</ele>
        <time>2022-04-11T10:35:30Z</time>
      </trkpt>
      <trkpt lat="49.91863" lon="2.22857">
        <ele>18.4</ele>
        <time>2022-04-11T10:35:31Z</time>
      </trkpt>
      <trkpt lat="49.91863" lon="2.22856">
        <ele>18.4</ele>
        <time>2022-04-11T10:35:32Z</time>
      </trkpt>
      <trkpt lat="49.91863" lon="2.22854">
        <ele>18.3</ele>
        <time>2022-04-11T10:35:33Z</time>
      </trkpt>
      <trkpt lat="49.91863" lon="2.22852">
        <ele>18.3</ele>
        <time>2022-04-11T10:35:34Z</time>
      </trkpt>
      <trkpt lat="49.91863" lon="2.22851">
        <ele>18.3</ele>
        <time>2022-04-11T10:35:35Z</time>
      </trkpt>
      <trkpt lat="49.91864" lon="2.2285">
        <ele>18.3</ele>
        <time>2022-04-11T10:35:36Z</time>
      </trkpt>
      <trkpt lat="49.91865" lon="2.22848">
        <ele>18.2</ele>
        <time>2022-04-11T10:35:37Z</time>
      </trkpt>
      <trkpt lat="49.91865" lon="2.22846">
        <ele>18.2</ele>
        <time>2022-04-11T10:35:38Z</time>
      </trkpt>
      <trkpt lat="49.91865" lon="2.22845">
        <ele>18.2</ele>
        <time>2022-04-11T10:35:40Z</time>
      </trkpt>
      <trkpt lat="49.91865" lon="2.22844">
        <ele>18.2</ele>
        <time>2022-04-11T10:35:41Z</time>
      </trkpt>
      <trkpt lat="49.91866" lon="2.22842">
        <ele>18.2</ele>
        <time>2022-04-11T10:35:42Z</time>
      </trkpt>
      <trkpt lat="49.91866" lon="2.22841">
        <ele>18.2</ele>
        <time>2022-04-11T10:35:43Z</time>
      </trkpt>
      <trkpt lat="49.91865" lon="2.22838">
        <ele>18.1</ele>
        <time>2022-04-11T10:35:44Z</time>
      </trkpt>
      <trkpt lat="49.91865" lon="2.22836">
        <ele>18.1</ele>
        <time>2022-04-11T10:35:45Z</time>
      </trkpt>
      <trkpt lat="49.91865" lon="2.22835">
        <ele>18.1</ele>
        <time>2022-04-11T10:35:46Z</time>
      </trkpt>
      <trkpt lat="49.91866" lon="2.22833">
        <ele>18.1</ele>
        <time>2022-04-11T10:35:47Z</time>
      </trkpt>
      <trkpt lat="49.91866" lon="2.22831">
        <ele>18</ele>
        <time>2022-04-11T10:35:48Z</time>
      </trkpt>
      <trkpt lat="49.91866" lon="2.2283">
        <ele>18</ele>
        <time>2022-04-11T10:35:49Z</time>
      </trkpt>
      <trkpt lat="49.91867" lon="2.22826">
        <ele>18</ele>
        <time>2022-04-11T10:35:50Z</time>
      </trkpt>
      <trkpt lat="49.91867" lon="2.22825">
        <ele>18</ele>
        <time>2022-04-11T10:35:52Z</time>
      </trkpt>
      <trkpt lat="49.91867" lon="2.22824">
        <ele>17.9</ele>
        <time>2022-04-11T10:35:53Z</time>
      </trkpt>
      <trkpt lat="49.91867" lon="2.22821">
        <ele>17.9</ele>
        <time>2022-04-11T10:35:54Z</time>
      </trkpt>
      <trkpt lat="49.91867" lon="2.22819">
        <ele>17.9</ele>
        <time>2022-04-11T10:35:55Z</time>
      </trkpt>
      <trkpt lat="49.91867" lon="2.22818">
        <ele>17.9</ele>
        <time>2022-04-11T10:35:56Z</time>
      </trkpt>
      <trkpt lat="49.91867" lon="2.22815">
        <ele>17.8</ele>
        <time>2022-04-11T10:35:57Z</time>
      </trkpt>
      <trkpt lat="49.91867" lon="2.22814">
        <ele>17.8</ele>
        <time>2022-04-11T10:35:58Z</time>
      </trkpt>
      <trkpt lat="49.91867" lon="2.22812">
        <ele>17.8</ele>
        <time>2022-04-11T10:35:59Z</time>
      </trkpt>
      <trkpt lat="49.91866" lon="2.22811">
        <ele>17.8</ele>
        <time>2022-04-11T10:36:00Z</time>
      </trkpt>
      <trkpt lat="49.91866" lon="2.22809">
        <ele>17.8</ele>
        <time>2022-04-11T10:36:01Z</time>
      </trkpt>
      <trkpt lat="49.91866" lon="2.22807">
        <ele>17.7</ele>
        <time>2022-04-11T10:36:03Z</time>
      </trkpt>
      <trkpt lat="49.91866" lon="2.22805">
        <ele>17.7</ele>
        <time>2022-04-11T10:36:04Z</time>
      </trkpt>
      <trkpt lat="49.91865" lon="2.22803">
        <ele>17.7</ele>
        <time>2022-04-11T10:36:05Z</time>
      </trkpt>
      <trkpt lat="49.91865" lon="2.22802">
        <ele>17.7</ele>
        <time>2022-04-11T10:36:06Z</time>
      </trkpt>
      <trkpt lat="49.91864" lon="2.22798">
        <ele>17.6</ele>
        <time>2022-04-11T10:36:07Z</time>
      </trkpt>
      <trkpt lat="49.91864" lon="2.22797">
        <ele>17.6</ele>
        <time>2022-04-11T10:36:08Z</time>
      </trkpt>
      <trkpt lat="49.91864" lon="2.22796">
        <ele>17.6</ele>
        <time>2022-04-11T10:36:09Z</time>
      </trkpt>
      <trkpt lat="49.91863" lon="2.22793">
        <ele>17.6</ele>
        <time>2022-04-11T10:36:10Z</time>
      </trkpt>
      <trkpt lat="49.91863" lon="2.22791">
        <ele>17.6</ele>
        <time>2022-04-11T10:36:11Z</time>
      </trkpt>
      <trkpt lat="49.91863" lon="2.2279">
        <ele>17.6</ele>
        <time>2022-04-11T10:36:13Z</time>
      </trkpt>
      <trkpt lat="49.91863" lon="2.22788">
        <ele>17.5</ele>
        <time>2022-04-11T10:36:14Z</time>
      </trkpt>
      <trkpt lat="49.91863" lon="2.22787">
        <ele>17.5</ele>
        <time>2022-04-11T10:36:15Z</time>
      </trkpt>
      <trkpt lat="49.91863" lon="2.22785">
        <ele>17.5</ele>
        <time>2022-04-11T10:36:16Z</time>
      </trkpt>
      <trkpt lat="49.91863" lon="2.22782">
        <ele>17.5</ele>
        <time>2022-04-11T10:36:17Z</time>
      </trkpt>
      <trkpt lat="49.91863" lon="2.22781">
        <ele>17.5</ele>
        <time>2022-04-11T10:36:18Z</time>
      </trkpt>
      <trkpt lat="49.91863" lon="2.2278">
        <ele>17.4</ele>
        <time>2022-04-11T10:36:19Z</time>
      </trkpt>
      <trkpt lat="49.91864" lon="2.22778">
        <ele>17.4</ele>
        <time>2022-04-11T10:36:20Z</time>
      </trkpt>
      <trkpt lat="49.91864" lon="2.22776">
        <ele>17.4</ele>
        <time>2022-04-11T10:36:22Z</time>
      </trkpt>
      <trkpt lat="49.91864" lon="2.22774">
        <ele>17.4</ele>
        <time>2022-04-11T10:36:23Z</time>
      </trkpt>
      <trkpt lat="49.91864" lon="2.22773">
        <ele>17.4</ele>
        <time>2022-04-11T10:36:24Z</time>
      </trkpt>
      <trkpt lat="49.91863" lon="2.22772">
        <ele>17.4</ele>
        <time>2022-04-11T10:36:25Z</time>
      </trkpt>
      <trkpt lat="49.91863" lon="2.2277">
        <ele>17.3</ele>
        <time>2022-04-11T10:36:26Z</time>
      </trkpt>
      <trkpt lat="49.91862" lon="2.22768">
        <ele>17.3</ele>
        <time>2022-04-11T10:36:27Z</time>
      </trkpt>
      <trkpt lat="49.91862" lon="2.22766">
        <ele>17.3</ele>
        <time>2022-04-11T10:36:28Z</time>
      </trkpt>
      <trkpt lat="49.91862" lon="2.22765">
        <ele>17.3</ele>
        <time>2022-04-11T10:36:29Z</time>
      </trkpt>
      <trkpt lat="49.91861" lon="2.22763">
        <ele>17.3</ele>
        <time>2022-04-11T10:36:30Z</time>
      </trkpt>
      <trkpt lat="49.9186" lon="2.22762">
        <ele>17.3</ele>
        <time>2022-04-11T10:36:32Z</time>
      </trkpt>
      <trkpt lat="49.9186" lon="2.2276">
        <ele>17.3</ele>
        <time>2022-04-11T10:36:33Z</time>
      </trkpt>
      <trkpt lat="49.91859" lon="2.2276">
        <ele>17.3</ele>
        <time>2022-04-11T10:36:34Z</time>
      </trkpt>
      <trkpt lat="49.91859" lon="2.22758">
        <ele>17.2</ele>
        <time>2022-04-11T10:36:35Z</time>
      </trkpt>
      <trkpt lat="49.91858" lon="2.22757">
        <ele>17.2</ele>
        <time>2022-04-11T10:36:36Z</time>
      </trkpt>
      <trkpt lat="49.91858" lon="2.22755">
        <ele>17.2</ele>
        <time>2022-04-11T10:36:37Z</time>
      </trkpt>
      <trkpt lat="49.91858" lon="2.22753">
        <ele>17.2</ele>
        <time>2022-04-11T10:36:38Z</time>
      </trkpt>
      <trkpt lat="49.91858" lon="2.22751">
        <ele>17.2</ele>
        <time>2022-04-11T10:36:39Z</time>
      </trkpt>
      <trkpt lat="49.91857" lon="2.22748">
        <ele>17.2</ele>
        <time>2022-04-11T10:36:41Z</time>
      </trkpt>
      <trkpt lat="49.91857" lon="2.22747">
        <ele>17.2</ele>
        <time>2022-04-11T10:36:42Z</time>
      </trkpt>
      <trkpt lat="49.91857" lon="2.22746">
        <ele>17.2</ele>
        <time>2022-04-11T10:36:43Z</time>
      </trkpt>
      <trkpt lat="49.91856" lon="2.22743">
        <ele>17.2</ele>
        <time>2022-04-11T10:36:44Z</time>
      </trkpt>
      <trkpt lat="49.91855" lon="2.22742">
        <ele>17.1</ele>
        <time>2022-04-11T10:36:45Z</time>
      </trkpt>
      <trkpt lat="49.91855" lon="2.22741">
        <ele>17.1</ele>
        <time>2022-04-11T10:36:46Z</time>
      </trkpt>
      <trkpt lat="49.91854" lon="2.22739">
        <ele>17.1</ele>
        <time>2022-04-11T10:36:47Z</time>
      </trkpt>
      <trkpt lat="49.91853" lon="2.22737">
        <ele>17.1</ele>
        <time>2022-04-11T10:36:48Z</time>
      </trkpt>
      <trkpt lat="49.91853" lon="2.22736">
        <ele>17.1</ele>
        <time>2022-04-11T10:36:49Z</time>
      </trkpt>
      <trkpt lat="49.91852" lon="2.22734">
        <ele>17.1</ele>
        <time>2022-04-11T10:36:51Z</time>
      </trkpt>
      <trkpt lat="49.91852" lon="2.22732">
        <ele>17.1</ele>
        <time>2022-04-11T10:36:52Z</time>
      </trkpt>
      <trkpt lat="49.91852" lon="2.22731">
        <ele>17.1</ele>
        <time>2022-04-11T10:36:53Z</time>
      </trkpt>
      <trkpt lat="49.91853" lon="2.22729">
        <ele>17.1</ele>
        <time>2022-04-11T10:36:54Z</time>
      </trkpt>
      <trkpt lat="49.91853" lon="2.22727">
        <ele>17.1</ele>
        <time>2022-04-11T10:36:56Z</time>
      </trkpt>
      <trkpt lat="49.91855" lon="2.22725">
        <ele>17</ele>
        <time>2022-04-11T10:36:58Z</time>
      </trkpt>
      <trkpt lat="49.91856" lon="2.22727">
        <ele>17</ele>
        <time>2022-04-11T10:37:00Z</time>
      </trkpt>
      <trkpt lat="49.91856" lon="2.22727">
        <ele>17</ele>
        <time>2022-04-11T10:37:01Z</time>
      </trkpt>
      <trkpt lat="49.91855" lon="2.22728">
        <ele>17</ele>
        <time>2022-04-11T10:37:02Z</time>
      </trkpt>
      <trkpt lat="49.91855" lon="2.22728">
        <ele>17</ele>
        <time>2022-04-11T10:37:03Z</time>
      </trkpt>
      <trkpt lat="49.91855" lon="2.22728">
        <ele>17</ele>
        <time>2022-04-11T10:37:04Z</time>
      </trkpt>
      <trkpt lat="49.91855" lon="2.22729">
        <ele>17</ele>
        <time>2022-04-11T10:37:05Z</time>
      </trkpt>
      <trkpt lat="49.91856" lon="2.22729">
        <ele>17</ele>
        <time>2022-04-11T10:37:06Z</time>
      </trkpt>
      <trkpt lat="49.91856" lon="2.2273">
        <ele>17</ele>
        <time>2022-04-11T10:37:07Z</time>
      </trkpt>
      <trkpt lat="49.91856" lon="2.2273">
        <ele>17</ele>
        <time>2022-04-11T10:37:08Z</time>
      </trkpt>
      <trkpt lat="49.91856" lon="2.2273">
        <ele>17</ele>
        <time>2022-04-11T10:37:09Z</time>
      </trkpt>
      <trkpt lat="49.91856" lon="2.2273">
        <ele>17</ele>
        <time>2022-04-11T10:37:10Z</time>
      </trkpt>
      <trkpt lat="49.91856" lon="2.22731">
        <ele>17</ele>
        <time>2022-04-11T10:37:11Z</time>
      </trkpt>
      <trkpt lat="49.91856" lon="2.22731">
        <ele>17</ele>
        <time>2022-04-11T10:37:12Z</time>
      </trkpt>
      <trkpt lat="49.91856" lon="2.22731">
        <ele>17</ele>
        <time>2022-04-11T10:37:13Z</time>
      </trkpt>
      <trkpt lat="49.91856" lon="2.22731">
        <ele>17</ele>
        <time>2022-04-11T10:37:14Z</time>
      </trkpt>
      <trkpt lat="49.91856" lon="2.22731">
        <ele>17</ele>
        <time>2022-04-11T10:37:15Z</time>
      </trkpt>
      <trkpt lat="49.91856" lon="2.22731">
        <ele>17</ele>
        <time>2022-04-11T10:37:16Z</time>
      </trkpt>
      <trkpt lat="49.91856" lon="2.2273">
        <ele>17</ele>
        <time>2022-04-11T10:37:17Z</time>
      </trkpt>
      <trkpt lat="49.91856" lon="2.2273">
        <ele>17</ele>
        <time>2022-04-11T10:37:18Z</time>
      </trkpt>
      <trkpt lat="49.91857" lon="2.2273">
        <ele>17</ele>
        <time>2022-04-11T10:37:19Z</time>
      </trkpt>
      <trkpt lat="49.91857" lon="2.2273">
        <ele>17</ele>
        <time>2022-04-11T10:37:20Z</time>
      </trkpt>
      <trkpt lat="49.91857" lon="2.2273">
        <ele>17</ele>
        <time>2022-04-11T10:37:21Z</time>
      </trkpt>
      <trkpt lat="49.91857" lon="2.2273">
        <ele>17</ele>
        <time>2022-04-11T10:37:22Z</time>
      </trkpt>
      <trkpt lat="49.91857" lon="2.2273">
        <ele>17</ele>
        <time>2022-04-11T10:37:23Z</time>
      </trkpt>
      <trkpt lat="49.91857" lon="2.2273">
        <ele>17</ele>
        <time>2022-04-11T10:37:24Z</time>
      </trkpt>
      <trkpt lat="49.91857" lon="2.2273">
        <ele>17</ele>
        <time>2022-04-11T10:37:25Z</time>
      </trkpt>
      <trkpt lat="49.91857" lon="2.2273">
        <ele>17</ele>
        <time>2022-04-11T10:37:26Z</time>
      </trkpt>
      <trkpt lat="49.91857" lon="2.2273">
        <ele>17</ele>
        <time>2022-04-11T10:37:27Z</time>
      </trkpt>
      <trkpt lat="49.91857" lon="2.2273">
        <ele>17</ele>
        <time>2022-04-11T10:37:28Z</time>
      </trkpt>
      <trkpt lat="49.91857" lon="2.2273">
        <ele>17</ele>
        <time>2022-04-11T10:37:29Z</time>
      </trkpt>
      <trkpt lat="49.91857" lon="2.2273">
        <ele>17</ele>
        <time>2022-04-11T10:37:30Z</time>
      </trkpt>
      <trkpt lat="49.91857" lon="2.2273">
        <ele>17</ele>
        <time>2022-04-11T10:37:31Z</time>
      </trkpt>
      <trkpt lat="49.91857" lon="2.2273">
        <ele>17</ele>
        <time>2022-04-11T10:37:32Z</time>
      </trkpt>
      <trkpt lat="49.91857" lon="2.2273">
        <ele>17</ele>
        <time>2022-04-11T10:37:33Z</time>
      </trkpt>
      <trkpt lat="49.91857" lon="2.2273">
        <ele>17</ele>
        <time>2022-04-11T10:37:34Z</time>
      </trkpt>
      <trkpt lat="49.91857" lon="2.2273">
        <ele>17</ele>
        <time>2022-04-11T10:37:35Z</time>
      </trkpt>
      <trkpt lat="49.91857" lon="2.2273">
        <ele>17</ele>
        <time>2022-04-11T10:37:36Z</time>
      </trkpt>
      <trkpt lat="49.91857" lon="2.2273">
        <ele>17</ele>
        <time>2022-04-11T10:37:37Z</time>
      </trkpt>
      <trkpt lat="49.91857" lon="2.2273">
        <ele>17</ele>
        <time>2022-04-11T10:37:38Z</time>
      </trkpt>
      <trkpt lat="49.91857" lon="2.2273">
        <ele>17</ele>
        <time>2022-04-11T10:37:39Z</time>
      </trkpt>
      <trkpt lat="49.91857" lon="2.2273">
        <ele>17</ele>
        <time>2022-04-11T10:37:40Z</time>
      </trkpt>
      <trkpt lat="49.91857" lon="2.2273">
        <ele>17</ele>
        <time>2022-04-11T10:37:41Z</time>
      </trkpt>
      <trkpt lat="49.91857" lon="2.2273">
        <ele>17</ele>
        <time>2022-04-11T10:37:42Z</time>
      </trkpt>
      <trkpt lat="49.91857" lon="2.2273">
        <ele>17</ele>
        <time>2022-04-11T10:37:43Z</time>
      </trkpt>
      <trkpt lat="49.91857" lon="2.2273">
        <ele>17</ele>
        <time>2022-04-11T10:37:44Z</time>
      </trkpt>
      <trkpt lat="49.91857" lon="2.2273">
        <ele>17</ele>
        <time>2022-04-11T10:37:45Z</time>
      </trkpt>
      <trkpt lat="49.91857" lon="2.2273">
        <ele>17</ele>
        <time>2022-04-11T10:37:46Z</time>
      </trkpt>
      <trkpt lat="49.91857" lon="2.2273">
        <ele>17</ele>
        <time>2022-04-11T10:37:47Z</time>
      </trkpt>
      <trkpt lat="49.91857" lon="2.2273">
        <ele>17</ele>
        <time>2022-04-11T10:37:48Z</time>
      </trkpt>
      <trkpt lat="49.91857" lon="2.2273">
        <ele>17</ele>
        <time>2022-04-11T10:37:49Z</time>
      </trkpt>
      <trkpt lat="49.91857" lon="2.2273">
        <ele>17</ele>
        <time>2022-04-11T10:37:50Z</time>
      </trkpt>
      <trkpt lat="49.91857" lon="2.2273">
        <ele>17</ele>
        <time>2022-04-11T10:37:51Z</time>
      </trkpt>
      <trkpt lat="49.91857" lon="2.2273">
        <ele>17</ele>
        <time>2022-04-11T10:37:52Z</time>
      </trkpt>
      <trkpt lat="49.91857" lon="2.2273">
        <ele>17</ele>
        <time>2022-04-11T10:37:53Z</time>
      </trkpt>
      <trkpt lat="49.91857" lon="2.2273">
        <ele>17</ele>
        <time>2022-04-11T10:37:54Z</time>
      </trkpt>
      <trkpt lat="49.91857" lon="2.2273">
        <ele>17</ele>
        <time>2022-04-11T10:37:55Z</time>
      </trkpt>
      <trkpt lat="49.91857" lon="2.2273">
        <ele>17</ele>
        <time>2022-04-11T10:37:56Z</time>
      </trkpt>
      <trkpt lat="49.91857" lon="2.2273">
        <ele>17</ele>
        <time>2022-04-11T10:37:57Z</time>
      </trkpt>
      <trkpt lat="49.91857" lon="2.2273">
        <ele>17</ele>
        <time>2022-04-11T10:37:58Z</time>
      </trkpt>
      <trkpt lat="49.91857" lon="2.2273">
        <ele>17</ele>
        <time>2022-04-11T10:37:59Z</time>
      </trkpt>
      <trkpt lat="49.91857" lon="2.2273">
        <ele>17</ele>
        <time>2022-04-11T10:38:00Z</time>
      </trkpt>
      <trkpt lat="49.91857" lon="2.2273">
        <ele>17</ele>
        <time>2022-04-11T10:38:01Z</time>
      </trkpt>
      <trkpt lat="49.91857" lon="2.2273">
        <ele>17</ele>
        <time>2022-04-11T10:38:02Z</time>
      </trkpt>
      <trkpt lat="49.91857" lon="2.2273">
        <ele>17</ele>
        <time>2022-04-11T10:38:03Z</time>
      </trkpt>
      <trkpt lat="49.91857" lon="2.2273">
        <ele>17</ele>
        <time>2022-04-11T10:38:04Z</time>
      </trkpt>
      <trkpt lat="49.91857" lon="2.2273">
        <ele>17</ele>
        <time>2022-04-11T10:38:05Z</time>
      </trkpt>
      <trkpt lat="49.91857" lon="2.2273">
        <ele>17</ele>
        <time>2022-04-11T10:38:06Z</time>
      </trkpt>
      <trkpt lat="49.91857" lon="2.2273">
        <ele>17</ele>
        <time>2022-04-11T10:38:07Z</time>
      </trkpt>
      <trkpt lat="49.91857" lon="2.2273">
        <ele>17</ele>
        <time>2022-04-11T10:38:08Z</time>
      </trkpt>
      <trkpt lat="49.91857" lon="2.2273">
        <ele>17</ele>
        <time>2022-04-11T10:38:09Z</time>
      </trkpt>
      <trkpt lat="49.91857" lon="2.2273">
        <ele>17</ele>
        <time>2022-04-11T10:38:10Z</time>
      </trkpt>
      <trkpt lat="49.91857" lon="2.2273">
        <ele>17</ele>
        <time>2022-04-11T10:38:11Z</time>
      </trkpt>
      <trkpt lat="49.91857" lon="2.2273">
        <ele>17</ele>
        <time>2022-04-11T10:38:12Z</time>
      </trkpt>
      <trkpt lat="49.91857" lon="2.2273">
        <ele>17</ele>
        <time>2022-04-11T10:38:13Z</time>
      </trkpt>
      <trkpt lat="49.91857" lon="2.2273">
        <ele>17</ele>
        <time>2022-04-11T10:38:14Z</time>
      </trkpt>
      <trkpt lat="49.91857" lon="2.2273">
        <ele>17</ele>
        <time>2022-04-11T10:38:15Z</time>
      </trkpt>
      <trkpt lat="49.91857" lon="2.2273">
        <ele>17</ele>
        <time>2022-04-11T10:38:16Z</time>
      </trkpt>
      <trkpt lat="49.91857" lon="2.2273">
        <ele>17</ele>
        <time>2022-04-11T10:38:17Z</time>
      </trkpt>
      <trkpt lat="49.91857" lon="2.2273">
        <ele>17</ele>
        <time>2022-04-11T10:38:18Z</time>
      </trkpt>
      <trkpt lat="49.91857" lon="2.2273">
        <ele>17</ele>
        <time>2022-04-11T10:38:19Z</time>
      </trkpt>
      <trkpt lat="49.91857" lon="2.2273">
        <ele>17</ele>
        <time>2022-04-11T10:38:20Z</time>
      </trkpt>
      <trkpt lat="49.91857" lon="2.2273">
        <ele>17</ele>
        <time>2022-04-11T10:38:21Z</time>
      </trkpt>
      <trkpt lat="49.91857" lon="2.2273">
        <ele>17</ele>
        <time>2022-04-11T10:38:22Z</time>
      </trkpt>
      <trkpt lat="49.91857" lon="2.2273">
        <ele>17</ele>
        <time>2022-04-11T10:38:23Z</time>
      </trkpt>
      <trkpt lat="49.91857" lon="2.2273">
        <ele>17</ele>
        <time>2022-04-11T10:38:24Z</time>
      </trkpt>
      <trkpt lat="49.91857" lon="2.2273">
        <ele>17</ele>
        <time>2022-04-11T10:38:25Z</time>
      </trkpt>
      <trkpt lat="49.91857" lon="2.2273">
        <ele>17</ele>
        <time>2022-04-11T10:38:26Z</time>
      </trkpt>
      <trkpt lat="49.91857" lon="2.2273">
        <ele>17</ele>
        <time>2022-04-11T10:38:27Z</time>
      </trkpt>
      <trkpt lat="49.91857" lon="2.2273">
        <ele>17</ele>
        <time>2022-04-11T10:38:28Z</time>
      </trkpt>
      <trkpt lat="49.91857" lon="2.2273">
        <ele>17</ele>
        <time>2022-04-11T10:38:29Z</time>
      </trkpt>
      <trkpt lat="49.91857" lon="2.2273">
        <ele>17</ele>
        <time>2022-04-11T10:38:30Z</time>
      </trkpt>
      <trkpt lat="49.91857" lon="2.2273">
        <ele>17</ele>
        <time>2022-04-11T10:38:31Z</time>
      </trkpt>
      <trkpt lat="49.91857" lon="2.2273">
        <ele>17</ele>
        <time>2022-04-11T10:38:32Z</time>
      </trkpt>
      <trkpt lat="49.91857" lon="2.2273">
        <ele>17</ele>
        <time>2022-04-11T10:38:33Z</time>
      </trkpt>
      <trkpt lat="49.91857" lon="2.2273">
        <ele>17</ele>
        <time>2022-04-11T10:38:34Z</time>
      </trkpt>
      <trkpt lat="49.91857" lon="2.2273">
        <ele>17</ele>
        <time>2022-04-11T10:38:35Z</time>
      </trkpt>
      <trkpt lat="49.91857" lon="2.2273">
        <ele>17</ele>
        <time>2022-04-11T10:38:36Z</time>
      </trkpt>
      <trkpt lat="49.91857" lon="2.2273">
        <ele>17</ele>
        <time>2022-04-11T10:38:37Z</time>
      </trkpt>
      <trkpt lat="49.91857" lon="2.2273">
        <ele>17</ele>
        <time>2022-04-11T10:38:38Z</time>
      </trkpt>
      <trkpt lat="49.91857" lon="2.2273">
        <ele>17</ele>
        <time>2022-04-11T10:38:39Z</time>
      </trkpt>
      <trkpt lat="49.91857" lon="2.2273">
        <ele>17</ele>
        <time>2022-04-11T10:38:40Z</time>
      </trkpt>
      <trkpt lat="49.91857" lon="2.2273">
        <ele>17</ele>
        <time>2022-04-11T10:38:41Z</time>
      </trkpt>
      <trkpt lat="49.91857" lon="2.2273">
        <ele>17</ele>
        <time>2022-04-11T10:38:42Z</time>
      </trkpt>
      <trkpt lat="49.91857" lon="2.2273">
        <ele>17</ele>
        <time>2022-04-11T10:38:43Z</time>
      </trkpt>
      <trkpt lat="49.91857" lon="2.2273">
        <ele>17</ele>
        <time>2022-04-11T10:38:44Z</time>
      </trkpt>
      <trkpt lat="49.91857" lon="2.2273">
        <ele>17</ele>
        <time>2022-04-11T10:38:45Z</time>
      </trkpt>
      <trkpt lat="49.91857" lon="2.2273">
        <ele>17</ele>
        <time>2022-04-11T10:38:46Z</time>
      </trkpt>
      <trkpt lat="49.91857" lon="2.2273">
        <ele>17</ele>
        <time>2022-04-11T10:38:47Z</time>
      </trkpt>
      <trkpt lat="49.91857" lon="2.2273">
        <ele>17</ele>
        <time>2022-04-11T10:38:48Z</time>
      </trkpt>
      <trkpt lat="49.91857" lon="2.2273">
        <ele>17</ele>
        <time>2022-04-11T10:38:49Z</time>
      </trkpt>
      <trkpt lat="49.91857" lon="2.2273">
        <ele>17</ele>
        <time>2022-04-11T10:38:50Z</time>
      </trkpt>
      <trkpt lat="49.91857" lon="2.2273">
        <ele>17</ele>
        <time>2022-04-11T10:38:51Z</time>
      </trkpt>
      <trkpt lat="49.91857" lon="2.2273">
        <ele>17</ele>
        <time>2022-04-11T10:38:52Z</time>
      </trkpt>
      <trkpt lat="49.91857" lon="2.2273">
        <ele>17</ele>
        <time>2022-04-11T10:38:53Z</time>
      </trkpt>
      <trkpt lat="49.91857" lon="2.2273">
        <ele>17</ele>
        <time>2022-04-11T10:38:54Z</time>
      </trkpt>
      <trkpt lat="49.91857" lon="2.2273">
        <ele>17</ele>
        <time>2022-04-11T10:38:55Z</time>
      </trkpt>
      <trkpt lat="49.91857" lon="2.2273">
        <ele>17</ele>
        <time>2022-04-11T10:38:56Z</time>
      </trkpt>
      <trkpt lat="49.91857" lon="2.2273">
        <ele>17</ele>
        <time>2022-04-11T10:38:57Z</time>
      </trkpt>
      <trkpt lat="49.91857" lon="2.2273">
        <ele>17</ele>
        <time>2022-04-11T10:38:58Z</time>
      </trkpt>
      <trkpt lat="49.91857" lon="2.2273">
        <ele>17</ele>
        <time>2022-04-11T10:38:59Z</time>
      </trkpt>
      <trkpt lat="49.91857" lon="2.2273">
        <ele>17</ele>
        <time>2022-04-11T10:39:00Z</time>
      </trkpt>
      <trkpt lat="49.91857" lon="2.2273">
        <ele>17</ele>
        <time>2022-04-11T10:39:01Z</time>
      </trkpt>
      <trkpt lat="49.91857" lon="2.2273">
        <ele>17</ele>
        <time>2022-04-11T10:39:02Z</time>
      </trkpt>
      <trkpt lat="49.91857" lon="2.2273">
        <ele>17</ele>
        <time>2022-04-11T10:39:03Z</time>
      </trkpt>
      <trkpt lat="49.91857" lon="2.2273">
        <ele>17</ele>
        <time>2022-04-11T10:39:04Z</time>
      </trkpt>
      <trkpt lat="49.91857" lon="2.2273">
        <ele>17</ele>
        <time>2022-04-11T10:39:05Z</time>
      </trkpt>
      <trkpt lat="49.91857" lon="2.2273">
        <ele>17</ele>
        <time>2022-04-11T10:39:06Z</time>
      </trkpt>
      <trkpt lat="49.91857" lon="2.2273">
        <ele>17</ele>
        <time>2022-04-11T10:39:07Z</time>
      </trkpt>
      <trkpt lat="49.91857" lon="2.2273">
        <ele>17</ele>
        <time>2022-04-11T10:39:08Z</time>
      </trkpt>
      <trkpt lat="49.91857" lon="2.2273">
        <ele>17</ele>
        <time>2022-04-11T10:39:09Z</time>
      </trkpt>
      <trkpt lat="49.91857" lon="2.2273">
        <ele>17</ele>
        <time>2022-04-11T10:39:10Z</time>
      </trkpt>
      <trkpt lat="49.91857" lon="2.2273">
        <ele>17</ele>
        <time>2022-04-11T10:39:11Z</time>
      </trkpt>
      <trkpt lat="49.91857" lon="2.2273">
        <ele>17</ele>
        <time>2022-04-11T10:39:12Z</time>
      </trkpt>
      <trkpt lat="49.91857" lon="2.2273">
        <ele>17</ele>
        <time>2022-04-11T10:39:13Z</time>
      </trkpt>
      <trkpt lat="49.91857" lon="2.2273">
        <ele>17</ele>
        <time>2022-04-11T10:39:14Z</time>
      </trkpt>
      <trkpt lat="49.91857" lon="2.2273">
        <ele>17</ele>
        <time>2022-04-11T10:39:15Z</time>
      </trkpt>
      <trkpt lat="49.91857" lon="2.2273">
        <ele>17</ele>
        <time>2022-04-11T10:39:16Z</time>
      </trkpt>
      <trkpt lat="49.91857" lon="2.2273">
        <ele>17</ele>
        <time>2022-04-11T10:39:17Z</time>
      </trkpt>
      <trkpt lat="49.91857" lon="2.2273">
        <ele>17</ele>
        <time>2022-04-11T10:39:18Z</time>
      </trkpt>
      <trkpt lat="49.91857" lon="2.2273">
        <ele>17</ele>
        <time>2022-04-11T10:39:19Z</time>
      </trkpt>
      <trkpt lat="49.91857" lon="2.2273">
        <ele>17</ele>
        <time>2022-04-11T10:39:20Z</time>
      </trkpt>
      <trkpt lat="49.91857" lon="2.2273">
        <ele>17</ele>
        <time>2022-04-11T10:39:21Z</time>
      </trkpt>
      <trkpt lat="49.91857" lon="2.2273">
        <ele>17</ele>
        <time>2022-04-11T10:39:22Z</time>
      </trkpt>
      <trkpt lat="49.91857" lon="2.2273">
        <ele>17</ele>
        <time>2022-04-11T10:39:23Z</time>
      </trkpt>
      <trkpt lat="49.91857" lon="2.2273">
        <ele>17</ele>
        <time>2022-04-11T10:39:24Z</time>
      </trkpt>
      <trkpt lat="49.91857" lon="2.2273">
        <ele>17</ele>
        <time>2022-04-11T10:39:25Z</time>
      </trkpt>
      <trkpt lat="49.91857" lon="2.2273">
        <ele>17</ele>
        <time>2022-04-11T10:39:26Z</time>
      </trkpt>
      <trkpt lat="49.91857" lon="2.2273">
        <ele>17</ele>
        <time>2022-04-11T10:39:27Z</time>
      </trkpt>
      <trkpt lat="49.91857" lon="2.2273">
        <ele>17</ele>
        <time>2022-04-11T10:39:28Z</time>
      </trkpt>
      <trkpt lat="49.91857" lon="2.2273">
        <ele>17</ele>
        <time>2022-04-11T10:39:29Z</time>
      </trkpt>
      <trkpt lat="49.91857" lon="2.2273">
        <ele>17</ele>
        <time>2022-04-11T10:39:30Z</time>
      </trkpt>
      <trkpt lat="49.91857" lon="2.2273">
        <ele>17</ele>
        <time>2022-04-11T10:39:31Z</time>
      </trkpt>
      <trkpt lat="49.91857" lon="2.2273">
        <ele>17</ele>
        <time>2022-04-11T10:39:32Z</time>
      </trkpt>
      <trkpt lat="49.91857" lon="2.2273">
        <ele>17</ele>
        <time>2022-04-11T10:39:33Z</time>
      </trkpt>
      <trkpt lat="49.91857" lon="2.2273">
        <ele>17</ele>
        <time>2022-04-11T10:39:34Z</time>
      </trkpt>
      <trkpt lat="49.91857" lon="2.2273">
        <ele>17</ele>
        <time>2022-04-11T10:39:35Z</time>
      </trkpt>
      <trkpt lat="49.91857" lon="2.2273">
        <ele>17</ele>
        <time>2022-04-11T10:39:36Z</time>
      </trkpt>
      <trkpt lat="49.91857" lon="2.2273">
        <ele>17</ele>
        <time>2022-04-11T10:39:37Z</time>
      </trkpt>
      <trkpt lat="49.91857" lon="2.2273">
        <ele>17</ele>
        <time>2022-04-11T10:39:38Z</time>
      </trkpt>
      <trkpt lat="49.91857" lon="2.2273">
        <ele>17</ele>
        <time>2022-04-11T10:39:39Z</time>
      </trkpt>
      <trkpt lat="49.91857" lon="2.2273">
        <ele>17</ele>
        <time>2022-04-11T10:39:40Z</time>
      </trkpt>
      <trkpt lat="49.91857" lon="2.2273">
        <ele>17</ele>
        <time>2022-04-11T10:39:41Z</time>
      </trkpt>
      <trkpt lat="49.91857" lon="2.2273">
        <ele>17</ele>
        <time>2022-04-11T10:39:42Z</time>
      </trkpt>
      <trkpt lat="49.91857" lon="2.2273">
        <ele>17</ele>
        <time>2022-04-11T10:39:43Z</time>
      </trkpt>
      <trkpt lat="49.91857" lon="2.2273">
        <ele>17</ele>
        <time>2022-04-11T10:39:44Z</time>
      </trkpt>
      <trkpt lat="49.91857" lon="2.2273">
        <ele>17</ele>
        <time>2022-04-11T10:39:45Z</time>
      </trkpt>
      <trkpt lat="49.91857" lon="2.2273">
        <ele>17</ele>
        <time>2022-04-11T10:39:46Z</time>
      </trkpt>
      <trkpt lat="49.91857" lon="2.2273">
        <ele>17</ele>
        <time>2022-04-11T10:39:47Z</time>
      </trkpt>
      <trkpt lat="49.91857" lon="2.2273">
        <ele>17</ele>
        <time>2022-04-11T10:39:48Z</time>
      </trkpt>
      <trkpt lat="49.91857" lon="2.2273">
        <ele>17</ele>
        <time>2022-04-11T10:39:49Z</time>
      </trkpt>
      <trkpt lat="49.91857" lon="2.2273">
        <ele>17</ele>
        <time>2022-04-11T10:39:50Z</time>
      </trkpt>
      <trkpt lat="49.91857" lon="2.2273">
        <ele>17</ele>
        <time>2022-04-11T10:39:51Z</time>
      </trkpt>
      <trkpt lat="49.91857" lon="2.2273">
        <ele>17</ele>
        <time>2022-04-11T10:39:52Z</time>
      </trkpt>
      <trkpt lat="49.91857" lon="2.2273">
        <ele>17</ele>
        <time>2022-04-11T10:39:53Z</time>
      </trkpt>
      <trkpt lat="49.91857" lon="2.2273">
        <ele>17</ele>
        <time>2022-04-11T10:39:54Z</time>
      </trkpt>
      <trkpt lat="49.91857" lon="2.2273">
        <ele>17</ele>
        <time>2022-04-11T10:39:55Z</time>
      </trkpt>
      <trkpt lat="49.91857" lon="2.2273">
        <ele>17</ele>
        <time>2022-04-11T10:39:56Z</time>
      </trkpt>
      <trkpt lat="49.91857" lon="2.2273">
        <ele>17</ele>
        <time>2022-04-11T10:39:57Z</time>
      </trkpt>
      <trkpt lat="49.91857" lon="2.2273">
        <ele>17</ele>
        <time>2022-04-11T10:39:58Z</time>
      </trkpt>
      <trkpt lat="49.91857" lon="2.2273">
        <ele>17</ele>
        <time>2022-04-11T10:39:59Z</time>
      </trkpt>
      <trkpt lat="49.91857" lon="2.2273">
        <ele>17</ele>
        <time>2022-04-11T10:40:00Z</time>
      </trkpt>
      <trkpt lat="49.91857" lon="2.2273">
        <ele>17</ele>
        <time>2022-04-11T10:40:01Z</time>
      </trkpt>
      <trkpt lat="49.91857" lon="2.2273">
        <ele>17</ele>
        <time>2022-04-11T10:40:02Z</time>
      </trkpt>
      <trkpt lat="49.91857" lon="2.2273">
        <ele>17</ele>
        <time>2022-04-11T10:40:03Z</time>
      </trkpt>
      <trkpt lat="49.91857" lon="2.2273">
        <ele>17</ele>
        <time>2022-04-11T10:40:04Z</time>
      </trkpt>
      <trkpt lat="49.91857" lon="2.2273">
        <ele>17</ele>
        <time>2022-04-11T10:40:05Z</time>
      </trkpt>
      <trkpt lat="49.91857" lon="2.2273">
        <ele>17</ele>
        <time>2022-04-11T10:40:06Z</time>
      </trkpt>
      <trkpt lat="49.91857" lon="2.2273">
        <ele>17</ele>
        <time>2022-04-11T10:40:07Z</time>
      </trkpt>
      <trkpt lat="49.91857" lon="2.2273">
        <ele>17</ele>
        <time>2022-04-11T10:40:08Z</time>
      </trkpt>
      <trkpt lat="49.91857" lon="2.2273">
        <ele>17</ele>
        <time>2022-04-11T10:40:09Z</time>
      </trkpt>
      <trkpt lat="49.91857" lon="2.2273">
        <ele>17</ele>
        <time>2022-04-11T10:40:10Z</time>
      </trkpt>
      <trkpt lat="49.91857" lon="2.2273">
        <ele>17</ele>
        <time>2022-04-11T10:40:11Z</time>
      </trkpt>
      <trkpt lat="49.91857" lon="2.2273">
        <ele>17</ele>
        <time>2022-04-11T10:40:12Z</time>
      </trkpt>
      <trkpt lat="49.91857" lon="2.2273">
        <ele>17</ele>
        <time>2022-04-11T10:40:13Z</time>
      </trkpt>
      <trkpt lat="49.91857" lon="2.2273">
        <ele>17</ele>
        <time>2022-04-11T10:40:14Z</time>
      </trkpt>
      <trkpt lat="49.91857" lon="2.2273">
        <ele>17</ele>
        <time>2022-04-11T10:40:15Z</time>
      </trkpt>
      <trkpt lat="49.91857" lon="2.2273">
        <ele>17</ele>
        <time>2022-04-11T10:40:16Z</time>
      </trkpt>
      <trkpt lat="49.91857" lon="2.2273">
        <ele>17</ele>
        <time>2022-04-11T10:40:17Z</time>
      </trkpt>
      <trkpt lat="49.91857" lon="2.2273">
        <ele>17</ele>
        <time>2022-04-11T10:40:18Z</time>
      </trkpt>
      <trkpt lat="49.91857" lon="2.2273">
        <ele>17</ele>
        <time>2022-04-11T10:40:19Z</time>
      </trkpt>
      <trkpt lat="49.91857" lon="2.2273">
        <ele>17</ele>
        <time>2022-04-11T10:40:20Z</time>
      </trkpt>
      <trkpt lat="49.91857" lon="2.2273">
        <ele>17</ele>
        <time>2022-04-11T10:40:21Z</time>
      </trkpt>
      <trkpt lat="49.91857" lon="2.2273">
        <ele>17</ele>
        <time>2022-04-11T10:40:22Z</time>
      </trkpt>
      <trkpt lat="49.91857" lon="2.2273">
        <ele>17</ele>
        <time>2022-04-11T10:40:23Z</time>
      </trkpt>
      <trkpt lat="49.91857" lon="2.2273">
        <ele>17</ele>
        <time>2022-04-11T10:40:24Z</time>
      </trkpt>
      <trkpt lat="49.91857" lon="2.2273">
        <ele>17</ele>
        <time>2022-04-11T10:40:25Z</time>
      </trkpt>
      <trkpt lat="49.91857" lon="2.2273">
        <ele>17</ele>
        <time>2022-04-11T10:40:26Z</time>
      </trkpt>
      <trkpt lat="49.91857" lon="2.2273">
        <ele>17</ele>
        <time>2022-04-11T10:40:27Z</time>
      </trkpt>
      <trkpt lat="49.91857" lon="2.2273">
        <ele>17</ele>
        <time>2022-04-11T10:40:28Z</time>
      </trkpt>
      <trkpt lat="49.91857" lon="2.2273">
        <ele>17</ele>
        <time>2022-04-11T10:40:29Z</time>
      </trkpt>
      <trkpt lat="49.91857" lon="2.2273">
        <ele>17</ele>
        <time>2022-04-11T10:40:30Z</time>
      </trkpt>
      <trkpt lat="49.91857" lon="2.2273">
        <ele>17</ele>
        <time>2022-04-11T10:40:31Z</time>
      </trkpt>
      <trkpt lat="49.91857" lon="2.2273">
        <ele>17</ele>
        <time>2022-04-11T10:40:32Z</time>
      </trkpt>
      <trkpt lat="49.91857" lon="2.2273">
        <ele>17</ele>
        <time>2022-04-11T10:40:33Z</time>
      </trkpt>
      <trkpt lat="49.91857" lon="2.2273">
        <ele>17</ele>
        <time>2022-04-11T10:40:34Z</time>
      </trkpt>
      <trkpt lat="49.91857" lon="2.2273">
        <ele>17</ele>
        <time>2022-04-11T10:40:35Z</time>
      </trkpt>
      <trkpt lat="49.91857" lon="2.2273">
        <ele>17</ele>
        <time>2022-04-11T10:40:36Z</time>
      </trkpt>
      <trkpt lat="49.91857" lon="2.2273">
        <ele>17</ele>
        <time>2022-04-11T10:40:37Z</time>
      </trkpt>
      <trkpt lat="49.91857" lon="2.2273">
        <ele>17</ele>
        <time>2022-04-11T10:40:38Z</time>
      </trkpt>
      <trkpt lat="49.91857" lon="2.2273">
        <ele>17</ele>
        <time>2022-04-11T10:40:39Z</time>
      </trkpt>
      <trkpt lat="49.91857" lon="2.2273">
        <ele>17</ele>
        <time>2022-04-11T10:40:40Z</time>
      </trkpt>
      <trkpt lat="49.91857" lon="2.2273">
        <ele>17</ele>
        <time>2022-04-11T10:40:41Z</time>
      </trkpt>
      <trkpt lat="49.91857" lon="2.2273">
        <ele>17</ele>
        <time>2022-04-11T10:40:42Z</time>
      </trkpt>
      <trkpt lat="49.91857" lon="2.2273">
        <ele>17</ele>
        <time>2022-04-11T10:40:43Z</time>
      </trkpt>
      <trkpt lat="49.91857" lon="2.2273">
        <ele>17</ele>
        <time>2022-04-11T10:40:44Z</time>
      </trkpt>
      <trkpt lat="49.91857" lon="2.2273">
        <ele>17</ele>
        <time>2022-04-11T10:40:45Z</time>
      </trkpt>
      <trkpt lat="49.91857" lon="2.2273">
        <ele>17</ele>
        <time>2022-04-11T10:40:46Z</time>
      </trkpt>
      <trkpt lat="49.91857" lon="2.2273">
        <ele>17</ele>
        <time>2022-04-11T10:40:47Z</time>
      </trkpt>
      <trkpt lat="49.91857" lon="2.2273">
        <ele>17</ele>
        <time>2022-04-11T10:40:48Z</time>
      </trkpt>
      <trkpt lat="49.91857" lon="2.2273">
        <ele>17</ele>
        <time>2022-04-11T10:40:49Z</time>
      </trkpt>
      <trkpt lat="49.91857" lon="2.2273">
        <ele>17</ele>
        <time>2022-04-11T10:40:50Z</time>
      </trkpt>
      <trkpt lat="49.91857" lon="2.2273">
        <ele>17</ele>
        <time>2022-04-11T10:40:51Z</time>
      </trkpt>
      <trkpt lat="49.91857" lon="2.2273">
        <ele>17</ele>
        <time>2022-04-11T10:40:52Z</time>
      </trkpt>
      <trkpt lat="49.91857" lon="2.2273">
        <ele>17</ele>
        <time>2022-04-11T10:40:53Z</time>
      </trkpt>
      <trkpt lat="49.91857" lon="2.2273">
        <ele>17</ele>
        <time>2022-04-11T10:40:54Z</time>
      </trkpt>
      <trkpt lat="49.91857" lon="2.2273">
        <ele>17</ele>
        <time>2022-04-11T10:40:55Z</time>
      </trkpt>
      <trkpt lat="49.91857" lon="2.2273">
        <ele>17</ele>
        <time>2022-04-11T10:40:56Z</time>
      </trkpt>
      <trkpt lat="49.91857" lon="2.2273">
        <ele>17</ele>
        <time>2022-04-11T10:40:57Z</time>
      </trkpt>
      <trkpt lat="49.91857" lon="2.2273">
        <ele>17</ele>
        <time>2022-04-11T10:40:58Z</time>
      </trkpt>
      <trkpt lat="49.91857" lon="2.2273">
        <ele>17</ele>
        <time>2022-04-11T10:40:59Z</time>
      </trkpt>
      <trkpt lat="49.91857" lon="2.2273">
        <ele>17</ele>
        <time>2022-04-11T10:41:00Z</time>
      </trkpt>
      <trkpt lat="49.91857" lon="2.2273">
        <ele>17</ele>
        <time>2022-04-11T10:41:01Z</time>
      </trkpt>
      <trkpt lat="49.91857" lon="2.2273">
        <ele>17</ele>
        <time>2022-04-11T10:41:02Z</time>
      </trkpt>
      <trkpt lat="49.91857" lon="2.2273">
        <ele>17</ele>
        <time>2022-04-11T10:41:03Z</time>
      </trkpt>
      <trkpt lat="49.91857" lon="2.2273">
        <ele>17</ele>
        <time>2022-04-11T10:41:04Z</time>
      </trkpt>
      <trkpt lat="49.91857" lon="2.2273">
        <ele>17</ele>
        <time>2022-04-11T10:41:05Z</time>
      </trkpt>
      <trkpt lat="49.91857" lon="2.2273">
        <ele>17</ele>
        <time>2022-04-11T10:41:06Z</time>
      </trkpt>
      <trkpt lat="49.91857" lon="2.2273">
        <ele>17</ele>
        <time>2022-04-11T10:41:07Z</time>
      </trkpt>
      <trkpt lat="49.91857" lon="2.2273">
        <ele>17</ele>
        <time>2022-04-11T10:41:08Z</time>
      </trkpt>
      <trkpt lat="49.91857" lon="2.2273">
        <ele>17</ele>
        <time>2022-04-11T10:41:09Z</time>
      </trkpt>
      <trkpt lat="49.91857" lon="2.2273">
        <ele>17</ele>
        <time>2022-04-11T10:41:10Z</time>
      </trkpt>
      <trkpt lat="49.91857" lon="2.2273">
        <ele>17</ele>
        <time>2022-04-11T10:41:11Z</time>
      </trkpt>
      <trkpt lat="49.91857" lon="2.2273">
        <ele>17</ele>
        <time>2022-04-11T10:41:12Z</time>
      </trkpt>
      <trkpt lat="49.91857" lon="2.2273">
        <ele>17</ele>
        <time>2022-04-11T10:41:13Z</time>
      </trkpt>
      <trkpt lat="49.91857" lon="2.2273">
        <ele>17</ele>
        <time>2022-04-11T10:41:14Z</time>
      </trkpt>
      <trkpt lat="49.91857" lon="2.2273">
        <ele>17</ele>
        <time>2022-04-11T10:41:15Z</time>
      </trkpt>
      <trkpt lat="49.91857" lon="2.2273">
        <ele>17</ele>
        <time>2022-04-11T10:41:16Z</time>
      </trkpt>
      <trkpt lat="49.91857" lon="2.2273">
        <ele>17</ele>
        <time>2022-04-11T10:41:17Z</time>
      </trkpt>
      <trkpt lat="49.91857" lon="2.2273">
        <ele>17</ele>
        <time>2022-04-11T10:41:18Z</time>
      </trkpt>
      <trkpt lat="49.91857" lon="2.2273">
        <ele>17</ele>
        <time>2022-04-11T10:41:19Z</time>
      </trkpt>
      <trkpt lat="49.91857" lon="2.2273">
        <ele>17</ele>
        <time>2022-04-11T10:41:20Z</time>
      </trkpt>
      <trkpt lat="49.91857" lon="2.2273">
        <ele>17</ele>
        <time>2022-04-11T10:41:21Z</time>
      </trkpt>
      <trkpt lat="49.91857" lon="2.2273">
        <ele>17</ele>
        <time>2022-04-11T10:41:22Z</time>
      </trkpt>
      <trkpt lat="49.91857" lon="2.2273">
        <ele>17</ele>
        <time>2022-04-11T10:41:23Z</time>
      </trkpt>
      <trkpt lat="49.91857" lon="2.2273">
        <ele>17</ele>
        <time>2022-04-11T10:41:24Z</time>
      </trkpt>
      <trkpt lat="49.91857" lon="2.2273">
        <ele>17</ele>
        <time>2022-04-11T10:41:25Z</time>
      </trkpt>
      <trkpt lat="49.91857" lon="2.2273">
        <ele>17</ele>
        <time>2022-04-11T10:41:26Z</time>
      </trkpt>
      <trkpt lat="49.91857" lon="2.2273">
        <ele>17</ele>
        <time>2022-04-11T10:41:27Z</time>
      </trkpt>
      <trkpt lat="49.91857" lon="2.2273">
        <ele>17</ele>
        <time>2022-04-11T10:41:28Z</time>
      </trkpt>
      <trkpt lat="49.91857" lon="2.2273">
        <ele>17</ele>
        <time>2022-04-11T10:41:29Z</time>
      </trkpt>
      <trkpt lat="49.91857" lon="2.2273">
        <ele>17</ele>
        <time>2022-04-11T10:41:30Z</time>
      </trkpt>
      <trkpt lat="49.91857" lon="2.2273">
        <ele>17</ele>
        <time>2022-04-11T10:41:31Z</time>
      </trkpt>
      <trkpt lat="49.91857" lon="2.2273">
        <ele>17</ele>
        <time>2022-04-11T10:41:32Z</time>
      </trkpt>
      <trkpt lat="49.91857" lon="2.2273">
        <ele>17</ele>
        <time>2022-04-11T10:41:33Z</time>
      </trkpt>
      <trkpt lat="49.91857" lon="2.2273">
        <ele>17</ele>
        <time>2022-04-11T10:41:34Z</time>
      </trkpt>
      <trkpt lat="49.91857" lon="2.2273">
        <ele>17</ele>
        <time>2022-04-11T10:41:35Z</time>
      </trkpt>
      <trkpt lat="49.91857" lon="2.2273">
        <ele>17</ele>
        <time>2022-04-11T10:41:36Z</time>
      </trkpt>
      <trkpt lat="49.91857" lon="2.2273">
        <ele>17</ele>
        <time>2022-04-11T10:41:37Z</time>
      </trkpt>
      <trkpt lat="49.91857" lon="2.2273">
        <ele>17</ele>
        <time>2022-04-11T10:41:38Z</time>
      </trkpt>
      <trkpt lat="49.91857" lon="2.2273">
        <ele>17</ele>
        <time>2022-04-11T10:41:39Z</time>
      </trkpt>
      <trkpt lat="49.91857" lon="2.2273">
        <ele>17</ele>
        <time>2022-04-11T10:41:40Z</time>
      </trkpt>
      <trkpt lat="49.91857" lon="2.2273">
        <ele>17</ele>
        <time>2022-04-11T10:41:41Z</time>
      </trkpt>
      <trkpt lat="49.91857" lon="2.2273">
        <ele>17</ele>
        <time>2022-04-11T10:41:42Z</time>
      </trkpt>
      <trkpt lat="49.91857" lon="2.2273">
        <ele>17</ele>
        <time>2022-04-11T10:41:43Z</time>
      </trkpt>
      <trkpt lat="49.91857" lon="2.2273">
        <ele>17</ele>
        <time>2022-04-11T10:41:44Z</time>
      </trkpt>
      <trkpt lat="49.91857" lon="2.2273">
        <ele>17</ele>
        <time>2022-04-11T10:41:45Z</time>
      </trkpt>
      <trkpt lat="49.91857" lon="2.2273">
        <ele>17</ele>
        <time>2022-04-11T10:41:46Z</time>
      </trkpt>
      <trkpt lat="49.91857" lon="2.2273">
        <ele>17</ele>
        <time>2022-04-11T10:41:47Z</time>
      </trkpt>
      <trkpt lat="49.91857" lon="2.2273">
        <ele>17</ele>
        <time>2022-04-11T10:41:48Z</time>
      </trkpt>
      <trkpt lat="49.91857" lon="2.2273">
        <ele>17</ele>
        <time>2022-04-11T10:41:49Z</time>
      </trkpt>
      <trkpt lat="49.91857" lon="2.2273">
        <ele>17</ele>
        <time>2022-04-11T10:41:50Z</time>
      </trkpt>
      <trkpt lat="49.91857" lon="2.2273">
        <ele>17</ele>
        <time>2022-04-11T10:41:51Z</time>
      </trkpt>
      <trkpt lat="49.91857" lon="2.2273">
        <ele>17</ele>
        <time>2022-04-11T10:41:52Z</time>
      </trkpt>
      <trkpt lat="49.91857" lon="2.2273">
        <ele>17</ele>
        <time>2022-04-11T10:41:53Z</time>
      </trkpt>
      <trkpt lat="49.91857" lon="2.2273">
        <ele>17</ele>
        <time>2022-04-11T10:41:54Z</time>
      </trkpt>
      <trkpt lat="49.91857" lon="2.2273">
        <ele>17</ele>
        <time>2022-04-11T10:41:55Z</time>
      </trkpt>
      <trkpt lat="49.91857" lon="2.2273">
        <ele>17</ele>
        <time>2022-04-11T10:41:56Z</time>
      </trkpt>
      <trkpt lat="49.91857" lon="2.2273">
        <ele>17</ele>
        <time>2022-04-11T10:41:57Z</time>
      </trkpt>
      <trkpt lat="49.91857" lon="2.2273">
        <ele>17</ele>
        <time>2022-04-11T10:41:58Z</time>
      </trkpt>
      <trkpt lat="49.91857" lon="2.2273">
        <ele>17</ele>
        <time>2022-04-11T10:41:59Z</time>
      </trkpt>
      <trkpt lat="49.91857" lon="2.2273">
        <ele>17</ele>
        <time>2022-04-11T10:42:00Z</time>
      </trkpt>
      <trkpt lat="49.91857" lon="2.2273">
        <ele>17</ele>
        <time>2022-04-11T10:42:01Z</time>
      </trkpt>
      <trkpt lat="49.91857" lon="2.2273">
        <ele>17</ele>
        <time>2022-04-11T10:42:02Z</time>
      </trkpt>
      <trkpt lat="49.91857" lon="2.2273">
        <ele>17</ele>
        <time>2022-04-11T10:42:03Z</time>
      </trkpt>
      <trkpt lat="49.91857" lon="2.2273">
        <ele>17</ele>
        <time>2022-04-11T10:42:04Z</time>
      </trkpt>
      <trkpt lat="49.91857" lon="2.2273">
        <ele>17</ele>
        <time>2022-04-11T10:42:05Z</time>
      </trkpt>
      <trkpt lat="49.91857" lon="2.2273">
        <ele>17</ele>
        <time>2022-04-11T10:42:06Z</time>
      </trkpt>
      <trkpt lat="49.91857" lon="2.2273">
        <ele>17</ele>
        <time>2022-04-11T10:42:07Z</time>
      </trkpt>
      <trkpt lat="49.91857" lon="2.2273">
        <ele>17</ele>
        <time>2022-04-11T10:42:08Z</time>
      </trkpt>
      <trkpt lat="49.91857" lon="2.2273">
        <ele>17</ele>
        <time>2022-04-11T10:42:09Z</time>
      </trkpt>
      <trkpt lat="49.91857" lon="2.2273">
        <ele>17</ele>
        <time>2022-04-11T10:42:10Z</time>
      </trkpt>
      <trkpt lat="49.91857" lon="2.2273">
        <ele>17</ele>
        <time>2022-04-11T10:42:11Z</time>
      </trkpt>
      <trkpt lat="49.91857" lon="2.2273">
        <ele>17</ele>
        <time>2022-04-11T10:42:12Z</time>
      </trkpt>
      <trkpt lat="49.91857" lon="2.2273">
        <ele>17</ele>
        <time>2022-04-11T10:42:13Z</time>
      </trkpt>
      <trkpt lat="49.91857" lon="2.2273">
        <ele>17</ele>
        <time>2022-04-11T10:42:14Z</time>
      </trkpt>
      <trkpt lat="49.91857" lon="2.2273">
        <ele>17</ele>
        <time>2022-04-11T10:42:15Z</time>
      </trkpt>
      <trkpt lat="49.91857" lon="2.2273">
        <ele>17</ele>
        <time>2022-04-11T10:42:16Z</time>
      </trkpt>
      <trkpt lat="49.91857" lon="2.2273">
        <ele>17</ele>
        <time>2022-04-11T10:42:17Z</time>
      </trkpt>
      <trkpt lat="49.91857" lon="2.2273">
        <ele>17</ele>
        <time>2022-04-11T10:42:18Z</time>
      </trkpt>
      <trkpt lat="49.91857" lon="2.2273">
        <ele>17</ele>
        <time>2022-04-11T10:42:19Z</time>
      </trkpt>
      <trkpt lat="49.91857" lon="2.2273">
        <ele>17</ele>
        <time>2022-04-11T10:42:20Z</time>
      </trkpt>
      <trkpt lat="49.91857" lon="2.2273">
        <ele>17</ele>
        <time>2022-04-11T10:42:21Z</time>
      </trkpt>
      <trkpt lat="49.91857" lon="2.2273">
        <ele>17</ele>
        <time>2022-04-11T10:42:22Z</time>
      </trkpt>
      <trkpt lat="49.91857" lon="2.2273">
        <ele>17</ele>
        <time>2022-04-11T10:42:23Z</time>
      </trkpt>
      <trkpt lat="49.91857" lon="2.2273">
        <ele>17</ele>
        <time>2022-04-11T10:42:24Z</time>
      </trkpt>
      <trkpt lat="49.91857" lon="2.2273">
        <ele>17</ele>
        <time>2022-04-11T10:42:25Z</time>
      </trkpt>
      <trkpt lat="49.91857" lon="2.2273">
        <ele>17</ele>
        <time>2022-04-11T10:42:26Z</time>
      </trkpt>
      <trkpt lat="49.91857" lon="2.2273">
        <ele>17</ele>
        <time>2022-04-11T10:42:27Z</time>
      </trkpt>
      <trkpt lat="49.91857" lon="2.2273">
        <ele>17</ele>
        <time>2022-04-11T10:42:28Z</time>
      </trkpt>
      <trkpt lat="49.91857" lon="2.2273">
        <ele>17</ele>
        <time>2022-04-11T10:42:29Z</time>
      </trkpt>
      <trkpt lat="49.91857" lon="2.2273">
        <ele>17</ele>
        <time>2022-04-11T10:42:30Z</time>
      </trkpt>
      <trkpt lat="49.91857" lon="2.2273">
        <ele>17</ele>
        <time>2022-04-11T10:42:31Z</time>
      </trkpt>
      <trkpt lat="49.91857" lon="2.2273">
        <ele>17</ele>
        <time>2022-04-11T10:42:32Z</time>
      </trkpt>
      <trkpt lat="49.91857" lon="2.2273">
        <ele>17</ele>
        <time>2022-04-11T10:42:33Z</time>
      </trkpt>
      <trkpt lat="49.91857" lon="2.2273">
        <ele>17</ele>
        <time>2022-04-11T10:42:34Z</time>
      </trkpt>
      <trkpt lat="49.91857" lon="2.2273">
        <ele>17</ele>
        <time>2022-04-11T10:42:35Z</time>
      </trkpt>
      <trkpt lat="49.91857" lon="2.2273">
        <ele>17</ele>
        <time>2022-04-11T10:42:36Z</time>
      </trkpt>
      <trkpt lat="49.91857" lon="2.2273">
        <ele>17</ele>
        <time>2022-04-11T10:42:37Z</time>
      </trkpt>
      <trkpt lat="49.91857" lon="2.2273">
        <ele>17</ele>
        <time>2022-04-11T10:42:38Z</time>
      </trkpt>
      <trkpt lat="49.91857" lon="2.2273">
        <ele>17</ele>
        <time>2022-04-11T10:42:39Z</time>
      </trkpt>
      <trkpt lat="49.91857" lon="2.2273">
        <ele>17</ele>
        <time>2022-04-11T10:42:40Z</time>
      </trkpt>
      <trkpt lat="49.91857" lon="2.2273">
        <ele>17</ele>
        <time>2022-04-11T10:42:41Z</time>
      </trkpt>
      <trkpt lat="49.91857" lon="2.2273">
        <ele>17</ele>
        <time>2022-04-11T10:42:42Z</time>
      </trkpt>
      <trkpt lat="49.91857" lon="2.2273">
        <ele>17</ele>
        <time>2022-04-11T10:42:43Z</time>
      </trkpt>
      <trkpt lat="49.91857" lon="2.2273">
        <ele>17</ele>
        <time>2022-04-11T10:42:44Z</time>
      </trkpt>
      <trkpt lat="49.91857" lon="2.2273">
        <ele>17</ele>
        <time>2022-04-11T10:42:45Z</time>
      </trkpt>
      <trkpt lat="49.91857" lon="2.2273">
        <ele>17</ele>
        <time>2022-04-11T10:42:46Z</time>
      </trkpt>
      <trkpt lat="49.91857" lon="2.2273">
        <ele>17</ele>
        <time>2022-04-11T10:42:47Z</time>
      </trkpt>
      <trkpt lat="49.91857" lon="2.2273">
        <ele>17</ele>
        <time>2022-04-11T10:42:48Z</time>
      </trkpt>
      <trkpt lat="49.91857" lon="2.2273">
        <ele>17</ele>
        <time>2022-04-11T10:42:49Z</time>
      </trkpt>
      <trkpt lat="49.91857" lon="2.2273">
        <ele>17</ele>
        <time>2022-04-11T10:42:50Z</time>
      </trkpt>
      <trkpt lat="49.91857" lon="2.2273">
        <ele>17</ele>
        <time>2022-04-11T10:42:51Z</time>
      </trkpt>
      <trkpt lat="49.91857" lon="2.2273">
        <ele>17</ele>
        <time>2022-04-11T10:42:52Z</time>
      </trkpt>
      <trkpt lat="49.91857" lon="2.2273">
        <ele>17</ele>
        <time>2022-04-11T10:42:53Z</time>
      </trkpt>
      <trkpt lat="49.91857" lon="2.2273">
        <ele>17</ele>
        <time>2022-04-11T10:42:54Z</time>
      </trkpt>
      <trkpt lat="49.91857" lon="2.2273">
        <ele>17</ele>
        <time>2022-04-11T10:42:55Z</time>
      </trkpt>
      <trkpt lat="49.91857" lon="2.2273">
        <ele>17</ele>
        <time>2022-04-11T10:42:56Z</time>
      </trkpt>
      <trkpt lat="49.91857" lon="2.2273">
        <ele>17</ele>
        <time>2022-04-11T10:42:57Z</time>
      </trkpt>
      <trkpt lat="49.91857" lon="2.2273">
        <ele>17</ele>
        <time>2022-04-11T10:42:58Z</time>
      </trkpt>
      <trkpt lat="49.91857" lon="2.2273">
        <ele>17</ele>
        <time>2022-04-11T10:42:59Z</time>
      </trkpt>
      <trkpt lat="49.91857" lon="2.2273">
        <ele>17</ele>
        <time>2022-04-11T10:43:00Z</time>
      </trkpt>
      <trkpt lat="49.91857" lon="2.2273">
        <ele>17</ele>
        <time>2022-04-11T10:43:01Z</time>
      </trkpt>
      <trkpt lat="49.91857" lon="2.2273">
        <ele>17</ele>
        <time>2022-04-11T10:43:02Z</time>
      </trkpt>
      <trkpt lat="49.91857" lon="2.2273">
        <ele>17</ele>
        <time>2022-04-11T10:43:03Z</time>
      </trkpt>
      <trkpt lat="49.91857" lon="2.2273">
        <ele>17</ele>
        <time>2022-04-11T10:43:04Z</time>
      </trkpt>
      <trkpt lat="49.91857" lon="2.2273">
        <ele>17</ele>
        <time>2022-04-11T10:43:05Z</time>
      </trkpt>
      <trkpt lat="49.91857" lon="2.2273">
        <ele>17</ele>
        <time>2022-04-11T10:43:06Z</time>
      </trkpt>
      <trkpt lat="49.91857" lon="2.2273">
        <ele>17</ele>
        <time>2022-04-11T10:43:07Z</time>
      </trkpt>
      <trkpt lat="49.91857" lon="2.2273">
        <ele>17</ele>
        <time>2022-04-11T10:43:08Z</time>
      </trkpt>
      <trkpt lat="49.91857" lon="2.2273">
        <ele>17</ele>
        <time>2022-04-11T10:43:09Z</time>
      </trkpt>
      <trkpt lat="49.91857" lon="2.2273">
        <ele>17</ele>
        <time>2022-04-11T10:43:10Z</time>
      </trkpt>
      <trkpt lat="49.91857" lon="2.2273">
        <ele>17</ele>
        <time>2022-04-11T10:43:11Z</time>
      </trkpt>
      <trkpt lat="49.91857" lon="2.2273">
        <ele>17</ele>
        <time>2022-04-11T10:43:12Z</time>
      </trkpt>
      <trkpt lat="49.91857" lon="2.2273">
        <ele>17</ele>
        <time>2022-04-11T10:43:13Z</time>
      </trkpt>
      <trkpt lat="49.91857" lon="2.2273">
        <ele>17</ele>
        <time>2022-04-11T10:43:14Z</time>
      </trkpt>
      <trkpt lat="49.91857" lon="2.2273">
        <ele>17</ele>
        <time>2022-04-11T10:43:15Z</time>
      </trkpt>
      <trkpt lat="49.91857" lon="2.2273">
        <ele>17</ele>
        <time>2022-04-11T10:43:16Z</time>
      </trkpt>
      <trkpt lat="49.91857" lon="2.2273">
        <ele>17</ele>
        <time>2022-04-11T10:43:17Z</time>
      </trkpt>
      <trkpt lat="49.91857" lon="2.2273">
        <ele>17</ele>
        <time>2022-04-11T10:43:18Z</time>
      </trkpt>
      <trkpt lat="49.91857" lon="2.2273">
        <ele>17</ele>
        <time>2022-04-11T10:43:19Z</time>
      </trkpt>
      <trkpt lat="49.91857" lon="2.2273">
        <ele>17</ele>
        <time>2022-04-11T10:43:20Z</time>
      </trkpt>
      <trkpt lat="49.91857" lon="2.2273">
        <ele>17</ele>
        <time>2022-04-11T10:43:21Z</time>
      </trkpt>
      <trkpt lat="49.91857" lon="2.2273">
        <ele>17</ele>
        <time>2022-04-11T10:43:22Z</time>
      </trkpt>
      <trkpt lat="49.91857" lon="2.2273">
        <ele>17</ele>
        <time>2022-04-11T10:43:23Z</time>
      </trkpt>
      <trkpt lat="49.91857" lon="2.2273">
        <ele>17</ele>
        <time>2022-04-11T10:43:24Z</time>
      </trkpt>
      <trkpt lat="49.91857" lon="2.2273">
        <ele>17</ele>
        <time>2022-04-11T10:43:25Z</time>
      </trkpt>
      <trkpt lat="49.91857" lon="2.2273">
        <ele>17</ele>
        <time>2022-04-11T10:43:26Z</time>
      </trkpt>
      <trkpt lat="49.91857" lon="2.2273">
        <ele>17</ele>
        <time>2022-04-11T10:43:27Z</time>
      </trkpt>
      <trkpt lat="49.91857" lon="2.2273">
        <ele>17</ele>
        <time>2022-04-11T10:43:28Z</time>
      </trkpt>
      <trkpt lat="49.91857" lon="2.2273">
        <ele>17</ele>
        <time>2022-04-11T10:43:29Z</time>
      </trkpt>
      <trkpt lat="49.91857" lon="2.2273">
        <ele>17</ele>
        <time>2022-04-11T10:43:30Z</time>
      </trkpt>
      <trkpt lat="49.91857" lon="2.2273">
        <ele>17</ele>
        <time>2022-04-11T10:43:31Z</time>
      </trkpt>
      <trkpt lat="49.91857" lon="2.2273">
        <ele>17</ele>
        <time>2022-04-11T10:43:32Z</time>
      </trkpt>
      <trkpt lat="49.91857" lon="2.2273">
        <ele>17</ele>
        <time>2022-04-11T10:43:33Z</time>
      </trkpt>
      <trkpt lat="49.91857" lon="2.2273">
        <ele>17</ele>
        <time>2022-04-11T10:43:34Z</time>
      </trkpt>
      <trkpt lat="49.91857" lon="2.2273">
        <ele>17</ele>
        <time>2022-04-11T10:43:35Z</time>
      </trkpt>
      <trkpt lat="49.91857" lon="2.2273">
        <ele>17</ele>
        <time>2022-04-11T10:43:36Z</time>
      </trkpt>
      <trkpt lat="49.91857" lon="2.2273">
        <ele>17</ele>
        <time>2022-04-11T10:43:37Z</time>
      </trkpt>
      <trkpt lat="49.91857" lon="2.2273">
        <ele>17</ele>
        <time>2022-04-11T10:43:38Z</time>
      </trkpt>
      <trkpt lat="49.91857" lon="2.2273">
        <ele>17</ele>
        <time>2022-04-11T10:43:39Z</time>
      </trkpt>
      <trkpt lat="49.91857" lon="2.2273">
        <ele>17</ele>
        <time>2022-04-11T10:43:40Z</time>
      </trkpt>
      <trkpt lat="49.91857" lon="2.2273">
        <ele>17</ele>
        <time>2022-04-11T10:43:41Z</time>
      </trkpt>
      <trkpt lat="49.91857" lon="2.2273">
        <ele>17</ele>
        <time>2022-04-11T10:43:42Z</time>
      </trkpt>
      <trkpt lat="49.91857" lon="2.2273">
        <ele>17</ele>
        <time>2022-04-11T10:43:43Z</time>
      </trkpt>
      <trkpt lat="49.91857" lon="2.2273">
        <ele>17</ele>
        <time>2022-04-11T10:43:44Z</time>
      </trkpt>
      <trkpt lat="49.91857" lon="2.2273">
        <ele>17</ele>
        <time>2022-04-11T10:43:45Z</time>
      </trkpt>
      <trkpt lat="49.91857" lon="2.2273">
        <ele>17</ele>
        <time>2022-04-11T10:43:46Z</time>
      </trkpt>
      <trkpt lat="49.91857" lon="2.2273">
        <ele>17</ele>
        <time>2022-04-11T10:43:47Z</time>
      </trkpt>
      <trkpt lat="49.91857" lon="2.2273">
        <ele>17</ele>
        <time>2022-04-11T10:43:48Z</time>
      </trkpt>
      <trkpt lat="49.91857" lon="2.2273">
        <ele>17</ele>
        <time>2022-04-11T10:43:49Z</time>
      </trkpt>
      <trkpt lat="49.91857" lon="2.2273">
        <ele>17</ele>
        <time>2022-04-11T10:43:50Z</time>
      </trkpt>
      <trkpt lat="49.91857" lon="2.2273">
        <ele>17</ele>
        <time>2022-04-11T10:43:51Z</time>
      </trkpt>
      <trkpt lat="49.91857" lon="2.2273">
        <ele>17</ele>
        <time>2022-04-11T10:43:52Z</time>
      </trkpt>
      <trkpt lat="49.91857" lon="2.2273">
        <ele>17</ele>
        <time>2022-04-11T10:43:53Z</time>
      </trkpt>
      <trkpt lat="49.91857" lon="2.2273">
        <ele>17</ele>
        <time>2022-04-11T10:43:54Z</time>
      </trkpt>
      <trkpt lat="49.91857" lon="2.2273">
        <ele>17</ele>
        <time>2022-04-11T10:43:55Z</time>
      </trkpt>
      <trkpt lat="49.91857" lon="2.2273">
        <ele>17</ele>
        <time>2022-04-11T10:43:56Z</time>
      </trkpt>
      <trkpt lat="49.91857" lon="2.2273">
        <ele>17</ele>
        <time>2022-04-11T10:43:57Z</time>
      </trkpt>
      <trkpt lat="49.91857" lon="2.2273">
        <ele>17</ele>
        <time>2022-04-11T10:43:58Z</time>
      </trkpt>
      <trkpt lat="49.91857" lon="2.2273">
        <ele>17</ele>
        <time>2022-04-11T10:43:59Z</time>
      </trkpt>
      <trkpt lat="49.91857" lon="2.2273">
        <ele>17</ele>
        <time>2022-04-11T10:44:00Z</time>
      </trkpt>
      <trkpt lat="49.91857" lon="2.2273">
        <ele>17</ele>
        <time>2022-04-11T10:44:01Z</time>
      </trkpt>
      <trkpt lat="49.91857" lon="2.2273">
        <ele>17</ele>
        <time>2022-04-11T10:44:02Z</time>
      </trkpt>
      <trkpt lat="49.91857" lon="2.2273">
        <ele>17</ele>
        <time>2022-04-11T10:44:03Z</time>
      </trkpt>
      <trkpt lat="49.91857" lon="2.2273">
        <ele>17</ele>
        <time>2022-04-11T10:44:04Z</time>
      </trkpt>
      <trkpt lat="49.91857" lon="2.2273">
        <ele>17</ele>
        <time>2022-04-11T10:44:05Z</time>
      </trkpt>
      <trkpt lat="49.91857" lon="2.2273">
        <ele>17</ele>
        <time>2022-04-11T10:44:06Z</time>
      </trkpt>
      <trkpt lat="49.91857" lon="2.2273">
        <ele>17</ele>
        <time>2022-04-11T10:44:07Z</time>
      </trkpt>
      <trkpt lat="49.91857" lon="2.2273">
        <ele>17</ele>
        <time>2022-04-11T10:44:08Z</time>
      </trkpt>
      <trkpt lat="49.91857" lon="2.2273">
        <ele>17</ele>
        <time>2022-04-11T10:44:09Z</time>
      </trkpt>
      <trkpt lat="49.91857" lon="2.2273">
        <ele>17</ele>
        <time>2022-04-11T10:44:10Z</time>
      </trkpt>
      <trkpt lat="49.91857" lon="2.2273">
        <ele>17</ele>
        <time>2022-04-11T10:44:11Z</time>
      </trkpt>
      <trkpt lat="49.91857" lon="2.2273">
        <ele>17</ele>
        <time>2022-04-11T10:44:12Z</time>
      </trkpt>
      <trkpt lat="49.91857" lon="2.2273">
        <ele>17</ele>
        <time>2022-04-11T10:44:13Z</time>
      </trkpt>
      <trkpt lat="49.91857" lon="2.2273">
        <ele>17</ele>
        <time>2022-04-11T10:44:14Z</time>
      </trkpt>
      <trkpt lat="49.91857" lon="2.2273">
        <ele>17</ele>
        <time>2022-04-11T10:44:15Z</time>
      </trkpt>
      <trkpt lat="49.91857" lon="2.2273">
        <ele>17</ele>
        <time>2022-04-11T10:44:16Z</time>
      </trkpt>
      <trkpt lat="49.91857" lon="2.2273">
        <ele>17</ele>
        <time>2022-04-11T10:44:17Z</time>
      </trkpt>
      <trkpt lat="49.91857" lon="2.2273">
        <ele>17</ele>
        <time>2022-04-11T10:44:18Z</time>
      </trkpt>
      <trkpt lat="49.91857" lon="2.2273">
        <ele>17</ele>
        <time>2022-04-11T10:44:19Z</time>
      </trkpt>
      <trkpt lat="49.91857" lon="2.2273">
        <ele>17</ele>
        <time>2022-04-11T10:44:20Z</time>
      </trkpt>
      <trkpt lat="49.91857" lon="2.2273">
        <ele>17</ele>
        <time>2022-04-11T10:44:21Z</time>
      </trkpt>
      <trkpt lat="49.91857" lon="2.2273">
        <ele>17</ele>
        <time>2022-04-11T10:44:22Z</time>
      </trkpt>
      <trkpt lat="49.91857" lon="2.2273">
        <ele>17</ele>
        <time>2022-04-11T10:44:23Z</time>
      </trkpt>
      <trkpt lat="49.91857" lon="2.2273">
        <ele>17</ele>
        <time>2022-04-11T10:44:24Z</time>
      </trkpt>
      <trkpt lat="49.91857" lon="2.2273">
        <ele>17</ele>
        <time>2022-04-11T10:44:25Z</time>
      </trkpt>
      <trkpt lat="49.91857" lon="2.2273">
        <ele>17</ele>
        <time>2022-04-11T10:44:26Z</time>
      </trkpt>
      <trkpt lat="49.91857" lon="2.2273">
        <ele>17</ele>
        <time>2022-04-11T10:44:27Z</time>
      </trkpt>
      <trkpt lat="49.91857" lon="2.2273">
        <ele>17</ele>
        <time>2022-04-11T10:44:28Z</time>
      </trkpt>
      <trkpt lat="49.91857" lon="2.2273">
        <ele>17</ele>
        <time>2022-04-11T10:44:29Z</time>
      </trkpt>
      <trkpt lat="49.91857" lon="2.2273">
        <ele>17</ele>
        <time>2022-04-11T10:44:30Z</time>
      </trkpt>
      <trkpt lat="49.91857" lon="2.2273">
        <ele>17</ele>
        <time>2022-04-11T10:44:31Z</time>
      </trkpt>
      <trkpt lat="49.91857" lon="2.2273">
        <ele>17</ele>
        <time>2022-04-11T10:44:32Z</time>
      </trkpt>
      <trkpt lat="49.91857" lon="2.2273">
        <ele>17</ele>
        <time>2022-04-11T10:44:33Z</time>
      </trkpt>
      <trkpt lat="49.91857" lon="2.2273">
        <ele>17</ele>
        <time>2022-04-11T10:44:34Z</time>
      </trkpt>
      <trkpt lat="49.91857" lon="2.2273">
        <ele>17</ele>
        <time>2022-04-11T10:44:35Z</time>
      </trkpt>
      <trkpt lat="49.91857" lon="2.2273">
        <ele>17</ele>
        <time>2022-04-11T10:44:36Z</time>
      </trkpt>
      <trkpt lat="49.91857" lon="2.2273">
        <ele>17</ele>
        <time>2022-04-11T10:44:37Z</time>
      </trkpt>
      <trkpt lat="49.91857" lon="2.2273">
        <ele>17</ele>
        <time>2022-04-11T10:44:38Z</time>
      </trkpt>
      <trkpt lat="49.91857" lon="2.2273">
        <ele>17</ele>
        <time>2022-04-11T10:44:39Z</time>
      </trkpt>
      <trkpt lat="49.91857" lon="2.2273">
        <ele>17</ele>
        <time>2022-04-11T10:44:40Z</time>
      </trkpt>
      <trkpt lat="49.91857" lon="2.2273">
        <ele>17</ele>
        <time>2022-04-11T10:44:41Z</time>
      </trkpt>
      <trkpt lat="49.91857" lon="2.2273">
        <ele>17</ele>
        <time>2022-04-11T10:44:42Z</time>
      </trkpt>
      <trkpt lat="49.91857" lon="2.2273">
        <ele>17</ele>
        <time>2022-04-11T10:44:43Z</time>
      </trkpt>
      <trkpt lat="49.91857" lon="2.2273">
        <ele>17</ele>
        <time>2022-04-11T10:44:44Z</time>
      </trkpt>
      <trkpt lat="49.91857" lon="2.2273">
        <ele>17</ele>
        <time>2022-04-11T10:44:45Z</time>
      </trkpt>
      <trkpt lat="49.91857" lon="2.2273">
        <ele>17</ele>
        <time>2022-04-11T10:44:46Z</time>
      </trkpt>
      <trkpt lat="49.91857" lon="2.2273">
        <ele>17</ele>
        <time>2022-04-11T10:44:47Z</time>
      </trkpt>
      <trkpt lat="49.91857" lon="2.2273">
        <ele>17</ele>
        <time>2022-04-11T10:44:48Z</time>
      </trkpt>
      <trkpt lat="49.91857" lon="2.2273">
        <ele>17</ele>
        <time>2022-04-11T10:44:49Z</time>
      </trkpt>
      <trkpt lat="49.91857" lon="2.2273">
        <ele>17</ele>
        <time>2022-04-11T10:44:50Z</time>
      </trkpt>
      <trkpt lat="49.91857" lon="2.2273">
        <ele>17</ele>
        <time>2022-04-11T10:44:51Z</time>
      </trkpt>
      <trkpt lat="49.91857" lon="2.2273">
        <ele>17</ele>
        <time>2022-04-11T10:44:52Z</time>
      </trkpt>
      <trkpt lat="49.91857" lon="2.2273">
        <ele>17</ele>
        <time>2022-04-11T10:44:53Z</time>
      </trkpt>
      <trkpt lat="49.91857" lon="2.2273">
        <ele>17</ele>
        <time>2022-04-11T10:44:54Z</time>
      </trkpt>
      <trkpt lat="49.91857" lon="2.2273">
        <ele>17</ele>
        <time>2022-04-11T10:44:55Z</time>
      </trkpt>
      <trkpt lat="49.91857" lon="2.2273">
        <ele>17</ele>
        <time>2022-04-11T10:44:56Z</time>
      </trkpt>
      <trkpt lat="49.91857" lon="2.2273">
        <ele>17</ele>
        <time>2022-04-11T10:44:57Z</time>
      </trkpt>
      <trkpt lat="49.91857" lon="2.2273">
        <ele>17</ele>
        <time>2022-04-11T10:44:58Z</time>
      </trkpt>
      <trkpt lat="49.91857" lon="2.2273">
        <ele>17</ele>
        <time>2022-04-11T10:44:59Z</time>
      </trkpt>
      <trkpt lat="49.91857" lon="2.2273">
        <ele>17</ele>
        <time>2022-04-11T10:45:00Z</time>
      </trkpt>
      <trkpt lat="49.91857" lon="2.2273">
        <ele>17</ele>
        <time>2022-04-11T10:45:01Z</time>
      </trkpt>
      <trkpt lat="49.91857" lon="2.2273">
        <ele>17</ele>
        <time>2022-04-11T10:45:02Z</time>
      </trkpt>
      <trkpt lat="49.91857" lon="2.2273">
        <ele>17</ele>
        <time>2022-04-11T10:45:03Z</time>
      </trkpt>
      <trkpt lat="49.91857" lon="2.2273">
        <ele>17</ele>
        <time>2022-04-11T10:45:04Z</time>
      </trkpt>
      <trkpt lat="49.91857" lon="2.2273">
        <ele>17</ele>
        <time>2022-04-11T10:45:05Z</time>
      </trkpt>
      <trkpt lat="49.91857" lon="2.2273">
        <ele>17</ele>
        <time>2022-04-11T10:45:06Z</time>
      </trkpt>
      <trkpt lat="49.91857" lon="2.2273">
        <ele>17</ele>
        <time>2022-04-11T10:45:07Z</time>
      </trkpt>
      <trkpt lat="49.91857" lon="2.2273">
        <ele>17</ele>
        <time>2022-04-11T10:45:08Z</time>
      </trkpt>
      <trkpt lat="49.91857" lon="2.2273">
        <ele>17</ele>
        <time>2022-04-11T10:45:09Z</time>
      </trkpt>
      <trkpt lat="49.91857" lon="2.2273">
        <ele>17</ele>
        <time>2022-04-11T10:45:10Z</time>
      </trkpt>
      <trkpt lat="49.91857" lon="2.2273">
        <ele>17</ele>
        <time>2022-04-11T10:45:11Z</time>
      </trkpt>
      <trkpt lat="49.91857" lon="2.2273">
        <ele>17</ele>
        <time>2022-04-11T10:45:12Z</time>
      </trkpt>
      <trkpt lat="49.91857" lon="2.2273">
        <ele>17</ele>
        <time>2022-04-11T10:45:13Z</time>
      </trkpt>
      <trkpt lat="49.91857" lon="2.2273">
        <ele>17</ele>
        <time>2022-04-11T10:45:14Z</time>
      </trkpt>
      <trkpt lat="49.91857" lon="2.2273">
        <ele>17</ele>
        <time>2022-04-11T10:45:15Z</time>
      </trkpt>
      <trkpt lat="49.91857" lon="2.2273">
        <ele>17</ele>
        <time>2022-04-11T10:45:16Z</time>
      </trkpt>
      <trkpt lat="49.91857" lon="2.2273">
        <ele>17</ele>
        <time>2022-04-11T10:45:17Z</time>
      </trkpt>
      <trkpt lat="49.91857" lon="2.2273">
        <ele>17</ele>
        <time>2022-04-11T10:45:18Z</time>
      </trkpt>
      <trkpt lat="49.91857" lon="2.2273">
        <ele>17</ele>
        <time>2022-04-11T10:45:19Z</time>
      </trkpt>
      <trkpt lat="49.91857" lon="2.2273">
        <ele>17</ele>
        <time>2022-04-11T10:45:20Z</time>
      </trkpt>
      <trkpt lat="49.91857" lon="2.2273">
        <ele>17</ele>
        <time>2022-04-11T10:45:21Z</time>
      </trkpt>
      <trkpt lat="49.91857" lon="2.2273">
        <ele>17</ele>
        <time>2022-04-11T10:45:22Z</time>
      </trkpt>
      <trkpt lat="49.91857" lon="2.2273">
        <ele>17</ele>
        <time>2022-04-11T10:45:23Z</time>
      </trkpt>
      <trkpt lat="49.91857" lon="2.2273">
        <ele>17</ele>
        <time>2022-04-11T10:45:24Z</time>
      </trkpt>
      <trkpt lat="49.91857" lon="2.2273">
        <ele>17</ele>
        <time>2022-04-11T10:45:25Z</time>
      </trkpt>
      <trkpt lat="49.91857" lon="2.2273">
        <ele>17</ele>
        <time>2022-04-11T10:45:26Z</time>
      </trkpt>
      <trkpt lat="49.91857" lon="2.2273">
        <ele>17</ele>
        <time>2022-04-11T10:45:27Z</time>
      </trkpt>
      <trkpt lat="49.91857" lon="2.2273">
        <ele>17</ele>
        <time>2022-04-11T10:45:28Z</time>
      </trkpt>
      <trkpt lat="49.91857" lon="2.2273">
        <ele>17</ele>
        <time>2022-04-11T10:45:29Z</time>
      </trkpt>
      <trkpt lat="49.91857" lon="2.2273">
        <ele>17</ele>
        <time>2022-04-11T10:45:30Z</time>
      </trkpt>
      <trkpt lat="49.91857" lon="2.2273">
        <ele>17</ele>
        <time>2022-04-11T10:45:31Z</time>
      </trkpt>
      <trkpt lat="49.91857" lon="2.2273">
        <ele>17</ele>
        <time>2022-04-11T10:45:32Z</time>
      </trkpt>
      <trkpt lat="49.91857" lon="2.2273">
        <ele>17</ele>
        <time>2022-04-11T10:45:33Z</time>
      </trkpt>
      <trkpt lat="49.91857" lon="2.2273">
        <ele>17</ele>
        <time>2022-04-11T10:45:34Z</time>
      </trkpt>
      <trkpt lat="49.91857" lon="2.2273">
        <ele>17</ele>
        <time>2022-04-11T10:45:35Z</time>
      </trkpt>
      <trkpt lat="49.91857" lon="2.2273">
        <ele>17</ele>
        <time>2022-04-11T10:45:36Z</time>
      </trkpt>
      <trkpt lat="49.91857" lon="2.2273">
        <ele>17</ele>
        <time>2022-04-11T10:45:37Z</time>
      </trkpt>
      <trkpt lat="49.91857" lon="2.2273">
        <ele>17</ele>
        <time>2022-04-11T10:45:38Z</time>
      </trkpt>
      <trkpt lat="49.91857" lon="2.2273">
        <ele>17</ele>
        <time>2022-04-11T10:45:39Z</time>
      </trkpt>
      <trkpt lat="49.91857" lon="2.2273">
        <ele>17</ele>
        <time>2022-04-11T10:45:40Z</time>
      </trkpt>
      <trkpt lat="49.91857" lon="2.2273">
        <ele>17</ele>
        <time>2022-04-11T10:45:41Z</time>
      </trkpt>
      <trkpt lat="49.91857" lon="2.2273">
        <ele>17</ele>
        <time>2022-04-11T10:45:42Z</time>
      </trkpt>
      <trkpt lat="49.91857" lon="2.2273">
        <ele>17</ele>
        <time>2022-04-11T10:45:43Z</time>
      </trkpt>
      <trkpt lat="49.91857" lon="2.2273">
        <ele>17</ele>
        <time>2022-04-11T10:45:44Z</time>
      </trkpt>
      <trkpt lat="49.91857" lon="2.2273">
        <ele>17</ele>
        <time>2022-04-11T10:45:45Z</time>
      </trkpt>
      <trkpt lat="49.91857" lon="2.2273">
        <ele>17</ele>
        <time>2022-04-11T10:45:46Z</time>
      </trkpt>
      <trkpt lat="49.91857" lon="2.2273">
        <ele>17</ele>
        <time>2022-04-11T10:45:47Z</time>
      </trkpt>
      <trkpt lat="49.91857" lon="2.2273">
        <ele>17</ele>
        <time>2022-04-11T10:45:48Z</time>
      </trkpt>
      <trkpt lat="49.91857" lon="2.2273">
        <ele>17</ele>
        <time>2022-04-11T10:45:49Z</time>
      </trkpt>
      <trkpt lat="49.91857" lon="2.2273">
        <ele>17</ele>
        <time>2022-04-11T10:45:50Z</time>
      </trkpt>
      <trkpt lat="49.91857" lon="2.2273">
        <ele>17</ele>
        <time>2022-04-11T10:45:51Z</time>
      </trkpt>
      <trkpt lat="49.91857" lon="2.2273">
        <ele>17</ele>
        <time>2022-04-11T10:45:52Z</time>
      </trkpt>
      <trkpt lat="49.91857" lon="2.2273">
        <ele>17</ele>
        <time>2022-04-11T10:45:53Z</time>
      </trkpt>
      <trkpt lat="49.91857" lon="2.2273">
        <ele>17</ele>
        <time>2022-04-11T10:45:54Z</time>
      </trkpt>
      <trkpt lat="49.91857" lon="2.2273">
        <ele>17</ele>
        <time>2022-04-11T10:45:55Z</time>
      </trkpt>
      <trkpt lat="49.91857" lon="2.2273">
        <ele>17</ele>
        <time>2022-04-11T10:45:56Z</time>
      </trkpt>
      <trkpt lat="49.91857" lon="2.2273">
        <ele>17</ele>
        <time>2022-04-11T10:45:57Z</time>
      </trkpt>
      <trkpt lat="49.91857" lon="2.2273">
        <ele>17</ele>
        <time>2022-04-11T10:45:58Z</time>
      </trkpt>
      <trkpt lat="49.91857" lon="2.2273">
        <ele>17</ele>
        <time>2022-04-11T10:45:59Z</time>
      </trkpt>
      <trkpt lat="49.91857" lon="2.2273">
        <ele>17</ele>
        <time>2022-04-11T10:46:00Z</time>
      </trkpt>
      <trkpt lat="49.91857" lon="2.2273">
        <ele>17</ele>
        <time>2022-04-11T10:46:01Z</time>
      </trkpt>
      <trkpt lat="49.91857" lon="2.2273">
        <ele>17</ele>
        <time>2022-04-11T10:46:02Z</time>
      </trkpt>
      <trkpt lat="49.91857" lon="2.2273">
        <ele>17</ele>
        <time>2022-04-11T10:46:03Z</time>
      </trkpt>
      <trkpt lat="49.91857" lon="2.2273">
        <ele>17</ele>
        <time>2022-04-11T10:46:04Z</time>
      </trkpt>
      <trkpt lat="49.91857" lon="2.2273">
        <ele>17</ele>
        <time>2022-04-11T10:46:05Z</time>
      </trkpt>
      <trkpt lat="49.91857" lon="2.2273">
        <ele>17</ele>
        <time>2022-04-11T10:46:06Z</time>
      </trkpt>
      <trkpt lat="49.91857" lon="2.2273">
        <ele>17</ele>
        <time>2022-04-11T10:46:07Z</time>
      </trkpt>
      <trkpt lat="49.91857" lon="2.2273">
        <ele>17</ele>
        <time>2022-04-11T10:46:08Z</time>
      </trkpt>
      <trkpt lat="49.91857" lon="2.2273">
        <ele>17</ele>
        <time>2022-04-11T10:46:09Z</time>
      </trkpt>
      <trkpt lat="49.91857" lon="2.2273">
        <ele>17</ele>
        <time>2022-04-11T10:46:10Z</time>
      </trkpt>
      <trkpt lat="49.91857" lon="2.2273">
        <ele>17</ele>
        <time>2022-04-11T10:46:11Z</time>
      </trkpt>
      <trkpt lat="49.91857" lon="2.2273">
        <ele>17</ele>
        <time>2022-04-11T10:46:12Z</time>
      </trkpt>
      <trkpt lat="49.91857" lon="2.2273">
        <ele>17</ele>
        <time>2022-04-11T10:46:13Z</time>
      </trkpt>
      <trkpt lat="49.91857" lon="2.2273">
        <ele>17</ele>
        <time>2022-04-11T10:46:14Z</time>
      </trkpt>
      <trkpt lat="49.91857" lon="2.2273">
        <ele>17</ele>
        <time>2022-04-11T10:46:15Z</time>
      </trkpt>
      <trkpt lat="49.91857" lon="2.2273">
        <ele>17</ele>
        <time>2022-04-11T10:46:16Z</time>
      </trkpt>
      <trkpt lat="49.91857" lon="2.2273">
        <ele>17</ele>
        <time>2022-04-11T10:46:17Z</time>
      </trkpt>
      <trkpt lat="49.91857" lon="2.2273">
        <ele>17</ele>
        <time>2022-04-11T10:46:18Z</time>
      </trkpt>
      <trkpt lat="49.91857" lon="2.2273">
        <ele>17</ele>
        <time>2022-04-11T10:46:19Z</time>
      </trkpt>
      <trkpt lat="49.91857" lon="2.2273">
        <ele>17</ele>
        <time>2022-04-11T10:46:20Z</time>
      </trkpt>
      <trkpt lat="49.91857" lon="2.2273">
        <ele>17</ele>
        <time>2022-04-11T10:46:21Z</time>
      </trkpt>
      <trkpt lat="49.91857" lon="2.2273">
        <ele>17</ele>
        <time>2022-04-11T10:46:22Z</time>
      </trkpt>
      <trkpt lat="49.91857" lon="2.2273">
        <ele>17</ele>
        <time>2022-04-11T10:46:23Z</time>
      </trkpt>
      <trkpt lat="49.91857" lon="2.2273">
        <ele>17</ele>
        <time>2022-04-11T10:46:24Z</time>
      </trkpt>
      <trkpt lat="49.91857" lon="2.2273">
        <ele>17</ele>
        <time>2022-04-11T10:46:25Z</time>
      </trkpt>
      <trkpt lat="49.91857" lon="2.2273">
        <ele>17</ele>
        <time>2022-04-11T10:46:26Z</time>
      </trkpt>
      <trkpt lat="49.91857" lon="2.2273">
        <ele>17</ele>
        <time>2022-04-11T10:46:27Z</time>
      </trkpt>
      <trkpt lat="49.91857" lon="2.2273">
        <ele>17</ele>
        <time>2022-04-11T10:46:28Z</time>
      </trkpt>
      <trkpt lat="49.91857" lon="2.2273">
        <ele>17</ele>
        <time>2022-04-11T10:46:29Z</time>
      </trkpt>
      <trkpt lat="49.91857" lon="2.2273">
        <ele>17</ele>
        <time>2022-04-11T10:46:30Z</time>
      </trkpt>
      <trkpt lat="49.91857" lon="2.2273">
        <ele>17</ele>
        <time>2022-04-11T10:46:31Z</time>
      </trkpt>
      <trkpt lat="49.91857" lon="2.2273">
        <ele>17</ele>
        <time>2022-04-11T10:46:32Z</time>
      </trkpt>
      <trkpt lat="49.91857" lon="2.2273">
        <ele>17</ele>
        <time>2022-04-11T10:46:33Z</time>
      </trkpt>
      <trkpt lat="49.91857" lon="2.2273">
        <ele>17</ele>
        <time>2022-04-11T10:46:34Z</time>
      </trkpt>
      <trkpt lat="49.91857" lon="2.2273">
        <ele>17</ele>
        <time>2022-04-11T10:46:35Z</time>
      </trkpt>
      <trkpt lat="49.91857" lon="2.2273">
        <ele>17</ele>
        <time>2022-04-11T10:46:36Z</time>
      </trkpt>
      <trkpt lat="49.91857" lon="2.2273">
        <ele>17</ele>
        <time>2022-04-11T10:46:37Z</time>
      </trkpt>
      <trkpt lat="49.91857" lon="2.2273">
        <ele>17</ele>
        <time>2022-04-11T10:46:38Z</time>
      </trkpt>
      <trkpt lat="49.91857" lon="2.2273">
        <ele>17</ele>
        <time>2022-04-11T10:46:39Z</time>
      </trkpt>
      <trkpt lat="49.91857" lon="2.2273">
        <ele>17</ele>
        <time>2022-04-11T10:46:40Z</time>
      </trkpt>
      <trkpt lat="49.91857" lon="2.2273">
        <ele>17</ele>
        <time>2022-04-11T10:46:41Z</time>
      </trkpt>
      <trkpt lat="49.91857" lon="2.2273">
        <ele>17</ele>
        <time>2022-04-11T10:46:42Z</time>
      </trkpt>
      <trkpt lat="49.91857" lon="2.2273">
        <ele>17</ele>
        <time>2022-04-11T10:46:43Z</time>
      </trkpt>
      <trkpt lat="49.91857" lon="2.2273">
        <ele>17</ele>
        <time>2022-04-11T10:46:44Z</time>
      </trkpt>
      <trkpt lat="49.91857" lon="2.2273">
        <ele>17</ele>
        <time>2022-04-11T10:46:45Z</time>
      </trkpt>
      <trkpt lat="49.91857" lon="2.2273">
        <ele>17</ele>
        <time>2022-04-11T10:46:46Z</time>
      </trkpt>
      <trkpt lat="49.91857" lon="2.2273">
        <ele>17</ele>
        <time>2022-04-11T10:46:47Z</time>
      </trkpt>
      <trkpt lat="49.91857" lon="2.2273">
        <ele>17</ele>
        <time>2022-04-11T10:46:48Z</time>
      </trkpt>
      <trkpt lat="49.91857" lon="2.2273">
        <ele>17</ele>
        <time>2022-04-11T10:46:49Z</time>
      </trkpt>
      <trkpt lat="49.91857" lon="2.2273">
        <ele>17</ele>
        <time>2022-04-11T10:46:50Z</time>
      </trkpt>
      <trkpt lat="49.91857" lon="2.2273">
        <ele>17</ele>
        <time>2022-04-11T10:46:51Z</time>
      </trkpt>
      <trkpt lat="49.91857" lon="2.2273">
        <ele>17</ele>
        <time>2022-04-11T10:46:52Z</time>
      </trkpt>
      <trkpt lat="49.91857" lon="2.2273">
        <ele>17</ele>
        <time>2022-04-11T10:46:53Z</time>
      </trkpt>
      <trkpt lat="49.91857" lon="2.2273">
        <ele>17</ele>
        <time>2022-04-11T10:46:54Z</time>
      </trkpt>
      <trkpt lat="49.91857" lon="2.2273">
        <ele>17</ele>
        <time>2022-04-11T10:46:55Z</time>
      </trkpt>
      <trkpt lat="49.91857" lon="2.2273">
        <ele>17</ele>
        <time>2022-04-11T10:46:56Z</time>
      </trkpt>
      <trkpt lat="49.91857" lon="2.2273">
        <ele>17</ele>
        <time>2022-04-11T10:46:57Z</time>
      </trkpt>
      <trkpt lat="49.91857" lon="2.2273">
        <ele>17</ele>
        <time>2022-04-11T10:46:58Z</time>
      </trkpt>
      <trkpt lat="49.91857" lon="2.2273">
        <ele>17</ele>
        <time>2022-04-11T10:46:59Z</time>
      </trkpt>
      <trkpt lat="49.91857" lon="2.2273">
        <ele>17</ele>
        <time>2022-04-11T10:47:00Z</time>
      </trkpt>
      <trkpt lat="49.91857" lon="2.2273">
        <ele>17</ele>
        <time>2022-04-11T10:47:01Z</time>
      </trkpt>
      <trkpt lat="49.91857" lon="2.2273">
        <ele>17</ele>
        <time>2022-04-11T10:47:02Z</time>
      </trkpt>
      <trkpt lat="49.91857" lon="2.2273">
        <ele>17</ele>
        <time>2022-04-11T10:47:03Z</time>
      </trkpt>
      <trkpt lat="49.91857" lon="2.2273">
        <ele>17</ele>
        <time>2022-04-11T10:47:04Z</time>
      </trkpt>
      <trkpt lat="49.91857" lon="2.2273">
        <ele>17</ele>
        <time>2022-04-11T10:47:05Z</time>
      </trkpt>
      <trkpt lat="49.91857" lon="2.2273">
        <ele>17</ele>
        <time>2022-04-11T10:47:06Z</time>
      </trkpt>
      <trkpt lat="49.91857" lon="2.2273">
        <ele>17</ele>
        <time>2022-04-11T10:47:07Z</time>
      </trkpt>
      <trkpt lat="49.91857" lon="2.2273">
        <ele>17</ele>
        <time>2022-04-11T10:47:08Z</time>
      </trkpt>
      <trkpt lat="49.91857" lon="2.2273">
        <ele>17</ele>
        <time>2022-04-11T10:47:09Z</time>
      </trkpt>
      <trkpt lat="49.91857" lon="2.2273">
        <ele>17</ele>
        <time>2022-04-11T10:47:10Z</time>
      </trkpt>
      <trkpt lat="49.91857" lon="2.2273">
        <ele>17</ele>
        <time>2022-04-11T10:47:11Z</time>
      </trkpt>
      <trkpt lat="49.91857" lon="2.2273">
        <ele>17</ele>
        <time>2022-04-11T10:47:12Z</time>
      </trkpt>
      <trkpt lat="49.91857" lon="2.2273">
        <ele>17</ele>
        <time>2022-04-11T10:47:13Z</time>
      </trkpt>
      <trkpt lat="49.91857" lon="2.2273">
        <ele>17</ele>
        <time>2022-04-11T10:47:14Z</time>
      </trkpt>
      <trkpt lat="49.91857" lon="2.2273">
        <ele>17</ele>
        <time>2022-04-11T10:47:15Z</time>
      </trkpt>
      <trkpt lat="49.91857" lon="2.2273">
        <ele>17</ele>
        <time>2022-04-11T10:47:16Z</time>
      </trkpt>
      <trkpt lat="49.91857" lon="2.2273">
        <ele>17</ele>
        <time>2022-04-11T10:47:17Z</time>
      </trkpt>
      <trkpt lat="49.91857" lon="2.2273">
        <ele>17</ele>
        <time>2022-04-11T10:47:18Z</time>
      </trkpt>
      <trkpt lat="49.91857" lon="2.2273">
        <ele>17</ele>
        <time>2022-04-11T10:47:19Z</time>
      </trkpt>
      <trkpt lat="49.91857" lon="2.2273">
        <ele>17</ele>
        <time>2022-04-11T10:47:20Z</time>
      </trkpt>
      <trkpt lat="49.91858" lon="2.22729">
        <ele>17</ele>
        <time>2022-04-11T10:47:21Z</time>
      </trkpt>
      <trkpt lat="49.91858" lon="2.22728">
        <ele>17</ele>
        <time>2022-04-11T10:47:22Z</time>
      </trkpt>
      <trkpt lat="49.91859" lon="2.22727">
        <ele>17</ele>
        <time>2022-04-11T10:47:23Z</time>
      </trkpt>
      <trkpt lat="49.91859" lon="2.22727">
        <ele>17</ele>
        <time>2022-04-11T10:47:24Z</time>
      </trkpt>
      <trkpt lat="49.91859" lon="2.22727">
        <ele>17</ele>
        <time>2022-04-11T10:47:25Z</time>
      </trkpt>
      <trkpt lat="49.91859" lon="2.22727">
        <ele>17</ele>
        <time>2022-04-11T10:47:26Z</time>
      </trkpt>
      <trkpt lat="49.91859" lon="2.22727">
        <ele>17</ele>
        <time>2022-04-11T10:47:27Z</time>
      </trkpt>
      <trkpt lat="49.91859" lon="2.22727">
        <ele>17</ele>
        <time>2022-04-11T10:47:28Z</time>
      </trkpt>
      <trkpt lat="49.91859" lon="2.22727">
        <ele>17</ele>
        <time>2022-04-11T10:47:29Z</time>
      </trkpt>
      <trkpt lat="49.91859" lon="2.22727">
        <ele>17</ele>
        <time>2022-04-11T10:47:30Z</time>
      </trkpt>
      <trkpt lat="49.91859" lon="2.22727">
        <ele>17</ele>
        <time>2022-04-11T10:47:31Z</time>
      </trkpt>
      <trkpt lat="49.91859" lon="2.22727">
        <ele>17</ele>
        <time>2022-04-11T10:47:32Z</time>
      </trkpt>
      <trkpt lat="49.91859" lon="2.22727">
        <ele>17</ele>
        <time>2022-04-11T10:47:33Z</time>
      </trkpt>
      <trkpt lat="49.91859" lon="2.22727">
        <ele>17</ele>
        <time>2022-04-11T10:47:34Z</time>
      </trkpt>
      <trkpt lat="49.91859" lon="2.22727">
        <ele>17</ele>
        <time>2022-04-11T10:47:35Z</time>
      </trkpt>
      <trkpt lat="49.91859" lon="2.22727">
        <ele>17</ele>
        <time>2022-04-11T10:47:36Z</time>
      </trkpt>
      <trkpt lat="49.91859" lon="2.22727">
        <ele>17</ele>
        <time>2022-04-11T10:47:37Z</time>
      </trkpt>
      <trkpt lat="49.91859" lon="2.22727">
        <ele>17</ele>
        <time>2022-04-11T10:47:38Z</time>
      </trkpt>
      <trkpt lat="49.91859" lon="2.22727">
        <ele>17</ele>
        <time>2022-04-11T10:47:39Z</time>
      </trkpt>
      <trkpt lat="49.91859" lon="2.22727">
        <ele>17</ele>
        <time>2022-04-11T10:47:40Z</time>
      </trkpt>
      <trkpt lat="49.91859" lon="2.22727">
        <ele>17</ele>
        <time>2022-04-11T10:47:41Z</time>
      </trkpt>
      <trkpt lat="49.9186" lon="2.22727">
        <ele>17</ele>
        <time>2022-04-11T10:47:42Z</time>
      </trkpt>
      <trkpt lat="49.9186" lon="2.22727">
        <ele>17</ele>
        <time>2022-04-11T10:47:43Z</time>
      </trkpt>
      <trkpt lat="49.9186" lon="2.22727">
        <ele>17</ele>
        <time>2022-04-11T10:47:44Z</time>
      </trkpt>
      <trkpt lat="49.9186" lon="2.22727">
        <ele>17</ele>
        <time>2022-04-11T10:47:45Z</time>
      </trkpt>
      <trkpt lat="49.9186" lon="2.22727">
        <ele>17</ele>
        <time>2022-04-11T10:47:46Z</time>
      </trkpt>
      <trkpt lat="49.91861" lon="2.22727">
        <ele>17</ele>
        <time>2022-04-11T10:47:47Z</time>
      </trkpt>
      <trkpt lat="49.91861" lon="2.22727">
        <ele>17</ele>
        <time>2022-04-11T10:47:48Z</time>
      </trkpt>
      <trkpt lat="49.91861" lon="2.22728">
        <ele>17</ele>
        <time>2022-04-11T10:47:49Z</time>
      </trkpt>
      <trkpt lat="49.91861" lon="2.22728">
        <ele>17</ele>
        <time>2022-04-11T10:47:50Z</time>
      </trkpt>
      <trkpt lat="49.91861" lon="2.22728">
        <ele>17</ele>
        <time>2022-04-11T10:47:51Z</time>
      </trkpt>
      <trkpt lat="49.91861" lon="2.22728">
        <ele>17</ele>
        <time>2022-04-11T10:47:52Z</time>
      </trkpt>
      <trkpt lat="49.91861" lon="2.22728">
        <ele>17</ele>
        <time>2022-04-11T10:47:53Z</time>
      </trkpt>
      <trkpt lat="49.91861" lon="2.22727">
        <ele>17</ele>
        <time>2022-04-11T10:47:54Z</time>
      </trkpt>
      <trkpt lat="49.91861" lon="2.22727">
        <ele>17</ele>
        <time>2022-04-11T10:47:55Z</time>
      </trkpt>
      <trkpt lat="49.91861" lon="2.22727">
        <ele>17</ele>
        <time>2022-04-11T10:47:56Z</time>
      </trkpt>
      <trkpt lat="49.91861" lon="2.22727">
        <ele>17</ele>
        <time>2022-04-11T10:47:57Z</time>
      </trkpt>
      <trkpt lat="49.91861" lon="2.22727">
        <ele>17</ele>
        <time>2022-04-11T10:47:58Z</time>
      </trkpt>
      <trkpt lat="49.91861" lon="2.22727">
        <ele>17</ele>
        <time>2022-04-11T10:47:59Z</time>
      </trkpt>
      <trkpt lat="49.91861" lon="2.22727">
        <ele>17</ele>
        <time>2022-04-11T10:48:00Z</time>
      </trkpt>
      <trkpt lat="49.91861" lon="2.22727">
        <ele>17</ele>
        <time>2022-04-11T10:48:01Z</time>
      </trkpt>
      <trkpt lat="49.91861" lon="2.22727">
        <ele>17</ele>
        <time>2022-04-11T10:48:02Z</time>
      </trkpt>
      <trkpt lat="49.91861" lon="2.22727">
        <ele>17</ele>
        <time>2022-04-11T10:48:03Z</time>
      </trkpt>
      <trkpt lat="49.91861" lon="2.22727">
        <ele>17</ele>
        <time>2022-04-11T10:48:04Z</time>
      </trkpt>
      <trkpt lat="49.91861" lon="2.22727">
        <ele>17</ele>
        <time>2022-04-11T10:48:05Z</time>
      </trkpt>
      <trkpt lat="49.91861" lon="2.22728">
        <ele>17</ele>
        <time>2022-04-11T10:48:06Z</time>
      </trkpt>
      <trkpt lat="49.91861" lon="2.22728">
        <ele>17</ele>
        <time>2022-04-11T10:48:07Z</time>
      </trkpt>
      <trkpt lat="49.91861" lon="2.22728">
        <ele>17</ele>
        <time>2022-04-11T10:48:08Z</time>
      </trkpt>
      <trkpt lat="49.91861" lon="2.22728">
        <ele>17</ele>
        <time>2022-04-11T10:48:09Z</time>
      </trkpt>
      <trkpt lat="49.91861" lon="2.22728">
        <ele>17</ele>
        <time>2022-04-11T10:48:10Z</time>
      </trkpt>
      <trkpt lat="49.91861" lon="2.22728">
        <ele>17</ele>
        <time>2022-04-11T10:48:11Z</time>
      </trkpt>
      <trkpt lat="49.91861" lon="2.22728">
        <ele>17</ele>
        <time>2022-04-11T10:48:12Z</time>
      </trkpt>
      <trkpt lat="49.91861" lon="2.22728">
        <ele>17</ele>
        <time>2022-04-11T10:48:13Z</time>
      </trkpt>
      <trkpt lat="49.91861" lon="2.22728">
        <ele>17</ele>
        <time>2022-04-11T10:48:14Z</time>
      </trkpt>
      <trkpt lat="49.91861" lon="2.22728">
        <ele>17</ele>
        <time>2022-04-11T10:48:15Z</time>
      </trkpt>
      <trkpt lat="49.91861" lon="2.22728">
        <ele>17</ele>
        <time>2022-04-11T10:48:16Z</time>
      </trkpt>
      <trkpt lat="49.91861" lon="2.22728">
        <ele>17</ele>
        <time>2022-04-11T10:48:17Z</time>
      </trkpt>
      <trkpt lat="49.91861" lon="2.22728">
        <ele>17</ele>
        <time>2022-04-11T10:48:18Z</time>
      </trkpt>
      <trkpt lat="49.91861" lon="2.22728">
        <ele>17</ele>
        <time>2022-04-11T10:48:19Z</time>
      </trkpt>
      <trkpt lat="49.91861" lon="2.22728">
        <ele>17</ele>
        <time>2022-04-11T10:48:20Z</time>
      </trkpt>
      <trkpt lat="49.91861" lon="2.22728">
        <ele>17</ele>
        <time>2022-04-11T10:48:21Z</time>
      </trkpt>
      <trkpt lat="49.91861" lon="2.22728">
        <ele>17</ele>
        <time>2022-04-11T10:48:22Z</time>
      </trkpt>
      <trkpt lat="49.91861" lon="2.22728">
        <ele>17</ele>
        <time>2022-04-11T10:48:23Z</time>
      </trkpt>
      <trkpt lat="49.91861" lon="2.22728">
        <ele>17</ele>
        <time>2022-04-11T10:48:24Z</time>
      </trkpt>
      <trkpt lat="49.91861" lon="2.22728">
        <ele>17</ele>
        <time>2022-04-11T10:48:25Z</time>
      </trkpt>
      <trkpt lat="49.91861" lon="2.22728">
        <ele>17</ele>
        <time>2022-04-11T10:48:26Z</time>
      </trkpt>
      <trkpt lat="49.91861" lon="2.22728">
        <ele>17</ele>
        <time>2022-04-11T10:48:27Z</time>
      </trkpt>
      <trkpt lat="49.91861" lon="2.22728">
        <ele>17</ele>
        <time>2022-04-11T10:48:28Z</time>
      </trkpt>
      <trkpt lat="49.91861" lon="2.22728">
        <ele>17</ele>
        <time>2022-04-11T10:48:29Z</time>
      </trkpt>
      <trkpt lat="49.91861" lon="2.22728">
        <ele>17</ele>
        <time>2022-04-11T10:48:30Z</time>
      </trkpt>
      <trkpt lat="49.91861" lon="2.22728">
        <ele>17</ele>
        <time>2022-04-11T10:48:31Z</time>
      </trkpt>
      <trkpt lat="49.91861" lon="2.22728">
        <ele>17</ele>
        <time>2022-04-11T10:48:32Z</time>
      </trkpt>
      <trkpt lat="49.91861" lon="2.22728">
        <ele>17</ele>
        <time>2022-04-11T10:48:33Z</time>
      </trkpt>
      <trkpt lat="49.91861" lon="2.22728">
        <ele>17</ele>
        <time>2022-04-11T10:48:34Z</time>
      </trkpt>
      <trkpt lat="49.91861" lon="2.22728">
        <ele>17</ele>
        <time>2022-04-11T10:48:35Z</time>
      </trkpt>
      <trkpt lat="49.91861" lon="2.22728">
        <ele>17</ele>
        <time>2022-04-11T10:48:36Z</time>
      </trkpt>
      <trkpt lat="49.91861" lon="2.22728">
        <ele>17</ele>
        <time>2022-04-11T10:48:37Z</time>
      </trkpt>
      <trkpt lat="49.91861" lon="2.22728">
        <ele>17</ele>
        <time>2022-04-11T10:48:38Z</time>
      </trkpt>
      <trkpt lat="49.91861" lon="2.22728">
        <ele>17</ele>
        <time>2022-04-11T10:48:39Z</time>
      </trkpt>
      <trkpt lat="49.91861" lon="2.22728">
        <ele>17</ele>
        <time>2022-04-11T10:48:40Z</time>
      </trkpt>
      <trkpt lat="49.91861" lon="2.22728">
        <ele>17</ele>
        <time>2022-04-11T10:48:41Z</time>
      </trkpt>
      <trkpt lat="49.91861" lon="2.22728">
        <ele>17</ele>
        <time>2022-04-11T10:48:42Z</time>
      </trkpt>
      <trkpt lat="49.91861" lon="2.22728">
        <ele>17</ele>
        <time>2022-04-11T10:48:43Z</time>
      </trkpt>
      <trkpt lat="49.91861" lon="2.22728">
        <ele>17</ele>
        <time>2022-04-11T10:48:44Z</time>
      </trkpt>
      <trkpt lat="49.91861" lon="2.22728">
        <ele>17</ele>
        <time>2022-04-11T10:48:45Z</time>
      </trkpt>
      <trkpt lat="49.91861" lon="2.22728">
        <ele>17</ele>
        <time>2022-04-11T10:48:46Z</time>
      </trkpt>
      <trkpt lat="49.91861" lon="2.22728">
        <ele>17</ele>
        <time>2022-04-11T10:48:47Z</time>
      </trkpt>
      <trkpt lat="49.91861" lon="2.22728">
        <ele>17</ele>
        <time>2022-04-11T10:48:48Z</time>
      </trkpt>
      <trkpt lat="49.91861" lon="2.22728">
        <ele>17</ele>
        <time>2022-04-11T10:48:49Z</time>
      </trkpt>
      <trkpt lat="49.91861" lon="2.22728">
        <ele>17</ele>
        <time>2022-04-11T10:48:50Z</time>
      </trkpt>
      <trkpt lat="49.91861" lon="2.22728">
        <ele>17</ele>
        <time>2022-04-11T10:48:51Z</time>
      </trkpt>
      <trkpt lat="49.91861" lon="2.22728">
        <ele>17</ele>
        <time>2022-04-11T10:48:52Z</time>
      </trkpt>
      <trkpt lat="49.91861" lon="2.22728">
        <ele>17</ele>
        <time>2022-04-11T10:48:53Z</time>
      </trkpt>
      <trkpt lat="49.91861" lon="2.22728">
        <ele>17</ele>
        <time>2022-04-11T10:48:54Z</time>
      </trkpt>
      <trkpt lat="49.91861" lon="2.22728">
        <ele>17</ele>
        <time>2022-04-11T10:48:55Z</time>
      </trkpt>
      <trkpt lat="49.91861" lon="2.22728">
        <ele>17</ele>
        <time>2022-04-11T10:48:56Z</time>
      </trkpt>
      <trkpt lat="49.91861" lon="2.22728">
        <ele>17</ele>
        <time>2022-04-11T10:48:57Z</time>
      </trkpt>
      <trkpt lat="49.91861" lon="2.22728">
        <ele>17</ele>
        <time>2022-04-11T10:48:58Z</time>
      </trkpt>
      <trkpt lat="49.91861" lon="2.22728">
        <ele>17</ele>
        <time>2022-04-11T10:48:59Z</time>
      </trkpt>
      <trkpt lat="49.91861" lon="2.22728">
        <ele>17</ele>
        <time>2022-04-11T10:49:00Z</time>
      </trkpt>
      <trkpt lat="49.91861" lon="2.22728">
        <ele>17</ele>
        <time>2022-04-11T10:49:01Z</time>
      </trkpt>
      <trkpt lat="49.91861" lon="2.22728">
        <ele>17</ele>
        <time>2022-04-11T10:49:02Z</time>
      </trkpt>
      <trkpt lat="49.91861" lon="2.22728">
        <ele>17</ele>
        <time>2022-04-11T10:49:03Z</time>
      </trkpt>
      <trkpt lat="49.91861" lon="2.22728">
        <ele>17</ele>
        <time>2022-04-11T10:49:04Z</time>
      </trkpt>
      <trkpt lat="49.91861" lon="2.22728">
        <ele>17</ele>
        <time>2022-04-11T10:49:05Z</time>
      </trkpt>
      <trkpt lat="49.91861" lon="2.22728">
        <ele>17</ele>
        <time>2022-04-11T10:49:06Z</time>
      </trkpt>
      <trkpt lat="49.91861" lon="2.22728">
        <ele>17</ele>
        <time>2022-04-11T10:49:07Z</time>
      </trkpt>
      <trkpt lat="49.91861" lon="2.22728">
        <ele>17</ele>
        <time>2022-04-11T10:49:08Z</time>
      </trkpt>
      <trkpt lat="49.91861" lon="2.22728">
        <ele>17</ele>
        <time>2022-04-11T10:49:09Z</time>
      </trkpt>
      <trkpt lat="49.91861" lon="2.22728">
        <ele>17</ele>
        <time>2022-04-11T10:49:10Z</time>
      </trkpt>
      <trkpt lat="49.91861" lon="2.22728">
        <ele>17</ele>
        <time>2022-04-11T10:49:11Z</time>
      </trkpt>
      <trkpt lat="49.91861" lon="2.22728">
        <ele>17</ele>
        <time>2022-04-11T10:49:12Z</time>
      </trkpt>
      <trkpt lat="49.91861" lon="2.22728">
        <ele>17</ele>
        <time>2022-04-11T10:49:13Z</time>
      </trkpt>
      <trkpt lat="49.91861" lon="2.22728">
        <ele>17</ele>
        <time>2022-04-11T10:49:14Z</time>
      </trkpt>
      <trkpt lat="49.91861" lon="2.22728">
        <ele>17</ele>
        <time>2022-04-11T10:49:15Z</time>
      </trkpt>
      <trkpt lat="49.91861" lon="2.22728">
        <ele>17</ele>
        <time>2022-04-11T10:49:16Z</time>
      </trkpt>
      <trkpt lat="49.91861" lon="2.22728">
        <ele>17</ele>
        <time>2022-04-11T10:49:17Z</time>
      </trkpt>
      <trkpt lat="49.91861" lon="2.22728">
        <ele>17</ele>
        <time>2022-04-11T10:49:18Z</time>
      </trkpt>
      <trkpt lat="49.91861" lon="2.22728">
        <ele>17</ele>
        <time>2022-04-11T10:49:19Z</time>
      </trkpt>
      <trkpt lat="49.91861" lon="2.22728">
        <ele>17</ele>
        <time>2022-04-11T10:49:20Z</time>
      </trkpt>
      <trkpt lat="49.91861" lon="2.22728">
        <ele>17</ele>
        <time>2022-04-11T10:49:21Z</time>
      </trkpt>
      <trkpt lat="49.91861" lon="2.22728">
        <ele>17</ele>
        <time>2022-04-11T10:49:22Z</time>
      </trkpt>
      <trkpt lat="49.91861" lon="2.22728">
        <ele>17</ele>
        <time>2022-04-11T10:49:23Z</time>
      </trkpt>
      <trkpt lat="49.91861" lon="2.22728">
        <ele>17</ele>
        <time>2022-04-11T10:49:24Z</time>
      </trkpt>
      <trkpt lat="49.91861" lon="2.22728">
        <ele>17</ele>
        <time>2022-04-11T10:49:25Z</time>
      </trkpt>
      <trkpt lat="49.91861" lon="2.22728">
        <ele>17</ele>
        <time>2022-04-11T10:49:26Z</time>
      </trkpt>
      <trkpt lat="49.91861" lon="2.22728">
        <ele>17</ele>
        <time>2022-04-11T10:49:27Z</time>
      </trkpt>
      <trkpt lat="49.91861" lon="2.22728">
        <ele>17</ele>
        <time>2022-04-11T10:49:28Z</time>
      </trkpt>
      <trkpt lat="49.91861" lon="2.22728">
        <ele>17</ele>
        <time>2022-04-11T10:49:29Z</time>
      </trkpt>
      <trkpt lat="49.91861" lon="2.22728">
        <ele>17</ele>
        <time>2022-04-11T10:49:30Z</time>
      </trkpt>
      <trkpt lat="49.91861" lon="2.22728">
        <ele>17</ele>
        <time>2022-04-11T10:49:31Z</time>
      </trkpt>
      <trkpt lat="49.91861" lon="2.22728">
        <ele>17</ele>
        <time>2022-04-11T10:49:32Z</time>
      </trkpt>
      <trkpt lat="49.91861" lon="2.22728">
        <ele>17</ele>
        <time>2022-04-11T10:49:33Z</time>
      </trkpt>
      <trkpt lat="49.91861" lon="2.22728">
        <ele>17</ele>
        <time>2022-04-11T10:49:34Z</time>
      </trkpt>
      <trkpt lat="49.91861" lon="2.22728">
        <ele>17</ele>
        <time>2022-04-11T10:49:35Z</time>
      </trkpt>
      <trkpt lat="49.91861" lon="2.22728">
        <ele>17</ele>
        <time>2022-04-11T10:49:36Z</time>
      </trkpt>
      <trkpt lat="49.91861" lon="2.22728">
        <ele>17</ele>
        <time>2022-04-11T10:49:37Z</time>
      </trkpt>
      <trkpt lat="49.91861" lon="2.22728">
        <ele>17</ele>
        <time>2022-04-11T10:49:38Z</time>
      </trkpt>
      <trkpt lat="49.91861" lon="2.22728">
        <ele>17</ele>
        <time>2022-04-11T10:49:39Z</time>
      </trkpt>
      <trkpt lat="49.91861" lon="2.22728">
        <ele>17</ele>
        <time>2022-04-11T10:49:40Z</time>
      </trkpt>
      <trkpt lat="49.91861" lon="2.22728">
        <ele>17</ele>
        <time>2022-04-11T10:49:41Z</time>
      </trkpt>
      <trkpt lat="49.91861" lon="2.22728">
        <ele>17</ele>
        <time>2022-04-11T10:49:42Z</time>
      </trkpt>
      <trkpt lat="49.91861" lon="2.22728">
        <ele>17</ele>
        <time>2022-04-11T10:49:43Z</time>
      </trkpt>
      <trkpt lat="49.91861" lon="2.22728">
        <ele>17</ele>
        <time>2022-04-11T10:49:44Z</time>
      </trkpt>
      <trkpt lat="49.91861" lon="2.22728">
        <ele>17</ele>
        <time>2022-04-11T10:49:45Z</time>
      </trkpt>
      <trkpt lat="49.91861" lon="2.22728">
        <ele>17</ele>
        <time>2022-04-11T10:49:46Z</time>
      </trkpt>
      <trkpt lat="49.91861" lon="2.22728">
        <ele>17</ele>
        <time>2022-04-11T10:49:47Z</time>
      </trkpt>
      <trkpt lat="49.91861" lon="2.22728">
        <ele>17</ele>
        <time>2022-04-11T10:49:48Z</time>
      </trkpt>
      <trkpt lat="49.91861" lon="2.22728">
        <ele>17</ele>
        <time>2022-04-11T10:49:49Z</time>
      </trkpt>
      <trkpt lat="49.91861" lon="2.22728">
        <ele>17</ele>
        <time>2022-04-11T10:49:50Z</time>
      </trkpt>
      <trkpt lat="49.91861" lon="2.22728">
        <ele>17</ele>
        <time>2022-04-11T10:49:51Z</time>
      </trkpt>
      <trkpt lat="49.91861" lon="2.22728">
        <ele>17</ele>
        <time>2022-04-11T10:49:52Z</time>
      </trkpt>
      <trkpt lat="49.91861" lon="2.22728">
        <ele>17</ele>
        <time>2022-04-11T10:49:53Z</time>
      </trkpt>
      <trkpt lat="49.91861" lon="2.22728">
        <ele>17</ele>
        <time>2022-04-11T10:49:54Z</time>
      </trkpt>
      <trkpt lat="49.91861" lon="2.22728">
        <ele>17</ele>
        <time>2022-04-11T10:49:55Z</time>
      </trkpt>
      <trkpt lat="49.91861" lon="2.22728">
        <ele>17</ele>
        <time>2022-04-11T10:49:56Z</time>
      </trkpt>
      <trkpt lat="49.91861" lon="2.22728">
        <ele>17</ele>
        <time>2022-04-11T10:49:57Z</time>
      </trkpt>
      <trkpt lat="49.91861" lon="2.22728">
        <ele>17</ele>
        <time>2022-04-11T10:49:58Z</time>
      </trkpt>
      <trkpt lat="49.91861" lon="2.22728">
        <ele>17</ele>
        <time>2022-04-11T10:49:59Z</time>
      </trkpt>
      <trkpt lat="49.91861" lon="2.22728">
        <ele>17</ele>
        <time>2022-04-11T10:50:00Z</time>
      </trkpt>
      <trkpt lat="49.91861" lon="2.22728">
        <ele>17</ele>
        <time>2022-04-11T10:50:01Z</time>
      </trkpt>
      <trkpt lat="49.91861" lon="2.22728">
        <ele>17</ele>
        <time>2022-04-11T10:50:02Z</time>
      </trkpt>
      <trkpt lat="49.91861" lon="2.22728">
        <ele>17</ele>
        <time>2022-04-11T10:50:03Z</time>
      </trkpt>
      <trkpt lat="49.91861" lon="2.22728">
        <ele>17</ele>
        <time>2022-04-11T10:50:04Z</time>
      </trkpt>
      <trkpt lat="49.91861" lon="2.22728">
        <ele>17</ele>
        <time>2022-04-11T10:50:05Z</time>
      </trkpt>
      <trkpt lat="49.91861" lon="2.22728">
        <ele>17</ele>
        <time>2022-04-11T10:50:06Z</time>
      </trkpt>
      <trkpt lat="49.91861" lon="2.22728">
        <ele>17</ele>
        <time>2022-04-11T10:50:07Z</time>
      </trkpt>
      <trkpt lat="49.91861" lon="2.22728">
        <ele>17</ele>
        <time>2022-04-11T10:50:08Z</time>
      </trkpt>
      <trkpt lat="49.91861" lon="2.22728">
        <ele>17</ele>
        <time>2022-04-11T10:50:09Z</time>
      </trkpt>
      <trkpt lat="49.91861" lon="2.22728">
        <ele>17</ele>
        <time>2022-04-11T10:50:10Z</time>
      </trkpt>
      <trkpt lat="49.91861" lon="2.22728">
        <ele>17</ele>
        <time>2022-04-11T10:50:11Z</time>
      </trkpt>
      <trkpt lat="49.91861" lon="2.22728">
        <ele>17</ele>
        <time>2022-04-11T10:50:12Z</time>
      </trkpt>
      <trkpt lat="49.91861" lon="2.22728">
        <ele>17</ele>
        <time>2022-04-11T10:50:13Z</time>
      </trkpt>
      <trkpt lat="49.91861" lon="2.22728">
        <ele>17</ele>
        <time>2022-04-11T10:50:14Z</time>
      </trkpt>
      <trkpt lat="49.91861" lon="2.22728">
        <ele>17</ele>
        <time>2022-04-11T10:50:15Z</time>
      </trkpt>
      <trkpt lat="49.91861" lon="2.22728">
        <ele>17</ele>
        <time>2022-04-11T10:50:16Z</time>
      </trkpt>
      <trkpt lat="49.91861" lon="2.22728">
        <ele>17</ele>
        <time>2022-04-11T10:50:17Z</time>
      </trkpt>
      <trkpt lat="49.91861" lon="2.22728">
        <ele>17</ele>
        <time>2022-04-11T10:50:18Z</time>
      </trkpt>
      <trkpt lat="49.91861" lon="2.22728">
        <ele>17</ele>
        <time>2022-04-11T10:50:19Z</time>
      </trkpt>
      <trkpt lat="49.91861" lon="2.22728">
        <ele>17</ele>
        <time>2022-04-11T10:50:20Z</time>
      </trkpt>
      <trkpt lat="49.91861" lon="2.22728">
        <ele>17</ele>
        <time>2022-04-11T10:50:21Z</time>
      </trkpt>
      <trkpt lat="49.91861" lon="2.22728">
        <ele>17</ele>
        <time>2022-04-11T10:50:22Z</time>
      </trkpt>
      <trkpt lat="49.91861" lon="2.22728">
        <ele>17</ele>
        <time>2022-04-11T10:50:23Z</time>
      </trkpt>
      <trkpt lat="49.91861" lon="2.22728">
        <ele>17</ele>
        <time>2022-04-11T10:50:24Z</time>
      </trkpt>
      <trkpt lat="49.91861" lon="2.22728">
        <ele>17</ele>
        <time>2022-04-11T10:50:25Z</time>
      </trkpt>
      <trkpt lat="49.91861" lon="2.22728">
        <ele>17</ele>
        <time>2022-04-11T10:50:26Z</time>
      </trkpt>
      <trkpt lat="49.91861" lon="2.22728">
        <ele>17</ele>
        <time>2022-04-11T10:50:27Z</time>
      </trkpt>
      <trkpt lat="49.91861" lon="2.22728">
        <ele>17</ele>
        <time>2022-04-11T10:50:28Z</time>
      </trkpt>
      <trkpt lat="49.91861" lon="2.22728">
        <ele>17</ele>
        <time>2022-04-11T10:50:29Z</time>
      </trkpt>
      <trkpt lat="49.91861" lon="2.22728">
        <ele>17</ele>
        <time>2022-04-11T10:50:30Z</time>
      </trkpt>
      <trkpt lat="49.91861" lon="2.22728">
        <ele>17</ele>
        <time>2022-04-11T10:50:31Z</time>
      </trkpt>
      <trkpt lat="49.91861" lon="2.22728">
        <ele>17</ele>
        <time>2022-04-11T10:50:32Z</time>
      </trkpt>
      <trkpt lat="49.91861" lon="2.22728">
        <ele>17</ele>
        <time>2022-04-11T10:50:33Z</time>
      </trkpt>
      <trkpt lat="49.91861" lon="2.22728">
        <ele>17</ele>
        <time>2022-04-11T10:50:34Z</time>
      </trkpt>
      <trkpt lat="49.91863" lon="2.22729">
        <ele>17</ele>
        <time>2022-04-11T10:50:35Z</time>
      </trkpt>
      <trkpt lat="49.91864" lon="2.22727">
        <ele>17</ele>
        <time>2022-04-11T10:50:36Z</time>
      </trkpt>
      <trkpt lat="49.91865" lon="2.22728">
        <ele>16.9</ele>
        <time>2022-04-11T10:50:37Z</time>
      </trkpt>
      <trkpt lat="49.91865" lon="2.22729">
        <ele>16.9</ele>
        <time>2022-04-11T10:50:38Z</time>
      </trkpt>
      <trkpt lat="49.91866" lon="2.22729">
        <ele>16.9</ele>
        <time>2022-04-11T10:50:39Z</time>
      </trkpt>
      <trkpt lat="49.91866" lon="2.22729">
        <ele>16.9</ele>
        <time>2022-04-11T10:50:40Z</time>
      </trkpt>
      <trkpt lat="49.91866" lon="2.22729">
        <ele>16.9</ele>
        <time>2022-04-11T10:50:41Z</time>
      </trkpt>
      <trkpt lat="49.91866" lon="2.22729">
        <ele>16.9</ele>
        <time>2022-04-11T10:50:42Z</time>
      </trkpt>
      <trkpt lat="49.91866" lon="2.22729">
        <ele>16.9</ele>
        <time>2022-04-11T10:50:43Z</time>
      </trkpt>
      <trkpt lat="49.91866" lon="2.22729">
        <ele>16.9</ele>
        <time>2022-04-11T10:50:44Z</time>
      </trkpt>
      <trkpt lat="49.91866" lon="2.22729">
        <ele>16.9</ele>
        <time>2022-04-11T10:50:45Z</time>
      </trkpt>
      <trkpt lat="49.91866" lon="2.22729">
        <ele>16.9</ele>
        <time>2022-04-11T10:50:46Z</time>
      </trkpt>
      <trkpt lat="49.91866" lon="2.22729">
        <ele>16.9</ele>
        <time>2022-04-11T10:50:47Z</time>
      </trkpt>
      <trkpt lat="49.91866" lon="2.22729">
        <ele>16.9</ele>
        <time>2022-04-11T10:50:48Z</time>
      </trkpt>
      <trkpt lat="49.91866" lon="2.22729">
        <ele>16.9</ele>
        <time>2022-04-11T10:50:49Z</time>
      </trkpt>
      <trkpt lat="49.91866" lon="2.22729">
        <ele>16.9</ele>
        <time>2022-04-11T10:50:50Z</time>
      </trkpt>
      <trkpt lat="49.91866" lon="2.22729">
        <ele>16.9</ele>
        <time>2022-04-11T10:50:51Z</time>
      </trkpt>
      <trkpt lat="49.91866" lon="2.22729">
        <ele>16.9</ele>
        <time>2022-04-11T10:50:52Z</time>
      </trkpt>
      <trkpt lat="49.91866" lon="2.22729">
        <ele>16.9</ele>
        <time>2022-04-11T10:50:53Z</time>
      </trkpt>
      <trkpt lat="49.91866" lon="2.22729">
        <ele>16.9</ele>
        <time>2022-04-11T10:50:54Z</time>
      </trkpt>
      <trkpt lat="49.91866" lon="2.22729">
        <ele>16.9</ele>
        <time>2022-04-11T10:50:55Z</time>
      </trkpt>
      <trkpt lat="49.91866" lon="2.22729">
        <ele>16.9</ele>
        <time>2022-04-11T10:50:56Z</time>
      </trkpt>
      <trkpt lat="49.91866" lon="2.22729">
        <ele>16.9</ele>
        <time>2022-04-11T10:50:57Z</time>
      </trkpt>
      <trkpt lat="49.91866" lon="2.22729">
        <ele>16.9</ele>
        <time>2022-04-11T10:50:58Z</time>
      </trkpt>
      <trkpt lat="49.91866" lon="2.22729">
        <ele>16.9</ele>
        <time>2022-04-11T10:50:59Z</time>
      </trkpt>
      <trkpt lat="49.91866" lon="2.22729">
        <ele>16.9</ele>
        <time>2022-04-11T10:51:00Z</time>
      </trkpt>
      <trkpt lat="49.91866" lon="2.2273">
        <ele>16.9</ele>
        <time>2022-04-11T10:51:01Z</time>
      </trkpt>
      <trkpt lat="49.91866" lon="2.2273">
        <ele>16.9</ele>
        <time>2022-04-11T10:51:02Z</time>
      </trkpt>
      <trkpt lat="49.91866" lon="2.2273">
        <ele>16.9</ele>
        <time>2022-04-11T10:51:03Z</time>
      </trkpt>
      <trkpt lat="49.91866" lon="2.2273">
        <ele>16.9</ele>
        <time>2022-04-11T10:51:04Z</time>
      </trkpt>
      <trkpt lat="49.91866" lon="2.2273">
        <ele>16.9</ele>
        <time>2022-04-11T10:51:05Z</time>
      </trkpt>
      <trkpt lat="49.91866" lon="2.22729">
        <ele>16.9</ele>
        <time>2022-04-11T10:51:06Z</time>
      </trkpt>
      <trkpt lat="49.91866" lon="2.22729">
        <ele>16.9</ele>
        <time>2022-04-11T10:51:07Z</time>
      </trkpt>
      <trkpt lat="49.91866" lon="2.22729">
        <ele>16.9</ele>
        <time>2022-04-11T10:51:08Z</time>
      </trkpt>
      <trkpt lat="49.91866" lon="2.22729">
        <ele>16.9</ele>
        <time>2022-04-11T10:51:09Z</time>
      </trkpt>
      <trkpt lat="49.91866" lon="2.22729">
        <ele>16.9</ele>
        <time>2022-04-11T10:51:10Z</time>
      </trkpt>
      <trkpt lat="49.91866" lon="2.22729">
        <ele>16.9</ele>
        <time>2022-04-11T10:51:11Z</time>
      </trkpt>
      <trkpt lat="49.91866" lon="2.22729">
        <ele>16.9</ele>
        <time>2022-04-11T10:51:12Z</time>
      </trkpt>
      <trkpt lat="49.91866" lon="2.22729">
        <ele>16.9</ele>
        <time>2022-04-11T10:51:13Z</time>
      </trkpt>
      <trkpt lat="49.91866" lon="2.22729">
        <ele>16.9</ele>
        <time>2022-04-11T10:51:14Z</time>
      </trkpt>
      <trkpt lat="49.91866" lon="2.22729">
        <ele>16.9</ele>
        <time>2022-04-11T10:51:15Z</time>
      </trkpt>
      <trkpt lat="49.91866" lon="2.22729">
        <ele>16.9</ele>
        <time>2022-04-11T10:51:16Z</time>
      </trkpt>
      <trkpt lat="49.91866" lon="2.22729">
        <ele>16.9</ele>
        <time>2022-04-11T10:51:17Z</time>
      </trkpt>
      <trkpt lat="49.91866" lon="2.22729">
        <ele>16.9</ele>
        <time>2022-04-11T10:51:18Z</time>
      </trkpt>
      <trkpt lat="49.91866" lon="2.22729">
        <ele>16.9</ele>
        <time>2022-04-11T10:51:19Z</time>
      </trkpt>
      <trkpt lat="49.91866" lon="2.22729">
        <ele>16.9</ele>
        <time>2022-04-11T10:51:20Z</time>
      </trkpt>
      <trkpt lat="49.91866" lon="2.22729">
        <ele>16.9</ele>
        <time>2022-04-11T10:51:21Z</time>
      </trkpt>
      <trkpt lat="49.91866" lon="2.22729">
        <ele>16.9</ele>
        <time>2022-04-11T10:51:22Z</time>
      </trkpt>
      <trkpt lat="49.91866" lon="2.22729">
        <ele>16.9</ele>
        <time>2022-04-11T10:51:23Z</time>
      </trkpt>
      <trkpt lat="49.91866" lon="2.22729">
        <ele>16.9</ele>
        <time>2022-04-11T10:51:24Z</time>
      </trkpt>
      <trkpt lat="49.91866" lon="2.22729">
        <ele>16.9</ele>
        <time>2022-04-11T10:51:25Z</time>
      </trkpt>
      <trkpt lat="49.91866" lon="2.22729">
        <ele>16.9</ele>
        <time>2022-04-11T10:51:26Z</time>
      </trkpt>
      <trkpt lat="49.91866" lon="2.22729">
        <ele>16.9</ele>
        <time>2022-04-11T10:51:27Z</time>
      </trkpt>
      <trkpt lat="49.91866" lon="2.22729">
        <ele>16.9</ele>
        <time>2022-04-11T10:51:28Z</time>
      </trkpt>
      <trkpt lat="49.91866" lon="2.22729">
        <ele>16.9</ele>
        <time>2022-04-11T10:51:29Z</time>
      </trkpt>
      <trkpt lat="49.91866" lon="2.22729">
        <ele>16.9</ele>
        <time>2022-04-11T10:51:30Z</time>
      </trkpt>
      <trkpt lat="49.91866" lon="2.22729">
        <ele>16.9</ele>
        <time>2022-04-11T10:51:31Z</time>
      </trkpt>
      <trkpt lat="49.91866" lon="2.22729">
        <ele>16.9</ele>
        <time>2022-04-11T10:51:32Z</time>
      </trkpt>
      <trkpt lat="49.91866" lon="2.22729">
        <ele>16.9</ele>
        <time>2022-04-11T10:51:33Z</time>
      </trkpt>
      <trkpt lat="49.91866" lon="2.22729">
        <ele>16.9</ele>
        <time>2022-04-11T10:51:34Z</time>
      </trkpt>
      <trkpt lat="49.91866" lon="2.22729">
        <ele>16.9</ele>
        <time>2022-04-11T10:51:35Z</time>
      </trkpt>
      <trkpt lat="49.91866" lon="2.22729">
        <ele>16.9</ele>
        <time>2022-04-11T10:51:36Z</time>
      </trkpt>
      <trkpt lat="49.91866" lon="2.22729">
        <ele>16.9</ele>
        <time>2022-04-11T10:51:37Z</time>
      </trkpt>
      <trkpt lat="49.91866" lon="2.22729">
        <ele>16.9</ele>
        <time>2022-04-11T10:51:38Z</time>
      </trkpt>
      <trkpt lat="49.91866" lon="2.22729">
        <ele>16.9</ele>
        <time>2022-04-11T10:51:39Z</time>
      </trkpt>
      <trkpt lat="49.91866" lon="2.22729">
        <ele>16.9</ele>
        <time>2022-04-11T10:51:40Z</time>
      </trkpt>
      <trkpt lat="49.91866" lon="2.22729">
        <ele>16.9</ele>
        <time>2022-04-11T10:51:41Z</time>
      </trkpt>
      <trkpt lat="49.91866" lon="2.22729">
        <ele>16.9</ele>
        <time>2022-04-11T10:51:42Z</time>
      </trkpt>
      <trkpt lat="49.91866" lon="2.22729">
        <ele>16.9</ele>
        <time>2022-04-11T10:51:43Z</time>
      </trkpt>
      <trkpt lat="49.91866" lon="2.22729">
        <ele>16.9</ele>
        <time>2022-04-11T10:51:44Z</time>
      </trkpt>
      <trkpt lat="49.91866" lon="2.22729">
        <ele>16.9</ele>
        <time>2022-04-11T10:51:45Z</time>
      </trkpt>
      <trkpt lat="49.91866" lon="2.22729">
        <ele>16.9</ele>
        <time>2022-04-11T10:51:46Z</time>
      </trkpt>
      <trkpt lat="49.91866" lon="2.22729">
        <ele>16.9</ele>
        <time>2022-04-11T10:51:47Z</time>
      </trkpt>
      <trkpt lat="49.91866" lon="2.22729">
        <ele>16.9</ele>
        <time>2022-04-11T10:51:48Z</time>
      </trkpt>
      <trkpt lat="49.91866" lon="2.22729">
        <ele>16.9</ele>
        <time>2022-04-11T10:51:49Z</time>
      </trkpt>
      <trkpt lat="49.91866" lon="2.22729">
        <ele>16.9</ele>
        <time>2022-04-11T10:51:50Z</time>
      </trkpt>
      <trkpt lat="49.91866" lon="2.22729">
        <ele>16.9</ele>
        <time>2022-04-11T10:51:51Z</time>
      </trkpt>
      <trkpt lat="49.91866" lon="2.22729">
        <ele>16.9</ele>
        <time>2022-04-11T10:51:52Z</time>
      </trkpt>
      <trkpt lat="49.91866" lon="2.22729">
        <ele>16.9</ele>
        <time>2022-04-11T10:51:53Z</time>
      </trkpt>
      <trkpt lat="49.91866" lon="2.22729">
        <ele>16.9</ele>
        <time>2022-04-11T10:51:54Z</time>
      </trkpt>
      <trkpt lat="49.91866" lon="2.22729">
        <ele>16.9</ele>
        <time>2022-04-11T10:51:55Z</time>
      </trkpt>
      <trkpt lat="49.91866" lon="2.22729">
        <ele>16.9</ele>
        <time>2022-04-11T10:51:56Z</time>
      </trkpt>
      <trkpt lat="49.91866" lon="2.22729">
        <ele>16.9</ele>
        <time>2022-04-11T10:51:57Z</time>
      </trkpt>
      <trkpt lat="49.91866" lon="2.22729">
        <ele>16.9</ele>
        <time>2022-04-11T10:51:58Z</time>
      </trkpt>
      <trkpt lat="49.91866" lon="2.22729">
        <ele>16.9</ele>
        <time>2022-04-11T10:51:59Z</time>
      </trkpt>
      <trkpt lat="49.91866" lon="2.22729">
        <ele>16.9</ele>
        <time>2022-04-11T10:52:00Z</time>
      </trkpt>
      <trkpt lat="49.91866" lon="2.22729">
        <ele>16.9</ele>
        <time>2022-04-11T10:52:01Z</time>
      </trkpt>
      <trkpt lat="49.91866" lon="2.22729">
        <ele>16.9</ele>
        <time>2022-04-11T10:52:02Z</time>
      </trkpt>
      <trkpt lat="49.91866" lon="2.22729">
        <ele>16.9</ele>
        <time>2022-04-11T10:52:03Z</time>
      </trkpt>
      <trkpt lat="49.91866" lon="2.22729">
        <ele>16.9</ele>
        <time>2022-04-11T10:52:04Z</time>
      </trkpt>
      <trkpt lat="49.91866" lon="2.22729">
        <ele>16.9</ele>
        <time>2022-04-11T10:52:05Z</time>
      </trkpt>
      <trkpt lat="49.91866" lon="2.22729">
        <ele>16.9</ele>
        <time>2022-04-11T10:52:06Z</time>
      </trkpt>
      <trkpt lat="49.91866" lon="2.22729">
        <ele>16.9</ele>
        <time>2022-04-11T10:52:07Z</time>
      </trkpt>
      <trkpt lat="49.91866" lon="2.22729">
        <ele>16.9</ele>
        <time>2022-04-11T10:52:08Z</time>
      </trkpt>
      <trkpt lat="49.91866" lon="2.22729">
        <ele>16.9</ele>
        <time>2022-04-11T10:52:09Z</time>
      </trkpt>
      <trkpt lat="49.91866" lon="2.22729">
        <ele>16.9</ele>
        <time>2022-04-11T10:52:10Z</time>
      </trkpt>
      <trkpt lat="49.91866" lon="2.22729">
        <ele>16.9</ele>
        <time>2022-04-11T10:52:11Z</time>
      </trkpt>
      <trkpt lat="49.91866" lon="2.22729">
        <ele>16.9</ele>
        <time>2022-04-11T10:52:12Z</time>
      </trkpt>
      <trkpt lat="49.91866" lon="2.22729">
        <ele>16.9</ele>
        <time>2022-04-11T10:52:13Z</time>
      </trkpt>
      <trkpt lat="49.91866" lon="2.22729">
        <ele>16.9</ele>
        <time>2022-04-11T10:52:14Z</time>
      </trkpt>
      <trkpt lat="49.91866" lon="2.22729">
        <ele>16.9</ele>
        <time>2022-04-11T10:52:15Z</time>
      </trkpt>
      <trkpt lat="49.91866" lon="2.22729">
        <ele>16.9</ele>
        <time>2022-04-11T10:52:16Z</time>
      </trkpt>
      <trkpt lat="49.91866" lon="2.22729">
        <ele>16.9</ele>
        <time>2022-04-11T10:52:17Z</time>
      </trkpt>
      <trkpt lat="49.91866" lon="2.22729">
        <ele>16.9</ele>
        <time>2022-04-11T10:52:18Z</time>
      </trkpt>
      <trkpt lat="49.91866" lon="2.22729">
        <ele>16.9</ele>
        <time>2022-04-11T10:52:19Z</time>
      </trkpt>
      <trkpt lat="49.91866" lon="2.22729">
        <ele>16.9</ele>
        <time>2022-04-11T10:52:20Z</time>
      </trkpt>
      <trkpt lat="49.91866" lon="2.22729">
        <ele>16.9</ele>
        <time>2022-04-11T10:52:21Z</time>
      </trkpt>
      <trkpt lat="49.91866" lon="2.22729">
        <ele>16.9</ele>
        <time>2022-04-11T10:52:22Z</time>
      </trkpt>
      <trkpt lat="49.91866" lon="2.22729">
        <ele>16.9</ele>
        <time>2022-04-11T10:52:23Z</time>
      </trkpt>
      <trkpt lat="49.91866" lon="2.22729">
        <ele>16.9</ele>
        <time>2022-04-11T10:52:24Z</time>
      </trkpt>
      <trkpt lat="49.91866" lon="2.22729">
        <ele>16.9</ele>
        <time>2022-04-11T10:52:25Z</time>
      </trkpt>
      <trkpt lat="49.91866" lon="2.22729">
        <ele>16.9</ele>
        <time>2022-04-11T10:52:26Z</time>
      </trkpt>
      <trkpt lat="49.91866" lon="2.22729">
        <ele>16.9</ele>
        <time>2022-04-11T10:52:27Z</time>
      </trkpt>
      <trkpt lat="49.91866" lon="2.22729">
        <ele>16.9</ele>
        <time>2022-04-11T10:52:28Z</time>
      </trkpt>
      <trkpt lat="49.91866" lon="2.22729">
        <ele>16.9</ele>
        <time>2022-04-11T10:52:29Z</time>
      </trkpt>
      <trkpt lat="49.91866" lon="2.22729">
        <ele>16.9</ele>
        <time>2022-04-11T10:52:30Z</time>
      </trkpt>
      <trkpt lat="49.91866" lon="2.22729">
        <ele>16.9</ele>
        <time>2022-04-11T10:52:31Z</time>
      </trkpt>
      <trkpt lat="49.91866" lon="2.22729">
        <ele>16.9</ele>
        <time>2022-04-11T10:52:32Z</time>
      </trkpt>
      <trkpt lat="49.91866" lon="2.22729">
        <ele>16.9</ele>
        <time>2022-04-11T10:52:33Z</time>
      </trkpt>
      <trkpt lat="49.91866" lon="2.22729">
        <ele>16.9</ele>
        <time>2022-04-11T10:52:34Z</time>
      </trkpt>
      <trkpt lat="49.91866" lon="2.22729">
        <ele>16.9</ele>
        <time>2022-04-11T10:52:35Z</time>
      </trkpt>
      <trkpt lat="49.91866" lon="2.22729">
        <ele>16.9</ele>
        <time>2022-04-11T10:52:36Z</time>
      </trkpt>
      <trkpt lat="49.91866" lon="2.22729">
        <ele>16.9</ele>
        <time>2022-04-11T10:52:37Z</time>
      </trkpt>
      <trkpt lat="49.91866" lon="2.22729">
        <ele>16.9</ele>
        <time>2022-04-11T10:52:38Z</time>
      </trkpt>
      <trkpt lat="49.91866" lon="2.22729">
        <ele>16.9</ele>
        <time>2022-04-11T10:52:39Z</time>
      </trkpt>
      <trkpt lat="49.91867" lon="2.22728">
        <ele>16.9</ele>
        <time>2022-04-11T10:52:40Z</time>
      </trkpt>
      <trkpt lat="49.91869" lon="2.22727">
        <ele>16.9</ele>
        <time>2022-04-11T10:52:41Z</time>
      </trkpt>
      <trkpt lat="49.91869" lon="2.22726">
        <ele>16.9</ele>
        <time>2022-04-11T10:52:42Z</time>
      </trkpt>
      <trkpt lat="49.91871" lon="2.22724">
        <ele>16.9</ele>
        <time>2022-04-11T10:52:43Z</time>
      </trkpt>
      <trkpt lat="49.91871" lon="2.22724">
        <ele>16.9</ele>
        <time>2022-04-11T10:52:44Z</time>
      </trkpt>
      <trkpt lat="49.91871" lon="2.22724">
        <ele>16.9</ele>
        <time>2022-04-11T10:52:45Z</time>
      </trkpt>
      <trkpt lat="49.91871" lon="2.22724">
        <ele>16.9</ele>
        <time>2022-04-11T10:52:46Z</time>
      </trkpt>
      <trkpt lat="49.91871" lon="2.22724">
        <ele>16.9</ele>
        <time>2022-04-11T10:52:47Z</time>
      </trkpt>
      <trkpt lat="49.91871" lon="2.22724">
        <ele>16.9</ele>
        <time>2022-04-11T10:52:48Z</time>
      </trkpt>
      <trkpt lat="49.91871" lon="2.22724">
        <ele>16.9</ele>
        <time>2022-04-11T10:52:49Z</time>
      </trkpt>
      <trkpt lat="49.91871" lon="2.22724">
        <ele>16.9</ele>
        <time>2022-04-11T10:52:50Z</time>
      </trkpt>
      <trkpt lat="49.91871" lon="2.22724">
        <ele>16.9</ele>
        <time>2022-04-11T10:52:51Z</time>
      </trkpt>
      <trkpt lat="49.91871" lon="2.22724">
        <ele>16.9</ele>
        <time>2022-04-11T10:52:52Z</time>
      </trkpt>
      <trkpt lat="49.91871" lon="2.22724">
        <ele>16.9</ele>
        <time>2022-04-11T10:52:53Z</time>
      </trkpt>
      <trkpt lat="49.91871" lon="2.22724">
        <ele>16.9</ele>
        <time>2022-04-11T10:52:54Z</time>
      </trkpt>
      <trkpt lat="49.91871" lon="2.22724">
        <ele>16.9</ele>
        <time>2022-04-11T10:52:55Z</time>
      </trkpt>
      <trkpt lat="49.91871" lon="2.22724">
        <ele>16.9</ele>
        <time>2022-04-11T10:52:56Z</time>
      </trkpt>
      <trkpt lat="49.91871" lon="2.22724">
        <ele>16.9</ele>
        <time>2022-04-11T10:52:57Z</time>
      </trkpt>
      <trkpt lat="49.91871" lon="2.22724">
        <ele>16.9</ele>
        <time>2022-04-11T10:52:58Z</time>
      </trkpt>
      <trkpt lat="49.91871" lon="2.22724">
        <ele>16.9</ele>
        <time>2022-04-11T10:52:59Z</time>
      </trkpt>
      <trkpt lat="49.91871" lon="2.22724">
        <ele>16.9</ele>
        <time>2022-04-11T10:53:00Z</time>
      </trkpt>
      <trkpt lat="49.91871" lon="2.22724">
        <ele>16.9</ele>
        <time>2022-04-11T10:53:01Z</time>
      </trkpt>
      <trkpt lat="49.91871" lon="2.22724">
        <ele>16.9</ele>
        <time>2022-04-11T10:53:02Z</time>
      </trkpt>
      <trkpt lat="49.91871" lon="2.22724">
        <ele>16.9</ele>
        <time>2022-04-11T10:53:03Z</time>
      </trkpt>
      <trkpt lat="49.91871" lon="2.22724">
        <ele>16.9</ele>
        <time>2022-04-11T10:53:04Z</time>
      </trkpt>
      <trkpt lat="49.91871" lon="2.22724">
        <ele>16.9</ele>
        <time>2022-04-11T10:53:05Z</time>
      </trkpt>
      <trkpt lat="49.91871" lon="2.22724">
        <ele>16.9</ele>
        <time>2022-04-11T10:53:06Z</time>
      </trkpt>
      <trkpt lat="49.91871" lon="2.22724">
        <ele>16.9</ele>
        <time>2022-04-11T10:53:07Z</time>
      </trkpt>
      <trkpt lat="49.9187" lon="2.22724">
        <ele>16.9</ele>
        <time>2022-04-11T10:53:08Z</time>
      </trkpt>
      <trkpt lat="49.9187" lon="2.22724">
        <ele>16.9</ele>
        <time>2022-04-11T10:53:09Z</time>
      </trkpt>
      <trkpt lat="49.9187" lon="2.22724">
        <ele>16.9</ele>
        <time>2022-04-11T10:53:10Z</time>
      </trkpt>
      <trkpt lat="49.9187" lon="2.22724">
        <ele>16.9</ele>
        <time>2022-04-11T10:53:11Z</time>
      </trkpt>
      <trkpt lat="49.9187" lon="2.22724">
        <ele>16.9</ele>
        <time>2022-04-11T10:53:12Z</time>
      </trkpt>
      <trkpt lat="49.9187" lon="2.22724">
        <ele>16.9</ele>
        <time>2022-04-11T10:53:13Z</time>
      </trkpt>
      <trkpt lat="49.9187" lon="2.22724">
        <ele>16.9</ele>
        <time>2022-04-11T10:53:14Z</time>
      </trkpt>
      <trkpt lat="49.9187" lon="2.22724">
        <ele>16.9</ele>
        <time>2022-04-11T10:53:15Z</time>
      </trkpt>
      <trkpt lat="49.9187" lon="2.22724">
        <ele>16.9</ele>
        <time>2022-04-11T10:53:16Z</time>
      </trkpt>
      <trkpt lat="49.9187" lon="2.22724">
        <ele>16.9</ele>
        <time>2022-04-11T10:53:17Z</time>
      </trkpt>
      <trkpt lat="49.9187" lon="2.22724">
        <ele>16.9</ele>
        <time>2022-04-11T10:53:18Z</time>
      </trkpt>
      <trkpt lat="49.9187" lon="2.22724">
        <ele>16.9</ele>
        <time>2022-04-11T10:53:19Z</time>
      </trkpt>
      <trkpt lat="49.9187" lon="2.22724">
        <ele>16.9</ele>
        <time>2022-04-11T10:53:20Z</time>
      </trkpt>
      <trkpt lat="49.9187" lon="2.22724">
        <ele>16.9</ele>
        <time>2022-04-11T10:53:21Z</time>
      </trkpt>
      <trkpt lat="49.9187" lon="2.22724">
        <ele>16.9</ele>
        <time>2022-04-11T10:53:22Z</time>
      </trkpt>
      <trkpt lat="49.9187" lon="2.22724">
        <ele>16.9</ele>
        <time>2022-04-11T10:53:23Z</time>
      </trkpt>
      <trkpt lat="49.9187" lon="2.22723">
        <ele>16.9</ele>
        <time>2022-04-11T10:53:24Z</time>
      </trkpt>
      <trkpt lat="49.9187" lon="2.22723">
        <ele>16.9</ele>
        <time>2022-04-11T10:53:25Z</time>
      </trkpt>
      <trkpt lat="49.9187" lon="2.22723">
        <ele>16.9</ele>
        <time>2022-04-11T10:53:26Z</time>
      </trkpt>
      <trkpt lat="49.9187" lon="2.22723">
        <ele>16.9</ele>
        <time>2022-04-11T10:53:27Z</time>
      </trkpt>
      <trkpt lat="49.9187" lon="2.22723">
        <ele>16.9</ele>
        <time>2022-04-11T10:53:28Z</time>
      </trkpt>
      <trkpt lat="49.9187" lon="2.22723">
        <ele>16.9</ele>
        <time>2022-04-11T10:53:29Z</time>
      </trkpt>
      <trkpt lat="49.9187" lon="2.22723">
        <ele>16.9</ele>
        <time>2022-04-11T10:53:30Z</time>
      </trkpt>
      <trkpt lat="49.9187" lon="2.22723">
        <ele>16.9</ele>
        <time>2022-04-11T10:53:31Z</time>
      </trkpt>
      <trkpt lat="49.9187" lon="2.22723">
        <ele>16.9</ele>
        <time>2022-04-11T10:53:32Z</time>
      </trkpt>
      <trkpt lat="49.9187" lon="2.22723">
        <ele>16.9</ele>
        <time>2022-04-11T10:53:33Z</time>
      </trkpt>
      <trkpt lat="49.9187" lon="2.22723">
        <ele>16.9</ele>
        <time>2022-04-11T10:53:34Z</time>
      </trkpt>
      <trkpt lat="49.9187" lon="2.22723">
        <ele>16.9</ele>
        <time>2022-04-11T10:53:35Z</time>
      </trkpt>
      <trkpt lat="49.9187" lon="2.22723">
        <ele>16.9</ele>
        <time>2022-04-11T10:53:36Z</time>
      </trkpt>
      <trkpt lat="49.9187" lon="2.22723">
        <ele>16.9</ele>
        <time>2022-04-11T10:53:37Z</time>
      </trkpt>
      <trkpt lat="49.9187" lon="2.22723">
        <ele>16.9</ele>
        <time>2022-04-11T10:53:38Z</time>
      </trkpt>
      <trkpt lat="49.9187" lon="2.22723">
        <ele>16.9</ele>
        <time>2022-04-11T10:53:39Z</time>
      </trkpt>
      <trkpt lat="49.9187" lon="2.22723">
        <ele>16.9</ele>
        <time>2022-04-11T10:53:40Z</time>
      </trkpt>
      <trkpt lat="49.9187" lon="2.22723">
        <ele>16.9</ele>
        <time>2022-04-11T10:53:41Z</time>
      </trkpt>
      <trkpt lat="49.9187" lon="2.22723">
        <ele>16.9</ele>
        <time>2022-04-11T10:53:42Z</time>
      </trkpt>
      <trkpt lat="49.9187" lon="2.22723">
        <ele>16.9</ele>
        <time>2022-04-11T10:53:43Z</time>
      </trkpt>
      <trkpt lat="49.9187" lon="2.22723">
        <ele>16.9</ele>
        <time>2022-04-11T10:53:44Z</time>
      </trkpt>
      <trkpt lat="49.9187" lon="2.22723">
        <ele>16.9</ele>
        <time>2022-04-11T10:53:45Z</time>
      </trkpt>
      <trkpt lat="49.9187" lon="2.22723">
        <ele>16.9</ele>
        <time>2022-04-11T10:53:46Z</time>
      </trkpt>
      <trkpt lat="49.9187" lon="2.22723">
        <ele>16.9</ele>
        <time>2022-04-11T10:53:47Z</time>
      </trkpt>
      <trkpt lat="49.9187" lon="2.22723">
        <ele>16.9</ele>
        <time>2022-04-11T10:53:48Z</time>
      </trkpt>
      <trkpt lat="49.9187" lon="2.22723">
        <ele>16.9</ele>
        <time>2022-04-11T10:53:49Z</time>
      </trkpt>
      <trkpt lat="49.9187" lon="2.22723">
        <ele>16.9</ele>
        <time>2022-04-11T10:53:50Z</time>
      </trkpt>
      <trkpt lat="49.9187" lon="2.22723">
        <ele>16.9</ele>
        <time>2022-04-11T10:53:51Z</time>
      </trkpt>
      <trkpt lat="49.9187" lon="2.22723">
        <ele>16.9</ele>
        <time>2022-04-11T10:53:52Z</time>
      </trkpt>
      <trkpt lat="49.9187" lon="2.22723">
        <ele>16.9</ele>
        <time>2022-04-11T10:53:53Z</time>
      </trkpt>
      <trkpt lat="49.9187" lon="2.22723">
        <ele>16.9</ele>
        <time>2022-04-11T10:53:54Z</time>
      </trkpt>
      <trkpt lat="49.9187" lon="2.22723">
        <ele>16.9</ele>
        <time>2022-04-11T10:53:55Z</time>
      </trkpt>
      <trkpt lat="49.9187" lon="2.22723">
        <ele>16.9</ele>
        <time>2022-04-11T10:53:56Z</time>
      </trkpt>
      <trkpt lat="49.9187" lon="2.22723">
        <ele>16.9</ele>
        <time>2022-04-11T10:53:57Z</time>
      </trkpt>
      <trkpt lat="49.9187" lon="2.22723">
        <ele>16.9</ele>
        <time>2022-04-11T10:53:58Z</time>
      </trkpt>
      <trkpt lat="49.9187" lon="2.22723">
        <ele>16.9</ele>
        <time>2022-04-11T10:53:59Z</time>
      </trkpt>
      <trkpt lat="49.9187" lon="2.22723">
        <ele>16.9</ele>
        <time>2022-04-11T10:54:00Z</time>
      </trkpt>
      <trkpt lat="49.9187" lon="2.22723">
        <ele>16.9</ele>
        <time>2022-04-11T10:54:01Z</time>
      </trkpt>
      <trkpt lat="49.9187" lon="2.22723">
        <ele>16.9</ele>
        <time>2022-04-11T10:54:02Z</time>
      </trkpt>
      <trkpt lat="49.9187" lon="2.22723">
        <ele>16.9</ele>
        <time>2022-04-11T10:54:03Z</time>
      </trkpt>
      <trkpt lat="49.9187" lon="2.22723">
        <ele>16.9</ele>
        <time>2022-04-11T10:54:04Z</time>
      </trkpt>
      <trkpt lat="49.9187" lon="2.22723">
        <ele>16.9</ele>
        <time>2022-04-11T10:54:05Z</time>
      </trkpt>
      <trkpt lat="49.9187" lon="2.22723">
        <ele>16.9</ele>
        <time>2022-04-11T10:54:06Z</time>
      </trkpt>
      <trkpt lat="49.9187" lon="2.22723">
        <ele>16.9</ele>
        <time>2022-04-11T10:54:07Z</time>
      </trkpt>
      <trkpt lat="49.9187" lon="2.22723">
        <ele>16.9</ele>
        <time>2022-04-11T10:54:08Z</time>
      </trkpt>
      <trkpt lat="49.9187" lon="2.22723">
        <ele>16.9</ele>
        <time>2022-04-11T10:54:09Z</time>
      </trkpt>
      <trkpt lat="49.9187" lon="2.22723">
        <ele>16.9</ele>
        <time>2022-04-11T10:54:10Z</time>
      </trkpt>
      <trkpt lat="49.9187" lon="2.22723">
        <ele>16.9</ele>
        <time>2022-04-11T10:54:11Z</time>
      </trkpt>
      <trkpt lat="49.9187" lon="2.22723">
        <ele>16.9</ele>
        <time>2022-04-11T10:54:12Z</time>
      </trkpt>
      <trkpt lat="49.9187" lon="2.22723">
        <ele>16.9</ele>
        <time>2022-04-11T10:54:13Z</time>
      </trkpt>
      <trkpt lat="49.91869" lon="2.22723">
        <ele>16.9</ele>
        <time>2022-04-11T10:54:14Z</time>
      </trkpt>
      <trkpt lat="49.91869" lon="2.22723">
        <ele>16.9</ele>
        <time>2022-04-11T10:54:15Z</time>
      </trkpt>
      <trkpt lat="49.91869" lon="2.22723">
        <ele>16.9</ele>
        <time>2022-04-11T10:54:16Z</time>
      </trkpt>
      <trkpt lat="49.91869" lon="2.22723">
        <ele>16.9</ele>
        <time>2022-04-11T10:54:17Z</time>
      </trkpt>
      <trkpt lat="49.91869" lon="2.22723">
        <ele>16.9</ele>
        <time>2022-04-11T10:54:18Z</time>
      </trkpt>
      <trkpt lat="49.91869" lon="2.22723">
        <ele>16.9</ele>
        <time>2022-04-11T10:54:19Z</time>
      </trkpt>
      <trkpt lat="49.91869" lon="2.22723">
        <ele>16.9</ele>
        <time>2022-04-11T10:54:20Z</time>
      </trkpt>
      <trkpt lat="49.91869" lon="2.22723">
        <ele>16.9</ele>
        <time>2022-04-11T10:54:21Z</time>
      </trkpt>
      <trkpt lat="49.91869" lon="2.22723">
        <ele>16.9</ele>
        <time>2022-04-11T10:54:22Z</time>
      </trkpt>
      <trkpt lat="49.91869" lon="2.22723">
        <ele>16.9</ele>
        <time>2022-04-11T10:54:23Z</time>
      </trkpt>
      <trkpt lat="49.91869" lon="2.22723">
        <ele>16.9</ele>
        <time>2022-04-11T10:54:24Z</time>
      </trkpt>
      <trkpt lat="49.91869" lon="2.22723">
        <ele>16.9</ele>
        <time>2022-04-11T10:54:25Z</time>
      </trkpt>
      <trkpt lat="49.91869" lon="2.22723">
        <ele>16.9</ele>
        <time>2022-04-11T10:54:26Z</time>
      </trkpt>
      <trkpt lat="49.91869" lon="2.22723">
        <ele>16.9</ele>
        <time>2022-04-11T10:54:27Z</time>
      </trkpt>
      <trkpt lat="49.91869" lon="2.22723">
        <ele>16.9</ele>
        <time>2022-04-11T10:54:28Z</time>
      </trkpt>
      <trkpt lat="49.91869" lon="2.22723">
        <ele>16.9</ele>
        <time>2022-04-11T10:54:29Z</time>
      </trkpt>
      <trkpt lat="49.91869" lon="2.22723">
        <ele>16.9</ele>
        <time>2022-04-11T10:54:30Z</time>
      </trkpt>
      <trkpt lat="49.91869" lon="2.22723">
        <ele>16.9</ele>
        <time>2022-04-11T10:54:31Z</time>
      </trkpt>
      <trkpt lat="49.91869" lon="2.22723">
        <ele>16.9</ele>
        <time>2022-04-11T10:54:32Z</time>
      </trkpt>
      <trkpt lat="49.91869" lon="2.22723">
        <ele>16.9</ele>
        <time>2022-04-11T10:54:33Z</time>
      </trkpt>
      <trkpt lat="49.91869" lon="2.22723">
        <ele>16.9</ele>
        <time>2022-04-11T10:54:34Z</time>
      </trkpt>
      <trkpt lat="49.91869" lon="2.22723">
        <ele>16.9</ele>
        <time>2022-04-11T10:54:35Z</time>
      </trkpt>
      <trkpt lat="49.91869" lon="2.22723">
        <ele>16.9</ele>
        <time>2022-04-11T10:54:36Z</time>
      </trkpt>
      <trkpt lat="49.91869" lon="2.22723">
        <ele>16.9</ele>
        <time>2022-04-11T10:54:37Z</time>
      </trkpt>
      <trkpt lat="49.91869" lon="2.22723">
        <ele>16.9</ele>
        <time>2022-04-11T10:54:38Z</time>
      </trkpt>
      <trkpt lat="49.91869" lon="2.22723">
        <ele>16.9</ele>
        <time>2022-04-11T10:54:39Z</time>
      </trkpt>
      <trkpt lat="49.91869" lon="2.22723">
        <ele>16.9</ele>
        <time>2022-04-11T10:54:40Z</time>
      </trkpt>
      <trkpt lat="49.91869" lon="2.22723">
        <ele>16.9</ele>
        <time>2022-04-11T10:54:41Z</time>
      </trkpt>
      <trkpt lat="49.91869" lon="2.22723">
        <ele>16.9</ele>
        <time>2022-04-11T10:54:42Z</time>
      </trkpt>
      <trkpt lat="49.91869" lon="2.22723">
        <ele>16.9</ele>
        <time>2022-04-11T10:54:43Z</time>
      </trkpt>
      <trkpt lat="49.91869" lon="2.22723">
        <ele>16.9</ele>
        <time>2022-04-11T10:54:44Z</time>
      </trkpt>
      <trkpt lat="49.91869" lon="2.22723">
        <ele>16.9</ele>
        <time>2022-04-11T10:54:45Z</time>
      </trkpt>
      <trkpt lat="49.91869" lon="2.22723">
        <ele>16.9</ele>
        <time>2022-04-11T10:54:46Z</time>
      </trkpt>
      <trkpt lat="49.91869" lon="2.22723">
        <ele>16.9</ele>
        <time>2022-04-11T10:54:47Z</time>
      </trkpt>
      <trkpt lat="49.91869" lon="2.22723">
        <ele>16.9</ele>
        <time>2022-04-11T10:54:48Z</time>
      </trkpt>
      <trkpt lat="49.91869" lon="2.22723">
        <ele>16.9</ele>
        <time>2022-04-11T10:54:49Z</time>
      </trkpt>
      <trkpt lat="49.91869" lon="2.22723">
        <ele>16.9</ele>
        <time>2022-04-11T10:54:50Z</time>
      </trkpt>
      <trkpt lat="49.91869" lon="2.22723">
        <ele>16.9</ele>
        <time>2022-04-11T10:54:51Z</time>
      </trkpt>
      <trkpt lat="49.91869" lon="2.22723">
        <ele>16.9</ele>
        <time>2022-04-11T10:54:52Z</time>
      </trkpt>
      <trkpt lat="49.91869" lon="2.22723">
        <ele>16.9</ele>
        <time>2022-04-11T10:54:53Z</time>
      </trkpt>
      <trkpt lat="49.91869" lon="2.22723">
        <ele>16.9</ele>
        <time>2022-04-11T10:54:54Z</time>
      </trkpt>
      <trkpt lat="49.91869" lon="2.22723">
        <ele>16.9</ele>
        <time>2022-04-11T10:54:55Z</time>
      </trkpt>
      <trkpt lat="49.91869" lon="2.22723">
        <ele>16.9</ele>
        <time>2022-04-11T10:54:56Z</time>
      </trkpt>
      <trkpt lat="49.91869" lon="2.22723">
        <ele>16.9</ele>
        <time>2022-04-11T10:54:57Z</time>
      </trkpt>
      <trkpt lat="49.91869" lon="2.22723">
        <ele>16.9</ele>
        <time>2022-04-11T10:54:58Z</time>
      </trkpt>
      <trkpt lat="49.91869" lon="2.22723">
        <ele>16.9</ele>
        <time>2022-04-11T10:54:59Z</time>
      </trkpt>
      <trkpt lat="49.91869" lon="2.22723">
        <ele>16.9</ele>
        <time>2022-04-11T10:55:00Z</time>
      </trkpt>
      <trkpt lat="49.91869" lon="2.22723">
        <ele>16.9</ele>
        <time>2022-04-11T10:55:01Z</time>
      </trkpt>
      <trkpt lat="49.91869" lon="2.22723">
        <ele>16.9</ele>
        <time>2022-04-11T10:55:02Z</time>
      </trkpt>
      <trkpt lat="49.91869" lon="2.22723">
        <ele>16.9</ele>
        <time>2022-04-11T10:55:03Z</time>
      </trkpt>
      <trkpt lat="49.91869" lon="2.22723">
        <ele>16.9</ele>
        <time>2022-04-11T10:55:04Z</time>
      </trkpt>
      <trkpt lat="49.91869" lon="2.22723">
        <ele>16.9</ele>
        <time>2022-04-11T10:55:05Z</time>
      </trkpt>
      <trkpt lat="49.91869" lon="2.22723">
        <ele>16.9</ele>
        <time>2022-04-11T10:55:06Z</time>
      </trkpt>
      <trkpt lat="49.91869" lon="2.22723">
        <ele>16.9</ele>
        <time>2022-04-11T10:55:07Z</time>
      </trkpt>
      <trkpt lat="49.91869" lon="2.22723">
        <ele>16.9</ele>
        <time>2022-04-11T10:55:08Z</time>
      </trkpt>
      <trkpt lat="49.91869" lon="2.22723">
        <ele>16.9</ele>
        <time>2022-04-11T10:55:09Z</time>
      </trkpt>
      <trkpt lat="49.91869" lon="2.22723">
        <ele>16.9</ele>
        <time>2022-04-11T10:55:10Z</time>
      </trkpt>
      <trkpt lat="49.91869" lon="2.22723">
        <ele>16.9</ele>
        <time>2022-04-11T10:55:11Z</time>
      </trkpt>
      <trkpt lat="49.91869" lon="2.22723">
        <ele>16.9</ele>
        <time>2022-04-11T10:55:12Z</time>
      </trkpt>
      <trkpt lat="49.91869" lon="2.22723">
        <ele>16.9</ele>
        <time>2022-04-11T10:55:13Z</time>
      </trkpt>
      <trkpt lat="49.91869" lon="2.22722">
        <ele>16.9</ele>
        <time>2022-04-11T10:55:14Z</time>
      </trkpt>
      <trkpt lat="49.91869" lon="2.22722">
        <ele>16.9</ele>
        <time>2022-04-11T10:55:15Z</time>
      </trkpt>
      <trkpt lat="49.91869" lon="2.22722">
        <ele>16.9</ele>
        <time>2022-04-11T10:55:16Z</time>
      </trkpt>
      <trkpt lat="49.91869" lon="2.22722">
        <ele>16.9</ele>
        <time>2022-04-11T10:55:17Z</time>
      </trkpt>
      <trkpt lat="49.91869" lon="2.22722">
        <ele>16.9</ele>
        <time>2022-04-11T10:55:18Z</time>
      </trkpt>
      <trkpt lat="49.91868" lon="2.22722">
        <ele>16.9</ele>
        <time>2022-04-11T10:55:19Z</time>
      </trkpt>
      <trkpt lat="49.91868" lon="2.22722">
        <ele>16.9</ele>
        <time>2022-04-11T10:55:20Z</time>
      </trkpt>
      <trkpt lat="49.91868" lon="2.22722">
        <ele>16.9</ele>
        <time>2022-04-11T10:55:21Z</time>
      </trkpt>
      <trkpt lat="49.91868" lon="2.22722">
        <ele>16.9</ele>
        <time>2022-04-11T10:55:22Z</time>
      </trkpt>
      <trkpt lat="49.91868" lon="2.22722">
        <ele>16.9</ele>
        <time>2022-04-11T10:55:23Z</time>
      </trkpt>
      <trkpt lat="49.91868" lon="2.22722">
        <ele>16.9</ele>
        <time>2022-04-11T10:55:24Z</time>
      </trkpt>
      <trkpt lat="49.91868" lon="2.22722">
        <ele>16.9</ele>
        <time>2022-04-11T10:55:25Z</time>
      </trkpt>
      <trkpt lat="49.91868" lon="2.22722">
        <ele>16.9</ele>
        <time>2022-04-11T10:55:26Z</time>
      </trkpt>
      <trkpt lat="49.91868" lon="2.22722">
        <ele>16.9</ele>
        <time>2022-04-11T10:55:27Z</time>
      </trkpt>
      <trkpt lat="49.91868" lon="2.22722">
        <ele>16.9</ele>
        <time>2022-04-11T10:55:28Z</time>
      </trkpt>
      <trkpt lat="49.91868" lon="2.22722">
        <ele>16.9</ele>
        <time>2022-04-11T10:55:29Z</time>
      </trkpt>
      <trkpt lat="49.91868" lon="2.22722">
        <ele>16.9</ele>
        <time>2022-04-11T10:55:30Z</time>
      </trkpt>
      <trkpt lat="49.91868" lon="2.22722">
        <ele>16.9</ele>
        <time>2022-04-11T10:55:31Z</time>
      </trkpt>
      <trkpt lat="49.91868" lon="2.22722">
        <ele>16.9</ele>
        <time>2022-04-11T10:55:32Z</time>
      </trkpt>
      <trkpt lat="49.91868" lon="2.22722">
        <ele>16.9</ele>
        <time>2022-04-11T10:55:33Z</time>
      </trkpt>
      <trkpt lat="49.91868" lon="2.22722">
        <ele>16.9</ele>
        <time>2022-04-11T10:55:34Z</time>
      </trkpt>
      <trkpt lat="49.91868" lon="2.22722">
        <ele>16.9</ele>
        <time>2022-04-11T10:55:35Z</time>
      </trkpt>
      <trkpt lat="49.91868" lon="2.22722">
        <ele>16.9</ele>
        <time>2022-04-11T10:55:36Z</time>
      </trkpt>
      <trkpt lat="49.91868" lon="2.22722">
        <ele>16.9</ele>
        <time>2022-04-11T10:55:37Z</time>
      </trkpt>
      <trkpt lat="49.91868" lon="2.22722">
        <ele>16.9</ele>
        <time>2022-04-11T10:55:38Z</time>
      </trkpt>
      <trkpt lat="49.91868" lon="2.22722">
        <ele>16.9</ele>
        <time>2022-04-11T10:55:39Z</time>
      </trkpt>
      <trkpt lat="49.91868" lon="2.22722">
        <ele>16.9</ele>
        <time>2022-04-11T10:55:40Z</time>
      </trkpt>
      <trkpt lat="49.91868" lon="2.22722">
        <ele>16.9</ele>
        <time>2022-04-11T10:55:41Z</time>
      </trkpt>
      <trkpt lat="49.91868" lon="2.22722">
        <ele>16.9</ele>
        <time>2022-04-11T10:55:42Z</time>
      </trkpt>
      <trkpt lat="49.91868" lon="2.22722">
        <ele>16.9</ele>
        <time>2022-04-11T10:55:43Z</time>
      </trkpt>
      <trkpt lat="49.91868" lon="2.22722">
        <ele>16.9</ele>
        <time>2022-04-11T10:55:44Z</time>
      </trkpt>
      <trkpt lat="49.91868" lon="2.22722">
        <ele>16.9</ele>
        <time>2022-04-11T10:55:45Z</time>
      </trkpt>
      <trkpt lat="49.91868" lon="2.22722">
        <ele>16.9</ele>
        <time>2022-04-11T10:55:46Z</time>
      </trkpt>
      <trkpt lat="49.91868" lon="2.22722">
        <ele>16.9</ele>
        <time>2022-04-11T10:55:47Z</time>
      </trkpt>
      <trkpt lat="49.91868" lon="2.22722">
        <ele>16.9</ele>
        <time>2022-04-11T10:55:48Z</time>
      </trkpt>
      <trkpt lat="49.91868" lon="2.22722">
        <ele>16.9</ele>
        <time>2022-04-11T10:55:49Z</time>
      </trkpt>
      <trkpt lat="49.91868" lon="2.22722">
        <ele>16.9</ele>
        <time>2022-04-11T10:55:50Z</time>
      </trkpt>
      <trkpt lat="49.91868" lon="2.22722">
        <ele>16.9</ele>
        <time>2022-04-11T10:55:51Z</time>
      </trkpt>
      <trkpt lat="49.91868" lon="2.22722">
        <ele>16.9</ele>
        <time>2022-04-11T10:55:52Z</time>
      </trkpt>
      <trkpt lat="49.91868" lon="2.22722">
        <ele>16.9</ele>
        <time>2022-04-11T10:55:53Z</time>
      </trkpt>
      <trkpt lat="49.91868" lon="2.22722">
        <ele>16.9</ele>
        <time>2022-04-11T10:55:54Z</time>
      </trkpt>
      <trkpt lat="49.91868" lon="2.22722">
        <ele>16.9</ele>
        <time>2022-04-11T10:55:55Z</time>
      </trkpt>
      <trkpt lat="49.91868" lon="2.22722">
        <ele>16.9</ele>
        <time>2022-04-11T10:55:56Z</time>
      </trkpt>
      <trkpt lat="49.91868" lon="2.22722">
        <ele>16.9</ele>
        <time>2022-04-11T10:55:57Z</time>
      </trkpt>
      <trkpt lat="49.91868" lon="2.22722">
        <ele>16.9</ele>
        <time>2022-04-11T10:55:58Z</time>
      </trkpt>
      <trkpt lat="49.91868" lon="2.22722">
        <ele>16.9</ele>
        <time>2022-04-11T10:55:59Z</time>
      </trkpt>
      <trkpt lat="49.91868" lon="2.22722">
        <ele>16.9</ele>
        <time>2022-04-11T10:56:00Z</time>
      </trkpt>
      <trkpt lat="49.91868" lon="2.22722">
        <ele>16.9</ele>
        <time>2022-04-11T10:56:01Z</time>
      </trkpt>
      <trkpt lat="49.91868" lon="2.22722">
        <ele>16.9</ele>
        <time>2022-04-11T10:56:02Z</time>
      </trkpt>
      <trkpt lat="49.91868" lon="2.22722">
        <ele>16.9</ele>
        <time>2022-04-11T10:56:03Z</time>
      </trkpt>
      <trkpt lat="49.91868" lon="2.22722">
        <ele>16.9</ele>
        <time>2022-04-11T10:56:04Z</time>
      </trkpt>
      <trkpt lat="49.91868" lon="2.22722">
        <ele>16.9</ele>
        <time>2022-04-11T10:56:05Z</time>
      </trkpt>
      <trkpt lat="49.91868" lon="2.22722">
        <ele>16.9</ele>
        <time>2022-04-11T10:56:06Z</time>
      </trkpt>
      <trkpt lat="49.91868" lon="2.22722">
        <ele>16.9</ele>
        <time>2022-04-11T10:56:07Z</time>
      </trkpt>
      <trkpt lat="49.91868" lon="2.22722">
        <ele>16.9</ele>
        <time>2022-04-11T10:56:08Z</time>
      </trkpt>
      <trkpt lat="49.91868" lon="2.22722">
        <ele>16.9</ele>
        <time>2022-04-11T10:56:09Z</time>
      </trkpt>
      <trkpt lat="49.91868" lon="2.22722">
        <ele>16.9</ele>
        <time>2022-04-11T10:56:10Z</time>
      </trkpt>
      <trkpt lat="49.91868" lon="2.22722">
        <ele>16.9</ele>
        <time>2022-04-11T10:56:11Z</time>
      </trkpt>
      <trkpt lat="49.91868" lon="2.22722">
        <ele>16.9</ele>
        <time>2022-04-11T10:56:12Z</time>
      </trkpt>
      <trkpt lat="49.91868" lon="2.22722">
        <ele>16.9</ele>
        <time>2022-04-11T10:56:13Z</time>
      </trkpt>
      <trkpt lat="49.91868" lon="2.22722">
        <ele>16.9</ele>
        <time>2022-04-11T10:56:14Z</time>
      </trkpt>
      <trkpt lat="49.91868" lon="2.22722">
        <ele>16.9</ele>
        <time>2022-04-11T10:56:15Z</time>
      </trkpt>
      <trkpt lat="49.91868" lon="2.22722">
        <ele>16.9</ele>
        <time>2022-04-11T10:56:16Z</time>
      </trkpt>
      <trkpt lat="49.91868" lon="2.22722">
        <ele>16.9</ele>
        <time>2022-04-11T10:56:17Z</time>
      </trkpt>
      <trkpt lat="49.91868" lon="2.22722">
        <ele>16.9</ele>
        <time>2022-04-11T10:56:18Z</time>
      </trkpt>
      <trkpt lat="49.91868" lon="2.22722">
        <ele>16.9</ele>
        <time>2022-04-11T10:56:19Z</time>
      </trkpt>
      <trkpt lat="49.91868" lon="2.22722">
        <ele>16.9</ele>
        <time>2022-04-11T10:56:20Z</time>
      </trkpt>
      <trkpt lat="49.91868" lon="2.22722">
        <ele>16.9</ele>
        <time>2022-04-11T10:56:21Z</time>
      </trkpt>
      <trkpt lat="49.91868" lon="2.22722">
        <ele>16.9</ele>
        <time>2022-04-11T10:56:22Z</time>
      </trkpt>
      <trkpt lat="49.91868" lon="2.22722">
        <ele>16.9</ele>
        <time>2022-04-11T10:56:23Z</time>
      </trkpt>
      <trkpt lat="49.91868" lon="2.22722">
        <ele>16.9</ele>
        <time>2022-04-11T10:56:24Z</time>
      </trkpt>
      <trkpt lat="49.91867" lon="2.22722">
        <ele>16.9</ele>
        <time>2022-04-11T10:56:25Z</time>
      </trkpt>
      <trkpt lat="49.91867" lon="2.22722">
        <ele>16.9</ele>
        <time>2022-04-11T10:56:26Z</time>
      </trkpt>
      <trkpt lat="49.91867" lon="2.22722">
        <ele>16.9</ele>
        <time>2022-04-11T10:56:27Z</time>
      </trkpt>
      <trkpt lat="49.91867" lon="2.22722">
        <ele>16.9</ele>
        <time>2022-04-11T10:56:28Z</time>
      </trkpt>
      <trkpt lat="49.91867" lon="2.22722">
        <ele>16.9</ele>
        <time>2022-04-11T10:56:29Z</time>
      </trkpt>
      <trkpt lat="49.91867" lon="2.22722">
        <ele>16.9</ele>
        <time>2022-04-11T10:56:30Z</time>
      </trkpt>
      <trkpt lat="49.91867" lon="2.22722">
        <ele>16.9</ele>
        <time>2022-04-11T10:56:31Z</time>
      </trkpt>
      <trkpt lat="49.91867" lon="2.22722">
        <ele>16.9</ele>
        <time>2022-04-11T10:56:32Z</time>
      </trkpt>
      <trkpt lat="49.91867" lon="2.22722">
        <ele>16.9</ele>
        <time>2022-04-11T10:56:33Z</time>
      </trkpt>
      <trkpt lat="49.91867" lon="2.22722">
        <ele>16.9</ele>
        <time>2022-04-11T10:56:34Z</time>
      </trkpt>
      <trkpt lat="49.91867" lon="2.22722">
        <ele>16.9</ele>
        <time>2022-04-11T10:56:35Z</time>
      </trkpt>
      <trkpt lat="49.91867" lon="2.22722">
        <ele>16.9</ele>
        <time>2022-04-11T10:56:36Z</time>
      </trkpt>
      <trkpt lat="49.91867" lon="2.22722">
        <ele>16.9</ele>
        <time>2022-04-11T10:56:37Z</time>
      </trkpt>
      <trkpt lat="49.91867" lon="2.22722">
        <ele>16.9</ele>
        <time>2022-04-11T10:56:38Z</time>
      </trkpt>
      <trkpt lat="49.91867" lon="2.22722">
        <ele>16.9</ele>
        <time>2022-04-11T10:56:39Z</time>
      </trkpt>
      <trkpt lat="49.91867" lon="2.22722">
        <ele>16.9</ele>
        <time>2022-04-11T10:56:40Z</time>
      </trkpt>
      <trkpt lat="49.91867" lon="2.22722">
        <ele>16.9</ele>
        <time>2022-04-11T10:56:41Z</time>
      </trkpt>
      <trkpt lat="49.91867" lon="2.22722">
        <ele>16.9</ele>
        <time>2022-04-11T10:56:42Z</time>
      </trkpt>
      <trkpt lat="49.91867" lon="2.22722">
        <ele>16.9</ele>
        <time>2022-04-11T10:56:43Z</time>
      </trkpt>
      <trkpt lat="49.91867" lon="2.22722">
        <ele>16.9</ele>
        <time>2022-04-11T10:56:44Z</time>
      </trkpt>
      <trkpt lat="49.91867" lon="2.22722">
        <ele>16.9</ele>
        <time>2022-04-11T10:56:45Z</time>
      </trkpt>
      <trkpt lat="49.91867" lon="2.22722">
        <ele>16.9</ele>
        <time>2022-04-11T10:56:46Z</time>
      </trkpt>
      <trkpt lat="49.91867" lon="2.22722">
        <ele>16.9</ele>
        <time>2022-04-11T10:56:47Z</time>
      </trkpt>
      <trkpt lat="49.91867" lon="2.22722">
        <ele>16.9</ele>
        <time>2022-04-11T10:56:48Z</time>
      </trkpt>
      <trkpt lat="49.91867" lon="2.22722">
        <ele>16.9</ele>
        <time>2022-04-11T10:56:49Z</time>
      </trkpt>
      <trkpt lat="49.91867" lon="2.22722">
        <ele>16.9</ele>
        <time>2022-04-11T10:56:50Z</time>
      </trkpt>
      <trkpt lat="49.91867" lon="2.22722">
        <ele>16.9</ele>
        <time>2022-04-11T10:56:51Z</time>
      </trkpt>
      <trkpt lat="49.91867" lon="2.22722">
        <ele>16.9</ele>
        <time>2022-04-11T10:56:52Z</time>
      </trkpt>
      <trkpt lat="49.91867" lon="2.22722">
        <ele>16.9</ele>
        <time>2022-04-11T10:56:53Z</time>
      </trkpt>
      <trkpt lat="49.91867" lon="2.22722">
        <ele>16.9</ele>
        <time>2022-04-11T10:56:54Z</time>
      </trkpt>
      <trkpt lat="49.91867" lon="2.22722">
        <ele>16.9</ele>
        <time>2022-04-11T10:56:55Z</time>
      </trkpt>
      <trkpt lat="49.91867" lon="2.22722">
        <ele>16.9</ele>
        <time>2022-04-11T10:56:56Z</time>
      </trkpt>
      <trkpt lat="49.91867" lon="2.22722">
        <ele>16.9</ele>
        <time>2022-04-11T10:56:57Z</time>
      </trkpt>
      <trkpt lat="49.91867" lon="2.22722">
        <ele>16.9</ele>
        <time>2022-04-11T10:56:58Z</time>
      </trkpt>
      <trkpt lat="49.91867" lon="2.22722">
        <ele>16.9</ele>
        <time>2022-04-11T10:56:59Z</time>
      </trkpt>
      <trkpt lat="49.91867" lon="2.22722">
        <ele>16.9</ele>
        <time>2022-04-11T10:57:00Z</time>
      </trkpt>
      <trkpt lat="49.91867" lon="2.22722">
        <ele>16.9</ele>
        <time>2022-04-11T10:57:01Z</time>
      </trkpt>
      <trkpt lat="49.91867" lon="2.22722">
        <ele>16.9</ele>
        <time>2022-04-11T10:57:02Z</time>
      </trkpt>
      <trkpt lat="49.91867" lon="2.22722">
        <ele>16.9</ele>
        <time>2022-04-11T10:57:03Z</time>
      </trkpt>
      <trkpt lat="49.91867" lon="2.22722">
        <ele>16.9</ele>
        <time>2022-04-11T10:57:04Z</time>
      </trkpt>
      <trkpt lat="49.91867" lon="2.22721">
        <ele>16.9</ele>
        <time>2022-04-11T10:57:05Z</time>
      </trkpt>
      <trkpt lat="49.91867" lon="2.22721">
        <ele>16.9</ele>
        <time>2022-04-11T10:57:06Z</time>
      </trkpt>
      <trkpt lat="49.91867" lon="2.22721">
        <ele>16.9</ele>
        <time>2022-04-11T10:57:07Z</time>
      </trkpt>
      <trkpt lat="49.91867" lon="2.22721">
        <ele>16.9</ele>
        <time>2022-04-11T10:57:08Z</time>
      </trkpt>
      <trkpt lat="49.91867" lon="2.22721">
        <ele>16.9</ele>
        <time>2022-04-11T10:57:09Z</time>
      </trkpt>
      <trkpt lat="49.91867" lon="2.22721">
        <ele>16.9</ele>
        <time>2022-04-11T10:57:10Z</time>
      </trkpt>
      <trkpt lat="49.91867" lon="2.22721">
        <ele>16.9</ele>
        <time>2022-04-11T10:57:11Z</time>
      </trkpt>
      <trkpt lat="49.91867" lon="2.22721">
        <ele>16.9</ele>
        <time>2022-04-11T10:57:12Z</time>
      </trkpt>
      <trkpt lat="49.91867" lon="2.22721">
        <ele>16.9</ele>
        <time>2022-04-11T10:57:13Z</time>
      </trkpt>
      <trkpt lat="49.91867" lon="2.22721">
        <ele>16.9</ele>
        <time>2022-04-11T10:57:14Z</time>
      </trkpt>
      <trkpt lat="49.91867" lon="2.22721">
        <ele>16.9</ele>
        <time>2022-04-11T10:57:15Z</time>
      </trkpt>
      <trkpt lat="49.91867" lon="2.22721">
        <ele>16.9</ele>
        <time>2022-04-11T10:57:16Z</time>
      </trkpt>
      <trkpt lat="49.91867" lon="2.22721">
        <ele>16.9</ele>
        <time>2022-04-11T10:57:17Z</time>
      </trkpt>
      <trkpt lat="49.91867" lon="2.22721">
        <ele>16.9</ele>
        <time>2022-04-11T10:57:18Z</time>
      </trkpt>
      <trkpt lat="49.91867" lon="2.22721">
        <ele>16.9</ele>
        <time>2022-04-11T10:57:19Z</time>
      </trkpt>
      <trkpt lat="49.91867" lon="2.22721">
        <ele>16.9</ele>
        <time>2022-04-11T10:57:20Z</time>
      </trkpt>
      <trkpt lat="49.91867" lon="2.22721">
        <ele>16.9</ele>
        <time>2022-04-11T10:57:21Z</time>
      </trkpt>
      <trkpt lat="49.91867" lon="2.22721">
        <ele>16.9</ele>
        <time>2022-04-11T10:57:22Z</time>
      </trkpt>
      <trkpt lat="49.91867" lon="2.22721">
        <ele>16.9</ele>
        <time>2022-04-11T10:57:23Z</time>
      </trkpt>
      <trkpt lat="49.91867" lon="2.22721">
        <ele>16.9</ele>
        <time>2022-04-11T10:57:24Z</time>
      </trkpt>
      <trkpt lat="49.91867" lon="2.22721">
        <ele>16.9</ele>
        <time>2022-04-11T10:57:25Z</time>
      </trkpt>
      <trkpt lat="49.91867" lon="2.22721">
        <ele>16.9</ele>
        <time>2022-04-11T10:57:26Z</time>
      </trkpt>
      <trkpt lat="49.91867" lon="2.22721">
        <ele>16.9</ele>
        <time>2022-04-11T10:57:27Z</time>
      </trkpt>
      <trkpt lat="49.91867" lon="2.22721">
        <ele>16.9</ele>
        <time>2022-04-11T10:57:28Z</time>
      </trkpt>
      <trkpt lat="49.91867" lon="2.22721">
        <ele>16.9</ele>
        <time>2022-04-11T10:57:29Z</time>
      </trkpt>
      <trkpt lat="49.91863" lon="2.22721">
        <ele>16.9</ele>
        <time>2022-04-11T10:57:31Z</time>
      </trkpt>
      <trkpt lat="49.91862" lon="2.2272">
        <ele>16.9</ele>
        <time>2022-04-11T10:57:32Z</time>
      </trkpt>
      <trkpt lat="49.91859" lon="2.2272">
        <ele>16.9</ele>
        <time>2022-04-11T10:57:33Z</time>
      </trkpt>
      <trkpt lat="49.91858" lon="2.2272">
        <ele>16.9</ele>
        <time>2022-04-11T10:57:34Z</time>
      </trkpt>
      <trkpt lat="49.91857" lon="2.22719">
        <ele>16.9</ele>
        <time>2022-04-11T10:57:35Z</time>
      </trkpt>
      <trkpt lat="49.91855" lon="2.22717">
        <ele>16.9</ele>
        <time>2022-04-11T10:57:37Z</time>
      </trkpt>
      <trkpt lat="49.91854" lon="2.22716">
        <ele>17</ele>
        <time>2022-04-11T10:57:38Z</time>
      </trkpt>
      <trkpt lat="49.91852" lon="2.22714">
        <ele>17</ele>
        <time>2022-04-11T10:57:39Z</time>
      </trkpt>
      <trkpt lat="49.9185" lon="2.22711">
        <ele>17</ele>
        <time>2022-04-11T10:57:40Z</time>
      </trkpt>
      <trkpt lat="49.9185" lon="2.2271">
        <ele>17</ele>
        <time>2022-04-11T10:57:41Z</time>
      </trkpt>
      <trkpt lat="49.91849" lon="2.22707">
        <ele>17</ele>
        <time>2022-04-11T10:57:43Z</time>
      </trkpt>
      <trkpt lat="49.91848" lon="2.22706">
        <ele>17</ele>
        <time>2022-04-11T10:57:44Z</time>
      </trkpt>
      <trkpt lat="49.91847" lon="2.22704">
        <ele>17</ele>
        <time>2022-04-11T10:57:45Z</time>
      </trkpt>
      <trkpt lat="49.91847" lon="2.22702">
        <ele>17</ele>
        <time>2022-04-11T10:57:46Z</time>
      </trkpt>
      <trkpt lat="49.91846" lon="2.22702">
        <ele>17</ele>
        <time>2022-04-11T10:57:47Z</time>
      </trkpt>
      <trkpt lat="49.91845" lon="2.22702">
        <ele>17</ele>
        <time>2022-04-11T10:57:48Z</time>
      </trkpt>
      <trkpt lat="49.91845" lon="2.22702">
        <ele>17</ele>
        <time>2022-04-11T10:57:49Z</time>
      </trkpt>
      <trkpt lat="49.91844" lon="2.22702">
        <ele>17</ele>
        <time>2022-04-11T10:57:50Z</time>
      </trkpt>
      <trkpt lat="49.91843" lon="2.22702">
        <ele>17</ele>
        <time>2022-04-11T10:57:52Z</time>
      </trkpt>
      <trkpt lat="49.91842" lon="2.22698">
        <ele>17</ele>
        <time>2022-04-11T10:57:53Z</time>
      </trkpt>
      <trkpt lat="49.91841" lon="2.22698">
        <ele>17</ele>
        <time>2022-04-11T10:57:54Z</time>
      </trkpt>
      <trkpt lat="49.9184" lon="2.22699">
        <ele>17</ele>
        <time>2022-04-11T10:57:55Z</time>
      </trkpt>
      <trkpt lat="49.91839" lon="2.22701">
        <ele>17</ele>
        <time>2022-04-11T10:57:57Z</time>
      </trkpt>
      <trkpt lat="49.91838" lon="2.22701">
        <ele>17</ele>
        <time>2022-04-11T10:57:58Z</time>
      </trkpt>
      <trkpt lat="49.91837" lon="2.22701">
        <ele>17</ele>
        <time>2022-04-11T10:57:59Z</time>
      </trkpt>
      <trkpt lat="49.91836" lon="2.22701">
        <ele>17</ele>
        <time>2022-04-11T10:58:00Z</time>
      </trkpt>
      <trkpt lat="49.91835" lon="2.227">
        <ele>17.1</ele>
        <time>2022-04-11T10:58:01Z</time>
      </trkpt>
      <trkpt lat="49.91833" lon="2.22698">
        <ele>17.1</ele>
        <time>2022-04-11T10:58:02Z</time>
      </trkpt>
      <trkpt lat="49.91831" lon="2.22695">
        <ele>17.1</ele>
        <time>2022-04-11T10:58:04Z</time>
      </trkpt>
      <trkpt lat="49.91831" lon="2.22694">
        <ele>17.1</ele>
        <time>2022-04-11T10:58:05Z</time>
      </trkpt>
      <trkpt lat="49.91829" lon="2.22689">
        <ele>17.1</ele>
        <time>2022-04-11T10:58:06Z</time>
      </trkpt>
      <trkpt lat="49.91828" lon="2.22687">
        <ele>17.1</ele>
        <time>2022-04-11T10:58:07Z</time>
      </trkpt>
      <trkpt lat="49.91827" lon="2.22685">
        <ele>17.1</ele>
        <time>2022-04-11T10:58:08Z</time>
      </trkpt>
      <trkpt lat="49.91825" lon="2.22685">
        <ele>17.1</ele>
        <time>2022-04-11T10:58:09Z</time>
      </trkpt>
      <trkpt lat="49.91824" lon="2.22683">
        <ele>17.1</ele>
        <time>2022-04-11T10:58:10Z</time>
      </trkpt>
      <trkpt lat="49.91823" lon="2.22682">
        <ele>17.1</ele>
        <time>2022-04-11T10:58:11Z</time>
      </trkpt>
      <trkpt lat="49.91822" lon="2.22681">
        <ele>17.2</ele>
        <time>2022-04-11T10:58:12Z</time>
      </trkpt>
      <trkpt lat="49.91821" lon="2.22679">
        <ele>17.2</ele>
        <time>2022-04-11T10:58:13Z</time>
      </trkpt>
      <trkpt lat="49.91819" lon="2.22677">
        <ele>17.2</ele>
        <time>2022-04-11T10:58:15Z</time>
      </trkpt>
      <trkpt lat="49.91818" lon="2.22676">
        <ele>17.2</ele>
        <time>2022-04-11T10:58:16Z</time>
      </trkpt>
      <trkpt lat="49.91816" lon="2.22674">
        <ele>17.2</ele>
        <time>2022-04-11T10:58:17Z</time>
      </trkpt>
      <trkpt lat="49.91815" lon="2.22672">
        <ele>17.2</ele>
        <time>2022-04-11T10:58:18Z</time>
      </trkpt>
      <trkpt lat="49.91814" lon="2.22671">
        <ele>17.2</ele>
        <time>2022-04-11T10:58:19Z</time>
      </trkpt>
      <trkpt lat="49.91813" lon="2.22669">
        <ele>17.2</ele>
        <time>2022-04-11T10:58:20Z</time>
      </trkpt>
      <trkpt lat="49.91812" lon="2.22667">
        <ele>17.2</ele>
        <time>2022-04-11T10:58:21Z</time>
      </trkpt>
      <trkpt lat="49.91811" lon="2.22665">
        <ele>17.2</ele>
        <time>2022-04-11T10:58:23Z</time>
      </trkpt>
      <trkpt lat="49.9181" lon="2.22663">
        <ele>17.2</ele>
        <time>2022-04-11T10:58:24Z</time>
      </trkpt>
      <trkpt lat="49.91809" lon="2.22662">
        <ele>17.2</ele>
        <time>2022-04-11T10:58:25Z</time>
      </trkpt>
      <trkpt lat="49.91807" lon="2.22659">
        <ele>17.2</ele>
        <time>2022-04-11T10:58:26Z</time>
      </trkpt>
      <trkpt lat="49.91807" lon="2.22659">
        <ele>17.2</ele>
        <time>2022-04-11T10:58:27Z</time>
      </trkpt>
      <trkpt lat="49.91806" lon="2.22658">
        <ele>17.2</ele>
        <time>2022-04-11T10:58:28Z</time>
      </trkpt>
      <trkpt lat="49.91805" lon="2.22657">
        <ele>17.2</ele>
        <time>2022-04-11T10:58:29Z</time>
      </trkpt>
      <trkpt lat="49.91804" lon="2.22656">
        <ele>17.2</ele>
        <time>2022-04-11T10:58:30Z</time>
      </trkpt>
      <trkpt lat="49.91803" lon="2.22655">
        <ele>17.2</ele>
        <time>2022-04-11T10:58:31Z</time>
      </trkpt>
      <trkpt lat="49.91802" lon="2.22653">
        <ele>17.2</ele>
        <time>2022-04-11T10:58:33Z</time>
      </trkpt>
      <trkpt lat="49.91801" lon="2.22652">
        <ele>17.2</ele>
        <time>2022-04-11T10:58:34Z</time>
      </trkpt>
      <trkpt lat="49.91801" lon="2.22652">
        <ele>17.2</ele>
        <time>2022-04-11T10:58:35Z</time>
      </trkpt>
      <trkpt lat="49.91801" lon="2.22651">
        <ele>17.2</ele>
        <time>2022-04-11T10:58:36Z</time>
      </trkpt>
      <trkpt lat="49.918" lon="2.2265">
        <ele>17.2</ele>
        <time>2022-04-11T10:58:37Z</time>
      </trkpt>
      <trkpt lat="49.91799" lon="2.22649">
        <ele>17.2</ele>
        <time>2022-04-11T10:58:38Z</time>
      </trkpt>
      <trkpt lat="49.91798" lon="2.22648">
        <ele>17.2</ele>
        <time>2022-04-11T10:58:39Z</time>
      </trkpt>
      <trkpt lat="49.91797" lon="2.22646">
        <ele>17.2</ele>
        <time>2022-04-11T10:58:40Z</time>
      </trkpt>
      <trkpt lat="49.91797" lon="2.22645">
        <ele>17.2</ele>
        <time>2022-04-11T10:58:41Z</time>
      </trkpt>
      <trkpt lat="49.91796" lon="2.22643">
        <ele>17.2</ele>
        <time>2022-04-11T10:58:42Z</time>
      </trkpt>
      <trkpt lat="49.91796" lon="2.22642">
        <ele>17.2</ele>
        <time>2022-04-11T10:58:43Z</time>
      </trkpt>
      <trkpt lat="49.91795" lon="2.2264">
        <ele>17.2</ele>
        <time>2022-04-11T10:58:44Z</time>
      </trkpt>
      <trkpt lat="49.91795" lon="2.22638">
        <ele>17.2</ele>
        <time>2022-04-11T10:58:46Z</time>
      </trkpt>
      <trkpt lat="49.91795" lon="2.22637">
        <ele>17.2</ele>
        <time>2022-04-11T10:58:47Z</time>
      </trkpt>
      <trkpt lat="49.91794" lon="2.22635">
        <ele>17.2</ele>
        <time>2022-04-11T10:58:48Z</time>
      </trkpt>
      <trkpt lat="49.91795" lon="2.22634">
        <ele>17.3</ele>
        <time>2022-04-11T10:58:49Z</time>
      </trkpt>
      <trkpt lat="49.91795" lon="2.22631">
        <ele>17.3</ele>
        <time>2022-04-11T10:58:50Z</time>
      </trkpt>
      <trkpt lat="49.91795" lon="2.22629">
        <ele>17.3</ele>
        <time>2022-04-11T10:58:51Z</time>
      </trkpt>
      <trkpt lat="49.91795" lon="2.22628">
        <ele>17.3</ele>
        <time>2022-04-11T10:58:52Z</time>
      </trkpt>
      <trkpt lat="49.91794" lon="2.22626">
        <ele>17.3</ele>
        <time>2022-04-11T10:58:53Z</time>
      </trkpt>
      <trkpt lat="49.91794" lon="2.22624">
        <ele>17.3</ele>
        <time>2022-04-11T10:58:54Z</time>
      </trkpt>
      <trkpt lat="49.91793" lon="2.22622">
        <ele>17.3</ele>
        <time>2022-04-11T10:58:55Z</time>
      </trkpt>
      <trkpt lat="49.91792" lon="2.2262">
        <ele>17.3</ele>
        <time>2022-04-11T10:58:56Z</time>
      </trkpt>
      <trkpt lat="49.91791" lon="2.22618">
        <ele>17.3</ele>
        <time>2022-04-11T10:58:58Z</time>
      </trkpt>
      <trkpt lat="49.91791" lon="2.22617">
        <ele>17.3</ele>
        <time>2022-04-11T10:58:59Z</time>
      </trkpt>
      <trkpt lat="49.91789" lon="2.22618">
        <ele>17.3</ele>
        <time>2022-04-11T10:59:00Z</time>
      </trkpt>
      <trkpt lat="49.91788" lon="2.22619">
        <ele>17.3</ele>
        <time>2022-04-11T10:59:01Z</time>
      </trkpt>
      <trkpt lat="49.91787" lon="2.22617">
        <ele>17.4</ele>
        <time>2022-04-11T10:59:02Z</time>
      </trkpt>
      <trkpt lat="49.91786" lon="2.22615">
        <ele>17.4</ele>
        <time>2022-04-11T10:59:04Z</time>
      </trkpt>
      <trkpt lat="49.91786" lon="2.22613">
        <ele>17.4</ele>
        <time>2022-04-11T10:59:05Z</time>
      </trkpt>
      <trkpt lat="49.91785" lon="2.22611">
        <ele>17.4</ele>
        <time>2022-04-11T10:59:06Z</time>
      </trkpt>
      <trkpt lat="49.91785" lon="2.22609">
        <ele>17.4</ele>
        <time>2022-04-11T10:59:07Z</time>
      </trkpt>
      <trkpt lat="49.91784" lon="2.22607">
        <ele>17.4</ele>
        <time>2022-04-11T10:59:08Z</time>
      </trkpt>
      <trkpt lat="49.91783" lon="2.22604">
        <ele>17.4</ele>
        <time>2022-04-11T10:59:09Z</time>
      </trkpt>
      <trkpt lat="49.91783" lon="2.22603">
        <ele>17.4</ele>
        <time>2022-04-11T10:59:10Z</time>
      </trkpt>
      <trkpt lat="49.91782" lon="2.22602">
        <ele>17.4</ele>
        <time>2022-04-11T10:59:11Z</time>
      </trkpt>
      <trkpt lat="49.91782" lon="2.22599">
        <ele>17.5</ele>
        <time>2022-04-11T10:59:12Z</time>
      </trkpt>
      <trkpt lat="49.91782" lon="2.22597">
        <ele>17.5</ele>
        <time>2022-04-11T10:59:13Z</time>
      </trkpt>
      <trkpt lat="49.91782" lon="2.22596">
        <ele>17.5</ele>
        <time>2022-04-11T10:59:14Z</time>
      </trkpt>
      <trkpt lat="49.91782" lon="2.22594">
        <ele>17.5</ele>
        <time>2022-04-11T10:59:16Z</time>
      </trkpt>
      <trkpt lat="49.91782" lon="2.22591">
        <ele>17.5</ele>
        <time>2022-04-11T10:59:17Z</time>
      </trkpt>
      <trkpt lat="49.91781" lon="2.22589">
        <ele>17.5</ele>
        <time>2022-04-11T10:59:18Z</time>
      </trkpt>
      <trkpt lat="49.91781" lon="2.22586">
        <ele>17.5</ele>
        <time>2022-04-11T10:59:19Z</time>
      </trkpt>
      <trkpt lat="49.9178" lon="2.22584">
        <ele>17.6</ele>
        <time>2022-04-11T10:59:20Z</time>
      </trkpt>
      <trkpt lat="49.9178" lon="2.22581">
        <ele>17.6</ele>
        <time>2022-04-11T10:59:21Z</time>
      </trkpt>
      <trkpt lat="49.9178" lon="2.22577">
        <ele>17.6</ele>
        <time>2022-04-11T10:59:22Z</time>
      </trkpt>
      <trkpt lat="49.91779" lon="2.22575">
        <ele>17.6</ele>
        <time>2022-04-11T10:59:23Z</time>
      </trkpt>
      <trkpt lat="49.91779" lon="2.22571">
        <ele>17.7</ele>
        <time>2022-04-11T10:59:24Z</time>
      </trkpt>
      <trkpt lat="49.91778" lon="2.22568">
        <ele>17.7</ele>
        <time>2022-04-11T10:59:26Z</time>
      </trkpt>
      <trkpt lat="49.91778" lon="2.22565">
        <ele>17.7</ele>
        <time>2022-04-11T10:59:27Z</time>
      </trkpt>
      <trkpt lat="49.91778" lon="2.22563">
        <ele>17.7</ele>
        <time>2022-04-11T10:59:28Z</time>
      </trkpt>
      <trkpt lat="49.91779" lon="2.22561">
        <ele>17.7</ele>
        <time>2022-04-11T10:59:29Z</time>
      </trkpt>
      <trkpt lat="49.91778" lon="2.22559">
        <ele>17.7</ele>
        <time>2022-04-11T10:59:30Z</time>
      </trkpt>
      <trkpt lat="49.91778" lon="2.22556">
        <ele>17.7</ele>
        <time>2022-04-11T10:59:31Z</time>
      </trkpt>
      <trkpt lat="49.91778" lon="2.22554">
        <ele>17.7</ele>
        <time>2022-04-11T10:59:32Z</time>
      </trkpt>
      <trkpt lat="49.91777" lon="2.22552">
        <ele>17.8</ele>
        <time>2022-04-11T10:59:33Z</time>
      </trkpt>
      <trkpt lat="49.91777" lon="2.22548">
        <ele>17.8</ele>
        <time>2022-04-11T10:59:34Z</time>
      </trkpt>
      <trkpt lat="49.91777" lon="2.22547">
        <ele>17.8</ele>
        <time>2022-04-11T10:59:36Z</time>
      </trkpt>
      <trkpt lat="49.91777" lon="2.22545">
        <ele>17.8</ele>
        <time>2022-04-11T10:59:37Z</time>
      </trkpt>
      <trkpt lat="49.91776" lon="2.22543">
        <ele>17.8</ele>
        <time>2022-04-11T10:59:38Z</time>
      </trkpt>
      <trkpt lat="49.91776" lon="2.2254">
        <ele>17.8</ele>
        <time>2022-04-11T10:59:40Z</time>
      </trkpt>
      <trkpt lat="49.91776" lon="2.22538">
        <ele>17.8</ele>
        <time>2022-04-11T10:59:41Z</time>
      </trkpt>
      <trkpt lat="49.91776" lon="2.22537">
        <ele>17.8</ele>
        <time>2022-04-11T10:59:42Z</time>
      </trkpt>
      <trkpt lat="49.91776" lon="2.22535">
        <ele>17.8</ele>
        <time>2022-04-11T10:59:43Z</time>
      </trkpt>
      <trkpt lat="49.91776" lon="2.22533">
        <ele>17.8</ele>
        <time>2022-04-11T10:59:44Z</time>
      </trkpt>
      <trkpt lat="49.91776" lon="2.2253">
        <ele>17.8</ele>
        <time>2022-04-11T10:59:45Z</time>
      </trkpt>
      <trkpt lat="49.91777" lon="2.22528">
        <ele>17.8</ele>
        <time>2022-04-11T10:59:46Z</time>
      </trkpt>
      <trkpt lat="49.91777" lon="2.22526">
        <ele>17.8</ele>
        <time>2022-04-11T10:59:47Z</time>
      </trkpt>
      <trkpt lat="49.91777" lon="2.22522">
        <ele>17.8</ele>
        <time>2022-04-11T10:59:48Z</time>
      </trkpt>
      <trkpt lat="49.91777" lon="2.22521">
        <ele>17.8</ele>
        <time>2022-04-11T10:59:49Z</time>
      </trkpt>
      <trkpt lat="49.91778" lon="2.2252">
        <ele>17.9</ele>
        <time>2022-04-11T10:59:50Z</time>
      </trkpt>
      <trkpt lat="49.91778" lon="2.22517">
        <ele>17.9</ele>
        <time>2022-04-11T10:59:52Z</time>
      </trkpt>
      <trkpt lat="49.91777" lon="2.22515">
        <ele>17.9</ele>
        <time>2022-04-11T10:59:53Z</time>
      </trkpt>
      <trkpt lat="49.91778" lon="2.22512">
        <ele>17.9</ele>
        <time>2022-04-11T10:59:54Z</time>
      </trkpt>
      <trkpt lat="49.91778" lon="2.22511">
        <ele>17.9</ele>
        <time>2022-04-11T10:59:55Z</time>
      </trkpt>
      <trkpt lat="49.91778" lon="2.2251">
        <ele>17.9</ele>
        <time>2022-04-11T10:59:56Z</time>
      </trkpt>
      <trkpt lat="49.91778" lon="2.22507">
        <ele>17.9</ele>
        <time>2022-04-11T10:59:57Z</time>
      </trkpt>
      <trkpt lat="49.91778" lon="2.22505">
        <ele>17.9</ele>
        <time>2022-04-11T10:59:58Z</time>
      </trkpt>
      <trkpt lat="49.91777" lon="2.22503">
        <ele>17.9</ele>
        <time>2022-04-11T10:59:59Z</time>
      </trkpt>
      <trkpt lat="49.91777" lon="2.225">
        <ele>17.9</ele>
        <time>2022-04-11T11:00:00Z</time>
      </trkpt>
      <trkpt lat="49.91777" lon="2.22498">
        <ele>17.9</ele>
        <time>2022-04-11T11:00:01Z</time>
      </trkpt>
      <trkpt lat="49.91776" lon="2.22496">
        <ele>17.9</ele>
        <time>2022-04-11T11:00:02Z</time>
      </trkpt>
      <trkpt lat="49.91775" lon="2.22492">
        <ele>17.9</ele>
        <time>2022-04-11T11:00:03Z</time>
      </trkpt>
      <trkpt lat="49.91775" lon="2.22491">
        <ele>17.9</ele>
        <time>2022-04-11T11:00:05Z</time>
      </trkpt>
      <trkpt lat="49.91775" lon="2.22489">
        <ele>17.9</ele>
        <time>2022-04-11T11:00:06Z</time>
      </trkpt>
      <trkpt lat="49.91775" lon="2.22487">
        <ele>17.9</ele>
        <time>2022-04-11T11:00:07Z</time>
      </trkpt>
      <trkpt lat="49.91774" lon="2.22486">
        <ele>17.9</ele>
        <time>2022-04-11T11:00:08Z</time>
      </trkpt>
      <trkpt lat="49.91774" lon="2.22484">
        <ele>17.9</ele>
        <time>2022-04-11T11:00:09Z</time>
      </trkpt>
      <trkpt lat="49.91774" lon="2.22482">
        <ele>17.9</ele>
        <time>2022-04-11T11:00:10Z</time>
      </trkpt>
      <trkpt lat="49.91774" lon="2.2248">
        <ele>17.9</ele>
        <time>2022-04-11T11:00:11Z</time>
      </trkpt>
      <trkpt lat="49.91774" lon="2.22479">
        <ele>17.9</ele>
        <time>2022-04-11T11:00:12Z</time>
      </trkpt>
      <trkpt lat="49.91774" lon="2.22478">
        <ele>17.9</ele>
        <time>2022-04-11T11:00:13Z</time>
      </trkpt>
      <trkpt lat="49.91774" lon="2.22477">
        <ele>17.9</ele>
        <time>2022-04-11T11:00:14Z</time>
      </trkpt>
      <trkpt lat="49.91774" lon="2.22476">
        <ele>17.9</ele>
        <time>2022-04-11T11:00:15Z</time>
      </trkpt>
      <trkpt lat="49.91774" lon="2.22474">
        <ele>17.9</ele>
        <time>2022-04-11T11:00:17Z</time>
      </trkpt>
      <trkpt lat="49.91775" lon="2.22473">
        <ele>17.9</ele>
        <time>2022-04-11T11:00:18Z</time>
      </trkpt>
      <trkpt lat="49.91775" lon="2.22472">
        <ele>17.9</ele>
        <time>2022-04-11T11:00:19Z</time>
      </trkpt>
      <trkpt lat="49.91776" lon="2.22472">
        <ele>17.9</ele>
        <time>2022-04-11T11:00:20Z</time>
      </trkpt>
      <trkpt lat="49.91776" lon="2.22471">
        <ele>17.8</ele>
        <time>2022-04-11T11:00:21Z</time>
      </trkpt>
      <trkpt lat="49.91776" lon="2.22471">
        <ele>17.8</ele>
        <time>2022-04-11T11:00:22Z</time>
      </trkpt>
      <trkpt lat="49.91777" lon="2.2247">
        <ele>17.8</ele>
        <time>2022-04-11T11:00:23Z</time>
      </trkpt>
      <trkpt lat="49.91777" lon="2.22469">
        <ele>17.8</ele>
        <time>2022-04-11T11:00:24Z</time>
      </trkpt>
      <trkpt lat="49.91777" lon="2.22469">
        <ele>17.8</ele>
        <time>2022-04-11T11:00:25Z</time>
      </trkpt>
      <trkpt lat="49.91777" lon="2.22469">
        <ele>17.8</ele>
        <time>2022-04-11T11:00:26Z</time>
      </trkpt>
      <trkpt lat="49.91777" lon="2.22469">
        <ele>17.8</ele>
        <time>2022-04-11T11:00:27Z</time>
      </trkpt>
      <trkpt lat="49.91778" lon="2.22471">
        <ele>17.8</ele>
        <time>2022-04-11T11:00:28Z</time>
      </trkpt>
      <trkpt lat="49.91778" lon="2.22471">
        <ele>17.8</ele>
        <time>2022-04-11T11:00:29Z</time>
      </trkpt>
      <trkpt lat="49.91779" lon="2.2247">
        <ele>17.8</ele>
        <time>2022-04-11T11:00:31Z</time>
      </trkpt>
      <trkpt lat="49.9178" lon="2.22469">
        <ele>17.8</ele>
        <time>2022-04-11T11:00:32Z</time>
      </trkpt>
      <trkpt lat="49.9178" lon="2.22468">
        <ele>17.8</ele>
        <time>2022-04-11T11:00:33Z</time>
      </trkpt>
      <trkpt lat="49.91781" lon="2.22465">
        <ele>17.8</ele>
        <time>2022-04-11T11:00:34Z</time>
      </trkpt>
      <trkpt lat="49.91781" lon="2.22464">
        <ele>17.8</ele>
        <time>2022-04-11T11:00:35Z</time>
      </trkpt>
      <trkpt lat="49.91782" lon="2.22463">
        <ele>17.8</ele>
        <time>2022-04-11T11:00:37Z</time>
      </trkpt>
      <trkpt lat="49.91782" lon="2.22462">
        <ele>17.8</ele>
        <time>2022-04-11T11:00:38Z</time>
      </trkpt>
      <trkpt lat="49.91782" lon="2.22461">
        <ele>17.8</ele>
        <time>2022-04-11T11:00:39Z</time>
      </trkpt>
      <trkpt lat="49.91783" lon="2.22459">
        <ele>17.8</ele>
        <time>2022-04-11T11:00:40Z</time>
      </trkpt>
      <trkpt lat="49.91783" lon="2.22458">
        <ele>17.8</ele>
        <time>2022-04-11T11:00:41Z</time>
      </trkpt>
      <trkpt lat="49.91784" lon="2.22456">
        <ele>17.8</ele>
        <time>2022-04-11T11:00:42Z</time>
      </trkpt>
      <trkpt lat="49.91784" lon="2.22455">
        <ele>17.8</ele>
        <time>2022-04-11T11:00:43Z</time>
      </trkpt>
      <trkpt lat="49.91784" lon="2.22453">
        <ele>17.8</ele>
        <time>2022-04-11T11:00:44Z</time>
      </trkpt>
      <trkpt lat="49.91785" lon="2.2245">
        <ele>17.8</ele>
        <time>2022-04-11T11:00:46Z</time>
      </trkpt>
      <trkpt lat="49.91785" lon="2.22448">
        <ele>17.8</ele>
        <time>2022-04-11T11:00:47Z</time>
      </trkpt>
      <trkpt lat="49.91786" lon="2.22445">
        <ele>17.7</ele>
        <time>2022-04-11T11:00:48Z</time>
      </trkpt>
      <trkpt lat="49.91786" lon="2.22444">
        <ele>17.7</ele>
        <time>2022-04-11T11:00:49Z</time>
      </trkpt>
      <trkpt lat="49.91787" lon="2.22443">
        <ele>17.7</ele>
        <time>2022-04-11T11:00:50Z</time>
      </trkpt>
      <trkpt lat="49.91787" lon="2.22439">
        <ele>17.7</ele>
        <time>2022-04-11T11:00:51Z</time>
      </trkpt>
      <trkpt lat="49.91788" lon="2.22438">
        <ele>17.7</ele>
        <time>2022-04-11T11:00:52Z</time>
      </trkpt>
      <trkpt lat="49.91788" lon="2.22437">
        <ele>17.7</ele>
        <time>2022-04-11T11:00:53Z</time>
      </trkpt>
      <trkpt lat="49.91789" lon="2.22435">
        <ele>17.7</ele>
        <time>2022-04-11T11:00:54Z</time>
      </trkpt>
      <trkpt lat="49.91789" lon="2.22433">
        <ele>17.7</ele>
        <time>2022-04-11T11:00:56Z</time>
      </trkpt>
      <trkpt lat="49.9179" lon="2.22431">
        <ele>17.7</ele>
        <time>2022-04-11T11:00:57Z</time>
      </trkpt>
      <trkpt lat="49.9179" lon="2.2243">
        <ele>17.7</ele>
        <time>2022-04-11T11:00:58Z</time>
      </trkpt>
      <trkpt lat="49.91791" lon="2.22428">
        <ele>17.7</ele>
        <time>2022-04-11T11:00:59Z</time>
      </trkpt>
      <trkpt lat="49.91792" lon="2.22425">
        <ele>17.7</ele>
        <time>2022-04-11T11:01:00Z</time>
      </trkpt>
      <trkpt lat="49.91792" lon="2.22424">
        <ele>17.7</ele>
        <time>2022-04-11T11:01:01Z</time>
      </trkpt>
      <trkpt lat="49.91793" lon="2.22422">
        <ele>17.7</ele>
        <time>2022-04-11T11:01:02Z</time>
      </trkpt>
      <trkpt lat="49.91794" lon="2.2242">
        <ele>17.7</ele>
        <time>2022-04-11T11:01:04Z</time>
      </trkpt>
      <trkpt lat="49.91794" lon="2.22418">
        <ele>17.7</ele>
        <time>2022-04-11T11:01:05Z</time>
      </trkpt>
      <trkpt lat="49.91795" lon="2.22416">
        <ele>17.7</ele>
        <time>2022-04-11T11:01:06Z</time>
      </trkpt>
      <trkpt lat="49.91795" lon="2.22414">
        <ele>17.7</ele>
        <time>2022-04-11T11:01:07Z</time>
      </trkpt>
      <trkpt lat="49.91796" lon="2.22411">
        <ele>17.7</ele>
        <time>2022-04-11T11:01:08Z</time>
      </trkpt>
      <trkpt lat="49.91797" lon="2.22409">
        <ele>17.7</ele>
        <time>2022-04-11T11:01:09Z</time>
      </trkpt>
      <trkpt lat="49.91798" lon="2.22406">
        <ele>17.7</ele>
        <time>2022-04-11T11:01:10Z</time>
      </trkpt>
      <trkpt lat="49.91799" lon="2.22405">
        <ele>17.7</ele>
        <time>2022-04-11T11:01:11Z</time>
      </trkpt>
      <trkpt lat="49.91799" lon="2.22404">
        <ele>17.7</ele>
        <time>2022-04-11T11:01:12Z</time>
      </trkpt>
      <trkpt lat="49.918" lon="2.22402">
        <ele>17.7</ele>
        <time>2022-04-11T11:01:14Z</time>
      </trkpt>
      <trkpt lat="49.91801" lon="2.224">
        <ele>17.7</ele>
        <time>2022-04-11T11:01:15Z</time>
      </trkpt>
      <trkpt lat="49.91801" lon="2.22398">
        <ele>17.7</ele>
        <time>2022-04-11T11:01:16Z</time>
      </trkpt>
      <trkpt lat="49.91802" lon="2.22397">
        <ele>17.7</ele>
        <time>2022-04-11T11:01:17Z</time>
      </trkpt>
      <trkpt lat="49.91803" lon="2.22395">
        <ele>17.7</ele>
        <time>2022-04-11T11:01:18Z</time>
      </trkpt>
      <trkpt lat="49.91804" lon="2.22393">
        <ele>17.7</ele>
        <time>2022-04-11T11:01:19Z</time>
      </trkpt>
      <trkpt lat="49.91804" lon="2.22391">
        <ele>17.7</ele>
        <time>2022-04-11T11:01:20Z</time>
      </trkpt>
      <trkpt lat="49.91805" lon="2.2239">
        <ele>17.7</ele>
        <time>2022-04-11T11:01:21Z</time>
      </trkpt>
      <trkpt lat="49.91805" lon="2.22388">
        <ele>17.7</ele>
        <time>2022-04-11T11:01:22Z</time>
      </trkpt>
      <trkpt lat="49.91805" lon="2.22387">
        <ele>17.7</ele>
        <time>2022-04-11T11:01:23Z</time>
      </trkpt>
      <trkpt lat="49.91806" lon="2.22386">
        <ele>17.7</ele>
        <time>2022-04-11T11:01:24Z</time>
      </trkpt>
      <trkpt lat="49.91807" lon="2.22384">
        <ele>17.7</ele>
        <time>2022-04-11T11:01:25Z</time>
      </trkpt>
      <trkpt lat="49.91807" lon="2.22382">
        <ele>17.7</ele>
        <time>2022-04-11T11:01:27Z</time>
      </trkpt>
      <trkpt lat="49.91808" lon="2.2238">
        <ele>17.7</ele>
        <time>2022-04-11T11:01:28Z</time>
      </trkpt>
      <trkpt lat="49.91809" lon="2.22378">
        <ele>17.7</ele>
        <time>2022-04-11T11:01:29Z</time>
      </trkpt>
      <trkpt lat="49.91809" lon="2.22377">
        <ele>17.7</ele>
        <time>2022-04-11T11:01:30Z</time>
      </trkpt>
      <trkpt lat="49.9181" lon="2.22375">
        <ele>17.7</ele>
        <time>2022-04-11T11:01:31Z</time>
      </trkpt>
      <trkpt lat="49.91811" lon="2.22374">
        <ele>17.7</ele>
        <time>2022-04-11T11:01:32Z</time>
      </trkpt>
      <trkpt lat="49.91811" lon="2.22372">
        <ele>17.7</ele>
        <time>2022-04-11T11:01:33Z</time>
      </trkpt>
      <trkpt lat="49.91812" lon="2.22371">
        <ele>17.7</ele>
        <time>2022-04-11T11:01:34Z</time>
      </trkpt>
      <trkpt lat="49.91812" lon="2.2237">
        <ele>17.7</ele>
        <time>2022-04-11T11:01:35Z</time>
      </trkpt>
      <trkpt lat="49.91813" lon="2.22368">
        <ele>17.7</ele>
        <time>2022-04-11T11:01:36Z</time>
      </trkpt>
      <trkpt lat="49.91814" lon="2.22367">
        <ele>17.7</ele>
        <time>2022-04-11T11:01:37Z</time>
      </trkpt>
      <trkpt lat="49.91815" lon="2.22364">
        <ele>17.7</ele>
        <time>2022-04-11T11:01:39Z</time>
      </trkpt>
      <trkpt lat="49.91815" lon="2.22363">
        <ele>17.7</ele>
        <time>2022-04-11T11:01:40Z</time>
      </trkpt>
      <trkpt lat="49.91816" lon="2.22362">
        <ele>17.7</ele>
        <time>2022-04-11T11:01:41Z</time>
      </trkpt>
      <trkpt lat="49.91817" lon="2.22359">
        <ele>17.7</ele>
        <time>2022-04-11T11:01:42Z</time>
      </trkpt>
      <trkpt lat="49.91817" lon="2.22358">
        <ele>17.7</ele>
        <time>2022-04-11T11:01:43Z</time>
      </trkpt>
      <trkpt lat="49.91817" lon="2.22357">
        <ele>17.7</ele>
        <time>2022-04-11T11:01:44Z</time>
      </trkpt>
      <trkpt lat="49.91818" lon="2.22354">
        <ele>17.7</ele>
        <time>2022-04-11T11:01:46Z</time>
      </trkpt>
      <trkpt lat="49.91818" lon="2.22353">
        <ele>17.7</ele>
        <time>2022-04-11T11:01:47Z</time>
      </trkpt>
      <trkpt lat="49.91819" lon="2.22349">
        <ele>17.7</ele>
        <time>2022-04-11T11:01:48Z</time>
      </trkpt>
      <trkpt lat="49.91819" lon="2.22348">
        <ele>17.7</ele>
        <time>2022-04-11T11:01:49Z</time>
      </trkpt>
      <trkpt lat="49.9182" lon="2.22347">
        <ele>17.7</ele>
        <time>2022-04-11T11:01:50Z</time>
      </trkpt>
      <trkpt lat="49.9182" lon="2.22345">
        <ele>17.7</ele>
        <time>2022-04-11T11:01:51Z</time>
      </trkpt>
      <trkpt lat="49.91821" lon="2.22343">
        <ele>17.7</ele>
        <time>2022-04-11T11:01:52Z</time>
      </trkpt>
      <trkpt lat="49.91821" lon="2.22341">
        <ele>17.7</ele>
        <time>2022-04-11T11:01:53Z</time>
      </trkpt>
      <trkpt lat="49.91822" lon="2.22339">
        <ele>17.7</ele>
        <time>2022-04-11T11:01:54Z</time>
      </trkpt>
      <trkpt lat="49.91822" lon="2.22336">
        <ele>17.7</ele>
        <time>2022-04-11T11:01:55Z</time>
      </trkpt>
      <trkpt lat="49.91822" lon="2.22335">
        <ele>17.7</ele>
        <time>2022-04-11T11:01:56Z</time>
      </trkpt>
      <trkpt lat="49.91822" lon="2.22333">
        <ele>17.7</ele>
        <time>2022-04-11T11:01:57Z</time>
      </trkpt>
      <trkpt lat="49.91822" lon="2.22331">
        <ele>17.7</ele>
        <time>2022-04-11T11:01:59Z</time>
      </trkpt>
      <trkpt lat="49.91822" lon="2.22329">
        <ele>17.7</ele>
        <time>2022-04-11T11:02:00Z</time>
      </trkpt>
      <trkpt lat="49.91823" lon="2.22325">
        <ele>17.7</ele>
        <time>2022-04-11T11:02:01Z</time>
      </trkpt>
      <trkpt lat="49.91823" lon="2.22324">
        <ele>17.7</ele>
        <time>2022-04-11T11:02:02Z</time>
      </trkpt>
      <trkpt lat="49.91823" lon="2.22323">
        <ele>17.7</ele>
        <time>2022-04-11T11:02:03Z</time>
      </trkpt>
      <trkpt lat="49.91824" lon="2.22321">
        <ele>17.7</ele>
        <time>2022-04-11T11:02:04Z</time>
      </trkpt>
      <trkpt lat="49.91824" lon="2.22318">
        <ele>17.7</ele>
        <time>2022-04-11T11:02:05Z</time>
      </trkpt>
      <trkpt lat="49.91825" lon="2.22315">
        <ele>17.7</ele>
        <time>2022-04-11T11:02:07Z</time>
      </trkpt>
      <trkpt lat="49.91826" lon="2.22313">
        <ele>17.7</ele>
        <time>2022-04-11T11:02:08Z</time>
      </trkpt>
      <trkpt lat="49.91826" lon="2.22311">
        <ele>17.7</ele>
        <time>2022-04-11T11:02:09Z</time>
      </trkpt>
      <trkpt lat="49.91827" lon="2.22309">
        <ele>17.7</ele>
        <time>2022-04-11T11:02:10Z</time>
      </trkpt>
      <trkpt lat="49.91827" lon="2.22307">
        <ele>17.7</ele>
        <time>2022-04-11T11:02:11Z</time>
      </trkpt>
      <trkpt lat="49.91827" lon="2.22305">
        <ele>17.7</ele>
        <time>2022-04-11T11:02:12Z</time>
      </trkpt>
      <trkpt lat="49.91827" lon="2.22302">
        <ele>17.7</ele>
        <time>2022-04-11T11:02:14Z</time>
      </trkpt>
      <trkpt lat="49.91827" lon="2.223">
        <ele>17.7</ele>
        <time>2022-04-11T11:02:15Z</time>
      </trkpt>
      <trkpt lat="49.91828" lon="2.22298">
        <ele>17.7</ele>
        <time>2022-04-11T11:02:16Z</time>
      </trkpt>
      <trkpt lat="49.91828" lon="2.22296">
        <ele>17.7</ele>
        <time>2022-04-11T11:02:17Z</time>
      </trkpt>
      <trkpt lat="49.91828" lon="2.22293">
        <ele>17.7</ele>
        <time>2022-04-11T11:02:18Z</time>
      </trkpt>
      <trkpt lat="49.91828" lon="2.22291">
        <ele>17.7</ele>
        <time>2022-04-11T11:02:19Z</time>
      </trkpt>
      <trkpt lat="49.91828" lon="2.22289">
        <ele>17.7</ele>
        <time>2022-04-11T11:02:20Z</time>
      </trkpt>
      <trkpt lat="49.91828" lon="2.22287">
        <ele>17.7</ele>
        <time>2022-04-11T11:02:21Z</time>
      </trkpt>
      <trkpt lat="49.91828" lon="2.22285">
        <ele>17.7</ele>
        <time>2022-04-11T11:02:23Z</time>
      </trkpt>
      <trkpt lat="49.91828" lon="2.22283">
        <ele>17.7</ele>
        <time>2022-04-11T11:02:24Z</time>
      </trkpt>
      <trkpt lat="49.91828" lon="2.2228">
        <ele>17.7</ele>
        <time>2022-04-11T11:02:25Z</time>
      </trkpt>
      <trkpt lat="49.91827" lon="2.22278">
        <ele>17.7</ele>
        <time>2022-04-11T11:02:26Z</time>
      </trkpt>
      <trkpt lat="49.91827" lon="2.22276">
        <ele>17.7</ele>
        <time>2022-04-11T11:02:27Z</time>
      </trkpt>
      <trkpt lat="49.91826" lon="2.22275">
        <ele>17.7</ele>
        <time>2022-04-11T11:02:28Z</time>
      </trkpt>
      <trkpt lat="49.91826" lon="2.22273">
        <ele>17.7</ele>
        <time>2022-04-11T11:02:30Z</time>
      </trkpt>
      <trkpt lat="49.91825" lon="2.22272">
        <ele>17.7</ele>
        <time>2022-04-11T11:02:31Z</time>
      </trkpt>
      <trkpt lat="49.91824" lon="2.22271">
        <ele>17.7</ele>
        <time>2022-04-11T11:02:32Z</time>
      </trkpt>
      <trkpt lat="49.91824" lon="2.22269">
        <ele>17.7</ele>
        <time>2022-04-11T11:02:33Z</time>
      </trkpt>
      <trkpt lat="49.91823" lon="2.22266">
        <ele>17.7</ele>
        <time>2022-04-11T11:02:34Z</time>
      </trkpt>
      <trkpt lat="49.91823" lon="2.22264">
        <ele>17.7</ele>
        <time>2022-04-11T11:02:35Z</time>
      </trkpt>
      <trkpt lat="49.91822" lon="2.22263">
        <ele>17.7</ele>
        <time>2022-04-11T11:02:36Z</time>
      </trkpt>
      <trkpt lat="49.91822" lon="2.22261">
        <ele>17.7</ele>
        <time>2022-04-11T11:02:37Z</time>
      </trkpt>
      <trkpt lat="49.91821" lon="2.22259">
        <ele>17.7</ele>
        <time>2022-04-11T11:02:38Z</time>
      </trkpt>
      <trkpt lat="49.91821" lon="2.22257">
        <ele>17.7</ele>
        <time>2022-04-11T11:02:39Z</time>
      </trkpt>
      <trkpt lat="49.9182" lon="2.22255">
        <ele>17.7</ele>
        <time>2022-04-11T11:02:40Z</time>
      </trkpt>
      <trkpt lat="49.9182" lon="2.22253">
        <ele>17.7</ele>
        <time>2022-04-11T11:02:42Z</time>
      </trkpt>
      <trkpt lat="49.91819" lon="2.22251">
        <ele>17.7</ele>
        <time>2022-04-11T11:02:43Z</time>
      </trkpt>
      <trkpt lat="49.91819" lon="2.22249">
        <ele>17.7</ele>
        <time>2022-04-11T11:02:44Z</time>
      </trkpt>
      <trkpt lat="49.91818" lon="2.22247">
        <ele>17.7</ele>
        <time>2022-04-11T11:02:45Z</time>
      </trkpt>
      <trkpt lat="49.91818" lon="2.22244">
        <ele>17.7</ele>
        <time>2022-04-11T11:02:46Z</time>
      </trkpt>
      <trkpt lat="49.91817" lon="2.22242">
        <ele>17.7</ele>
        <time>2022-04-11T11:02:47Z</time>
      </trkpt>
      <trkpt lat="49.91817" lon="2.2224">
        <ele>17.7</ele>
        <time>2022-04-11T11:02:48Z</time>
      </trkpt>
      <trkpt lat="49.91817" lon="2.22237">
        <ele>17.7</ele>
        <time>2022-04-11T11:02:49Z</time>
      </trkpt>
      <trkpt lat="49.91816" lon="2.22235">
        <ele>17.7</ele>
        <time>2022-04-11T11:02:50Z</time>
      </trkpt>
      <trkpt lat="49.91816" lon="2.22232">
        <ele>17.7</ele>
        <time>2022-04-11T11:02:51Z</time>
      </trkpt>
      <trkpt lat="49.91815" lon="2.2223">
        <ele>17.7</ele>
        <time>2022-04-11T11:02:52Z</time>
      </trkpt>
      <trkpt lat="49.91815" lon="2.22228">
        <ele>17.7</ele>
        <time>2022-04-11T11:02:53Z</time>
      </trkpt>
      <trkpt lat="49.91814" lon="2.22226">
        <ele>17.8</ele>
        <time>2022-04-11T11:02:55Z</time>
      </trkpt>
      <trkpt lat="49.91814" lon="2.22223">
        <ele>17.8</ele>
        <time>2022-04-11T11:02:56Z</time>
      </trkpt>
      <trkpt lat="49.91813" lon="2.22221">
        <ele>17.8</ele>
        <time>2022-04-11T11:02:57Z</time>
      </trkpt>
      <trkpt lat="49.91813" lon="2.22219">
        <ele>17.8</ele>
        <time>2022-04-11T11:02:58Z</time>
      </trkpt>
      <trkpt lat="49.91812" lon="2.22216">
        <ele>17.8</ele>
        <time>2022-04-11T11:02:59Z</time>
      </trkpt>
      <trkpt lat="49.91812" lon="2.22214">
        <ele>17.8</ele>
        <time>2022-04-11T11:03:00Z</time>
      </trkpt>
      <trkpt lat="49.91812" lon="2.22212">
        <ele>17.8</ele>
        <time>2022-04-11T11:03:01Z</time>
      </trkpt>
      <trkpt lat="49.91811" lon="2.22209">
        <ele>17.8</ele>
        <time>2022-04-11T11:03:02Z</time>
      </trkpt>
      <trkpt lat="49.91811" lon="2.22207">
        <ele>17.8</ele>
        <time>2022-04-11T11:03:03Z</time>
      </trkpt>
      <trkpt lat="49.91811" lon="2.22205">
        <ele>17.8</ele>
        <time>2022-04-11T11:03:04Z</time>
      </trkpt>
      <trkpt lat="49.91811" lon="2.22203">
        <ele>17.8</ele>
        <time>2022-04-11T11:03:05Z</time>
      </trkpt>
      <trkpt lat="49.91811" lon="2.222">
        <ele>17.8</ele>
        <time>2022-04-11T11:03:06Z</time>
      </trkpt>
      <trkpt lat="49.91812" lon="2.22198">
        <ele>17.8</ele>
        <time>2022-04-11T11:03:08Z</time>
      </trkpt>
      <trkpt lat="49.91812" lon="2.22196">
        <ele>17.8</ele>
        <time>2022-04-11T11:03:09Z</time>
      </trkpt>
      <trkpt lat="49.91812" lon="2.22193">
        <ele>17.8</ele>
        <time>2022-04-11T11:03:10Z</time>
      </trkpt>
      <trkpt lat="49.91812" lon="2.22191">
        <ele>17.8</ele>
        <time>2022-04-11T11:03:11Z</time>
      </trkpt>
      <trkpt lat="49.91813" lon="2.22189">
        <ele>17.8</ele>
        <time>2022-04-11T11:03:12Z</time>
      </trkpt>
      <trkpt lat="49.91813" lon="2.22187">
        <ele>17.8</ele>
        <time>2022-04-11T11:03:13Z</time>
      </trkpt>
      <trkpt lat="49.91813" lon="2.22185">
        <ele>17.8</ele>
        <time>2022-04-11T11:03:14Z</time>
      </trkpt>
      <trkpt lat="49.91814" lon="2.22183">
        <ele>17.8</ele>
        <time>2022-04-11T11:03:15Z</time>
      </trkpt>
      <trkpt lat="49.91814" lon="2.22181">
        <ele>17.8</ele>
        <time>2022-04-11T11:03:16Z</time>
      </trkpt>
      <trkpt lat="49.91814" lon="2.22179">
        <ele>17.8</ele>
        <time>2022-04-11T11:03:17Z</time>
      </trkpt>
      <trkpt lat="49.91815" lon="2.22177">
        <ele>17.8</ele>
        <time>2022-04-11T11:03:18Z</time>
      </trkpt>
      <trkpt lat="49.91815" lon="2.22175">
        <ele>17.9</ele>
        <time>2022-04-11T11:03:20Z</time>
      </trkpt>
      <trkpt lat="49.91816" lon="2.22172">
        <ele>17.9</ele>
        <time>2022-04-11T11:03:21Z</time>
      </trkpt>
      <trkpt lat="49.91816" lon="2.22171">
        <ele>17.9</ele>
        <time>2022-04-11T11:03:22Z</time>
      </trkpt>
      <trkpt lat="49.91816" lon="2.22169">
        <ele>17.9</ele>
        <time>2022-04-11T11:03:23Z</time>
      </trkpt>
      <trkpt lat="49.91817" lon="2.22166">
        <ele>17.9</ele>
        <time>2022-04-11T11:03:24Z</time>
      </trkpt>
      <trkpt lat="49.91817" lon="2.22165">
        <ele>17.9</ele>
        <time>2022-04-11T11:03:25Z</time>
      </trkpt>
      <trkpt lat="49.91817" lon="2.22164">
        <ele>17.9</ele>
        <time>2022-04-11T11:03:26Z</time>
      </trkpt>
      <trkpt lat="49.91818" lon="2.22162">
        <ele>17.9</ele>
        <time>2022-04-11T11:03:27Z</time>
      </trkpt>
      <trkpt lat="49.91818" lon="2.22161">
        <ele>17.9</ele>
        <time>2022-04-11T11:03:28Z</time>
      </trkpt>
      <trkpt lat="49.91819" lon="2.22159">
        <ele>17.9</ele>
        <time>2022-04-11T11:03:29Z</time>
      </trkpt>
      <trkpt lat="49.91819" lon="2.22156">
        <ele>17.9</ele>
        <time>2022-04-11T11:03:31Z</time>
      </trkpt>
      <trkpt lat="49.91819" lon="2.22154">
        <ele>17.9</ele>
        <time>2022-04-11T11:03:32Z</time>
      </trkpt>
      <trkpt lat="49.9182" lon="2.22153">
        <ele>17.9</ele>
        <time>2022-04-11T11:03:33Z</time>
      </trkpt>
      <trkpt lat="49.9182" lon="2.2215">
        <ele>17.9</ele>
        <time>2022-04-11T11:03:34Z</time>
      </trkpt>
      <trkpt lat="49.9182" lon="2.22149">
        <ele>17.9</ele>
        <time>2022-04-11T11:03:35Z</time>
      </trkpt>
      <trkpt lat="49.9182" lon="2.22148">
        <ele>17.9</ele>
        <time>2022-04-11T11:03:36Z</time>
      </trkpt>
      <trkpt lat="49.91821" lon="2.22146">
        <ele>17.9</ele>
        <time>2022-04-11T11:03:37Z</time>
      </trkpt>
      <trkpt lat="49.91821" lon="2.22144">
        <ele>17.9</ele>
        <time>2022-04-11T11:03:38Z</time>
      </trkpt>
      <trkpt lat="49.91821" lon="2.22142">
        <ele>17.9</ele>
        <time>2022-04-11T11:03:39Z</time>
      </trkpt>
      <trkpt lat="49.91821" lon="2.22141">
        <ele>17.9</ele>
        <time>2022-04-11T11:03:40Z</time>
      </trkpt>
      <trkpt lat="49.91822" lon="2.22139">
        <ele>17.9</ele>
        <time>2022-04-11T11:03:41Z</time>
      </trkpt>
      <trkpt lat="49.91822" lon="2.22137">
        <ele>17.9</ele>
        <time>2022-04-11T11:03:43Z</time>
      </trkpt>
      <trkpt lat="49.91822" lon="2.22136">
        <ele>17.9</ele>
        <time>2022-04-11T11:03:44Z</time>
      </trkpt>
      <trkpt lat="49.91823" lon="2.22134">
        <ele>17.9</ele>
        <time>2022-04-11T11:03:45Z</time>
      </trkpt>
      <trkpt lat="49.91823" lon="2.22133">
        <ele>17.9</ele>
        <time>2022-04-11T11:03:46Z</time>
      </trkpt>
      <trkpt lat="49.91823" lon="2.22132">
        <ele>17.9</ele>
        <time>2022-04-11T11:03:47Z</time>
      </trkpt>
      <trkpt lat="49.91824" lon="2.22131">
        <ele>17.9</ele>
        <time>2022-04-11T11:03:48Z</time>
      </trkpt>
      <trkpt lat="49.91824" lon="2.22129">
        <ele>17.9</ele>
        <time>2022-04-11T11:03:49Z</time>
      </trkpt>
      <trkpt lat="49.91825" lon="2.22128">
        <ele>17.9</ele>
        <time>2022-04-11T11:03:50Z</time>
      </trkpt>
      <trkpt lat="49.91825" lon="2.22126">
        <ele>17.9</ele>
        <time>2022-04-11T11:03:51Z</time>
      </trkpt>
      <trkpt lat="49.91825" lon="2.22125">
        <ele>17.9</ele>
        <time>2022-04-11T11:03:52Z</time>
      </trkpt>
      <trkpt lat="49.91826" lon="2.22123">
        <ele>17.9</ele>
        <time>2022-04-11T11:03:54Z</time>
      </trkpt>
      <trkpt lat="49.91826" lon="2.22121">
        <ele>17.9</ele>
        <time>2022-04-11T11:03:55Z</time>
      </trkpt>
      <trkpt lat="49.91827" lon="2.2212">
        <ele>17.9</ele>
        <time>2022-04-11T11:03:56Z</time>
      </trkpt>
      <trkpt lat="49.91827" lon="2.2212">
        <ele>17.9</ele>
        <time>2022-04-11T11:03:57Z</time>
      </trkpt>
      <trkpt lat="49.91827" lon="2.22118">
        <ele>17.9</ele>
        <time>2022-04-11T11:03:58Z</time>
      </trkpt>
      <trkpt lat="49.91828" lon="2.22117">
        <ele>17.9</ele>
        <time>2022-04-11T11:03:59Z</time>
      </trkpt>
      <trkpt lat="49.91828" lon="2.22115">
        <ele>17.9</ele>
        <time>2022-04-11T11:04:00Z</time>
      </trkpt>
      <trkpt lat="49.91829" lon="2.22113">
        <ele>17.9</ele>
        <time>2022-04-11T11:04:01Z</time>
      </trkpt>
      <trkpt lat="49.9183" lon="2.2211">
        <ele>17.9</ele>
        <time>2022-04-11T11:04:02Z</time>
      </trkpt>
      <trkpt lat="49.9183" lon="2.22109">
        <ele>17.9</ele>
        <time>2022-04-11T11:04:03Z</time>
      </trkpt>
      <trkpt lat="49.91831" lon="2.22108">
        <ele>17.9</ele>
        <time>2022-04-11T11:04:04Z</time>
      </trkpt>
      <trkpt lat="49.91832" lon="2.22106">
        <ele>17.9</ele>
        <time>2022-04-11T11:04:05Z</time>
      </trkpt>
      <trkpt lat="49.91833" lon="2.22105">
        <ele>17.9</ele>
        <time>2022-04-11T11:04:07Z</time>
      </trkpt>
      <trkpt lat="49.91833" lon="2.22104">
        <ele>17.9</ele>
        <time>2022-04-11T11:04:08Z</time>
      </trkpt>
      <trkpt lat="49.91834" lon="2.22102">
        <ele>17.9</ele>
        <time>2022-04-11T11:04:09Z</time>
      </trkpt>
      <trkpt lat="49.91835" lon="2.22101">
        <ele>17.9</ele>
        <time>2022-04-11T11:04:10Z</time>
      </trkpt>
      <trkpt lat="49.91836" lon="2.221">
        <ele>17.9</ele>
        <time>2022-04-11T11:04:11Z</time>
      </trkpt>
      <trkpt lat="49.91836" lon="2.22098">
        <ele>17.9</ele>
        <time>2022-04-11T11:04:12Z</time>
      </trkpt>
      <trkpt lat="49.91837" lon="2.22096">
        <ele>17.9</ele>
        <time>2022-04-11T11:04:13Z</time>
      </trkpt>
      <trkpt lat="49.91837" lon="2.22095">
        <ele>17.9</ele>
        <time>2022-04-11T11:04:14Z</time>
      </trkpt>
      <trkpt lat="49.91838" lon="2.22094">
        <ele>17.9</ele>
        <time>2022-04-11T11:04:15Z</time>
      </trkpt>
      <trkpt lat="49.91839" lon="2.22093">
        <ele>17.9</ele>
        <time>2022-04-11T11:04:16Z</time>
      </trkpt>
      <trkpt lat="49.91839" lon="2.22092">
        <ele>17.9</ele>
        <time>2022-04-11T11:04:18Z</time>
      </trkpt>
      <trkpt lat="49.9184" lon="2.2209">
        <ele>17.9</ele>
        <time>2022-04-11T11:04:19Z</time>
      </trkpt>
      <trkpt lat="49.91841" lon="2.22089">
        <ele>17.9</ele>
        <time>2022-04-11T11:04:20Z</time>
      </trkpt>
      <trkpt lat="49.91842" lon="2.22088">
        <ele>17.9</ele>
        <time>2022-04-11T11:04:21Z</time>
      </trkpt>
      <trkpt lat="49.91843" lon="2.22086">
        <ele>17.9</ele>
        <time>2022-04-11T11:04:22Z</time>
      </trkpt>
      <trkpt lat="49.91844" lon="2.22085">
        <ele>17.9</ele>
        <time>2022-04-11T11:04:23Z</time>
      </trkpt>
      <trkpt lat="49.91844" lon="2.22084">
        <ele>17.9</ele>
        <time>2022-04-11T11:04:24Z</time>
      </trkpt>
      <trkpt lat="49.91845" lon="2.22082">
        <ele>17.9</ele>
        <time>2022-04-11T11:04:26Z</time>
      </trkpt>
      <trkpt lat="49.91846" lon="2.22081">
        <ele>17.9</ele>
        <time>2022-04-11T11:04:27Z</time>
      </trkpt>
      <trkpt lat="49.91848" lon="2.22079">
        <ele>17.9</ele>
        <time>2022-04-11T11:04:28Z</time>
      </trkpt>
      <trkpt lat="49.91849" lon="2.22077">
        <ele>17.9</ele>
        <time>2022-04-11T11:04:30Z</time>
      </trkpt>
      <trkpt lat="49.91849" lon="2.22075">
        <ele>17.9</ele>
        <time>2022-04-11T11:04:31Z</time>
      </trkpt>
      <trkpt lat="49.9185" lon="2.22073">
        <ele>17.9</ele>
        <time>2022-04-11T11:04:32Z</time>
      </trkpt>
      <trkpt lat="49.91851" lon="2.22072">
        <ele>17.9</ele>
        <time>2022-04-11T11:04:33Z</time>
      </trkpt>
      <trkpt lat="49.91852" lon="2.2207">
        <ele>17.9</ele>
        <time>2022-04-11T11:04:34Z</time>
      </trkpt>
      <trkpt lat="49.91853" lon="2.22068">
        <ele>17.9</ele>
        <time>2022-04-11T11:04:35Z</time>
      </trkpt>
      <trkpt lat="49.91855" lon="2.22067">
        <ele>17.9</ele>
        <time>2022-04-11T11:04:37Z</time>
      </trkpt>
      <trkpt lat="49.91855" lon="2.22065">
        <ele>17.9</ele>
        <time>2022-04-11T11:04:38Z</time>
      </trkpt>
      <trkpt lat="49.91856" lon="2.22064">
        <ele>17.9</ele>
        <time>2022-04-11T11:04:39Z</time>
      </trkpt>
      <trkpt lat="49.91857" lon="2.22062">
        <ele>17.8</ele>
        <time>2022-04-11T11:04:40Z</time>
      </trkpt>
      <trkpt lat="49.91858" lon="2.22061">
        <ele>17.8</ele>
        <time>2022-04-11T11:04:41Z</time>
      </trkpt>
      <trkpt lat="49.91858" lon="2.2206">
        <ele>17.8</ele>
        <time>2022-04-11T11:04:42Z</time>
      </trkpt>
      <trkpt lat="49.91859" lon="2.22058">
        <ele>17.8</ele>
        <time>2022-04-11T11:04:43Z</time>
      </trkpt>
      <trkpt lat="49.9186" lon="2.22057">
        <ele>17.8</ele>
        <time>2022-04-11T11:04:44Z</time>
      </trkpt>
      <trkpt lat="49.91861" lon="2.22055">
        <ele>17.8</ele>
        <time>2022-04-11T11:04:45Z</time>
      </trkpt>
      <trkpt lat="49.91862" lon="2.22052">
        <ele>17.8</ele>
        <time>2022-04-11T11:04:47Z</time>
      </trkpt>
      <trkpt lat="49.91862" lon="2.22051">
        <ele>17.8</ele>
        <time>2022-04-11T11:04:48Z</time>
      </trkpt>
      <trkpt lat="49.91863" lon="2.2205">
        <ele>17.8</ele>
        <time>2022-04-11T11:04:49Z</time>
      </trkpt>
      <trkpt lat="49.91864" lon="2.22047">
        <ele>17.8</ele>
        <time>2022-04-11T11:04:50Z</time>
      </trkpt>
      <trkpt lat="49.91864" lon="2.22046">
        <ele>17.8</ele>
        <time>2022-04-11T11:04:51Z</time>
      </trkpt>
      <trkpt lat="49.91865" lon="2.22045">
        <ele>17.8</ele>
        <time>2022-04-11T11:04:52Z</time>
      </trkpt>
      <trkpt lat="49.91865" lon="2.22043">
        <ele>17.8</ele>
        <time>2022-04-11T11:04:53Z</time>
      </trkpt>
      <trkpt lat="49.91866" lon="2.22041">
        <ele>17.8</ele>
        <time>2022-04-11T11:04:54Z</time>
      </trkpt>
      <trkpt lat="49.91867" lon="2.2204">
        <ele>17.8</ele>
        <time>2022-04-11T11:04:55Z</time>
      </trkpt>
      <trkpt lat="49.91867" lon="2.22038">
        <ele>17.8</ele>
        <time>2022-04-11T11:04:56Z</time>
      </trkpt>
      <trkpt lat="49.91868" lon="2.22036">
        <ele>17.8</ele>
        <time>2022-04-11T11:04:58Z</time>
      </trkpt>
      <trkpt lat="49.91868" lon="2.22034">
        <ele>17.8</ele>
        <time>2022-04-11T11:04:59Z</time>
      </trkpt>
      <trkpt lat="49.91869" lon="2.22033">
        <ele>17.8</ele>
        <time>2022-04-11T11:05:00Z</time>
      </trkpt>
      <trkpt lat="49.91869" lon="2.22032">
        <ele>17.8</ele>
        <time>2022-04-11T11:05:01Z</time>
      </trkpt>
      <trkpt lat="49.9187" lon="2.22029">
        <ele>17.8</ele>
        <time>2022-04-11T11:05:02Z</time>
      </trkpt>
      <trkpt lat="49.9187" lon="2.22028">
        <ele>17.8</ele>
        <time>2022-04-11T11:05:03Z</time>
      </trkpt>
      <trkpt lat="49.91871" lon="2.22026">
        <ele>17.8</ele>
        <time>2022-04-11T11:05:04Z</time>
      </trkpt>
      <trkpt lat="49.91871" lon="2.22023">
        <ele>17.8</ele>
        <time>2022-04-11T11:05:05Z</time>
      </trkpt>
      <trkpt lat="49.91871" lon="2.22022">
        <ele>17.8</ele>
        <time>2022-04-11T11:05:06Z</time>
      </trkpt>
      <trkpt lat="49.91872" lon="2.22021">
        <ele>17.8</ele>
        <time>2022-04-11T11:05:07Z</time>
      </trkpt>
      <trkpt lat="49.91873" lon="2.22018">
        <ele>17.8</ele>
        <time>2022-04-11T11:05:09Z</time>
      </trkpt>
      <trkpt lat="49.91873" lon="2.22017">
        <ele>17.8</ele>
        <time>2022-04-11T11:05:10Z</time>
      </trkpt>
      <trkpt lat="49.91873" lon="2.22015">
        <ele>17.8</ele>
        <time>2022-04-11T11:05:11Z</time>
      </trkpt>
      <trkpt lat="49.91873" lon="2.22014">
        <ele>17.8</ele>
        <time>2022-04-11T11:05:12Z</time>
      </trkpt>
      <trkpt lat="49.91873" lon="2.22012">
        <ele>17.8</ele>
        <time>2022-04-11T11:05:13Z</time>
      </trkpt>
      <trkpt lat="49.91873" lon="2.2201">
        <ele>17.9</ele>
        <time>2022-04-11T11:05:15Z</time>
      </trkpt>
      <trkpt lat="49.91873" lon="2.22008">
        <ele>17.9</ele>
        <time>2022-04-11T11:05:16Z</time>
      </trkpt>
      <trkpt lat="49.91873" lon="2.22007">
        <ele>17.9</ele>
        <time>2022-04-11T11:05:17Z</time>
      </trkpt>
      <trkpt lat="49.91873" lon="2.22005">
        <ele>17.9</ele>
        <time>2022-04-11T11:05:18Z</time>
      </trkpt>
      <trkpt lat="49.91873" lon="2.22001">
        <ele>17.9</ele>
        <time>2022-04-11T11:05:19Z</time>
      </trkpt>
      <trkpt lat="49.91873" lon="2.22">
        <ele>17.9</ele>
        <time>2022-04-11T11:05:20Z</time>
      </trkpt>
      <trkpt lat="49.91873" lon="2.21999">
        <ele>17.9</ele>
        <time>2022-04-11T11:05:21Z</time>
      </trkpt>
      <trkpt lat="49.91873" lon="2.21997">
        <ele>17.9</ele>
        <time>2022-04-11T11:05:22Z</time>
      </trkpt>
      <trkpt lat="49.91873" lon="2.21995">
        <ele>17.9</ele>
        <time>2022-04-11T11:05:23Z</time>
      </trkpt>
      <trkpt lat="49.91873" lon="2.21994">
        <ele>17.9</ele>
        <time>2022-04-11T11:05:24Z</time>
      </trkpt>
      <trkpt lat="49.91873" lon="2.21992">
        <ele>17.9</ele>
        <time>2022-04-11T11:05:25Z</time>
      </trkpt>
      <trkpt lat="49.91873" lon="2.21992">
        <ele>17.9</ele>
        <time>2022-04-11T11:05:26Z</time>
      </trkpt>
      <trkpt lat="49.91873" lon="2.2199">
        <ele>17.9</ele>
        <time>2022-04-11T11:05:27Z</time>
      </trkpt>
      <trkpt lat="49.91874" lon="2.21989">
        <ele>17.9</ele>
        <time>2022-04-11T11:05:29Z</time>
      </trkpt>
      <trkpt lat="49.91875" lon="2.21988">
        <ele>17.9</ele>
        <time>2022-04-11T11:05:30Z</time>
      </trkpt>
      <trkpt lat="49.91875" lon="2.21986">
        <ele>17.9</ele>
        <time>2022-04-11T11:05:31Z</time>
      </trkpt>
      <trkpt lat="49.91876" lon="2.21985">
        <ele>17.9</ele>
        <time>2022-04-11T11:05:32Z</time>
      </trkpt>
      <trkpt lat="49.91876" lon="2.21984">
        <ele>17.9</ele>
        <time>2022-04-11T11:05:33Z</time>
      </trkpt>
      <trkpt lat="49.91877" lon="2.21982">
        <ele>17.9</ele>
        <time>2022-04-11T11:05:34Z</time>
      </trkpt>
      <trkpt lat="49.91877" lon="2.2198">
        <ele>17.9</ele>
        <time>2022-04-11T11:05:35Z</time>
      </trkpt>
      <trkpt lat="49.91877" lon="2.21978">
        <ele>17.9</ele>
        <time>2022-04-11T11:05:36Z</time>
      </trkpt>
      <trkpt lat="49.91877" lon="2.21977">
        <ele>17.9</ele>
        <time>2022-04-11T11:05:37Z</time>
      </trkpt>
      <trkpt lat="49.91877" lon="2.21975">
        <ele>17.9</ele>
        <time>2022-04-11T11:05:38Z</time>
      </trkpt>
      <trkpt lat="49.91877" lon="2.21974">
        <ele>17.9</ele>
        <time>2022-04-11T11:05:39Z</time>
      </trkpt>
      <trkpt lat="49.91877" lon="2.21972">
        <ele>17.9</ele>
        <time>2022-04-11T11:05:41Z</time>
      </trkpt>
      <trkpt lat="49.91877" lon="2.2197">
        <ele>17.9</ele>
        <time>2022-04-11T11:05:42Z</time>
      </trkpt>
      <trkpt lat="49.91878" lon="2.21968">
        <ele>17.9</ele>
        <time>2022-04-11T11:05:43Z</time>
      </trkpt>
      <trkpt lat="49.91878" lon="2.21967">
        <ele>17.9</ele>
        <time>2022-04-11T11:05:44Z</time>
      </trkpt>
      <trkpt lat="49.91878" lon="2.21965">
        <ele>17.9</ele>
        <time>2022-04-11T11:05:45Z</time>
      </trkpt>
      <trkpt lat="49.91879" lon="2.21964">
        <ele>17.9</ele>
        <time>2022-04-11T11:05:46Z</time>
      </trkpt>
      <trkpt lat="49.91879" lon="2.21962">
        <ele>17.9</ele>
        <time>2022-04-11T11:05:47Z</time>
      </trkpt>
      <trkpt lat="49.9188" lon="2.21961">
        <ele>17.9</ele>
        <time>2022-04-11T11:05:48Z</time>
      </trkpt>
      <trkpt lat="49.91881" lon="2.21958">
        <ele>17.9</ele>
        <time>2022-04-11T11:05:49Z</time>
      </trkpt>
      <trkpt lat="49.91882" lon="2.21957">
        <ele>17.9</ele>
        <time>2022-04-11T11:05:50Z</time>
      </trkpt>
      <trkpt lat="49.91882" lon="2.21956">
        <ele>17.9</ele>
        <time>2022-04-11T11:05:52Z</time>
      </trkpt>
      <trkpt lat="49.91883" lon="2.21954">
        <ele>17.9</ele>
        <time>2022-04-11T11:05:53Z</time>
      </trkpt>
      <trkpt lat="49.91883" lon="2.21953">
        <ele>17.9</ele>
        <time>2022-04-11T11:05:54Z</time>
      </trkpt>
      <trkpt lat="49.91884" lon="2.21952">
        <ele>17.9</ele>
        <time>2022-04-11T11:05:55Z</time>
      </trkpt>
      <trkpt lat="49.91884" lon="2.2195">
        <ele>17.9</ele>
        <time>2022-04-11T11:05:56Z</time>
      </trkpt>
      <trkpt lat="49.91885" lon="2.21947">
        <ele>17.9</ele>
        <time>2022-04-11T11:05:57Z</time>
      </trkpt>
      <trkpt lat="49.91886" lon="2.21944">
        <ele>17.8</ele>
        <time>2022-04-11T11:05:58Z</time>
      </trkpt>
      <trkpt lat="49.91886" lon="2.21943">
        <ele>17.8</ele>
        <time>2022-04-11T11:05:59Z</time>
      </trkpt>
      <trkpt lat="49.91887" lon="2.21942">
        <ele>17.8</ele>
        <time>2022-04-11T11:06:00Z</time>
      </trkpt>
      <trkpt lat="49.91888" lon="2.21939">
        <ele>17.8</ele>
        <time>2022-04-11T11:06:01Z</time>
      </trkpt>
      <trkpt lat="49.91888" lon="2.21938">
        <ele>17.8</ele>
        <time>2022-04-11T11:06:02Z</time>
      </trkpt>
      <trkpt lat="49.91888" lon="2.21937">
        <ele>17.8</ele>
        <time>2022-04-11T11:06:03Z</time>
      </trkpt>
      <trkpt lat="49.91889" lon="2.21935">
        <ele>17.8</ele>
        <time>2022-04-11T11:06:05Z</time>
      </trkpt>
      <trkpt lat="49.9189" lon="2.21933">
        <ele>17.8</ele>
        <time>2022-04-11T11:06:06Z</time>
      </trkpt>
      <trkpt lat="49.91891" lon="2.21931">
        <ele>17.8</ele>
        <time>2022-04-11T11:06:07Z</time>
      </trkpt>
      <trkpt lat="49.91891" lon="2.21929">
        <ele>17.8</ele>
        <time>2022-04-11T11:06:08Z</time>
      </trkpt>
      <trkpt lat="49.91892" lon="2.21927">
        <ele>17.8</ele>
        <time>2022-04-11T11:06:09Z</time>
      </trkpt>
      <trkpt lat="49.91893" lon="2.21925">
        <ele>17.8</ele>
        <time>2022-04-11T11:06:10Z</time>
      </trkpt>
      <trkpt lat="49.91894" lon="2.21923">
        <ele>17.8</ele>
        <time>2022-04-11T11:06:11Z</time>
      </trkpt>
      <trkpt lat="49.91895" lon="2.21921">
        <ele>17.8</ele>
        <time>2022-04-11T11:06:12Z</time>
      </trkpt>
      <trkpt lat="49.91897" lon="2.21919">
        <ele>17.8</ele>
        <time>2022-04-11T11:06:13Z</time>
      </trkpt>
      <trkpt lat="49.91897" lon="2.21918">
        <ele>17.8</ele>
        <time>2022-04-11T11:06:14Z</time>
      </trkpt>
      <trkpt lat="49.91898" lon="2.21917">
        <ele>17.8</ele>
        <time>2022-04-11T11:06:15Z</time>
      </trkpt>
      <trkpt lat="49.91899" lon="2.21915">
        <ele>17.8</ele>
        <time>2022-04-11T11:06:17Z</time>
      </trkpt>
      <trkpt lat="49.919" lon="2.21913">
        <ele>17.8</ele>
        <time>2022-04-11T11:06:18Z</time>
      </trkpt>
      <trkpt lat="49.91901" lon="2.21911">
        <ele>17.8</ele>
        <time>2022-04-11T11:06:19Z</time>
      </trkpt>
      <trkpt lat="49.91901" lon="2.2191">
        <ele>17.8</ele>
        <time>2022-04-11T11:06:20Z</time>
      </trkpt>
      <trkpt lat="49.91902" lon="2.21908">
        <ele>17.8</ele>
        <time>2022-04-11T11:06:21Z</time>
      </trkpt>
      <trkpt lat="49.91903" lon="2.21906">
        <ele>17.8</ele>
        <time>2022-04-11T11:06:22Z</time>
      </trkpt>
      <trkpt lat="49.91904" lon="2.21903">
        <ele>17.7</ele>
        <time>2022-04-11T11:06:23Z</time>
      </trkpt>
      <trkpt lat="49.91905" lon="2.21902">
        <ele>17.7</ele>
        <time>2022-04-11T11:06:24Z</time>
      </trkpt>
      <trkpt lat="49.91905" lon="2.21901">
        <ele>17.7</ele>
        <time>2022-04-11T11:06:25Z</time>
      </trkpt>
      <trkpt lat="49.91906" lon="2.21899">
        <ele>17.7</ele>
        <time>2022-04-11T11:06:26Z</time>
      </trkpt>
      <trkpt lat="49.91907" lon="2.21898">
        <ele>17.7</ele>
        <time>2022-04-11T11:06:27Z</time>
      </trkpt>
      <trkpt lat="49.91908" lon="2.21897">
        <ele>17.7</ele>
        <time>2022-04-11T11:06:29Z</time>
      </trkpt>
      <trkpt lat="49.91909" lon="2.21896">
        <ele>17.7</ele>
        <time>2022-04-11T11:06:30Z</time>
      </trkpt>
      <trkpt lat="49.91909" lon="2.21895">
        <ele>17.7</ele>
        <time>2022-04-11T11:06:31Z</time>
      </trkpt>
      <trkpt lat="49.9191" lon="2.21894">
        <ele>17.7</ele>
        <time>2022-04-11T11:06:32Z</time>
      </trkpt>
      <trkpt lat="49.91911" lon="2.21891">
        <ele>17.7</ele>
        <time>2022-04-11T11:06:33Z</time>
      </trkpt>
      <trkpt lat="49.91912" lon="2.2189">
        <ele>17.7</ele>
        <time>2022-04-11T11:06:34Z</time>
      </trkpt>
      <trkpt lat="49.91913" lon="2.21889">
        <ele>17.7</ele>
        <time>2022-04-11T11:06:35Z</time>
      </trkpt>
      <trkpt lat="49.91913" lon="2.21888">
        <ele>17.7</ele>
        <time>2022-04-11T11:06:36Z</time>
      </trkpt>
      <trkpt lat="49.91914" lon="2.21886">
        <ele>17.7</ele>
        <time>2022-04-11T11:06:37Z</time>
      </trkpt>
      <trkpt lat="49.91915" lon="2.21885">
        <ele>17.7</ele>
        <time>2022-04-11T11:06:38Z</time>
      </trkpt>
      <trkpt lat="49.91916" lon="2.21883">
        <ele>17.7</ele>
        <time>2022-04-11T11:06:39Z</time>
      </trkpt>
      <trkpt lat="49.91917" lon="2.21882">
        <ele>17.7</ele>
        <time>2022-04-11T11:06:40Z</time>
      </trkpt>
      <trkpt lat="49.91917" lon="2.21881">
        <ele>17.7</ele>
        <time>2022-04-11T11:06:42Z</time>
      </trkpt>
      <trkpt lat="49.91918" lon="2.2188">
        <ele>17.7</ele>
        <time>2022-04-11T11:06:43Z</time>
      </trkpt>
      <trkpt lat="49.91919" lon="2.21878">
        <ele>17.7</ele>
        <time>2022-04-11T11:06:44Z</time>
      </trkpt>
      <trkpt lat="49.9192" lon="2.21877">
        <ele>17.7</ele>
        <time>2022-04-11T11:06:45Z</time>
      </trkpt>
      <trkpt lat="49.91921" lon="2.21875">
        <ele>17.7</ele>
        <time>2022-04-11T11:06:46Z</time>
      </trkpt>
      <trkpt lat="49.91922" lon="2.21875">
        <ele>17.7</ele>
        <time>2022-04-11T11:06:47Z</time>
      </trkpt>
      <trkpt lat="49.91923" lon="2.21874">
        <ele>17.7</ele>
        <time>2022-04-11T11:06:48Z</time>
      </trkpt>
      <trkpt lat="49.91924" lon="2.21872">
        <ele>17.7</ele>
        <time>2022-04-11T11:06:49Z</time>
      </trkpt>
      <trkpt lat="49.91925" lon="2.21871">
        <ele>17.7</ele>
        <time>2022-04-11T11:06:50Z</time>
      </trkpt>
      <trkpt lat="49.91926" lon="2.2187">
        <ele>17.7</ele>
        <time>2022-04-11T11:06:51Z</time>
      </trkpt>
      <trkpt lat="49.91927" lon="2.21869">
        <ele>17.7</ele>
        <time>2022-04-11T11:06:52Z</time>
      </trkpt>
      <trkpt lat="49.91927" lon="2.21869">
        <ele>17.7</ele>
        <time>2022-04-11T11:06:53Z</time>
      </trkpt>
      <trkpt lat="49.91928" lon="2.21867">
        <ele>17.7</ele>
        <time>2022-04-11T11:06:54Z</time>
      </trkpt>
      <trkpt lat="49.9193" lon="2.21865">
        <ele>17.7</ele>
        <time>2022-04-11T11:06:55Z</time>
      </trkpt>
      <trkpt lat="49.91931" lon="2.21865">
        <ele>17.7</ele>
        <time>2022-04-11T11:06:56Z</time>
      </trkpt>
      <trkpt lat="49.91932" lon="2.21864">
        <ele>17.7</ele>
        <time>2022-04-11T11:06:57Z</time>
      </trkpt>
      <trkpt lat="49.91933" lon="2.21863">
        <ele>17.7</ele>
        <time>2022-04-11T11:06:58Z</time>
      </trkpt>
      <trkpt lat="49.91934" lon="2.21862">
        <ele>17.7</ele>
        <time>2022-04-11T11:06:59Z</time>
      </trkpt>
      <trkpt lat="49.91935" lon="2.21861">
        <ele>17.7</ele>
        <time>2022-04-11T11:07:01Z</time>
      </trkpt>
      <trkpt lat="49.91936" lon="2.2186">
        <ele>17.7</ele>
        <time>2022-04-11T11:07:02Z</time>
      </trkpt>
      <trkpt lat="49.91937" lon="2.21859">
        <ele>17.7</ele>
        <time>2022-04-11T11:07:03Z</time>
      </trkpt>
      <trkpt lat="49.91938" lon="2.21858">
        <ele>17.7</ele>
        <time>2022-04-11T11:07:04Z</time>
      </trkpt>
      <trkpt lat="49.9194" lon="2.21857">
        <ele>17.7</ele>
        <time>2022-04-11T11:07:05Z</time>
      </trkpt>
      <trkpt lat="49.91941" lon="2.21856">
        <ele>17.7</ele>
        <time>2022-04-11T11:07:07Z</time>
      </trkpt>
      <trkpt lat="49.91942" lon="2.21855">
        <ele>17.7</ele>
        <time>2022-04-11T11:07:08Z</time>
      </trkpt>
      <trkpt lat="49.91943" lon="2.21854">
        <ele>17.7</ele>
        <time>2022-04-11T11:07:09Z</time>
      </trkpt>
      <trkpt lat="49.91944" lon="2.21853">
        <ele>17.7</ele>
        <time>2022-04-11T11:07:10Z</time>
      </trkpt>
      <trkpt lat="49.91946" lon="2.21851">
        <ele>17.7</ele>
        <time>2022-04-11T11:07:11Z</time>
      </trkpt>
      <trkpt lat="49.91946" lon="2.2185">
        <ele>17.7</ele>
        <time>2022-04-11T11:07:12Z</time>
      </trkpt>
      <trkpt lat="49.91947" lon="2.21849">
        <ele>17.7</ele>
        <time>2022-04-11T11:07:13Z</time>
      </trkpt>
      <trkpt lat="49.91949" lon="2.21846">
        <ele>17.7</ele>
        <time>2022-04-11T11:07:14Z</time>
      </trkpt>
      <trkpt lat="49.91949" lon="2.21846">
        <ele>17.7</ele>
        <time>2022-04-11T11:07:15Z</time>
      </trkpt>
      <trkpt lat="49.9195" lon="2.21845">
        <ele>17.7</ele>
        <time>2022-04-11T11:07:16Z</time>
      </trkpt>
      <trkpt lat="49.91951" lon="2.21843">
        <ele>17.7</ele>
        <time>2022-04-11T11:07:18Z</time>
      </trkpt>
      <trkpt lat="49.91952" lon="2.21841">
        <ele>17.7</ele>
        <time>2022-04-11T11:07:19Z</time>
      </trkpt>
      <trkpt lat="49.91953" lon="2.21841">
        <ele>17.7</ele>
        <time>2022-04-11T11:07:20Z</time>
      </trkpt>
      <trkpt lat="49.91954" lon="2.2184">
        <ele>17.7</ele>
        <time>2022-04-11T11:07:21Z</time>
      </trkpt>
      <trkpt lat="49.91955" lon="2.21839">
        <ele>17.7</ele>
        <time>2022-04-11T11:07:22Z</time>
      </trkpt>
      <trkpt lat="49.91956" lon="2.21838">
        <ele>17.7</ele>
        <time>2022-04-11T11:07:23Z</time>
      </trkpt>
      <trkpt lat="49.91957" lon="2.21837">
        <ele>17.7</ele>
        <time>2022-04-11T11:07:24Z</time>
      </trkpt>
      <trkpt lat="49.91958" lon="2.21836">
        <ele>17.7</ele>
        <time>2022-04-11T11:07:25Z</time>
      </trkpt>
      <trkpt lat="49.91958" lon="2.21835">
        <ele>17.7</ele>
        <time>2022-04-11T11:07:26Z</time>
      </trkpt>
      <trkpt lat="49.91959" lon="2.21834">
        <ele>17.7</ele>
        <time>2022-04-11T11:07:28Z</time>
      </trkpt>
      <trkpt lat="49.9196" lon="2.21833">
        <ele>17.7</ele>
        <time>2022-04-11T11:07:29Z</time>
      </trkpt>
      <trkpt lat="49.91962" lon="2.21831">
        <ele>17.7</ele>
        <time>2022-04-11T11:07:30Z</time>
      </trkpt>
      <trkpt lat="49.91963" lon="2.2183">
        <ele>17.7</ele>
        <time>2022-04-11T11:07:31Z</time>
      </trkpt>
      <trkpt lat="49.91963" lon="2.21829">
        <ele>17.7</ele>
        <time>2022-04-11T11:07:32Z</time>
      </trkpt>
      <trkpt lat="49.91964" lon="2.21828">
        <ele>17.7</ele>
        <time>2022-04-11T11:07:33Z</time>
      </trkpt>
      <trkpt lat="49.91966" lon="2.21826">
        <ele>17.7</ele>
        <time>2022-04-11T11:07:34Z</time>
      </trkpt>
      <trkpt lat="49.91967" lon="2.21825">
        <ele>17.7</ele>
        <time>2022-04-11T11:07:35Z</time>
      </trkpt>
      <trkpt lat="49.91968" lon="2.21824">
        <ele>17.7</ele>
        <time>2022-04-11T11:07:36Z</time>
      </trkpt>
      <trkpt lat="49.91969" lon="2.21822">
        <ele>17.7</ele>
        <time>2022-04-11T11:07:37Z</time>
      </trkpt>
      <trkpt lat="49.9197" lon="2.21821">
        <ele>17.7</ele>
        <time>2022-04-11T11:07:39Z</time>
      </trkpt>
      <trkpt lat="49.91971" lon="2.21819">
        <ele>17.7</ele>
        <time>2022-04-11T11:07:40Z</time>
      </trkpt>
      <trkpt lat="49.91972" lon="2.21818">
        <ele>17.7</ele>
        <time>2022-04-11T11:07:41Z</time>
      </trkpt>
      <trkpt lat="49.91973" lon="2.21816">
        <ele>17.7</ele>
        <time>2022-04-11T11:07:42Z</time>
      </trkpt>
      <trkpt lat="49.91974" lon="2.21814">
        <ele>17.7</ele>
        <time>2022-04-11T11:07:43Z</time>
      </trkpt>
      <trkpt lat="49.91975" lon="2.21812">
        <ele>17.7</ele>
        <time>2022-04-11T11:07:44Z</time>
      </trkpt>
      <trkpt lat="49.91976" lon="2.2181">
        <ele>17.7</ele>
        <time>2022-04-11T11:07:45Z</time>
      </trkpt>
      <trkpt lat="49.91978" lon="2.21808">
        <ele>17.7</ele>
        <time>2022-04-11T11:07:46Z</time>
      </trkpt>
      <trkpt lat="49.91979" lon="2.21806">
        <ele>17.7</ele>
        <time>2022-04-11T11:07:47Z</time>
      </trkpt>
      <trkpt lat="49.91979" lon="2.21804">
        <ele>17.7</ele>
        <time>2022-04-11T11:07:48Z</time>
      </trkpt>
      <trkpt lat="49.91981" lon="2.21803">
        <ele>17.7</ele>
        <time>2022-04-11T11:07:50Z</time>
      </trkpt>
      <trkpt lat="49.91982" lon="2.218">
        <ele>17.7</ele>
        <time>2022-04-11T11:07:51Z</time>
      </trkpt>
      <trkpt lat="49.91983" lon="2.21799">
        <ele>17.7</ele>
        <time>2022-04-11T11:07:52Z</time>
      </trkpt>
      <trkpt lat="49.91984" lon="2.21797">
        <ele>17.7</ele>
        <time>2022-04-11T11:07:53Z</time>
      </trkpt>
      <trkpt lat="49.91985" lon="2.21795">
        <ele>17.7</ele>
        <time>2022-04-11T11:07:54Z</time>
      </trkpt>
      <trkpt lat="49.91986" lon="2.21794">
        <ele>17.7</ele>
        <time>2022-04-11T11:07:55Z</time>
      </trkpt>
      <trkpt lat="49.91987" lon="2.21792">
        <ele>17.7</ele>
        <time>2022-04-11T11:07:57Z</time>
      </trkpt>
      <trkpt lat="49.91987" lon="2.21791">
        <ele>17.7</ele>
        <time>2022-04-11T11:07:58Z</time>
      </trkpt>
      <trkpt lat="49.91988" lon="2.2179">
        <ele>17.7</ele>
        <time>2022-04-11T11:07:59Z</time>
      </trkpt>
      <trkpt lat="49.91989" lon="2.21789">
        <ele>17.7</ele>
        <time>2022-04-11T11:08:00Z</time>
      </trkpt>
      <trkpt lat="49.91989" lon="2.21787">
        <ele>17.8</ele>
        <time>2022-04-11T11:08:01Z</time>
      </trkpt>
      <trkpt lat="49.9199" lon="2.21785">
        <ele>17.8</ele>
        <time>2022-04-11T11:08:02Z</time>
      </trkpt>
      <trkpt lat="49.91991" lon="2.21782">
        <ele>17.8</ele>
        <time>2022-04-11T11:08:04Z</time>
      </trkpt>
      <trkpt lat="49.91991" lon="2.21781">
        <ele>17.8</ele>
        <time>2022-04-11T11:08:05Z</time>
      </trkpt>
      <trkpt lat="49.91991" lon="2.21778">
        <ele>17.8</ele>
        <time>2022-04-11T11:08:06Z</time>
      </trkpt>
      <trkpt lat="49.91991" lon="2.21776">
        <ele>17.8</ele>
        <time>2022-04-11T11:08:07Z</time>
      </trkpt>
      <trkpt lat="49.91992" lon="2.21775">
        <ele>17.8</ele>
        <time>2022-04-11T11:08:08Z</time>
      </trkpt>
      <trkpt lat="49.91992" lon="2.21772">
        <ele>17.8</ele>
        <time>2022-04-11T11:08:09Z</time>
      </trkpt>
      <trkpt lat="49.91993" lon="2.21771">
        <ele>17.8</ele>
        <time>2022-04-11T11:08:10Z</time>
      </trkpt>
      <trkpt lat="49.91993" lon="2.2177">
        <ele>17.8</ele>
        <time>2022-04-11T11:08:11Z</time>
      </trkpt>
      <trkpt lat="49.91994" lon="2.21767">
        <ele>17.8</ele>
        <time>2022-04-11T11:08:12Z</time>
      </trkpt>
      <trkpt lat="49.91994" lon="2.21765">
        <ele>17.8</ele>
        <time>2022-04-11T11:08:13Z</time>
      </trkpt>
      <trkpt lat="49.91995" lon="2.21764">
        <ele>17.8</ele>
        <time>2022-04-11T11:08:15Z</time>
      </trkpt>
      <trkpt lat="49.91996" lon="2.21763">
        <ele>17.8</ele>
        <time>2022-04-11T11:08:16Z</time>
      </trkpt>
      <trkpt lat="49.91996" lon="2.21761">
        <ele>17.8</ele>
        <time>2022-04-11T11:08:17Z</time>
      </trkpt>
      <trkpt lat="49.91997" lon="2.2176">
        <ele>17.8</ele>
        <time>2022-04-11T11:08:18Z</time>
      </trkpt>
      <trkpt lat="49.91997" lon="2.21758">
        <ele>17.8</ele>
        <time>2022-04-11T11:08:19Z</time>
      </trkpt>
      <trkpt lat="49.91998" lon="2.21756">
        <ele>17.7</ele>
        <time>2022-04-11T11:08:20Z</time>
      </trkpt>
      <trkpt lat="49.91999" lon="2.21754">
        <ele>17.7</ele>
        <time>2022-04-11T11:08:21Z</time>
      </trkpt>
      <trkpt lat="49.91999" lon="2.21752">
        <ele>17.7</ele>
        <time>2022-04-11T11:08:22Z</time>
      </trkpt>
      <trkpt lat="49.92" lon="2.2175">
        <ele>17.7</ele>
        <time>2022-04-11T11:08:23Z</time>
      </trkpt>
      <trkpt lat="49.92001" lon="2.21748">
        <ele>17.7</ele>
        <time>2022-04-11T11:08:24Z</time>
      </trkpt>
      <trkpt lat="49.92001" lon="2.21747">
        <ele>17.7</ele>
        <time>2022-04-11T11:08:26Z</time>
      </trkpt>
      <trkpt lat="49.92002" lon="2.21745">
        <ele>17.7</ele>
        <time>2022-04-11T11:08:27Z</time>
      </trkpt>
      <trkpt lat="49.92003" lon="2.21744">
        <ele>17.7</ele>
        <time>2022-04-11T11:08:28Z</time>
      </trkpt>
      <trkpt lat="49.92004" lon="2.21743">
        <ele>17.7</ele>
        <time>2022-04-11T11:08:29Z</time>
      </trkpt>
      <trkpt lat="49.92004" lon="2.21742">
        <ele>17.7</ele>
        <time>2022-04-11T11:08:30Z</time>
      </trkpt>
      <trkpt lat="49.92005" lon="2.2174">
        <ele>17.7</ele>
        <time>2022-04-11T11:08:31Z</time>
      </trkpt>
      <trkpt lat="49.92005" lon="2.21739">
        <ele>17.7</ele>
        <time>2022-04-11T11:08:32Z</time>
      </trkpt>
      <trkpt lat="49.92006" lon="2.21738">
        <ele>17.7</ele>
        <time>2022-04-11T11:08:33Z</time>
      </trkpt>
      <trkpt lat="49.92007" lon="2.21736">
        <ele>17.7</ele>
        <time>2022-04-11T11:08:34Z</time>
      </trkpt>
      <trkpt lat="49.92007" lon="2.21735">
        <ele>17.7</ele>
        <time>2022-04-11T11:08:35Z</time>
      </trkpt>
      <trkpt lat="49.92009" lon="2.21733">
        <ele>17.7</ele>
        <time>2022-04-11T11:08:37Z</time>
      </trkpt>
      <trkpt lat="49.92009" lon="2.21732">
        <ele>17.7</ele>
        <time>2022-04-11T11:08:38Z</time>
      </trkpt>
      <trkpt lat="49.9201" lon="2.21731">
        <ele>17.7</ele>
        <time>2022-04-11T11:08:39Z</time>
      </trkpt>
      <trkpt lat="49.92011" lon="2.21729">
        <ele>17.7</ele>
        <time>2022-04-11T11:08:40Z</time>
      </trkpt>
      <trkpt lat="49.92012" lon="2.21728">
        <ele>17.7</ele>
        <time>2022-04-11T11:08:41Z</time>
      </trkpt>
      <trkpt lat="49.92012" lon="2.21727">
        <ele>17.7</ele>
        <time>2022-04-11T11:08:42Z</time>
      </trkpt>
      <trkpt lat="49.92013" lon="2.21726">
        <ele>17.7</ele>
        <time>2022-04-11T11:08:43Z</time>
      </trkpt>
      <trkpt lat="49.92014" lon="2.21724">
        <ele>17.7</ele>
        <time>2022-04-11T11:08:44Z</time>
      </trkpt>
      <trkpt lat="49.92015" lon="2.21723">
        <ele>17.7</ele>
        <time>2022-04-11T11:08:45Z</time>
      </trkpt>
      <trkpt lat="49.92016" lon="2.21721">
        <ele>17.7</ele>
        <time>2022-04-11T11:08:47Z</time>
      </trkpt>
      <trkpt lat="49.92017" lon="2.2172">
        <ele>17.7</ele>
        <time>2022-04-11T11:08:48Z</time>
      </trkpt>
      <trkpt lat="49.92018" lon="2.21719">
        <ele>17.7</ele>
        <time>2022-04-11T11:08:49Z</time>
      </trkpt>
      <trkpt lat="49.92018" lon="2.21718">
        <ele>17.7</ele>
        <time>2022-04-11T11:08:50Z</time>
      </trkpt>
      <trkpt lat="49.92019" lon="2.21717">
        <ele>17.7</ele>
        <time>2022-04-11T11:08:51Z</time>
      </trkpt>
      <trkpt lat="49.9202" lon="2.21716">
        <ele>17.7</ele>
        <time>2022-04-11T11:08:52Z</time>
      </trkpt>
      <trkpt lat="49.92021" lon="2.21715">
        <ele>17.7</ele>
        <time>2022-04-11T11:08:53Z</time>
      </trkpt>
      <trkpt lat="49.92022" lon="2.21714">
        <ele>17.6</ele>
        <time>2022-04-11T11:08:54Z</time>
      </trkpt>
      <trkpt lat="49.92023" lon="2.21713">
        <ele>17.6</ele>
        <time>2022-04-11T11:08:55Z</time>
      </trkpt>
      <trkpt lat="49.92024" lon="2.21711">
        <ele>17.6</ele>
        <time>2022-04-11T11:08:56Z</time>
      </trkpt>
      <trkpt lat="49.92025" lon="2.2171">
        <ele>17.6</ele>
        <time>2022-04-11T11:08:57Z</time>
      </trkpt>
      <trkpt lat="49.92026" lon="2.21709">
        <ele>17.6</ele>
        <time>2022-04-11T11:08:59Z</time>
      </trkpt>
      <trkpt lat="49.92026" lon="2.21708">
        <ele>17.6</ele>
        <time>2022-04-11T11:09:00Z</time>
      </trkpt>
      <trkpt lat="49.92027" lon="2.21707">
        <ele>17.6</ele>
        <time>2022-04-11T11:09:01Z</time>
      </trkpt>
      <trkpt lat="49.92028" lon="2.21706">
        <ele>17.6</ele>
        <time>2022-04-11T11:09:02Z</time>
      </trkpt>
      <trkpt lat="49.92028" lon="2.21704">
        <ele>17.6</ele>
        <time>2022-04-11T11:09:03Z</time>
      </trkpt>
      <trkpt lat="49.92029" lon="2.21703">
        <ele>17.6</ele>
        <time>2022-04-11T11:09:04Z</time>
      </trkpt>
      <trkpt lat="49.9203" lon="2.21702">
        <ele>17.6</ele>
        <time>2022-04-11T11:09:05Z</time>
      </trkpt>
      <trkpt lat="49.92031" lon="2.21701">
        <ele>17.6</ele>
        <time>2022-04-11T11:09:06Z</time>
      </trkpt>
      <trkpt lat="49.92031" lon="2.217">
        <ele>17.6</ele>
        <time>2022-04-11T11:09:07Z</time>
      </trkpt>
      <trkpt lat="49.92032" lon="2.21698">
        <ele>17.6</ele>
        <time>2022-04-11T11:09:09Z</time>
      </trkpt>
      <trkpt lat="49.92033" lon="2.21697">
        <ele>17.6</ele>
        <time>2022-04-11T11:09:10Z</time>
      </trkpt>
      <trkpt lat="49.92033" lon="2.21696">
        <ele>17.6</ele>
        <time>2022-04-11T11:09:11Z</time>
      </trkpt>
      <trkpt lat="49.92034" lon="2.21695">
        <ele>17.6</ele>
        <time>2022-04-11T11:09:12Z</time>
      </trkpt>
      <trkpt lat="49.92036" lon="2.21693">
        <ele>17.6</ele>
        <time>2022-04-11T11:09:13Z</time>
      </trkpt>
      <trkpt lat="49.92037" lon="2.21692">
        <ele>17.6</ele>
        <time>2022-04-11T11:09:14Z</time>
      </trkpt>
      <trkpt lat="49.92038" lon="2.21691">
        <ele>17.6</ele>
        <time>2022-04-11T11:09:16Z</time>
      </trkpt>
      <trkpt lat="49.92038" lon="2.2169">
        <ele>17.6</ele>
        <time>2022-04-11T11:09:17Z</time>
      </trkpt>
      <trkpt lat="49.92039" lon="2.21689">
        <ele>17.6</ele>
        <time>2022-04-11T11:09:18Z</time>
      </trkpt>
      <trkpt lat="49.9204" lon="2.21688">
        <ele>17.6</ele>
        <time>2022-04-11T11:09:20Z</time>
      </trkpt>
      <trkpt lat="49.92041" lon="2.21687">
        <ele>17.6</ele>
        <time>2022-04-11T11:09:21Z</time>
      </trkpt>
      <trkpt lat="49.92042" lon="2.21686">
        <ele>17.6</ele>
        <time>2022-04-11T11:09:22Z</time>
      </trkpt>
      <trkpt lat="49.92043" lon="2.21685">
        <ele>17.6</ele>
        <time>2022-04-11T11:09:23Z</time>
      </trkpt>
      <trkpt lat="49.92043" lon="2.21684">
        <ele>17.6</ele>
        <time>2022-04-11T11:09:24Z</time>
      </trkpt>
      <trkpt lat="49.92044" lon="2.21683">
        <ele>17.6</ele>
        <time>2022-04-11T11:09:25Z</time>
      </trkpt>
      <trkpt lat="49.92045" lon="2.21682">
        <ele>17.6</ele>
        <time>2022-04-11T11:09:26Z</time>
      </trkpt>
      <trkpt lat="49.92045" lon="2.21681">
        <ele>17.6</ele>
        <time>2022-04-11T11:09:27Z</time>
      </trkpt>
      <trkpt lat="49.92046" lon="2.2168">
        <ele>17.6</ele>
        <time>2022-04-11T11:09:29Z</time>
      </trkpt>
      <trkpt lat="49.92047" lon="2.21678">
        <ele>17.6</ele>
        <time>2022-04-11T11:09:30Z</time>
      </trkpt>
      <trkpt lat="49.92049" lon="2.21676">
        <ele>17.6</ele>
        <time>2022-04-11T11:09:31Z</time>
      </trkpt>
      <trkpt lat="49.92049" lon="2.21675">
        <ele>17.6</ele>
        <time>2022-04-11T11:09:32Z</time>
      </trkpt>
      <trkpt lat="49.9205" lon="2.21674">
        <ele>17.6</ele>
        <time>2022-04-11T11:09:33Z</time>
      </trkpt>
      <trkpt lat="49.92051" lon="2.21673">
        <ele>17.6</ele>
        <time>2022-04-11T11:09:34Z</time>
      </trkpt>
      <trkpt lat="49.92052" lon="2.21672">
        <ele>17.6</ele>
        <time>2022-04-11T11:09:35Z</time>
      </trkpt>
      <trkpt lat="49.92053" lon="2.21671">
        <ele>17.6</ele>
        <time>2022-04-11T11:09:36Z</time>
      </trkpt>
      <trkpt lat="49.92054" lon="2.21669">
        <ele>17.6</ele>
        <time>2022-04-11T11:09:38Z</time>
      </trkpt>
      <trkpt lat="49.92055" lon="2.21668">
        <ele>17.6</ele>
        <time>2022-04-11T11:09:39Z</time>
      </trkpt>
      <trkpt lat="49.92056" lon="2.21666">
        <ele>17.6</ele>
        <time>2022-04-11T11:09:40Z</time>
      </trkpt>
      <trkpt lat="49.92057" lon="2.21665">
        <ele>17.6</ele>
        <time>2022-04-11T11:09:41Z</time>
      </trkpt>
      <trkpt lat="49.92058" lon="2.21663">
        <ele>17.6</ele>
        <time>2022-04-11T11:09:42Z</time>
      </trkpt>
      <trkpt lat="49.9206" lon="2.21662">
        <ele>17.6</ele>
        <time>2022-04-11T11:09:43Z</time>
      </trkpt>
      <trkpt lat="49.92061" lon="2.2166">
        <ele>17.6</ele>
        <time>2022-04-11T11:09:44Z</time>
      </trkpt>
      <trkpt lat="49.92062" lon="2.21658">
        <ele>17.6</ele>
        <time>2022-04-11T11:09:45Z</time>
      </trkpt>
      <trkpt lat="49.92063" lon="2.21656">
        <ele>17.6</ele>
        <time>2022-04-11T11:09:46Z</time>
      </trkpt>
      <trkpt lat="49.92064" lon="2.21655">
        <ele>17.6</ele>
        <time>2022-04-11T11:09:47Z</time>
      </trkpt>
      <trkpt lat="49.92065" lon="2.21653">
        <ele>17.6</ele>
        <time>2022-04-11T11:09:48Z</time>
      </trkpt>
      <trkpt lat="49.92066" lon="2.21652">
        <ele>17.6</ele>
        <time>2022-04-11T11:09:49Z</time>
      </trkpt>
      <trkpt lat="49.92067" lon="2.2165">
        <ele>17.6</ele>
        <time>2022-04-11T11:09:51Z</time>
      </trkpt>
      <trkpt lat="49.92068" lon="2.21648">
        <ele>17.7</ele>
        <time>2022-04-11T11:09:52Z</time>
      </trkpt>
      <trkpt lat="49.92069" lon="2.21646">
        <ele>17.7</ele>
        <time>2022-04-11T11:09:53Z</time>
      </trkpt>
      <trkpt lat="49.9207" lon="2.21644">
        <ele>17.7</ele>
        <time>2022-04-11T11:09:54Z</time>
      </trkpt>
      <trkpt lat="49.92072" lon="2.2164">
        <ele>17.7</ele>
        <time>2022-04-11T11:09:55Z</time>
      </trkpt>
      <trkpt lat="49.92073" lon="2.21639">
        <ele>17.7</ele>
        <time>2022-04-11T11:09:56Z</time>
      </trkpt>
      <trkpt lat="49.92074" lon="2.21638">
        <ele>17.7</ele>
        <time>2022-04-11T11:09:57Z</time>
      </trkpt>
      <trkpt lat="49.92075" lon="2.21636">
        <ele>17.7</ele>
        <time>2022-04-11T11:09:58Z</time>
      </trkpt>
      <trkpt lat="49.92075" lon="2.21635">
        <ele>17.7</ele>
        <time>2022-04-11T11:09:59Z</time>
      </trkpt>
      <trkpt lat="49.92076" lon="2.21633">
        <ele>17.7</ele>
        <time>2022-04-11T11:10:00Z</time>
      </trkpt>
      <trkpt lat="49.92077" lon="2.21631">
        <ele>17.7</ele>
        <time>2022-04-11T11:10:02Z</time>
      </trkpt>
      <trkpt lat="49.92078" lon="2.2163">
        <ele>17.7</ele>
        <time>2022-04-11T11:10:03Z</time>
      </trkpt>
      <trkpt lat="49.92078" lon="2.21628">
        <ele>17.7</ele>
        <time>2022-04-11T11:10:04Z</time>
      </trkpt>
      <trkpt lat="49.92079" lon="2.21627">
        <ele>17.7</ele>
        <time>2022-04-11T11:10:05Z</time>
      </trkpt>
      <trkpt lat="49.9208" lon="2.21625">
        <ele>17.7</ele>
        <time>2022-04-11T11:10:06Z</time>
      </trkpt>
      <trkpt lat="49.92081" lon="2.21624">
        <ele>17.7</ele>
        <time>2022-04-11T11:10:07Z</time>
      </trkpt>
      <trkpt lat="49.92081" lon="2.21622">
        <ele>17.7</ele>
        <time>2022-04-11T11:10:08Z</time>
      </trkpt>
      <trkpt lat="49.92082" lon="2.21621">
        <ele>17.7</ele>
        <time>2022-04-11T11:10:09Z</time>
      </trkpt>
      <trkpt lat="49.92082" lon="2.2162">
        <ele>17.7</ele>
        <time>2022-04-11T11:10:10Z</time>
      </trkpt>
      <trkpt lat="49.92083" lon="2.21618">
        <ele>17.7</ele>
        <time>2022-04-11T11:10:11Z</time>
      </trkpt>
      <trkpt lat="49.92083" lon="2.21617">
        <ele>17.7</ele>
        <time>2022-04-11T11:10:12Z</time>
      </trkpt>
      <trkpt lat="49.92084" lon="2.21616">
        <ele>17.7</ele>
        <time>2022-04-11T11:10:14Z</time>
      </trkpt>
      <trkpt lat="49.92084" lon="2.21616">
        <ele>17.7</ele>
        <time>2022-04-11T11:10:15Z</time>
      </trkpt>
      <trkpt lat="49.92085" lon="2.21615">
        <ele>17.7</ele>
        <time>2022-04-11T11:10:16Z</time>
      </trkpt>
      <trkpt lat="49.92086" lon="2.21613">
        <ele>17.7</ele>
        <time>2022-04-11T11:10:17Z</time>
      </trkpt>
      <trkpt lat="49.92086" lon="2.21612">
        <ele>17.7</ele>
        <time>2022-04-11T11:10:18Z</time>
      </trkpt>
      <trkpt lat="49.92087" lon="2.21611">
        <ele>17.7</ele>
        <time>2022-04-11T11:10:19Z</time>
      </trkpt>
      <trkpt lat="49.92088" lon="2.21609">
        <ele>17.7</ele>
        <time>2022-04-11T11:10:20Z</time>
      </trkpt>
      <trkpt lat="49.92088" lon="2.21608">
        <ele>17.7</ele>
        <time>2022-04-11T11:10:21Z</time>
      </trkpt>
      <trkpt lat="49.92088" lon="2.21608">
        <ele>17.7</ele>
        <time>2022-04-11T11:10:22Z</time>
      </trkpt>
      <trkpt lat="49.92088" lon="2.21607">
        <ele>17.7</ele>
        <time>2022-04-11T11:10:23Z</time>
      </trkpt>
      <trkpt lat="49.92088" lon="2.21606">
        <ele>17.7</ele>
        <time>2022-04-11T11:10:25Z</time>
      </trkpt>
      <trkpt lat="49.92088" lon="2.21606">
        <ele>17.7</ele>
        <time>2022-04-11T11:10:26Z</time>
      </trkpt>
      <trkpt lat="49.92089" lon="2.21605">
        <ele>17.7</ele>
        <time>2022-04-11T11:10:27Z</time>
      </trkpt>
      <trkpt lat="49.9209" lon="2.21605">
        <ele>17.7</ele>
        <time>2022-04-11T11:10:28Z</time>
      </trkpt>
      <trkpt lat="49.9209" lon="2.21604">
        <ele>17.7</ele>
        <time>2022-04-11T11:10:29Z</time>
      </trkpt>
      <trkpt lat="49.92091" lon="2.21602">
        <ele>17.7</ele>
        <time>2022-04-11T11:10:30Z</time>
      </trkpt>
      <trkpt lat="49.92091" lon="2.216">
        <ele>17.7</ele>
        <time>2022-04-11T11:10:31Z</time>
      </trkpt>
      <trkpt lat="49.92092" lon="2.21599">
        <ele>17.7</ele>
        <time>2022-04-11T11:10:32Z</time>
      </trkpt>
      <trkpt lat="49.92092" lon="2.21598">
        <ele>17.7</ele>
        <time>2022-04-11T11:10:33Z</time>
      </trkpt>
      <trkpt lat="49.92093" lon="2.21596">
        <ele>17.7</ele>
        <time>2022-04-11T11:10:34Z</time>
      </trkpt>
      <trkpt lat="49.92094" lon="2.21594">
        <ele>17.7</ele>
        <time>2022-04-11T11:10:36Z</time>
      </trkpt>
      <trkpt lat="49.92094" lon="2.21593">
        <ele>17.7</ele>
        <time>2022-04-11T11:10:37Z</time>
      </trkpt>
      <trkpt lat="49.92094" lon="2.21592">
        <ele>17.7</ele>
        <time>2022-04-11T11:10:38Z</time>
      </trkpt>
      <trkpt lat="49.92093" lon="2.2159">
        <ele>17.7</ele>
        <time>2022-04-11T11:10:39Z</time>
      </trkpt>
      <trkpt lat="49.92094" lon="2.21589">
        <ele>17.7</ele>
        <time>2022-04-11T11:10:40Z</time>
      </trkpt>
      <trkpt lat="49.92094" lon="2.21587">
        <ele>17.7</ele>
        <time>2022-04-11T11:10:41Z</time>
      </trkpt>
      <trkpt lat="49.92095" lon="2.21586">
        <ele>17.7</ele>
        <time>2022-04-11T11:10:42Z</time>
      </trkpt>
      <trkpt lat="49.92096" lon="2.21584">
        <ele>17.7</ele>
        <time>2022-04-11T11:10:43Z</time>
      </trkpt>
      <trkpt lat="49.92096" lon="2.21583">
        <ele>17.7</ele>
        <time>2022-04-11T11:10:44Z</time>
      </trkpt>
      <trkpt lat="49.92097" lon="2.21581">
        <ele>17.7</ele>
        <time>2022-04-11T11:10:46Z</time>
      </trkpt>
      <trkpt lat="49.92097" lon="2.2158">
        <ele>17.7</ele>
        <time>2022-04-11T11:10:47Z</time>
      </trkpt>
      <trkpt lat="49.92097" lon="2.21579">
        <ele>17.7</ele>
        <time>2022-04-11T11:10:48Z</time>
      </trkpt>
      <trkpt lat="49.92098" lon="2.21577">
        <ele>17.7</ele>
        <time>2022-04-11T11:10:49Z</time>
      </trkpt>
      <trkpt lat="49.92099" lon="2.21576">
        <ele>17.7</ele>
        <time>2022-04-11T11:10:50Z</time>
      </trkpt>
      <trkpt lat="49.921" lon="2.21574">
        <ele>17.7</ele>
        <time>2022-04-11T11:10:51Z</time>
      </trkpt>
      <trkpt lat="49.921" lon="2.21573">
        <ele>17.7</ele>
        <time>2022-04-11T11:10:52Z</time>
      </trkpt>
      <trkpt lat="49.92101" lon="2.21572">
        <ele>17.7</ele>
        <time>2022-04-11T11:10:53Z</time>
      </trkpt>
      <trkpt lat="49.92101" lon="2.21572">
        <ele>17.7</ele>
        <time>2022-04-11T11:10:54Z</time>
      </trkpt>
      <trkpt lat="49.92102" lon="2.21571">
        <ele>17.7</ele>
        <time>2022-04-11T11:10:55Z</time>
      </trkpt>
      <trkpt lat="49.92102" lon="2.2157">
        <ele>17.7</ele>
        <time>2022-04-11T11:10:56Z</time>
      </trkpt>
      <trkpt lat="49.92103" lon="2.21569">
        <ele>17.7</ele>
        <time>2022-04-11T11:10:58Z</time>
      </trkpt>
      <trkpt lat="49.92104" lon="2.21568">
        <ele>17.7</ele>
        <time>2022-04-11T11:10:59Z</time>
      </trkpt>
      <trkpt lat="49.92105" lon="2.21566">
        <ele>17.7</ele>
        <time>2022-04-11T11:11:00Z</time>
      </trkpt>
      <trkpt lat="49.92106" lon="2.21566">
        <ele>17.7</ele>
        <time>2022-04-11T11:11:01Z</time>
      </trkpt>
      <trkpt lat="49.92107" lon="2.21565">
        <ele>17.7</ele>
        <time>2022-04-11T11:11:02Z</time>
      </trkpt>
      <trkpt lat="49.92108" lon="2.21564">
        <ele>17.8</ele>
        <time>2022-04-11T11:11:03Z</time>
      </trkpt>
      <trkpt lat="49.92108" lon="2.21563">
        <ele>17.8</ele>
        <time>2022-04-11T11:11:04Z</time>
      </trkpt>
      <trkpt lat="49.92109" lon="2.21562">
        <ele>17.8</ele>
        <time>2022-04-11T11:11:05Z</time>
      </trkpt>
      <trkpt lat="49.92109" lon="2.21561">
        <ele>17.8</ele>
        <time>2022-04-11T11:11:06Z</time>
      </trkpt>
      <trkpt lat="49.9211" lon="2.21559">
        <ele>17.8</ele>
        <time>2022-04-11T11:11:07Z</time>
      </trkpt>
      <trkpt lat="49.9211" lon="2.21557">
        <ele>17.8</ele>
        <time>2022-04-11T11:11:08Z</time>
      </trkpt>
      <trkpt lat="49.92111" lon="2.21556">
        <ele>17.8</ele>
        <time>2022-04-11T11:11:09Z</time>
      </trkpt>
      <trkpt lat="49.92111" lon="2.21555">
        <ele>17.8</ele>
        <time>2022-04-11T11:11:11Z</time>
      </trkpt>
      <trkpt lat="49.92111" lon="2.21553">
        <ele>17.8</ele>
        <time>2022-04-11T11:11:12Z</time>
      </trkpt>
      <trkpt lat="49.92112" lon="2.21552">
        <ele>17.8</ele>
        <time>2022-04-11T11:11:13Z</time>
      </trkpt>
      <trkpt lat="49.92112" lon="2.21551">
        <ele>17.8</ele>
        <time>2022-04-11T11:11:14Z</time>
      </trkpt>
      <trkpt lat="49.92113" lon="2.21549">
        <ele>17.8</ele>
        <time>2022-04-11T11:11:15Z</time>
      </trkpt>
      <trkpt lat="49.92114" lon="2.21548">
        <ele>17.8</ele>
        <time>2022-04-11T11:11:16Z</time>
      </trkpt>
      <trkpt lat="49.92115" lon="2.21546">
        <ele>17.8</ele>
        <time>2022-04-11T11:11:17Z</time>
      </trkpt>
      <trkpt lat="49.92116" lon="2.21543">
        <ele>17.8</ele>
        <time>2022-04-11T11:11:18Z</time>
      </trkpt>
      <trkpt lat="49.92117" lon="2.21542">
        <ele>17.8</ele>
        <time>2022-04-11T11:11:19Z</time>
      </trkpt>
      <trkpt lat="49.92117" lon="2.21542">
        <ele>17.8</ele>
        <time>2022-04-11T11:11:20Z</time>
      </trkpt>
      <trkpt lat="49.92119" lon="2.21539">
        <ele>17.8</ele>
        <time>2022-04-11T11:11:22Z</time>
      </trkpt>
      <trkpt lat="49.92119" lon="2.21538">
        <ele>17.8</ele>
        <time>2022-04-11T11:11:23Z</time>
      </trkpt>
      <trkpt lat="49.9212" lon="2.21538">
        <ele>17.8</ele>
        <time>2022-04-11T11:11:24Z</time>
      </trkpt>
      <trkpt lat="49.92122" lon="2.21535">
        <ele>17.8</ele>
        <time>2022-04-11T11:11:25Z</time>
      </trkpt>
      <trkpt lat="49.92122" lon="2.21535">
        <ele>17.8</ele>
        <time>2022-04-11T11:11:26Z</time>
      </trkpt>
      <trkpt lat="49.92123" lon="2.21534">
        <ele>17.8</ele>
        <time>2022-04-11T11:11:27Z</time>
      </trkpt>
      <trkpt lat="49.92124" lon="2.21533">
        <ele>17.8</ele>
        <time>2022-04-11T11:11:28Z</time>
      </trkpt>
      <trkpt lat="49.92125" lon="2.21532">
        <ele>17.8</ele>
        <time>2022-04-11T11:11:29Z</time>
      </trkpt>
      <trkpt lat="49.92126" lon="2.2153">
        <ele>17.8</ele>
        <time>2022-04-11T11:11:30Z</time>
      </trkpt>
      <trkpt lat="49.92127" lon="2.21529">
        <ele>17.8</ele>
        <time>2022-04-11T11:11:31Z</time>
      </trkpt>
      <trkpt lat="49.92128" lon="2.21528">
        <ele>17.8</ele>
        <time>2022-04-11T11:11:33Z</time>
      </trkpt>
      <trkpt lat="49.92129" lon="2.21527">
        <ele>17.8</ele>
        <time>2022-04-11T11:11:34Z</time>
      </trkpt>
      <trkpt lat="49.92131" lon="2.21526">
        <ele>17.8</ele>
        <time>2022-04-11T11:11:35Z</time>
      </trkpt>
      <trkpt lat="49.92131" lon="2.21525">
        <ele>17.8</ele>
        <time>2022-04-11T11:11:36Z</time>
      </trkpt>
      <trkpt lat="49.92132" lon="2.21524">
        <ele>17.8</ele>
        <time>2022-04-11T11:11:37Z</time>
      </trkpt>
      <trkpt lat="49.92133" lon="2.21523">
        <ele>17.8</ele>
        <time>2022-04-11T11:11:38Z</time>
      </trkpt>
      <trkpt lat="49.92134" lon="2.21522">
        <ele>17.8</ele>
        <time>2022-04-11T11:11:39Z</time>
      </trkpt>
      <trkpt lat="49.92135" lon="2.21521">
        <ele>17.8</ele>
        <time>2022-04-11T11:11:40Z</time>
      </trkpt>
      <trkpt lat="49.92136" lon="2.21519">
        <ele>17.8</ele>
        <time>2022-04-11T11:11:41Z</time>
      </trkpt>
      <trkpt lat="49.92137" lon="2.21518">
        <ele>17.8</ele>
        <time>2022-04-11T11:11:42Z</time>
      </trkpt>
      <trkpt lat="49.92138" lon="2.21517">
        <ele>17.8</ele>
        <time>2022-04-11T11:11:44Z</time>
      </trkpt>
      <trkpt lat="49.92138" lon="2.21516">
        <ele>17.8</ele>
        <time>2022-04-11T11:11:45Z</time>
      </trkpt>
      <trkpt lat="49.92139" lon="2.21515">
        <ele>17.8</ele>
        <time>2022-04-11T11:11:46Z</time>
      </trkpt>
      <trkpt lat="49.9214" lon="2.21515">
        <ele>17.8</ele>
        <time>2022-04-11T11:11:47Z</time>
      </trkpt>
      <trkpt lat="49.92141" lon="2.21512">
        <ele>17.8</ele>
        <time>2022-04-11T11:11:48Z</time>
      </trkpt>
      <trkpt lat="49.92141" lon="2.21511">
        <ele>17.8</ele>
        <time>2022-04-11T11:11:49Z</time>
      </trkpt>
      <trkpt lat="49.92141" lon="2.21509">
        <ele>17.8</ele>
        <time>2022-04-11T11:11:50Z</time>
      </trkpt>
      <trkpt lat="49.92142" lon="2.21507">
        <ele>17.8</ele>
        <time>2022-04-11T11:11:52Z</time>
      </trkpt>
      <trkpt lat="49.92142" lon="2.21506">
        <ele>17.8</ele>
        <time>2022-04-11T11:11:53Z</time>
      </trkpt>
      <trkpt lat="49.92143" lon="2.21506">
        <ele>17.8</ele>
        <time>2022-04-11T11:11:54Z</time>
      </trkpt>
      <trkpt lat="49.92144" lon="2.21505">
        <ele>17.8</ele>
        <time>2022-04-11T11:11:55Z</time>
      </trkpt>
      <trkpt lat="49.92144" lon="2.21505">
        <ele>17.8</ele>
        <time>2022-04-11T11:11:56Z</time>
      </trkpt>
      <trkpt lat="49.92145" lon="2.21504">
        <ele>17.8</ele>
        <time>2022-04-11T11:11:57Z</time>
      </trkpt>
      <trkpt lat="49.92146" lon="2.21503">
        <ele>17.8</ele>
        <time>2022-04-11T11:11:58Z</time>
      </trkpt>
      <trkpt lat="49.92147" lon="2.21503">
        <ele>17.8</ele>
        <time>2022-04-11T11:11:59Z</time>
      </trkpt>
      <trkpt lat="49.92147" lon="2.21502">
        <ele>17.8</ele>
        <time>2022-04-11T11:12:00Z</time>
      </trkpt>
      <trkpt lat="49.92148" lon="2.21502">
        <ele>17.8</ele>
        <time>2022-04-11T11:12:02Z</time>
      </trkpt>
      <trkpt lat="49.92149" lon="2.21501">
        <ele>17.8</ele>
        <time>2022-04-11T11:12:03Z</time>
      </trkpt>
      <trkpt lat="49.9215" lon="2.215">
        <ele>17.8</ele>
        <time>2022-04-11T11:12:04Z</time>
      </trkpt>
      <trkpt lat="49.9215" lon="2.215">
        <ele>17.8</ele>
        <time>2022-04-11T11:12:05Z</time>
      </trkpt>
      <trkpt lat="49.9215" lon="2.215">
        <ele>17.8</ele>
        <time>2022-04-11T11:12:06Z</time>
      </trkpt>
      <trkpt lat="49.9215" lon="2.215">
        <ele>17.8</ele>
        <time>2022-04-11T11:12:07Z</time>
      </trkpt>
      <trkpt lat="49.9215" lon="2.215">
        <ele>17.8</ele>
        <time>2022-04-11T11:12:08Z</time>
      </trkpt>
      <trkpt lat="49.9215" lon="2.21501">
        <ele>17.8</ele>
        <time>2022-04-11T11:12:09Z</time>
      </trkpt>
      <trkpt lat="49.92151" lon="2.21501">
        <ele>17.8</ele>
        <time>2022-04-11T11:12:10Z</time>
      </trkpt>
      <trkpt lat="49.92152" lon="2.215">
        <ele>17.8</ele>
        <time>2022-04-11T11:12:11Z</time>
      </trkpt>
      <trkpt lat="49.92152" lon="2.215">
        <ele>17.8</ele>
        <time>2022-04-11T11:12:13Z</time>
      </trkpt>
      <trkpt lat="49.92153" lon="2.21499">
        <ele>17.8</ele>
        <time>2022-04-11T11:12:14Z</time>
      </trkpt>
      <trkpt lat="49.92154" lon="2.21498">
        <ele>17.8</ele>
        <time>2022-04-11T11:12:15Z</time>
      </trkpt>
      <trkpt lat="49.92154" lon="2.21497">
        <ele>17.8</ele>
        <time>2022-04-11T11:12:16Z</time>
      </trkpt>
      <trkpt lat="49.92154" lon="2.21496">
        <ele>17.8</ele>
        <time>2022-04-11T11:12:17Z</time>
      </trkpt>
      <trkpt lat="49.92155" lon="2.21495">
        <ele>17.8</ele>
        <time>2022-04-11T11:12:18Z</time>
      </trkpt>
      <trkpt lat="49.92156" lon="2.21494">
        <ele>17.8</ele>
        <time>2022-04-11T11:12:19Z</time>
      </trkpt>
      <trkpt lat="49.92156" lon="2.21492">
        <ele>17.8</ele>
        <time>2022-04-11T11:12:20Z</time>
      </trkpt>
      <trkpt lat="49.92157" lon="2.21491">
        <ele>17.8</ele>
        <time>2022-04-11T11:12:21Z</time>
      </trkpt>
      <trkpt lat="49.92158" lon="2.2149">
        <ele>17.8</ele>
        <time>2022-04-11T11:12:23Z</time>
      </trkpt>
      <trkpt lat="49.92159" lon="2.21488">
        <ele>17.8</ele>
        <time>2022-04-11T11:12:24Z</time>
      </trkpt>
      <trkpt lat="49.92159" lon="2.21487">
        <ele>17.8</ele>
        <time>2022-04-11T11:12:25Z</time>
      </trkpt>
      <trkpt lat="49.9216" lon="2.21486">
        <ele>17.8</ele>
        <time>2022-04-11T11:12:26Z</time>
      </trkpt>
      <trkpt lat="49.9216" lon="2.21484">
        <ele>17.8</ele>
        <time>2022-04-11T11:12:27Z</time>
      </trkpt>
      <trkpt lat="49.92161" lon="2.21483">
        <ele>17.8</ele>
        <time>2022-04-11T11:12:28Z</time>
      </trkpt>
      <trkpt lat="49.92162" lon="2.21481">
        <ele>17.8</ele>
        <time>2022-04-11T11:12:29Z</time>
      </trkpt>
      <trkpt lat="49.92162" lon="2.21479">
        <ele>17.8</ele>
        <time>2022-04-11T11:12:30Z</time>
      </trkpt>
      <trkpt lat="49.92162" lon="2.21478">
        <ele>17.8</ele>
        <time>2022-04-11T11:12:31Z</time>
      </trkpt>
      <trkpt lat="49.92163" lon="2.21477">
        <ele>17.8</ele>
        <time>2022-04-11T11:12:33Z</time>
      </trkpt>
      <trkpt lat="49.92163" lon="2.21476">
        <ele>17.8</ele>
        <time>2022-04-11T11:12:34Z</time>
      </trkpt>
      <trkpt lat="49.92163" lon="2.21475">
        <ele>17.8</ele>
        <time>2022-04-11T11:12:35Z</time>
      </trkpt>
      <trkpt lat="49.92163" lon="2.21475">
        <ele>17.8</ele>
        <time>2022-04-11T11:12:36Z</time>
      </trkpt>
      <trkpt lat="49.92164" lon="2.21475">
        <ele>17.8</ele>
        <time>2022-04-11T11:12:37Z</time>
      </trkpt>
      <trkpt lat="49.92165" lon="2.21473">
        <ele>17.8</ele>
        <time>2022-04-11T11:12:38Z</time>
      </trkpt>
      <trkpt lat="49.92165" lon="2.21472">
        <ele>17.8</ele>
        <time>2022-04-11T11:12:39Z</time>
      </trkpt>
      <trkpt lat="49.92166" lon="2.21472">
        <ele>17.8</ele>
        <time>2022-04-11T11:12:40Z</time>
      </trkpt>
      <trkpt lat="49.92166" lon="2.21471">
        <ele>17.8</ele>
        <time>2022-04-11T11:12:41Z</time>
      </trkpt>
      <trkpt lat="49.92166" lon="2.21471">
        <ele>17.8</ele>
        <time>2022-04-11T11:12:42Z</time>
      </trkpt>
      <trkpt lat="49.92167" lon="2.2147">
        <ele>17.8</ele>
        <time>2022-04-11T11:12:44Z</time>
      </trkpt>
      <trkpt lat="49.92167" lon="2.2147">
        <ele>17.8</ele>
        <time>2022-04-11T11:12:45Z</time>
      </trkpt>
      <trkpt lat="49.92168" lon="2.21469">
        <ele>17.8</ele>
        <time>2022-04-11T11:12:46Z</time>
      </trkpt>
      <trkpt lat="49.92168" lon="2.21469">
        <ele>17.8</ele>
        <time>2022-04-11T11:12:47Z</time>
      </trkpt>
      <trkpt lat="49.92169" lon="2.21468">
        <ele>17.8</ele>
        <time>2022-04-11T11:12:48Z</time>
      </trkpt>
      <trkpt lat="49.9217" lon="2.21468">
        <ele>17.8</ele>
        <time>2022-04-11T11:12:49Z</time>
      </trkpt>
      <trkpt lat="49.9217" lon="2.21467">
        <ele>17.8</ele>
        <time>2022-04-11T11:12:50Z</time>
      </trkpt>
      <trkpt lat="49.92171" lon="2.21466">
        <ele>17.8</ele>
        <time>2022-04-11T11:12:51Z</time>
      </trkpt>
      <trkpt lat="49.92172" lon="2.21465">
        <ele>17.8</ele>
        <time>2022-04-11T11:12:52Z</time>
      </trkpt>
      <trkpt lat="49.92173" lon="2.21465">
        <ele>17.8</ele>
        <time>2022-04-11T11:12:53Z</time>
      </trkpt>
      <trkpt lat="49.92173" lon="2.21464">
        <ele>17.8</ele>
        <time>2022-04-11T11:12:55Z</time>
      </trkpt>
      <trkpt lat="49.92174" lon="2.21463">
        <ele>17.8</ele>
        <time>2022-04-11T11:12:56Z</time>
      </trkpt>
      <trkpt lat="49.92174" lon="2.21462">
        <ele>17.8</ele>
        <time>2022-04-11T11:12:57Z</time>
      </trkpt>
      <trkpt lat="49.92175" lon="2.21462">
        <ele>17.7</ele>
        <time>2022-04-11T11:12:58Z</time>
      </trkpt>
      <trkpt lat="49.92175" lon="2.21461">
        <ele>17.7</ele>
        <time>2022-04-11T11:12:59Z</time>
      </trkpt>
      <trkpt lat="49.92175" lon="2.2146">
        <ele>17.7</ele>
        <time>2022-04-11T11:13:00Z</time>
      </trkpt>
      <trkpt lat="49.92175" lon="2.21458">
        <ele>17.7</ele>
        <time>2022-04-11T11:13:01Z</time>
      </trkpt>
      <trkpt lat="49.92176" lon="2.21456">
        <ele>17.7</ele>
        <time>2022-04-11T11:13:02Z</time>
      </trkpt>
      <trkpt lat="49.92177" lon="2.21454">
        <ele>17.7</ele>
        <time>2022-04-11T11:13:03Z</time>
      </trkpt>
      <trkpt lat="49.92178" lon="2.21453">
        <ele>17.7</ele>
        <time>2022-04-11T11:13:04Z</time>
      </trkpt>
      <trkpt lat="49.92179" lon="2.21451">
        <ele>17.7</ele>
        <time>2022-04-11T11:13:05Z</time>
      </trkpt>
      <trkpt lat="49.92179" lon="2.2145">
        <ele>17.7</ele>
        <time>2022-04-11T11:13:06Z</time>
      </trkpt>
      <trkpt lat="49.9218" lon="2.21448">
        <ele>17.7</ele>
        <time>2022-04-11T11:13:08Z</time>
      </trkpt>
      <trkpt lat="49.92181" lon="2.21447">
        <ele>17.7</ele>
        <time>2022-04-11T11:13:09Z</time>
      </trkpt>
      <trkpt lat="49.92182" lon="2.21445">
        <ele>17.7</ele>
        <time>2022-04-11T11:13:10Z</time>
      </trkpt>
      <trkpt lat="49.92184" lon="2.21442">
        <ele>17.7</ele>
        <time>2022-04-11T11:13:11Z</time>
      </trkpt>
      <trkpt lat="49.92184" lon="2.21441">
        <ele>17.7</ele>
        <time>2022-04-11T11:13:12Z</time>
      </trkpt>
      <trkpt lat="49.92185" lon="2.2144">
        <ele>17.7</ele>
        <time>2022-04-11T11:13:13Z</time>
      </trkpt>
      <trkpt lat="49.92186" lon="2.21439">
        <ele>17.7</ele>
        <time>2022-04-11T11:13:14Z</time>
      </trkpt>
      <trkpt lat="49.92187" lon="2.21437">
        <ele>17.7</ele>
        <time>2022-04-11T11:13:15Z</time>
      </trkpt>
      <trkpt lat="49.92188" lon="2.21435">
        <ele>17.7</ele>
        <time>2022-04-11T11:13:16Z</time>
      </trkpt>
      <trkpt lat="49.92189" lon="2.21434">
        <ele>17.7</ele>
        <time>2022-04-11T11:13:17Z</time>
      </trkpt>
      <trkpt lat="49.9219" lon="2.21432">
        <ele>17.7</ele>
        <time>2022-04-11T11:13:18Z</time>
      </trkpt>
      <trkpt lat="49.92191" lon="2.2143">
        <ele>17.7</ele>
        <time>2022-04-11T11:13:20Z</time>
      </trkpt>
      <trkpt lat="49.92192" lon="2.21428">
        <ele>17.7</ele>
        <time>2022-04-11T11:13:21Z</time>
      </trkpt>
      <trkpt lat="49.92194" lon="2.21426">
        <ele>17.7</ele>
        <time>2022-04-11T11:13:22Z</time>
      </trkpt>
      <trkpt lat="49.92196" lon="2.21422">
        <ele>17.7</ele>
        <time>2022-04-11T11:13:23Z</time>
      </trkpt>
      <trkpt lat="49.92196" lon="2.21421">
        <ele>17.7</ele>
        <time>2022-04-11T11:13:24Z</time>
      </trkpt>
      <trkpt lat="49.92199" lon="2.21416">
        <ele>17.7</ele>
        <time>2022-04-11T11:13:25Z</time>
      </trkpt>
      <trkpt lat="49.922" lon="2.21415">
        <ele>17.7</ele>
        <time>2022-04-11T11:13:26Z</time>
      </trkpt>
      <trkpt lat="49.92202" lon="2.21411">
        <ele>17.7</ele>
        <time>2022-04-11T11:13:28Z</time>
      </trkpt>
      <trkpt lat="49.92203" lon="2.2141">
        <ele>17.7</ele>
        <time>2022-04-11T11:13:29Z</time>
      </trkpt>
      <trkpt lat="49.92204" lon="2.21408">
        <ele>17.7</ele>
        <time>2022-04-11T11:13:30Z</time>
      </trkpt>
      <trkpt lat="49.92205" lon="2.21406">
        <ele>17.7</ele>
        <time>2022-04-11T11:13:31Z</time>
      </trkpt>
      <trkpt lat="49.92206" lon="2.21404">
        <ele>17.7</ele>
        <time>2022-04-11T11:13:32Z</time>
      </trkpt>
      <trkpt lat="49.92207" lon="2.21402">
        <ele>17.7</ele>
        <time>2022-04-11T11:13:33Z</time>
      </trkpt>
      <trkpt lat="49.92209" lon="2.21399">
        <ele>17.7</ele>
        <time>2022-04-11T11:13:34Z</time>
      </trkpt>
      <trkpt lat="49.9221" lon="2.21398">
        <ele>17.7</ele>
        <time>2022-04-11T11:13:35Z</time>
      </trkpt>
      <trkpt lat="49.92211" lon="2.21397">
        <ele>17.7</ele>
        <time>2022-04-11T11:13:36Z</time>
      </trkpt>
      <trkpt lat="49.92213" lon="2.21395">
        <ele>17.7</ele>
        <time>2022-04-11T11:13:38Z</time>
      </trkpt>
      <trkpt lat="49.92214" lon="2.21393">
        <ele>17.7</ele>
        <time>2022-04-11T11:13:39Z</time>
      </trkpt>
      <trkpt lat="49.92215" lon="2.21391">
        <ele>17.7</ele>
        <time>2022-04-11T11:13:40Z</time>
      </trkpt>
      <trkpt lat="49.92218" lon="2.21389">
        <ele>17.7</ele>
        <time>2022-04-11T11:13:41Z</time>
      </trkpt>
      <trkpt lat="49.92218" lon="2.21388">
        <ele>17.7</ele>
        <time>2022-04-11T11:13:42Z</time>
      </trkpt>
      <trkpt lat="49.92221" lon="2.21385">
        <ele>17.7</ele>
        <time>2022-04-11T11:13:43Z</time>
      </trkpt>
      <trkpt lat="49.92221" lon="2.21384">
        <ele>17.7</ele>
        <time>2022-04-11T11:13:44Z</time>
      </trkpt>
      <trkpt lat="49.92223" lon="2.21381">
        <ele>17.7</ele>
        <time>2022-04-11T11:13:45Z</time>
      </trkpt>
      <trkpt lat="49.92224" lon="2.2138">
        <ele>17.7</ele>
        <time>2022-04-11T11:13:46Z</time>
      </trkpt>
      <trkpt lat="49.92225" lon="2.21378">
        <ele>17.7</ele>
        <time>2022-04-11T11:13:48Z</time>
      </trkpt>
      <trkpt lat="49.92227" lon="2.21376">
        <ele>17.7</ele>
        <time>2022-04-11T11:13:49Z</time>
      </trkpt>
      <trkpt lat="49.92228" lon="2.21375">
        <ele>17.7</ele>
        <time>2022-04-11T11:13:50Z</time>
      </trkpt>
      <trkpt lat="49.92229" lon="2.21373">
        <ele>17.7</ele>
        <time>2022-04-11T11:13:51Z</time>
      </trkpt>
      <trkpt lat="49.9223" lon="2.21371">
        <ele>17.7</ele>
        <time>2022-04-11T11:13:52Z</time>
      </trkpt>
      <trkpt lat="49.92231" lon="2.2137">
        <ele>17.7</ele>
        <time>2022-04-11T11:13:53Z</time>
      </trkpt>
      <trkpt lat="49.92232" lon="2.21368">
        <ele>17.7</ele>
        <time>2022-04-11T11:13:54Z</time>
      </trkpt>
      <trkpt lat="49.92233" lon="2.21366">
        <ele>17.7</ele>
        <time>2022-04-11T11:13:55Z</time>
      </trkpt>
      <trkpt lat="49.92234" lon="2.21365">
        <ele>17.7</ele>
        <time>2022-04-11T11:13:56Z</time>
      </trkpt>
      <trkpt lat="49.92236" lon="2.21363">
        <ele>17.7</ele>
        <time>2022-04-11T11:13:57Z</time>
      </trkpt>
      <trkpt lat="49.92237" lon="2.21361">
        <ele>17.7</ele>
        <time>2022-04-11T11:13:59Z</time>
      </trkpt>
      <trkpt lat="49.92238" lon="2.21359">
        <ele>17.7</ele>
        <time>2022-04-11T11:14:00Z</time>
      </trkpt>
      <trkpt lat="49.9224" lon="2.21357">
        <ele>17.7</ele>
        <time>2022-04-11T11:14:01Z</time>
      </trkpt>
      <trkpt lat="49.92241" lon="2.21356">
        <ele>17.7</ele>
        <time>2022-04-11T11:14:02Z</time>
      </trkpt>
      <trkpt lat="49.92243" lon="2.21354">
        <ele>17.7</ele>
        <time>2022-04-11T11:14:03Z</time>
      </trkpt>
      <trkpt lat="49.92244" lon="2.21352">
        <ele>17.7</ele>
        <time>2022-04-11T11:14:04Z</time>
      </trkpt>
      <trkpt lat="49.92245" lon="2.21351">
        <ele>17.7</ele>
        <time>2022-04-11T11:14:05Z</time>
      </trkpt>
      <trkpt lat="49.92246" lon="2.21349">
        <ele>17.7</ele>
        <time>2022-04-11T11:14:06Z</time>
      </trkpt>
      <trkpt lat="49.92247" lon="2.21347">
        <ele>17.7</ele>
        <time>2022-04-11T11:14:07Z</time>
      </trkpt>
      <trkpt lat="49.92248" lon="2.21345">
        <ele>17.7</ele>
        <time>2022-04-11T11:14:08Z</time>
      </trkpt>
      <trkpt lat="49.92249" lon="2.21344">
        <ele>17.7</ele>
        <time>2022-04-11T11:14:10Z</time>
      </trkpt>
      <trkpt lat="49.9225" lon="2.21342">
        <ele>17.7</ele>
        <time>2022-04-11T11:14:11Z</time>
      </trkpt>
      <trkpt lat="49.92251" lon="2.2134">
        <ele>17.7</ele>
        <time>2022-04-11T11:14:12Z</time>
      </trkpt>
      <trkpt lat="49.92251" lon="2.21338">
        <ele>17.7</ele>
        <time>2022-04-11T11:14:13Z</time>
      </trkpt>
      <trkpt lat="49.92252" lon="2.21336">
        <ele>17.7</ele>
        <time>2022-04-11T11:14:14Z</time>
      </trkpt>
      <trkpt lat="49.92253" lon="2.21334">
        <ele>17.7</ele>
        <time>2022-04-11T11:14:15Z</time>
      </trkpt>
      <trkpt lat="49.92254" lon="2.21332">
        <ele>17.7</ele>
        <time>2022-04-11T11:14:16Z</time>
      </trkpt>
      <trkpt lat="49.92255" lon="2.2133">
        <ele>17.7</ele>
        <time>2022-04-11T11:14:17Z</time>
      </trkpt>
      <trkpt lat="49.92256" lon="2.21329">
        <ele>17.7</ele>
        <time>2022-04-11T11:14:18Z</time>
      </trkpt>
      <trkpt lat="49.92257" lon="2.21327">
        <ele>17.7</ele>
        <time>2022-04-11T11:14:20Z</time>
      </trkpt>
      <trkpt lat="49.92258" lon="2.21325">
        <ele>17.7</ele>
        <time>2022-04-11T11:14:21Z</time>
      </trkpt>
      <trkpt lat="49.92259" lon="2.21323">
        <ele>17.7</ele>
        <time>2022-04-11T11:14:22Z</time>
      </trkpt>
      <trkpt lat="49.9226" lon="2.2132">
        <ele>17.7</ele>
        <time>2022-04-11T11:14:23Z</time>
      </trkpt>
      <trkpt lat="49.92261" lon="2.21319">
        <ele>17.6</ele>
        <time>2022-04-11T11:14:24Z</time>
      </trkpt>
      <trkpt lat="49.92261" lon="2.21318">
        <ele>17.6</ele>
        <time>2022-04-11T11:14:25Z</time>
      </trkpt>
      <trkpt lat="49.92262" lon="2.21317">
        <ele>17.6</ele>
        <time>2022-04-11T11:14:26Z</time>
      </trkpt>
      <trkpt lat="49.92263" lon="2.21315">
        <ele>17.6</ele>
        <time>2022-04-11T11:14:27Z</time>
      </trkpt>
      <trkpt lat="49.92265" lon="2.21313">
        <ele>17.6</ele>
        <time>2022-04-11T11:14:28Z</time>
      </trkpt>
      <trkpt lat="49.92266" lon="2.21312">
        <ele>17.6</ele>
        <time>2022-04-11T11:14:30Z</time>
      </trkpt>
      <trkpt lat="49.92267" lon="2.2131">
        <ele>17.6</ele>
        <time>2022-04-11T11:14:31Z</time>
      </trkpt>
      <trkpt lat="49.92268" lon="2.21308">
        <ele>17.6</ele>
        <time>2022-04-11T11:14:32Z</time>
      </trkpt>
      <trkpt lat="49.92269" lon="2.21306">
        <ele>17.6</ele>
        <time>2022-04-11T11:14:33Z</time>
      </trkpt>
      <trkpt lat="49.9227" lon="2.21304">
        <ele>17.6</ele>
        <time>2022-04-11T11:14:34Z</time>
      </trkpt>
      <trkpt lat="49.9227" lon="2.21302">
        <ele>17.6</ele>
        <time>2022-04-11T11:14:36Z</time>
      </trkpt>
      <trkpt lat="49.92271" lon="2.213">
        <ele>17.6</ele>
        <time>2022-04-11T11:14:37Z</time>
      </trkpt>
      <trkpt lat="49.92272" lon="2.21296">
        <ele>17.6</ele>
        <time>2022-04-11T11:14:38Z</time>
      </trkpt>
      <trkpt lat="49.92273" lon="2.21295">
        <ele>17.6</ele>
        <time>2022-04-11T11:14:39Z</time>
      </trkpt>
      <trkpt lat="49.92274" lon="2.21293">
        <ele>17.6</ele>
        <time>2022-04-11T11:14:40Z</time>
      </trkpt>
      <trkpt lat="49.92275" lon="2.21291">
        <ele>17.6</ele>
        <time>2022-04-11T11:14:41Z</time>
      </trkpt>
      <trkpt lat="49.92276" lon="2.21289">
        <ele>17.6</ele>
        <time>2022-04-11T11:14:42Z</time>
      </trkpt>
      <trkpt lat="49.92277" lon="2.21287">
        <ele>17.6</ele>
        <time>2022-04-11T11:14:43Z</time>
      </trkpt>
      <trkpt lat="49.92278" lon="2.21286">
        <ele>17.6</ele>
        <time>2022-04-11T11:14:44Z</time>
      </trkpt>
      <trkpt lat="49.92279" lon="2.21284">
        <ele>17.6</ele>
        <time>2022-04-11T11:14:45Z</time>
      </trkpt>
      <trkpt lat="49.92279" lon="2.21282">
        <ele>17.6</ele>
        <time>2022-04-11T11:14:46Z</time>
      </trkpt>
      <trkpt lat="49.9228" lon="2.21281">
        <ele>17.6</ele>
        <time>2022-04-11T11:14:47Z</time>
      </trkpt>
      <trkpt lat="49.92281" lon="2.21278">
        <ele>17.6</ele>
        <time>2022-04-11T11:14:49Z</time>
      </trkpt>
      <trkpt lat="49.92282" lon="2.21276">
        <ele>17.6</ele>
        <time>2022-04-11T11:14:50Z</time>
      </trkpt>
      <trkpt lat="49.92283" lon="2.21274">
        <ele>17.6</ele>
        <time>2022-04-11T11:14:51Z</time>
      </trkpt>
      <trkpt lat="49.92284" lon="2.21272">
        <ele>17.6</ele>
        <time>2022-04-11T11:14:52Z</time>
      </trkpt>
      <trkpt lat="49.92284" lon="2.2127">
        <ele>17.6</ele>
        <time>2022-04-11T11:14:53Z</time>
      </trkpt>
      <trkpt lat="49.92285" lon="2.21268">
        <ele>17.6</ele>
        <time>2022-04-11T11:14:54Z</time>
      </trkpt>
      <trkpt lat="49.92286" lon="2.21266">
        <ele>17.6</ele>
        <time>2022-04-11T11:14:55Z</time>
      </trkpt>
      <trkpt lat="49.92287" lon="2.21264">
        <ele>17.6</ele>
        <time>2022-04-11T11:14:56Z</time>
      </trkpt>
      <trkpt lat="49.92288" lon="2.21263">
        <ele>17.6</ele>
        <time>2022-04-11T11:14:57Z</time>
      </trkpt>
      <trkpt lat="49.92289" lon="2.21262">
        <ele>17.6</ele>
        <time>2022-04-11T11:14:58Z</time>
      </trkpt>
      <trkpt lat="49.9229" lon="2.2126">
        <ele>17.6</ele>
        <time>2022-04-11T11:15:00Z</time>
      </trkpt>
      <trkpt lat="49.92291" lon="2.21259">
        <ele>17.6</ele>
        <time>2022-04-11T11:15:01Z</time>
      </trkpt>
      <trkpt lat="49.92292" lon="2.21258">
        <ele>17.6</ele>
        <time>2022-04-11T11:15:02Z</time>
      </trkpt>
      <trkpt lat="49.92293" lon="2.21256">
        <ele>17.6</ele>
        <time>2022-04-11T11:15:03Z</time>
      </trkpt>
      <trkpt lat="49.92294" lon="2.21255">
        <ele>17.6</ele>
        <time>2022-04-11T11:15:04Z</time>
      </trkpt>
      <trkpt lat="49.92294" lon="2.21254">
        <ele>17.6</ele>
        <time>2022-04-11T11:15:05Z</time>
      </trkpt>
      <trkpt lat="49.92296" lon="2.21251">
        <ele>17.6</ele>
        <time>2022-04-11T11:15:06Z</time>
      </trkpt>
      <trkpt lat="49.92296" lon="2.2125">
        <ele>17.6</ele>
        <time>2022-04-11T11:15:07Z</time>
      </trkpt>
      <trkpt lat="49.92297" lon="2.21249">
        <ele>17.6</ele>
        <time>2022-04-11T11:15:08Z</time>
      </trkpt>
      <trkpt lat="49.92297" lon="2.21248">
        <ele>17.6</ele>
        <time>2022-04-11T11:15:09Z</time>
      </trkpt>
      <trkpt lat="49.92298" lon="2.21247">
        <ele>17.6</ele>
        <time>2022-04-11T11:15:11Z</time>
      </trkpt>
      <trkpt lat="49.92299" lon="2.21245">
        <ele>17.6</ele>
        <time>2022-04-11T11:15:12Z</time>
      </trkpt>
      <trkpt lat="49.923" lon="2.21244">
        <ele>17.6</ele>
        <time>2022-04-11T11:15:13Z</time>
      </trkpt>
      <trkpt lat="49.92301" lon="2.21244">
        <ele>17.6</ele>
        <time>2022-04-11T11:15:14Z</time>
      </trkpt>
      <trkpt lat="49.92302" lon="2.21243">
        <ele>17.6</ele>
        <time>2022-04-11T11:15:15Z</time>
      </trkpt>
      <trkpt lat="49.92303" lon="2.21241">
        <ele>17.6</ele>
        <time>2022-04-11T11:15:16Z</time>
      </trkpt>
      <trkpt lat="49.92303" lon="2.2124">
        <ele>17.6</ele>
        <time>2022-04-11T11:15:17Z</time>
      </trkpt>
      <trkpt lat="49.92304" lon="2.21239">
        <ele>17.6</ele>
        <time>2022-04-11T11:15:18Z</time>
      </trkpt>
      <trkpt lat="49.92306" lon="2.21237">
        <ele>17.6</ele>
        <time>2022-04-11T11:15:19Z</time>
      </trkpt>
      <trkpt lat="49.92307" lon="2.21236">
        <ele>17.6</ele>
        <time>2022-04-11T11:15:20Z</time>
      </trkpt>
      <trkpt lat="49.92307" lon="2.21235">
        <ele>17.6</ele>
        <time>2022-04-11T11:15:22Z</time>
      </trkpt>
      <trkpt lat="49.92308" lon="2.21234">
        <ele>17.6</ele>
        <time>2022-04-11T11:15:23Z</time>
      </trkpt>
      <trkpt lat="49.92309" lon="2.21233">
        <ele>17.6</ele>
        <time>2022-04-11T11:15:24Z</time>
      </trkpt>
      <trkpt lat="49.9231" lon="2.21232">
        <ele>17.6</ele>
        <time>2022-04-11T11:15:25Z</time>
      </trkpt>
      <trkpt lat="49.92311" lon="2.21229">
        <ele>17.6</ele>
        <time>2022-04-11T11:15:26Z</time>
      </trkpt>
      <trkpt lat="49.92312" lon="2.21229">
        <ele>17.6</ele>
        <time>2022-04-11T11:15:27Z</time>
      </trkpt>
      <trkpt lat="49.92312" lon="2.21228">
        <ele>17.6</ele>
        <time>2022-04-11T11:15:28Z</time>
      </trkpt>
      <trkpt lat="49.92313" lon="2.21227">
        <ele>17.6</ele>
        <time>2022-04-11T11:15:29Z</time>
      </trkpt>
      <trkpt lat="49.92314" lon="2.21226">
        <ele>17.6</ele>
        <time>2022-04-11T11:15:31Z</time>
      </trkpt>
      <trkpt lat="49.92315" lon="2.21225">
        <ele>17.6</ele>
        <time>2022-04-11T11:15:32Z</time>
      </trkpt>
      <trkpt lat="49.92316" lon="2.21224">
        <ele>17.6</ele>
        <time>2022-04-11T11:15:33Z</time>
      </trkpt>
      <trkpt lat="49.92317" lon="2.21223">
        <ele>17.6</ele>
        <time>2022-04-11T11:15:34Z</time>
      </trkpt>
      <trkpt lat="49.92318" lon="2.21222">
        <ele>17.6</ele>
        <time>2022-04-11T11:15:35Z</time>
      </trkpt>
      <trkpt lat="49.9232" lon="2.2122">
        <ele>17.6</ele>
        <time>2022-04-11T11:15:36Z</time>
      </trkpt>
      <trkpt lat="49.92321" lon="2.2122">
        <ele>17.6</ele>
        <time>2022-04-11T11:15:37Z</time>
      </trkpt>
      <trkpt lat="49.92321" lon="2.21219">
        <ele>17.6</ele>
        <time>2022-04-11T11:15:38Z</time>
      </trkpt>
      <trkpt lat="49.92323" lon="2.21217">
        <ele>17.6</ele>
        <time>2022-04-11T11:15:39Z</time>
      </trkpt>
      <trkpt lat="49.92324" lon="2.21216">
        <ele>17.7</ele>
        <time>2022-04-11T11:15:41Z</time>
      </trkpt>
      <trkpt lat="49.92325" lon="2.21215">
        <ele>17.7</ele>
        <time>2022-04-11T11:15:42Z</time>
      </trkpt>
      <trkpt lat="49.92326" lon="2.21215">
        <ele>17.7</ele>
        <time>2022-04-11T11:15:43Z</time>
      </trkpt>
      <trkpt lat="49.92326" lon="2.21213">
        <ele>17.7</ele>
        <time>2022-04-11T11:15:44Z</time>
      </trkpt>
      <trkpt lat="49.92327" lon="2.21212">
        <ele>17.7</ele>
        <time>2022-04-11T11:15:45Z</time>
      </trkpt>
      <trkpt lat="49.92328" lon="2.21211">
        <ele>17.7</ele>
        <time>2022-04-11T11:15:46Z</time>
      </trkpt>
      <trkpt lat="49.92328" lon="2.2121">
        <ele>17.7</ele>
        <time>2022-04-11T11:15:48Z</time>
      </trkpt>
      <trkpt lat="49.92329" lon="2.21208">
        <ele>17.7</ele>
        <time>2022-04-11T11:15:49Z</time>
      </trkpt>
      <trkpt lat="49.92329" lon="2.21208">
        <ele>17.7</ele>
        <time>2022-04-11T11:15:50Z</time>
      </trkpt>
      <trkpt lat="49.92329" lon="2.21207">
        <ele>17.7</ele>
        <time>2022-04-11T11:15:51Z</time>
      </trkpt>
      <trkpt lat="49.92329" lon="2.21206">
        <ele>17.7</ele>
        <time>2022-04-11T11:15:52Z</time>
      </trkpt>
      <trkpt lat="49.92329" lon="2.21206">
        <ele>17.7</ele>
        <time>2022-04-11T11:15:53Z</time>
      </trkpt>
      <trkpt lat="49.9233" lon="2.21205">
        <ele>17.7</ele>
        <time>2022-04-11T11:15:55Z</time>
      </trkpt>
      <trkpt lat="49.92331" lon="2.21204">
        <ele>17.7</ele>
        <time>2022-04-11T11:15:56Z</time>
      </trkpt>
      <trkpt lat="49.92332" lon="2.21201">
        <ele>17.7</ele>
        <time>2022-04-11T11:15:57Z</time>
      </trkpt>
      <trkpt lat="49.92333" lon="2.212">
        <ele>17.7</ele>
        <time>2022-04-11T11:15:58Z</time>
      </trkpt>
      <trkpt lat="49.92333" lon="2.21199">
        <ele>17.7</ele>
        <time>2022-04-11T11:15:59Z</time>
      </trkpt>
      <trkpt lat="49.92334" lon="2.21198">
        <ele>17.7</ele>
        <time>2022-04-11T11:16:00Z</time>
      </trkpt>
      <trkpt lat="49.92334" lon="2.21198">
        <ele>17.7</ele>
        <time>2022-04-11T11:16:01Z</time>
      </trkpt>
      <trkpt lat="49.92334" lon="2.21198">
        <ele>17.7</ele>
        <time>2022-04-11T11:16:02Z</time>
      </trkpt>
      <trkpt lat="49.92334" lon="2.21198">
        <ele>17.7</ele>
        <time>2022-04-11T11:16:04Z</time>
      </trkpt>
      <trkpt lat="49.92334" lon="2.21198">
        <ele>17.7</ele>
        <time>2022-04-11T11:16:05Z</time>
      </trkpt>
      <trkpt lat="49.92334" lon="2.21198">
        <ele>17.7</ele>
        <time>2022-04-11T11:16:06Z</time>
      </trkpt>
      <trkpt lat="49.92334" lon="2.21198">
        <ele>17.7</ele>
        <time>2022-04-11T11:16:07Z</time>
      </trkpt>
      <trkpt lat="49.92334" lon="2.21198">
        <ele>17.7</ele>
        <time>2022-04-11T11:16:08Z</time>
      </trkpt>
      <trkpt lat="49.92334" lon="2.21197">
        <ele>17.7</ele>
        <time>2022-04-11T11:16:09Z</time>
      </trkpt>
      <trkpt lat="49.92334" lon="2.21197">
        <ele>17.7</ele>
        <time>2022-04-11T11:16:10Z</time>
      </trkpt>
      <trkpt lat="49.92334" lon="2.21197">
        <ele>17.7</ele>
        <time>2022-04-11T11:16:11Z</time>
      </trkpt>
      <trkpt lat="49.92334" lon="2.21197">
        <ele>17.7</ele>
        <time>2022-04-11T11:16:12Z</time>
      </trkpt>
      <trkpt lat="49.92334" lon="2.21197">
        <ele>17.7</ele>
        <time>2022-04-11T11:16:13Z</time>
      </trkpt>
      <trkpt lat="49.92334" lon="2.21197">
        <ele>17.7</ele>
        <time>2022-04-11T11:16:14Z</time>
      </trkpt>
      <trkpt lat="49.92334" lon="2.21197">
        <ele>17.7</ele>
        <time>2022-04-11T11:16:15Z</time>
      </trkpt>
      <trkpt lat="49.92334" lon="2.21197">
        <ele>17.7</ele>
        <time>2022-04-11T11:16:16Z</time>
      </trkpt>
      <trkpt lat="49.92334" lon="2.21197">
        <ele>17.7</ele>
        <time>2022-04-11T11:16:17Z</time>
      </trkpt>
      <trkpt lat="49.92334" lon="2.21197">
        <ele>17.7</ele>
        <time>2022-04-11T11:16:18Z</time>
      </trkpt>
      <trkpt lat="49.92334" lon="2.21197">
        <ele>17.7</ele>
        <time>2022-04-11T11:16:19Z</time>
      </trkpt>
      <trkpt lat="49.92334" lon="2.21196">
        <ele>17.7</ele>
        <time>2022-04-11T11:16:20Z</time>
      </trkpt>
      <trkpt lat="49.92334" lon="2.21196">
        <ele>17.7</ele>
        <time>2022-04-11T11:16:21Z</time>
      </trkpt>
      <trkpt lat="49.92334" lon="2.21196">
        <ele>17.7</ele>
        <time>2022-04-11T11:16:22Z</time>
      </trkpt>
      <trkpt lat="49.92334" lon="2.21196">
        <ele>17.7</ele>
        <time>2022-04-11T11:16:23Z</time>
      </trkpt>
      <trkpt lat="49.92334" lon="2.21196">
        <ele>17.7</ele>
        <time>2022-04-11T11:16:24Z</time>
      </trkpt>
      <trkpt lat="49.92334" lon="2.21196">
        <ele>17.7</ele>
        <time>2022-04-11T11:16:25Z</time>
      </trkpt>
      <trkpt lat="49.92334" lon="2.21196">
        <ele>17.7</ele>
        <time>2022-04-11T11:16:26Z</time>
      </trkpt>
      <trkpt lat="49.92334" lon="2.21196">
        <ele>17.7</ele>
        <time>2022-04-11T11:16:27Z</time>
      </trkpt>
      <trkpt lat="49.92334" lon="2.21196">
        <ele>17.7</ele>
        <time>2022-04-11T11:16:28Z</time>
      </trkpt>
      <trkpt lat="49.92334" lon="2.21196">
        <ele>17.7</ele>
        <time>2022-04-11T11:16:29Z</time>
      </trkpt>
      <trkpt lat="49.92334" lon="2.21196">
        <ele>17.7</ele>
        <time>2022-04-11T11:16:30Z</time>
      </trkpt>
      <trkpt lat="49.92334" lon="2.21195">
        <ele>17.7</ele>
        <time>2022-04-11T11:16:31Z</time>
      </trkpt>
      <trkpt lat="49.92334" lon="2.21195">
        <ele>17.7</ele>
        <time>2022-04-11T11:16:32Z</time>
      </trkpt>
      <trkpt lat="49.92334" lon="2.21195">
        <ele>17.7</ele>
        <time>2022-04-11T11:16:33Z</time>
      </trkpt>
      <trkpt lat="49.92334" lon="2.21195">
        <ele>17.7</ele>
        <time>2022-04-11T11:16:34Z</time>
      </trkpt>
      <trkpt lat="49.92334" lon="2.21195">
        <ele>17.7</ele>
        <time>2022-04-11T11:16:35Z</time>
      </trkpt>
      <trkpt lat="49.92334" lon="2.21195">
        <ele>17.7</ele>
        <time>2022-04-11T11:16:36Z</time>
      </trkpt>
      <trkpt lat="49.92334" lon="2.21195">
        <ele>17.7</ele>
        <time>2022-04-11T11:16:37Z</time>
      </trkpt>
      <trkpt lat="49.92334" lon="2.21195">
        <ele>17.7</ele>
        <time>2022-04-11T11:16:38Z</time>
      </trkpt>
      <trkpt lat="49.92334" lon="2.21195">
        <ele>17.7</ele>
        <time>2022-04-11T11:16:39Z</time>
      </trkpt>
      <trkpt lat="49.92334" lon="2.21195">
        <ele>17.7</ele>
        <time>2022-04-11T11:16:40Z</time>
      </trkpt>
      <trkpt lat="49.92334" lon="2.21195">
        <ele>17.7</ele>
        <time>2022-04-11T11:16:41Z</time>
      </trkpt>
      <trkpt lat="49.92334" lon="2.21194">
        <ele>17.7</ele>
        <time>2022-04-11T11:16:42Z</time>
      </trkpt>
      <trkpt lat="49.92334" lon="2.21194">
        <ele>17.7</ele>
        <time>2022-04-11T11:16:43Z</time>
      </trkpt>
      <trkpt lat="49.92334" lon="2.21194">
        <ele>17.7</ele>
        <time>2022-04-11T11:16:44Z</time>
      </trkpt>
      <trkpt lat="49.92334" lon="2.21194">
        <ele>17.7</ele>
        <time>2022-04-11T11:16:45Z</time>
      </trkpt>
      <trkpt lat="49.92334" lon="2.21194">
        <ele>17.7</ele>
        <time>2022-04-11T11:16:46Z</time>
      </trkpt>
      <trkpt lat="49.92334" lon="2.21194">
        <ele>17.7</ele>
        <time>2022-04-11T11:16:47Z</time>
      </trkpt>
      <trkpt lat="49.92334" lon="2.21194">
        <ele>17.7</ele>
        <time>2022-04-11T11:16:48Z</time>
      </trkpt>
      <trkpt lat="49.92334" lon="2.21194">
        <ele>17.7</ele>
        <time>2022-04-11T11:16:49Z</time>
      </trkpt>
      <trkpt lat="49.92334" lon="2.21194">
        <ele>17.7</ele>
        <time>2022-04-11T11:16:50Z</time>
      </trkpt>
      <trkpt lat="49.92334" lon="2.21194">
        <ele>17.7</ele>
        <time>2022-04-11T11:16:51Z</time>
      </trkpt>
      <trkpt lat="49.92334" lon="2.21194">
        <ele>17.7</ele>
        <time>2022-04-11T11:16:52Z</time>
      </trkpt>
      <trkpt lat="49.92334" lon="2.21194">
        <ele>17.7</ele>
        <time>2022-04-11T11:16:53Z</time>
      </trkpt>
      <trkpt lat="49.92334" lon="2.21193">
        <ele>17.7</ele>
        <time>2022-04-11T11:16:54Z</time>
      </trkpt>
      <trkpt lat="49.92334" lon="2.21193">
        <ele>17.7</ele>
        <time>2022-04-11T11:16:55Z</time>
      </trkpt>
      <trkpt lat="49.92334" lon="2.21193">
        <ele>17.7</ele>
        <time>2022-04-11T11:16:56Z</time>
      </trkpt>
      <trkpt lat="49.92334" lon="2.21193">
        <ele>17.7</ele>
        <time>2022-04-11T11:16:57Z</time>
      </trkpt>
      <trkpt lat="49.92334" lon="2.21193">
        <ele>17.7</ele>
        <time>2022-04-11T11:16:58Z</time>
      </trkpt>
      <trkpt lat="49.92334" lon="2.21193">
        <ele>17.7</ele>
        <time>2022-04-11T11:16:59Z</time>
      </trkpt>
      <trkpt lat="49.92334" lon="2.21193">
        <ele>17.7</ele>
        <time>2022-04-11T11:17:00Z</time>
      </trkpt>
      <trkpt lat="49.92334" lon="2.21193">
        <ele>17.7</ele>
        <time>2022-04-11T11:17:01Z</time>
      </trkpt>
      <trkpt lat="49.92334" lon="2.21193">
        <ele>17.7</ele>
        <time>2022-04-11T11:17:02Z</time>
      </trkpt>
      <trkpt lat="49.92334" lon="2.21193">
        <ele>17.7</ele>
        <time>2022-04-11T11:17:03Z</time>
      </trkpt>
      <trkpt lat="49.92334" lon="2.21193">
        <ele>17.7</ele>
        <time>2022-04-11T11:17:04Z</time>
      </trkpt>
      <trkpt lat="49.92334" lon="2.21192">
        <ele>17.7</ele>
        <time>2022-04-11T11:17:05Z</time>
      </trkpt>
      <trkpt lat="49.92334" lon="2.21192">
        <ele>17.7</ele>
        <time>2022-04-11T11:17:06Z</time>
      </trkpt>
      <trkpt lat="49.92334" lon="2.21192">
        <ele>17.7</ele>
        <time>2022-04-11T11:17:07Z</time>
      </trkpt>
      <trkpt lat="49.92334" lon="2.21192">
        <ele>17.7</ele>
        <time>2022-04-11T11:17:08Z</time>
      </trkpt>
      <trkpt lat="49.92334" lon="2.21192">
        <ele>17.7</ele>
        <time>2022-04-11T11:17:09Z</time>
      </trkpt>
      <trkpt lat="49.92334" lon="2.21192">
        <ele>17.7</ele>
        <time>2022-04-11T11:17:10Z</time>
      </trkpt>
      <trkpt lat="49.92334" lon="2.21192">
        <ele>17.7</ele>
        <time>2022-04-11T11:17:11Z</time>
      </trkpt>
      <trkpt lat="49.92334" lon="2.21192">
        <ele>17.7</ele>
        <time>2022-04-11T11:17:12Z</time>
      </trkpt>
      <trkpt lat="49.92334" lon="2.21192">
        <ele>17.7</ele>
        <time>2022-04-11T11:17:13Z</time>
      </trkpt>
      <trkpt lat="49.92334" lon="2.21192">
        <ele>17.7</ele>
        <time>2022-04-11T11:17:14Z</time>
      </trkpt>
      <trkpt lat="49.92334" lon="2.21192">
        <ele>17.7</ele>
        <time>2022-04-11T11:17:15Z</time>
      </trkpt>
      <trkpt lat="49.92334" lon="2.21191">
        <ele>17.7</ele>
        <time>2022-04-11T11:17:16Z</time>
      </trkpt>
      <trkpt lat="49.92334" lon="2.21191">
        <ele>17.7</ele>
        <time>2022-04-11T11:17:17Z</time>
      </trkpt>
      <trkpt lat="49.92334" lon="2.21191">
        <ele>17.7</ele>
        <time>2022-04-11T11:17:18Z</time>
      </trkpt>
      <trkpt lat="49.92334" lon="2.21191">
        <ele>17.7</ele>
        <time>2022-04-11T11:17:19Z</time>
      </trkpt>
      <trkpt lat="49.92334" lon="2.21191">
        <ele>17.7</ele>
        <time>2022-04-11T11:17:20Z</time>
      </trkpt>
      <trkpt lat="49.92334" lon="2.21191">
        <ele>17.7</ele>
        <time>2022-04-11T11:17:21Z</time>
      </trkpt>
      <trkpt lat="49.92334" lon="2.21191">
        <ele>17.7</ele>
        <time>2022-04-11T11:17:22Z</time>
      </trkpt>
      <trkpt lat="49.92334" lon="2.21191">
        <ele>17.7</ele>
        <time>2022-04-11T11:17:23Z</time>
      </trkpt>
      <trkpt lat="49.92334" lon="2.21191">
        <ele>17.7</ele>
        <time>2022-04-11T11:17:24Z</time>
      </trkpt>
      <trkpt lat="49.92334" lon="2.21191">
        <ele>17.7</ele>
        <time>2022-04-11T11:17:25Z</time>
      </trkpt>
      <trkpt lat="49.92334" lon="2.21191">
        <ele>17.7</ele>
        <time>2022-04-11T11:17:26Z</time>
      </trkpt>
      <trkpt lat="49.92334" lon="2.2119">
        <ele>17.7</ele>
        <time>2022-04-11T11:17:27Z</time>
      </trkpt>
      <trkpt lat="49.92334" lon="2.2119">
        <ele>17.7</ele>
        <time>2022-04-11T11:17:28Z</time>
      </trkpt>
      <trkpt lat="49.92334" lon="2.2119">
        <ele>17.7</ele>
        <time>2022-04-11T11:17:29Z</time>
      </trkpt>
      <trkpt lat="49.92334" lon="2.2119">
        <ele>17.7</ele>
        <time>2022-04-11T11:17:30Z</time>
      </trkpt>
      <trkpt lat="49.92334" lon="2.2119">
        <ele>17.7</ele>
        <time>2022-04-11T11:17:31Z</time>
      </trkpt>
      <trkpt lat="49.92334" lon="2.2119">
        <ele>17.7</ele>
        <time>2022-04-11T11:17:32Z</time>
      </trkpt>
      <trkpt lat="49.92334" lon="2.2119">
        <ele>17.7</ele>
        <time>2022-04-11T11:17:33Z</time>
      </trkpt>
      <trkpt lat="49.92334" lon="2.2119">
        <ele>17.7</ele>
        <time>2022-04-11T11:17:34Z</time>
      </trkpt>
      <trkpt lat="49.92334" lon="2.2119">
        <ele>17.7</ele>
        <time>2022-04-11T11:17:35Z</time>
      </trkpt>
      <trkpt lat="49.92334" lon="2.2119">
        <ele>17.7</ele>
        <time>2022-04-11T11:17:36Z</time>
      </trkpt>
      <trkpt lat="49.92334" lon="2.2119">
        <ele>17.7</ele>
        <time>2022-04-11T11:17:37Z</time>
      </trkpt>
      <trkpt lat="49.92334" lon="2.21189">
        <ele>17.7</ele>
        <time>2022-04-11T11:17:38Z</time>
      </trkpt>
      <trkpt lat="49.92334" lon="2.21189">
        <ele>17.7</ele>
        <time>2022-04-11T11:17:39Z</time>
      </trkpt>
      <trkpt lat="49.92334" lon="2.21189">
        <ele>17.7</ele>
        <time>2022-04-11T11:17:40Z</time>
      </trkpt>
      <trkpt lat="49.92334" lon="2.21189">
        <ele>17.7</ele>
        <time>2022-04-11T11:17:41Z</time>
      </trkpt>
      <trkpt lat="49.92334" lon="2.21189">
        <ele>17.7</ele>
        <time>2022-04-11T11:17:42Z</time>
      </trkpt>
      <trkpt lat="49.92334" lon="2.21187">
        <ele>17.7</ele>
        <time>2022-04-11T11:17:43Z</time>
      </trkpt>
      <trkpt lat="49.92333" lon="2.21186">
        <ele>17.7</ele>
        <time>2022-04-11T11:17:44Z</time>
      </trkpt>
      <trkpt lat="49.92333" lon="2.21185">
        <ele>17.7</ele>
        <time>2022-04-11T11:17:45Z</time>
      </trkpt>
      <trkpt lat="49.92333" lon="2.21184">
        <ele>17.7</ele>
        <time>2022-04-11T11:17:46Z</time>
      </trkpt>
      <trkpt lat="49.92333" lon="2.21184">
        <ele>17.7</ele>
        <time>2022-04-11T11:17:47Z</time>
      </trkpt>
      <trkpt lat="49.92333" lon="2.21184">
        <ele>17.7</ele>
        <time>2022-04-11T11:17:48Z</time>
      </trkpt>
      <trkpt lat="49.92333" lon="2.21184">
        <ele>17.7</ele>
        <time>2022-04-11T11:17:49Z</time>
      </trkpt>
      <trkpt lat="49.92333" lon="2.21184">
        <ele>17.7</ele>
        <time>2022-04-11T11:17:50Z</time>
      </trkpt>
      <trkpt lat="49.92333" lon="2.21184">
        <ele>17.7</ele>
        <time>2022-04-11T11:17:51Z</time>
      </trkpt>
      <trkpt lat="49.92333" lon="2.21184">
        <ele>17.7</ele>
        <time>2022-04-11T11:17:52Z</time>
      </trkpt>
      <trkpt lat="49.92333" lon="2.21184">
        <ele>17.7</ele>
        <time>2022-04-11T11:17:53Z</time>
      </trkpt>
      <trkpt lat="49.92333" lon="2.21184">
        <ele>17.7</ele>
        <time>2022-04-11T11:17:54Z</time>
      </trkpt>
      <trkpt lat="49.92333" lon="2.21184">
        <ele>17.7</ele>
        <time>2022-04-11T11:17:55Z</time>
      </trkpt>
      <trkpt lat="49.92333" lon="2.21184">
        <ele>17.7</ele>
        <time>2022-04-11T11:17:56Z</time>
      </trkpt>
      <trkpt lat="49.92333" lon="2.21184">
        <ele>17.7</ele>
        <time>2022-04-11T11:17:57Z</time>
      </trkpt>
      <trkpt lat="49.92333" lon="2.21184">
        <ele>17.7</ele>
        <time>2022-04-11T11:17:58Z</time>
      </trkpt>
      <trkpt lat="49.92333" lon="2.21184">
        <ele>17.7</ele>
        <time>2022-04-11T11:17:59Z</time>
      </trkpt>
      <trkpt lat="49.92333" lon="2.21184">
        <ele>17.7</ele>
        <time>2022-04-11T11:18:00Z</time>
      </trkpt>
      <trkpt lat="49.92333" lon="2.21184">
        <ele>17.7</ele>
        <time>2022-04-11T11:18:01Z</time>
      </trkpt>
      <trkpt lat="49.92333" lon="2.21184">
        <ele>17.7</ele>
        <time>2022-04-11T11:18:02Z</time>
      </trkpt>
      <trkpt lat="49.92333" lon="2.21184">
        <ele>17.7</ele>
        <time>2022-04-11T11:18:03Z</time>
      </trkpt>
      <trkpt lat="49.92333" lon="2.21182">
        <ele>17.7</ele>
        <time>2022-04-11T11:18:04Z</time>
      </trkpt>
      <trkpt lat="49.92333" lon="2.21183">
        <ele>17.7</ele>
        <time>2022-04-11T11:18:05Z</time>
      </trkpt>
      <trkpt lat="49.92334" lon="2.21181">
        <ele>17.7</ele>
        <time>2022-04-11T11:18:07Z</time>
      </trkpt>
      <trkpt lat="49.92334" lon="2.2118">
        <ele>17.7</ele>
        <time>2022-04-11T11:18:08Z</time>
      </trkpt>
      <trkpt lat="49.92335" lon="2.21178">
        <ele>17.7</ele>
        <time>2022-04-11T11:18:09Z</time>
      </trkpt>
      <trkpt lat="49.92336" lon="2.21176">
        <ele>17.7</ele>
        <time>2022-04-11T11:18:10Z</time>
      </trkpt>
      <trkpt lat="49.92338" lon="2.21174">
        <ele>17.7</ele>
        <time>2022-04-11T11:18:11Z</time>
      </trkpt>
      <trkpt lat="49.92339" lon="2.21173">
        <ele>17.7</ele>
        <time>2022-04-11T11:18:12Z</time>
      </trkpt>
      <trkpt lat="49.92341" lon="2.21172">
        <ele>17.7</ele>
        <time>2022-04-11T11:18:13Z</time>
      </trkpt>
      <trkpt lat="49.92342" lon="2.21171">
        <ele>17.7</ele>
        <time>2022-04-11T11:18:14Z</time>
      </trkpt>
      <trkpt lat="49.92343" lon="2.21171">
        <ele>17.7</ele>
        <time>2022-04-11T11:18:15Z</time>
      </trkpt>
      <trkpt lat="49.92345" lon="2.21171">
        <ele>17.7</ele>
        <time>2022-04-11T11:18:16Z</time>
      </trkpt>
      <trkpt lat="49.92346" lon="2.2117">
        <ele>17.7</ele>
        <time>2022-04-11T11:18:17Z</time>
      </trkpt>
      <trkpt lat="49.92347" lon="2.2117">
        <ele>17.7</ele>
        <time>2022-04-11T11:18:18Z</time>
      </trkpt>
      <trkpt lat="49.92348" lon="2.21171">
        <ele>17.7</ele>
        <time>2022-04-11T11:18:19Z</time>
      </trkpt>
      <trkpt lat="49.92349" lon="2.21171">
        <ele>17.7</ele>
        <time>2022-04-11T11:18:20Z</time>
      </trkpt>
      <trkpt lat="49.9235" lon="2.21171">
        <ele>17.7</ele>
        <time>2022-04-11T11:18:21Z</time>
      </trkpt>
      <trkpt lat="49.92351" lon="2.21171">
        <ele>17.7</ele>
        <time>2022-04-11T11:18:23Z</time>
      </trkpt>
      <trkpt lat="49.92352" lon="2.21171">
        <ele>17.7</ele>
        <time>2022-04-11T11:18:24Z</time>
      </trkpt>
      <trkpt lat="49.92353" lon="2.21171">
        <ele>17.7</ele>
        <time>2022-04-11T11:18:25Z</time>
      </trkpt>
      <trkpt lat="49.92353" lon="2.2117">
        <ele>17.7</ele>
        <time>2022-04-11T11:18:26Z</time>
      </trkpt>
      <trkpt lat="49.92353" lon="2.21169">
        <ele>17.7</ele>
        <time>2022-04-11T11:18:27Z</time>
      </trkpt>
      <trkpt lat="49.92353" lon="2.21169">
        <ele>17.7</ele>
        <time>2022-04-11T11:18:28Z</time>
      </trkpt>
      <trkpt lat="49.92353" lon="2.2117">
        <ele>17.7</ele>
        <time>2022-04-11T11:18:29Z</time>
      </trkpt>
      <trkpt lat="49.92354" lon="2.21171">
        <ele>17.7</ele>
        <time>2022-04-11T11:18:30Z</time>
      </trkpt>
      <trkpt lat="49.92355" lon="2.21172">
        <ele>17.7</ele>
        <time>2022-04-11T11:18:32Z</time>
      </trkpt>
      <trkpt lat="49.92355" lon="2.21173">
        <ele>17.7</ele>
        <time>2022-04-11T11:18:33Z</time>
      </trkpt>
      <trkpt lat="49.92356" lon="2.21173">
        <ele>17.7</ele>
        <time>2022-04-11T11:18:34Z</time>
      </trkpt>
      <trkpt lat="49.92358" lon="2.21172">
        <ele>17.7</ele>
        <time>2022-04-11T11:18:35Z</time>
      </trkpt>
      <trkpt lat="49.92359" lon="2.21171">
        <ele>17.7</ele>
        <time>2022-04-11T11:18:36Z</time>
      </trkpt>
      <trkpt lat="49.9236" lon="2.2117">
        <ele>17.7</ele>
        <time>2022-04-11T11:18:37Z</time>
      </trkpt>
      <trkpt lat="49.92362" lon="2.21168">
        <ele>17.7</ele>
        <time>2022-04-11T11:18:39Z</time>
      </trkpt>
      <trkpt lat="49.92363" lon="2.21167">
        <ele>17.7</ele>
        <time>2022-04-11T11:18:40Z</time>
      </trkpt>
      <trkpt lat="49.92364" lon="2.21165">
        <ele>17.7</ele>
        <time>2022-04-11T11:18:41Z</time>
      </trkpt>
      <trkpt lat="49.92365" lon="2.21164">
        <ele>17.7</ele>
        <time>2022-04-11T11:18:42Z</time>
      </trkpt>
      <trkpt lat="49.92366" lon="2.21162">
        <ele>17.7</ele>
        <time>2022-04-11T11:18:43Z</time>
      </trkpt>
      <trkpt lat="49.92368" lon="2.2116">
        <ele>17.7</ele>
        <time>2022-04-11T11:18:44Z</time>
      </trkpt>
      <trkpt lat="49.92369" lon="2.2116">
        <ele>17.7</ele>
        <time>2022-04-11T11:18:45Z</time>
      </trkpt>
      <trkpt lat="49.9237" lon="2.21159">
        <ele>17.7</ele>
        <time>2022-04-11T11:18:46Z</time>
      </trkpt>
      <trkpt lat="49.92371" lon="2.21158">
        <ele>17.7</ele>
        <time>2022-04-11T11:18:47Z</time>
      </trkpt>
      <trkpt lat="49.92372" lon="2.21157">
        <ele>17.7</ele>
        <time>2022-04-11T11:18:48Z</time>
      </trkpt>
      <trkpt lat="49.92375" lon="2.21154">
        <ele>17.7</ele>
        <time>2022-04-11T11:18:49Z</time>
      </trkpt>
      <trkpt lat="49.92376" lon="2.21154">
        <ele>17.7</ele>
        <time>2022-04-11T11:18:50Z</time>
      </trkpt>
      <trkpt lat="49.92379" lon="2.21152">
        <ele>17.7</ele>
        <time>2022-04-11T11:18:52Z</time>
      </trkpt>
      <trkpt lat="49.92379" lon="2.21151">
        <ele>17.7</ele>
        <time>2022-04-11T11:18:53Z</time>
      </trkpt>
      <trkpt lat="49.92381" lon="2.2115">
        <ele>17.7</ele>
        <time>2022-04-11T11:18:54Z</time>
      </trkpt>
      <trkpt lat="49.92382" lon="2.21149">
        <ele>17.7</ele>
        <time>2022-04-11T11:18:55Z</time>
      </trkpt>
      <trkpt lat="49.92384" lon="2.21148">
        <ele>17.7</ele>
        <time>2022-04-11T11:18:56Z</time>
      </trkpt>
      <trkpt lat="49.92385" lon="2.21147">
        <ele>17.7</ele>
        <time>2022-04-11T11:18:57Z</time>
      </trkpt>
      <trkpt lat="49.92386" lon="2.21145">
        <ele>17.7</ele>
        <time>2022-04-11T11:18:58Z</time>
      </trkpt>
      <trkpt lat="49.92388" lon="2.21144">
        <ele>17.7</ele>
        <time>2022-04-11T11:18:59Z</time>
      </trkpt>
      <trkpt lat="49.92389" lon="2.21142">
        <ele>17.7</ele>
        <time>2022-04-11T11:19:00Z</time>
      </trkpt>
      <trkpt lat="49.9239" lon="2.21141">
        <ele>17.7</ele>
        <time>2022-04-11T11:19:01Z</time>
      </trkpt>
      <trkpt lat="49.92392" lon="2.2114">
        <ele>17.7</ele>
        <time>2022-04-11T11:19:02Z</time>
      </trkpt>
      <trkpt lat="49.92393" lon="2.21139">
        <ele>17.7</ele>
        <time>2022-04-11T11:19:03Z</time>
      </trkpt>
      <trkpt lat="49.92395" lon="2.21137">
        <ele>17.7</ele>
        <time>2022-04-11T11:19:05Z</time>
      </trkpt>
      <trkpt lat="49.92396" lon="2.21136">
        <ele>17.7</ele>
        <time>2022-04-11T11:19:06Z</time>
      </trkpt>
      <trkpt lat="49.92397" lon="2.21136">
        <ele>17.7</ele>
        <time>2022-04-11T11:19:07Z</time>
      </trkpt>
      <trkpt lat="49.92398" lon="2.21135">
        <ele>17.7</ele>
        <time>2022-04-11T11:19:08Z</time>
      </trkpt>
      <trkpt lat="49.92399" lon="2.21134">
        <ele>17.7</ele>
        <time>2022-04-11T11:19:09Z</time>
      </trkpt>
      <trkpt lat="49.92401" lon="2.21133">
        <ele>17.7</ele>
        <time>2022-04-11T11:19:11Z</time>
      </trkpt>
      <trkpt lat="49.92402" lon="2.21132">
        <ele>17.7</ele>
        <time>2022-04-11T11:19:12Z</time>
      </trkpt>
      <trkpt lat="49.92403" lon="2.21131">
        <ele>17.7</ele>
        <time>2022-04-11T11:19:13Z</time>
      </trkpt>
      <trkpt lat="49.92404" lon="2.2113">
        <ele>17.7</ele>
        <time>2022-04-11T11:19:14Z</time>
      </trkpt>
      <trkpt lat="49.92405" lon="2.21129">
        <ele>17.7</ele>
        <time>2022-04-11T11:19:15Z</time>
      </trkpt>
      <trkpt lat="49.92406" lon="2.21127">
        <ele>17.7</ele>
        <time>2022-04-11T11:19:16Z</time>
      </trkpt>
      <trkpt lat="49.92407" lon="2.21126">
        <ele>17.7</ele>
        <time>2022-04-11T11:19:17Z</time>
      </trkpt>
      <trkpt lat="49.92409" lon="2.21124">
        <ele>17.7</ele>
        <time>2022-04-11T11:19:19Z</time>
      </trkpt>
      <trkpt lat="49.92409" lon="2.21124">
        <ele>17.7</ele>
        <time>2022-04-11T11:19:20Z</time>
      </trkpt>
      <trkpt lat="49.9241" lon="2.21123">
        <ele>17.6</ele>
        <time>2022-04-11T11:19:21Z</time>
      </trkpt>
      <trkpt lat="49.92411" lon="2.21122">
        <ele>17.6</ele>
        <time>2022-04-11T11:19:22Z</time>
      </trkpt>
      <trkpt lat="49.92412" lon="2.21121">
        <ele>17.6</ele>
        <time>2022-04-11T11:19:23Z</time>
      </trkpt>
      <trkpt lat="49.92413" lon="2.2112">
        <ele>17.6</ele>
        <time>2022-04-11T11:19:24Z</time>
      </trkpt>
      <trkpt lat="49.92414" lon="2.21119">
        <ele>17.6</ele>
        <time>2022-04-11T11:19:25Z</time>
      </trkpt>
      <trkpt lat="49.92415" lon="2.21118">
        <ele>17.6</ele>
        <time>2022-04-11T11:19:26Z</time>
      </trkpt>
      <trkpt lat="49.92416" lon="2.21115">
        <ele>17.6</ele>
        <time>2022-04-11T11:19:27Z</time>
      </trkpt>
      <trkpt lat="49.92416" lon="2.21113">
        <ele>17.6</ele>
        <time>2022-04-11T11:19:28Z</time>
      </trkpt>
      <trkpt lat="49.92416" lon="2.21112">
        <ele>17.6</ele>
        <time>2022-04-11T11:19:29Z</time>
      </trkpt>
      <trkpt lat="49.92418" lon="2.21109">
        <ele>17.6</ele>
        <time>2022-04-11T11:19:30Z</time>
      </trkpt>
      <trkpt lat="49.92419" lon="2.21108">
        <ele>17.6</ele>
        <time>2022-04-11T11:19:32Z</time>
      </trkpt>
      <trkpt lat="49.9242" lon="2.21106">
        <ele>17.6</ele>
        <time>2022-04-11T11:19:33Z</time>
      </trkpt>
      <trkpt lat="49.9242" lon="2.21105">
        <ele>17.6</ele>
        <time>2022-04-11T11:19:34Z</time>
      </trkpt>
      <trkpt lat="49.92421" lon="2.21104">
        <ele>17.6</ele>
        <time>2022-04-11T11:19:35Z</time>
      </trkpt>
      <trkpt lat="49.92422" lon="2.21102">
        <ele>17.6</ele>
        <time>2022-04-11T11:19:36Z</time>
      </trkpt>
      <trkpt lat="49.92424" lon="2.21101">
        <ele>17.6</ele>
        <time>2022-04-11T11:19:37Z</time>
      </trkpt>
      <trkpt lat="49.92425" lon="2.211">
        <ele>17.6</ele>
        <time>2022-04-11T11:19:38Z</time>
      </trkpt>
      <trkpt lat="49.92426" lon="2.21098">
        <ele>17.6</ele>
        <time>2022-04-11T11:19:39Z</time>
      </trkpt>
      <trkpt lat="49.92428" lon="2.21097">
        <ele>17.6</ele>
        <time>2022-04-11T11:19:41Z</time>
      </trkpt>
      <trkpt lat="49.92429" lon="2.21095">
        <ele>17.6</ele>
        <time>2022-04-11T11:19:42Z</time>
      </trkpt>
      <trkpt lat="49.9243" lon="2.21094">
        <ele>17.6</ele>
        <time>2022-04-11T11:19:43Z</time>
      </trkpt>
      <trkpt lat="49.92431" lon="2.21093">
        <ele>17.6</ele>
        <time>2022-04-11T11:19:44Z</time>
      </trkpt>
      <trkpt lat="49.92431" lon="2.21092">
        <ele>17.6</ele>
        <time>2022-04-11T11:19:45Z</time>
      </trkpt>
      <trkpt lat="49.92433" lon="2.21091">
        <ele>17.5</ele>
        <time>2022-04-11T11:19:46Z</time>
      </trkpt>
      <trkpt lat="49.92434" lon="2.2109">
        <ele>17.5</ele>
        <time>2022-04-11T11:19:47Z</time>
      </trkpt>
      <trkpt lat="49.92435" lon="2.2109">
        <ele>17.5</ele>
        <time>2022-04-11T11:19:48Z</time>
      </trkpt>
      <trkpt lat="49.92436" lon="2.21088">
        <ele>17.5</ele>
        <time>2022-04-11T11:19:49Z</time>
      </trkpt>
      <trkpt lat="49.92437" lon="2.21087">
        <ele>17.5</ele>
        <time>2022-04-11T11:19:51Z</time>
      </trkpt>
      <trkpt lat="49.92438" lon="2.21085">
        <ele>17.5</ele>
        <time>2022-04-11T11:19:52Z</time>
      </trkpt>
      <trkpt lat="49.92439" lon="2.21083">
        <ele>17.5</ele>
        <time>2022-04-11T11:19:53Z</time>
      </trkpt>
      <trkpt lat="49.9244" lon="2.21081">
        <ele>17.5</ele>
        <time>2022-04-11T11:19:54Z</time>
      </trkpt>
      <trkpt lat="49.92441" lon="2.21079">
        <ele>17.5</ele>
        <time>2022-04-11T11:19:55Z</time>
      </trkpt>
      <trkpt lat="49.92443" lon="2.21076">
        <ele>17.5</ele>
        <time>2022-04-11T11:19:56Z</time>
      </trkpt>
      <trkpt lat="49.92443" lon="2.21075">
        <ele>17.5</ele>
        <time>2022-04-11T11:19:57Z</time>
      </trkpt>
      <trkpt lat="49.92443" lon="2.21074">
        <ele>17.5</ele>
        <time>2022-04-11T11:19:58Z</time>
      </trkpt>
      <trkpt lat="49.92444" lon="2.21073">
        <ele>17.5</ele>
        <time>2022-04-11T11:19:59Z</time>
      </trkpt>
      <trkpt lat="49.92446" lon="2.21071">
        <ele>17.5</ele>
        <time>2022-04-11T11:20:00Z</time>
      </trkpt>
      <trkpt lat="49.92446" lon="2.21069">
        <ele>17.5</ele>
        <time>2022-04-11T11:20:01Z</time>
      </trkpt>
      <trkpt lat="49.92448" lon="2.21068">
        <ele>17.5</ele>
        <time>2022-04-11T11:20:02Z</time>
      </trkpt>
      <trkpt lat="49.92449" lon="2.21066">
        <ele>17.5</ele>
        <time>2022-04-11T11:20:04Z</time>
      </trkpt>
      <trkpt lat="49.9245" lon="2.21065">
        <ele>17.5</ele>
        <time>2022-04-11T11:20:05Z</time>
      </trkpt>
      <trkpt lat="49.9245" lon="2.21064">
        <ele>17.5</ele>
        <time>2022-04-11T11:20:06Z</time>
      </trkpt>
      <trkpt lat="49.92451" lon="2.21063">
        <ele>17.5</ele>
        <time>2022-04-11T11:20:07Z</time>
      </trkpt>
      <trkpt lat="49.92452" lon="2.21061">
        <ele>17.5</ele>
        <time>2022-04-11T11:20:08Z</time>
      </trkpt>
      <trkpt lat="49.92453" lon="2.2106">
        <ele>17.5</ele>
        <time>2022-04-11T11:20:09Z</time>
      </trkpt>
      <trkpt lat="49.92454" lon="2.21059">
        <ele>17.5</ele>
        <time>2022-04-11T11:20:10Z</time>
      </trkpt>
      <trkpt lat="49.92455" lon="2.21058">
        <ele>17.5</ele>
        <time>2022-04-11T11:20:11Z</time>
      </trkpt>
      <trkpt lat="49.92456" lon="2.21056">
        <ele>17.5</ele>
        <time>2022-04-11T11:20:12Z</time>
      </trkpt>
      <trkpt lat="49.92457" lon="2.21055">
        <ele>17.5</ele>
        <time>2022-04-11T11:20:13Z</time>
      </trkpt>
      <trkpt lat="49.92459" lon="2.21053">
        <ele>17.5</ele>
        <time>2022-04-11T11:20:14Z</time>
      </trkpt>
      <trkpt lat="49.92461" lon="2.2105">
        <ele>17.4</ele>
        <time>2022-04-11T11:20:16Z</time>
      </trkpt>
      <trkpt lat="49.92462" lon="2.21048">
        <ele>17.4</ele>
        <time>2022-04-11T11:20:18Z</time>
      </trkpt>
      <trkpt lat="49.92463" lon="2.21046">
        <ele>17.4</ele>
        <time>2022-04-11T11:20:19Z</time>
      </trkpt>
      <trkpt lat="49.92464" lon="2.21044">
        <ele>17.4</ele>
        <time>2022-04-11T11:20:20Z</time>
      </trkpt>
      <trkpt lat="49.92465" lon="2.21042">
        <ele>17.4</ele>
        <time>2022-04-11T11:20:21Z</time>
      </trkpt>
      <trkpt lat="49.92466" lon="2.2104">
        <ele>17.4</ele>
        <time>2022-04-11T11:20:22Z</time>
      </trkpt>
      <trkpt lat="49.92468" lon="2.21038">
        <ele>17.4</ele>
        <time>2022-04-11T11:20:23Z</time>
      </trkpt>
      <trkpt lat="49.92468" lon="2.21038">
        <ele>17.4</ele>
        <time>2022-04-11T11:20:24Z</time>
      </trkpt>
      <trkpt lat="49.92469" lon="2.21037">
        <ele>17.4</ele>
        <time>2022-04-11T11:20:25Z</time>
      </trkpt>
      <trkpt lat="49.9247" lon="2.21035">
        <ele>17.4</ele>
        <time>2022-04-11T11:20:26Z</time>
      </trkpt>
      <trkpt lat="49.92471" lon="2.21034">
        <ele>17.4</ele>
        <time>2022-04-11T11:20:28Z</time>
      </trkpt>
      <trkpt lat="49.92472" lon="2.21032">
        <ele>17.4</ele>
        <time>2022-04-11T11:20:29Z</time>
      </trkpt>
      <trkpt lat="49.92473" lon="2.21031">
        <ele>17.4</ele>
        <time>2022-04-11T11:20:30Z</time>
      </trkpt>
      <trkpt lat="49.92473" lon="2.21031">
        <ele>17.4</ele>
        <time>2022-04-11T11:20:31Z</time>
      </trkpt>
      <trkpt lat="49.92475" lon="2.21029">
        <ele>17.4</ele>
        <time>2022-04-11T11:20:32Z</time>
      </trkpt>
      <trkpt lat="49.92476" lon="2.21028">
        <ele>17.4</ele>
        <time>2022-04-11T11:20:33Z</time>
      </trkpt>
      <trkpt lat="49.92476" lon="2.21027">
        <ele>17.4</ele>
        <time>2022-04-11T11:20:34Z</time>
      </trkpt>
      <trkpt lat="49.92477" lon="2.21026">
        <ele>17.4</ele>
        <time>2022-04-11T11:20:35Z</time>
      </trkpt>
      <trkpt lat="49.92478" lon="2.21025">
        <ele>17.4</ele>
        <time>2022-04-11T11:20:36Z</time>
      </trkpt>
      <trkpt lat="49.92479" lon="2.21024">
        <ele>17.4</ele>
        <time>2022-04-11T11:20:37Z</time>
      </trkpt>
      <trkpt lat="49.9248" lon="2.21022">
        <ele>17.4</ele>
        <time>2022-04-11T11:20:38Z</time>
      </trkpt>
      <trkpt lat="49.92481" lon="2.2102">
        <ele>17.4</ele>
        <time>2022-04-11T11:20:39Z</time>
      </trkpt>
      <trkpt lat="49.92483" lon="2.21017">
        <ele>17.4</ele>
        <time>2022-04-11T11:20:40Z</time>
      </trkpt>
      <trkpt lat="49.92484" lon="2.21016">
        <ele>17.4</ele>
        <time>2022-04-11T11:20:42Z</time>
      </trkpt>
      <trkpt lat="49.92485" lon="2.21015">
        <ele>17.4</ele>
        <time>2022-04-11T11:20:44Z</time>
      </trkpt>
      <trkpt lat="49.92487" lon="2.21013">
        <ele>17.4</ele>
        <time>2022-04-11T11:20:45Z</time>
      </trkpt>
      <trkpt lat="49.92488" lon="2.21012">
        <ele>17.4</ele>
        <time>2022-04-11T11:20:46Z</time>
      </trkpt>
      <trkpt lat="49.92489" lon="2.2101">
        <ele>17.4</ele>
        <time>2022-04-11T11:20:47Z</time>
      </trkpt>
      <trkpt lat="49.9249" lon="2.21009">
        <ele>17.4</ele>
        <time>2022-04-11T11:20:48Z</time>
      </trkpt>
      <trkpt lat="49.92491" lon="2.21008">
        <ele>17.4</ele>
        <time>2022-04-11T11:20:49Z</time>
      </trkpt>
      <trkpt lat="49.92492" lon="2.21007">
        <ele>17.4</ele>
        <time>2022-04-11T11:20:50Z</time>
      </trkpt>
      <trkpt lat="49.92494" lon="2.21005">
        <ele>17.4</ele>
        <time>2022-04-11T11:20:51Z</time>
      </trkpt>
      <trkpt lat="49.92494" lon="2.21004">
        <ele>17.4</ele>
        <time>2022-04-11T11:20:52Z</time>
      </trkpt>
      <trkpt lat="49.92495" lon="2.21003">
        <ele>17.4</ele>
        <time>2022-04-11T11:20:53Z</time>
      </trkpt>
      <trkpt lat="49.92497" lon="2.21001">
        <ele>17.4</ele>
        <time>2022-04-11T11:20:55Z</time>
      </trkpt>
      <trkpt lat="49.92497" lon="2.21">
        <ele>17.4</ele>
        <time>2022-04-11T11:20:56Z</time>
      </trkpt>
      <trkpt lat="49.92498" lon="2.21">
        <ele>17.4</ele>
        <time>2022-04-11T11:20:57Z</time>
      </trkpt>
      <trkpt lat="49.92499" lon="2.20998">
        <ele>17.4</ele>
        <time>2022-04-11T11:20:58Z</time>
      </trkpt>
      <trkpt lat="49.925" lon="2.20997">
        <ele>17.4</ele>
        <time>2022-04-11T11:20:59Z</time>
      </trkpt>
      <trkpt lat="49.92501" lon="2.20996">
        <ele>17.4</ele>
        <time>2022-04-11T11:21:00Z</time>
      </trkpt>
      <trkpt lat="49.92501" lon="2.20995">
        <ele>17.4</ele>
        <time>2022-04-11T11:21:01Z</time>
      </trkpt>
      <trkpt lat="49.92502" lon="2.20994">
        <ele>17.3</ele>
        <time>2022-04-11T11:21:02Z</time>
      </trkpt>
      <trkpt lat="49.92503" lon="2.20993">
        <ele>17.3</ele>
        <time>2022-04-11T11:21:03Z</time>
      </trkpt>
      <trkpt lat="49.92504" lon="2.20991">
        <ele>17.3</ele>
        <time>2022-04-11T11:21:04Z</time>
      </trkpt>
      <trkpt lat="49.92505" lon="2.2099">
        <ele>17.3</ele>
        <time>2022-04-11T11:21:05Z</time>
      </trkpt>
      <trkpt lat="49.92506" lon="2.20988">
        <ele>17.3</ele>
        <time>2022-04-11T11:21:06Z</time>
      </trkpt>
      <trkpt lat="49.92508" lon="2.20986">
        <ele>17.3</ele>
        <time>2022-04-11T11:21:07Z</time>
      </trkpt>
      <trkpt lat="49.92509" lon="2.20985">
        <ele>17.3</ele>
        <time>2022-04-11T11:21:08Z</time>
      </trkpt>
      <trkpt lat="49.92509" lon="2.20984">
        <ele>17.3</ele>
        <time>2022-04-11T11:21:09Z</time>
      </trkpt>
      <trkpt lat="49.9251" lon="2.20983">
        <ele>17.3</ele>
        <time>2022-04-11T11:21:10Z</time>
      </trkpt>
      <trkpt lat="49.92511" lon="2.20982">
        <ele>17.3</ele>
        <time>2022-04-11T11:21:12Z</time>
      </trkpt>
      <trkpt lat="49.92512" lon="2.20981">
        <ele>17.3</ele>
        <time>2022-04-11T11:21:13Z</time>
      </trkpt>
      <trkpt lat="49.92513" lon="2.20979">
        <ele>17.3</ele>
        <time>2022-04-11T11:21:14Z</time>
      </trkpt>
      <trkpt lat="49.92514" lon="2.20978">
        <ele>17.3</ele>
        <time>2022-04-11T11:21:15Z</time>
      </trkpt>
      <trkpt lat="49.92514" lon="2.20977">
        <ele>17.3</ele>
        <time>2022-04-11T11:21:16Z</time>
      </trkpt>
      <trkpt lat="49.92516" lon="2.20976">
        <ele>17.3</ele>
        <time>2022-04-11T11:21:17Z</time>
      </trkpt>
      <trkpt lat="49.92517" lon="2.20975">
        <ele>17.3</ele>
        <time>2022-04-11T11:21:18Z</time>
      </trkpt>
      <trkpt lat="49.92518" lon="2.20973">
        <ele>17.3</ele>
        <time>2022-04-11T11:21:19Z</time>
      </trkpt>
      <trkpt lat="49.92519" lon="2.20972">
        <ele>17.3</ele>
        <time>2022-04-11T11:21:20Z</time>
      </trkpt>
      <trkpt lat="49.92521" lon="2.2097">
        <ele>17.3</ele>
        <time>2022-04-11T11:21:21Z</time>
      </trkpt>
      <trkpt lat="49.92522" lon="2.20968">
        <ele>17.3</ele>
        <time>2022-04-11T11:21:23Z</time>
      </trkpt>
      <trkpt lat="49.92523" lon="2.20966">
        <ele>17.3</ele>
        <time>2022-04-11T11:21:24Z</time>
      </trkpt>
      <trkpt lat="49.92524" lon="2.20965">
        <ele>17.3</ele>
        <time>2022-04-11T11:21:25Z</time>
      </trkpt>
      <trkpt lat="49.92525" lon="2.20964">
        <ele>17.3</ele>
        <time>2022-04-11T11:21:26Z</time>
      </trkpt>
      <trkpt lat="49.92526" lon="2.20962">
        <ele>17.3</ele>
        <time>2022-04-11T11:21:27Z</time>
      </trkpt>
      <trkpt lat="49.92527" lon="2.20961">
        <ele>17.3</ele>
        <time>2022-04-11T11:21:28Z</time>
      </trkpt>
      <trkpt lat="49.92528" lon="2.2096">
        <ele>17.3</ele>
        <time>2022-04-11T11:21:29Z</time>
      </trkpt>
      <trkpt lat="49.92529" lon="2.20958">
        <ele>17.2</ele>
        <time>2022-04-11T11:21:30Z</time>
      </trkpt>
      <trkpt lat="49.92531" lon="2.20956">
        <ele>17.2</ele>
        <time>2022-04-11T11:21:31Z</time>
      </trkpt>
      <trkpt lat="49.92532" lon="2.20955">
        <ele>17.2</ele>
        <time>2022-04-11T11:21:33Z</time>
      </trkpt>
      <trkpt lat="49.92533" lon="2.20954">
        <ele>17.2</ele>
        <time>2022-04-11T11:21:34Z</time>
      </trkpt>
      <trkpt lat="49.92533" lon="2.20952">
        <ele>17.2</ele>
        <time>2022-04-11T11:21:35Z</time>
      </trkpt>
      <trkpt lat="49.92534" lon="2.20951">
        <ele>17.2</ele>
        <time>2022-04-11T11:21:36Z</time>
      </trkpt>
      <trkpt lat="49.92535" lon="2.2095">
        <ele>17.2</ele>
        <time>2022-04-11T11:21:37Z</time>
      </trkpt>
      <trkpt lat="49.92535" lon="2.20949">
        <ele>17.2</ele>
        <time>2022-04-11T11:21:38Z</time>
      </trkpt>
      <trkpt lat="49.92536" lon="2.20947">
        <ele>17.2</ele>
        <time>2022-04-11T11:21:39Z</time>
      </trkpt>
      <trkpt lat="49.92538" lon="2.20943">
        <ele>17.2</ele>
        <time>2022-04-11T11:21:40Z</time>
      </trkpt>
      <trkpt lat="49.92539" lon="2.20942">
        <ele>17.2</ele>
        <time>2022-04-11T11:21:42Z</time>
      </trkpt>
      <trkpt lat="49.92539" lon="2.20941">
        <ele>17.2</ele>
        <time>2022-04-11T11:21:43Z</time>
      </trkpt>
      <trkpt lat="49.9254" lon="2.2094">
        <ele>17.2</ele>
        <time>2022-04-11T11:21:44Z</time>
      </trkpt>
      <trkpt lat="49.9254" lon="2.20938">
        <ele>17.2</ele>
        <time>2022-04-11T11:21:45Z</time>
      </trkpt>
      <trkpt lat="49.92541" lon="2.20937">
        <ele>17.2</ele>
        <time>2022-04-11T11:21:46Z</time>
      </trkpt>
      <trkpt lat="49.92542" lon="2.20937">
        <ele>17.2</ele>
        <time>2022-04-11T11:21:47Z</time>
      </trkpt>
      <trkpt lat="49.92543" lon="2.20935">
        <ele>17.2</ele>
        <time>2022-04-11T11:21:48Z</time>
      </trkpt>
      <trkpt lat="49.92544" lon="2.20932">
        <ele>17.2</ele>
        <time>2022-04-11T11:21:50Z</time>
      </trkpt>
      <trkpt lat="49.92544" lon="2.20931">
        <ele>17.2</ele>
        <time>2022-04-11T11:21:51Z</time>
      </trkpt>
      <trkpt lat="49.92545" lon="2.2093">
        <ele>17.2</ele>
        <time>2022-04-11T11:21:52Z</time>
      </trkpt>
      <trkpt lat="49.92546" lon="2.20928">
        <ele>17.2</ele>
        <time>2022-04-11T11:21:53Z</time>
      </trkpt>
      <trkpt lat="49.92546" lon="2.20926">
        <ele>17.2</ele>
        <time>2022-04-11T11:21:54Z</time>
      </trkpt>
      <trkpt lat="49.92548" lon="2.20924">
        <ele>17.2</ele>
        <time>2022-04-11T11:21:55Z</time>
      </trkpt>
      <trkpt lat="49.92549" lon="2.20923">
        <ele>17.2</ele>
        <time>2022-04-11T11:21:56Z</time>
      </trkpt>
      <trkpt lat="49.9255" lon="2.20922">
        <ele>17.2</ele>
        <time>2022-04-11T11:21:57Z</time>
      </trkpt>
      <trkpt lat="49.92552" lon="2.2092">
        <ele>17.2</ele>
        <time>2022-04-11T11:21:59Z</time>
      </trkpt>
      <trkpt lat="49.92552" lon="2.2092">
        <ele>17.2</ele>
        <time>2022-04-11T11:22:00Z</time>
      </trkpt>
      <trkpt lat="49.92553" lon="2.20919">
        <ele>17.2</ele>
        <time>2022-04-11T11:22:01Z</time>
      </trkpt>
      <trkpt lat="49.92555" lon="2.20918">
        <ele>17.2</ele>
        <time>2022-04-11T11:22:02Z</time>
      </trkpt>
      <trkpt lat="49.92555" lon="2.20917">
        <ele>17.2</ele>
        <time>2022-04-11T11:22:03Z</time>
      </trkpt>
      <trkpt lat="49.92556" lon="2.20916">
        <ele>17.2</ele>
        <time>2022-04-11T11:22:04Z</time>
      </trkpt>
      <trkpt lat="49.92558" lon="2.20915">
        <ele>17.2</ele>
        <time>2022-04-11T11:22:05Z</time>
      </trkpt>
      <trkpt lat="49.92558" lon="2.20914">
        <ele>17.2</ele>
        <time>2022-04-11T11:22:06Z</time>
      </trkpt>
      <trkpt lat="49.92559" lon="2.20913">
        <ele>17.2</ele>
        <time>2022-04-11T11:22:07Z</time>
      </trkpt>
      <trkpt lat="49.9256" lon="2.20912">
        <ele>17.2</ele>
        <time>2022-04-11T11:22:08Z</time>
      </trkpt>
      <trkpt lat="49.92561" lon="2.2091">
        <ele>17.2</ele>
        <time>2022-04-11T11:22:09Z</time>
      </trkpt>
      <trkpt lat="49.92562" lon="2.20909">
        <ele>17.2</ele>
        <time>2022-04-11T11:22:10Z</time>
      </trkpt>
      <trkpt lat="49.92563" lon="2.20907">
        <ele>17.2</ele>
        <time>2022-04-11T11:22:11Z</time>
      </trkpt>
      <trkpt lat="49.92564" lon="2.20906">
        <ele>17.2</ele>
        <time>2022-04-11T11:22:13Z</time>
      </trkpt>
      <trkpt lat="49.92565" lon="2.20904">
        <ele>17.2</ele>
        <time>2022-04-11T11:22:14Z</time>
      </trkpt>
      <trkpt lat="49.92565" lon="2.20903">
        <ele>17.2</ele>
        <time>2022-04-11T11:22:15Z</time>
      </trkpt>
      <trkpt lat="49.92566" lon="2.20902">
        <ele>17.2</ele>
        <time>2022-04-11T11:22:16Z</time>
      </trkpt>
      <trkpt lat="49.92568" lon="2.209">
        <ele>17.2</ele>
        <time>2022-04-11T11:22:17Z</time>
      </trkpt>
      <trkpt lat="49.92568" lon="2.20899">
        <ele>17.2</ele>
        <time>2022-04-11T11:22:18Z</time>
      </trkpt>
      <trkpt lat="49.92569" lon="2.20898">
        <ele>17.2</ele>
        <time>2022-04-11T11:22:19Z</time>
      </trkpt>
      <trkpt lat="49.9257" lon="2.20896">
        <ele>17.2</ele>
        <time>2022-04-11T11:22:20Z</time>
      </trkpt>
      <trkpt lat="49.92571" lon="2.20895">
        <ele>17.2</ele>
        <time>2022-04-11T11:22:21Z</time>
      </trkpt>
      <trkpt lat="49.92571" lon="2.20894">
        <ele>17.2</ele>
        <time>2022-04-11T11:22:22Z</time>
      </trkpt>
      <trkpt lat="49.92572" lon="2.20892">
        <ele>17.2</ele>
        <time>2022-04-11T11:22:23Z</time>
      </trkpt>
      <trkpt lat="49.92573" lon="2.20891">
        <ele>17.2</ele>
        <time>2022-04-11T11:22:24Z</time>
      </trkpt>
      <trkpt lat="49.92574" lon="2.2089">
        <ele>17.2</ele>
        <time>2022-04-11T11:22:26Z</time>
      </trkpt>
      <trkpt lat="49.92575" lon="2.20887">
        <ele>17.2</ele>
        <time>2022-04-11T11:22:27Z</time>
      </trkpt>
      <trkpt lat="49.92576" lon="2.20886">
        <ele>17.2</ele>
        <time>2022-04-11T11:22:28Z</time>
      </trkpt>
      <trkpt lat="49.92576" lon="2.20885">
        <ele>17.2</ele>
        <time>2022-04-11T11:22:29Z</time>
      </trkpt>
      <trkpt lat="49.92577" lon="2.20884">
        <ele>17.2</ele>
        <time>2022-04-11T11:22:30Z</time>
      </trkpt>
      <trkpt lat="49.92578" lon="2.20883">
        <ele>17.2</ele>
        <time>2022-04-11T11:22:31Z</time>
      </trkpt>
      <trkpt lat="49.92579" lon="2.20881">
        <ele>17.2</ele>
        <time>2022-04-11T11:22:33Z</time>
      </trkpt>
      <trkpt lat="49.9258" lon="2.2088">
        <ele>17.2</ele>
        <time>2022-04-11T11:22:34Z</time>
      </trkpt>
      <trkpt lat="49.9258" lon="2.20878">
        <ele>17.2</ele>
        <time>2022-04-11T11:22:35Z</time>
      </trkpt>
      <trkpt lat="49.92581" lon="2.20877">
        <ele>17.2</ele>
        <time>2022-04-11T11:22:36Z</time>
      </trkpt>
      <trkpt lat="49.92581" lon="2.20875">
        <ele>17.2</ele>
        <time>2022-04-11T11:22:37Z</time>
      </trkpt>
      <trkpt lat="49.92582" lon="2.20874">
        <ele>17.2</ele>
        <time>2022-04-11T11:22:38Z</time>
      </trkpt>
      <trkpt lat="49.92583" lon="2.20872">
        <ele>17.2</ele>
        <time>2022-04-11T11:22:39Z</time>
      </trkpt>
      <trkpt lat="49.92583" lon="2.2087">
        <ele>17.1</ele>
        <time>2022-04-11T11:22:40Z</time>
      </trkpt>
      <trkpt lat="49.92584" lon="2.20869">
        <ele>17.1</ele>
        <time>2022-04-11T11:22:41Z</time>
      </trkpt>
      <trkpt lat="49.92584" lon="2.20867">
        <ele>17.1</ele>
        <time>2022-04-11T11:22:42Z</time>
      </trkpt>
      <trkpt lat="49.92585" lon="2.20866">
        <ele>17.1</ele>
        <time>2022-04-11T11:22:43Z</time>
      </trkpt>
      <trkpt lat="49.92585" lon="2.20865">
        <ele>17.1</ele>
        <time>2022-04-11T11:22:44Z</time>
      </trkpt>
      <trkpt lat="49.92586" lon="2.20864">
        <ele>17.1</ele>
        <time>2022-04-11T11:22:45Z</time>
      </trkpt>
      <trkpt lat="49.92586" lon="2.20862">
        <ele>17.1</ele>
        <time>2022-04-11T11:22:47Z</time>
      </trkpt>
      <trkpt lat="49.92587" lon="2.20861">
        <ele>17.1</ele>
        <time>2022-04-11T11:22:48Z</time>
      </trkpt>
      <trkpt lat="49.92587" lon="2.2086">
        <ele>17.1</ele>
        <time>2022-04-11T11:22:49Z</time>
      </trkpt>
      <trkpt lat="49.92588" lon="2.20858">
        <ele>17.1</ele>
        <time>2022-04-11T11:22:50Z</time>
      </trkpt>
      <trkpt lat="49.92588" lon="2.20857">
        <ele>17.1</ele>
        <time>2022-04-11T11:22:51Z</time>
      </trkpt>
      <trkpt lat="49.92589" lon="2.20856">
        <ele>17.1</ele>
        <time>2022-04-11T11:22:52Z</time>
      </trkpt>
      <trkpt lat="49.9259" lon="2.20854">
        <ele>17.1</ele>
        <time>2022-04-11T11:22:53Z</time>
      </trkpt>
      <trkpt lat="49.92591" lon="2.20852">
        <ele>17.1</ele>
        <time>2022-04-11T11:22:55Z</time>
      </trkpt>
      <trkpt lat="49.92592" lon="2.2085">
        <ele>17.1</ele>
        <time>2022-04-11T11:22:56Z</time>
      </trkpt>
      <trkpt lat="49.92592" lon="2.20849">
        <ele>17.1</ele>
        <time>2022-04-11T11:22:57Z</time>
      </trkpt>
      <trkpt lat="49.92593" lon="2.20848">
        <ele>17.1</ele>
        <time>2022-04-11T11:22:58Z</time>
      </trkpt>
      <trkpt lat="49.92594" lon="2.20847">
        <ele>17.1</ele>
        <time>2022-04-11T11:22:59Z</time>
      </trkpt>
      <trkpt lat="49.92595" lon="2.20845">
        <ele>17.1</ele>
        <time>2022-04-11T11:23:00Z</time>
      </trkpt>
      <trkpt lat="49.92595" lon="2.20844">
        <ele>17.2</ele>
        <time>2022-04-11T11:23:01Z</time>
      </trkpt>
      <trkpt lat="49.92597" lon="2.20842">
        <ele>17.2</ele>
        <time>2022-04-11T11:23:02Z</time>
      </trkpt>
      <trkpt lat="49.92598" lon="2.20841">
        <ele>17.2</ele>
        <time>2022-04-11T11:23:03Z</time>
      </trkpt>
      <trkpt lat="49.92598" lon="2.2084">
        <ele>17.2</ele>
        <time>2022-04-11T11:23:04Z</time>
      </trkpt>
      <trkpt lat="49.926" lon="2.20839">
        <ele>17.2</ele>
        <time>2022-04-11T11:23:05Z</time>
      </trkpt>
      <trkpt lat="49.92601" lon="2.20838">
        <ele>17.2</ele>
        <time>2022-04-11T11:23:07Z</time>
      </trkpt>
      <trkpt lat="49.92603" lon="2.20836">
        <ele>17.2</ele>
        <time>2022-04-11T11:23:08Z</time>
      </trkpt>
      <trkpt lat="49.92604" lon="2.20835">
        <ele>17.2</ele>
        <time>2022-04-11T11:23:09Z</time>
      </trkpt>
      <trkpt lat="49.92605" lon="2.20834">
        <ele>17.2</ele>
        <time>2022-04-11T11:23:11Z</time>
      </trkpt>
      <trkpt lat="49.92607" lon="2.20833">
        <ele>17.2</ele>
        <time>2022-04-11T11:23:12Z</time>
      </trkpt>
      <trkpt lat="49.92608" lon="2.20832">
        <ele>17.2</ele>
        <time>2022-04-11T11:23:13Z</time>
      </trkpt>
      <trkpt lat="49.92609" lon="2.2083">
        <ele>17.2</ele>
        <time>2022-04-11T11:23:14Z</time>
      </trkpt>
      <trkpt lat="49.9261" lon="2.20829">
        <ele>17.2</ele>
        <time>2022-04-11T11:23:15Z</time>
      </trkpt>
      <trkpt lat="49.92611" lon="2.20828">
        <ele>17.2</ele>
        <time>2022-04-11T11:23:16Z</time>
      </trkpt>
      <trkpt lat="49.92612" lon="2.20826">
        <ele>17.2</ele>
        <time>2022-04-11T11:23:17Z</time>
      </trkpt>
      <trkpt lat="49.92614" lon="2.20825">
        <ele>17.2</ele>
        <time>2022-04-11T11:23:19Z</time>
      </trkpt>
      <trkpt lat="49.92615" lon="2.20823">
        <ele>17.2</ele>
        <time>2022-04-11T11:23:20Z</time>
      </trkpt>
      <trkpt lat="49.92616" lon="2.20822">
        <ele>17.2</ele>
        <time>2022-04-11T11:23:21Z</time>
      </trkpt>
      <trkpt lat="49.92617" lon="2.20821">
        <ele>17.2</ele>
        <time>2022-04-11T11:23:22Z</time>
      </trkpt>
      <trkpt lat="49.92619" lon="2.2082">
        <ele>17.2</ele>
        <time>2022-04-11T11:23:23Z</time>
      </trkpt>
      <trkpt lat="49.9262" lon="2.20818">
        <ele>17.2</ele>
        <time>2022-04-11T11:23:24Z</time>
      </trkpt>
      <trkpt lat="49.92621" lon="2.20817">
        <ele>17.2</ele>
        <time>2022-04-11T11:23:25Z</time>
      </trkpt>
      <trkpt lat="49.92623" lon="2.20816">
        <ele>17.2</ele>
        <time>2022-04-11T11:23:26Z</time>
      </trkpt>
      <trkpt lat="49.92624" lon="2.20815">
        <ele>17.2</ele>
        <time>2022-04-11T11:23:27Z</time>
      </trkpt>
      <trkpt lat="49.92626" lon="2.20813">
        <ele>17.2</ele>
        <time>2022-04-11T11:23:28Z</time>
      </trkpt>
      <trkpt lat="49.92627" lon="2.20812">
        <ele>17.2</ele>
        <time>2022-04-11T11:23:29Z</time>
      </trkpt>
      <trkpt lat="49.92628" lon="2.20812">
        <ele>17.2</ele>
        <time>2022-04-11T11:23:31Z</time>
      </trkpt>
      <trkpt lat="49.92629" lon="2.20811">
        <ele>17.2</ele>
        <time>2022-04-11T11:23:32Z</time>
      </trkpt>
      <trkpt lat="49.92629" lon="2.2081">
        <ele>17.2</ele>
        <time>2022-04-11T11:23:33Z</time>
      </trkpt>
      <trkpt lat="49.9263" lon="2.20809">
        <ele>17.2</ele>
        <time>2022-04-11T11:23:34Z</time>
      </trkpt>
      <trkpt lat="49.92632" lon="2.20808">
        <ele>17.2</ele>
        <time>2022-04-11T11:23:35Z</time>
      </trkpt>
      <trkpt lat="49.92633" lon="2.20807">
        <ele>17.2</ele>
        <time>2022-04-11T11:23:36Z</time>
      </trkpt>
      <trkpt lat="49.92634" lon="2.20806">
        <ele>17.2</ele>
        <time>2022-04-11T11:23:37Z</time>
      </trkpt>
      <trkpt lat="49.92635" lon="2.20804">
        <ele>17.2</ele>
        <time>2022-04-11T11:23:38Z</time>
      </trkpt>
      <trkpt lat="49.92637" lon="2.20803">
        <ele>17.2</ele>
        <time>2022-04-11T11:23:39Z</time>
      </trkpt>
      <trkpt lat="49.92638" lon="2.20802">
        <ele>17.2</ele>
        <time>2022-04-11T11:23:40Z</time>
      </trkpt>
      <trkpt lat="49.92639" lon="2.20801">
        <ele>17.2</ele>
        <time>2022-04-11T11:23:41Z</time>
      </trkpt>
      <trkpt lat="49.92639" lon="2.20799">
        <ele>17.2</ele>
        <time>2022-04-11T11:23:42Z</time>
      </trkpt>
      <trkpt lat="49.9264" lon="2.20798">
        <ele>17.2</ele>
        <time>2022-04-11T11:23:43Z</time>
      </trkpt>
      <trkpt lat="49.92642" lon="2.20795">
        <ele>17.2</ele>
        <time>2022-04-11T11:23:45Z</time>
      </trkpt>
      <trkpt lat="49.92642" lon="2.20794">
        <ele>17.2</ele>
        <time>2022-04-11T11:23:46Z</time>
      </trkpt>
      <trkpt lat="49.92643" lon="2.20793">
        <ele>17.2</ele>
        <time>2022-04-11T11:23:47Z</time>
      </trkpt>
      <trkpt lat="49.92643" lon="2.20792">
        <ele>17.1</ele>
        <time>2022-04-11T11:23:48Z</time>
      </trkpt>
      <trkpt lat="49.92644" lon="2.2079">
        <ele>17.1</ele>
        <time>2022-04-11T11:23:49Z</time>
      </trkpt>
      <trkpt lat="49.92645" lon="2.20788">
        <ele>17.1</ele>
        <time>2022-04-11T11:23:51Z</time>
      </trkpt>
      <trkpt lat="49.92646" lon="2.20786">
        <ele>17.1</ele>
        <time>2022-04-11T11:23:52Z</time>
      </trkpt>
      <trkpt lat="49.92647" lon="2.20783">
        <ele>17.1</ele>
        <time>2022-04-11T11:23:53Z</time>
      </trkpt>
      <trkpt lat="49.92648" lon="2.20783">
        <ele>17.1</ele>
        <time>2022-04-11T11:23:54Z</time>
      </trkpt>
      <trkpt lat="49.92648" lon="2.20782">
        <ele>17.1</ele>
        <time>2022-04-11T11:23:55Z</time>
      </trkpt>
      <trkpt lat="49.92649" lon="2.2078">
        <ele>17.1</ele>
        <time>2022-04-11T11:23:56Z</time>
      </trkpt>
      <trkpt lat="49.9265" lon="2.20779">
        <ele>17.1</ele>
        <time>2022-04-11T11:23:57Z</time>
      </trkpt>
      <trkpt lat="49.92651" lon="2.20778">
        <ele>17.1</ele>
        <time>2022-04-11T11:23:58Z</time>
      </trkpt>
      <trkpt lat="49.92651" lon="2.20776">
        <ele>17.1</ele>
        <time>2022-04-11T11:23:59Z</time>
      </trkpt>
      <trkpt lat="49.92652" lon="2.20775">
        <ele>17.1</ele>
        <time>2022-04-11T11:24:00Z</time>
      </trkpt>
      <trkpt lat="49.92653" lon="2.20773">
        <ele>17.1</ele>
        <time>2022-04-11T11:24:02Z</time>
      </trkpt>
      <trkpt lat="49.92655" lon="2.2077">
        <ele>17.1</ele>
        <time>2022-04-11T11:24:03Z</time>
      </trkpt>
      <trkpt lat="49.92655" lon="2.20769">
        <ele>17.1</ele>
        <time>2022-04-11T11:24:04Z</time>
      </trkpt>
      <trkpt lat="49.92656" lon="2.20768">
        <ele>17.1</ele>
        <time>2022-04-11T11:24:05Z</time>
      </trkpt>
      <trkpt lat="49.92657" lon="2.20766">
        <ele>17</ele>
        <time>2022-04-11T11:24:06Z</time>
      </trkpt>
      <trkpt lat="49.92658" lon="2.20765">
        <ele>17</ele>
        <time>2022-04-11T11:24:07Z</time>
      </trkpt>
      <trkpt lat="49.92658" lon="2.20764">
        <ele>17</ele>
        <time>2022-04-11T11:24:08Z</time>
      </trkpt>
      <trkpt lat="49.92659" lon="2.20762">
        <ele>17</ele>
        <time>2022-04-11T11:24:09Z</time>
      </trkpt>
      <trkpt lat="49.92659" lon="2.20761">
        <ele>17</ele>
        <time>2022-04-11T11:24:10Z</time>
      </trkpt>
      <trkpt lat="49.9266" lon="2.20759">
        <ele>17</ele>
        <time>2022-04-11T11:24:11Z</time>
      </trkpt>
      <trkpt lat="49.92661" lon="2.20757">
        <ele>17</ele>
        <time>2022-04-11T11:24:13Z</time>
      </trkpt>
      <trkpt lat="49.92662" lon="2.20756">
        <ele>17</ele>
        <time>2022-04-11T11:24:14Z</time>
      </trkpt>
      <trkpt lat="49.92662" lon="2.20755">
        <ele>17</ele>
        <time>2022-04-11T11:24:15Z</time>
      </trkpt>
      <trkpt lat="49.92663" lon="2.20754">
        <ele>17</ele>
        <time>2022-04-11T11:24:16Z</time>
      </trkpt>
      <trkpt lat="49.92664" lon="2.20752">
        <ele>17</ele>
        <time>2022-04-11T11:24:17Z</time>
      </trkpt>
      <trkpt lat="49.92665" lon="2.20751">
        <ele>17</ele>
        <time>2022-04-11T11:24:18Z</time>
      </trkpt>
      <trkpt lat="49.92667" lon="2.2075">
        <ele>17</ele>
        <time>2022-04-11T11:24:19Z</time>
      </trkpt>
      <trkpt lat="49.92668" lon="2.20748">
        <ele>17</ele>
        <time>2022-04-11T11:24:21Z</time>
      </trkpt>
      <trkpt lat="49.9267" lon="2.20746">
        <ele>17</ele>
        <time>2022-04-11T11:24:22Z</time>
      </trkpt>
      <trkpt lat="49.92671" lon="2.20745">
        <ele>17</ele>
        <time>2022-04-11T11:24:23Z</time>
      </trkpt>
      <trkpt lat="49.92671" lon="2.20744">
        <ele>17</ele>
        <time>2022-04-11T11:24:24Z</time>
      </trkpt>
      <trkpt lat="49.92673" lon="2.20742">
        <ele>17</ele>
        <time>2022-04-11T11:24:25Z</time>
      </trkpt>
      <trkpt lat="49.92673" lon="2.20741">
        <ele>17</ele>
        <time>2022-04-11T11:24:26Z</time>
      </trkpt>
      <trkpt lat="49.92674" lon="2.2074">
        <ele>17</ele>
        <time>2022-04-11T11:24:27Z</time>
      </trkpt>
      <trkpt lat="49.92675" lon="2.20739">
        <ele>17</ele>
        <time>2022-04-11T11:24:28Z</time>
      </trkpt>
      <trkpt lat="49.92676" lon="2.20737">
        <ele>17</ele>
        <time>2022-04-11T11:24:29Z</time>
      </trkpt>
      <trkpt lat="49.92677" lon="2.20736">
        <ele>17</ele>
        <time>2022-04-11T11:24:30Z</time>
      </trkpt>
      <trkpt lat="49.92679" lon="2.20735">
        <ele>17</ele>
        <time>2022-04-11T11:24:31Z</time>
      </trkpt>
      <trkpt lat="49.9268" lon="2.20734">
        <ele>17</ele>
        <time>2022-04-11T11:24:32Z</time>
      </trkpt>
      <trkpt lat="49.92681" lon="2.20733">
        <ele>17</ele>
        <time>2022-04-11T11:24:33Z</time>
      </trkpt>
      <trkpt lat="49.92682" lon="2.20731">
        <ele>17</ele>
        <time>2022-04-11T11:24:35Z</time>
      </trkpt>
      <trkpt lat="49.92683" lon="2.2073">
        <ele>17</ele>
        <time>2022-04-11T11:24:36Z</time>
      </trkpt>
      <trkpt lat="49.92684" lon="2.20729">
        <ele>17</ele>
        <time>2022-04-11T11:24:37Z</time>
      </trkpt>
      <trkpt lat="49.92685" lon="2.20728">
        <ele>17</ele>
        <time>2022-04-11T11:24:38Z</time>
      </trkpt>
      <trkpt lat="49.92686" lon="2.20727">
        <ele>17</ele>
        <time>2022-04-11T11:24:39Z</time>
      </trkpt>
      <trkpt lat="49.92687" lon="2.20725">
        <ele>17</ele>
        <time>2022-04-11T11:24:40Z</time>
      </trkpt>
      <trkpt lat="49.92688" lon="2.20724">
        <ele>16.9</ele>
        <time>2022-04-11T11:24:41Z</time>
      </trkpt>
      <trkpt lat="49.92689" lon="2.20722">
        <ele>16.9</ele>
        <time>2022-04-11T11:24:42Z</time>
      </trkpt>
      <trkpt lat="49.9269" lon="2.20721">
        <ele>16.9</ele>
        <time>2022-04-11T11:24:43Z</time>
      </trkpt>
      <trkpt lat="49.92691" lon="2.20719">
        <ele>16.9</ele>
        <time>2022-04-11T11:24:44Z</time>
      </trkpt>
      <trkpt lat="49.92693" lon="2.20717">
        <ele>16.9</ele>
        <time>2022-04-11T11:24:46Z</time>
      </trkpt>
      <trkpt lat="49.92694" lon="2.20716">
        <ele>16.9</ele>
        <time>2022-04-11T11:24:47Z</time>
      </trkpt>
      <trkpt lat="49.92695" lon="2.20715">
        <ele>16.9</ele>
        <time>2022-04-11T11:24:48Z</time>
      </trkpt>
      <trkpt lat="49.92696" lon="2.20713">
        <ele>16.9</ele>
        <time>2022-04-11T11:24:49Z</time>
      </trkpt>
      <trkpt lat="49.92698" lon="2.20712">
        <ele>16.9</ele>
        <time>2022-04-11T11:24:50Z</time>
      </trkpt>
      <trkpt lat="49.92699" lon="2.2071">
        <ele>16.9</ele>
        <time>2022-04-11T11:24:51Z</time>
      </trkpt>
      <trkpt lat="49.927" lon="2.20709">
        <ele>16.9</ele>
        <time>2022-04-11T11:24:52Z</time>
      </trkpt>
      <trkpt lat="49.92701" lon="2.20709">
        <ele>16.9</ele>
        <time>2022-04-11T11:24:53Z</time>
      </trkpt>
      <trkpt lat="49.92702" lon="2.20707">
        <ele>16.9</ele>
        <time>2022-04-11T11:24:54Z</time>
      </trkpt>
      <trkpt lat="49.92703" lon="2.20706">
        <ele>16.9</ele>
        <time>2022-04-11T11:24:56Z</time>
      </trkpt>
      <trkpt lat="49.92704" lon="2.20705">
        <ele>16.9</ele>
        <time>2022-04-11T11:24:57Z</time>
      </trkpt>
      <trkpt lat="49.92705" lon="2.20704">
        <ele>16.9</ele>
        <time>2022-04-11T11:24:58Z</time>
      </trkpt>
      <trkpt lat="49.92706" lon="2.20703">
        <ele>16.9</ele>
        <time>2022-04-11T11:24:59Z</time>
      </trkpt>
      <trkpt lat="49.92707" lon="2.207">
        <ele>16.9</ele>
        <time>2022-04-11T11:25:00Z</time>
      </trkpt>
      <trkpt lat="49.92708" lon="2.20699">
        <ele>16.8</ele>
        <time>2022-04-11T11:25:01Z</time>
      </trkpt>
      <trkpt lat="49.92708" lon="2.20698">
        <ele>16.8</ele>
        <time>2022-04-11T11:25:02Z</time>
      </trkpt>
      <trkpt lat="49.92709" lon="2.20695">
        <ele>16.8</ele>
        <time>2022-04-11T11:25:03Z</time>
      </trkpt>
      <trkpt lat="49.9271" lon="2.20694">
        <ele>16.8</ele>
        <time>2022-04-11T11:25:05Z</time>
      </trkpt>
      <trkpt lat="49.92711" lon="2.20693">
        <ele>16.8</ele>
        <time>2022-04-11T11:25:06Z</time>
      </trkpt>
      <trkpt lat="49.92711" lon="2.20691">
        <ele>16.8</ele>
        <time>2022-04-11T11:25:07Z</time>
      </trkpt>
      <trkpt lat="49.92712" lon="2.2069">
        <ele>16.8</ele>
        <time>2022-04-11T11:25:08Z</time>
      </trkpt>
      <trkpt lat="49.92713" lon="2.20689">
        <ele>16.8</ele>
        <time>2022-04-11T11:25:09Z</time>
      </trkpt>
      <trkpt lat="49.92714" lon="2.20688">
        <ele>16.8</ele>
        <time>2022-04-11T11:25:10Z</time>
      </trkpt>
      <trkpt lat="49.92714" lon="2.20687">
        <ele>16.8</ele>
        <time>2022-04-11T11:25:11Z</time>
      </trkpt>
      <trkpt lat="49.92715" lon="2.20686">
        <ele>16.8</ele>
        <time>2022-04-11T11:25:12Z</time>
      </trkpt>
      <trkpt lat="49.92716" lon="2.20684">
        <ele>16.8</ele>
        <time>2022-04-11T11:25:13Z</time>
      </trkpt>
      <trkpt lat="49.92718" lon="2.20683">
        <ele>16.8</ele>
        <time>2022-04-11T11:25:14Z</time>
      </trkpt>
      <trkpt lat="49.92719" lon="2.20681">
        <ele>16.8</ele>
        <time>2022-04-11T11:25:16Z</time>
      </trkpt>
      <trkpt lat="49.9272" lon="2.2068">
        <ele>16.8</ele>
        <time>2022-04-11T11:25:17Z</time>
      </trkpt>
      <trkpt lat="49.92721" lon="2.20679">
        <ele>16.7</ele>
        <time>2022-04-11T11:25:18Z</time>
      </trkpt>
      <trkpt lat="49.92723" lon="2.20678">
        <ele>16.7</ele>
        <time>2022-04-11T11:25:19Z</time>
      </trkpt>
      <trkpt lat="49.92724" lon="2.20676">
        <ele>16.7</ele>
        <time>2022-04-11T11:25:20Z</time>
      </trkpt>
      <trkpt lat="49.92725" lon="2.20675">
        <ele>16.7</ele>
        <time>2022-04-11T11:25:21Z</time>
      </trkpt>
      <trkpt lat="49.92726" lon="2.20674">
        <ele>16.7</ele>
        <time>2022-04-11T11:25:22Z</time>
      </trkpt>
      <trkpt lat="49.92726" lon="2.20673">
        <ele>16.7</ele>
        <time>2022-04-11T11:25:23Z</time>
      </trkpt>
      <trkpt lat="49.92727" lon="2.20672">
        <ele>16.7</ele>
        <time>2022-04-11T11:25:24Z</time>
      </trkpt>
      <trkpt lat="49.92728" lon="2.2067">
        <ele>16.7</ele>
        <time>2022-04-11T11:25:26Z</time>
      </trkpt>
      <trkpt lat="49.92729" lon="2.20669">
        <ele>16.7</ele>
        <time>2022-04-11T11:25:27Z</time>
      </trkpt>
      <trkpt lat="49.9273" lon="2.20667">
        <ele>16.7</ele>
        <time>2022-04-11T11:25:28Z</time>
      </trkpt>
      <trkpt lat="49.92731" lon="2.20666">
        <ele>16.7</ele>
        <time>2022-04-11T11:25:29Z</time>
      </trkpt>
      <trkpt lat="49.92732" lon="2.20663">
        <ele>16.7</ele>
        <time>2022-04-11T11:25:30Z</time>
      </trkpt>
      <trkpt lat="49.92732" lon="2.20662">
        <ele>16.7</ele>
        <time>2022-04-11T11:25:31Z</time>
      </trkpt>
      <trkpt lat="49.92733" lon="2.20661">
        <ele>16.7</ele>
        <time>2022-04-11T11:25:32Z</time>
      </trkpt>
      <trkpt lat="49.92733" lon="2.2066">
        <ele>16.7</ele>
        <time>2022-04-11T11:25:33Z</time>
      </trkpt>
      <trkpt lat="49.92734" lon="2.20658">
        <ele>16.6</ele>
        <time>2022-04-11T11:25:34Z</time>
      </trkpt>
      <trkpt lat="49.92735" lon="2.20657">
        <ele>16.6</ele>
        <time>2022-04-11T11:25:35Z</time>
      </trkpt>
      <trkpt lat="49.92735" lon="2.20655">
        <ele>16.6</ele>
        <time>2022-04-11T11:25:36Z</time>
      </trkpt>
      <trkpt lat="49.92736" lon="2.20654">
        <ele>16.6</ele>
        <time>2022-04-11T11:25:37Z</time>
      </trkpt>
      <trkpt lat="49.92737" lon="2.20652">
        <ele>16.6</ele>
        <time>2022-04-11T11:25:39Z</time>
      </trkpt>
      <trkpt lat="49.92738" lon="2.20651">
        <ele>16.6</ele>
        <time>2022-04-11T11:25:40Z</time>
      </trkpt>
      <trkpt lat="49.92738" lon="2.2065">
        <ele>16.6</ele>
        <time>2022-04-11T11:25:41Z</time>
      </trkpt>
      <trkpt lat="49.92739" lon="2.20649">
        <ele>16.6</ele>
        <time>2022-04-11T11:25:42Z</time>
      </trkpt>
      <trkpt lat="49.9274" lon="2.20646">
        <ele>16.6</ele>
        <time>2022-04-11T11:25:43Z</time>
      </trkpt>
      <trkpt lat="49.92741" lon="2.20645">
        <ele>16.6</ele>
        <time>2022-04-11T11:25:44Z</time>
      </trkpt>
      <trkpt lat="49.92741" lon="2.20644">
        <ele>16.6</ele>
        <time>2022-04-11T11:25:45Z</time>
      </trkpt>
      <trkpt lat="49.92742" lon="2.20642">
        <ele>16.6</ele>
        <time>2022-04-11T11:25:46Z</time>
      </trkpt>
      <trkpt lat="49.92743" lon="2.2064">
        <ele>16.6</ele>
        <time>2022-04-11T11:25:47Z</time>
      </trkpt>
      <trkpt lat="49.92744" lon="2.20639">
        <ele>16.6</ele>
        <time>2022-04-11T11:25:48Z</time>
      </trkpt>
      <trkpt lat="49.92745" lon="2.20637">
        <ele>16.6</ele>
        <time>2022-04-11T11:25:50Z</time>
      </trkpt>
      <trkpt lat="49.92745" lon="2.20637">
        <ele>16.6</ele>
        <time>2022-04-11T11:25:51Z</time>
      </trkpt>
      <trkpt lat="49.92746" lon="2.20635">
        <ele>16.6</ele>
        <time>2022-04-11T11:25:52Z</time>
      </trkpt>
      <trkpt lat="49.92746" lon="2.20634">
        <ele>16.6</ele>
        <time>2022-04-11T11:25:53Z</time>
      </trkpt>
      <trkpt lat="49.92747" lon="2.20633">
        <ele>16.6</ele>
        <time>2022-04-11T11:25:54Z</time>
      </trkpt>
      <trkpt lat="49.92748" lon="2.20631">
        <ele>16.6</ele>
        <time>2022-04-11T11:25:55Z</time>
      </trkpt>
      <trkpt lat="49.9275" lon="2.20629">
        <ele>16.6</ele>
        <time>2022-04-11T11:25:56Z</time>
      </trkpt>
      <trkpt lat="49.92751" lon="2.20628">
        <ele>16.6</ele>
        <time>2022-04-11T11:25:57Z</time>
      </trkpt>
      <trkpt lat="49.92751" lon="2.20628">
        <ele>16.5</ele>
        <time>2022-04-11T11:25:58Z</time>
      </trkpt>
      <trkpt lat="49.92753" lon="2.20626">
        <ele>16.5</ele>
        <time>2022-04-11T11:25:59Z</time>
      </trkpt>
      <trkpt lat="49.92754" lon="2.20625">
        <ele>16.5</ele>
        <time>2022-04-11T11:26:00Z</time>
      </trkpt>
      <trkpt lat="49.92754" lon="2.20624">
        <ele>16.5</ele>
        <time>2022-04-11T11:26:01Z</time>
      </trkpt>
      <trkpt lat="49.92755" lon="2.20623">
        <ele>16.5</ele>
        <time>2022-04-11T11:26:03Z</time>
      </trkpt>
      <trkpt lat="49.92756" lon="2.20622">
        <ele>16.5</ele>
        <time>2022-04-11T11:26:04Z</time>
      </trkpt>
      <trkpt lat="49.92757" lon="2.20621">
        <ele>16.5</ele>
        <time>2022-04-11T11:26:05Z</time>
      </trkpt>
      <trkpt lat="49.92758" lon="2.2062">
        <ele>16.5</ele>
        <time>2022-04-11T11:26:06Z</time>
      </trkpt>
      <trkpt lat="49.92759" lon="2.2062">
        <ele>16.5</ele>
        <time>2022-04-11T11:26:07Z</time>
      </trkpt>
      <trkpt lat="49.9276" lon="2.20619">
        <ele>16.5</ele>
        <time>2022-04-11T11:26:08Z</time>
      </trkpt>
      <trkpt lat="49.92762" lon="2.20617">
        <ele>16.5</ele>
        <time>2022-04-11T11:26:09Z</time>
      </trkpt>
      <trkpt lat="49.92762" lon="2.20616">
        <ele>16.5</ele>
        <time>2022-04-11T11:26:10Z</time>
      </trkpt>
      <trkpt lat="49.92763" lon="2.20615">
        <ele>16.5</ele>
        <time>2022-04-11T11:26:11Z</time>
      </trkpt>
      <trkpt lat="49.92765" lon="2.20613">
        <ele>16.5</ele>
        <time>2022-04-11T11:26:12Z</time>
      </trkpt>
      <trkpt lat="49.92765" lon="2.20612">
        <ele>16.5</ele>
        <time>2022-04-11T11:26:13Z</time>
      </trkpt>
      <trkpt lat="49.92766" lon="2.20611">
        <ele>16.5</ele>
        <time>2022-04-11T11:26:14Z</time>
      </trkpt>
      <trkpt lat="49.92767" lon="2.2061">
        <ele>16.5</ele>
        <time>2022-04-11T11:26:16Z</time>
      </trkpt>
      <trkpt lat="49.92768" lon="2.20608">
        <ele>16.5</ele>
        <time>2022-04-11T11:26:17Z</time>
      </trkpt>
      <trkpt lat="49.92769" lon="2.20607">
        <ele>16.5</ele>
        <time>2022-04-11T11:26:18Z</time>
      </trkpt>
      <trkpt lat="49.9277" lon="2.20606">
        <ele>16.5</ele>
        <time>2022-04-11T11:26:19Z</time>
      </trkpt>
      <trkpt lat="49.9277" lon="2.20605">
        <ele>16.5</ele>
        <time>2022-04-11T11:26:20Z</time>
      </trkpt>
      <trkpt lat="49.92772" lon="2.20602">
        <ele>16.5</ele>
        <time>2022-04-11T11:26:21Z</time>
      </trkpt>
      <trkpt lat="49.92773" lon="2.20601">
        <ele>16.5</ele>
        <time>2022-04-11T11:26:23Z</time>
      </trkpt>
      <trkpt lat="49.92773" lon="2.20599">
        <ele>16.5</ele>
        <time>2022-04-11T11:26:24Z</time>
      </trkpt>
      <trkpt lat="49.92774" lon="2.20598">
        <ele>16.5</ele>
        <time>2022-04-11T11:26:25Z</time>
      </trkpt>
      <trkpt lat="49.92775" lon="2.20597">
        <ele>16.5</ele>
        <time>2022-04-11T11:26:26Z</time>
      </trkpt>
      <trkpt lat="49.92776" lon="2.20596">
        <ele>16.5</ele>
        <time>2022-04-11T11:26:27Z</time>
      </trkpt>
      <trkpt lat="49.92777" lon="2.20594">
        <ele>16.5</ele>
        <time>2022-04-11T11:26:28Z</time>
      </trkpt>
      <trkpt lat="49.92779" lon="2.20592">
        <ele>16.5</ele>
        <time>2022-04-11T11:26:29Z</time>
      </trkpt>
      <trkpt lat="49.92779" lon="2.20591">
        <ele>16.5</ele>
        <time>2022-04-11T11:26:30Z</time>
      </trkpt>
      <trkpt lat="49.9278" lon="2.2059">
        <ele>16.5</ele>
        <time>2022-04-11T11:26:31Z</time>
      </trkpt>
      <trkpt lat="49.92781" lon="2.20588">
        <ele>16.5</ele>
        <time>2022-04-11T11:26:32Z</time>
      </trkpt>
      <trkpt lat="49.92782" lon="2.20587">
        <ele>16.5</ele>
        <time>2022-04-11T11:26:34Z</time>
      </trkpt>
      <trkpt lat="49.92783" lon="2.20586">
        <ele>16.5</ele>
        <time>2022-04-11T11:26:35Z</time>
      </trkpt>
      <trkpt lat="49.92784" lon="2.20583">
        <ele>16.5</ele>
        <time>2022-04-11T11:26:36Z</time>
      </trkpt>
      <trkpt lat="49.92784" lon="2.20582">
        <ele>16.5</ele>
        <time>2022-04-11T11:26:37Z</time>
      </trkpt>
      <trkpt lat="49.92785" lon="2.20581">
        <ele>16.5</ele>
        <time>2022-04-11T11:26:38Z</time>
      </trkpt>
      <trkpt lat="49.92786" lon="2.20578">
        <ele>16.5</ele>
        <time>2022-04-11T11:26:40Z</time>
      </trkpt>
      <trkpt lat="49.92787" lon="2.20577">
        <ele>16.5</ele>
        <time>2022-04-11T11:26:41Z</time>
      </trkpt>
      <trkpt lat="49.92787" lon="2.20576">
        <ele>16.5</ele>
        <time>2022-04-11T11:26:42Z</time>
      </trkpt>
      <trkpt lat="49.92787" lon="2.20575">
        <ele>16.5</ele>
        <time>2022-04-11T11:26:43Z</time>
      </trkpt>
      <trkpt lat="49.92788" lon="2.20574">
        <ele>16.5</ele>
        <time>2022-04-11T11:26:44Z</time>
      </trkpt>
      <trkpt lat="49.92789" lon="2.20572">
        <ele>16.5</ele>
        <time>2022-04-11T11:26:45Z</time>
      </trkpt>
      <trkpt lat="49.9279" lon="2.2057">
        <ele>16.5</ele>
        <time>2022-04-11T11:26:46Z</time>
      </trkpt>
      <trkpt lat="49.92791" lon="2.20569">
        <ele>16.5</ele>
        <time>2022-04-11T11:26:47Z</time>
      </trkpt>
      <trkpt lat="49.92792" lon="2.20568">
        <ele>16.5</ele>
        <time>2022-04-11T11:26:48Z</time>
      </trkpt>
      <trkpt lat="49.92793" lon="2.20567">
        <ele>16.5</ele>
        <time>2022-04-11T11:26:49Z</time>
      </trkpt>
      <trkpt lat="49.92794" lon="2.20565">
        <ele>16.5</ele>
        <time>2022-04-11T11:26:50Z</time>
      </trkpt>
      <trkpt lat="49.92795" lon="2.20564">
        <ele>16.5</ele>
        <time>2022-04-11T11:26:52Z</time>
      </trkpt>
      <trkpt lat="49.92796" lon="2.20563">
        <ele>16.5</ele>
        <time>2022-04-11T11:26:53Z</time>
      </trkpt>
      <trkpt lat="49.92798" lon="2.20562">
        <ele>16.5</ele>
        <time>2022-04-11T11:26:54Z</time>
      </trkpt>
      <trkpt lat="49.92799" lon="2.20561">
        <ele>16.6</ele>
        <time>2022-04-11T11:26:55Z</time>
      </trkpt>
      <trkpt lat="49.928" lon="2.2056">
        <ele>16.6</ele>
        <time>2022-04-11T11:26:56Z</time>
      </trkpt>
      <trkpt lat="49.92801" lon="2.20559">
        <ele>16.6</ele>
        <time>2022-04-11T11:26:57Z</time>
      </trkpt>
      <trkpt lat="49.92802" lon="2.20558">
        <ele>16.6</ele>
        <time>2022-04-11T11:26:58Z</time>
      </trkpt>
      <trkpt lat="49.92803" lon="2.20556">
        <ele>16.6</ele>
        <time>2022-04-11T11:27:00Z</time>
      </trkpt>
      <trkpt lat="49.92804" lon="2.20555">
        <ele>16.6</ele>
        <time>2022-04-11T11:27:01Z</time>
      </trkpt>
      <trkpt lat="49.92805" lon="2.20553">
        <ele>16.6</ele>
        <time>2022-04-11T11:27:02Z</time>
      </trkpt>
      <trkpt lat="49.92807" lon="2.20552">
        <ele>16.6</ele>
        <time>2022-04-11T11:27:03Z</time>
      </trkpt>
      <trkpt lat="49.92808" lon="2.2055">
        <ele>16.6</ele>
        <time>2022-04-11T11:27:04Z</time>
      </trkpt>
      <trkpt lat="49.92809" lon="2.2055">
        <ele>16.6</ele>
        <time>2022-04-11T11:27:05Z</time>
      </trkpt>
      <trkpt lat="49.9281" lon="2.20549">
        <ele>16.6</ele>
        <time>2022-04-11T11:27:06Z</time>
      </trkpt>
      <trkpt lat="49.92811" lon="2.20547">
        <ele>16.6</ele>
        <time>2022-04-11T11:27:07Z</time>
      </trkpt>
      <trkpt lat="49.92812" lon="2.20546">
        <ele>16.6</ele>
        <time>2022-04-11T11:27:09Z</time>
      </trkpt>
      <trkpt lat="49.92812" lon="2.20545">
        <ele>16.6</ele>
        <time>2022-04-11T11:27:10Z</time>
      </trkpt>
      <trkpt lat="49.92814" lon="2.20543">
        <ele>16.6</ele>
        <time>2022-04-11T11:27:11Z</time>
      </trkpt>
      <trkpt lat="49.92814" lon="2.20542">
        <ele>16.6</ele>
        <time>2022-04-11T11:27:12Z</time>
      </trkpt>
      <trkpt lat="49.92815" lon="2.20541">
        <ele>16.6</ele>
        <time>2022-04-11T11:27:13Z</time>
      </trkpt>
      <trkpt lat="49.92816" lon="2.2054">
        <ele>16.6</ele>
        <time>2022-04-11T11:27:14Z</time>
      </trkpt>
      <trkpt lat="49.92816" lon="2.20538">
        <ele>16.6</ele>
        <time>2022-04-11T11:27:15Z</time>
      </trkpt>
      <trkpt lat="49.92817" lon="2.20537">
        <ele>16.6</ele>
        <time>2022-04-11T11:27:17Z</time>
      </trkpt>
      <trkpt lat="49.92818" lon="2.20536">
        <ele>16.6</ele>
        <time>2022-04-11T11:27:18Z</time>
      </trkpt>
      <trkpt lat="49.92818" lon="2.20535">
        <ele>16.6</ele>
        <time>2022-04-11T11:27:19Z</time>
      </trkpt>
      <trkpt lat="49.92818" lon="2.20534">
        <ele>16.6</ele>
        <time>2022-04-11T11:27:20Z</time>
      </trkpt>
      <trkpt lat="49.92819" lon="2.20533">
        <ele>16.6</ele>
        <time>2022-04-11T11:27:21Z</time>
      </trkpt>
      <trkpt lat="49.9282" lon="2.20532">
        <ele>16.6</ele>
        <time>2022-04-11T11:27:22Z</time>
      </trkpt>
      <trkpt lat="49.9282" lon="2.2053">
        <ele>16.6</ele>
        <time>2022-04-11T11:27:23Z</time>
      </trkpt>
      <trkpt lat="49.92821" lon="2.20529">
        <ele>16.6</ele>
        <time>2022-04-11T11:27:24Z</time>
      </trkpt>
      <trkpt lat="49.92822" lon="2.20527">
        <ele>16.6</ele>
        <time>2022-04-11T11:27:25Z</time>
      </trkpt>
      <trkpt lat="49.92823" lon="2.20526">
        <ele>16.6</ele>
        <time>2022-04-11T11:27:26Z</time>
      </trkpt>
      <trkpt lat="49.92824" lon="2.20525">
        <ele>16.6</ele>
        <time>2022-04-11T11:27:27Z</time>
      </trkpt>
      <trkpt lat="49.92825" lon="2.20523">
        <ele>16.6</ele>
        <time>2022-04-11T11:27:29Z</time>
      </trkpt>
      <trkpt lat="49.92826" lon="2.20522">
        <ele>16.6</ele>
        <time>2022-04-11T11:27:30Z</time>
      </trkpt>
      <trkpt lat="49.92826" lon="2.20521">
        <ele>16.6</ele>
        <time>2022-04-11T11:27:31Z</time>
      </trkpt>
      <trkpt lat="49.92827" lon="2.2052">
        <ele>16.6</ele>
        <time>2022-04-11T11:27:32Z</time>
      </trkpt>
      <trkpt lat="49.92828" lon="2.20518">
        <ele>16.6</ele>
        <time>2022-04-11T11:27:33Z</time>
      </trkpt>
      <trkpt lat="49.92828" lon="2.20517">
        <ele>16.6</ele>
        <time>2022-04-11T11:27:34Z</time>
      </trkpt>
      <trkpt lat="49.92828" lon="2.20516">
        <ele>16.6</ele>
        <time>2022-04-11T11:27:36Z</time>
      </trkpt>
      <trkpt lat="49.92829" lon="2.20514">
        <ele>16.6</ele>
        <time>2022-04-11T11:27:37Z</time>
      </trkpt>
      <trkpt lat="49.92829" lon="2.20513">
        <ele>16.6</ele>
        <time>2022-04-11T11:27:38Z</time>
      </trkpt>
      <trkpt lat="49.9283" lon="2.20512">
        <ele>16.6</ele>
        <time>2022-04-11T11:27:39Z</time>
      </trkpt>
      <trkpt lat="49.9283" lon="2.2051">
        <ele>16.6</ele>
        <time>2022-04-11T11:27:40Z</time>
      </trkpt>
      <trkpt lat="49.92831" lon="2.20509">
        <ele>16.6</ele>
        <time>2022-04-11T11:27:41Z</time>
      </trkpt>
      <trkpt lat="49.92832" lon="2.20508">
        <ele>16.6</ele>
        <time>2022-04-11T11:27:42Z</time>
      </trkpt>
      <trkpt lat="49.92833" lon="2.20507">
        <ele>16.6</ele>
        <time>2022-04-11T11:27:43Z</time>
      </trkpt>
      <trkpt lat="49.92833" lon="2.20506">
        <ele>16.6</ele>
        <time>2022-04-11T11:27:45Z</time>
      </trkpt>
      <trkpt lat="49.92834" lon="2.20504">
        <ele>16.6</ele>
        <time>2022-04-11T11:27:46Z</time>
      </trkpt>
      <trkpt lat="49.92835" lon="2.20502">
        <ele>16.6</ele>
        <time>2022-04-11T11:27:47Z</time>
      </trkpt>
      <trkpt lat="49.92836" lon="2.205">
        <ele>16.6</ele>
        <time>2022-04-11T11:27:49Z</time>
      </trkpt>
      <trkpt lat="49.92837" lon="2.20499">
        <ele>16.5</ele>
        <time>2022-04-11T11:27:50Z</time>
      </trkpt>
      <trkpt lat="49.92838" lon="2.20497">
        <ele>16.5</ele>
        <time>2022-04-11T11:27:51Z</time>
      </trkpt>
      <trkpt lat="49.92839" lon="2.20496">
        <ele>16.5</ele>
        <time>2022-04-11T11:27:52Z</time>
      </trkpt>
      <trkpt lat="49.9284" lon="2.20494">
        <ele>16.5</ele>
        <time>2022-04-11T11:27:53Z</time>
      </trkpt>
      <trkpt lat="49.92841" lon="2.20492">
        <ele>16.5</ele>
        <time>2022-04-11T11:27:54Z</time>
      </trkpt>
      <trkpt lat="49.92842" lon="2.2049">
        <ele>16.5</ele>
        <time>2022-04-11T11:27:56Z</time>
      </trkpt>
      <trkpt lat="49.92843" lon="2.20488">
        <ele>16.5</ele>
        <time>2022-04-11T11:27:57Z</time>
      </trkpt>
      <trkpt lat="49.92844" lon="2.20487">
        <ele>16.5</ele>
        <time>2022-04-11T11:27:58Z</time>
      </trkpt>
      <trkpt lat="49.92845" lon="2.20485">
        <ele>16.6</ele>
        <time>2022-04-11T11:27:59Z</time>
      </trkpt>
      <trkpt lat="49.92845" lon="2.20484">
        <ele>16.6</ele>
        <time>2022-04-11T11:28:00Z</time>
      </trkpt>
      <trkpt lat="49.92847" lon="2.20482">
        <ele>16.6</ele>
        <time>2022-04-11T11:28:02Z</time>
      </trkpt>
      <trkpt lat="49.92848" lon="2.20481">
        <ele>16.6</ele>
        <time>2022-04-11T11:28:03Z</time>
      </trkpt>
      <trkpt lat="49.92849" lon="2.20479">
        <ele>16.6</ele>
        <time>2022-04-11T11:28:04Z</time>
      </trkpt>
      <trkpt lat="49.9285" lon="2.20478">
        <ele>16.6</ele>
        <time>2022-04-11T11:28:05Z</time>
      </trkpt>
      <trkpt lat="49.92851" lon="2.20476">
        <ele>16.6</ele>
        <time>2022-04-11T11:28:06Z</time>
      </trkpt>
      <trkpt lat="49.92852" lon="2.20475">
        <ele>16.6</ele>
        <time>2022-04-11T11:28:07Z</time>
      </trkpt>
      <trkpt lat="49.92852" lon="2.20474">
        <ele>16.6</ele>
        <time>2022-04-11T11:28:08Z</time>
      </trkpt>
      <trkpt lat="49.92854" lon="2.20472">
        <ele>16.6</ele>
        <time>2022-04-11T11:28:10Z</time>
      </trkpt>
      <trkpt lat="49.92855" lon="2.20471">
        <ele>16.6</ele>
        <time>2022-04-11T11:28:11Z</time>
      </trkpt>
      <trkpt lat="49.92855" lon="2.2047">
        <ele>16.6</ele>
        <time>2022-04-11T11:28:12Z</time>
      </trkpt>
      <trkpt lat="49.92857" lon="2.20469">
        <ele>16.6</ele>
        <time>2022-04-11T11:28:13Z</time>
      </trkpt>
      <trkpt lat="49.92857" lon="2.20468">
        <ele>16.6</ele>
        <time>2022-04-11T11:28:14Z</time>
      </trkpt>
      <trkpt lat="49.92858" lon="2.20467">
        <ele>16.6</ele>
        <time>2022-04-11T11:28:15Z</time>
      </trkpt>
      <trkpt lat="49.9286" lon="2.20464">
        <ele>16.6</ele>
        <time>2022-04-11T11:28:16Z</time>
      </trkpt>
      <trkpt lat="49.9286" lon="2.20463">
        <ele>16.6</ele>
        <time>2022-04-11T11:28:17Z</time>
      </trkpt>
      <trkpt lat="49.92861" lon="2.20462">
        <ele>16.6</ele>
        <time>2022-04-11T11:28:18Z</time>
      </trkpt>
      <trkpt lat="49.92862" lon="2.2046">
        <ele>16.6</ele>
        <time>2022-04-11T11:28:20Z</time>
      </trkpt>
      <trkpt lat="49.92862" lon="2.20459">
        <ele>16.6</ele>
        <time>2022-04-11T11:28:21Z</time>
      </trkpt>
      <trkpt lat="49.92863" lon="2.20458">
        <ele>16.6</ele>
        <time>2022-04-11T11:28:22Z</time>
      </trkpt>
      <trkpt lat="49.92864" lon="2.20455">
        <ele>16.6</ele>
        <time>2022-04-11T11:28:23Z</time>
      </trkpt>
      <trkpt lat="49.92865" lon="2.20454">
        <ele>16.6</ele>
        <time>2022-04-11T11:28:24Z</time>
      </trkpt>
      <trkpt lat="49.92865" lon="2.20453">
        <ele>16.6</ele>
        <time>2022-04-11T11:28:25Z</time>
      </trkpt>
      <trkpt lat="49.92866" lon="2.2045">
        <ele>16.6</ele>
        <time>2022-04-11T11:28:26Z</time>
      </trkpt>
      <trkpt lat="49.92867" lon="2.20449">
        <ele>16.6</ele>
        <time>2022-04-11T11:28:27Z</time>
      </trkpt>
      <trkpt lat="49.92867" lon="2.20448">
        <ele>16.6</ele>
        <time>2022-04-11T11:28:28Z</time>
      </trkpt>
      <trkpt lat="49.92868" lon="2.20447">
        <ele>16.6</ele>
        <time>2022-04-11T11:28:30Z</time>
      </trkpt>
      <trkpt lat="49.92869" lon="2.20444">
        <ele>16.6</ele>
        <time>2022-04-11T11:28:31Z</time>
      </trkpt>
      <trkpt lat="49.9287" lon="2.20441">
        <ele>16.6</ele>
        <time>2022-04-11T11:28:32Z</time>
      </trkpt>
      <trkpt lat="49.92871" lon="2.2044">
        <ele>16.6</ele>
        <time>2022-04-11T11:28:33Z</time>
      </trkpt>
      <trkpt lat="49.92871" lon="2.20439">
        <ele>16.6</ele>
        <time>2022-04-11T11:28:34Z</time>
      </trkpt>
      <trkpt lat="49.92872" lon="2.20436">
        <ele>16.6</ele>
        <time>2022-04-11T11:28:36Z</time>
      </trkpt>
      <trkpt lat="49.92873" lon="2.20435">
        <ele>16.6</ele>
        <time>2022-04-11T11:28:37Z</time>
      </trkpt>
      <trkpt lat="49.92873" lon="2.20434">
        <ele>16.6</ele>
        <time>2022-04-11T11:28:38Z</time>
      </trkpt>
      <trkpt lat="49.92874" lon="2.20431">
        <ele>16.6</ele>
        <time>2022-04-11T11:28:39Z</time>
      </trkpt>
      <trkpt lat="49.92875" lon="2.2043">
        <ele>16.6</ele>
        <time>2022-04-11T11:28:40Z</time>
      </trkpt>
      <trkpt lat="49.92875" lon="2.20429">
        <ele>16.6</ele>
        <time>2022-04-11T11:28:41Z</time>
      </trkpt>
      <trkpt lat="49.92876" lon="2.20426">
        <ele>16.6</ele>
        <time>2022-04-11T11:28:42Z</time>
      </trkpt>
      <trkpt lat="49.92877" lon="2.20425">
        <ele>16.6</ele>
        <time>2022-04-11T11:28:43Z</time>
      </trkpt>
      <trkpt lat="49.92877" lon="2.20424">
        <ele>16.6</ele>
        <time>2022-04-11T11:28:44Z</time>
      </trkpt>
      <trkpt lat="49.92878" lon="2.20421">
        <ele>16.6</ele>
        <time>2022-04-11T11:28:45Z</time>
      </trkpt>
      <trkpt lat="49.92879" lon="2.2042">
        <ele>16.6</ele>
        <time>2022-04-11T11:28:47Z</time>
      </trkpt>
      <trkpt lat="49.92879" lon="2.20418">
        <ele>16.6</ele>
        <time>2022-04-11T11:28:48Z</time>
      </trkpt>
      <trkpt lat="49.9288" lon="2.20417">
        <ele>16.6</ele>
        <time>2022-04-11T11:28:49Z</time>
      </trkpt>
      <trkpt lat="49.9288" lon="2.20416">
        <ele>16.6</ele>
        <time>2022-04-11T11:28:50Z</time>
      </trkpt>
      <trkpt lat="49.92881" lon="2.20414">
        <ele>16.6</ele>
        <time>2022-04-11T11:28:51Z</time>
      </trkpt>
      <trkpt lat="49.92882" lon="2.20411">
        <ele>16.6</ele>
        <time>2022-04-11T11:28:52Z</time>
      </trkpt>
      <trkpt lat="49.92883" lon="2.2041">
        <ele>16.5</ele>
        <time>2022-04-11T11:28:53Z</time>
      </trkpt>
      <trkpt lat="49.92883" lon="2.20409">
        <ele>16.5</ele>
        <time>2022-04-11T11:28:54Z</time>
      </trkpt>
      <trkpt lat="49.92884" lon="2.20407">
        <ele>16.5</ele>
        <time>2022-04-11T11:28:55Z</time>
      </trkpt>
      <trkpt lat="49.92885" lon="2.20405">
        <ele>16.5</ele>
        <time>2022-04-11T11:28:56Z</time>
      </trkpt>
      <trkpt lat="49.92886" lon="2.20404">
        <ele>16.5</ele>
        <time>2022-04-11T11:28:58Z</time>
      </trkpt>
      <trkpt lat="49.92887" lon="2.20401">
        <ele>16.5</ele>
        <time>2022-04-11T11:28:59Z</time>
      </trkpt>
      <trkpt lat="49.92887" lon="2.204">
        <ele>16.5</ele>
        <time>2022-04-11T11:29:00Z</time>
      </trkpt>
      <trkpt lat="49.92888" lon="2.20399">
        <ele>16.5</ele>
        <time>2022-04-11T11:29:01Z</time>
      </trkpt>
      <trkpt lat="49.92888" lon="2.20398">
        <ele>16.5</ele>
        <time>2022-04-11T11:29:02Z</time>
      </trkpt>
      <trkpt lat="49.92889" lon="2.20396">
        <ele>16.5</ele>
        <time>2022-04-11T11:29:03Z</time>
      </trkpt>
      <trkpt lat="49.92889" lon="2.20395">
        <ele>16.5</ele>
        <time>2022-04-11T11:29:04Z</time>
      </trkpt>
      <trkpt lat="49.9289" lon="2.20393">
        <ele>16.5</ele>
        <time>2022-04-11T11:29:05Z</time>
      </trkpt>
      <trkpt lat="49.9289" lon="2.20391">
        <ele>16.5</ele>
        <time>2022-04-11T11:29:06Z</time>
      </trkpt>
      <trkpt lat="49.92891" lon="2.2039">
        <ele>16.5</ele>
        <time>2022-04-11T11:29:07Z</time>
      </trkpt>
      <trkpt lat="49.92891" lon="2.20388">
        <ele>16.5</ele>
        <time>2022-04-11T11:29:09Z</time>
      </trkpt>
      <trkpt lat="49.92892" lon="2.20387">
        <ele>16.5</ele>
        <time>2022-04-11T11:29:10Z</time>
      </trkpt>
      <trkpt lat="49.92892" lon="2.20385">
        <ele>16.5</ele>
        <time>2022-04-11T11:29:11Z</time>
      </trkpt>
      <trkpt lat="49.92893" lon="2.20384">
        <ele>16.5</ele>
        <time>2022-04-11T11:29:12Z</time>
      </trkpt>
      <trkpt lat="49.92893" lon="2.20382">
        <ele>16.5</ele>
        <time>2022-04-11T11:29:13Z</time>
      </trkpt>
      <trkpt lat="49.92894" lon="2.20381">
        <ele>16.5</ele>
        <time>2022-04-11T11:29:14Z</time>
      </trkpt>
      <trkpt lat="49.92895" lon="2.20378">
        <ele>16.5</ele>
        <time>2022-04-11T11:29:15Z</time>
      </trkpt>
      <trkpt lat="49.92895" lon="2.20376">
        <ele>16.5</ele>
        <time>2022-04-11T11:29:16Z</time>
      </trkpt>
      <trkpt lat="49.92895" lon="2.20375">
        <ele>16.5</ele>
        <time>2022-04-11T11:29:17Z</time>
      </trkpt>
      <trkpt lat="49.92896" lon="2.20372">
        <ele>16.4</ele>
        <time>2022-04-11T11:29:18Z</time>
      </trkpt>
      <trkpt lat="49.92897" lon="2.20371">
        <ele>16.4</ele>
        <time>2022-04-11T11:29:20Z</time>
      </trkpt>
      <trkpt lat="49.92897" lon="2.2037">
        <ele>16.4</ele>
        <time>2022-04-11T11:29:21Z</time>
      </trkpt>
      <trkpt lat="49.92898" lon="2.20369">
        <ele>16.4</ele>
        <time>2022-04-11T11:29:22Z</time>
      </trkpt>
      <trkpt lat="49.92898" lon="2.20368">
        <ele>16.4</ele>
        <time>2022-04-11T11:29:23Z</time>
      </trkpt>
      <trkpt lat="49.92899" lon="2.20366">
        <ele>16.4</ele>
        <time>2022-04-11T11:29:24Z</time>
      </trkpt>
      <trkpt lat="49.929" lon="2.20365">
        <ele>16.4</ele>
        <time>2022-04-11T11:29:25Z</time>
      </trkpt>
      <trkpt lat="49.929" lon="2.20363">
        <ele>16.4</ele>
        <time>2022-04-11T11:29:26Z</time>
      </trkpt>
      <trkpt lat="49.92901" lon="2.20362">
        <ele>16.4</ele>
        <time>2022-04-11T11:29:27Z</time>
      </trkpt>
      <trkpt lat="49.92902" lon="2.20361">
        <ele>16.4</ele>
        <time>2022-04-11T11:29:28Z</time>
      </trkpt>
      <trkpt lat="49.92903" lon="2.2036">
        <ele>16.4</ele>
        <time>2022-04-11T11:29:29Z</time>
      </trkpt>
      <trkpt lat="49.92904" lon="2.20359">
        <ele>16.4</ele>
        <time>2022-04-11T11:29:31Z</time>
      </trkpt>
      <trkpt lat="49.92904" lon="2.20358">
        <ele>16.4</ele>
        <time>2022-04-11T11:29:32Z</time>
      </trkpt>
      <trkpt lat="49.92905" lon="2.20357">
        <ele>16.4</ele>
        <time>2022-04-11T11:29:33Z</time>
      </trkpt>
      <trkpt lat="49.92905" lon="2.20356">
        <ele>16.4</ele>
        <time>2022-04-11T11:29:34Z</time>
      </trkpt>
      <trkpt lat="49.92907" lon="2.20353">
        <ele>16.4</ele>
        <time>2022-04-11T11:29:35Z</time>
      </trkpt>
      <trkpt lat="49.92907" lon="2.20352">
        <ele>16.4</ele>
        <time>2022-04-11T11:29:36Z</time>
      </trkpt>
      <trkpt lat="49.92908" lon="2.20351">
        <ele>16.4</ele>
        <time>2022-04-11T11:29:37Z</time>
      </trkpt>
      <trkpt lat="49.92908" lon="2.2035">
        <ele>16.4</ele>
        <time>2022-04-11T11:29:38Z</time>
      </trkpt>
      <trkpt lat="49.92909" lon="2.20348">
        <ele>16.4</ele>
        <time>2022-04-11T11:29:39Z</time>
      </trkpt>
      <trkpt lat="49.92909" lon="2.20346">
        <ele>16.4</ele>
        <time>2022-04-11T11:29:40Z</time>
      </trkpt>
      <trkpt lat="49.9291" lon="2.20344">
        <ele>16.4</ele>
        <time>2022-04-11T11:29:42Z</time>
      </trkpt>
      <trkpt lat="49.9291" lon="2.20343">
        <ele>16.4</ele>
        <time>2022-04-11T11:29:43Z</time>
      </trkpt>
      <trkpt lat="49.92911" lon="2.20342">
        <ele>16.4</ele>
        <time>2022-04-11T11:29:44Z</time>
      </trkpt>
      <trkpt lat="49.92911" lon="2.2034">
        <ele>16.4</ele>
        <time>2022-04-11T11:29:45Z</time>
      </trkpt>
      <trkpt lat="49.92911" lon="2.20339">
        <ele>16.4</ele>
        <time>2022-04-11T11:29:46Z</time>
      </trkpt>
      <trkpt lat="49.92912" lon="2.20337">
        <ele>16.4</ele>
        <time>2022-04-11T11:29:47Z</time>
      </trkpt>
      <trkpt lat="49.92912" lon="2.20335">
        <ele>16.4</ele>
        <time>2022-04-11T11:29:48Z</time>
      </trkpt>
      <trkpt lat="49.92913" lon="2.20334">
        <ele>16.3</ele>
        <time>2022-04-11T11:29:49Z</time>
      </trkpt>
      <trkpt lat="49.92913" lon="2.20332">
        <ele>16.3</ele>
        <time>2022-04-11T11:29:50Z</time>
      </trkpt>
      <trkpt lat="49.92914" lon="2.2033">
        <ele>16.3</ele>
        <time>2022-04-11T11:29:51Z</time>
      </trkpt>
      <trkpt lat="49.92915" lon="2.20328">
        <ele>16.3</ele>
        <time>2022-04-11T11:29:52Z</time>
      </trkpt>
      <trkpt lat="49.92915" lon="2.20327">
        <ele>16.3</ele>
        <time>2022-04-11T11:29:53Z</time>
      </trkpt>
      <trkpt lat="49.92916" lon="2.20324">
        <ele>16.3</ele>
        <time>2022-04-11T11:29:55Z</time>
      </trkpt>
      <trkpt lat="49.92917" lon="2.20323">
        <ele>16.3</ele>
        <time>2022-04-11T11:29:56Z</time>
      </trkpt>
      <trkpt lat="49.92917" lon="2.20322">
        <ele>16.3</ele>
        <time>2022-04-11T11:29:57Z</time>
      </trkpt>
      <trkpt lat="49.92918" lon="2.20319">
        <ele>16.3</ele>
        <time>2022-04-11T11:29:58Z</time>
      </trkpt>
      <trkpt lat="49.92918" lon="2.20318">
        <ele>16.3</ele>
        <time>2022-04-11T11:29:59Z</time>
      </trkpt>
      <trkpt lat="49.92919" lon="2.20317">
        <ele>16.3</ele>
        <time>2022-04-11T11:30:00Z</time>
      </trkpt>
      <trkpt lat="49.9292" lon="2.20314">
        <ele>16.3</ele>
        <time>2022-04-11T11:30:02Z</time>
      </trkpt>
      <trkpt lat="49.92921" lon="2.20313">
        <ele>16.3</ele>
        <time>2022-04-11T11:30:03Z</time>
      </trkpt>
      <trkpt lat="49.92921" lon="2.20312">
        <ele>16.3</ele>
        <time>2022-04-11T11:30:04Z</time>
      </trkpt>
      <trkpt lat="49.92922" lon="2.20311">
        <ele>16.3</ele>
        <time>2022-04-11T11:30:05Z</time>
      </trkpt>
      <trkpt lat="49.92923" lon="2.20309">
        <ele>16.3</ele>
        <time>2022-04-11T11:30:06Z</time>
      </trkpt>
      <trkpt lat="49.92924" lon="2.20307">
        <ele>16.3</ele>
        <time>2022-04-11T11:30:07Z</time>
      </trkpt>
      <trkpt lat="49.92925" lon="2.20306">
        <ele>16.3</ele>
        <time>2022-04-11T11:30:08Z</time>
      </trkpt>
      <trkpt lat="49.92926" lon="2.20304">
        <ele>16.3</ele>
        <time>2022-04-11T11:30:09Z</time>
      </trkpt>
      <trkpt lat="49.92927" lon="2.20303">
        <ele>16.3</ele>
        <time>2022-04-11T11:30:10Z</time>
      </trkpt>
      <trkpt lat="49.92928" lon="2.20302">
        <ele>16.3</ele>
        <time>2022-04-11T11:30:11Z</time>
      </trkpt>
      <trkpt lat="49.92929" lon="2.20301">
        <ele>16.3</ele>
        <time>2022-04-11T11:30:12Z</time>
      </trkpt>
      <trkpt lat="49.9293" lon="2.203">
        <ele>16.3</ele>
        <time>2022-04-11T11:30:13Z</time>
      </trkpt>
      <trkpt lat="49.92931" lon="2.20298">
        <ele>16.3</ele>
        <time>2022-04-11T11:30:14Z</time>
      </trkpt>
      <trkpt lat="49.92932" lon="2.20297">
        <ele>16.3</ele>
        <time>2022-04-11T11:30:16Z</time>
      </trkpt>
      <trkpt lat="49.92932" lon="2.20296">
        <ele>16.3</ele>
        <time>2022-04-11T11:30:17Z</time>
      </trkpt>
      <trkpt lat="49.92933" lon="2.20295">
        <ele>16.3</ele>
        <time>2022-04-11T11:30:18Z</time>
      </trkpt>
      <trkpt lat="49.92934" lon="2.20293">
        <ele>16.3</ele>
        <time>2022-04-11T11:30:19Z</time>
      </trkpt>
      <trkpt lat="49.92935" lon="2.20292">
        <ele>16.3</ele>
        <time>2022-04-11T11:30:20Z</time>
      </trkpt>
      <trkpt lat="49.92936" lon="2.20289">
        <ele>16.2</ele>
        <time>2022-04-11T11:30:21Z</time>
      </trkpt>
      <trkpt lat="49.92936" lon="2.20288">
        <ele>16.2</ele>
        <time>2022-04-11T11:30:22Z</time>
      </trkpt>
      <trkpt lat="49.92937" lon="2.20287">
        <ele>16.2</ele>
        <time>2022-04-11T11:30:23Z</time>
      </trkpt>
      <trkpt lat="49.92937" lon="2.20285">
        <ele>16.2</ele>
        <time>2022-04-11T11:30:25Z</time>
      </trkpt>
      <trkpt lat="49.92938" lon="2.20283">
        <ele>16.2</ele>
        <time>2022-04-11T11:30:26Z</time>
      </trkpt>
      <trkpt lat="49.92938" lon="2.20282">
        <ele>16.2</ele>
        <time>2022-04-11T11:30:27Z</time>
      </trkpt>
      <trkpt lat="49.92939" lon="2.20279">
        <ele>16.2</ele>
        <time>2022-04-11T11:30:28Z</time>
      </trkpt>
      <trkpt lat="49.9294" lon="2.20278">
        <ele>16.2</ele>
        <time>2022-04-11T11:30:29Z</time>
      </trkpt>
      <trkpt lat="49.9294" lon="2.20276">
        <ele>16.2</ele>
        <time>2022-04-11T11:30:30Z</time>
      </trkpt>
      <trkpt lat="49.92941" lon="2.20274">
        <ele>16.2</ele>
        <time>2022-04-11T11:30:31Z</time>
      </trkpt>
      <trkpt lat="49.92941" lon="2.20272">
        <ele>16.2</ele>
        <time>2022-04-11T11:30:32Z</time>
      </trkpt>
      <trkpt lat="49.92942" lon="2.2027">
        <ele>16.2</ele>
        <time>2022-04-11T11:30:34Z</time>
      </trkpt>
      <trkpt lat="49.92943" lon="2.20269">
        <ele>16.2</ele>
        <time>2022-04-11T11:30:35Z</time>
      </trkpt>
      <trkpt lat="49.92944" lon="2.20267">
        <ele>16.2</ele>
        <time>2022-04-11T11:30:36Z</time>
      </trkpt>
      <trkpt lat="49.92945" lon="2.20265">
        <ele>16.2</ele>
        <time>2022-04-11T11:30:37Z</time>
      </trkpt>
      <trkpt lat="49.92946" lon="2.20262">
        <ele>16.2</ele>
        <time>2022-04-11T11:30:38Z</time>
      </trkpt>
      <trkpt lat="49.92947" lon="2.20261">
        <ele>16.2</ele>
        <time>2022-04-11T11:30:39Z</time>
      </trkpt>
      <trkpt lat="49.92947" lon="2.2026">
        <ele>16.1</ele>
        <time>2022-04-11T11:30:40Z</time>
      </trkpt>
      <trkpt lat="49.92948" lon="2.20258">
        <ele>16.1</ele>
        <time>2022-04-11T11:30:41Z</time>
      </trkpt>
      <trkpt lat="49.92949" lon="2.20256">
        <ele>16.1</ele>
        <time>2022-04-11T11:30:42Z</time>
      </trkpt>
      <trkpt lat="49.92949" lon="2.20253">
        <ele>16.1</ele>
        <time>2022-04-11T11:30:43Z</time>
      </trkpt>
      <trkpt lat="49.9295" lon="2.20252">
        <ele>16.1</ele>
        <time>2022-04-11T11:30:45Z</time>
      </trkpt>
      <trkpt lat="49.9295" lon="2.20251">
        <ele>16.1</ele>
        <time>2022-04-11T11:30:46Z</time>
      </trkpt>
      <trkpt lat="49.92951" lon="2.20249">
        <ele>16.1</ele>
        <time>2022-04-11T11:30:47Z</time>
      </trkpt>
      <trkpt lat="49.92951" lon="2.20248">
        <ele>16.1</ele>
        <time>2022-04-11T11:30:48Z</time>
      </trkpt>
      <trkpt lat="49.92952" lon="2.20247">
        <ele>16.1</ele>
        <time>2022-04-11T11:30:49Z</time>
      </trkpt>
      <trkpt lat="49.92953" lon="2.20245">
        <ele>16.1</ele>
        <time>2022-04-11T11:30:50Z</time>
      </trkpt>
      <trkpt lat="49.92953" lon="2.20244">
        <ele>16.1</ele>
        <time>2022-04-11T11:30:51Z</time>
      </trkpt>
      <trkpt lat="49.92954" lon="2.20242">
        <ele>16.1</ele>
        <time>2022-04-11T11:30:52Z</time>
      </trkpt>
      <trkpt lat="49.92955" lon="2.2024">
        <ele>16.1</ele>
        <time>2022-04-11T11:30:53Z</time>
      </trkpt>
      <trkpt lat="49.92956" lon="2.20239">
        <ele>16.1</ele>
        <time>2022-04-11T11:30:54Z</time>
      </trkpt>
      <trkpt lat="49.92956" lon="2.20237">
        <ele>16.1</ele>
        <time>2022-04-11T11:30:56Z</time>
      </trkpt>
      <trkpt lat="49.92957" lon="2.20236">
        <ele>16.1</ele>
        <time>2022-04-11T11:30:57Z</time>
      </trkpt>
      <trkpt lat="49.92957" lon="2.20234">
        <ele>16.1</ele>
        <time>2022-04-11T11:30:58Z</time>
      </trkpt>
      <trkpt lat="49.92958" lon="2.20232">
        <ele>16.1</ele>
        <time>2022-04-11T11:30:59Z</time>
      </trkpt>
      <trkpt lat="49.92959" lon="2.20231">
        <ele>16.1</ele>
        <time>2022-04-11T11:31:00Z</time>
      </trkpt>
      <trkpt lat="49.92959" lon="2.2023">
        <ele>16.1</ele>
        <time>2022-04-11T11:31:01Z</time>
      </trkpt>
      <trkpt lat="49.92959" lon="2.20229">
        <ele>16.1</ele>
        <time>2022-04-11T11:31:02Z</time>
      </trkpt>
      <trkpt lat="49.9296" lon="2.20227">
        <ele>16.1</ele>
        <time>2022-04-11T11:31:03Z</time>
      </trkpt>
      <trkpt lat="49.92961" lon="2.20226">
        <ele>16.1</ele>
        <time>2022-04-11T11:31:05Z</time>
      </trkpt>
      <trkpt lat="49.92961" lon="2.20224">
        <ele>16.1</ele>
        <time>2022-04-11T11:31:06Z</time>
      </trkpt>
      <trkpt lat="49.92961" lon="2.20223">
        <ele>16.1</ele>
        <time>2022-04-11T11:31:07Z</time>
      </trkpt>
      <trkpt lat="49.92962" lon="2.20222">
        <ele>16.1</ele>
        <time>2022-04-11T11:31:08Z</time>
      </trkpt>
      <trkpt lat="49.92962" lon="2.2022">
        <ele>16.1</ele>
        <time>2022-04-11T11:31:09Z</time>
      </trkpt>
      <trkpt lat="49.92962" lon="2.20219">
        <ele>16.1</ele>
        <time>2022-04-11T11:31:10Z</time>
      </trkpt>
      <trkpt lat="49.92963" lon="2.20217">
        <ele>16.1</ele>
        <time>2022-04-11T11:31:11Z</time>
      </trkpt>
      <trkpt lat="49.92963" lon="2.20216">
        <ele>16.1</ele>
        <time>2022-04-11T11:31:12Z</time>
      </trkpt>
      <trkpt lat="49.92964" lon="2.20215">
        <ele>16.1</ele>
        <time>2022-04-11T11:31:13Z</time>
      </trkpt>
      <trkpt lat="49.92964" lon="2.20213">
        <ele>16.1</ele>
        <time>2022-04-11T11:31:15Z</time>
      </trkpt>
      <trkpt lat="49.92965" lon="2.20212">
        <ele>16.1</ele>
        <time>2022-04-11T11:31:16Z</time>
      </trkpt>
      <trkpt lat="49.92965" lon="2.2021">
        <ele>16.1</ele>
        <time>2022-04-11T11:31:17Z</time>
      </trkpt>
      <trkpt lat="49.92966" lon="2.20209">
        <ele>16.1</ele>
        <time>2022-04-11T11:31:18Z</time>
      </trkpt>
      <trkpt lat="49.92967" lon="2.20206">
        <ele>16.2</ele>
        <time>2022-04-11T11:31:19Z</time>
      </trkpt>
      <trkpt lat="49.92967" lon="2.20205">
        <ele>16.2</ele>
        <time>2022-04-11T11:31:20Z</time>
      </trkpt>
      <trkpt lat="49.92967" lon="2.20203">
        <ele>16.2</ele>
        <time>2022-04-11T11:31:21Z</time>
      </trkpt>
      <trkpt lat="49.92968" lon="2.20201">
        <ele>16.2</ele>
        <time>2022-04-11T11:31:22Z</time>
      </trkpt>
      <trkpt lat="49.92968" lon="2.202">
        <ele>16.2</ele>
        <time>2022-04-11T11:31:23Z</time>
      </trkpt>
      <trkpt lat="49.92969" lon="2.20198">
        <ele>16.2</ele>
        <time>2022-04-11T11:31:25Z</time>
      </trkpt>
      <trkpt lat="49.9297" lon="2.20196">
        <ele>16.2</ele>
        <time>2022-04-11T11:31:26Z</time>
      </trkpt>
      <trkpt lat="49.9297" lon="2.20194">
        <ele>16.2</ele>
        <time>2022-04-11T11:31:27Z</time>
      </trkpt>
      <trkpt lat="49.92971" lon="2.20193">
        <ele>16.2</ele>
        <time>2022-04-11T11:31:28Z</time>
      </trkpt>
      <trkpt lat="49.92972" lon="2.2019">
        <ele>16.2</ele>
        <time>2022-04-11T11:31:30Z</time>
      </trkpt>
      <trkpt lat="49.92973" lon="2.20188">
        <ele>16.2</ele>
        <time>2022-04-11T11:31:31Z</time>
      </trkpt>
      <trkpt lat="49.92973" lon="2.20186">
        <ele>16.2</ele>
        <time>2022-04-11T11:31:32Z</time>
      </trkpt>
      <trkpt lat="49.92974" lon="2.20185">
        <ele>16.2</ele>
        <time>2022-04-11T11:31:33Z</time>
      </trkpt>
      <trkpt lat="49.92975" lon="2.20183">
        <ele>16.2</ele>
        <time>2022-04-11T11:31:34Z</time>
      </trkpt>
      <trkpt lat="49.92977" lon="2.20181">
        <ele>16.2</ele>
        <time>2022-04-11T11:31:35Z</time>
      </trkpt>
      <trkpt lat="49.92978" lon="2.2018">
        <ele>16.2</ele>
        <time>2022-04-11T11:31:36Z</time>
      </trkpt>
      <trkpt lat="49.92978" lon="2.20179">
        <ele>16.2</ele>
        <time>2022-04-11T11:31:37Z</time>
      </trkpt>
      <trkpt lat="49.92979" lon="2.20177">
        <ele>16.3</ele>
        <time>2022-04-11T11:31:39Z</time>
      </trkpt>
      <trkpt lat="49.9298" lon="2.20176">
        <ele>16.3</ele>
        <time>2022-04-11T11:31:40Z</time>
      </trkpt>
      <trkpt lat="49.92981" lon="2.20173">
        <ele>16.3</ele>
        <time>2022-04-11T11:31:41Z</time>
      </trkpt>
      <trkpt lat="49.92982" lon="2.20172">
        <ele>16.3</ele>
        <time>2022-04-11T11:31:42Z</time>
      </trkpt>
      <trkpt lat="49.92982" lon="2.20171">
        <ele>16.3</ele>
        <time>2022-04-11T11:31:43Z</time>
      </trkpt>
      <trkpt lat="49.92983" lon="2.20169">
        <ele>16.3</ele>
        <time>2022-04-11T11:31:44Z</time>
      </trkpt>
      <trkpt lat="49.92983" lon="2.20169">
        <ele>16.3</ele>
        <time>2022-04-11T11:31:46Z</time>
      </trkpt>
      <trkpt lat="49.92984" lon="2.20168">
        <ele>16.3</ele>
        <time>2022-04-11T11:31:47Z</time>
      </trkpt>
      <trkpt lat="49.92985" lon="2.20167">
        <ele>16.4</ele>
        <time>2022-04-11T11:31:48Z</time>
      </trkpt>
      <trkpt lat="49.92986" lon="2.20166">
        <ele>16.4</ele>
        <time>2022-04-11T11:31:49Z</time>
      </trkpt>
      <trkpt lat="49.92986" lon="2.20165">
        <ele>16.4</ele>
        <time>2022-04-11T11:31:50Z</time>
      </trkpt>
      <trkpt lat="49.92987" lon="2.20164">
        <ele>16.4</ele>
        <time>2022-04-11T11:31:52Z</time>
      </trkpt>
      <trkpt lat="49.92988" lon="2.20164">
        <ele>16.4</ele>
        <time>2022-04-11T11:31:53Z</time>
      </trkpt>
      <trkpt lat="49.92988" lon="2.20164">
        <ele>16.4</ele>
        <time>2022-04-11T11:31:54Z</time>
      </trkpt>
      <trkpt lat="49.92989" lon="2.20164">
        <ele>16.4</ele>
        <time>2022-04-11T11:31:55Z</time>
      </trkpt>
      <trkpt lat="49.92989" lon="2.20164">
        <ele>16.4</ele>
        <time>2022-04-11T11:31:56Z</time>
      </trkpt>
      <trkpt lat="49.9299" lon="2.20163">
        <ele>16.4</ele>
        <time>2022-04-11T11:31:57Z</time>
      </trkpt>
      <trkpt lat="49.9299" lon="2.20164">
        <ele>16.4</ele>
        <time>2022-04-11T11:31:58Z</time>
      </trkpt>
      <trkpt lat="49.9299" lon="2.20163">
        <ele>16.5</ele>
        <time>2022-04-11T11:32:00Z</time>
      </trkpt>
      <trkpt lat="49.92991" lon="2.20164">
        <ele>16.5</ele>
        <time>2022-04-11T11:32:01Z</time>
      </trkpt>
      <trkpt lat="49.92991" lon="2.20164">
        <ele>16.5</ele>
        <time>2022-04-11T11:32:03Z</time>
      </trkpt>
      <trkpt lat="49.92992" lon="2.20164">
        <ele>16.5</ele>
        <time>2022-04-11T11:32:04Z</time>
      </trkpt>
      <trkpt lat="49.92992" lon="2.20165">
        <ele>16.5</ele>
        <time>2022-04-11T11:32:05Z</time>
      </trkpt>
      <trkpt lat="49.92992" lon="2.20166">
        <ele>16.5</ele>
        <time>2022-04-11T11:32:06Z</time>
      </trkpt>
      <trkpt lat="49.92992" lon="2.20166">
        <ele>16.5</ele>
        <time>2022-04-11T11:32:07Z</time>
      </trkpt>
      <trkpt lat="49.92992" lon="2.20167">
        <ele>16.5</ele>
        <time>2022-04-11T11:32:08Z</time>
      </trkpt>
      <trkpt lat="49.92992" lon="2.20167">
        <ele>16.5</ele>
        <time>2022-04-11T11:32:09Z</time>
      </trkpt>
      <trkpt lat="49.92992" lon="2.20167">
        <ele>16.6</ele>
        <time>2022-04-11T11:32:10Z</time>
      </trkpt>
      <trkpt lat="49.92991" lon="2.20168">
        <ele>16.6</ele>
        <time>2022-04-11T11:32:11Z</time>
      </trkpt>
      <trkpt lat="49.92991" lon="2.20168">
        <ele>16.6</ele>
        <time>2022-04-11T11:32:12Z</time>
      </trkpt>
      <trkpt lat="49.92991" lon="2.20168">
        <ele>16.6</ele>
        <time>2022-04-11T11:32:13Z</time>
      </trkpt>
      <trkpt lat="49.92991" lon="2.20168">
        <ele>16.6</ele>
        <time>2022-04-11T11:32:14Z</time>
      </trkpt>
      <trkpt lat="49.92991" lon="2.20168">
        <ele>16.6</ele>
        <time>2022-04-11T11:32:15Z</time>
      </trkpt>
      <trkpt lat="49.92991" lon="2.20168">
        <ele>16.6</ele>
        <time>2022-04-11T11:32:16Z</time>
      </trkpt>
      <trkpt lat="49.9299" lon="2.20168">
        <ele>16.6</ele>
        <time>2022-04-11T11:32:17Z</time>
      </trkpt>
      <trkpt lat="49.9299" lon="2.20168">
        <ele>16.6</ele>
        <time>2022-04-11T11:32:18Z</time>
      </trkpt>
      <trkpt lat="49.9299" lon="2.20168">
        <ele>16.6</ele>
        <time>2022-04-11T11:32:19Z</time>
      </trkpt>
      <trkpt lat="49.9299" lon="2.20168">
        <ele>16.6</ele>
        <time>2022-04-11T11:32:20Z</time>
      </trkpt>
      <trkpt lat="49.9299" lon="2.20168">
        <ele>16.6</ele>
        <time>2022-04-11T11:32:21Z</time>
      </trkpt>
      <trkpt lat="49.9299" lon="2.20168">
        <ele>16.6</ele>
        <time>2022-04-11T11:32:22Z</time>
      </trkpt>
      <trkpt lat="49.9299" lon="2.20168">
        <ele>16.6</ele>
        <time>2022-04-11T11:32:23Z</time>
      </trkpt>
      <trkpt lat="49.9299" lon="2.20168">
        <ele>16.6</ele>
        <time>2022-04-11T11:32:24Z</time>
      </trkpt>
      <trkpt lat="49.92989" lon="2.20168">
        <ele>16.6</ele>
        <time>2022-04-11T11:32:25Z</time>
      </trkpt>
      <trkpt lat="49.92989" lon="2.20168">
        <ele>16.6</ele>
        <time>2022-04-11T11:32:26Z</time>
      </trkpt>
      <trkpt lat="49.92989" lon="2.20168">
        <ele>16.6</ele>
        <time>2022-04-11T11:32:27Z</time>
      </trkpt>
      <trkpt lat="49.92989" lon="2.20168">
        <ele>16.6</ele>
        <time>2022-04-11T11:32:28Z</time>
      </trkpt>
      <trkpt lat="49.92989" lon="2.20168">
        <ele>16.6</ele>
        <time>2022-04-11T11:32:29Z</time>
      </trkpt>
      <trkpt lat="49.92989" lon="2.20168">
        <ele>16.6</ele>
        <time>2022-04-11T11:32:30Z</time>
      </trkpt>
      <trkpt lat="49.92989" lon="2.20168">
        <ele>16.6</ele>
        <time>2022-04-11T11:32:31Z</time>
      </trkpt>
      <trkpt lat="49.92988" lon="2.20168">
        <ele>16.6</ele>
        <time>2022-04-11T11:32:32Z</time>
      </trkpt>
      <trkpt lat="49.92988" lon="2.20168">
        <ele>16.7</ele>
        <time>2022-04-11T11:32:33Z</time>
      </trkpt>
      <trkpt lat="49.92988" lon="2.20167">
        <ele>16.7</ele>
        <time>2022-04-11T11:32:34Z</time>
      </trkpt>
      <trkpt lat="49.92988" lon="2.20167">
        <ele>16.7</ele>
        <time>2022-04-11T11:32:35Z</time>
      </trkpt>
      <trkpt lat="49.92988" lon="2.20167">
        <ele>16.7</ele>
        <time>2022-04-11T11:32:36Z</time>
      </trkpt>
      <trkpt lat="49.92988" lon="2.20167">
        <ele>16.7</ele>
        <time>2022-04-11T11:32:37Z</time>
      </trkpt>
      <trkpt lat="49.92988" lon="2.20167">
        <ele>16.7</ele>
        <time>2022-04-11T11:32:38Z</time>
      </trkpt>
      <trkpt lat="49.92987" lon="2.20167">
        <ele>16.7</ele>
        <time>2022-04-11T11:32:39Z</time>
      </trkpt>
      <trkpt lat="49.92987" lon="2.20167">
        <ele>16.7</ele>
        <time>2022-04-11T11:32:40Z</time>
      </trkpt>
      <trkpt lat="49.92987" lon="2.20167">
        <ele>16.7</ele>
        <time>2022-04-11T11:32:41Z</time>
      </trkpt>
      <trkpt lat="49.92987" lon="2.20167">
        <ele>16.7</ele>
        <time>2022-04-11T11:32:42Z</time>
      </trkpt>
      <trkpt lat="49.92987" lon="2.20167">
        <ele>16.7</ele>
        <time>2022-04-11T11:32:43Z</time>
      </trkpt>
      <trkpt lat="49.92987" lon="2.20167">
        <ele>16.7</ele>
        <time>2022-04-11T11:32:44Z</time>
      </trkpt>
      <trkpt lat="49.92987" lon="2.20167">
        <ele>16.7</ele>
        <time>2022-04-11T11:32:45Z</time>
      </trkpt>
      <trkpt lat="49.92987" lon="2.20167">
        <ele>16.7</ele>
        <time>2022-04-11T11:32:46Z</time>
      </trkpt>
      <trkpt lat="49.92986" lon="2.20167">
        <ele>16.7</ele>
        <time>2022-04-11T11:32:47Z</time>
      </trkpt>
      <trkpt lat="49.92986" lon="2.20167">
        <ele>16.7</ele>
        <time>2022-04-11T11:32:48Z</time>
      </trkpt>
      <trkpt lat="49.92984" lon="2.20165">
        <ele>16.8</ele>
        <time>2022-04-11T11:32:49Z</time>
      </trkpt>
      <trkpt lat="49.92984" lon="2.20164">
        <ele>16.8</ele>
        <time>2022-04-11T11:32:50Z</time>
      </trkpt>
      <trkpt lat="49.92984" lon="2.20162">
        <ele>16.9</ele>
        <time>2022-04-11T11:32:51Z</time>
      </trkpt>
      <trkpt lat="49.92984" lon="2.20161">
        <ele>16.9</ele>
        <time>2022-04-11T11:32:52Z</time>
      </trkpt>
      <trkpt lat="49.92985" lon="2.2016">
        <ele>16.9</ele>
        <time>2022-04-11T11:32:53Z</time>
      </trkpt>
      <trkpt lat="49.92985" lon="2.2016">
        <ele>16.9</ele>
        <time>2022-04-11T11:32:54Z</time>
      </trkpt>
      <trkpt lat="49.92986" lon="2.20158">
        <ele>17</ele>
        <time>2022-04-11T11:32:55Z</time>
      </trkpt>
      <trkpt lat="49.92987" lon="2.20157">
        <ele>17</ele>
        <time>2022-04-11T11:32:56Z</time>
      </trkpt>
      <trkpt lat="49.92988" lon="2.20157">
        <ele>17.1</ele>
        <time>2022-04-11T11:32:57Z</time>
      </trkpt>
      <trkpt lat="49.92988" lon="2.20156">
        <ele>17.1</ele>
        <time>2022-04-11T11:32:59Z</time>
      </trkpt>
      <trkpt lat="49.9299" lon="2.20155">
        <ele>17.2</ele>
        <time>2022-04-11T11:33:00Z</time>
      </trkpt>
      <trkpt lat="49.92991" lon="2.20154">
        <ele>17.2</ele>
        <time>2022-04-11T11:33:01Z</time>
      </trkpt>
      <trkpt lat="49.92992" lon="2.20153">
        <ele>17.3</ele>
        <time>2022-04-11T11:33:03Z</time>
      </trkpt>
      <trkpt lat="49.92994" lon="2.20152">
        <ele>17.3</ele>
        <time>2022-04-11T11:33:04Z</time>
      </trkpt>
      <trkpt lat="49.92995" lon="2.20151">
        <ele>17.3</ele>
        <time>2022-04-11T11:33:06Z</time>
      </trkpt>
      <trkpt lat="49.92995" lon="2.20151">
        <ele>17.3</ele>
        <time>2022-04-11T11:33:07Z</time>
      </trkpt>
      <trkpt lat="49.92997" lon="2.2015">
        <ele>17.3</ele>
        <time>2022-04-11T11:33:09Z</time>
      </trkpt>
      <trkpt lat="49.92997" lon="2.20149">
        <ele>17.3</ele>
        <time>2022-04-11T11:33:10Z</time>
      </trkpt>
      <trkpt lat="49.92998" lon="2.20149">
        <ele>17.3</ele>
        <time>2022-04-11T11:33:11Z</time>
      </trkpt>
      <trkpt lat="49.92999" lon="2.2015">
        <ele>17.3</ele>
        <time>2022-04-11T11:33:12Z</time>
      </trkpt>
      <trkpt lat="49.93" lon="2.20151">
        <ele>17.3</ele>
        <time>2022-04-11T11:33:13Z</time>
      </trkpt>
      <trkpt lat="49.93" lon="2.20152">
        <ele>17.3</ele>
        <time>2022-04-11T11:33:14Z</time>
      </trkpt>
      <trkpt lat="49.93" lon="2.20152">
        <ele>17.3</ele>
        <time>2022-04-11T11:33:15Z</time>
      </trkpt>
      <trkpt lat="49.93" lon="2.20153">
        <ele>17.3</ele>
        <time>2022-04-11T11:33:16Z</time>
      </trkpt>
      <trkpt lat="49.93" lon="2.20153">
        <ele>17.3</ele>
        <time>2022-04-11T11:33:17Z</time>
      </trkpt>
      <trkpt lat="49.93" lon="2.20154">
        <ele>17.3</ele>
        <time>2022-04-11T11:33:18Z</time>
      </trkpt>
      <trkpt lat="49.93" lon="2.20154">
        <ele>17.3</ele>
        <time>2022-04-11T11:33:19Z</time>
      </trkpt>
      <trkpt lat="49.92999" lon="2.20155">
        <ele>17.3</ele>
        <time>2022-04-11T11:33:20Z</time>
      </trkpt>
      <trkpt lat="49.92999" lon="2.20155">
        <ele>17.3</ele>
        <time>2022-04-11T11:33:21Z</time>
      </trkpt>
      <trkpt lat="49.92998" lon="2.20155">
        <ele>17.3</ele>
        <time>2022-04-11T11:33:22Z</time>
      </trkpt>
      <trkpt lat="49.92998" lon="2.20155">
        <ele>17.3</ele>
        <time>2022-04-11T11:33:23Z</time>
      </trkpt>
      <trkpt lat="49.92997" lon="2.20155">
        <ele>17.3</ele>
        <time>2022-04-11T11:33:24Z</time>
      </trkpt>
      <trkpt lat="49.92996" lon="2.20154">
        <ele>17.3</ele>
        <time>2022-04-11T11:33:25Z</time>
      </trkpt>
      <trkpt lat="49.92996" lon="2.20154">
        <ele>17.3</ele>
        <time>2022-04-11T11:33:26Z</time>
      </trkpt>
      <trkpt lat="49.92996" lon="2.20153">
        <ele>17.3</ele>
        <time>2022-04-11T11:33:27Z</time>
      </trkpt>
      <trkpt lat="49.92996" lon="2.20153">
        <ele>17.3</ele>
        <time>2022-04-11T11:33:28Z</time>
      </trkpt>
      <trkpt lat="49.92995" lon="2.20152">
        <ele>17.3</ele>
        <time>2022-04-11T11:33:29Z</time>
      </trkpt>
      <trkpt lat="49.92994" lon="2.20152">
        <ele>17.3</ele>
        <time>2022-04-11T11:33:30Z</time>
      </trkpt>
      <trkpt lat="49.92993" lon="2.20152">
        <ele>17.3</ele>
        <time>2022-04-11T11:33:31Z</time>
      </trkpt>
      <trkpt lat="49.92993" lon="2.20152">
        <ele>17.3</ele>
        <time>2022-04-11T11:33:32Z</time>
      </trkpt>
      <trkpt lat="49.92993" lon="2.20152">
        <ele>17.3</ele>
        <time>2022-04-11T11:33:33Z</time>
      </trkpt>
      <trkpt lat="49.92993" lon="2.20152">
        <ele>17.3</ele>
        <time>2022-04-11T11:33:34Z</time>
      </trkpt>
      <trkpt lat="49.92992" lon="2.20152">
        <ele>17.3</ele>
        <time>2022-04-11T11:33:35Z</time>
      </trkpt>
      <trkpt lat="49.92992" lon="2.20152">
        <ele>17.3</ele>
        <time>2022-04-11T11:33:36Z</time>
      </trkpt>
      <trkpt lat="49.92992" lon="2.20152">
        <ele>17.3</ele>
        <time>2022-04-11T11:33:37Z</time>
      </trkpt>
      <trkpt lat="49.92992" lon="2.20152">
        <ele>17.3</ele>
        <time>2022-04-11T11:33:38Z</time>
      </trkpt>
      <trkpt lat="49.92992" lon="2.20152">
        <ele>17.3</ele>
        <time>2022-04-11T11:33:39Z</time>
      </trkpt>
      <trkpt lat="49.92992" lon="2.20152">
        <ele>17.3</ele>
        <time>2022-04-11T11:33:40Z</time>
      </trkpt>
      <trkpt lat="49.92992" lon="2.20152">
        <ele>17.3</ele>
        <time>2022-04-11T11:33:41Z</time>
      </trkpt>
      <trkpt lat="49.92992" lon="2.20152">
        <ele>17.3</ele>
        <time>2022-04-11T11:33:42Z</time>
      </trkpt>
      <trkpt lat="49.92992" lon="2.20152">
        <ele>17.3</ele>
        <time>2022-04-11T11:33:43Z</time>
      </trkpt>
      <trkpt lat="49.92992" lon="2.20152">
        <ele>17.3</ele>
        <time>2022-04-11T11:33:44Z</time>
      </trkpt>
      <trkpt lat="49.92992" lon="2.20152">
        <ele>17.3</ele>
        <time>2022-04-11T11:33:45Z</time>
      </trkpt>
      <trkpt lat="49.92992" lon="2.20152">
        <ele>17.3</ele>
        <time>2022-04-11T11:33:46Z</time>
      </trkpt>
      <trkpt lat="49.92992" lon="2.20152">
        <ele>17.3</ele>
        <time>2022-04-11T11:33:47Z</time>
      </trkpt>
      <trkpt lat="49.92992" lon="2.20152">
        <ele>17.3</ele>
        <time>2022-04-11T11:33:48Z</time>
      </trkpt>
      <trkpt lat="49.92992" lon="2.20152">
        <ele>17.3</ele>
        <time>2022-04-11T11:33:49Z</time>
      </trkpt>
      <trkpt lat="49.92992" lon="2.20152">
        <ele>17.3</ele>
        <time>2022-04-11T11:33:50Z</time>
      </trkpt>
      <trkpt lat="49.92992" lon="2.20153">
        <ele>17.3</ele>
        <time>2022-04-11T11:33:51Z</time>
      </trkpt>
      <trkpt lat="49.9299" lon="2.20153">
        <ele>17.3</ele>
        <time>2022-04-11T11:33:52Z</time>
      </trkpt>
      <trkpt lat="49.9299" lon="2.20153">
        <ele>17.3</ele>
        <time>2022-04-11T11:33:53Z</time>
      </trkpt>
      <trkpt lat="49.9299" lon="2.20153">
        <ele>17.3</ele>
        <time>2022-04-11T11:33:54Z</time>
      </trkpt>
      <trkpt lat="49.92991" lon="2.2015">
        <ele>17.3</ele>
        <time>2022-04-11T11:33:55Z</time>
      </trkpt>
      <trkpt lat="49.92991" lon="2.20149">
        <ele>17.3</ele>
        <time>2022-04-11T11:33:56Z</time>
      </trkpt>
      <trkpt lat="49.92991" lon="2.20148">
        <ele>17.3</ele>
        <time>2022-04-11T11:33:57Z</time>
      </trkpt>
      <trkpt lat="49.92992" lon="2.20147">
        <ele>17.3</ele>
        <time>2022-04-11T11:33:58Z</time>
      </trkpt>
      <trkpt lat="49.92994" lon="2.20146">
        <ele>17.3</ele>
        <time>2022-04-11T11:33:59Z</time>
      </trkpt>
      <trkpt lat="49.92995" lon="2.20146">
        <ele>17.3</ele>
        <time>2022-04-11T11:34:01Z</time>
      </trkpt>
      <trkpt lat="49.92996" lon="2.20145">
        <ele>17.3</ele>
        <time>2022-04-11T11:34:02Z</time>
      </trkpt>
      <trkpt lat="49.92998" lon="2.20144">
        <ele>17.3</ele>
        <time>2022-04-11T11:34:03Z</time>
      </trkpt>
      <trkpt lat="49.92999" lon="2.20145">
        <ele>17.3</ele>
        <time>2022-04-11T11:34:04Z</time>
      </trkpt>
      <trkpt lat="49.93001" lon="2.20147">
        <ele>17.3</ele>
        <time>2022-04-11T11:34:05Z</time>
      </trkpt>
      <trkpt lat="49.93002" lon="2.20149">
        <ele>17</ele>
        <time>2022-04-11T11:34:07Z</time>
      </trkpt>
      <trkpt lat="49.93002" lon="2.2015">
        <ele>17</ele>
        <time>2022-04-11T11:34:08Z</time>
      </trkpt>
      <trkpt lat="49.93003" lon="2.20151">
        <ele>17</ele>
        <time>2022-04-11T11:34:09Z</time>
      </trkpt>
      <trkpt lat="49.93003" lon="2.20152">
        <ele>16.9</ele>
        <time>2022-04-11T11:34:10Z</time>
      </trkpt>
      <trkpt lat="49.93003" lon="2.20154">
        <ele>16.9</ele>
        <time>2022-04-11T11:34:11Z</time>
      </trkpt>
      <trkpt lat="49.93003" lon="2.20155">
        <ele>16.9</ele>
        <time>2022-04-11T11:34:12Z</time>
      </trkpt>
      <trkpt lat="49.93003" lon="2.20156">
        <ele>16.8</ele>
        <time>2022-04-11T11:34:13Z</time>
      </trkpt>
      <trkpt lat="49.93004" lon="2.20158">
        <ele>16.8</ele>
        <time>2022-04-11T11:34:14Z</time>
      </trkpt>
      <trkpt lat="49.93005" lon="2.20159">
        <ele>16.7</ele>
        <time>2022-04-11T11:34:15Z</time>
      </trkpt>
      <trkpt lat="49.93006" lon="2.20161">
        <ele>16.7</ele>
        <time>2022-04-11T11:34:17Z</time>
      </trkpt>
      <trkpt lat="49.93007" lon="2.20163">
        <ele>16.6</ele>
        <time>2022-04-11T11:34:18Z</time>
      </trkpt>
      <trkpt lat="49.93008" lon="2.20164">
        <ele>16.6</ele>
        <time>2022-04-11T11:34:19Z</time>
      </trkpt>
      <trkpt lat="49.93009" lon="2.20165">
        <ele>16.6</ele>
        <time>2022-04-11T11:34:20Z</time>
      </trkpt>
      <trkpt lat="49.93009" lon="2.20166">
        <ele>16.5</ele>
        <time>2022-04-11T11:34:21Z</time>
      </trkpt>
      <trkpt lat="49.9301" lon="2.2017">
        <ele>16.4</ele>
        <time>2022-04-11T11:34:22Z</time>
      </trkpt>
      <trkpt lat="49.93011" lon="2.20172">
        <ele>16.4</ele>
        <time>2022-04-11T11:34:24Z</time>
      </trkpt>
      <trkpt lat="49.93012" lon="2.20174">
        <ele>16.4</ele>
        <time>2022-04-11T11:34:25Z</time>
      </trkpt>
      <trkpt lat="49.93012" lon="2.20175">
        <ele>16.3</ele>
        <time>2022-04-11T11:34:26Z</time>
      </trkpt>
      <trkpt lat="49.93013" lon="2.20177">
        <ele>16.3</ele>
        <time>2022-04-11T11:34:27Z</time>
      </trkpt>
      <trkpt lat="49.93015" lon="2.20181">
        <ele>16.2</ele>
        <time>2022-04-11T11:34:28Z</time>
      </trkpt>
      <trkpt lat="49.93015" lon="2.20182">
        <ele>16.2</ele>
        <time>2022-04-11T11:34:29Z</time>
      </trkpt>
      <trkpt lat="49.93016" lon="2.20184">
        <ele>16.1</ele>
        <time>2022-04-11T11:34:30Z</time>
      </trkpt>
      <trkpt lat="49.93017" lon="2.20187">
        <ele>16.1</ele>
        <time>2022-04-11T11:34:31Z</time>
      </trkpt>
      <trkpt lat="49.93018" lon="2.20189">
        <ele>16</ele>
        <time>2022-04-11T11:34:32Z</time>
      </trkpt>
      <trkpt lat="49.9302" lon="2.2019">
        <ele>16</ele>
        <time>2022-04-11T11:34:34Z</time>
      </trkpt>
      <trkpt lat="49.93021" lon="2.20192">
        <ele>15.9</ele>
        <time>2022-04-11T11:34:35Z</time>
      </trkpt>
      <trkpt lat="49.93022" lon="2.20194">
        <ele>15.9</ele>
        <time>2022-04-11T11:34:36Z</time>
      </trkpt>
      <trkpt lat="49.93022" lon="2.20196">
        <ele>15.9</ele>
        <time>2022-04-11T11:34:37Z</time>
      </trkpt>
      <trkpt lat="49.93023" lon="2.20198">
        <ele>15.9</ele>
        <time>2022-04-11T11:34:38Z</time>
      </trkpt>
      <trkpt lat="49.93025" lon="2.20202">
        <ele>15.8</ele>
        <time>2022-04-11T11:34:39Z</time>
      </trkpt>
      <trkpt lat="49.93025" lon="2.20203">
        <ele>15.8</ele>
        <time>2022-04-11T11:34:40Z</time>
      </trkpt>
      <trkpt lat="49.93026" lon="2.20205">
        <ele>15.7</ele>
        <time>2022-04-11T11:34:41Z</time>
      </trkpt>
      <trkpt lat="49.93027" lon="2.20206">
        <ele>15.7</ele>
        <time>2022-04-11T11:34:42Z</time>
      </trkpt>
      <trkpt lat="49.93029" lon="2.20208">
        <ele>15.7</ele>
        <time>2022-04-11T11:34:43Z</time>
      </trkpt>
      <trkpt lat="49.9303" lon="2.20209">
        <ele>15.7</ele>
        <time>2022-04-11T11:34:44Z</time>
      </trkpt>
      <trkpt lat="49.9303" lon="2.2021">
        <ele>15.7</ele>
        <time>2022-04-11T11:34:45Z</time>
      </trkpt>
      <trkpt lat="49.93031" lon="2.20211">
        <ele>15.6</ele>
        <time>2022-04-11T11:34:46Z</time>
      </trkpt>
      <trkpt lat="49.93033" lon="2.20212">
        <ele>15.6</ele>
        <time>2022-04-11T11:34:48Z</time>
      </trkpt>
      <trkpt lat="49.93033" lon="2.20214">
        <ele>15.6</ele>
        <time>2022-04-11T11:34:49Z</time>
      </trkpt>
      <trkpt lat="49.93034" lon="2.20215">
        <ele>15.6</ele>
        <time>2022-04-11T11:34:50Z</time>
      </trkpt>
      <trkpt lat="49.93035" lon="2.20216">
        <ele>15.6</ele>
        <time>2022-04-11T11:34:51Z</time>
      </trkpt>
      <trkpt lat="49.93036" lon="2.20218">
        <ele>15.5</ele>
        <time>2022-04-11T11:34:52Z</time>
      </trkpt>
      <trkpt lat="49.93037" lon="2.2022">
        <ele>15.5</ele>
        <time>2022-04-11T11:34:53Z</time>
      </trkpt>
      <trkpt lat="49.93038" lon="2.20222">
        <ele>15.5</ele>
        <time>2022-04-11T11:34:54Z</time>
      </trkpt>
      <trkpt lat="49.93039" lon="2.20223">
        <ele>15.5</ele>
        <time>2022-04-11T11:34:55Z</time>
      </trkpt>
      <trkpt lat="49.9304" lon="2.20225">
        <ele>15.4</ele>
        <time>2022-04-11T11:34:57Z</time>
      </trkpt>
      <trkpt lat="49.9304" lon="2.20226">
        <ele>15.4</ele>
        <time>2022-04-11T11:34:58Z</time>
      </trkpt>
      <trkpt lat="49.93041" lon="2.20227">
        <ele>15.4</ele>
        <time>2022-04-11T11:34:59Z</time>
      </trkpt>
      <trkpt lat="49.93043" lon="2.20229">
        <ele>15.4</ele>
        <time>2022-04-11T11:35:00Z</time>
      </trkpt>
      <trkpt lat="49.93044" lon="2.2023">
        <ele>15.4</ele>
        <time>2022-04-11T11:35:02Z</time>
      </trkpt>
      <trkpt lat="49.93045" lon="2.20232">
        <ele>15.3</ele>
        <time>2022-04-11T11:35:03Z</time>
      </trkpt>
      <trkpt lat="49.93045" lon="2.20233">
        <ele>15.3</ele>
        <time>2022-04-11T11:35:04Z</time>
      </trkpt>
      <trkpt lat="49.93046" lon="2.20234">
        <ele>15.3</ele>
        <time>2022-04-11T11:35:05Z</time>
      </trkpt>
      <trkpt lat="49.93047" lon="2.20236">
        <ele>15.3</ele>
        <time>2022-04-11T11:35:06Z</time>
      </trkpt>
      <trkpt lat="49.93048" lon="2.20237">
        <ele>15.3</ele>
        <time>2022-04-11T11:35:07Z</time>
      </trkpt>
      <trkpt lat="49.93049" lon="2.2024">
        <ele>15.3</ele>
        <time>2022-04-11T11:35:08Z</time>
      </trkpt>
      <trkpt lat="49.9305" lon="2.20241">
        <ele>15.3</ele>
        <time>2022-04-11T11:35:09Z</time>
      </trkpt>
      <trkpt lat="49.93051" lon="2.20241">
        <ele>15.3</ele>
        <time>2022-04-11T11:35:10Z</time>
      </trkpt>
      <trkpt lat="49.93052" lon="2.20244">
        <ele>15.2</ele>
        <time>2022-04-11T11:35:12Z</time>
      </trkpt>
      <trkpt lat="49.93053" lon="2.20244">
        <ele>15.2</ele>
        <time>2022-04-11T11:35:13Z</time>
      </trkpt>
      <trkpt lat="49.93053" lon="2.20245">
        <ele>15.2</ele>
        <time>2022-04-11T11:35:14Z</time>
      </trkpt>
      <trkpt lat="49.93054" lon="2.20247">
        <ele>15.2</ele>
        <time>2022-04-11T11:35:15Z</time>
      </trkpt>
      <trkpt lat="49.93055" lon="2.20249">
        <ele>15.2</ele>
        <time>2022-04-11T11:35:16Z</time>
      </trkpt>
      <trkpt lat="49.93056" lon="2.20251">
        <ele>15.2</ele>
        <time>2022-04-11T11:35:18Z</time>
      </trkpt>
      <trkpt lat="49.93057" lon="2.20254">
        <ele>15.2</ele>
        <time>2022-04-11T11:35:19Z</time>
      </trkpt>
      <trkpt lat="49.93058" lon="2.20255">
        <ele>15.2</ele>
        <time>2022-04-11T11:35:20Z</time>
      </trkpt>
      <trkpt lat="49.93058" lon="2.20256">
        <ele>15.2</ele>
        <time>2022-04-11T11:35:21Z</time>
      </trkpt>
      <trkpt lat="49.93059" lon="2.20258">
        <ele>15.1</ele>
        <time>2022-04-11T11:35:22Z</time>
      </trkpt>
      <trkpt lat="49.9306" lon="2.2026">
        <ele>15.1</ele>
        <time>2022-04-11T11:35:23Z</time>
      </trkpt>
      <trkpt lat="49.9306" lon="2.20262">
        <ele>15.1</ele>
        <time>2022-04-11T11:35:24Z</time>
      </trkpt>
      <trkpt lat="49.93061" lon="2.20264">
        <ele>15.1</ele>
        <time>2022-04-11T11:35:25Z</time>
      </trkpt>
      <trkpt lat="49.93062" lon="2.20267">
        <ele>15.1</ele>
        <time>2022-04-11T11:35:26Z</time>
      </trkpt>
      <trkpt lat="49.93062" lon="2.20268">
        <ele>15.1</ele>
        <time>2022-04-11T11:35:27Z</time>
      </trkpt>
      <trkpt lat="49.93062" lon="2.2027">
        <ele>15.1</ele>
        <time>2022-04-11T11:35:28Z</time>
      </trkpt>
      <trkpt lat="49.93063" lon="2.20271">
        <ele>15.1</ele>
        <time>2022-04-11T11:35:30Z</time>
      </trkpt>
      <trkpt lat="49.93064" lon="2.20273">
        <ele>15.1</ele>
        <time>2022-04-11T11:35:31Z</time>
      </trkpt>
      <trkpt lat="49.93065" lon="2.20276">
        <ele>15.1</ele>
        <time>2022-04-11T11:35:32Z</time>
      </trkpt>
      <trkpt lat="49.93066" lon="2.20277">
        <ele>15.1</ele>
        <time>2022-04-11T11:35:33Z</time>
      </trkpt>
      <trkpt lat="49.93066" lon="2.20278">
        <ele>15.1</ele>
        <time>2022-04-11T11:35:34Z</time>
      </trkpt>
      <trkpt lat="49.93068" lon="2.20281">
        <ele>15.1</ele>
        <time>2022-04-11T11:35:35Z</time>
      </trkpt>
      <trkpt lat="49.93068" lon="2.20282">
        <ele>15.1</ele>
        <time>2022-04-11T11:35:36Z</time>
      </trkpt>
      <trkpt lat="49.93069" lon="2.20283">
        <ele>15.1</ele>
        <time>2022-04-11T11:35:37Z</time>
      </trkpt>
      <trkpt lat="49.9307" lon="2.20285">
        <ele>15</ele>
        <time>2022-04-11T11:35:38Z</time>
      </trkpt>
      <trkpt lat="49.9307" lon="2.20286">
        <ele>15</ele>
        <time>2022-04-11T11:35:39Z</time>
      </trkpt>
      <trkpt lat="49.93071" lon="2.20287">
        <ele>15</ele>
        <time>2022-04-11T11:35:40Z</time>
      </trkpt>
      <trkpt lat="49.93071" lon="2.20289">
        <ele>15</ele>
        <time>2022-04-11T11:35:42Z</time>
      </trkpt>
      <trkpt lat="49.93072" lon="2.2029">
        <ele>15</ele>
        <time>2022-04-11T11:35:43Z</time>
      </trkpt>
      <trkpt lat="49.93073" lon="2.20291">
        <ele>15</ele>
        <time>2022-04-11T11:35:44Z</time>
      </trkpt>
      <trkpt lat="49.93074" lon="2.20293">
        <ele>15</ele>
        <time>2022-04-11T11:35:45Z</time>
      </trkpt>
      <trkpt lat="49.93074" lon="2.20294">
        <ele>15</ele>
        <time>2022-04-11T11:35:46Z</time>
      </trkpt>
      <trkpt lat="49.93075" lon="2.20296">
        <ele>15</ele>
        <time>2022-04-11T11:35:47Z</time>
      </trkpt>
      <trkpt lat="49.93076" lon="2.20297">
        <ele>15</ele>
        <time>2022-04-11T11:35:48Z</time>
      </trkpt>
      <trkpt lat="49.93077" lon="2.20299">
        <ele>15</ele>
        <time>2022-04-11T11:35:49Z</time>
      </trkpt>
      <trkpt lat="49.93078" lon="2.203">
        <ele>15</ele>
        <time>2022-04-11T11:35:50Z</time>
      </trkpt>
      <trkpt lat="49.93079" lon="2.20301">
        <ele>15</ele>
        <time>2022-04-11T11:35:51Z</time>
      </trkpt>
      <trkpt lat="49.9308" lon="2.20301">
        <ele>15</ele>
        <time>2022-04-11T11:35:52Z</time>
      </trkpt>
      <trkpt lat="49.93081" lon="2.20302">
        <ele>15</ele>
        <time>2022-04-11T11:35:53Z</time>
      </trkpt>
      <trkpt lat="49.93082" lon="2.20302">
        <ele>15</ele>
        <time>2022-04-11T11:35:55Z</time>
      </trkpt>
      <trkpt lat="49.93083" lon="2.20303">
        <ele>15</ele>
        <time>2022-04-11T11:35:56Z</time>
      </trkpt>
      <trkpt lat="49.93084" lon="2.20303">
        <ele>15</ele>
        <time>2022-04-11T11:35:57Z</time>
      </trkpt>
      <trkpt lat="49.93085" lon="2.20304">
        <ele>15</ele>
        <time>2022-04-11T11:35:58Z</time>
      </trkpt>
      <trkpt lat="49.93086" lon="2.20305">
        <ele>14.9</ele>
        <time>2022-04-11T11:35:59Z</time>
      </trkpt>
      <trkpt lat="49.93087" lon="2.20305">
        <ele>14.9</ele>
        <time>2022-04-11T11:36:00Z</time>
      </trkpt>
      <trkpt lat="49.93088" lon="2.20306">
        <ele>14.9</ele>
        <time>2022-04-11T11:36:01Z</time>
      </trkpt>
      <trkpt lat="49.93089" lon="2.20307">
        <ele>14.9</ele>
        <time>2022-04-11T11:36:02Z</time>
      </trkpt>
      <trkpt lat="49.9309" lon="2.20308">
        <ele>14.9</ele>
        <time>2022-04-11T11:36:04Z</time>
      </trkpt>
      <trkpt lat="49.9309" lon="2.20309">
        <ele>14.9</ele>
        <time>2022-04-11T11:36:05Z</time>
      </trkpt>
      <trkpt lat="49.93091" lon="2.2031">
        <ele>14.9</ele>
        <time>2022-04-11T11:36:06Z</time>
      </trkpt>
      <trkpt lat="49.93092" lon="2.20311">
        <ele>14.9</ele>
        <time>2022-04-11T11:36:07Z</time>
      </trkpt>
      <trkpt lat="49.93092" lon="2.20312">
        <ele>14.9</ele>
        <time>2022-04-11T11:36:08Z</time>
      </trkpt>
      <trkpt lat="49.93093" lon="2.20312">
        <ele>14.9</ele>
        <time>2022-04-11T11:36:09Z</time>
      </trkpt>
      <trkpt lat="49.93094" lon="2.20313">
        <ele>14.9</ele>
        <time>2022-04-11T11:36:10Z</time>
      </trkpt>
      <trkpt lat="49.93096" lon="2.20315">
        <ele>14.9</ele>
        <time>2022-04-11T11:36:11Z</time>
      </trkpt>
      <trkpt lat="49.93096" lon="2.20316">
        <ele>14.9</ele>
        <time>2022-04-11T11:36:12Z</time>
      </trkpt>
      <trkpt lat="49.93097" lon="2.20317">
        <ele>14.9</ele>
        <time>2022-04-11T11:36:14Z</time>
      </trkpt>
      <trkpt lat="49.93098" lon="2.20318">
        <ele>14.9</ele>
        <time>2022-04-11T11:36:15Z</time>
      </trkpt>
      <trkpt lat="49.93099" lon="2.20318">
        <ele>14.9</ele>
        <time>2022-04-11T11:36:16Z</time>
      </trkpt>
      <trkpt lat="49.931" lon="2.20319">
        <ele>14.9</ele>
        <time>2022-04-11T11:36:17Z</time>
      </trkpt>
      <trkpt lat="49.93101" lon="2.20321">
        <ele>14.9</ele>
        <time>2022-04-11T11:36:18Z</time>
      </trkpt>
      <trkpt lat="49.93102" lon="2.20322">
        <ele>14.9</ele>
        <time>2022-04-11T11:36:19Z</time>
      </trkpt>
      <trkpt lat="49.93104" lon="2.20324">
        <ele>14.9</ele>
        <time>2022-04-11T11:36:20Z</time>
      </trkpt>
      <trkpt lat="49.93104" lon="2.20325">
        <ele>14.9</ele>
        <time>2022-04-11T11:36:21Z</time>
      </trkpt>
      <trkpt lat="49.93105" lon="2.20326">
        <ele>14.9</ele>
        <time>2022-04-11T11:36:22Z</time>
      </trkpt>
      <trkpt lat="49.93106" lon="2.20327">
        <ele>14.9</ele>
        <time>2022-04-11T11:36:23Z</time>
      </trkpt>
      <trkpt lat="49.93106" lon="2.20328">
        <ele>14.9</ele>
        <time>2022-04-11T11:36:24Z</time>
      </trkpt>
      <trkpt lat="49.93107" lon="2.20329">
        <ele>14.9</ele>
        <time>2022-04-11T11:36:25Z</time>
      </trkpt>
      <trkpt lat="49.93108" lon="2.2033">
        <ele>14.9</ele>
        <time>2022-04-11T11:36:26Z</time>
      </trkpt>
      <trkpt lat="49.93109" lon="2.20331">
        <ele>14.9</ele>
        <time>2022-04-11T11:36:28Z</time>
      </trkpt>
      <trkpt lat="49.9311" lon="2.20332">
        <ele>14.9</ele>
        <time>2022-04-11T11:36:29Z</time>
      </trkpt>
      <trkpt lat="49.93111" lon="2.20333">
        <ele>14.9</ele>
        <time>2022-04-11T11:36:30Z</time>
      </trkpt>
      <trkpt lat="49.93112" lon="2.20334">
        <ele>14.9</ele>
        <time>2022-04-11T11:36:31Z</time>
      </trkpt>
      <trkpt lat="49.93113" lon="2.20336">
        <ele>14.9</ele>
        <time>2022-04-11T11:36:32Z</time>
      </trkpt>
      <trkpt lat="49.93114" lon="2.20338">
        <ele>14.9</ele>
        <time>2022-04-11T11:36:33Z</time>
      </trkpt>
      <trkpt lat="49.93115" lon="2.20341">
        <ele>14.9</ele>
        <time>2022-04-11T11:36:34Z</time>
      </trkpt>
      <trkpt lat="49.93116" lon="2.20342">
        <ele>14.9</ele>
        <time>2022-04-11T11:36:36Z</time>
      </trkpt>
      <trkpt lat="49.93116" lon="2.20343">
        <ele>14.9</ele>
        <time>2022-04-11T11:36:37Z</time>
      </trkpt>
      <trkpt lat="49.93117" lon="2.20344">
        <ele>14.9</ele>
        <time>2022-04-11T11:36:38Z</time>
      </trkpt>
      <trkpt lat="49.93118" lon="2.20346">
        <ele>14.9</ele>
        <time>2022-04-11T11:36:39Z</time>
      </trkpt>
      <trkpt lat="49.93119" lon="2.20347">
        <ele>14.9</ele>
        <time>2022-04-11T11:36:40Z</time>
      </trkpt>
      <trkpt lat="49.9312" lon="2.20348">
        <ele>14.9</ele>
        <time>2022-04-11T11:36:41Z</time>
      </trkpt>
      <trkpt lat="49.93121" lon="2.20349">
        <ele>14.9</ele>
        <time>2022-04-11T11:36:42Z</time>
      </trkpt>
      <trkpt lat="49.93122" lon="2.20351">
        <ele>14.9</ele>
        <time>2022-04-11T11:36:43Z</time>
      </trkpt>
      <trkpt lat="49.93123" lon="2.20353">
        <ele>14.9</ele>
        <time>2022-04-11T11:36:44Z</time>
      </trkpt>
      <trkpt lat="49.93124" lon="2.20354">
        <ele>14.9</ele>
        <time>2022-04-11T11:36:45Z</time>
      </trkpt>
      <trkpt lat="49.93125" lon="2.20356">
        <ele>14.9</ele>
        <time>2022-04-11T11:36:46Z</time>
      </trkpt>
      <trkpt lat="49.93126" lon="2.20357">
        <ele>14.9</ele>
        <time>2022-04-11T11:36:47Z</time>
      </trkpt>
      <trkpt lat="49.93127" lon="2.20359">
        <ele>14.9</ele>
        <time>2022-04-11T11:36:48Z</time>
      </trkpt>
      <trkpt lat="49.93128" lon="2.20361">
        <ele>14.9</ele>
        <time>2022-04-11T11:36:49Z</time>
      </trkpt>
      <trkpt lat="49.93129" lon="2.20363">
        <ele>14.9</ele>
        <time>2022-04-11T11:36:51Z</time>
      </trkpt>
      <trkpt lat="49.9313" lon="2.20364">
        <ele>14.9</ele>
        <time>2022-04-11T11:36:52Z</time>
      </trkpt>
      <trkpt lat="49.93131" lon="2.20365">
        <ele>14.9</ele>
        <time>2022-04-11T11:36:53Z</time>
      </trkpt>
      <trkpt lat="49.93132" lon="2.20367">
        <ele>14.9</ele>
        <time>2022-04-11T11:36:54Z</time>
      </trkpt>
      <trkpt lat="49.93133" lon="2.20368">
        <ele>14.9</ele>
        <time>2022-04-11T11:36:55Z</time>
      </trkpt>
      <trkpt lat="49.93134" lon="2.20369">
        <ele>14.9</ele>
        <time>2022-04-11T11:36:56Z</time>
      </trkpt>
      <trkpt lat="49.93135" lon="2.2037">
        <ele>14.9</ele>
        <time>2022-04-11T11:36:57Z</time>
      </trkpt>
      <trkpt lat="49.93136" lon="2.20372">
        <ele>14.9</ele>
        <time>2022-04-11T11:36:59Z</time>
      </trkpt>
      <trkpt lat="49.93137" lon="2.20373">
        <ele>14.9</ele>
        <time>2022-04-11T11:37:00Z</time>
      </trkpt>
      <trkpt lat="49.93138" lon="2.20374">
        <ele>14.9</ele>
        <time>2022-04-11T11:37:01Z</time>
      </trkpt>
      <trkpt lat="49.93139" lon="2.20376">
        <ele>14.9</ele>
        <time>2022-04-11T11:37:02Z</time>
      </trkpt>
      <trkpt lat="49.9314" lon="2.20378">
        <ele>14.9</ele>
        <time>2022-04-11T11:37:03Z</time>
      </trkpt>
      <trkpt lat="49.93141" lon="2.2038">
        <ele>14.9</ele>
        <time>2022-04-11T11:37:04Z</time>
      </trkpt>
      <trkpt lat="49.93142" lon="2.20381">
        <ele>14.9</ele>
        <time>2022-04-11T11:37:06Z</time>
      </trkpt>
      <trkpt lat="49.93142" lon="2.20383">
        <ele>14.9</ele>
        <time>2022-04-11T11:37:07Z</time>
      </trkpt>
      <trkpt lat="49.93143" lon="2.20384">
        <ele>14.9</ele>
        <time>2022-04-11T11:37:08Z</time>
      </trkpt>
      <trkpt lat="49.93144" lon="2.20385">
        <ele>14.9</ele>
        <time>2022-04-11T11:37:09Z</time>
      </trkpt>
      <trkpt lat="49.93145" lon="2.20386">
        <ele>14.9</ele>
        <time>2022-04-11T11:37:10Z</time>
      </trkpt>
      <trkpt lat="49.93146" lon="2.20387">
        <ele>14.9</ele>
        <time>2022-04-11T11:37:11Z</time>
      </trkpt>
      <trkpt lat="49.93146" lon="2.20388">
        <ele>14.9</ele>
        <time>2022-04-11T11:37:12Z</time>
      </trkpt>
      <trkpt lat="49.93147" lon="2.2039">
        <ele>14.9</ele>
        <time>2022-04-11T11:37:14Z</time>
      </trkpt>
      <trkpt lat="49.93148" lon="2.20391">
        <ele>14.9</ele>
        <time>2022-04-11T11:37:15Z</time>
      </trkpt>
      <trkpt lat="49.9315" lon="2.20392">
        <ele>14.9</ele>
        <time>2022-04-11T11:37:16Z</time>
      </trkpt>
      <trkpt lat="49.9315" lon="2.20393">
        <ele>14.9</ele>
        <time>2022-04-11T11:37:17Z</time>
      </trkpt>
      <trkpt lat="49.93151" lon="2.20395">
        <ele>14.9</ele>
        <time>2022-04-11T11:37:18Z</time>
      </trkpt>
      <trkpt lat="49.93152" lon="2.20396">
        <ele>14.9</ele>
        <time>2022-04-11T11:37:19Z</time>
      </trkpt>
      <trkpt lat="49.93152" lon="2.20398">
        <ele>14.9</ele>
        <time>2022-04-11T11:37:20Z</time>
      </trkpt>
      <trkpt lat="49.93153" lon="2.20399">
        <ele>14.9</ele>
        <time>2022-04-11T11:37:21Z</time>
      </trkpt>
      <trkpt lat="49.93154" lon="2.20401">
        <ele>14.9</ele>
        <time>2022-04-11T11:37:22Z</time>
      </trkpt>
      <trkpt lat="49.93154" lon="2.20402">
        <ele>14.9</ele>
        <time>2022-04-11T11:37:23Z</time>
      </trkpt>
      <trkpt lat="49.93154" lon="2.20403">
        <ele>14.9</ele>
        <time>2022-04-11T11:37:24Z</time>
      </trkpt>
      <trkpt lat="49.93156" lon="2.20406">
        <ele>14.9</ele>
        <time>2022-04-11T11:37:25Z</time>
      </trkpt>
      <trkpt lat="49.93156" lon="2.20407">
        <ele>14.8</ele>
        <time>2022-04-11T11:37:26Z</time>
      </trkpt>
      <trkpt lat="49.93157" lon="2.20408">
        <ele>14.8</ele>
        <time>2022-04-11T11:37:28Z</time>
      </trkpt>
      <trkpt lat="49.93157" lon="2.2041">
        <ele>14.8</ele>
        <time>2022-04-11T11:37:29Z</time>
      </trkpt>
      <trkpt lat="49.93158" lon="2.20411">
        <ele>14.8</ele>
        <time>2022-04-11T11:37:30Z</time>
      </trkpt>
      <trkpt lat="49.93158" lon="2.20412">
        <ele>14.8</ele>
        <time>2022-04-11T11:37:31Z</time>
      </trkpt>
      <trkpt lat="49.93159" lon="2.20414">
        <ele>14.8</ele>
        <time>2022-04-11T11:37:32Z</time>
      </trkpt>
      <trkpt lat="49.9316" lon="2.20416">
        <ele>14.8</ele>
        <time>2022-04-11T11:37:33Z</time>
      </trkpt>
      <trkpt lat="49.9316" lon="2.20417">
        <ele>14.8</ele>
        <time>2022-04-11T11:37:34Z</time>
      </trkpt>
      <trkpt lat="49.93162" lon="2.20419">
        <ele>14.8</ele>
        <time>2022-04-11T11:37:36Z</time>
      </trkpt>
      <trkpt lat="49.93162" lon="2.2042">
        <ele>14.8</ele>
        <time>2022-04-11T11:37:37Z</time>
      </trkpt>
      <trkpt lat="49.93164" lon="2.20422">
        <ele>14.8</ele>
        <time>2022-04-11T11:37:38Z</time>
      </trkpt>
      <trkpt lat="49.93165" lon="2.20423">
        <ele>14.8</ele>
        <time>2022-04-11T11:37:39Z</time>
      </trkpt>
      <trkpt lat="49.93165" lon="2.20423">
        <ele>14.8</ele>
        <time>2022-04-11T11:37:40Z</time>
      </trkpt>
      <trkpt lat="49.93166" lon="2.20424">
        <ele>14.8</ele>
        <time>2022-04-11T11:37:41Z</time>
      </trkpt>
      <trkpt lat="49.93168" lon="2.20426">
        <ele>14.8</ele>
        <time>2022-04-11T11:37:42Z</time>
      </trkpt>
      <trkpt lat="49.93169" lon="2.20427">
        <ele>14.8</ele>
        <time>2022-04-11T11:37:43Z</time>
      </trkpt>
      <trkpt lat="49.9317" lon="2.20428">
        <ele>14.8</ele>
        <time>2022-04-11T11:37:44Z</time>
      </trkpt>
      <trkpt lat="49.93172" lon="2.2043">
        <ele>14.8</ele>
        <time>2022-04-11T11:37:45Z</time>
      </trkpt>
      <trkpt lat="49.93172" lon="2.20431">
        <ele>14.8</ele>
        <time>2022-04-11T11:37:46Z</time>
      </trkpt>
      <trkpt lat="49.93173" lon="2.20432">
        <ele>14.8</ele>
        <time>2022-04-11T11:37:47Z</time>
      </trkpt>
      <trkpt lat="49.93174" lon="2.20434">
        <ele>14.8</ele>
        <time>2022-04-11T11:37:49Z</time>
      </trkpt>
      <trkpt lat="49.93175" lon="2.20435">
        <ele>14.8</ele>
        <time>2022-04-11T11:37:50Z</time>
      </trkpt>
      <trkpt lat="49.93176" lon="2.20436">
        <ele>14.8</ele>
        <time>2022-04-11T11:37:51Z</time>
      </trkpt>
      <trkpt lat="49.93176" lon="2.20437">
        <ele>14.8</ele>
        <time>2022-04-11T11:37:52Z</time>
      </trkpt>
      <trkpt lat="49.93177" lon="2.20438">
        <ele>14.8</ele>
        <time>2022-04-11T11:37:53Z</time>
      </trkpt>
      <trkpt lat="49.93178" lon="2.20439">
        <ele>14.8</ele>
        <time>2022-04-11T11:37:54Z</time>
      </trkpt>
      <trkpt lat="49.93179" lon="2.20441">
        <ele>14.8</ele>
        <time>2022-04-11T11:37:55Z</time>
      </trkpt>
      <trkpt lat="49.9318" lon="2.20442">
        <ele>14.8</ele>
        <time>2022-04-11T11:37:56Z</time>
      </trkpt>
      <trkpt lat="49.93181" lon="2.20444">
        <ele>14.8</ele>
        <time>2022-04-11T11:37:58Z</time>
      </trkpt>
      <trkpt lat="49.93182" lon="2.20446">
        <ele>14.8</ele>
        <time>2022-04-11T11:37:59Z</time>
      </trkpt>
      <trkpt lat="49.93183" lon="2.20447">
        <ele>14.8</ele>
        <time>2022-04-11T11:38:00Z</time>
      </trkpt>
      <trkpt lat="49.93184" lon="2.20448">
        <ele>14.8</ele>
        <time>2022-04-11T11:38:01Z</time>
      </trkpt>
      <trkpt lat="49.93185" lon="2.20449">
        <ele>14.8</ele>
        <time>2022-04-11T11:38:02Z</time>
      </trkpt>
      <trkpt lat="49.93186" lon="2.2045">
        <ele>14.8</ele>
        <time>2022-04-11T11:38:03Z</time>
      </trkpt>
      <trkpt lat="49.93188" lon="2.20452">
        <ele>14.9</ele>
        <time>2022-04-11T11:38:04Z</time>
      </trkpt>
      <trkpt lat="49.93188" lon="2.20453">
        <ele>14.9</ele>
        <time>2022-04-11T11:38:05Z</time>
      </trkpt>
      <trkpt lat="49.93189" lon="2.20454">
        <ele>14.9</ele>
        <time>2022-04-11T11:38:06Z</time>
      </trkpt>
      <trkpt lat="49.9319" lon="2.20455">
        <ele>14.9</ele>
        <time>2022-04-11T11:38:07Z</time>
      </trkpt>
      <trkpt lat="49.93191" lon="2.20456">
        <ele>14.9</ele>
        <time>2022-04-11T11:38:08Z</time>
      </trkpt>
      <trkpt lat="49.93191" lon="2.20457">
        <ele>14.9</ele>
        <time>2022-04-11T11:38:09Z</time>
      </trkpt>
      <trkpt lat="49.93192" lon="2.20458">
        <ele>14.9</ele>
        <time>2022-04-11T11:38:11Z</time>
      </trkpt>
      <trkpt lat="49.93193" lon="2.20459">
        <ele>14.9</ele>
        <time>2022-04-11T11:38:12Z</time>
      </trkpt>
      <trkpt lat="49.93194" lon="2.2046">
        <ele>14.9</ele>
        <time>2022-04-11T11:38:13Z</time>
      </trkpt>
      <trkpt lat="49.93195" lon="2.20461">
        <ele>14.9</ele>
        <time>2022-04-11T11:38:14Z</time>
      </trkpt>
      <trkpt lat="49.93196" lon="2.20463">
        <ele>15</ele>
        <time>2022-04-11T11:38:15Z</time>
      </trkpt>
      <trkpt lat="49.93196" lon="2.20464">
        <ele>15</ele>
        <time>2022-04-11T11:38:16Z</time>
      </trkpt>
      <trkpt lat="49.93197" lon="2.20467">
        <ele>15</ele>
        <time>2022-04-11T11:38:17Z</time>
      </trkpt>
      <trkpt lat="49.93198" lon="2.20468">
        <ele>15</ele>
        <time>2022-04-11T11:38:18Z</time>
      </trkpt>
      <trkpt lat="49.93198" lon="2.20469">
        <ele>15</ele>
        <time>2022-04-11T11:38:19Z</time>
      </trkpt>
      <trkpt lat="49.93199" lon="2.20471">
        <ele>15</ele>
        <time>2022-04-11T11:38:20Z</time>
      </trkpt>
      <trkpt lat="49.93199" lon="2.20472">
        <ele>15.1</ele>
        <time>2022-04-11T11:38:21Z</time>
      </trkpt>
      <trkpt lat="49.932" lon="2.20474">
        <ele>15.1</ele>
        <time>2022-04-11T11:38:22Z</time>
      </trkpt>
      <trkpt lat="49.93201" lon="2.20475">
        <ele>15.1</ele>
        <time>2022-04-11T11:38:24Z</time>
      </trkpt>
      <trkpt lat="49.93202" lon="2.20477">
        <ele>15.1</ele>
        <time>2022-04-11T11:38:25Z</time>
      </trkpt>
      <trkpt lat="49.93203" lon="2.2048">
        <ele>15.1</ele>
        <time>2022-04-11T11:38:26Z</time>
      </trkpt>
      <trkpt lat="49.93204" lon="2.2048">
        <ele>15.2</ele>
        <time>2022-04-11T11:38:27Z</time>
      </trkpt>
      <trkpt lat="49.93204" lon="2.20481">
        <ele>15.2</ele>
        <time>2022-04-11T11:38:28Z</time>
      </trkpt>
      <trkpt lat="49.93205" lon="2.20482">
        <ele>15.2</ele>
        <time>2022-04-11T11:38:29Z</time>
      </trkpt>
      <trkpt lat="49.93207" lon="2.20484">
        <ele>15.2</ele>
        <time>2022-04-11T11:38:30Z</time>
      </trkpt>
      <trkpt lat="49.93208" lon="2.20486">
        <ele>15.2</ele>
        <time>2022-04-11T11:38:32Z</time>
      </trkpt>
      <trkpt lat="49.93209" lon="2.20487">
        <ele>15.2</ele>
        <time>2022-04-11T11:38:33Z</time>
      </trkpt>
      <trkpt lat="49.93211" lon="2.2049">
        <ele>15.3</ele>
        <time>2022-04-11T11:38:34Z</time>
      </trkpt>
      <trkpt lat="49.93212" lon="2.20491">
        <ele>15.3</ele>
        <time>2022-04-11T11:38:36Z</time>
      </trkpt>
      <trkpt lat="49.93213" lon="2.20492">
        <ele>15.3</ele>
        <time>2022-04-11T11:38:37Z</time>
      </trkpt>
      <trkpt lat="49.93213" lon="2.20493">
        <ele>15.3</ele>
        <time>2022-04-11T11:38:38Z</time>
      </trkpt>
      <trkpt lat="49.93214" lon="2.20494">
        <ele>15.3</ele>
        <time>2022-04-11T11:38:39Z</time>
      </trkpt>
      <trkpt lat="49.93215" lon="2.20495">
        <ele>15.3</ele>
        <time>2022-04-11T11:38:40Z</time>
      </trkpt>
      <trkpt lat="49.93216" lon="2.20496">
        <ele>15.3</ele>
        <time>2022-04-11T11:38:41Z</time>
      </trkpt>
      <trkpt lat="49.93217" lon="2.20498">
        <ele>15.3</ele>
        <time>2022-04-11T11:38:42Z</time>
      </trkpt>
      <trkpt lat="49.93218" lon="2.20498">
        <ele>15.3</ele>
        <time>2022-04-11T11:38:43Z</time>
      </trkpt>
      <trkpt lat="49.93219" lon="2.20499">
        <ele>15.3</ele>
        <time>2022-04-11T11:38:44Z</time>
      </trkpt>
      <trkpt lat="49.9322" lon="2.20499">
        <ele>15.2</ele>
        <time>2022-04-11T11:38:46Z</time>
      </trkpt>
      <trkpt lat="49.9322" lon="2.205">
        <ele>15.2</ele>
        <time>2022-04-11T11:38:47Z</time>
      </trkpt>
      <trkpt lat="49.93221" lon="2.20501">
        <ele>15.2</ele>
        <time>2022-04-11T11:38:48Z</time>
      </trkpt>
      <trkpt lat="49.93222" lon="2.20501">
        <ele>15.2</ele>
        <time>2022-04-11T11:38:49Z</time>
      </trkpt>
      <trkpt lat="49.93223" lon="2.205">
        <ele>15.1</ele>
        <time>2022-04-11T11:38:50Z</time>
      </trkpt>
      <trkpt lat="49.93224" lon="2.20498">
        <ele>15</ele>
        <time>2022-04-11T11:38:52Z</time>
      </trkpt>
      <trkpt lat="49.93225" lon="2.20496">
        <ele>15</ele>
        <time>2022-04-11T11:38:53Z</time>
      </trkpt>
      <trkpt lat="49.93226" lon="2.20494">
        <ele>14.9</ele>
        <time>2022-04-11T11:38:54Z</time>
      </trkpt>
      <trkpt lat="49.93226" lon="2.20492">
        <ele>14.9</ele>
        <time>2022-04-11T11:38:55Z</time>
      </trkpt>
      <trkpt lat="49.93227" lon="2.2049">
        <ele>14.8</ele>
        <time>2022-04-11T11:38:56Z</time>
      </trkpt>
      <trkpt lat="49.93228" lon="2.20488">
        <ele>14.7</ele>
        <time>2022-04-11T11:38:57Z</time>
      </trkpt>
      <trkpt lat="49.93229" lon="2.20487">
        <ele>14.6</ele>
        <time>2022-04-11T11:38:58Z</time>
      </trkpt>
      <trkpt lat="49.9323" lon="2.20486">
        <ele>14.6</ele>
        <time>2022-04-11T11:38:59Z</time>
      </trkpt>
      <trkpt lat="49.93231" lon="2.20485">
        <ele>14.5</ele>
        <time>2022-04-11T11:39:00Z</time>
      </trkpt>
      <trkpt lat="49.93232" lon="2.20485">
        <ele>14.5</ele>
        <time>2022-04-11T11:39:01Z</time>
      </trkpt>
      <trkpt lat="49.93233" lon="2.20484">
        <ele>14.4</ele>
        <time>2022-04-11T11:39:03Z</time>
      </trkpt>
      <trkpt lat="49.93234" lon="2.20483">
        <ele>14.4</ele>
        <time>2022-04-11T11:39:04Z</time>
      </trkpt>
      <trkpt lat="49.93235" lon="2.20482">
        <ele>14.3</ele>
        <time>2022-04-11T11:39:05Z</time>
      </trkpt>
      <trkpt lat="49.93236" lon="2.20482">
        <ele>14.3</ele>
        <time>2022-04-11T11:39:06Z</time>
      </trkpt>
      <trkpt lat="49.93237" lon="2.20481">
        <ele>14.3</ele>
        <time>2022-04-11T11:39:07Z</time>
      </trkpt>
      <trkpt lat="49.93238" lon="2.20481">
        <ele>14.3</ele>
        <time>2022-04-11T11:39:08Z</time>
      </trkpt>
      <trkpt lat="49.9324" lon="2.20481">
        <ele>14.3</ele>
        <time>2022-04-11T11:39:09Z</time>
      </trkpt>
      <trkpt lat="49.93242" lon="2.20481">
        <ele>14.2</ele>
        <time>2022-04-11T11:39:10Z</time>
      </trkpt>
      <trkpt lat="49.93243" lon="2.2048">
        <ele>14.2</ele>
        <time>2022-04-11T11:39:11Z</time>
      </trkpt>
      <trkpt lat="49.93244" lon="2.20479">
        <ele>14.2</ele>
        <time>2022-04-11T11:39:12Z</time>
      </trkpt>
      <trkpt lat="49.93246" lon="2.20479">
        <ele>14.2</ele>
        <time>2022-04-11T11:39:13Z</time>
      </trkpt>
      <trkpt lat="49.93247" lon="2.20478">
        <ele>14.2</ele>
        <time>2022-04-11T11:39:15Z</time>
      </trkpt>
      <trkpt lat="49.93249" lon="2.20477">
        <ele>14.2</ele>
        <time>2022-04-11T11:39:16Z</time>
      </trkpt>
      <trkpt lat="49.9325" lon="2.20477">
        <ele>14.1</ele>
        <time>2022-04-11T11:39:17Z</time>
      </trkpt>
      <trkpt lat="49.93251" lon="2.20477">
        <ele>14.1</ele>
        <time>2022-04-11T11:39:18Z</time>
      </trkpt>
      <trkpt lat="49.93252" lon="2.20476">
        <ele>14.1</ele>
        <time>2022-04-11T11:39:19Z</time>
      </trkpt>
      <trkpt lat="49.93253" lon="2.20476">
        <ele>14.1</ele>
        <time>2022-04-11T11:39:20Z</time>
      </trkpt>
      <trkpt lat="49.93255" lon="2.20476">
        <ele>14.1</ele>
        <time>2022-04-11T11:39:21Z</time>
      </trkpt>
      <trkpt lat="49.93257" lon="2.20475">
        <ele>14.1</ele>
        <time>2022-04-11T11:39:22Z</time>
      </trkpt>
      <trkpt lat="49.93258" lon="2.20475">
        <ele>14.1</ele>
        <time>2022-04-11T11:39:23Z</time>
      </trkpt>
      <trkpt lat="49.9326" lon="2.20474">
        <ele>14</ele>
        <time>2022-04-11T11:39:24Z</time>
      </trkpt>
      <trkpt lat="49.93262" lon="2.20474">
        <ele>14</ele>
        <time>2022-04-11T11:39:25Z</time>
      </trkpt>
      <trkpt lat="49.93263" lon="2.20473">
        <ele>14</ele>
        <time>2022-04-11T11:39:27Z</time>
      </trkpt>
      <trkpt lat="49.93265" lon="2.20472">
        <ele>14</ele>
        <time>2022-04-11T11:39:28Z</time>
      </trkpt>
      <trkpt lat="49.93266" lon="2.20471">
        <ele>14</ele>
        <time>2022-04-11T11:39:29Z</time>
      </trkpt>
      <trkpt lat="49.93268" lon="2.20471">
        <ele>14</ele>
        <time>2022-04-11T11:39:30Z</time>
      </trkpt>
      <trkpt lat="49.9327" lon="2.2047">
        <ele>14</ele>
        <time>2022-04-11T11:39:31Z</time>
      </trkpt>
      <trkpt lat="49.93273" lon="2.20469">
        <ele>14</ele>
        <time>2022-04-11T11:39:33Z</time>
      </trkpt>
      <trkpt lat="49.93274" lon="2.20469">
        <ele>14</ele>
        <time>2022-04-11T11:39:34Z</time>
      </trkpt>
      <trkpt lat="49.93276" lon="2.20468">
        <ele>14</ele>
        <time>2022-04-11T11:39:35Z</time>
      </trkpt>
      <trkpt lat="49.93277" lon="2.20467">
        <ele>13.9</ele>
        <time>2022-04-11T11:39:36Z</time>
      </trkpt>
      <trkpt lat="49.93279" lon="2.20466">
        <ele>13.9</ele>
        <time>2022-04-11T11:39:37Z</time>
      </trkpt>
      <trkpt lat="49.93281" lon="2.20465">
        <ele>13.9</ele>
        <time>2022-04-11T11:39:38Z</time>
      </trkpt>
      <trkpt lat="49.93282" lon="2.20464">
        <ele>13.9</ele>
        <time>2022-04-11T11:39:39Z</time>
      </trkpt>
      <trkpt lat="49.93283" lon="2.20464">
        <ele>13.9</ele>
        <time>2022-04-11T11:39:40Z</time>
      </trkpt>
      <trkpt lat="49.93286" lon="2.20463">
        <ele>13.9</ele>
        <time>2022-04-11T11:39:41Z</time>
      </trkpt>
      <trkpt lat="49.93286" lon="2.20462">
        <ele>13.9</ele>
        <time>2022-04-11T11:39:43Z</time>
      </trkpt>
      <trkpt lat="49.93287" lon="2.20462">
        <ele>13.9</ele>
        <time>2022-04-11T11:39:44Z</time>
      </trkpt>
      <trkpt lat="49.93289" lon="2.20461">
        <ele>13.9</ele>
        <time>2022-04-11T11:39:45Z</time>
      </trkpt>
      <trkpt lat="49.9329" lon="2.20461">
        <ele>13.9</ele>
        <time>2022-04-11T11:39:46Z</time>
      </trkpt>
      <trkpt lat="49.93291" lon="2.2046">
        <ele>13.9</ele>
        <time>2022-04-11T11:39:47Z</time>
      </trkpt>
      <trkpt lat="49.93292" lon="2.2046">
        <ele>13.9</ele>
        <time>2022-04-11T11:39:48Z</time>
      </trkpt>
      <trkpt lat="49.93293" lon="2.20459">
        <ele>13.9</ele>
        <time>2022-04-11T11:39:49Z</time>
      </trkpt>
      <trkpt lat="49.93294" lon="2.20458">
        <ele>13.9</ele>
        <time>2022-04-11T11:39:50Z</time>
      </trkpt>
      <trkpt lat="49.93294" lon="2.20458">
        <ele>13.9</ele>
        <time>2022-04-11T11:39:51Z</time>
      </trkpt>
      <trkpt lat="49.93295" lon="2.20457">
        <ele>13.9</ele>
        <time>2022-04-11T11:39:52Z</time>
      </trkpt>
      <trkpt lat="49.93296" lon="2.20456">
        <ele>13.9</ele>
        <time>2022-04-11T11:39:54Z</time>
      </trkpt>
      <trkpt lat="49.93297" lon="2.20456">
        <ele>13.9</ele>
        <time>2022-04-11T11:39:55Z</time>
      </trkpt>
      <trkpt lat="49.93298" lon="2.20455">
        <ele>13.9</ele>
        <time>2022-04-11T11:39:56Z</time>
      </trkpt>
      <trkpt lat="49.93299" lon="2.20455">
        <ele>13.9</ele>
        <time>2022-04-11T11:39:57Z</time>
      </trkpt>
      <trkpt lat="49.933" lon="2.20454">
        <ele>13.9</ele>
        <time>2022-04-11T11:39:58Z</time>
      </trkpt>
      <trkpt lat="49.93301" lon="2.20454">
        <ele>13.9</ele>
        <time>2022-04-11T11:39:59Z</time>
      </trkpt>
      <trkpt lat="49.93302" lon="2.20453">
        <ele>13.9</ele>
        <time>2022-04-11T11:40:00Z</time>
      </trkpt>
      <trkpt lat="49.93303" lon="2.20453">
        <ele>13.9</ele>
        <time>2022-04-11T11:40:01Z</time>
      </trkpt>
      <trkpt lat="49.93304" lon="2.20452">
        <ele>13.9</ele>
        <time>2022-04-11T11:40:02Z</time>
      </trkpt>
      <trkpt lat="49.93304" lon="2.20451">
        <ele>13.9</ele>
        <time>2022-04-11T11:40:03Z</time>
      </trkpt>
      <trkpt lat="49.93305" lon="2.2045">
        <ele>13.9</ele>
        <time>2022-04-11T11:40:05Z</time>
      </trkpt>
      <trkpt lat="49.93306" lon="2.20449">
        <ele>13.9</ele>
        <time>2022-04-11T11:40:06Z</time>
      </trkpt>
      <trkpt lat="49.93306" lon="2.20448">
        <ele>13.9</ele>
        <time>2022-04-11T11:40:07Z</time>
      </trkpt>
      <trkpt lat="49.93307" lon="2.20447">
        <ele>13.9</ele>
        <time>2022-04-11T11:40:08Z</time>
      </trkpt>
      <trkpt lat="49.93307" lon="2.20446">
        <ele>13.9</ele>
        <time>2022-04-11T11:40:09Z</time>
      </trkpt>
      <trkpt lat="49.93308" lon="2.20445">
        <ele>13.9</ele>
        <time>2022-04-11T11:40:10Z</time>
      </trkpt>
      <trkpt lat="49.93308" lon="2.20443">
        <ele>13.9</ele>
        <time>2022-04-11T11:40:12Z</time>
      </trkpt>
      <trkpt lat="49.93308" lon="2.20442">
        <ele>13.9</ele>
        <time>2022-04-11T11:40:13Z</time>
      </trkpt>
      <trkpt lat="49.93307" lon="2.20441">
        <ele>13.9</ele>
        <time>2022-04-11T11:40:14Z</time>
      </trkpt>
      <trkpt lat="49.93308" lon="2.2044">
        <ele>13.9</ele>
        <time>2022-04-11T11:40:15Z</time>
      </trkpt>
      <trkpt lat="49.93308" lon="2.20439">
        <ele>13.8</ele>
        <time>2022-04-11T11:40:16Z</time>
      </trkpt>
      <trkpt lat="49.93308" lon="2.20439">
        <ele>13.8</ele>
        <time>2022-04-11T11:40:18Z</time>
      </trkpt>
      <trkpt lat="49.93308" lon="2.20438">
        <ele>13.8</ele>
        <time>2022-04-11T11:40:19Z</time>
      </trkpt>
      <trkpt lat="49.93308" lon="2.20438">
        <ele>13.8</ele>
        <time>2022-04-11T11:40:20Z</time>
      </trkpt>
      <trkpt lat="49.93308" lon="2.20438">
        <ele>13.8</ele>
        <time>2022-04-11T11:40:21Z</time>
      </trkpt>
      <trkpt lat="49.93308" lon="2.20438">
        <ele>13.8</ele>
        <time>2022-04-11T11:40:22Z</time>
      </trkpt>
      <trkpt lat="49.93309" lon="2.20438">
        <ele>13.8</ele>
        <time>2022-04-11T11:40:23Z</time>
      </trkpt>
      <trkpt lat="49.93309" lon="2.20438">
        <ele>13.8</ele>
        <time>2022-04-11T11:40:24Z</time>
      </trkpt>
      <trkpt lat="49.9331" lon="2.20439">
        <ele>13.8</ele>
        <time>2022-04-11T11:40:25Z</time>
      </trkpt>
      <trkpt lat="49.9331" lon="2.20439">
        <ele>13.8</ele>
        <time>2022-04-11T11:40:26Z</time>
      </trkpt>
      <trkpt lat="49.93311" lon="2.20439">
        <ele>13.8</ele>
        <time>2022-04-11T11:40:27Z</time>
      </trkpt>
      <trkpt lat="49.93311" lon="2.20439">
        <ele>13.8</ele>
        <time>2022-04-11T11:40:29Z</time>
      </trkpt>
      <trkpt lat="49.93312" lon="2.20439">
        <ele>13.8</ele>
        <time>2022-04-11T11:40:30Z</time>
      </trkpt>
      <trkpt lat="49.93311" lon="2.2044">
        <ele>13.8</ele>
        <time>2022-04-11T11:40:31Z</time>
      </trkpt>
      <trkpt lat="49.93311" lon="2.2044">
        <ele>13.8</ele>
        <time>2022-04-11T11:40:32Z</time>
      </trkpt>
      <trkpt lat="49.93311" lon="2.20441">
        <ele>13.8</ele>
        <time>2022-04-11T11:40:33Z</time>
      </trkpt>
      <trkpt lat="49.93311" lon="2.20441">
        <ele>13.8</ele>
        <time>2022-04-11T11:40:34Z</time>
      </trkpt>
      <trkpt lat="49.93311" lon="2.20441">
        <ele>13.8</ele>
        <time>2022-04-11T11:40:35Z</time>
      </trkpt>
      <trkpt lat="49.93311" lon="2.20441">
        <ele>13.8</ele>
        <time>2022-04-11T11:40:36Z</time>
      </trkpt>
      <trkpt lat="49.93311" lon="2.20441">
        <ele>13.8</ele>
        <time>2022-04-11T11:40:37Z</time>
      </trkpt>
      <trkpt lat="49.93311" lon="2.20441">
        <ele>13.8</ele>
        <time>2022-04-11T11:40:38Z</time>
      </trkpt>
      <trkpt lat="49.93312" lon="2.20441">
        <ele>13.8</ele>
        <time>2022-04-11T11:40:40Z</time>
      </trkpt>
      <trkpt lat="49.93312" lon="2.20441">
        <ele>13.8</ele>
        <time>2022-04-11T11:40:41Z</time>
      </trkpt>
      <trkpt lat="49.93313" lon="2.2044">
        <ele>13.8</ele>
        <time>2022-04-11T11:40:42Z</time>
      </trkpt>
      <trkpt lat="49.93313" lon="2.2044">
        <ele>13.8</ele>
        <time>2022-04-11T11:40:43Z</time>
      </trkpt>
      <trkpt lat="49.93314" lon="2.20439">
        <ele>13.8</ele>
        <time>2022-04-11T11:40:44Z</time>
      </trkpt>
      <trkpt lat="49.93315" lon="2.20438">
        <ele>13.8</ele>
        <time>2022-04-11T11:40:45Z</time>
      </trkpt>
      <trkpt lat="49.93315" lon="2.20437">
        <ele>13.8</ele>
        <time>2022-04-11T11:40:46Z</time>
      </trkpt>
      <trkpt lat="49.93316" lon="2.20436">
        <ele>13.8</ele>
        <time>2022-04-11T11:40:47Z</time>
      </trkpt>
      <trkpt lat="49.93315" lon="2.20436">
        <ele>13.8</ele>
        <time>2022-04-11T11:40:48Z</time>
      </trkpt>
      <trkpt lat="49.93315" lon="2.20435">
        <ele>13.8</ele>
        <time>2022-04-11T11:40:49Z</time>
      </trkpt>
      <trkpt lat="49.93315" lon="2.20434">
        <ele>13.8</ele>
        <time>2022-04-11T11:40:51Z</time>
      </trkpt>
      <trkpt lat="49.93315" lon="2.20433">
        <ele>13.8</ele>
        <time>2022-04-11T11:40:52Z</time>
      </trkpt>
      <trkpt lat="49.93315" lon="2.20433">
        <ele>13.8</ele>
        <time>2022-04-11T11:40:53Z</time>
      </trkpt>
      <trkpt lat="49.93315" lon="2.20433">
        <ele>13.8</ele>
        <time>2022-04-11T11:40:54Z</time>
      </trkpt>
      <trkpt lat="49.93315" lon="2.20434">
        <ele>13.8</ele>
        <time>2022-04-11T11:40:55Z</time>
      </trkpt>
      <trkpt lat="49.93315" lon="2.20434">
        <ele>13.8</ele>
        <time>2022-04-11T11:40:56Z</time>
      </trkpt>
      <trkpt lat="49.93316" lon="2.20433">
        <ele>13.8</ele>
        <time>2022-04-11T11:40:57Z</time>
      </trkpt>
      <trkpt lat="49.93316" lon="2.20433">
        <ele>13.8</ele>
        <time>2022-04-11T11:40:58Z</time>
      </trkpt>
      <trkpt lat="49.93316" lon="2.20433">
        <ele>13.8</ele>
        <time>2022-04-11T11:40:59Z</time>
      </trkpt>
      <trkpt lat="49.93316" lon="2.20433">
        <ele>13.8</ele>
        <time>2022-04-11T11:41:00Z</time>
      </trkpt>
      <trkpt lat="49.93316" lon="2.20433">
        <ele>13.8</ele>
        <time>2022-04-11T11:41:01Z</time>
      </trkpt>
      <trkpt lat="49.93317" lon="2.20433">
        <ele>13.8</ele>
        <time>2022-04-11T11:41:03Z</time>
      </trkpt>
      <trkpt lat="49.93317" lon="2.20432">
        <ele>13.8</ele>
        <time>2022-04-11T11:41:04Z</time>
      </trkpt>
      <trkpt lat="49.93318" lon="2.20431">
        <ele>13.8</ele>
        <time>2022-04-11T11:41:05Z</time>
      </trkpt>
      <trkpt lat="49.93319" lon="2.20431">
        <ele>13.8</ele>
        <time>2022-04-11T11:41:06Z</time>
      </trkpt>
      <trkpt lat="49.93319" lon="2.2043">
        <ele>13.8</ele>
        <time>2022-04-11T11:41:07Z</time>
      </trkpt>
      <trkpt lat="49.9332" lon="2.20429">
        <ele>13.8</ele>
        <time>2022-04-11T11:41:08Z</time>
      </trkpt>
      <trkpt lat="49.93321" lon="2.20428">
        <ele>13.7</ele>
        <time>2022-04-11T11:41:09Z</time>
      </trkpt>
      <trkpt lat="49.93322" lon="2.20426">
        <ele>13.7</ele>
        <time>2022-04-11T11:41:10Z</time>
      </trkpt>
      <trkpt lat="49.93322" lon="2.20425">
        <ele>13.7</ele>
        <time>2022-04-11T11:41:11Z</time>
      </trkpt>
      <trkpt lat="49.93322" lon="2.20424">
        <ele>13.7</ele>
        <time>2022-04-11T11:41:12Z</time>
      </trkpt>
      <trkpt lat="49.93323" lon="2.20423">
        <ele>13.7</ele>
        <time>2022-04-11T11:41:14Z</time>
      </trkpt>
      <trkpt lat="49.93323" lon="2.20422">
        <ele>13.7</ele>
        <time>2022-04-11T11:41:15Z</time>
      </trkpt>
      <trkpt lat="49.93324" lon="2.20421">
        <ele>13.7</ele>
        <time>2022-04-11T11:41:16Z</time>
      </trkpt>
      <trkpt lat="49.93325" lon="2.20421">
        <ele>13.7</ele>
        <time>2022-04-11T11:41:17Z</time>
      </trkpt>
      <trkpt lat="49.93326" lon="2.2042">
        <ele>13.7</ele>
        <time>2022-04-11T11:41:18Z</time>
      </trkpt>
      <trkpt lat="49.93326" lon="2.20419">
        <ele>13.7</ele>
        <time>2022-04-11T11:41:19Z</time>
      </trkpt>
      <trkpt lat="49.93327" lon="2.20419">
        <ele>13.7</ele>
        <time>2022-04-11T11:41:20Z</time>
      </trkpt>
      <trkpt lat="49.93327" lon="2.20419">
        <ele>13.7</ele>
        <time>2022-04-11T11:41:21Z</time>
      </trkpt>
      <trkpt lat="49.93327" lon="2.20419">
        <ele>13.7</ele>
        <time>2022-04-11T11:41:22Z</time>
      </trkpt>
      <trkpt lat="49.93327" lon="2.20419">
        <ele>13.7</ele>
        <time>2022-04-11T11:41:23Z</time>
      </trkpt>
      <trkpt lat="49.93328" lon="2.20419">
        <ele>13.7</ele>
        <time>2022-04-11T11:41:25Z</time>
      </trkpt>
      <trkpt lat="49.93329" lon="2.20418">
        <ele>13.7</ele>
        <time>2022-04-11T11:41:26Z</time>
      </trkpt>
      <trkpt lat="49.9333" lon="2.20417">
        <ele>13.7</ele>
        <time>2022-04-11T11:41:27Z</time>
      </trkpt>
      <trkpt lat="49.9333" lon="2.20417">
        <ele>13.7</ele>
        <time>2022-04-11T11:41:28Z</time>
      </trkpt>
      <trkpt lat="49.9333" lon="2.20416">
        <ele>13.7</ele>
        <time>2022-04-11T11:41:29Z</time>
      </trkpt>
      <trkpt lat="49.93331" lon="2.20415">
        <ele>13.7</ele>
        <time>2022-04-11T11:41:30Z</time>
      </trkpt>
      <trkpt lat="49.93332" lon="2.20414">
        <ele>13.7</ele>
        <time>2022-04-11T11:41:31Z</time>
      </trkpt>
      <trkpt lat="49.93333" lon="2.20413">
        <ele>13.6</ele>
        <time>2022-04-11T11:41:32Z</time>
      </trkpt>
      <trkpt lat="49.93333" lon="2.20413">
        <ele>13.6</ele>
        <time>2022-04-11T11:41:33Z</time>
      </trkpt>
      <trkpt lat="49.93333" lon="2.20412">
        <ele>13.6</ele>
        <time>2022-04-11T11:41:34Z</time>
      </trkpt>
      <trkpt lat="49.93334" lon="2.20411">
        <ele>13.6</ele>
        <time>2022-04-11T11:41:36Z</time>
      </trkpt>
      <trkpt lat="49.93335" lon="2.20411">
        <ele>13.6</ele>
        <time>2022-04-11T11:41:37Z</time>
      </trkpt>
      <trkpt lat="49.93334" lon="2.20409">
        <ele>13.6</ele>
        <time>2022-04-11T11:41:38Z</time>
      </trkpt>
      <trkpt lat="49.93335" lon="2.20408">
        <ele>13.6</ele>
        <time>2022-04-11T11:41:39Z</time>
      </trkpt>
      <trkpt lat="49.93336" lon="2.20406">
        <ele>13.6</ele>
        <time>2022-04-11T11:41:40Z</time>
      </trkpt>
      <trkpt lat="49.93336" lon="2.20405">
        <ele>13.6</ele>
        <time>2022-04-11T11:41:41Z</time>
      </trkpt>
      <trkpt lat="49.93337" lon="2.20403">
        <ele>13.6</ele>
        <time>2022-04-11T11:41:42Z</time>
      </trkpt>
      <trkpt lat="49.93337" lon="2.20401">
        <ele>13.6</ele>
        <time>2022-04-11T11:41:43Z</time>
      </trkpt>
      <trkpt lat="49.93338" lon="2.20399">
        <ele>13.6</ele>
        <time>2022-04-11T11:41:45Z</time>
      </trkpt>
      <trkpt lat="49.93339" lon="2.20397">
        <ele>13.6</ele>
        <time>2022-04-11T11:41:46Z</time>
      </trkpt>
      <trkpt lat="49.93339" lon="2.20396">
        <ele>13.6</ele>
        <time>2022-04-11T11:41:47Z</time>
      </trkpt>
      <trkpt lat="49.9334" lon="2.20394">
        <ele>13.6</ele>
        <time>2022-04-11T11:41:48Z</time>
      </trkpt>
      <trkpt lat="49.93341" lon="2.20392">
        <ele>13.6</ele>
        <time>2022-04-11T11:41:49Z</time>
      </trkpt>
      <trkpt lat="49.93342" lon="2.2039">
        <ele>13.6</ele>
        <time>2022-04-11T11:41:50Z</time>
      </trkpt>
      <trkpt lat="49.93344" lon="2.20389">
        <ele>13.6</ele>
        <time>2022-04-11T11:41:51Z</time>
      </trkpt>
      <trkpt lat="49.93345" lon="2.20387">
        <ele>13.6</ele>
        <time>2022-04-11T11:41:52Z</time>
      </trkpt>
      <trkpt lat="49.93346" lon="2.20386">
        <ele>13.6</ele>
        <time>2022-04-11T11:41:53Z</time>
      </trkpt>
      <trkpt lat="49.93348" lon="2.20384">
        <ele>13.6</ele>
        <time>2022-04-11T11:41:54Z</time>
      </trkpt>
      <trkpt lat="49.93349" lon="2.20383">
        <ele>13.6</ele>
        <time>2022-04-11T11:41:56Z</time>
      </trkpt>
      <trkpt lat="49.9335" lon="2.20381">
        <ele>13.6</ele>
        <time>2022-04-11T11:41:57Z</time>
      </trkpt>
      <trkpt lat="49.93353" lon="2.20379">
        <ele>13.6</ele>
        <time>2022-04-11T11:41:58Z</time>
      </trkpt>
      <trkpt lat="49.93354" lon="2.20378">
        <ele>13.6</ele>
        <time>2022-04-11T11:41:59Z</time>
      </trkpt>
      <trkpt lat="49.93356" lon="2.20376">
        <ele>13.5</ele>
        <time>2022-04-11T11:42:00Z</time>
      </trkpt>
      <trkpt lat="49.93357" lon="2.20375">
        <ele>13.5</ele>
        <time>2022-04-11T11:42:01Z</time>
      </trkpt>
      <trkpt lat="49.93358" lon="2.20373">
        <ele>13.5</ele>
        <time>2022-04-11T11:42:02Z</time>
      </trkpt>
      <trkpt lat="49.93359" lon="2.20371">
        <ele>13.5</ele>
        <time>2022-04-11T11:42:03Z</time>
      </trkpt>
      <trkpt lat="49.93361" lon="2.2037">
        <ele>13.5</ele>
        <time>2022-04-11T11:42:04Z</time>
      </trkpt>
      <trkpt lat="49.93362" lon="2.20368">
        <ele>13.5</ele>
        <time>2022-04-11T11:42:05Z</time>
      </trkpt>
      <trkpt lat="49.93364" lon="2.20365">
        <ele>13.5</ele>
        <time>2022-04-11T11:42:06Z</time>
      </trkpt>
      <trkpt lat="49.93365" lon="2.20364">
        <ele>13.5</ele>
        <time>2022-04-11T11:42:08Z</time>
      </trkpt>
      <trkpt lat="49.93366" lon="2.20362">
        <ele>13.5</ele>
        <time>2022-04-11T11:42:09Z</time>
      </trkpt>
      <trkpt lat="49.93367" lon="2.20361">
        <ele>13.5</ele>
        <time>2022-04-11T11:42:10Z</time>
      </trkpt>
      <trkpt lat="49.93369" lon="2.2036">
        <ele>13.5</ele>
        <time>2022-04-11T11:42:11Z</time>
      </trkpt>
      <trkpt lat="49.9337" lon="2.20358">
        <ele>13.5</ele>
        <time>2022-04-11T11:42:12Z</time>
      </trkpt>
      <trkpt lat="49.93372" lon="2.20357">
        <ele>13.5</ele>
        <time>2022-04-11T11:42:14Z</time>
      </trkpt>
      <trkpt lat="49.93373" lon="2.20356">
        <ele>13.4</ele>
        <time>2022-04-11T11:42:15Z</time>
      </trkpt>
      <trkpt lat="49.93374" lon="2.20355">
        <ele>13.4</ele>
        <time>2022-04-11T11:42:16Z</time>
      </trkpt>
      <trkpt lat="49.93375" lon="2.20354">
        <ele>13.4</ele>
        <time>2022-04-11T11:42:17Z</time>
      </trkpt>
      <trkpt lat="49.93376" lon="2.20353">
        <ele>13.4</ele>
        <time>2022-04-11T11:42:18Z</time>
      </trkpt>
      <trkpt lat="49.93378" lon="2.20351">
        <ele>13.4</ele>
        <time>2022-04-11T11:42:19Z</time>
      </trkpt>
      <trkpt lat="49.93378" lon="2.2035">
        <ele>13.4</ele>
        <time>2022-04-11T11:42:20Z</time>
      </trkpt>
      <trkpt lat="49.93379" lon="2.20349">
        <ele>13.4</ele>
        <time>2022-04-11T11:42:21Z</time>
      </trkpt>
      <trkpt lat="49.93379" lon="2.20348">
        <ele>13.4</ele>
        <time>2022-04-11T11:42:22Z</time>
      </trkpt>
      <trkpt lat="49.9338" lon="2.20347">
        <ele>13.4</ele>
        <time>2022-04-11T11:42:23Z</time>
      </trkpt>
      <trkpt lat="49.93381" lon="2.20345">
        <ele>13.4</ele>
        <time>2022-04-11T11:42:25Z</time>
      </trkpt>
      <trkpt lat="49.93381" lon="2.20344">
        <ele>13.4</ele>
        <time>2022-04-11T11:42:26Z</time>
      </trkpt>
      <trkpt lat="49.93382" lon="2.20343">
        <ele>13.4</ele>
        <time>2022-04-11T11:42:27Z</time>
      </trkpt>
      <trkpt lat="49.93382" lon="2.20342">
        <ele>13.4</ele>
        <time>2022-04-11T11:42:28Z</time>
      </trkpt>
      <trkpt lat="49.93384" lon="2.20339">
        <ele>13.4</ele>
        <time>2022-04-11T11:42:29Z</time>
      </trkpt>
      <trkpt lat="49.93384" lon="2.20338">
        <ele>13.4</ele>
        <time>2022-04-11T11:42:30Z</time>
      </trkpt>
      <trkpt lat="49.93385" lon="2.20338">
        <ele>13.4</ele>
        <time>2022-04-11T11:42:31Z</time>
      </trkpt>
      <trkpt lat="49.93386" lon="2.20336">
        <ele>13.4</ele>
        <time>2022-04-11T11:42:32Z</time>
      </trkpt>
      <trkpt lat="49.93387" lon="2.20334">
        <ele>13.4</ele>
        <time>2022-04-11T11:42:33Z</time>
      </trkpt>
      <trkpt lat="49.93387" lon="2.20333">
        <ele>13.4</ele>
        <time>2022-04-11T11:42:34Z</time>
      </trkpt>
      <trkpt lat="49.93388" lon="2.20331">
        <ele>13.4</ele>
        <time>2022-04-11T11:42:35Z</time>
      </trkpt>
      <trkpt lat="49.93389" lon="2.20329">
        <ele>13.4</ele>
        <time>2022-04-11T11:42:37Z</time>
      </trkpt>
      <trkpt lat="49.9339" lon="2.20328">
        <ele>13.4</ele>
        <time>2022-04-11T11:42:38Z</time>
      </trkpt>
      <trkpt lat="49.93391" lon="2.20327">
        <ele>13.4</ele>
        <time>2022-04-11T11:42:39Z</time>
      </trkpt>
      <trkpt lat="49.93392" lon="2.20326">
        <ele>13.4</ele>
        <time>2022-04-11T11:42:40Z</time>
      </trkpt>
      <trkpt lat="49.93392" lon="2.20325">
        <ele>13.4</ele>
        <time>2022-04-11T11:42:41Z</time>
      </trkpt>
      <trkpt lat="49.93393" lon="2.20324">
        <ele>13.4</ele>
        <time>2022-04-11T11:42:42Z</time>
      </trkpt>
      <trkpt lat="49.93394" lon="2.20322">
        <ele>13.4</ele>
        <time>2022-04-11T11:42:43Z</time>
      </trkpt>
      <trkpt lat="49.93395" lon="2.20321">
        <ele>13.4</ele>
        <time>2022-04-11T11:42:44Z</time>
      </trkpt>
      <trkpt lat="49.93396" lon="2.2032">
        <ele>13.4</ele>
        <time>2022-04-11T11:42:45Z</time>
      </trkpt>
      <trkpt lat="49.93396" lon="2.20319">
        <ele>13.4</ele>
        <time>2022-04-11T11:42:46Z</time>
      </trkpt>
      <trkpt lat="49.93397" lon="2.20318">
        <ele>13.4</ele>
        <time>2022-04-11T11:42:47Z</time>
      </trkpt>
      <trkpt lat="49.93398" lon="2.20317">
        <ele>13.4</ele>
        <time>2022-04-11T11:42:49Z</time>
      </trkpt>
      <trkpt lat="49.93398" lon="2.20316">
        <ele>13.4</ele>
        <time>2022-04-11T11:42:50Z</time>
      </trkpt>
      <trkpt lat="49.93399" lon="2.20316">
        <ele>13.4</ele>
        <time>2022-04-11T11:42:51Z</time>
      </trkpt>
      <trkpt lat="49.93399" lon="2.20317">
        <ele>13.4</ele>
        <time>2022-04-11T11:42:52Z</time>
      </trkpt>
      <trkpt lat="49.934" lon="2.20317">
        <ele>13.4</ele>
        <time>2022-04-11T11:42:53Z</time>
      </trkpt>
      <trkpt lat="49.934" lon="2.20317">
        <ele>13.4</ele>
        <time>2022-04-11T11:42:54Z</time>
      </trkpt>
      <trkpt lat="49.93401" lon="2.20316">
        <ele>13.4</ele>
        <time>2022-04-11T11:42:55Z</time>
      </trkpt>
      <trkpt lat="49.93402" lon="2.20315">
        <ele>13.4</ele>
        <time>2022-04-11T11:42:56Z</time>
      </trkpt>
      <trkpt lat="49.93404" lon="2.20314">
        <ele>13.4</ele>
        <time>2022-04-11T11:42:57Z</time>
      </trkpt>
      <trkpt lat="49.93405" lon="2.20313">
        <ele>13.4</ele>
        <time>2022-04-11T11:42:59Z</time>
      </trkpt>
      <trkpt lat="49.93404" lon="2.20312">
        <ele>13.4</ele>
        <time>2022-04-11T11:43:00Z</time>
      </trkpt>
      <trkpt lat="49.93403" lon="2.20312">
        <ele>13.4</ele>
        <time>2022-04-11T11:43:01Z</time>
      </trkpt>
      <trkpt lat="49.93402" lon="2.20312">
        <ele>13.4</ele>
        <time>2022-04-11T11:43:02Z</time>
      </trkpt>
      <trkpt lat="49.93402" lon="2.20313">
        <ele>13.4</ele>
        <time>2022-04-11T11:43:03Z</time>
      </trkpt>
      <trkpt lat="49.93402" lon="2.20312">
        <ele>13.4</ele>
        <time>2022-04-11T11:43:04Z</time>
      </trkpt>
      <trkpt lat="49.93402" lon="2.20312">
        <ele>13.4</ele>
        <time>2022-04-11T11:43:06Z</time>
      </trkpt>
      <trkpt lat="49.93403" lon="2.20311">
        <ele>13.4</ele>
        <time>2022-04-11T11:43:07Z</time>
      </trkpt>
      <trkpt lat="49.93404" lon="2.2031">
        <ele>13.3</ele>
        <time>2022-04-11T11:43:08Z</time>
      </trkpt>
      <trkpt lat="49.93404" lon="2.20309">
        <ele>13.3</ele>
        <time>2022-04-11T11:43:09Z</time>
      </trkpt>
      <trkpt lat="49.93404" lon="2.20308">
        <ele>13.3</ele>
        <time>2022-04-11T11:43:10Z</time>
      </trkpt>
      <trkpt lat="49.93405" lon="2.20307">
        <ele>13.3</ele>
        <time>2022-04-11T11:43:11Z</time>
      </trkpt>
      <trkpt lat="49.93405" lon="2.20306">
        <ele>13.3</ele>
        <time>2022-04-11T11:43:12Z</time>
      </trkpt>
      <trkpt lat="49.93406" lon="2.20304">
        <ele>13.3</ele>
        <time>2022-04-11T11:43:13Z</time>
      </trkpt>
      <trkpt lat="49.93406" lon="2.20303">
        <ele>13.3</ele>
        <time>2022-04-11T11:43:14Z</time>
      </trkpt>
      <trkpt lat="49.93407" lon="2.20303">
        <ele>13.3</ele>
        <time>2022-04-11T11:43:15Z</time>
      </trkpt>
      <trkpt lat="49.93408" lon="2.20302">
        <ele>13.3</ele>
        <time>2022-04-11T11:43:16Z</time>
      </trkpt>
      <trkpt lat="49.93408" lon="2.20301">
        <ele>13.3</ele>
        <time>2022-04-11T11:43:18Z</time>
      </trkpt>
      <trkpt lat="49.93409" lon="2.203">
        <ele>13.3</ele>
        <time>2022-04-11T11:43:19Z</time>
      </trkpt>
      <trkpt lat="49.9341" lon="2.203">
        <ele>13.3</ele>
        <time>2022-04-11T11:43:20Z</time>
      </trkpt>
      <trkpt lat="49.9341" lon="2.20299">
        <ele>13.3</ele>
        <time>2022-04-11T11:43:21Z</time>
      </trkpt>
      <trkpt lat="49.93414" lon="2.20295">
        <ele>13.3</ele>
        <time>2022-04-11T11:43:22Z</time>
      </trkpt>
      <trkpt lat="49.93416" lon="2.20292">
        <ele>13.3</ele>
        <time>2022-04-11T11:43:23Z</time>
      </trkpt>
      <trkpt lat="49.93418" lon="2.2029">
        <ele>13.3</ele>
        <time>2022-04-11T11:43:24Z</time>
      </trkpt>
      <trkpt lat="49.93421" lon="2.20287">
        <ele>13.3</ele>
        <time>2022-04-11T11:43:25Z</time>
      </trkpt>
      <trkpt lat="49.93423" lon="2.20284">
        <ele>13.3</ele>
        <time>2022-04-11T11:43:26Z</time>
      </trkpt>
      <trkpt lat="49.93425" lon="2.20281">
        <ele>13.3</ele>
        <time>2022-04-11T11:43:27Z</time>
      </trkpt>
      <trkpt lat="49.93428" lon="2.20278">
        <ele>13.3</ele>
        <time>2022-04-11T11:43:29Z</time>
      </trkpt>
      <trkpt lat="49.9343" lon="2.20275">
        <ele>13.3</ele>
        <time>2022-04-11T11:43:30Z</time>
      </trkpt>
      <trkpt lat="49.93432" lon="2.20272">
        <ele>13.3</ele>
        <time>2022-04-11T11:43:31Z</time>
      </trkpt>
      <trkpt lat="49.93435" lon="2.2027">
        <ele>13.3</ele>
        <time>2022-04-11T11:43:32Z</time>
      </trkpt>
      <trkpt lat="49.93437" lon="2.20267">
        <ele>13.3</ele>
        <time>2022-04-11T11:43:33Z</time>
      </trkpt>
      <trkpt lat="49.93439" lon="2.20264">
        <ele>13.3</ele>
        <time>2022-04-11T11:43:34Z</time>
      </trkpt>
      <trkpt lat="49.93463" lon="2.20233">
        <ele>13.3</ele>
        <time>2022-04-11T11:43:35Z</time>
      </trkpt>
      <trkpt lat="49.93477" lon="2.20217">
        <ele>13.3</ele>
        <time>2022-04-11T11:43:36Z</time>
      </trkpt>
      <trkpt lat="49.9348" lon="2.20213">
        <ele>13.3</ele>
        <time>2022-04-11T11:43:37Z</time>
      </trkpt>
      <trkpt lat="49.93482" lon="2.20212">
        <ele>13.3</ele>
        <time>2022-04-11T11:43:38Z</time>
      </trkpt>
      <trkpt lat="49.93483" lon="2.20211">
        <ele>13.3</ele>
        <time>2022-04-11T11:43:40Z</time>
      </trkpt>
      <trkpt lat="49.93483" lon="2.2021">
        <ele>13.3</ele>
        <time>2022-04-11T11:43:41Z</time>
      </trkpt>
      <trkpt lat="49.93484" lon="2.20209">
        <ele>13.3</ele>
        <time>2022-04-11T11:43:42Z</time>
      </trkpt>
      <trkpt lat="49.93485" lon="2.20209">
        <ele>13.3</ele>
        <time>2022-04-11T11:43:43Z</time>
      </trkpt>
      <trkpt lat="49.93485" lon="2.20208">
        <ele>13.3</ele>
        <time>2022-04-11T11:43:44Z</time>
      </trkpt>
      <trkpt lat="49.93486" lon="2.20207">
        <ele>13.3</ele>
        <time>2022-04-11T11:43:45Z</time>
      </trkpt>
      <trkpt lat="49.93487" lon="2.20206">
        <ele>13.3</ele>
        <time>2022-04-11T11:43:46Z</time>
      </trkpt>
      <trkpt lat="49.93487" lon="2.20204">
        <ele>13.3</ele>
        <time>2022-04-11T11:43:47Z</time>
      </trkpt>
      <trkpt lat="49.93488" lon="2.20203">
        <ele>13.3</ele>
        <time>2022-04-11T11:43:48Z</time>
      </trkpt>
      <trkpt lat="49.93488" lon="2.20201">
        <ele>13.3</ele>
        <time>2022-04-11T11:43:49Z</time>
      </trkpt>
      <trkpt lat="49.93489" lon="2.202">
        <ele>13.3</ele>
        <time>2022-04-11T11:43:50Z</time>
      </trkpt>
      <trkpt lat="49.93489" lon="2.20199">
        <ele>13.3</ele>
        <time>2022-04-11T11:43:52Z</time>
      </trkpt>
      <trkpt lat="49.93489" lon="2.20198">
        <ele>13.3</ele>
        <time>2022-04-11T11:43:53Z</time>
      </trkpt>
      <trkpt lat="49.9349" lon="2.20197">
        <ele>13.3</ele>
        <time>2022-04-11T11:43:54Z</time>
      </trkpt>
      <trkpt lat="49.93491" lon="2.20197">
        <ele>13.3</ele>
        <time>2022-04-11T11:43:55Z</time>
      </trkpt>
      <trkpt lat="49.93491" lon="2.20196">
        <ele>13.3</ele>
        <time>2022-04-11T11:43:56Z</time>
      </trkpt>
      <trkpt lat="49.93491" lon="2.20195">
        <ele>13.3</ele>
        <time>2022-04-11T11:43:57Z</time>
      </trkpt>
      <trkpt lat="49.93492" lon="2.20194">
        <ele>13.3</ele>
        <time>2022-04-11T11:43:58Z</time>
      </trkpt>
      <trkpt lat="49.93493" lon="2.20194">
        <ele>13.3</ele>
        <time>2022-04-11T11:43:59Z</time>
      </trkpt>
      <trkpt lat="49.93493" lon="2.20193">
        <ele>13.3</ele>
        <time>2022-04-11T11:44:00Z</time>
      </trkpt>
      <trkpt lat="49.93493" lon="2.20193">
        <ele>13.3</ele>
        <time>2022-04-11T11:44:01Z</time>
      </trkpt>
      <trkpt lat="49.93494" lon="2.20192">
        <ele>13.3</ele>
        <time>2022-04-11T11:44:02Z</time>
      </trkpt>
      <trkpt lat="49.93494" lon="2.20192">
        <ele>13.3</ele>
        <time>2022-04-11T11:44:04Z</time>
      </trkpt>
      <trkpt lat="49.93495" lon="2.20191">
        <ele>13.3</ele>
        <time>2022-04-11T11:44:05Z</time>
      </trkpt>
      <trkpt lat="49.93495" lon="2.20191">
        <ele>13.3</ele>
        <time>2022-04-11T11:44:06Z</time>
      </trkpt>
      <trkpt lat="49.93494" lon="2.20192">
        <ele>13.3</ele>
        <time>2022-04-11T11:44:07Z</time>
      </trkpt>
      <trkpt lat="49.93495" lon="2.2019">
        <ele>13.3</ele>
        <time>2022-04-11T11:44:08Z</time>
      </trkpt>
      <trkpt lat="49.93496" lon="2.20189">
        <ele>13.3</ele>
        <time>2022-04-11T11:44:09Z</time>
      </trkpt>
      <trkpt lat="49.93498" lon="2.20187">
        <ele>13.3</ele>
        <time>2022-04-11T11:44:10Z</time>
      </trkpt>
      <trkpt lat="49.935" lon="2.20184">
        <ele>13.3</ele>
        <time>2022-04-11T11:44:11Z</time>
      </trkpt>
      <trkpt lat="49.93501" lon="2.20183">
        <ele>13.3</ele>
        <time>2022-04-11T11:44:12Z</time>
      </trkpt>
      <trkpt lat="49.93503" lon="2.2018">
        <ele>13.3</ele>
        <time>2022-04-11T11:44:13Z</time>
      </trkpt>
      <trkpt lat="49.93506" lon="2.20175">
        <ele>13.3</ele>
        <time>2022-04-11T11:44:15Z</time>
      </trkpt>
      <trkpt lat="49.93507" lon="2.20174">
        <ele>13.3</ele>
        <time>2022-04-11T11:44:16Z</time>
      </trkpt>
      <trkpt lat="49.93509" lon="2.20172">
        <ele>13.3</ele>
        <time>2022-04-11T11:44:17Z</time>
      </trkpt>
      <trkpt lat="49.93511" lon="2.20169">
        <ele>13.3</ele>
        <time>2022-04-11T11:44:18Z</time>
      </trkpt>
      <trkpt lat="49.93511" lon="2.20168">
        <ele>13.3</ele>
        <time>2022-04-11T11:44:19Z</time>
      </trkpt>
      <trkpt lat="49.93512" lon="2.20166">
        <ele>13.3</ele>
        <time>2022-04-11T11:44:20Z</time>
      </trkpt>
      <trkpt lat="49.93514" lon="2.20164">
        <ele>13.3</ele>
        <time>2022-04-11T11:44:21Z</time>
      </trkpt>
      <trkpt lat="49.93515" lon="2.20162">
        <ele>13.3</ele>
        <time>2022-04-11T11:44:22Z</time>
      </trkpt>
      <trkpt lat="49.93516" lon="2.20161">
        <ele>13.3</ele>
        <time>2022-04-11T11:44:23Z</time>
      </trkpt>
      <trkpt lat="49.93517" lon="2.20159">
        <ele>13.3</ele>
        <time>2022-04-11T11:44:24Z</time>
      </trkpt>
      <trkpt lat="49.93519" lon="2.20157">
        <ele>13.3</ele>
        <time>2022-04-11T11:44:26Z</time>
      </trkpt>
      <trkpt lat="49.9352" lon="2.20155">
        <ele>13.3</ele>
        <time>2022-04-11T11:44:27Z</time>
      </trkpt>
      <trkpt lat="49.93521" lon="2.20154">
        <ele>13.3</ele>
        <time>2022-04-11T11:44:28Z</time>
      </trkpt>
      <trkpt lat="49.93522" lon="2.20153">
        <ele>13.3</ele>
        <time>2022-04-11T11:44:29Z</time>
      </trkpt>
      <trkpt lat="49.93524" lon="2.20152">
        <ele>13.3</ele>
        <time>2022-04-11T11:44:30Z</time>
      </trkpt>
      <trkpt lat="49.93525" lon="2.20151">
        <ele>13.3</ele>
        <time>2022-04-11T11:44:31Z</time>
      </trkpt>
      <trkpt lat="49.93526" lon="2.2015">
        <ele>13.3</ele>
        <time>2022-04-11T11:44:32Z</time>
      </trkpt>
      <trkpt lat="49.93527" lon="2.20149">
        <ele>13.3</ele>
        <time>2022-04-11T11:44:33Z</time>
      </trkpt>
      <trkpt lat="49.93527" lon="2.20148">
        <ele>13.3</ele>
        <time>2022-04-11T11:44:34Z</time>
      </trkpt>
      <trkpt lat="49.93528" lon="2.20147">
        <ele>13.3</ele>
        <time>2022-04-11T11:44:36Z</time>
      </trkpt>
      <trkpt lat="49.93528" lon="2.20145">
        <ele>13.3</ele>
        <time>2022-04-11T11:44:37Z</time>
      </trkpt>
      <trkpt lat="49.93529" lon="2.20144">
        <ele>13.3</ele>
        <time>2022-04-11T11:44:38Z</time>
      </trkpt>
      <trkpt lat="49.9353" lon="2.20143">
        <ele>13.3</ele>
        <time>2022-04-11T11:44:39Z</time>
      </trkpt>
      <trkpt lat="49.93531" lon="2.20141">
        <ele>13.3</ele>
        <time>2022-04-11T11:44:40Z</time>
      </trkpt>
      <trkpt lat="49.93532" lon="2.20139">
        <ele>13.3</ele>
        <time>2022-04-11T11:44:41Z</time>
      </trkpt>
      <trkpt lat="49.93532" lon="2.20138">
        <ele>13.3</ele>
        <time>2022-04-11T11:44:42Z</time>
      </trkpt>
      <trkpt lat="49.93533" lon="2.20136">
        <ele>13.3</ele>
        <time>2022-04-11T11:44:43Z</time>
      </trkpt>
      <trkpt lat="49.93533" lon="2.20135">
        <ele>13.3</ele>
        <time>2022-04-11T11:44:44Z</time>
      </trkpt>
      <trkpt lat="49.93534" lon="2.20133">
        <ele>13.3</ele>
        <time>2022-04-11T11:44:46Z</time>
      </trkpt>
      <trkpt lat="49.93535" lon="2.20132">
        <ele>13.3</ele>
        <time>2022-04-11T11:44:47Z</time>
      </trkpt>
      <trkpt lat="49.93536" lon="2.2013">
        <ele>13.3</ele>
        <time>2022-04-11T11:44:48Z</time>
      </trkpt>
      <trkpt lat="49.93536" lon="2.20129">
        <ele>13.3</ele>
        <time>2022-04-11T11:44:49Z</time>
      </trkpt>
      <trkpt lat="49.93537" lon="2.20128">
        <ele>13.3</ele>
        <time>2022-04-11T11:44:50Z</time>
      </trkpt>
      <trkpt lat="49.93537" lon="2.20127">
        <ele>13.3</ele>
        <time>2022-04-11T11:44:51Z</time>
      </trkpt>
      <trkpt lat="49.93539" lon="2.20124">
        <ele>13.3</ele>
        <time>2022-04-11T11:44:52Z</time>
      </trkpt>
      <trkpt lat="49.9354" lon="2.20123">
        <ele>13.3</ele>
        <time>2022-04-11T11:44:53Z</time>
      </trkpt>
      <trkpt lat="49.93542" lon="2.2012">
        <ele>13.4</ele>
        <time>2022-04-11T11:44:54Z</time>
      </trkpt>
      <trkpt lat="49.93542" lon="2.20119">
        <ele>13.4</ele>
        <time>2022-04-11T11:44:55Z</time>
      </trkpt>
      <trkpt lat="49.93543" lon="2.20117">
        <ele>13.4</ele>
        <time>2022-04-11T11:44:57Z</time>
      </trkpt>
      <trkpt lat="49.93544" lon="2.20116">
        <ele>13.4</ele>
        <time>2022-04-11T11:44:58Z</time>
      </trkpt>
      <trkpt lat="49.93545" lon="2.20115">
        <ele>13.4</ele>
        <time>2022-04-11T11:44:59Z</time>
      </trkpt>
      <trkpt lat="49.93546" lon="2.20114">
        <ele>13.4</ele>
        <time>2022-04-11T11:45:00Z</time>
      </trkpt>
      <trkpt lat="49.93547" lon="2.20112">
        <ele>13.4</ele>
        <time>2022-04-11T11:45:01Z</time>
      </trkpt>
      <trkpt lat="49.93548" lon="2.20111">
        <ele>13.4</ele>
        <time>2022-04-11T11:45:02Z</time>
      </trkpt>
      <trkpt lat="49.93548" lon="2.2011">
        <ele>13.4</ele>
        <time>2022-04-11T11:45:03Z</time>
      </trkpt>
      <trkpt lat="49.93549" lon="2.20109">
        <ele>13.4</ele>
        <time>2022-04-11T11:45:04Z</time>
      </trkpt>
      <trkpt lat="49.9355" lon="2.20108">
        <ele>13.4</ele>
        <time>2022-04-11T11:45:06Z</time>
      </trkpt>
      <trkpt lat="49.93551" lon="2.20107">
        <ele>13.4</ele>
        <time>2022-04-11T11:45:07Z</time>
      </trkpt>
      <trkpt lat="49.93552" lon="2.20106">
        <ele>13.4</ele>
        <time>2022-04-11T11:45:08Z</time>
      </trkpt>
      <trkpt lat="49.93553" lon="2.20105">
        <ele>13.5</ele>
        <time>2022-04-11T11:45:09Z</time>
      </trkpt>
      <trkpt lat="49.93554" lon="2.20103">
        <ele>13.5</ele>
        <time>2022-04-11T11:45:10Z</time>
      </trkpt>
      <trkpt lat="49.93555" lon="2.20102">
        <ele>13.5</ele>
        <time>2022-04-11T11:45:11Z</time>
      </trkpt>
      <trkpt lat="49.93556" lon="2.20102">
        <ele>13.5</ele>
        <time>2022-04-11T11:45:12Z</time>
      </trkpt>
      <trkpt lat="49.93556" lon="2.20101">
        <ele>13.5</ele>
        <time>2022-04-11T11:45:13Z</time>
      </trkpt>
      <trkpt lat="49.93558" lon="2.201">
        <ele>13.5</ele>
        <time>2022-04-11T11:45:15Z</time>
      </trkpt>
      <trkpt lat="49.93559" lon="2.20099">
        <ele>13.5</ele>
        <time>2022-04-11T11:45:16Z</time>
      </trkpt>
      <trkpt lat="49.9356" lon="2.20099">
        <ele>13.5</ele>
        <time>2022-04-11T11:45:17Z</time>
      </trkpt>
      <trkpt lat="49.9356" lon="2.20098">
        <ele>13.5</ele>
        <time>2022-04-11T11:45:18Z</time>
      </trkpt>
      <trkpt lat="49.93561" lon="2.20098">
        <ele>13.5</ele>
        <time>2022-04-11T11:45:19Z</time>
      </trkpt>
      <trkpt lat="49.93563" lon="2.201">
        <ele>13.4</ele>
        <time>2022-04-11T11:45:20Z</time>
      </trkpt>
      <trkpt lat="49.93564" lon="2.20101">
        <ele>13.4</ele>
        <time>2022-04-11T11:45:21Z</time>
      </trkpt>
      <trkpt lat="49.93564" lon="2.20102">
        <ele>13.4</ele>
        <time>2022-04-11T11:45:22Z</time>
      </trkpt>
      <trkpt lat="49.93566" lon="2.20104">
        <ele>13.4</ele>
        <time>2022-04-11T11:45:23Z</time>
      </trkpt>
      <trkpt lat="49.93566" lon="2.20105">
        <ele>13.4</ele>
        <time>2022-04-11T11:45:25Z</time>
      </trkpt>
      <trkpt lat="49.93567" lon="2.20106">
        <ele>13.4</ele>
        <time>2022-04-11T11:45:26Z</time>
      </trkpt>
      <trkpt lat="49.93568" lon="2.20107">
        <ele>13.4</ele>
        <time>2022-04-11T11:45:27Z</time>
      </trkpt>
      <trkpt lat="49.93569" lon="2.20108">
        <ele>13.4</ele>
        <time>2022-04-11T11:45:28Z</time>
      </trkpt>
      <trkpt lat="49.9357" lon="2.20109">
        <ele>13.4</ele>
        <time>2022-04-11T11:45:29Z</time>
      </trkpt>
      <trkpt lat="49.93571" lon="2.2011">
        <ele>13.4</ele>
        <time>2022-04-11T11:45:30Z</time>
      </trkpt>
      <trkpt lat="49.93572" lon="2.20111">
        <ele>13.4</ele>
        <time>2022-04-11T11:45:31Z</time>
      </trkpt>
      <trkpt lat="49.93573" lon="2.20112">
        <ele>13.3</ele>
        <time>2022-04-11T11:45:32Z</time>
      </trkpt>
      <trkpt lat="49.93574" lon="2.20113">
        <ele>13.3</ele>
        <time>2022-04-11T11:45:34Z</time>
      </trkpt>
      <trkpt lat="49.93575" lon="2.20113">
        <ele>13.3</ele>
        <time>2022-04-11T11:45:35Z</time>
      </trkpt>
      <trkpt lat="49.93576" lon="2.20114">
        <ele>13.3</ele>
        <time>2022-04-11T11:45:36Z</time>
      </trkpt>
      <trkpt lat="49.93576" lon="2.20114">
        <ele>13.3</ele>
        <time>2022-04-11T11:45:37Z</time>
      </trkpt>
      <trkpt lat="49.93577" lon="2.20114">
        <ele>13.3</ele>
        <time>2022-04-11T11:45:38Z</time>
      </trkpt>
      <trkpt lat="49.93578" lon="2.20114">
        <ele>13.3</ele>
        <time>2022-04-11T11:45:39Z</time>
      </trkpt>
      <trkpt lat="49.9358" lon="2.20115">
        <ele>13.3</ele>
        <time>2022-04-11T11:45:40Z</time>
      </trkpt>
      <trkpt lat="49.93581" lon="2.20115">
        <ele>13.3</ele>
        <time>2022-04-11T11:45:41Z</time>
      </trkpt>
      <trkpt lat="49.93582" lon="2.20116">
        <ele>13.3</ele>
        <time>2022-04-11T11:45:42Z</time>
      </trkpt>
      <trkpt lat="49.93583" lon="2.20116">
        <ele>13.3</ele>
        <time>2022-04-11T11:45:44Z</time>
      </trkpt>
      <trkpt lat="49.93584" lon="2.20117">
        <ele>13.3</ele>
        <time>2022-04-11T11:45:45Z</time>
      </trkpt>
      <trkpt lat="49.93584" lon="2.20117">
        <ele>13.2</ele>
        <time>2022-04-11T11:45:46Z</time>
      </trkpt>
      <trkpt lat="49.93585" lon="2.20118">
        <ele>13.2</ele>
        <time>2022-04-11T11:45:47Z</time>
      </trkpt>
      <trkpt lat="49.93585" lon="2.20118">
        <ele>13.2</ele>
        <time>2022-04-11T11:45:48Z</time>
      </trkpt>
      <trkpt lat="49.93586" lon="2.20118">
        <ele>13.2</ele>
        <time>2022-04-11T11:45:49Z</time>
      </trkpt>
      <trkpt lat="49.93587" lon="2.20118">
        <ele>13.2</ele>
        <time>2022-04-11T11:45:50Z</time>
      </trkpt>
      <trkpt lat="49.93588" lon="2.20119">
        <ele>13.2</ele>
        <time>2022-04-11T11:45:51Z</time>
      </trkpt>
      <trkpt lat="49.93589" lon="2.2012">
        <ele>13.2</ele>
        <time>2022-04-11T11:45:52Z</time>
      </trkpt>
      <trkpt lat="49.9359" lon="2.20122">
        <ele>13.2</ele>
        <time>2022-04-11T11:45:54Z</time>
      </trkpt>
      <trkpt lat="49.93591" lon="2.20123">
        <ele>13.2</ele>
        <time>2022-04-11T11:45:55Z</time>
      </trkpt>
      <trkpt lat="49.93592" lon="2.20124">
        <ele>13.2</ele>
        <time>2022-04-11T11:45:56Z</time>
      </trkpt>
      <trkpt lat="49.93593" lon="2.20126">
        <ele>13.2</ele>
        <time>2022-04-11T11:45:57Z</time>
      </trkpt>
      <trkpt lat="49.93594" lon="2.20128">
        <ele>13.2</ele>
        <time>2022-04-11T11:45:58Z</time>
      </trkpt>
      <trkpt lat="49.93595" lon="2.20129">
        <ele>13.2</ele>
        <time>2022-04-11T11:45:59Z</time>
      </trkpt>
      <trkpt lat="49.93596" lon="2.2013">
        <ele>13.2</ele>
        <time>2022-04-11T11:46:00Z</time>
      </trkpt>
      <trkpt lat="49.93596" lon="2.20132">
        <ele>13.2</ele>
        <time>2022-04-11T11:46:01Z</time>
      </trkpt>
      <trkpt lat="49.93598" lon="2.20133">
        <ele>13.2</ele>
        <time>2022-04-11T11:46:02Z</time>
      </trkpt>
      <trkpt lat="49.93599" lon="2.20134">
        <ele>13.2</ele>
        <time>2022-04-11T11:46:04Z</time>
      </trkpt>
      <trkpt lat="49.936" lon="2.20135">
        <ele>13.2</ele>
        <time>2022-04-11T11:46:05Z</time>
      </trkpt>
      <trkpt lat="49.93601" lon="2.20136">
        <ele>13.1</ele>
        <time>2022-04-11T11:46:06Z</time>
      </trkpt>
      <trkpt lat="49.93603" lon="2.20137">
        <ele>13.1</ele>
        <time>2022-04-11T11:46:07Z</time>
      </trkpt>
      <trkpt lat="49.93603" lon="2.20137">
        <ele>13.1</ele>
        <time>2022-04-11T11:46:08Z</time>
      </trkpt>
      <trkpt lat="49.93604" lon="2.20138">
        <ele>13.1</ele>
        <time>2022-04-11T11:46:09Z</time>
      </trkpt>
      <trkpt lat="49.93605" lon="2.2014">
        <ele>13.1</ele>
        <time>2022-04-11T11:46:10Z</time>
      </trkpt>
      <trkpt lat="49.93606" lon="2.20141">
        <ele>13.1</ele>
        <time>2022-04-11T11:46:11Z</time>
      </trkpt>
      <trkpt lat="49.93608" lon="2.20143">
        <ele>13.1</ele>
        <time>2022-04-11T11:46:12Z</time>
      </trkpt>
      <trkpt lat="49.93609" lon="2.20144">
        <ele>13.1</ele>
        <time>2022-04-11T11:46:14Z</time>
      </trkpt>
      <trkpt lat="49.9361" lon="2.20146">
        <ele>13.1</ele>
        <time>2022-04-11T11:46:15Z</time>
      </trkpt>
      <trkpt lat="49.93611" lon="2.20147">
        <ele>13.1</ele>
        <time>2022-04-11T11:46:16Z</time>
      </trkpt>
      <trkpt lat="49.93612" lon="2.20149">
        <ele>13.1</ele>
        <time>2022-04-11T11:46:17Z</time>
      </trkpt>
      <trkpt lat="49.93613" lon="2.20151">
        <ele>13.1</ele>
        <time>2022-04-11T11:46:18Z</time>
      </trkpt>
      <trkpt lat="49.93614" lon="2.20153">
        <ele>13.1</ele>
        <time>2022-04-11T11:46:19Z</time>
      </trkpt>
      <trkpt lat="49.93615" lon="2.20155">
        <ele>13.1</ele>
        <time>2022-04-11T11:46:20Z</time>
      </trkpt>
      <trkpt lat="49.93616" lon="2.20156">
        <ele>13.1</ele>
        <time>2022-04-11T11:46:21Z</time>
      </trkpt>
      <trkpt lat="49.93618" lon="2.20157">
        <ele>13.1</ele>
        <time>2022-04-11T11:46:23Z</time>
      </trkpt>
      <trkpt lat="49.93619" lon="2.20158">
        <ele>13.1</ele>
        <time>2022-04-11T11:46:24Z</time>
      </trkpt>
      <trkpt lat="49.9362" lon="2.20159">
        <ele>13.1</ele>
        <time>2022-04-11T11:46:25Z</time>
      </trkpt>
      <trkpt lat="49.93622" lon="2.2016">
        <ele>13.1</ele>
        <time>2022-04-11T11:46:26Z</time>
      </trkpt>
      <trkpt lat="49.93623" lon="2.20161">
        <ele>13.1</ele>
        <time>2022-04-11T11:46:27Z</time>
      </trkpt>
      <trkpt lat="49.93624" lon="2.20161">
        <ele>13.1</ele>
        <time>2022-04-11T11:46:28Z</time>
      </trkpt>
      <trkpt lat="49.93626" lon="2.20163">
        <ele>13.1</ele>
        <time>2022-04-11T11:46:29Z</time>
      </trkpt>
      <trkpt lat="49.93626" lon="2.20164">
        <ele>13.1</ele>
        <time>2022-04-11T11:46:30Z</time>
      </trkpt>
      <trkpt lat="49.93627" lon="2.20165">
        <ele>13.1</ele>
        <time>2022-04-11T11:46:31Z</time>
      </trkpt>
      <trkpt lat="49.93628" lon="2.20165">
        <ele>13.1</ele>
        <time>2022-04-11T11:46:33Z</time>
      </trkpt>
      <trkpt lat="49.93629" lon="2.20166">
        <ele>13.1</ele>
        <time>2022-04-11T11:46:34Z</time>
      </trkpt>
      <trkpt lat="49.9363" lon="2.20166">
        <ele>13.1</ele>
        <time>2022-04-11T11:46:35Z</time>
      </trkpt>
      <trkpt lat="49.93631" lon="2.20166">
        <ele>13.1</ele>
        <time>2022-04-11T11:46:36Z</time>
      </trkpt>
      <trkpt lat="49.93632" lon="2.20166">
        <ele>13.1</ele>
        <time>2022-04-11T11:46:37Z</time>
      </trkpt>
      <trkpt lat="49.93633" lon="2.20166">
        <ele>13.1</ele>
        <time>2022-04-11T11:46:39Z</time>
      </trkpt>
      <trkpt lat="49.93633" lon="2.20167">
        <ele>13.1</ele>
        <time>2022-04-11T11:46:40Z</time>
      </trkpt>
      <trkpt lat="49.93634" lon="2.20167">
        <ele>13.1</ele>
        <time>2022-04-11T11:46:41Z</time>
      </trkpt>
      <trkpt lat="49.93635" lon="2.20167">
        <ele>13.1</ele>
        <time>2022-04-11T11:46:42Z</time>
      </trkpt>
      <trkpt lat="49.93635" lon="2.20168">
        <ele>13.1</ele>
        <time>2022-04-11T11:46:43Z</time>
      </trkpt>
      <trkpt lat="49.93636" lon="2.20169">
        <ele>13.1</ele>
        <time>2022-04-11T11:46:44Z</time>
      </trkpt>
      <trkpt lat="49.93637" lon="2.2017">
        <ele>13.1</ele>
        <time>2022-04-11T11:46:45Z</time>
      </trkpt>
      <trkpt lat="49.93637" lon="2.20171">
        <ele>13.1</ele>
        <time>2022-04-11T11:46:47Z</time>
      </trkpt>
      <trkpt lat="49.93638" lon="2.20172">
        <ele>13.1</ele>
        <time>2022-04-11T11:46:48Z</time>
      </trkpt>
      <trkpt lat="49.93639" lon="2.20173">
        <ele>13.1</ele>
        <time>2022-04-11T11:46:49Z</time>
      </trkpt>
      <trkpt lat="49.9364" lon="2.20174">
        <ele>13.1</ele>
        <time>2022-04-11T11:46:50Z</time>
      </trkpt>
      <trkpt lat="49.9364" lon="2.20175">
        <ele>13.1</ele>
        <time>2022-04-11T11:46:51Z</time>
      </trkpt>
      <trkpt lat="49.93641" lon="2.20176">
        <ele>13.1</ele>
        <time>2022-04-11T11:46:52Z</time>
      </trkpt>
      <trkpt lat="49.93642" lon="2.20177">
        <ele>13.1</ele>
        <time>2022-04-11T11:46:53Z</time>
      </trkpt>
      <trkpt lat="49.93643" lon="2.20178">
        <ele>13.1</ele>
        <time>2022-04-11T11:46:54Z</time>
      </trkpt>
      <trkpt lat="49.93644" lon="2.2018">
        <ele>13.1</ele>
        <time>2022-04-11T11:46:55Z</time>
      </trkpt>
      <trkpt lat="49.93644" lon="2.20181">
        <ele>13.1</ele>
        <time>2022-04-11T11:46:56Z</time>
      </trkpt>
      <trkpt lat="49.93645" lon="2.20182">
        <ele>13.1</ele>
        <time>2022-04-11T11:46:58Z</time>
      </trkpt>
      <trkpt lat="49.93647" lon="2.20183">
        <ele>13.1</ele>
        <time>2022-04-11T11:46:59Z</time>
      </trkpt>
      <trkpt lat="49.93648" lon="2.20185">
        <ele>13.1</ele>
        <time>2022-04-11T11:47:00Z</time>
      </trkpt>
      <trkpt lat="49.93649" lon="2.20186">
        <ele>13.1</ele>
        <time>2022-04-11T11:47:01Z</time>
      </trkpt>
      <trkpt lat="49.9365" lon="2.20188">
        <ele>13.1</ele>
        <time>2022-04-11T11:47:02Z</time>
      </trkpt>
      <trkpt lat="49.93651" lon="2.20189">
        <ele>13.1</ele>
        <time>2022-04-11T11:47:03Z</time>
      </trkpt>
      <trkpt lat="49.93652" lon="2.2019">
        <ele>13.1</ele>
        <time>2022-04-11T11:47:04Z</time>
      </trkpt>
      <trkpt lat="49.93654" lon="2.20191">
        <ele>13.1</ele>
        <time>2022-04-11T11:47:05Z</time>
      </trkpt>
      <trkpt lat="49.93655" lon="2.20191">
        <ele>13.1</ele>
        <time>2022-04-11T11:47:06Z</time>
      </trkpt>
      <trkpt lat="49.93656" lon="2.20192">
        <ele>13.1</ele>
        <time>2022-04-11T11:47:07Z</time>
      </trkpt>
      <trkpt lat="49.93657" lon="2.20192">
        <ele>13.1</ele>
        <time>2022-04-11T11:47:09Z</time>
      </trkpt>
      <trkpt lat="49.93659" lon="2.20193">
        <ele>13.1</ele>
        <time>2022-04-11T11:47:10Z</time>
      </trkpt>
      <trkpt lat="49.9366" lon="2.20194">
        <ele>13.1</ele>
        <time>2022-04-11T11:47:11Z</time>
      </trkpt>
      <trkpt lat="49.93661" lon="2.20196">
        <ele>13.1</ele>
        <time>2022-04-11T11:47:12Z</time>
      </trkpt>
      <trkpt lat="49.93662" lon="2.20197">
        <ele>13.1</ele>
        <time>2022-04-11T11:47:13Z</time>
      </trkpt>
      <trkpt lat="49.93663" lon="2.20199">
        <ele>13.1</ele>
        <time>2022-04-11T11:47:14Z</time>
      </trkpt>
      <trkpt lat="49.93664" lon="2.20201">
        <ele>13.1</ele>
        <time>2022-04-11T11:47:15Z</time>
      </trkpt>
      <trkpt lat="49.93665" lon="2.20202">
        <ele>13.1</ele>
        <time>2022-04-11T11:47:16Z</time>
      </trkpt>
      <trkpt lat="49.93665" lon="2.20203">
        <ele>13.1</ele>
        <time>2022-04-11T11:47:17Z</time>
      </trkpt>
      <trkpt lat="49.93667" lon="2.20206">
        <ele>13.1</ele>
        <time>2022-04-11T11:47:19Z</time>
      </trkpt>
      <trkpt lat="49.93667" lon="2.20207">
        <ele>13.1</ele>
        <time>2022-04-11T11:47:20Z</time>
      </trkpt>
      <trkpt lat="49.93668" lon="2.20208">
        <ele>13.1</ele>
        <time>2022-04-11T11:47:21Z</time>
      </trkpt>
      <trkpt lat="49.93669" lon="2.20211">
        <ele>13.1</ele>
        <time>2022-04-11T11:47:22Z</time>
      </trkpt>
      <trkpt lat="49.93669" lon="2.20212">
        <ele>13.1</ele>
        <time>2022-04-11T11:47:23Z</time>
      </trkpt>
      <trkpt lat="49.9367" lon="2.20214">
        <ele>13.1</ele>
        <time>2022-04-11T11:47:24Z</time>
      </trkpt>
      <trkpt lat="49.93671" lon="2.20216">
        <ele>13.1</ele>
        <time>2022-04-11T11:47:25Z</time>
      </trkpt>
      <trkpt lat="49.93672" lon="2.20217">
        <ele>13.1</ele>
        <time>2022-04-11T11:47:26Z</time>
      </trkpt>
      <trkpt lat="49.93672" lon="2.20218">
        <ele>13.1</ele>
        <time>2022-04-11T11:47:27Z</time>
      </trkpt>
      <trkpt lat="49.93673" lon="2.2022">
        <ele>13.1</ele>
        <time>2022-04-11T11:47:28Z</time>
      </trkpt>
      <trkpt lat="49.93674" lon="2.20221">
        <ele>13.1</ele>
        <time>2022-04-11T11:47:30Z</time>
      </trkpt>
      <trkpt lat="49.93675" lon="2.20222">
        <ele>13.1</ele>
        <time>2022-04-11T11:47:31Z</time>
      </trkpt>
      <trkpt lat="49.93675" lon="2.20224">
        <ele>13.1</ele>
        <time>2022-04-11T11:47:32Z</time>
      </trkpt>
      <trkpt lat="49.93676" lon="2.20225">
        <ele>13.1</ele>
        <time>2022-04-11T11:47:33Z</time>
      </trkpt>
      <trkpt lat="49.93676" lon="2.20226">
        <ele>13.1</ele>
        <time>2022-04-11T11:47:34Z</time>
      </trkpt>
      <trkpt lat="49.93677" lon="2.20228">
        <ele>13.1</ele>
        <time>2022-04-11T11:47:35Z</time>
      </trkpt>
      <trkpt lat="49.93678" lon="2.20229">
        <ele>13.1</ele>
        <time>2022-04-11T11:47:36Z</time>
      </trkpt>
      <trkpt lat="49.93678" lon="2.2023">
        <ele>13.1</ele>
        <time>2022-04-11T11:47:37Z</time>
      </trkpt>
      <trkpt lat="49.93679" lon="2.20231">
        <ele>13.1</ele>
        <time>2022-04-11T11:47:39Z</time>
      </trkpt>
      <trkpt lat="49.93681" lon="2.20233">
        <ele>13.1</ele>
        <time>2022-04-11T11:47:40Z</time>
      </trkpt>
      <trkpt lat="49.93681" lon="2.20233">
        <ele>13.1</ele>
        <time>2022-04-11T11:47:41Z</time>
      </trkpt>
      <trkpt lat="49.93682" lon="2.20234">
        <ele>13.1</ele>
        <time>2022-04-11T11:47:42Z</time>
      </trkpt>
      <trkpt lat="49.93683" lon="2.20235">
        <ele>13.1</ele>
        <time>2022-04-11T11:47:43Z</time>
      </trkpt>
      <trkpt lat="49.93684" lon="2.20236">
        <ele>13.1</ele>
        <time>2022-04-11T11:47:44Z</time>
      </trkpt>
      <trkpt lat="49.93686" lon="2.20237">
        <ele>13.1</ele>
        <time>2022-04-11T11:47:45Z</time>
      </trkpt>
      <trkpt lat="49.93687" lon="2.20238">
        <ele>13.1</ele>
        <time>2022-04-11T11:47:46Z</time>
      </trkpt>
      <trkpt lat="49.93687" lon="2.20238">
        <ele>13.1</ele>
        <time>2022-04-11T11:47:47Z</time>
      </trkpt>
      <trkpt lat="49.93688" lon="2.20239">
        <ele>13.1</ele>
        <time>2022-04-11T11:47:48Z</time>
      </trkpt>
      <trkpt lat="49.93689" lon="2.2024">
        <ele>13.1</ele>
        <time>2022-04-11T11:47:50Z</time>
      </trkpt>
      <trkpt lat="49.9369" lon="2.20241">
        <ele>13.1</ele>
        <time>2022-04-11T11:47:51Z</time>
      </trkpt>
      <trkpt lat="49.93691" lon="2.20242">
        <ele>13.1</ele>
        <time>2022-04-11T11:47:52Z</time>
      </trkpt>
      <trkpt lat="49.93692" lon="2.20243">
        <ele>13.1</ele>
        <time>2022-04-11T11:47:53Z</time>
      </trkpt>
      <trkpt lat="49.93693" lon="2.20244">
        <ele>13.2</ele>
        <time>2022-04-11T11:47:54Z</time>
      </trkpt>
      <trkpt lat="49.93695" lon="2.20246">
        <ele>13.2</ele>
        <time>2022-04-11T11:47:55Z</time>
      </trkpt>
      <trkpt lat="49.93696" lon="2.20247">
        <ele>13.2</ele>
        <time>2022-04-11T11:47:56Z</time>
      </trkpt>
      <trkpt lat="49.93696" lon="2.20247">
        <ele>13.2</ele>
        <time>2022-04-11T11:47:57Z</time>
      </trkpt>
      <trkpt lat="49.93697" lon="2.20248">
        <ele>13.2</ele>
        <time>2022-04-11T11:47:58Z</time>
      </trkpt>
      <trkpt lat="49.93698" lon="2.20249">
        <ele>13.2</ele>
        <time>2022-04-11T11:47:59Z</time>
      </trkpt>
      <trkpt lat="49.93699" lon="2.20249">
        <ele>13.2</ele>
        <time>2022-04-11T11:48:00Z</time>
      </trkpt>
      <trkpt lat="49.937" lon="2.2025">
        <ele>13.2</ele>
        <time>2022-04-11T11:48:02Z</time>
      </trkpt>
      <trkpt lat="49.93701" lon="2.20251">
        <ele>13.2</ele>
        <time>2022-04-11T11:48:03Z</time>
      </trkpt>
      <trkpt lat="49.93703" lon="2.20252">
        <ele>13.2</ele>
        <time>2022-04-11T11:48:04Z</time>
      </trkpt>
      <trkpt lat="49.93704" lon="2.20252">
        <ele>13.2</ele>
        <time>2022-04-11T11:48:05Z</time>
      </trkpt>
      <trkpt lat="49.93705" lon="2.20252">
        <ele>13.2</ele>
        <time>2022-04-11T11:48:07Z</time>
      </trkpt>
      <trkpt lat="49.93706" lon="2.20253">
        <ele>13.2</ele>
        <time>2022-04-11T11:48:08Z</time>
      </trkpt>
      <trkpt lat="49.93707" lon="2.20253">
        <ele>13.2</ele>
        <time>2022-04-11T11:48:09Z</time>
      </trkpt>
      <trkpt lat="49.93708" lon="2.20253">
        <ele>13.3</ele>
        <time>2022-04-11T11:48:10Z</time>
      </trkpt>
      <trkpt lat="49.93709" lon="2.20254">
        <ele>13.3</ele>
        <time>2022-04-11T11:48:11Z</time>
      </trkpt>
      <trkpt lat="49.9371" lon="2.20254">
        <ele>13.3</ele>
        <time>2022-04-11T11:48:12Z</time>
      </trkpt>
      <trkpt lat="49.93711" lon="2.20254">
        <ele>13.3</ele>
        <time>2022-04-11T11:48:13Z</time>
      </trkpt>
      <trkpt lat="49.93712" lon="2.20254">
        <ele>13.3</ele>
        <time>2022-04-11T11:48:14Z</time>
      </trkpt>
      <trkpt lat="49.93713" lon="2.20255">
        <ele>13.3</ele>
        <time>2022-04-11T11:48:15Z</time>
      </trkpt>
      <trkpt lat="49.93714" lon="2.20255">
        <ele>13.3</ele>
        <time>2022-04-11T11:48:16Z</time>
      </trkpt>
      <trkpt lat="49.93716" lon="2.20255">
        <ele>13.3</ele>
        <time>2022-04-11T11:48:18Z</time>
      </trkpt>
      <trkpt lat="49.93717" lon="2.20255">
        <ele>13.3</ele>
        <time>2022-04-11T11:48:19Z</time>
      </trkpt>
      <trkpt lat="49.93718" lon="2.20255">
        <ele>13.3</ele>
        <time>2022-04-11T11:48:20Z</time>
      </trkpt>
      <trkpt lat="49.93718" lon="2.20255">
        <ele>13.3</ele>
        <time>2022-04-11T11:48:21Z</time>
      </trkpt>
      <trkpt lat="49.9372" lon="2.20255">
        <ele>13.3</ele>
        <time>2022-04-11T11:48:22Z</time>
      </trkpt>
      <trkpt lat="49.93721" lon="2.20256">
        <ele>13.4</ele>
        <time>2022-04-11T11:48:23Z</time>
      </trkpt>
      <trkpt lat="49.93722" lon="2.20257">
        <ele>13.4</ele>
        <time>2022-04-11T11:48:24Z</time>
      </trkpt>
      <trkpt lat="49.93724" lon="2.20257">
        <ele>13.4</ele>
        <time>2022-04-11T11:48:25Z</time>
      </trkpt>
      <trkpt lat="49.93725" lon="2.20257">
        <ele>13.4</ele>
        <time>2022-04-11T11:48:26Z</time>
      </trkpt>
      <trkpt lat="49.93726" lon="2.20257">
        <ele>13.4</ele>
        <time>2022-04-11T11:48:28Z</time>
      </trkpt>
      <trkpt lat="49.93728" lon="2.20258">
        <ele>13.4</ele>
        <time>2022-04-11T11:48:29Z</time>
      </trkpt>
      <trkpt lat="49.93729" lon="2.20258">
        <ele>13.5</ele>
        <time>2022-04-11T11:48:30Z</time>
      </trkpt>
      <trkpt lat="49.93731" lon="2.20259">
        <ele>13.5</ele>
        <time>2022-04-11T11:48:31Z</time>
      </trkpt>
      <trkpt lat="49.93732" lon="2.20259">
        <ele>13.5</ele>
        <time>2022-04-11T11:48:32Z</time>
      </trkpt>
      <trkpt lat="49.93733" lon="2.2026">
        <ele>13.5</ele>
        <time>2022-04-11T11:48:33Z</time>
      </trkpt>
      <trkpt lat="49.93735" lon="2.2026">
        <ele>13.5</ele>
        <time>2022-04-11T11:48:34Z</time>
      </trkpt>
      <trkpt lat="49.93736" lon="2.20261">
        <ele>13.5</ele>
        <time>2022-04-11T11:48:35Z</time>
      </trkpt>
      <trkpt lat="49.93738" lon="2.20261">
        <ele>13.5</ele>
        <time>2022-04-11T11:48:36Z</time>
      </trkpt>
      <trkpt lat="49.93739" lon="2.20262">
        <ele>13.6</ele>
        <time>2022-04-11T11:48:37Z</time>
      </trkpt>
      <trkpt lat="49.93741" lon="2.20263">
        <ele>13.6</ele>
        <time>2022-04-11T11:48:39Z</time>
      </trkpt>
      <trkpt lat="49.93742" lon="2.20264">
        <ele>13.6</ele>
        <time>2022-04-11T11:48:40Z</time>
      </trkpt>
      <trkpt lat="49.93743" lon="2.20265">
        <ele>13.6</ele>
        <time>2022-04-11T11:48:41Z</time>
      </trkpt>
      <trkpt lat="49.93745" lon="2.20267">
        <ele>13.6</ele>
        <time>2022-04-11T11:48:42Z</time>
      </trkpt>
      <trkpt lat="49.93746" lon="2.20268">
        <ele>13.6</ele>
        <time>2022-04-11T11:48:43Z</time>
      </trkpt>
      <trkpt lat="49.93747" lon="2.20269">
        <ele>13.6</ele>
        <time>2022-04-11T11:48:44Z</time>
      </trkpt>
      <trkpt lat="49.93748" lon="2.20272">
        <ele>13.6</ele>
        <time>2022-04-11T11:48:46Z</time>
      </trkpt>
      <trkpt lat="49.93748" lon="2.20274">
        <ele>13.6</ele>
        <time>2022-04-11T11:48:47Z</time>
      </trkpt>
      <trkpt lat="49.93748" lon="2.20275">
        <ele>13.6</ele>
        <time>2022-04-11T11:48:48Z</time>
      </trkpt>
      <trkpt lat="49.93748" lon="2.20276">
        <ele>13.6</ele>
        <time>2022-04-11T11:48:49Z</time>
      </trkpt>
      <trkpt lat="49.93748" lon="2.20278">
        <ele>13.6</ele>
        <time>2022-04-11T11:48:50Z</time>
      </trkpt>
      <trkpt lat="49.93749" lon="2.20278">
        <ele>13.6</ele>
        <time>2022-04-11T11:48:51Z</time>
      </trkpt>
      <trkpt lat="49.9375" lon="2.20278">
        <ele>13.6</ele>
        <time>2022-04-11T11:48:52Z</time>
      </trkpt>
      <trkpt lat="49.9375" lon="2.20279">
        <ele>13.6</ele>
        <time>2022-04-11T11:48:53Z</time>
      </trkpt>
      <trkpt lat="49.93751" lon="2.20279">
        <ele>13.6</ele>
        <time>2022-04-11T11:48:54Z</time>
      </trkpt>
      <trkpt lat="49.93751" lon="2.2028">
        <ele>13.6</ele>
        <time>2022-04-11T11:48:55Z</time>
      </trkpt>
      <trkpt lat="49.93751" lon="2.2028">
        <ele>13.6</ele>
        <time>2022-04-11T11:48:56Z</time>
      </trkpt>
      <trkpt lat="49.93751" lon="2.2028">
        <ele>13.6</ele>
        <time>2022-04-11T11:48:57Z</time>
      </trkpt>
      <trkpt lat="49.93751" lon="2.2028">
        <ele>13.6</ele>
        <time>2022-04-11T11:48:58Z</time>
      </trkpt>
      <trkpt lat="49.93751" lon="2.20279">
        <ele>13.6</ele>
        <time>2022-04-11T11:48:59Z</time>
      </trkpt>
      <trkpt lat="49.93751" lon="2.20278">
        <ele>13.6</ele>
        <time>2022-04-11T11:49:00Z</time>
      </trkpt>
      <trkpt lat="49.93751" lon="2.20277">
        <ele>13.6</ele>
        <time>2022-04-11T11:49:01Z</time>
      </trkpt>
      <trkpt lat="49.93751" lon="2.20277">
        <ele>13.6</ele>
        <time>2022-04-11T11:49:02Z</time>
      </trkpt>
      <trkpt lat="49.93751" lon="2.20277">
        <ele>13.6</ele>
        <time>2022-04-11T11:49:03Z</time>
      </trkpt>
      <trkpt lat="49.93751" lon="2.20276">
        <ele>13.6</ele>
        <time>2022-04-11T11:49:04Z</time>
      </trkpt>
      <trkpt lat="49.93751" lon="2.20276">
        <ele>13.6</ele>
        <time>2022-04-11T11:49:05Z</time>
      </trkpt>
      <trkpt lat="49.93751" lon="2.20276">
        <ele>13.6</ele>
        <time>2022-04-11T11:49:06Z</time>
      </trkpt>
      <trkpt lat="49.93751" lon="2.20276">
        <ele>13.6</ele>
        <time>2022-04-11T11:49:07Z</time>
      </trkpt>
      <trkpt lat="49.93751" lon="2.20276">
        <ele>13.6</ele>
        <time>2022-04-11T11:49:08Z</time>
      </trkpt>
      <trkpt lat="49.9375" lon="2.20275">
        <ele>13.6</ele>
        <time>2022-04-11T11:49:09Z</time>
      </trkpt>
      <trkpt lat="49.93749" lon="2.20275">
        <ele>13.6</ele>
        <time>2022-04-11T11:49:10Z</time>
      </trkpt>
      <trkpt lat="49.93749" lon="2.20275">
        <ele>13.6</ele>
        <time>2022-04-11T11:49:12Z</time>
      </trkpt>
      <trkpt lat="49.93748" lon="2.20275">
        <ele>13.6</ele>
        <time>2022-04-11T11:49:13Z</time>
      </trkpt>
      <trkpt lat="49.93747" lon="2.20277">
        <ele>13.6</ele>
        <time>2022-04-11T11:49:14Z</time>
      </trkpt>
      <trkpt lat="49.93746" lon="2.2028">
        <ele>13.6</ele>
        <time>2022-04-11T11:49:15Z</time>
      </trkpt>
      <trkpt lat="49.93745" lon="2.20284">
        <ele>13.6</ele>
        <time>2022-04-11T11:49:16Z</time>
      </trkpt>
      <trkpt lat="49.93744" lon="2.20285">
        <ele>13.6</ele>
        <time>2022-04-11T11:49:17Z</time>
      </trkpt>
      <trkpt lat="49.93742" lon="2.20288">
        <ele>13.6</ele>
        <time>2022-04-11T11:49:18Z</time>
      </trkpt>
      <trkpt lat="49.93739" lon="2.20292">
        <ele>13.6</ele>
        <time>2022-04-11T11:49:20Z</time>
      </trkpt>
      <trkpt lat="49.93738" lon="2.20294">
        <ele>13.6</ele>
        <time>2022-04-11T11:49:22Z</time>
      </trkpt>
      <trkpt lat="49.93737" lon="2.20295">
        <ele>13.6</ele>
        <time>2022-04-11T11:49:23Z</time>
      </trkpt>
      <trkpt lat="49.93737" lon="2.20296">
        <ele>13.6</ele>
        <time>2022-04-11T11:49:24Z</time>
      </trkpt>
      <trkpt lat="49.93736" lon="2.20297">
        <ele>13.6</ele>
        <time>2022-04-11T11:49:25Z</time>
      </trkpt>
      <trkpt lat="49.93735" lon="2.20298">
        <ele>13.7</ele>
        <time>2022-04-11T11:49:26Z</time>
      </trkpt>
      <trkpt lat="49.93735" lon="2.20299">
        <ele>13.7</ele>
        <time>2022-04-11T11:49:27Z</time>
      </trkpt>
      <trkpt lat="49.93734" lon="2.203">
        <ele>13.7</ele>
        <time>2022-04-11T11:49:28Z</time>
      </trkpt>
      <trkpt lat="49.93734" lon="2.20301">
        <ele>13.7</ele>
        <time>2022-04-11T11:49:29Z</time>
      </trkpt>
      <trkpt lat="49.93733" lon="2.20303">
        <ele>13.7</ele>
        <time>2022-04-11T11:49:30Z</time>
      </trkpt>
      <trkpt lat="49.93732" lon="2.20306">
        <ele>13.7</ele>
        <time>2022-04-11T11:49:31Z</time>
      </trkpt>
      <trkpt lat="49.93732" lon="2.20307">
        <ele>13.7</ele>
        <time>2022-04-11T11:49:32Z</time>
      </trkpt>
      <trkpt lat="49.93731" lon="2.20308">
        <ele>13.7</ele>
        <time>2022-04-11T11:49:33Z</time>
      </trkpt>
      <trkpt lat="49.93731" lon="2.2031">
        <ele>13.7</ele>
        <time>2022-04-11T11:49:35Z</time>
      </trkpt>
      <trkpt lat="49.9373" lon="2.20312">
        <ele>13.7</ele>
        <time>2022-04-11T11:49:36Z</time>
      </trkpt>
      <trkpt lat="49.93729" lon="2.20316">
        <ele>13.7</ele>
        <time>2022-04-11T11:49:37Z</time>
      </trkpt>
      <trkpt lat="49.93729" lon="2.20318">
        <ele>13.7</ele>
        <time>2022-04-11T11:49:38Z</time>
      </trkpt>
      <trkpt lat="49.93728" lon="2.20321">
        <ele>13.7</ele>
        <time>2022-04-11T11:49:39Z</time>
      </trkpt>
      <trkpt lat="49.93727" lon="2.20324">
        <ele>13.7</ele>
        <time>2022-04-11T11:49:41Z</time>
      </trkpt>
      <trkpt lat="49.93726" lon="2.20326">
        <ele>13.7</ele>
        <time>2022-04-11T11:49:42Z</time>
      </trkpt>
      <trkpt lat="49.93726" lon="2.20328">
        <ele>13.7</ele>
        <time>2022-04-11T11:49:43Z</time>
      </trkpt>
      <trkpt lat="49.93725" lon="2.20331">
        <ele>13.7</ele>
        <time>2022-04-11T11:49:44Z</time>
      </trkpt>
      <trkpt lat="49.93724" lon="2.20332">
        <ele>13.7</ele>
        <time>2022-04-11T11:49:45Z</time>
      </trkpt>
      <trkpt lat="49.93723" lon="2.20334">
        <ele>13.7</ele>
        <time>2022-04-11T11:49:46Z</time>
      </trkpt>
      <trkpt lat="49.93723" lon="2.20336">
        <ele>13.7</ele>
        <time>2022-04-11T11:49:47Z</time>
      </trkpt>
      <trkpt lat="49.93722" lon="2.20338">
        <ele>13.7</ele>
        <time>2022-04-11T11:49:48Z</time>
      </trkpt>
      <trkpt lat="49.93721" lon="2.20341">
        <ele>13.7</ele>
        <time>2022-04-11T11:49:50Z</time>
      </trkpt>
      <trkpt lat="49.9372" lon="2.20343">
        <ele>13.7</ele>
        <time>2022-04-11T11:49:51Z</time>
      </trkpt>
      <trkpt lat="49.93719" lon="2.20345">
        <ele>13.7</ele>
        <time>2022-04-11T11:49:52Z</time>
      </trkpt>
      <trkpt lat="49.93718" lon="2.20348">
        <ele>13.7</ele>
        <time>2022-04-11T11:49:53Z</time>
      </trkpt>
      <trkpt lat="49.93718" lon="2.20349">
        <ele>13.7</ele>
        <time>2022-04-11T11:49:54Z</time>
      </trkpt>
      <trkpt lat="49.93717" lon="2.2035">
        <ele>13.7</ele>
        <time>2022-04-11T11:49:55Z</time>
      </trkpt>
      <trkpt lat="49.93716" lon="2.20352">
        <ele>13.7</ele>
        <time>2022-04-11T11:49:57Z</time>
      </trkpt>
      <trkpt lat="49.93716" lon="2.20354">
        <ele>13.7</ele>
        <time>2022-04-11T11:49:58Z</time>
      </trkpt>
      <trkpt lat="49.93716" lon="2.20355">
        <ele>13.7</ele>
        <time>2022-04-11T11:49:59Z</time>
      </trkpt>
      <trkpt lat="49.93715" lon="2.20356">
        <ele>13.7</ele>
        <time>2022-04-11T11:50:00Z</time>
      </trkpt>
      <trkpt lat="49.93714" lon="2.20358">
        <ele>13.7</ele>
        <time>2022-04-11T11:50:02Z</time>
      </trkpt>
      <trkpt lat="49.93714" lon="2.2036">
        <ele>13.7</ele>
        <time>2022-04-11T11:50:03Z</time>
      </trkpt>
      <trkpt lat="49.93713" lon="2.20362">
        <ele>13.7</ele>
        <time>2022-04-11T11:50:04Z</time>
      </trkpt>
      <trkpt lat="49.93713" lon="2.20363">
        <ele>13.7</ele>
        <time>2022-04-11T11:50:05Z</time>
      </trkpt>
      <trkpt lat="49.93713" lon="2.20365">
        <ele>13.7</ele>
        <time>2022-04-11T11:50:06Z</time>
      </trkpt>
      <trkpt lat="49.93712" lon="2.20367">
        <ele>13.7</ele>
        <time>2022-04-11T11:50:07Z</time>
      </trkpt>
      <trkpt lat="49.93712" lon="2.20369">
        <ele>13.7</ele>
        <time>2022-04-11T11:50:08Z</time>
      </trkpt>
      <trkpt lat="49.93712" lon="2.20371">
        <ele>13.6</ele>
        <time>2022-04-11T11:50:09Z</time>
      </trkpt>
      <trkpt lat="49.93711" lon="2.20373">
        <ele>13.6</ele>
        <time>2022-04-11T11:50:10Z</time>
      </trkpt>
      <trkpt lat="49.93711" lon="2.20375">
        <ele>13.6</ele>
        <time>2022-04-11T11:50:11Z</time>
      </trkpt>
      <trkpt lat="49.9371" lon="2.20377">
        <ele>13.6</ele>
        <time>2022-04-11T11:50:12Z</time>
      </trkpt>
      <trkpt lat="49.93709" lon="2.2038">
        <ele>13.6</ele>
        <time>2022-04-11T11:50:13Z</time>
      </trkpt>
      <trkpt lat="49.93709" lon="2.20382">
        <ele>13.6</ele>
        <time>2022-04-11T11:50:15Z</time>
      </trkpt>
      <trkpt lat="49.93708" lon="2.20383">
        <ele>13.6</ele>
        <time>2022-04-11T11:50:16Z</time>
      </trkpt>
      <trkpt lat="49.93708" lon="2.20385">
        <ele>13.6</ele>
        <time>2022-04-11T11:50:17Z</time>
      </trkpt>
      <trkpt lat="49.93708" lon="2.20386">
        <ele>13.6</ele>
        <time>2022-04-11T11:50:18Z</time>
      </trkpt>
      <trkpt lat="49.93707" lon="2.20389">
        <ele>13.7</ele>
        <time>2022-04-11T11:50:19Z</time>
      </trkpt>
      <trkpt lat="49.93707" lon="2.20391">
        <ele>13.7</ele>
        <time>2022-04-11T11:50:20Z</time>
      </trkpt>
      <trkpt lat="49.93706" lon="2.20392">
        <ele>13.7</ele>
        <time>2022-04-11T11:50:21Z</time>
      </trkpt>
      <trkpt lat="49.93706" lon="2.20394">
        <ele>13.7</ele>
        <time>2022-04-11T11:50:22Z</time>
      </trkpt>
      <trkpt lat="49.93706" lon="2.20396">
        <ele>13.7</ele>
        <time>2022-04-11T11:50:23Z</time>
      </trkpt>
      <trkpt lat="49.93705" lon="2.204">
        <ele>13.7</ele>
        <time>2022-04-11T11:50:24Z</time>
      </trkpt>
      <trkpt lat="49.93704" lon="2.20401">
        <ele>13.7</ele>
        <time>2022-04-11T11:50:25Z</time>
      </trkpt>
      <trkpt lat="49.93704" lon="2.20402">
        <ele>13.7</ele>
        <time>2022-04-11T11:50:26Z</time>
      </trkpt>
      <trkpt lat="49.93703" lon="2.20405">
        <ele>13.7</ele>
        <time>2022-04-11T11:50:27Z</time>
      </trkpt>
      <trkpt lat="49.93703" lon="2.20406">
        <ele>13.7</ele>
        <time>2022-04-11T11:50:29Z</time>
      </trkpt>
      <trkpt lat="49.93703" lon="2.20408">
        <ele>13.7</ele>
        <time>2022-04-11T11:50:30Z</time>
      </trkpt>
      <trkpt lat="49.93702" lon="2.20409">
        <ele>13.7</ele>
        <time>2022-04-11T11:50:31Z</time>
      </trkpt>
      <trkpt lat="49.93702" lon="2.2041">
        <ele>13.7</ele>
        <time>2022-04-11T11:50:32Z</time>
      </trkpt>
      <trkpt lat="49.93702" lon="2.20412">
        <ele>13.7</ele>
        <time>2022-04-11T11:50:33Z</time>
      </trkpt>
      <trkpt lat="49.93701" lon="2.20414">
        <ele>13.7</ele>
        <time>2022-04-11T11:50:35Z</time>
      </trkpt>
      <trkpt lat="49.93701" lon="2.20416">
        <ele>13.7</ele>
        <time>2022-04-11T11:50:36Z</time>
      </trkpt>
      <trkpt lat="49.937" lon="2.20419">
        <ele>13.7</ele>
        <time>2022-04-11T11:50:37Z</time>
      </trkpt>
      <trkpt lat="49.937" lon="2.2042">
        <ele>13.7</ele>
        <time>2022-04-11T11:50:38Z</time>
      </trkpt>
      <trkpt lat="49.937" lon="2.20422">
        <ele>13.8</ele>
        <time>2022-04-11T11:50:39Z</time>
      </trkpt>
      <trkpt lat="49.93699" lon="2.20424">
        <ele>13.8</ele>
        <time>2022-04-11T11:50:41Z</time>
      </trkpt>
      <trkpt lat="49.93699" lon="2.20425">
        <ele>13.8</ele>
        <time>2022-04-11T11:50:42Z</time>
      </trkpt>
      <trkpt lat="49.93699" lon="2.20427">
        <ele>13.8</ele>
        <time>2022-04-11T11:50:43Z</time>
      </trkpt>
      <trkpt lat="49.93698" lon="2.2043">
        <ele>13.8</ele>
        <time>2022-04-11T11:50:44Z</time>
      </trkpt>
      <trkpt lat="49.93698" lon="2.20431">
        <ele>13.8</ele>
        <time>2022-04-11T11:50:45Z</time>
      </trkpt>
      <trkpt lat="49.93698" lon="2.20432">
        <ele>13.8</ele>
        <time>2022-04-11T11:50:46Z</time>
      </trkpt>
      <trkpt lat="49.93698" lon="2.20435">
        <ele>13.8</ele>
        <time>2022-04-11T11:50:47Z</time>
      </trkpt>
      <trkpt lat="49.93697" lon="2.20437">
        <ele>13.8</ele>
        <time>2022-04-11T11:50:48Z</time>
      </trkpt>
      <trkpt lat="49.93697" lon="2.2044">
        <ele>13.8</ele>
        <time>2022-04-11T11:50:49Z</time>
      </trkpt>
      <trkpt lat="49.93697" lon="2.20441">
        <ele>13.8</ele>
        <time>2022-04-11T11:50:50Z</time>
      </trkpt>
      <trkpt lat="49.93696" lon="2.20442">
        <ele>13.8</ele>
        <time>2022-04-11T11:50:51Z</time>
      </trkpt>
      <trkpt lat="49.93696" lon="2.20444">
        <ele>13.8</ele>
        <time>2022-04-11T11:50:53Z</time>
      </trkpt>
      <trkpt lat="49.93696" lon="2.20446">
        <ele>13.8</ele>
        <time>2022-04-11T11:50:54Z</time>
      </trkpt>
      <trkpt lat="49.93695" lon="2.20447">
        <ele>13.8</ele>
        <time>2022-04-11T11:50:55Z</time>
      </trkpt>
      <trkpt lat="49.93695" lon="2.20448">
        <ele>13.8</ele>
        <time>2022-04-11T11:50:56Z</time>
      </trkpt>
      <trkpt lat="49.93695" lon="2.2045">
        <ele>13.9</ele>
        <time>2022-04-11T11:50:57Z</time>
      </trkpt>
      <trkpt lat="49.93694" lon="2.20452">
        <ele>13.9</ele>
        <time>2022-04-11T11:50:58Z</time>
      </trkpt>
      <trkpt lat="49.93694" lon="2.20455">
        <ele>13.9</ele>
        <time>2022-04-11T11:50:59Z</time>
      </trkpt>
      <trkpt lat="49.93694" lon="2.20456">
        <ele>13.9</ele>
        <time>2022-04-11T11:51:00Z</time>
      </trkpt>
      <trkpt lat="49.93693" lon="2.20457">
        <ele>13.9</ele>
        <time>2022-04-11T11:51:01Z</time>
      </trkpt>
      <trkpt lat="49.93693" lon="2.20459">
        <ele>13.9</ele>
        <time>2022-04-11T11:51:02Z</time>
      </trkpt>
      <trkpt lat="49.93692" lon="2.20461">
        <ele>13.9</ele>
        <time>2022-04-11T11:51:03Z</time>
      </trkpt>
      <trkpt lat="49.93692" lon="2.20463">
        <ele>13.9</ele>
        <time>2022-04-11T11:51:05Z</time>
      </trkpt>
      <trkpt lat="49.93691" lon="2.20465">
        <ele>13.9</ele>
        <time>2022-04-11T11:51:06Z</time>
      </trkpt>
      <trkpt lat="49.93691" lon="2.20466">
        <ele>13.9</ele>
        <time>2022-04-11T11:51:07Z</time>
      </trkpt>
      <trkpt lat="49.9369" lon="2.20468">
        <ele>13.9</ele>
        <time>2022-04-11T11:51:08Z</time>
      </trkpt>
      <trkpt lat="49.93689" lon="2.2047">
        <ele>13.9</ele>
        <time>2022-04-11T11:51:09Z</time>
      </trkpt>
      <trkpt lat="49.93689" lon="2.20472">
        <ele>13.9</ele>
        <time>2022-04-11T11:51:11Z</time>
      </trkpt>
      <trkpt lat="49.93689" lon="2.20473">
        <ele>13.9</ele>
        <time>2022-04-11T11:51:12Z</time>
      </trkpt>
      <trkpt lat="49.93688" lon="2.20476">
        <ele>13.9</ele>
        <time>2022-04-11T11:51:13Z</time>
      </trkpt>
      <trkpt lat="49.93687" lon="2.20477">
        <ele>14</ele>
        <time>2022-04-11T11:51:14Z</time>
      </trkpt>
      <trkpt lat="49.93687" lon="2.20478">
        <ele>14</ele>
        <time>2022-04-11T11:51:15Z</time>
      </trkpt>
      <trkpt lat="49.93686" lon="2.20481">
        <ele>14</ele>
        <time>2022-04-11T11:51:16Z</time>
      </trkpt>
      <trkpt lat="49.93685" lon="2.20482">
        <ele>14</ele>
        <time>2022-04-11T11:51:17Z</time>
      </trkpt>
      <trkpt lat="49.93685" lon="2.20483">
        <ele>14</ele>
        <time>2022-04-11T11:51:18Z</time>
      </trkpt>
      <trkpt lat="49.93685" lon="2.20485">
        <ele>14</ele>
        <time>2022-04-11T11:51:19Z</time>
      </trkpt>
      <trkpt lat="49.93684" lon="2.20486">
        <ele>14</ele>
        <time>2022-04-11T11:51:20Z</time>
      </trkpt>
      <trkpt lat="49.93683" lon="2.20488">
        <ele>14</ele>
        <time>2022-04-11T11:51:21Z</time>
      </trkpt>
      <trkpt lat="49.93683" lon="2.20491">
        <ele>14</ele>
        <time>2022-04-11T11:51:23Z</time>
      </trkpt>
      <trkpt lat="49.93682" lon="2.20492">
        <ele>14</ele>
        <time>2022-04-11T11:51:24Z</time>
      </trkpt>
      <trkpt lat="49.93682" lon="2.20493">
        <ele>14</ele>
        <time>2022-04-11T11:51:25Z</time>
      </trkpt>
      <trkpt lat="49.93681" lon="2.20496">
        <ele>14.1</ele>
        <time>2022-04-11T11:51:26Z</time>
      </trkpt>
      <trkpt lat="49.93681" lon="2.20497">
        <ele>14.1</ele>
        <time>2022-04-11T11:51:27Z</time>
      </trkpt>
      <trkpt lat="49.9368" lon="2.205">
        <ele>14.1</ele>
        <time>2022-04-11T11:51:28Z</time>
      </trkpt>
      <trkpt lat="49.9368" lon="2.20502">
        <ele>14.1</ele>
        <time>2022-04-11T11:51:29Z</time>
      </trkpt>
      <trkpt lat="49.93679" lon="2.20504">
        <ele>14.1</ele>
        <time>2022-04-11T11:51:31Z</time>
      </trkpt>
      <trkpt lat="49.93679" lon="2.20506">
        <ele>14.1</ele>
        <time>2022-04-11T11:51:32Z</time>
      </trkpt>
      <trkpt lat="49.93678" lon="2.20508">
        <ele>14.1</ele>
        <time>2022-04-11T11:51:33Z</time>
      </trkpt>
      <trkpt lat="49.93678" lon="2.2051">
        <ele>14.1</ele>
        <time>2022-04-11T11:51:34Z</time>
      </trkpt>
      <trkpt lat="49.93678" lon="2.20511">
        <ele>14.1</ele>
        <time>2022-04-11T11:51:35Z</time>
      </trkpt>
      <trkpt lat="49.93678" lon="2.20515">
        <ele>14.2</ele>
        <time>2022-04-11T11:51:36Z</time>
      </trkpt>
      <trkpt lat="49.93677" lon="2.20516">
        <ele>14.2</ele>
        <time>2022-04-11T11:51:37Z</time>
      </trkpt>
      <trkpt lat="49.93677" lon="2.20517">
        <ele>14.2</ele>
        <time>2022-04-11T11:51:38Z</time>
      </trkpt>
      <trkpt lat="49.93677" lon="2.20521">
        <ele>14.2</ele>
        <time>2022-04-11T11:51:39Z</time>
      </trkpt>
      <trkpt lat="49.93677" lon="2.20522">
        <ele>14.2</ele>
        <time>2022-04-11T11:51:40Z</time>
      </trkpt>
      <trkpt lat="49.93677" lon="2.20523">
        <ele>14.2</ele>
        <time>2022-04-11T11:51:41Z</time>
      </trkpt>
      <trkpt lat="49.93676" lon="2.20526">
        <ele>14.2</ele>
        <time>2022-04-11T11:51:42Z</time>
      </trkpt>
      <trkpt lat="49.93676" lon="2.20527">
        <ele>14.2</ele>
        <time>2022-04-11T11:51:44Z</time>
      </trkpt>
      <trkpt lat="49.93676" lon="2.20529">
        <ele>14.2</ele>
        <time>2022-04-11T11:51:45Z</time>
      </trkpt>
      <trkpt lat="49.93676" lon="2.2053">
        <ele>14.3</ele>
        <time>2022-04-11T11:51:46Z</time>
      </trkpt>
      <trkpt lat="49.93676" lon="2.20532">
        <ele>14.3</ele>
        <time>2022-04-11T11:51:47Z</time>
      </trkpt>
      <trkpt lat="49.93676" lon="2.20534">
        <ele>14.3</ele>
        <time>2022-04-11T11:51:48Z</time>
      </trkpt>
      <trkpt lat="49.93676" lon="2.20537">
        <ele>14.3</ele>
        <time>2022-04-11T11:51:50Z</time>
      </trkpt>
      <trkpt lat="49.93676" lon="2.20538">
        <ele>14.3</ele>
        <time>2022-04-11T11:51:51Z</time>
      </trkpt>
      <trkpt lat="49.93675" lon="2.2054">
        <ele>14.3</ele>
        <time>2022-04-11T11:51:52Z</time>
      </trkpt>
      <trkpt lat="49.93675" lon="2.20543">
        <ele>14.4</ele>
        <time>2022-04-11T11:51:53Z</time>
      </trkpt>
      <trkpt lat="49.93675" lon="2.20544">
        <ele>14.4</ele>
        <time>2022-04-11T11:51:54Z</time>
      </trkpt>
      <trkpt lat="49.93675" lon="2.20545">
        <ele>14.4</ele>
        <time>2022-04-11T11:51:55Z</time>
      </trkpt>
      <trkpt lat="49.93675" lon="2.20547">
        <ele>14.4</ele>
        <time>2022-04-11T11:51:56Z</time>
      </trkpt>
      <trkpt lat="49.93675" lon="2.20549">
        <ele>14.4</ele>
        <time>2022-04-11T11:51:58Z</time>
      </trkpt>
      <trkpt lat="49.93674" lon="2.20551">
        <ele>14.4</ele>
        <time>2022-04-11T11:51:59Z</time>
      </trkpt>
      <trkpt lat="49.93674" lon="2.20552">
        <ele>14.5</ele>
        <time>2022-04-11T11:52:00Z</time>
      </trkpt>
      <trkpt lat="49.93674" lon="2.20554">
        <ele>14.5</ele>
        <time>2022-04-11T11:52:01Z</time>
      </trkpt>
      <trkpt lat="49.93674" lon="2.20556">
        <ele>14.5</ele>
        <time>2022-04-11T11:52:02Z</time>
      </trkpt>
      <trkpt lat="49.93674" lon="2.20558">
        <ele>14.5</ele>
        <time>2022-04-11T11:52:03Z</time>
      </trkpt>
      <trkpt lat="49.93673" lon="2.2056">
        <ele>14.5</ele>
        <time>2022-04-11T11:52:04Z</time>
      </trkpt>
      <trkpt lat="49.93673" lon="2.20563">
        <ele>14.6</ele>
        <time>2022-04-11T11:52:06Z</time>
      </trkpt>
      <trkpt lat="49.93673" lon="2.20566">
        <ele>14.6</ele>
        <time>2022-04-11T11:52:07Z</time>
      </trkpt>
      <trkpt lat="49.93673" lon="2.20568">
        <ele>14.6</ele>
        <time>2022-04-11T11:52:08Z</time>
      </trkpt>
      <trkpt lat="49.93673" lon="2.20569">
        <ele>14.6</ele>
        <time>2022-04-11T11:52:09Z</time>
      </trkpt>
      <trkpt lat="49.93674" lon="2.20572">
        <ele>14.6</ele>
        <time>2022-04-11T11:52:10Z</time>
      </trkpt>
      <trkpt lat="49.93674" lon="2.20573">
        <ele>14.6</ele>
        <time>2022-04-11T11:52:11Z</time>
      </trkpt>
      <trkpt lat="49.93674" lon="2.20574">
        <ele>14.6</ele>
        <time>2022-04-11T11:52:12Z</time>
      </trkpt>
      <trkpt lat="49.93674" lon="2.20576">
        <ele>14.7</ele>
        <time>2022-04-11T11:52:13Z</time>
      </trkpt>
      <trkpt lat="49.93674" lon="2.20578">
        <ele>14.7</ele>
        <time>2022-04-11T11:52:14Z</time>
      </trkpt>
      <trkpt lat="49.93674" lon="2.2058">
        <ele>14.7</ele>
        <time>2022-04-11T11:52:15Z</time>
      </trkpt>
      <trkpt lat="49.93674" lon="2.20583">
        <ele>14.7</ele>
        <time>2022-04-11T11:52:16Z</time>
      </trkpt>
      <trkpt lat="49.93674" lon="2.20584">
        <ele>14.7</ele>
        <time>2022-04-11T11:52:18Z</time>
      </trkpt>
      <trkpt lat="49.93674" lon="2.20585">
        <ele>14.7</ele>
        <time>2022-04-11T11:52:19Z</time>
      </trkpt>
      <trkpt lat="49.93674" lon="2.20587">
        <ele>14.7</ele>
        <time>2022-04-11T11:52:20Z</time>
      </trkpt>
      <trkpt lat="49.93674" lon="2.20589">
        <ele>14.7</ele>
        <time>2022-04-11T11:52:21Z</time>
      </trkpt>
      <trkpt lat="49.93674" lon="2.20591">
        <ele>14.7</ele>
        <time>2022-04-11T11:52:22Z</time>
      </trkpt>
      <trkpt lat="49.93673" lon="2.20593">
        <ele>14.7</ele>
        <time>2022-04-11T11:52:23Z</time>
      </trkpt>
      <trkpt lat="49.93673" lon="2.20595">
        <ele>14.7</ele>
        <time>2022-04-11T11:52:24Z</time>
      </trkpt>
      <trkpt lat="49.93673" lon="2.20598">
        <ele>14.8</ele>
        <time>2022-04-11T11:52:25Z</time>
      </trkpt>
      <trkpt lat="49.93673" lon="2.206">
        <ele>14.8</ele>
        <time>2022-04-11T11:52:26Z</time>
      </trkpt>
      <trkpt lat="49.93673" lon="2.20601">
        <ele>14.8</ele>
        <time>2022-04-11T11:52:27Z</time>
      </trkpt>
      <trkpt lat="49.93673" lon="2.20603">
        <ele>14.8</ele>
        <time>2022-04-11T11:52:28Z</time>
      </trkpt>
      <trkpt lat="49.93672" lon="2.20604">
        <ele>14.8</ele>
        <time>2022-04-11T11:52:29Z</time>
      </trkpt>
      <trkpt lat="49.93672" lon="2.20606">
        <ele>14.8</ele>
        <time>2022-04-11T11:52:31Z</time>
      </trkpt>
      <trkpt lat="49.93672" lon="2.20608">
        <ele>14.8</ele>
        <time>2022-04-11T11:52:32Z</time>
      </trkpt>
      <trkpt lat="49.93672" lon="2.20609">
        <ele>14.8</ele>
        <time>2022-04-11T11:52:33Z</time>
      </trkpt>
      <trkpt lat="49.93672" lon="2.20611">
        <ele>14.8</ele>
        <time>2022-04-11T11:52:34Z</time>
      </trkpt>
      <trkpt lat="49.93672" lon="2.20614">
        <ele>14.8</ele>
        <time>2022-04-11T11:52:35Z</time>
      </trkpt>
      <trkpt lat="49.93672" lon="2.20616">
        <ele>14.8</ele>
        <time>2022-04-11T11:52:36Z</time>
      </trkpt>
      <trkpt lat="49.93672" lon="2.20617">
        <ele>14.8</ele>
        <time>2022-04-11T11:52:37Z</time>
      </trkpt>
      <trkpt lat="49.93672" lon="2.20619">
        <ele>14.9</ele>
        <time>2022-04-11T11:52:38Z</time>
      </trkpt>
      <trkpt lat="49.93672" lon="2.20621">
        <ele>14.9</ele>
        <time>2022-04-11T11:52:39Z</time>
      </trkpt>
      <trkpt lat="49.93672" lon="2.20622">
        <ele>14.9</ele>
        <time>2022-04-11T11:52:40Z</time>
      </trkpt>
      <trkpt lat="49.93672" lon="2.20624">
        <ele>14.9</ele>
        <time>2022-04-11T11:52:41Z</time>
      </trkpt>
      <trkpt lat="49.93672" lon="2.20625">
        <ele>14.9</ele>
        <time>2022-04-11T11:52:42Z</time>
      </trkpt>
      <trkpt lat="49.93672" lon="2.20627">
        <ele>14.9</ele>
        <time>2022-04-11T11:52:44Z</time>
      </trkpt>
      <trkpt lat="49.93672" lon="2.20629">
        <ele>14.9</ele>
        <time>2022-04-11T11:52:45Z</time>
      </trkpt>
      <trkpt lat="49.93672" lon="2.20631">
        <ele>14.9</ele>
        <time>2022-04-11T11:52:46Z</time>
      </trkpt>
      <trkpt lat="49.93672" lon="2.20632">
        <ele>14.9</ele>
        <time>2022-04-11T11:52:47Z</time>
      </trkpt>
      <trkpt lat="49.93672" lon="2.20634">
        <ele>15</ele>
        <time>2022-04-11T11:52:48Z</time>
      </trkpt>
      <trkpt lat="49.93671" lon="2.20636">
        <ele>15</ele>
        <time>2022-04-11T11:52:49Z</time>
      </trkpt>
      <trkpt lat="49.93671" lon="2.20638">
        <ele>15</ele>
        <time>2022-04-11T11:52:50Z</time>
      </trkpt>
      <trkpt lat="49.93671" lon="2.2064">
        <ele>15</ele>
        <time>2022-04-11T11:52:51Z</time>
      </trkpt>
      <trkpt lat="49.93671" lon="2.20641">
        <ele>15</ele>
        <time>2022-04-11T11:52:53Z</time>
      </trkpt>
      <trkpt lat="49.93671" lon="2.20643">
        <ele>15</ele>
        <time>2022-04-11T11:52:54Z</time>
      </trkpt>
      <trkpt lat="49.93671" lon="2.20646">
        <ele>15</ele>
        <time>2022-04-11T11:52:55Z</time>
      </trkpt>
      <trkpt lat="49.93671" lon="2.20647">
        <ele>15.1</ele>
        <time>2022-04-11T11:52:56Z</time>
      </trkpt>
      <trkpt lat="49.93671" lon="2.20648">
        <ele>15.1</ele>
        <time>2022-04-11T11:52:57Z</time>
      </trkpt>
      <trkpt lat="49.93671" lon="2.2065">
        <ele>15.1</ele>
        <time>2022-04-11T11:52:58Z</time>
      </trkpt>
      <trkpt lat="49.93671" lon="2.20653">
        <ele>15.1</ele>
        <time>2022-04-11T11:52:59Z</time>
      </trkpt>
      <trkpt lat="49.93671" lon="2.20654">
        <ele>15.1</ele>
        <time>2022-04-11T11:53:00Z</time>
      </trkpt>
      <trkpt lat="49.93671" lon="2.20656">
        <ele>15.1</ele>
        <time>2022-04-11T11:53:01Z</time>
      </trkpt>
      <trkpt lat="49.93671" lon="2.20658">
        <ele>15.1</ele>
        <time>2022-04-11T11:53:03Z</time>
      </trkpt>
      <trkpt lat="49.9367" lon="2.20659">
        <ele>15.2</ele>
        <time>2022-04-11T11:53:04Z</time>
      </trkpt>
      <trkpt lat="49.9367" lon="2.20661">
        <ele>15.2</ele>
        <time>2022-04-11T11:53:05Z</time>
      </trkpt>
      <trkpt lat="49.9367" lon="2.20662">
        <ele>15.2</ele>
        <time>2022-04-11T11:53:06Z</time>
      </trkpt>
      <trkpt lat="49.9367" lon="2.20665">
        <ele>15.2</ele>
        <time>2022-04-11T11:53:07Z</time>
      </trkpt>
      <trkpt lat="49.93669" lon="2.20667">
        <ele>15.2</ele>
        <time>2022-04-11T11:53:08Z</time>
      </trkpt>
      <trkpt lat="49.93669" lon="2.20668">
        <ele>15.2</ele>
        <time>2022-04-11T11:53:09Z</time>
      </trkpt>
      <trkpt lat="49.93669" lon="2.2067">
        <ele>15.2</ele>
        <time>2022-04-11T11:53:10Z</time>
      </trkpt>
      <trkpt lat="49.93669" lon="2.20672">
        <ele>15.3</ele>
        <time>2022-04-11T11:53:11Z</time>
      </trkpt>
      <trkpt lat="49.93668" lon="2.20676">
        <ele>15.3</ele>
        <time>2022-04-11T11:53:12Z</time>
      </trkpt>
      <trkpt lat="49.93668" lon="2.20677">
        <ele>15.3</ele>
        <time>2022-04-11T11:53:13Z</time>
      </trkpt>
      <trkpt lat="49.93668" lon="2.20678">
        <ele>15.3</ele>
        <time>2022-04-11T11:53:14Z</time>
      </trkpt>
      <trkpt lat="49.93668" lon="2.2068">
        <ele>15.3</ele>
        <time>2022-04-11T11:53:15Z</time>
      </trkpt>
      <trkpt lat="49.93667" lon="2.20682">
        <ele>15.3</ele>
        <time>2022-04-11T11:53:17Z</time>
      </trkpt>
      <trkpt lat="49.93667" lon="2.20684">
        <ele>15.3</ele>
        <time>2022-04-11T11:53:18Z</time>
      </trkpt>
      <trkpt lat="49.93667" lon="2.20686">
        <ele>15.4</ele>
        <time>2022-04-11T11:53:19Z</time>
      </trkpt>
      <trkpt lat="49.93667" lon="2.20687">
        <ele>15.4</ele>
        <time>2022-04-11T11:53:20Z</time>
      </trkpt>
      <trkpt lat="49.93666" lon="2.20688">
        <ele>15.4</ele>
        <time>2022-04-11T11:53:21Z</time>
      </trkpt>
      <trkpt lat="49.93666" lon="2.2069">
        <ele>15.4</ele>
        <time>2022-04-11T11:53:22Z</time>
      </trkpt>
      <trkpt lat="49.93666" lon="2.20692">
        <ele>15.4</ele>
        <time>2022-04-11T11:53:23Z</time>
      </trkpt>
      <trkpt lat="49.93666" lon="2.20695">
        <ele>15.4</ele>
        <time>2022-04-11T11:53:24Z</time>
      </trkpt>
      <trkpt lat="49.93666" lon="2.20697">
        <ele>15.4</ele>
        <time>2022-04-11T11:53:25Z</time>
      </trkpt>
      <trkpt lat="49.93666" lon="2.20698">
        <ele>15.5</ele>
        <time>2022-04-11T11:53:26Z</time>
      </trkpt>
      <trkpt lat="49.93666" lon="2.207">
        <ele>15.5</ele>
        <time>2022-04-11T11:53:27Z</time>
      </trkpt>
      <trkpt lat="49.93666" lon="2.20702">
        <ele>15.5</ele>
        <time>2022-04-11T11:53:28Z</time>
      </trkpt>
      <trkpt lat="49.93666" lon="2.20703">
        <ele>15.5</ele>
        <time>2022-04-11T11:53:29Z</time>
      </trkpt>
      <trkpt lat="49.93666" lon="2.20705">
        <ele>15.5</ele>
        <time>2022-04-11T11:53:30Z</time>
      </trkpt>
      <trkpt lat="49.93666" lon="2.20707">
        <ele>15.6</ele>
        <time>2022-04-11T11:53:32Z</time>
      </trkpt>
      <trkpt lat="49.93666" lon="2.20708">
        <ele>15.6</ele>
        <time>2022-04-11T11:53:33Z</time>
      </trkpt>
      <trkpt lat="49.93666" lon="2.2071">
        <ele>15.6</ele>
        <time>2022-04-11T11:53:34Z</time>
      </trkpt>
      <trkpt lat="49.93666" lon="2.20711">
        <ele>15.6</ele>
        <time>2022-04-11T11:53:35Z</time>
      </trkpt>
      <trkpt lat="49.93665" lon="2.20712">
        <ele>15.6</ele>
        <time>2022-04-11T11:53:36Z</time>
      </trkpt>
      <trkpt lat="49.93665" lon="2.20714">
        <ele>15.6</ele>
        <time>2022-04-11T11:53:37Z</time>
      </trkpt>
      <trkpt lat="49.93665" lon="2.20717">
        <ele>15.7</ele>
        <time>2022-04-11T11:53:38Z</time>
      </trkpt>
      <trkpt lat="49.93665" lon="2.20718">
        <ele>15.7</ele>
        <time>2022-04-11T11:53:39Z</time>
      </trkpt>
      <trkpt lat="49.93665" lon="2.20719">
        <ele>15.7</ele>
        <time>2022-04-11T11:53:40Z</time>
      </trkpt>
      <trkpt lat="49.93664" lon="2.20721">
        <ele>15.7</ele>
        <time>2022-04-11T11:53:41Z</time>
      </trkpt>
      <trkpt lat="49.93664" lon="2.20723">
        <ele>15.7</ele>
        <time>2022-04-11T11:53:42Z</time>
      </trkpt>
      <trkpt lat="49.93664" lon="2.20726">
        <ele>15.8</ele>
        <time>2022-04-11T11:53:44Z</time>
      </trkpt>
      <trkpt lat="49.93663" lon="2.20729">
        <ele>15.8</ele>
        <time>2022-04-11T11:53:45Z</time>
      </trkpt>
      <trkpt lat="49.93663" lon="2.2073">
        <ele>15.8</ele>
        <time>2022-04-11T11:53:46Z</time>
      </trkpt>
      <trkpt lat="49.93663" lon="2.20731">
        <ele>15.8</ele>
        <time>2022-04-11T11:53:47Z</time>
      </trkpt>
      <trkpt lat="49.93663" lon="2.20735">
        <ele>15.9</ele>
        <time>2022-04-11T11:53:48Z</time>
      </trkpt>
      <trkpt lat="49.93663" lon="2.20736">
        <ele>15.9</ele>
        <time>2022-04-11T11:53:49Z</time>
      </trkpt>
      <trkpt lat="49.93663" lon="2.20737">
        <ele>15.9</ele>
        <time>2022-04-11T11:53:50Z</time>
      </trkpt>
      <trkpt lat="49.93663" lon="2.20739">
        <ele>15.9</ele>
        <time>2022-04-11T11:53:51Z</time>
      </trkpt>
      <trkpt lat="49.93663" lon="2.20741">
        <ele>15.9</ele>
        <time>2022-04-11T11:53:52Z</time>
      </trkpt>
      <trkpt lat="49.93663" lon="2.20742">
        <ele>15.9</ele>
        <time>2022-04-11T11:53:53Z</time>
      </trkpt>
      <trkpt lat="49.93662" lon="2.20744">
        <ele>16</ele>
        <time>2022-04-11T11:53:55Z</time>
      </trkpt>
      <trkpt lat="49.93662" lon="2.20745">
        <ele>16</ele>
        <time>2022-04-11T11:53:56Z</time>
      </trkpt>
      <trkpt lat="49.93661" lon="2.20747">
        <ele>16</ele>
        <time>2022-04-11T11:53:57Z</time>
      </trkpt>
      <trkpt lat="49.9366" lon="2.2075">
        <ele>16</ele>
        <time>2022-04-11T11:53:58Z</time>
      </trkpt>
      <trkpt lat="49.9366" lon="2.20751">
        <ele>16</ele>
        <time>2022-04-11T11:53:59Z</time>
      </trkpt>
      <trkpt lat="49.93659" lon="2.20753">
        <ele>16.1</ele>
        <time>2022-04-11T11:54:00Z</time>
      </trkpt>
      <trkpt lat="49.93659" lon="2.20754">
        <ele>16.1</ele>
        <time>2022-04-11T11:54:01Z</time>
      </trkpt>
      <trkpt lat="49.93659" lon="2.20756">
        <ele>16.1</ele>
        <time>2022-04-11T11:54:02Z</time>
      </trkpt>
      <trkpt lat="49.93659" lon="2.20758">
        <ele>16.1</ele>
        <time>2022-04-11T11:54:03Z</time>
      </trkpt>
      <trkpt lat="49.93659" lon="2.2076">
        <ele>16.2</ele>
        <time>2022-04-11T11:54:04Z</time>
      </trkpt>
      <trkpt lat="49.93659" lon="2.20762">
        <ele>16.2</ele>
        <time>2022-04-11T11:54:06Z</time>
      </trkpt>
      <trkpt lat="49.93659" lon="2.20764">
        <ele>16.2</ele>
        <time>2022-04-11T11:54:07Z</time>
      </trkpt>
      <trkpt lat="49.93659" lon="2.20767">
        <ele>16.3</ele>
        <time>2022-04-11T11:54:08Z</time>
      </trkpt>
      <trkpt lat="49.93658" lon="2.20768">
        <ele>16.4</ele>
        <time>2022-04-11T11:54:09Z</time>
      </trkpt>
      <trkpt lat="49.93658" lon="2.20769">
        <ele>16.5</ele>
        <time>2022-04-11T11:54:10Z</time>
      </trkpt>
      <trkpt lat="49.93658" lon="2.20771">
        <ele>16.5</ele>
        <time>2022-04-11T11:54:11Z</time>
      </trkpt>
      <trkpt lat="49.93658" lon="2.20772">
        <ele>16.5</ele>
        <time>2022-04-11T11:54:12Z</time>
      </trkpt>
      <trkpt lat="49.93658" lon="2.20774">
        <ele>16.5</ele>
        <time>2022-04-11T11:54:14Z</time>
      </trkpt>
      <trkpt lat="49.93658" lon="2.20775">
        <ele>16.6</ele>
        <time>2022-04-11T11:54:15Z</time>
      </trkpt>
      <trkpt lat="49.93658" lon="2.20776">
        <ele>16.6</ele>
        <time>2022-04-11T11:54:16Z</time>
      </trkpt>
      <trkpt lat="49.93658" lon="2.20778">
        <ele>16.6</ele>
        <time>2022-04-11T11:54:17Z</time>
      </trkpt>
      <trkpt lat="49.93658" lon="2.20779">
        <ele>16.6</ele>
        <time>2022-04-11T11:54:18Z</time>
      </trkpt>
      <trkpt lat="49.93659" lon="2.2078">
        <ele>16.7</ele>
        <time>2022-04-11T11:54:20Z</time>
      </trkpt>
      <trkpt lat="49.9366" lon="2.20782">
        <ele>16.7</ele>
        <time>2022-04-11T11:54:21Z</time>
      </trkpt>
      <trkpt lat="49.9366" lon="2.20783">
        <ele>16.7</ele>
        <time>2022-04-11T11:54:22Z</time>
      </trkpt>
      <trkpt lat="49.93661" lon="2.20784">
        <ele>16.7</ele>
        <time>2022-04-11T11:54:23Z</time>
      </trkpt>
      <trkpt lat="49.93662" lon="2.20785">
        <ele>16.8</ele>
        <time>2022-04-11T11:54:24Z</time>
      </trkpt>
      <trkpt lat="49.93662" lon="2.20786">
        <ele>16.8</ele>
        <time>2022-04-11T11:54:25Z</time>
      </trkpt>
      <trkpt lat="49.93664" lon="2.20787">
        <ele>16.9</ele>
        <time>2022-04-11T11:54:26Z</time>
      </trkpt>
      <trkpt lat="49.93665" lon="2.20787">
        <ele>16.9</ele>
        <time>2022-04-11T11:54:27Z</time>
      </trkpt>
      <trkpt lat="49.93666" lon="2.20787">
        <ele>16.9</ele>
        <time>2022-04-11T11:54:28Z</time>
      </trkpt>
      <trkpt lat="49.93667" lon="2.20789">
        <ele>17</ele>
        <time>2022-04-11T11:54:30Z</time>
      </trkpt>
      <trkpt lat="49.93668" lon="2.2079">
        <ele>17</ele>
        <time>2022-04-11T11:54:31Z</time>
      </trkpt>
      <trkpt lat="49.9367" lon="2.20792">
        <ele>17.1</ele>
        <time>2022-04-11T11:54:32Z</time>
      </trkpt>
      <trkpt lat="49.93671" lon="2.20793">
        <ele>17.1</ele>
        <time>2022-04-11T11:54:33Z</time>
      </trkpt>
      <trkpt lat="49.93671" lon="2.20793">
        <ele>17.1</ele>
        <time>2022-04-11T11:54:34Z</time>
      </trkpt>
      <trkpt lat="49.93672" lon="2.20794">
        <ele>17.1</ele>
        <time>2022-04-11T11:54:35Z</time>
      </trkpt>
      <trkpt lat="49.93673" lon="2.20795">
        <ele>17.2</ele>
        <time>2022-04-11T11:54:36Z</time>
      </trkpt>
      <trkpt lat="49.93674" lon="2.20796">
        <ele>17.2</ele>
        <time>2022-04-11T11:54:37Z</time>
      </trkpt>
      <trkpt lat="49.93675" lon="2.20797">
        <ele>17.2</ele>
        <time>2022-04-11T11:54:39Z</time>
      </trkpt>
      <trkpt lat="49.93676" lon="2.20798">
        <ele>17.2</ele>
        <time>2022-04-11T11:54:40Z</time>
      </trkpt>
      <trkpt lat="49.93676" lon="2.208">
        <ele>17.3</ele>
        <time>2022-04-11T11:54:41Z</time>
      </trkpt>
      <trkpt lat="49.93676" lon="2.20801">
        <ele>17.3</ele>
        <time>2022-04-11T11:54:42Z</time>
      </trkpt>
      <trkpt lat="49.93677" lon="2.20802">
        <ele>17.3</ele>
        <time>2022-04-11T11:54:43Z</time>
      </trkpt>
      <trkpt lat="49.93678" lon="2.20804">
        <ele>17.4</ele>
        <time>2022-04-11T11:54:44Z</time>
      </trkpt>
      <trkpt lat="49.9368" lon="2.20805">
        <ele>17.4</ele>
        <time>2022-04-11T11:54:45Z</time>
      </trkpt>
      <trkpt lat="49.9368" lon="2.20806">
        <ele>17.4</ele>
        <time>2022-04-11T11:54:46Z</time>
      </trkpt>
      <trkpt lat="49.93681" lon="2.20807">
        <ele>17.5</ele>
        <time>2022-04-11T11:54:47Z</time>
      </trkpt>
      <trkpt lat="49.93682" lon="2.20808">
        <ele>17.5</ele>
        <time>2022-04-11T11:54:49Z</time>
      </trkpt>
      <trkpt lat="49.93683" lon="2.20809">
        <ele>17.5</ele>
        <time>2022-04-11T11:54:50Z</time>
      </trkpt>
      <trkpt lat="49.93684" lon="2.2081">
        <ele>17.5</ele>
        <time>2022-04-11T11:54:51Z</time>
      </trkpt>
      <trkpt lat="49.93684" lon="2.2081">
        <ele>17.6</ele>
        <time>2022-04-11T11:54:52Z</time>
      </trkpt>
      <trkpt lat="49.93685" lon="2.20811">
        <ele>17.6</ele>
        <time>2022-04-11T11:54:53Z</time>
      </trkpt>
      <trkpt lat="49.93686" lon="2.20813">
        <ele>17.6</ele>
        <time>2022-04-11T11:54:54Z</time>
      </trkpt>
      <trkpt lat="49.93687" lon="2.20814">
        <ele>17.7</ele>
        <time>2022-04-11T11:54:55Z</time>
      </trkpt>
      <trkpt lat="49.93688" lon="2.20816">
        <ele>17.7</ele>
        <time>2022-04-11T11:54:56Z</time>
      </trkpt>
      <trkpt lat="49.93688" lon="2.20817">
        <ele>17.8</ele>
        <time>2022-04-11T11:54:58Z</time>
      </trkpt>
      <trkpt lat="49.93689" lon="2.20819">
        <ele>17.8</ele>
        <time>2022-04-11T11:54:59Z</time>
      </trkpt>
      <trkpt lat="49.9369" lon="2.2082">
        <ele>17.8</ele>
        <time>2022-04-11T11:55:00Z</time>
      </trkpt>
      <trkpt lat="49.9369" lon="2.20821">
        <ele>17.9</ele>
        <time>2022-04-11T11:55:01Z</time>
      </trkpt>
      <trkpt lat="49.93691" lon="2.20823">
        <ele>17.9</ele>
        <time>2022-04-11T11:55:02Z</time>
      </trkpt>
      <trkpt lat="49.93692" lon="2.20824">
        <ele>17.9</ele>
        <time>2022-04-11T11:55:03Z</time>
      </trkpt>
      <trkpt lat="49.93693" lon="2.20825">
        <ele>18</ele>
        <time>2022-04-11T11:55:04Z</time>
      </trkpt>
      <trkpt lat="49.93694" lon="2.20827">
        <ele>18</ele>
        <time>2022-04-11T11:55:06Z</time>
      </trkpt>
      <trkpt lat="49.93694" lon="2.20828">
        <ele>18</ele>
        <time>2022-04-11T11:55:07Z</time>
      </trkpt>
      <trkpt lat="49.93695" lon="2.20829">
        <ele>18.1</ele>
        <time>2022-04-11T11:55:08Z</time>
      </trkpt>
      <trkpt lat="49.93696" lon="2.20831">
        <ele>18.1</ele>
        <time>2022-04-11T11:55:09Z</time>
      </trkpt>
      <trkpt lat="49.93696" lon="2.20832">
        <ele>18.1</ele>
        <time>2022-04-11T11:55:10Z</time>
      </trkpt>
      <trkpt lat="49.93697" lon="2.20834">
        <ele>18.2</ele>
        <time>2022-04-11T11:55:11Z</time>
      </trkpt>
      <trkpt lat="49.93698" lon="2.20835">
        <ele>18.2</ele>
        <time>2022-04-11T11:55:12Z</time>
      </trkpt>
      <trkpt lat="49.93699" lon="2.20836">
        <ele>18.2</ele>
        <time>2022-04-11T11:55:14Z</time>
      </trkpt>
      <trkpt lat="49.937" lon="2.20837">
        <ele>18.3</ele>
        <time>2022-04-11T11:55:15Z</time>
      </trkpt>
      <trkpt lat="49.93701" lon="2.20837">
        <ele>18.3</ele>
        <time>2022-04-11T11:55:16Z</time>
      </trkpt>
      <trkpt lat="49.93702" lon="2.20837">
        <ele>18.3</ele>
        <time>2022-04-11T11:55:17Z</time>
      </trkpt>
      <trkpt lat="49.93703" lon="2.20838">
        <ele>18.4</ele>
        <time>2022-04-11T11:55:18Z</time>
      </trkpt>
      <trkpt lat="49.93704" lon="2.20839">
        <ele>18.4</ele>
        <time>2022-04-11T11:55:19Z</time>
      </trkpt>
      <trkpt lat="49.93705" lon="2.2084">
        <ele>18.5</ele>
        <time>2022-04-11T11:55:20Z</time>
      </trkpt>
      <trkpt lat="49.93707" lon="2.20842">
        <ele>18.5</ele>
        <time>2022-04-11T11:55:21Z</time>
      </trkpt>
      <trkpt lat="49.93707" lon="2.20844">
        <ele>18.6</ele>
        <time>2022-04-11T11:55:23Z</time>
      </trkpt>
      <trkpt lat="49.93708" lon="2.20845">
        <ele>18.6</ele>
        <time>2022-04-11T11:55:24Z</time>
      </trkpt>
      <trkpt lat="49.93709" lon="2.20848">
        <ele>18.7</ele>
        <time>2022-04-11T11:55:25Z</time>
      </trkpt>
      <trkpt lat="49.93709" lon="2.20849">
        <ele>18.7</ele>
        <time>2022-04-11T11:55:26Z</time>
      </trkpt>
      <trkpt lat="49.9371" lon="2.2085">
        <ele>18.8</ele>
        <time>2022-04-11T11:55:27Z</time>
      </trkpt>
      <trkpt lat="49.9371" lon="2.20852">
        <ele>18.8</ele>
        <time>2022-04-11T11:55:28Z</time>
      </trkpt>
      <trkpt lat="49.93711" lon="2.20854">
        <ele>18.8</ele>
        <time>2022-04-11T11:55:29Z</time>
      </trkpt>
      <trkpt lat="49.93713" lon="2.20855">
        <ele>18.9</ele>
        <time>2022-04-11T11:55:30Z</time>
      </trkpt>
      <trkpt lat="49.93714" lon="2.20856">
        <ele>18.9</ele>
        <time>2022-04-11T11:55:32Z</time>
      </trkpt>
      <trkpt lat="49.93715" lon="2.20856">
        <ele>19</ele>
        <time>2022-04-11T11:55:33Z</time>
      </trkpt>
      <trkpt lat="49.93716" lon="2.20857">
        <ele>19</ele>
        <time>2022-04-11T11:55:34Z</time>
      </trkpt>
      <trkpt lat="49.93717" lon="2.20858">
        <ele>19</ele>
        <time>2022-04-11T11:55:35Z</time>
      </trkpt>
      <trkpt lat="49.93717" lon="2.20859">
        <ele>19.1</ele>
        <time>2022-04-11T11:55:36Z</time>
      </trkpt>
      <trkpt lat="49.93719" lon="2.20862">
        <ele>19.1</ele>
        <time>2022-04-11T11:55:37Z</time>
      </trkpt>
      <trkpt lat="49.9372" lon="2.20863">
        <ele>19.2</ele>
        <time>2022-04-11T11:55:39Z</time>
      </trkpt>
      <trkpt lat="49.9372" lon="2.20864">
        <ele>19.2</ele>
        <time>2022-04-11T11:55:40Z</time>
      </trkpt>
      <trkpt lat="49.93721" lon="2.20865">
        <ele>19.2</ele>
        <time>2022-04-11T11:55:41Z</time>
      </trkpt>
      <trkpt lat="49.93721" lon="2.20866">
        <ele>19.3</ele>
        <time>2022-04-11T11:55:42Z</time>
      </trkpt>
      <trkpt lat="49.93722" lon="2.20868">
        <ele>19.3</ele>
        <time>2022-04-11T11:55:43Z</time>
      </trkpt>
      <trkpt lat="49.93723" lon="2.20869">
        <ele>19.3</ele>
        <time>2022-04-11T11:55:44Z</time>
      </trkpt>
      <trkpt lat="49.93724" lon="2.2087">
        <ele>19.4</ele>
        <time>2022-04-11T11:55:45Z</time>
      </trkpt>
      <trkpt lat="49.93725" lon="2.20871">
        <ele>19.4</ele>
        <time>2022-04-11T11:55:46Z</time>
      </trkpt>
      <trkpt lat="49.93726" lon="2.20872">
        <ele>19.4</ele>
        <time>2022-04-11T11:55:47Z</time>
      </trkpt>
      <trkpt lat="49.93727" lon="2.20873">
        <ele>19.5</ele>
        <time>2022-04-11T11:55:49Z</time>
      </trkpt>
      <trkpt lat="49.93728" lon="2.20874">
        <ele>19.5</ele>
        <time>2022-04-11T11:55:50Z</time>
      </trkpt>
      <trkpt lat="49.93729" lon="2.20875">
        <ele>19.5</ele>
        <time>2022-04-11T11:55:51Z</time>
      </trkpt>
      <trkpt lat="49.93729" lon="2.20876">
        <ele>19.6</ele>
        <time>2022-04-11T11:55:52Z</time>
      </trkpt>
      <trkpt lat="49.9373" lon="2.20878">
        <ele>19.6</ele>
        <time>2022-04-11T11:55:53Z</time>
      </trkpt>
      <trkpt lat="49.93731" lon="2.20879">
        <ele>19.6</ele>
        <time>2022-04-11T11:55:55Z</time>
      </trkpt>
      <trkpt lat="49.93732" lon="2.20881">
        <ele>19.7</ele>
        <time>2022-04-11T11:55:56Z</time>
      </trkpt>
      <trkpt lat="49.93733" lon="2.20882">
        <ele>19.7</ele>
        <time>2022-04-11T11:55:57Z</time>
      </trkpt>
      <trkpt lat="49.93733" lon="2.20883">
        <ele>19.8</ele>
        <time>2022-04-11T11:55:58Z</time>
      </trkpt>
      <trkpt lat="49.93734" lon="2.20885">
        <ele>19.8</ele>
        <time>2022-04-11T11:55:59Z</time>
      </trkpt>
      <trkpt lat="49.93735" lon="2.20886">
        <ele>19.8</ele>
        <time>2022-04-11T11:56:00Z</time>
      </trkpt>
      <trkpt lat="49.93736" lon="2.20887">
        <ele>19.9</ele>
        <time>2022-04-11T11:56:01Z</time>
      </trkpt>
      <trkpt lat="49.93736" lon="2.20888">
        <ele>19.9</ele>
        <time>2022-04-11T11:56:02Z</time>
      </trkpt>
      <trkpt lat="49.93737" lon="2.20889">
        <ele>19.9</ele>
        <time>2022-04-11T11:56:04Z</time>
      </trkpt>
      <trkpt lat="49.93738" lon="2.2089">
        <ele>19.9</ele>
        <time>2022-04-11T11:56:05Z</time>
      </trkpt>
      <trkpt lat="49.93739" lon="2.20891">
        <ele>20</ele>
        <time>2022-04-11T11:56:06Z</time>
      </trkpt>
      <trkpt lat="49.9374" lon="2.20892">
        <ele>20</ele>
        <time>2022-04-11T11:56:07Z</time>
      </trkpt>
      <trkpt lat="49.93741" lon="2.20893">
        <ele>20</ele>
        <time>2022-04-11T11:56:08Z</time>
      </trkpt>
      <trkpt lat="49.93743" lon="2.20893">
        <ele>20.1</ele>
        <time>2022-04-11T11:56:09Z</time>
      </trkpt>
      <trkpt lat="49.93744" lon="2.20894">
        <ele>20.1</ele>
        <time>2022-04-11T11:56:10Z</time>
      </trkpt>
      <trkpt lat="49.93745" lon="2.20894">
        <ele>20.1</ele>
        <time>2022-04-11T11:56:11Z</time>
      </trkpt>
      <trkpt lat="49.93747" lon="2.20894">
        <ele>20.2</ele>
        <time>2022-04-11T11:56:13Z</time>
      </trkpt>
      <trkpt lat="49.93748" lon="2.20894">
        <ele>20.2</ele>
        <time>2022-04-11T11:56:14Z</time>
      </trkpt>
      <trkpt lat="49.93749" lon="2.20894">
        <ele>20.2</ele>
        <time>2022-04-11T11:56:15Z</time>
      </trkpt>
      <trkpt lat="49.9375" lon="2.20895">
        <ele>20.3</ele>
        <time>2022-04-11T11:56:16Z</time>
      </trkpt>
      <trkpt lat="49.93751" lon="2.20895">
        <ele>20.3</ele>
        <time>2022-04-11T11:56:17Z</time>
      </trkpt>
      <trkpt lat="49.93752" lon="2.20895">
        <ele>20.3</ele>
        <time>2022-04-11T11:56:18Z</time>
      </trkpt>
      <trkpt lat="49.93753" lon="2.20895">
        <ele>20.4</ele>
        <time>2022-04-11T11:56:19Z</time>
      </trkpt>
      <trkpt lat="49.93754" lon="2.20896">
        <ele>20.4</ele>
        <time>2022-04-11T11:56:20Z</time>
      </trkpt>
      <trkpt lat="49.93756" lon="2.20896">
        <ele>20.5</ele>
        <time>2022-04-11T11:56:22Z</time>
      </trkpt>
      <trkpt lat="49.93757" lon="2.20897">
        <ele>20.5</ele>
        <time>2022-04-11T11:56:23Z</time>
      </trkpt>
      <trkpt lat="49.93758" lon="2.20897">
        <ele>20.5</ele>
        <time>2022-04-11T11:56:24Z</time>
      </trkpt>
      <trkpt lat="49.93759" lon="2.20897">
        <ele>20.6</ele>
        <time>2022-04-11T11:56:25Z</time>
      </trkpt>
      <trkpt lat="49.9376" lon="2.20897">
        <ele>20.6</ele>
        <time>2022-04-11T11:56:26Z</time>
      </trkpt>
      <trkpt lat="49.93761" lon="2.20898">
        <ele>20.6</ele>
        <time>2022-04-11T11:56:27Z</time>
      </trkpt>
      <trkpt lat="49.93762" lon="2.20898">
        <ele>20.7</ele>
        <time>2022-04-11T11:56:28Z</time>
      </trkpt>
      <trkpt lat="49.93763" lon="2.20899">
        <ele>20.7</ele>
        <time>2022-04-11T11:56:29Z</time>
      </trkpt>
      <trkpt lat="49.93764" lon="2.20899">
        <ele>20.7</ele>
        <time>2022-04-11T11:56:31Z</time>
      </trkpt>
      <trkpt lat="49.93765" lon="2.209">
        <ele>20.8</ele>
        <time>2022-04-11T11:56:32Z</time>
      </trkpt>
      <trkpt lat="49.93765" lon="2.20901">
        <ele>20.8</ele>
        <time>2022-04-11T11:56:33Z</time>
      </trkpt>
      <trkpt lat="49.93766" lon="2.20903">
        <ele>20.8</ele>
        <time>2022-04-11T11:56:34Z</time>
      </trkpt>
      <trkpt lat="49.93767" lon="2.20904">
        <ele>20.9</ele>
        <time>2022-04-11T11:56:35Z</time>
      </trkpt>
      <trkpt lat="49.93768" lon="2.20905">
        <ele>20.9</ele>
        <time>2022-04-11T11:56:36Z</time>
      </trkpt>
      <trkpt lat="49.93769" lon="2.20905">
        <ele>20.9</ele>
        <time>2022-04-11T11:56:37Z</time>
      </trkpt>
      <trkpt lat="49.9377" lon="2.20906">
        <ele>21</ele>
        <time>2022-04-11T11:56:38Z</time>
      </trkpt>
      <trkpt lat="49.93771" lon="2.20907">
        <ele>21</ele>
        <time>2022-04-11T11:56:40Z</time>
      </trkpt>
      <trkpt lat="49.93771" lon="2.20908">
        <ele>21</ele>
        <time>2022-04-11T11:56:41Z</time>
      </trkpt>
      <trkpt lat="49.93772" lon="2.20909">
        <ele>21.1</ele>
        <time>2022-04-11T11:56:42Z</time>
      </trkpt>
      <trkpt lat="49.93774" lon="2.20911">
        <ele>21.1</ele>
        <time>2022-04-11T11:56:43Z</time>
      </trkpt>
      <trkpt lat="49.93775" lon="2.20912">
        <ele>21.1</ele>
        <time>2022-04-11T11:56:44Z</time>
      </trkpt>
      <trkpt lat="49.93776" lon="2.20912">
        <ele>21.1</ele>
        <time>2022-04-11T11:56:45Z</time>
      </trkpt>
      <trkpt lat="49.93777" lon="2.20913">
        <ele>21.2</ele>
        <time>2022-04-11T11:56:46Z</time>
      </trkpt>
      <trkpt lat="49.93777" lon="2.20915">
        <ele>21.2</ele>
        <time>2022-04-11T11:56:48Z</time>
      </trkpt>
      <trkpt lat="49.93778" lon="2.20916">
        <ele>21.2</ele>
        <time>2022-04-11T11:56:49Z</time>
      </trkpt>
      <trkpt lat="49.93779" lon="2.20917">
        <ele>21.2</ele>
        <time>2022-04-11T11:56:50Z</time>
      </trkpt>
      <trkpt lat="49.9378" lon="2.20917">
        <ele>21.2</ele>
        <time>2022-04-11T11:56:51Z</time>
      </trkpt>
      <trkpt lat="49.93781" lon="2.20918">
        <ele>21.3</ele>
        <time>2022-04-11T11:56:52Z</time>
      </trkpt>
      <trkpt lat="49.93782" lon="2.20919">
        <ele>21.3</ele>
        <time>2022-04-11T11:56:53Z</time>
      </trkpt>
      <trkpt lat="49.93783" lon="2.2092">
        <ele>21.3</ele>
        <time>2022-04-11T11:56:54Z</time>
      </trkpt>
      <trkpt lat="49.93784" lon="2.20921">
        <ele>21.3</ele>
        <time>2022-04-11T11:56:55Z</time>
      </trkpt>
      <trkpt lat="49.93784" lon="2.20923">
        <ele>21.3</ele>
        <time>2022-04-11T11:56:56Z</time>
      </trkpt>
      <trkpt lat="49.93785" lon="2.20924">
        <ele>21.3</ele>
        <time>2022-04-11T11:56:58Z</time>
      </trkpt>
      <trkpt lat="49.93786" lon="2.20925">
        <ele>21.3</ele>
        <time>2022-04-11T11:56:59Z</time>
      </trkpt>
      <trkpt lat="49.93788" lon="2.20927">
        <ele>21.3</ele>
        <time>2022-04-11T11:57:00Z</time>
      </trkpt>
      <trkpt lat="49.93788" lon="2.20928">
        <ele>21.3</ele>
        <time>2022-04-11T11:57:01Z</time>
      </trkpt>
      <trkpt lat="49.93789" lon="2.20929">
        <ele>21.3</ele>
        <time>2022-04-11T11:57:02Z</time>
      </trkpt>
      <trkpt lat="49.9379" lon="2.2093">
        <ele>21.3</ele>
        <time>2022-04-11T11:57:03Z</time>
      </trkpt>
      <trkpt lat="49.93792" lon="2.20931">
        <ele>21.3</ele>
        <time>2022-04-11T11:57:04Z</time>
      </trkpt>
      <trkpt lat="49.93793" lon="2.20931">
        <ele>21.4</ele>
        <time>2022-04-11T11:57:05Z</time>
      </trkpt>
      <trkpt lat="49.93794" lon="2.20932">
        <ele>21.4</ele>
        <time>2022-04-11T11:57:07Z</time>
      </trkpt>
      <trkpt lat="49.93795" lon="2.20933">
        <ele>21.4</ele>
        <time>2022-04-11T11:57:08Z</time>
      </trkpt>
      <trkpt lat="49.93797" lon="2.20934">
        <ele>21.4</ele>
        <time>2022-04-11T11:57:09Z</time>
      </trkpt>
      <trkpt lat="49.93798" lon="2.20934">
        <ele>21.4</ele>
        <time>2022-04-11T11:57:10Z</time>
      </trkpt>
      <trkpt lat="49.93798" lon="2.20935">
        <ele>21.4</ele>
        <time>2022-04-11T11:57:11Z</time>
      </trkpt>
      <trkpt lat="49.93801" lon="2.20935">
        <ele>21.4</ele>
        <time>2022-04-11T11:57:12Z</time>
      </trkpt>
      <trkpt lat="49.93801" lon="2.20936">
        <ele>21.5</ele>
        <time>2022-04-11T11:57:13Z</time>
      </trkpt>
      <trkpt lat="49.93802" lon="2.20936">
        <ele>21.5</ele>
        <time>2022-04-11T11:57:14Z</time>
      </trkpt>
      <trkpt lat="49.93804" lon="2.20937">
        <ele>21.5</ele>
        <time>2022-04-11T11:57:16Z</time>
      </trkpt>
      <trkpt lat="49.93805" lon="2.20937">
        <ele>21.5</ele>
        <time>2022-04-11T11:57:17Z</time>
      </trkpt>
      <trkpt lat="49.93805" lon="2.20938">
        <ele>21.6</ele>
        <time>2022-04-11T11:57:18Z</time>
      </trkpt>
      <trkpt lat="49.93807" lon="2.20939">
        <ele>21.6</ele>
        <time>2022-04-11T11:57:19Z</time>
      </trkpt>
      <trkpt lat="49.93808" lon="2.20939">
        <ele>21.6</ele>
        <time>2022-04-11T11:57:20Z</time>
      </trkpt>
      <trkpt lat="49.9381" lon="2.2094">
        <ele>21.7</ele>
        <time>2022-04-11T11:57:21Z</time>
      </trkpt>
      <trkpt lat="49.93811" lon="2.20941">
        <ele>21.7</ele>
        <time>2022-04-11T11:57:22Z</time>
      </trkpt>
      <trkpt lat="49.93812" lon="2.20941">
        <ele>21.8</ele>
        <time>2022-04-11T11:57:24Z</time>
      </trkpt>
      <trkpt lat="49.93813" lon="2.20941">
        <ele>21.8</ele>
        <time>2022-04-11T11:57:25Z</time>
      </trkpt>
      <trkpt lat="49.93814" lon="2.20942">
        <ele>21.8</ele>
        <time>2022-04-11T11:57:26Z</time>
      </trkpt>
      <trkpt lat="49.93815" lon="2.20942">
        <ele>21.9</ele>
        <time>2022-04-11T11:57:27Z</time>
      </trkpt>
      <trkpt lat="49.93817" lon="2.20943">
        <ele>22</ele>
        <time>2022-04-11T11:57:28Z</time>
      </trkpt>
      <trkpt lat="49.93818" lon="2.20944">
        <ele>22</ele>
        <time>2022-04-11T11:57:29Z</time>
      </trkpt>
      <trkpt lat="49.93818" lon="2.20945">
        <ele>22</ele>
        <time>2022-04-11T11:57:30Z</time>
      </trkpt>
      <trkpt lat="49.93819" lon="2.20945">
        <ele>22.1</ele>
        <time>2022-04-11T11:57:31Z</time>
      </trkpt>
      <trkpt lat="49.9382" lon="2.20946">
        <ele>22.1</ele>
        <time>2022-04-11T11:57:33Z</time>
      </trkpt>
      <trkpt lat="49.93821" lon="2.20947">
        <ele>22.2</ele>
        <time>2022-04-11T11:57:34Z</time>
      </trkpt>
      <trkpt lat="49.93822" lon="2.20948">
        <ele>22.2</ele>
        <time>2022-04-11T11:57:35Z</time>
      </trkpt>
      <trkpt lat="49.93823" lon="2.20949">
        <ele>22.2</ele>
        <time>2022-04-11T11:57:36Z</time>
      </trkpt>
      <trkpt lat="49.93824" lon="2.2095">
        <ele>22.3</ele>
        <time>2022-04-11T11:57:37Z</time>
      </trkpt>
      <trkpt lat="49.93825" lon="2.2095">
        <ele>22.3</ele>
        <time>2022-04-11T11:57:38Z</time>
      </trkpt>
      <trkpt lat="49.93826" lon="2.20951">
        <ele>22.4</ele>
        <time>2022-04-11T11:57:39Z</time>
      </trkpt>
      <trkpt lat="49.93827" lon="2.20952">
        <ele>22.4</ele>
        <time>2022-04-11T11:57:40Z</time>
      </trkpt>
      <trkpt lat="49.93827" lon="2.20953">
        <ele>22.4</ele>
        <time>2022-04-11T11:57:41Z</time>
      </trkpt>
      <trkpt lat="49.93828" lon="2.20954">
        <ele>22.5</ele>
        <time>2022-04-11T11:57:43Z</time>
      </trkpt>
      <trkpt lat="49.93829" lon="2.20955">
        <ele>22.5</ele>
        <time>2022-04-11T11:57:44Z</time>
      </trkpt>
      <trkpt lat="49.9383" lon="2.20956">
        <ele>22.6</ele>
        <time>2022-04-11T11:57:45Z</time>
      </trkpt>
      <trkpt lat="49.93831" lon="2.20957">
        <ele>22.6</ele>
        <time>2022-04-11T11:57:46Z</time>
      </trkpt>
      <trkpt lat="49.93832" lon="2.20959">
        <ele>22.7</ele>
        <time>2022-04-11T11:57:48Z</time>
      </trkpt>
      <trkpt lat="49.93833" lon="2.2096">
        <ele>22.7</ele>
        <time>2022-04-11T11:57:49Z</time>
      </trkpt>
      <trkpt lat="49.93834" lon="2.20961">
        <ele>22.8</ele>
        <time>2022-04-11T11:57:50Z</time>
      </trkpt>
      <trkpt lat="49.93835" lon="2.20961">
        <ele>22.8</ele>
        <time>2022-04-11T11:57:52Z</time>
      </trkpt>
      <trkpt lat="49.93836" lon="2.20962">
        <ele>22.9</ele>
        <time>2022-04-11T11:57:53Z</time>
      </trkpt>
      <trkpt lat="49.93837" lon="2.20963">
        <ele>22.9</ele>
        <time>2022-04-11T11:57:54Z</time>
      </trkpt>
      <trkpt lat="49.93838" lon="2.20965">
        <ele>22.9</ele>
        <time>2022-04-11T11:57:55Z</time>
      </trkpt>
      <trkpt lat="49.93839" lon="2.20966">
        <ele>23</ele>
        <time>2022-04-11T11:57:57Z</time>
      </trkpt>
      <trkpt lat="49.9384" lon="2.20968">
        <ele>23</ele>
        <time>2022-04-11T11:57:58Z</time>
      </trkpt>
      <trkpt lat="49.93841" lon="2.20969">
        <ele>23.1</ele>
        <time>2022-04-11T11:57:59Z</time>
      </trkpt>
      <trkpt lat="49.93842" lon="2.2097">
        <ele>23.1</ele>
        <time>2022-04-11T11:58:00Z</time>
      </trkpt>
      <trkpt lat="49.93842" lon="2.20971">
        <ele>23.2</ele>
        <time>2022-04-11T11:58:01Z</time>
      </trkpt>
      <trkpt lat="49.93843" lon="2.20973">
        <ele>23.2</ele>
        <time>2022-04-11T11:58:02Z</time>
      </trkpt>
      <trkpt lat="49.93844" lon="2.20974">
        <ele>23.3</ele>
        <time>2022-04-11T11:58:03Z</time>
      </trkpt>
      <trkpt lat="49.93846" lon="2.20975">
        <ele>23.3</ele>
        <time>2022-04-11T11:58:04Z</time>
      </trkpt>
      <trkpt lat="49.93847" lon="2.20976">
        <ele>23.4</ele>
        <time>2022-04-11T11:58:06Z</time>
      </trkpt>
      <trkpt lat="49.93848" lon="2.20976">
        <ele>23.4</ele>
        <time>2022-04-11T11:58:07Z</time>
      </trkpt>
      <trkpt lat="49.93849" lon="2.20977">
        <ele>23.4</ele>
        <time>2022-04-11T11:58:08Z</time>
      </trkpt>
      <trkpt lat="49.9385" lon="2.20978">
        <ele>23.5</ele>
        <time>2022-04-11T11:58:09Z</time>
      </trkpt>
      <trkpt lat="49.93851" lon="2.20979">
        <ele>23.5</ele>
        <time>2022-04-11T11:58:10Z</time>
      </trkpt>
      <trkpt lat="49.93852" lon="2.20982">
        <ele>23.6</ele>
        <time>2022-04-11T11:58:11Z</time>
      </trkpt>
      <trkpt lat="49.93853" lon="2.20982">
        <ele>23.6</ele>
        <time>2022-04-11T11:58:12Z</time>
      </trkpt>
      <trkpt lat="49.93854" lon="2.20983">
        <ele>23.7</ele>
        <time>2022-04-11T11:58:13Z</time>
      </trkpt>
      <trkpt lat="49.93855" lon="2.20985">
        <ele>23.7</ele>
        <time>2022-04-11T11:58:14Z</time>
      </trkpt>
      <trkpt lat="49.93856" lon="2.20986">
        <ele>23.8</ele>
        <time>2022-04-11T11:58:16Z</time>
      </trkpt>
      <trkpt lat="49.93857" lon="2.20987">
        <ele>23.8</ele>
        <time>2022-04-11T11:58:17Z</time>
      </trkpt>
      <trkpt lat="49.93857" lon="2.20988">
        <ele>23.8</ele>
        <time>2022-04-11T11:58:18Z</time>
      </trkpt>
      <trkpt lat="49.93858" lon="2.20988">
        <ele>23.9</ele>
        <time>2022-04-11T11:58:19Z</time>
      </trkpt>
      <trkpt lat="49.93859" lon="2.20989">
        <ele>23.9</ele>
        <time>2022-04-11T11:58:20Z</time>
      </trkpt>
      <trkpt lat="49.93861" lon="2.2099">
        <ele>24</ele>
        <time>2022-04-11T11:58:21Z</time>
      </trkpt>
      <trkpt lat="49.93862" lon="2.20991">
        <ele>24</ele>
        <time>2022-04-11T11:58:22Z</time>
      </trkpt>
      <trkpt lat="49.93863" lon="2.20991">
        <ele>24</ele>
        <time>2022-04-11T11:58:23Z</time>
      </trkpt>
      <trkpt lat="49.93864" lon="2.20992">
        <ele>24.1</ele>
        <time>2022-04-11T11:58:25Z</time>
      </trkpt>
      <trkpt lat="49.93865" lon="2.20993">
        <ele>24.1</ele>
        <time>2022-04-11T11:58:26Z</time>
      </trkpt>
      <trkpt lat="49.93866" lon="2.20994">
        <ele>24.2</ele>
        <time>2022-04-11T11:58:27Z</time>
      </trkpt>
      <trkpt lat="49.93867" lon="2.20996">
        <ele>24.3</ele>
        <time>2022-04-11T11:58:28Z</time>
      </trkpt>
      <trkpt lat="49.93868" lon="2.20997">
        <ele>24.3</ele>
        <time>2022-04-11T11:58:29Z</time>
      </trkpt>
      <trkpt lat="49.93869" lon="2.20997">
        <ele>24.3</ele>
        <time>2022-04-11T11:58:30Z</time>
      </trkpt>
      <trkpt lat="49.9387" lon="2.20999">
        <ele>24.4</ele>
        <time>2022-04-11T11:58:31Z</time>
      </trkpt>
      <trkpt lat="49.93871" lon="2.21">
        <ele>24.5</ele>
        <time>2022-04-11T11:58:32Z</time>
      </trkpt>
      <trkpt lat="49.93872" lon="2.21001">
        <ele>24.5</ele>
        <time>2022-04-11T11:58:34Z</time>
      </trkpt>
      <trkpt lat="49.93874" lon="2.21002">
        <ele>24.6</ele>
        <time>2022-04-11T11:58:35Z</time>
      </trkpt>
      <trkpt lat="49.93875" lon="2.21004">
        <ele>24.7</ele>
        <time>2022-04-11T11:58:36Z</time>
      </trkpt>
      <trkpt lat="49.93876" lon="2.21005">
        <ele>24.7</ele>
        <time>2022-04-11T11:58:37Z</time>
      </trkpt>
      <trkpt lat="49.93877" lon="2.21005">
        <ele>24.8</ele>
        <time>2022-04-11T11:58:38Z</time>
      </trkpt>
      <trkpt lat="49.93878" lon="2.21006">
        <ele>24.8</ele>
        <time>2022-04-11T11:58:39Z</time>
      </trkpt>
      <trkpt lat="49.93879" lon="2.21007">
        <ele>24.9</ele>
        <time>2022-04-11T11:58:40Z</time>
      </trkpt>
      <trkpt lat="49.9388" lon="2.21007">
        <ele>25</ele>
        <time>2022-04-11T11:58:42Z</time>
      </trkpt>
      <trkpt lat="49.93882" lon="2.21005">
        <ele>25.1</ele>
        <time>2022-04-11T11:58:43Z</time>
      </trkpt>
      <trkpt lat="49.93883" lon="2.21004">
        <ele>25.1</ele>
        <time>2022-04-11T11:58:44Z</time>
      </trkpt>
      <trkpt lat="49.93883" lon="2.21003">
        <ele>25.1</ele>
        <time>2022-04-11T11:58:45Z</time>
      </trkpt>
      <trkpt lat="49.93884" lon="2.21002">
        <ele>25.1</ele>
        <time>2022-04-11T11:58:46Z</time>
      </trkpt>
      <trkpt lat="49.93885" lon="2.21">
        <ele>25.1</ele>
        <time>2022-04-11T11:58:47Z</time>
      </trkpt>
      <trkpt lat="49.93885" lon="2.20997">
        <ele>25.1</ele>
        <time>2022-04-11T11:58:49Z</time>
      </trkpt>
      <trkpt lat="49.93885" lon="2.20995">
        <ele>25.1</ele>
        <time>2022-04-11T11:58:50Z</time>
      </trkpt>
      <trkpt lat="49.93886" lon="2.20992">
        <ele>25.1</ele>
        <time>2022-04-11T11:58:51Z</time>
      </trkpt>
      <trkpt lat="49.93886" lon="2.2099">
        <ele>25.1</ele>
        <time>2022-04-11T11:58:52Z</time>
      </trkpt>
      <trkpt lat="49.93887" lon="2.20989">
        <ele>25.1</ele>
        <time>2022-04-11T11:58:53Z</time>
      </trkpt>
      <trkpt lat="49.93887" lon="2.20987">
        <ele>25.1</ele>
        <time>2022-04-11T11:58:54Z</time>
      </trkpt>
      <trkpt lat="49.93887" lon="2.20985">
        <ele>25.1</ele>
        <time>2022-04-11T11:58:56Z</time>
      </trkpt>
      <trkpt lat="49.93888" lon="2.20983">
        <ele>25.1</ele>
        <time>2022-04-11T11:58:57Z</time>
      </trkpt>
      <trkpt lat="49.93888" lon="2.20981">
        <ele>25.1</ele>
        <time>2022-04-11T11:58:58Z</time>
      </trkpt>
      <trkpt lat="49.93889" lon="2.2098">
        <ele>25.1</ele>
        <time>2022-04-11T11:58:59Z</time>
      </trkpt>
      <trkpt lat="49.93889" lon="2.20978">
        <ele>25.1</ele>
        <time>2022-04-11T11:59:00Z</time>
      </trkpt>
      <trkpt lat="49.9389" lon="2.20976">
        <ele>25.1</ele>
        <time>2022-04-11T11:59:01Z</time>
      </trkpt>
      <trkpt lat="49.9389" lon="2.20973">
        <ele>25.1</ele>
        <time>2022-04-11T11:59:03Z</time>
      </trkpt>
      <trkpt lat="49.9389" lon="2.20971">
        <ele>25.1</ele>
        <time>2022-04-11T11:59:04Z</time>
      </trkpt>
      <trkpt lat="49.93891" lon="2.20969">
        <ele>25.1</ele>
        <time>2022-04-11T11:59:05Z</time>
      </trkpt>
      <trkpt lat="49.93892" lon="2.20967">
        <ele>25.1</ele>
        <time>2022-04-11T11:59:06Z</time>
      </trkpt>
      <trkpt lat="49.93892" lon="2.20965">
        <ele>25.1</ele>
        <time>2022-04-11T11:59:07Z</time>
      </trkpt>
      <trkpt lat="49.93893" lon="2.20963">
        <ele>25.1</ele>
        <time>2022-04-11T11:59:08Z</time>
      </trkpt>
      <trkpt lat="49.93893" lon="2.20961">
        <ele>25.1</ele>
        <time>2022-04-11T11:59:10Z</time>
      </trkpt>
      <trkpt lat="49.93893" lon="2.20958">
        <ele>25.1</ele>
        <time>2022-04-11T11:59:11Z</time>
      </trkpt>
      <trkpt lat="49.93893" lon="2.20956">
        <ele>25.1</ele>
        <time>2022-04-11T11:59:12Z</time>
      </trkpt>
      <trkpt lat="49.93893" lon="2.20955">
        <ele>25.1</ele>
        <time>2022-04-11T11:59:13Z</time>
      </trkpt>
      <trkpt lat="49.93893" lon="2.20953">
        <ele>25.1</ele>
        <time>2022-04-11T11:59:14Z</time>
      </trkpt>
      <trkpt lat="49.93894" lon="2.20951">
        <ele>25.1</ele>
        <time>2022-04-11T11:59:15Z</time>
      </trkpt>
      <trkpt lat="49.93894" lon="2.2095">
        <ele>25.1</ele>
        <time>2022-04-11T11:59:16Z</time>
      </trkpt>
      <trkpt lat="49.93894" lon="2.20946">
        <ele>25.1</ele>
        <time>2022-04-11T11:59:18Z</time>
      </trkpt>
      <trkpt lat="49.93894" lon="2.20945">
        <ele>25.1</ele>
        <time>2022-04-11T11:59:19Z</time>
      </trkpt>
      <trkpt lat="49.93894" lon="2.20944">
        <ele>25.1</ele>
        <time>2022-04-11T11:59:20Z</time>
      </trkpt>
      <trkpt lat="49.93894" lon="2.20941">
        <ele>25.1</ele>
        <time>2022-04-11T11:59:21Z</time>
      </trkpt>
      <trkpt lat="49.93894" lon="2.20939">
        <ele>25.1</ele>
        <time>2022-04-11T11:59:22Z</time>
      </trkpt>
      <trkpt lat="49.93894" lon="2.20936">
        <ele>25.1</ele>
        <time>2022-04-11T11:59:23Z</time>
      </trkpt>
      <trkpt lat="49.93895" lon="2.20934">
        <ele>25.1</ele>
        <time>2022-04-11T11:59:24Z</time>
      </trkpt>
      <trkpt lat="49.93895" lon="2.20932">
        <ele>25.1</ele>
        <time>2022-04-11T11:59:26Z</time>
      </trkpt>
      <trkpt lat="49.93896" lon="2.2093">
        <ele>25.1</ele>
        <time>2022-04-11T11:59:27Z</time>
      </trkpt>
      <trkpt lat="49.93896" lon="2.20929">
        <ele>25.1</ele>
        <time>2022-04-11T11:59:28Z</time>
      </trkpt>
      <trkpt lat="49.93896" lon="2.20928">
        <ele>25.1</ele>
        <time>2022-04-11T11:59:29Z</time>
      </trkpt>
      <trkpt lat="49.93897" lon="2.20926">
        <ele>25.1</ele>
        <time>2022-04-11T11:59:30Z</time>
      </trkpt>
      <trkpt lat="49.93897" lon="2.20925">
        <ele>25.1</ele>
        <time>2022-04-11T11:59:31Z</time>
      </trkpt>
      <trkpt lat="49.93898" lon="2.20924">
        <ele>25.1</ele>
        <time>2022-04-11T11:59:32Z</time>
      </trkpt>
      <trkpt lat="49.93898" lon="2.20922">
        <ele>25.1</ele>
        <time>2022-04-11T11:59:33Z</time>
      </trkpt>
      <trkpt lat="49.93898" lon="2.20921">
        <ele>25.2</ele>
        <time>2022-04-11T11:59:34Z</time>
      </trkpt>
      <trkpt lat="49.93898" lon="2.20919">
        <ele>25.2</ele>
        <time>2022-04-11T11:59:35Z</time>
      </trkpt>
      <trkpt lat="49.93898" lon="2.20918">
        <ele>25.2</ele>
        <time>2022-04-11T11:59:36Z</time>
      </trkpt>
      <trkpt lat="49.93898" lon="2.20917">
        <ele>25.2</ele>
        <time>2022-04-11T11:59:37Z</time>
      </trkpt>
      <trkpt lat="49.93898" lon="2.20917">
        <ele>25.2</ele>
        <time>2022-04-11T11:59:38Z</time>
      </trkpt>
      <trkpt lat="49.93898" lon="2.20917">
        <ele>25.2</ele>
        <time>2022-04-11T11:59:39Z</time>
      </trkpt>
      <trkpt lat="49.93898" lon="2.20918">
        <ele>25.2</ele>
        <time>2022-04-11T11:59:40Z</time>
      </trkpt>
      <trkpt lat="49.93897" lon="2.20918">
        <ele>25.2</ele>
        <time>2022-04-11T11:59:41Z</time>
      </trkpt>
      <trkpt lat="49.93897" lon="2.2092">
        <ele>25.2</ele>
        <time>2022-04-11T11:59:42Z</time>
      </trkpt>
      <trkpt lat="49.93896" lon="2.20921">
        <ele>25.1</ele>
        <time>2022-04-11T11:59:44Z</time>
      </trkpt>
      <trkpt lat="49.93895" lon="2.20922">
        <ele>25.1</ele>
        <time>2022-04-11T11:59:45Z</time>
      </trkpt>
      <trkpt lat="49.93894" lon="2.20924">
        <ele>25.1</ele>
        <time>2022-04-11T11:59:46Z</time>
      </trkpt>
      <trkpt lat="49.93894" lon="2.20925">
        <ele>25.1</ele>
        <time>2022-04-11T11:59:47Z</time>
      </trkpt>
      <trkpt lat="49.93895" lon="2.20928">
        <ele>25.1</ele>
        <time>2022-04-11T11:59:48Z</time>
      </trkpt>
      <trkpt lat="49.93895" lon="2.2093">
        <ele>25.1</ele>
        <time>2022-04-11T11:59:49Z</time>
      </trkpt>
      <trkpt lat="49.93896" lon="2.20932">
        <ele>25.1</ele>
        <time>2022-04-11T11:59:50Z</time>
      </trkpt>
      <trkpt lat="49.93896" lon="2.20934">
        <ele>25.1</ele>
        <time>2022-04-11T11:59:52Z</time>
      </trkpt>
      <trkpt lat="49.93896" lon="2.20935">
        <ele>25.2</ele>
        <time>2022-04-11T11:59:53Z</time>
      </trkpt>
      <trkpt lat="49.93897" lon="2.20936">
        <ele>25.2</ele>
        <time>2022-04-11T11:59:54Z</time>
      </trkpt>
      <trkpt lat="49.93897" lon="2.20938">
        <ele>25.2</ele>
        <time>2022-04-11T11:59:55Z</time>
      </trkpt>
      <trkpt lat="49.93898" lon="2.20939">
        <ele>25.2</ele>
        <time>2022-04-11T11:59:57Z</time>
      </trkpt>
      <trkpt lat="49.93898" lon="2.2094">
        <ele>25.2</ele>
        <time>2022-04-11T11:59:58Z</time>
      </trkpt>
      <trkpt lat="49.93898" lon="2.20941">
        <ele>25.3</ele>
        <time>2022-04-11T11:59:59Z</time>
      </trkpt>
      <trkpt lat="49.93899" lon="2.20942">
        <ele>25.3</ele>
        <time>2022-04-11T12:00:00Z</time>
      </trkpt>
      <trkpt lat="49.939" lon="2.20943">
        <ele>25.3</ele>
        <time>2022-04-11T12:00:01Z</time>
      </trkpt>
      <trkpt lat="49.939" lon="2.20944">
        <ele>25.3</ele>
        <time>2022-04-11T12:00:02Z</time>
      </trkpt>
      <trkpt lat="49.93901" lon="2.20945">
        <ele>25.3</ele>
        <time>2022-04-11T12:00:03Z</time>
      </trkpt>
      <trkpt lat="49.93902" lon="2.20946">
        <ele>25.4</ele>
        <time>2022-04-11T12:00:05Z</time>
      </trkpt>
      <trkpt lat="49.93903" lon="2.20947">
        <ele>25.4</ele>
        <time>2022-04-11T12:00:06Z</time>
      </trkpt>
      <trkpt lat="49.93904" lon="2.20948">
        <ele>25.4</ele>
        <time>2022-04-11T12:00:07Z</time>
      </trkpt>
      <trkpt lat="49.93905" lon="2.20949">
        <ele>25.4</ele>
        <time>2022-04-11T12:00:08Z</time>
      </trkpt>
      <trkpt lat="49.93906" lon="2.2095">
        <ele>25.4</ele>
        <time>2022-04-11T12:00:09Z</time>
      </trkpt>
      <trkpt lat="49.93908" lon="2.20951">
        <ele>25.5</ele>
        <time>2022-04-11T12:00:10Z</time>
      </trkpt>
      <trkpt lat="49.93909" lon="2.20952">
        <ele>25.5</ele>
        <time>2022-04-11T12:00:11Z</time>
      </trkpt>
      <trkpt lat="49.9391" lon="2.20953">
        <ele>25.5</ele>
        <time>2022-04-11T12:00:13Z</time>
      </trkpt>
      <trkpt lat="49.93912" lon="2.20954">
        <ele>25.5</ele>
        <time>2022-04-11T12:00:14Z</time>
      </trkpt>
      <trkpt lat="49.93913" lon="2.20955">
        <ele>25.5</ele>
        <time>2022-04-11T12:00:15Z</time>
      </trkpt>
      <trkpt lat="49.93915" lon="2.20955">
        <ele>25.6</ele>
        <time>2022-04-11T12:00:16Z</time>
      </trkpt>
      <trkpt lat="49.93916" lon="2.20956">
        <ele>25.6</ele>
        <time>2022-04-11T12:00:17Z</time>
      </trkpt>
      <trkpt lat="49.93918" lon="2.20958">
        <ele>25.6</ele>
        <time>2022-04-11T12:00:18Z</time>
      </trkpt>
      <trkpt lat="49.9392" lon="2.20959">
        <ele>25.7</ele>
        <time>2022-04-11T12:00:19Z</time>
      </trkpt>
      <trkpt lat="49.93921" lon="2.20959">
        <ele>25.7</ele>
        <time>2022-04-11T12:00:20Z</time>
      </trkpt>
      <trkpt lat="49.93923" lon="2.2096">
        <ele>25.8</ele>
        <time>2022-04-11T12:00:21Z</time>
      </trkpt>
      <trkpt lat="49.93924" lon="2.20961">
        <ele>25.8</ele>
        <time>2022-04-11T12:00:23Z</time>
      </trkpt>
      <trkpt lat="49.93925" lon="2.20962">
        <ele>25.9</ele>
        <time>2022-04-11T12:00:24Z</time>
      </trkpt>
      <trkpt lat="49.93927" lon="2.20964">
        <ele>25.9</ele>
        <time>2022-04-11T12:00:25Z</time>
      </trkpt>
      <trkpt lat="49.93928" lon="2.20964">
        <ele>25.9</ele>
        <time>2022-04-11T12:00:26Z</time>
      </trkpt>
      <trkpt lat="49.93929" lon="2.20965">
        <ele>25.9</ele>
        <time>2022-04-11T12:00:27Z</time>
      </trkpt>
      <trkpt lat="49.9393" lon="2.20965">
        <ele>26</ele>
        <time>2022-04-11T12:00:28Z</time>
      </trkpt>
      <trkpt lat="49.93931" lon="2.20965">
        <ele>26</ele>
        <time>2022-04-11T12:00:29Z</time>
      </trkpt>
      <trkpt lat="49.93932" lon="2.20966">
        <ele>26</ele>
        <time>2022-04-11T12:00:30Z</time>
      </trkpt>
      <trkpt lat="49.93935" lon="2.20966">
        <ele>26.1</ele>
        <time>2022-04-11T12:00:32Z</time>
      </trkpt>
      <trkpt lat="49.93935" lon="2.20966">
        <ele>26.1</ele>
        <time>2022-04-11T12:00:33Z</time>
      </trkpt>
      <trkpt lat="49.93936" lon="2.20966">
        <ele>26.1</ele>
        <time>2022-04-11T12:00:34Z</time>
      </trkpt>
      <trkpt lat="49.93938" lon="2.20966">
        <ele>26.2</ele>
        <time>2022-04-11T12:00:35Z</time>
      </trkpt>
      <trkpt lat="49.93939" lon="2.20966">
        <ele>26.2</ele>
        <time>2022-04-11T12:00:36Z</time>
      </trkpt>
      <trkpt lat="49.9394" lon="2.20967">
        <ele>26.2</ele>
        <time>2022-04-11T12:00:37Z</time>
      </trkpt>
      <trkpt lat="49.93941" lon="2.20967">
        <ele>26.2</ele>
        <time>2022-04-11T12:00:38Z</time>
      </trkpt>
      <trkpt lat="49.93942" lon="2.20967">
        <ele>26.3</ele>
        <time>2022-04-11T12:00:39Z</time>
      </trkpt>
      <trkpt lat="49.93943" lon="2.20967">
        <ele>26.3</ele>
        <time>2022-04-11T12:00:40Z</time>
      </trkpt>
      <trkpt lat="49.93944" lon="2.20967">
        <ele>26.3</ele>
        <time>2022-04-11T12:00:42Z</time>
      </trkpt>
      <trkpt lat="49.93945" lon="2.20968">
        <ele>26.3</ele>
        <time>2022-04-11T12:00:43Z</time>
      </trkpt>
      <trkpt lat="49.93946" lon="2.20968">
        <ele>26.3</ele>
        <time>2022-04-11T12:00:44Z</time>
      </trkpt>
      <trkpt lat="49.93948" lon="2.20969">
        <ele>26.4</ele>
        <time>2022-04-11T12:00:45Z</time>
      </trkpt>
      <trkpt lat="49.93949" lon="2.20969">
        <ele>26.4</ele>
        <time>2022-04-11T12:00:46Z</time>
      </trkpt>
      <trkpt lat="49.9395" lon="2.2097">
        <ele>26.4</ele>
        <time>2022-04-11T12:00:47Z</time>
      </trkpt>
      <trkpt lat="49.93951" lon="2.20971">
        <ele>26.4</ele>
        <time>2022-04-11T12:00:48Z</time>
      </trkpt>
      <trkpt lat="49.93952" lon="2.20972">
        <ele>26.4</ele>
        <time>2022-04-11T12:00:49Z</time>
      </trkpt>
      <trkpt lat="49.93953" lon="2.20972">
        <ele>26.4</ele>
        <time>2022-04-11T12:00:51Z</time>
      </trkpt>
      <trkpt lat="49.93954" lon="2.20973">
        <ele>26.5</ele>
        <time>2022-04-11T12:00:52Z</time>
      </trkpt>
      <trkpt lat="49.93955" lon="2.20974">
        <ele>26.5</ele>
        <time>2022-04-11T12:00:53Z</time>
      </trkpt>
      <trkpt lat="49.93956" lon="2.20975">
        <ele>26.5</ele>
        <time>2022-04-11T12:00:54Z</time>
      </trkpt>
      <trkpt lat="49.93957" lon="2.20976">
        <ele>26.5</ele>
        <time>2022-04-11T12:00:55Z</time>
      </trkpt>
      <trkpt lat="49.93958" lon="2.20976">
        <ele>26.5</ele>
        <time>2022-04-11T12:00:56Z</time>
      </trkpt>
      <trkpt lat="49.93959" lon="2.20977">
        <ele>26.6</ele>
        <time>2022-04-11T12:00:57Z</time>
      </trkpt>
      <trkpt lat="49.9396" lon="2.20978">
        <ele>26.6</ele>
        <time>2022-04-11T12:00:58Z</time>
      </trkpt>
      <trkpt lat="49.93961" lon="2.20978">
        <ele>26.6</ele>
        <time>2022-04-11T12:01:00Z</time>
      </trkpt>
      <trkpt lat="49.93962" lon="2.20979">
        <ele>26.6</ele>
        <time>2022-04-11T12:01:01Z</time>
      </trkpt>
      <trkpt lat="49.93964" lon="2.2098">
        <ele>26.6</ele>
        <time>2022-04-11T12:01:02Z</time>
      </trkpt>
      <trkpt lat="49.93965" lon="2.20981">
        <ele>26.6</ele>
        <time>2022-04-11T12:01:03Z</time>
      </trkpt>
      <trkpt lat="49.93966" lon="2.20981">
        <ele>26.7</ele>
        <time>2022-04-11T12:01:04Z</time>
      </trkpt>
      <trkpt lat="49.93967" lon="2.20982">
        <ele>26.7</ele>
        <time>2022-04-11T12:01:05Z</time>
      </trkpt>
      <trkpt lat="49.93969" lon="2.20983">
        <ele>26.7</ele>
        <time>2022-04-11T12:01:06Z</time>
      </trkpt>
      <trkpt lat="49.9397" lon="2.20983">
        <ele>26.7</ele>
        <time>2022-04-11T12:01:07Z</time>
      </trkpt>
      <trkpt lat="49.93971" lon="2.20984">
        <ele>26.8</ele>
        <time>2022-04-11T12:01:08Z</time>
      </trkpt>
      <trkpt lat="49.93972" lon="2.20985">
        <ele>26.8</ele>
        <time>2022-04-11T12:01:10Z</time>
      </trkpt>
      <trkpt lat="49.93974" lon="2.20986">
        <ele>26.8</ele>
        <time>2022-04-11T12:01:11Z</time>
      </trkpt>
      <trkpt lat="49.93975" lon="2.20986">
        <ele>26.8</ele>
        <time>2022-04-11T12:01:12Z</time>
      </trkpt>
      <trkpt lat="49.93977" lon="2.20987">
        <ele>26.9</ele>
        <time>2022-04-11T12:01:13Z</time>
      </trkpt>
      <trkpt lat="49.93978" lon="2.20987">
        <ele>26.9</ele>
        <time>2022-04-11T12:01:14Z</time>
      </trkpt>
      <trkpt lat="49.9398" lon="2.20988">
        <ele>26.9</ele>
        <time>2022-04-11T12:01:16Z</time>
      </trkpt>
      <trkpt lat="49.93981" lon="2.20988">
        <ele>26.9</ele>
        <time>2022-04-11T12:01:17Z</time>
      </trkpt>
      <trkpt lat="49.93983" lon="2.20989">
        <ele>27</ele>
        <time>2022-04-11T12:01:18Z</time>
      </trkpt>
      <trkpt lat="49.93984" lon="2.2099">
        <ele>27</ele>
        <time>2022-04-11T12:01:19Z</time>
      </trkpt>
      <trkpt lat="49.93985" lon="2.2099">
        <ele>27</ele>
        <time>2022-04-11T12:01:20Z</time>
      </trkpt>
      <trkpt lat="49.93986" lon="2.20991">
        <ele>27</ele>
        <time>2022-04-11T12:01:21Z</time>
      </trkpt>
      <trkpt lat="49.93987" lon="2.20991">
        <ele>27</ele>
        <time>2022-04-11T12:01:22Z</time>
      </trkpt>
      <trkpt lat="49.93988" lon="2.20992">
        <ele>27.1</ele>
        <time>2022-04-11T12:01:24Z</time>
      </trkpt>
      <trkpt lat="49.9399" lon="2.20992">
        <ele>27.1</ele>
        <time>2022-04-11T12:01:25Z</time>
      </trkpt>
      <trkpt lat="49.9399" lon="2.20993">
        <ele>27.1</ele>
        <time>2022-04-11T12:01:26Z</time>
      </trkpt>
      <trkpt lat="49.93991" lon="2.20993">
        <ele>27.1</ele>
        <time>2022-04-11T12:01:27Z</time>
      </trkpt>
      <trkpt lat="49.93992" lon="2.20994">
        <ele>27.2</ele>
        <time>2022-04-11T12:01:28Z</time>
      </trkpt>
      <trkpt lat="49.93993" lon="2.20994">
        <ele>27.3</ele>
        <time>2022-04-11T12:01:29Z</time>
      </trkpt>
      <trkpt lat="49.93994" lon="2.20995">
        <ele>27.3</ele>
        <time>2022-04-11T12:01:30Z</time>
      </trkpt>
      <trkpt lat="49.93996" lon="2.20996">
        <ele>27.3</ele>
        <time>2022-04-11T12:01:31Z</time>
      </trkpt>
      <trkpt lat="49.93997" lon="2.20996">
        <ele>27.3</ele>
        <time>2022-04-11T12:01:33Z</time>
      </trkpt>
      <trkpt lat="49.93998" lon="2.20996">
        <ele>27.4</ele>
        <time>2022-04-11T12:01:34Z</time>
      </trkpt>
      <trkpt lat="49.93999" lon="2.20997">
        <ele>27.4</ele>
        <time>2022-04-11T12:01:35Z</time>
      </trkpt>
      <trkpt lat="49.93999" lon="2.20998">
        <ele>27.4</ele>
        <time>2022-04-11T12:01:36Z</time>
      </trkpt>
      <trkpt lat="49.94" lon="2.20999">
        <ele>27.5</ele>
        <time>2022-04-11T12:01:37Z</time>
      </trkpt>
      <trkpt lat="49.94001" lon="2.21001">
        <ele>27.6</ele>
        <time>2022-04-11T12:01:38Z</time>
      </trkpt>
      <trkpt lat="49.94002" lon="2.21002">
        <ele>27.6</ele>
        <time>2022-04-11T12:01:39Z</time>
      </trkpt>
      <trkpt lat="49.94002" lon="2.21004">
        <ele>27.6</ele>
        <time>2022-04-11T12:01:40Z</time>
      </trkpt>
      <trkpt lat="49.94003" lon="2.21005">
        <ele>27.6</ele>
        <time>2022-04-11T12:01:42Z</time>
      </trkpt>
      <trkpt lat="49.94004" lon="2.21007">
        <ele>27.7</ele>
        <time>2022-04-11T12:01:43Z</time>
      </trkpt>
      <trkpt lat="49.94004" lon="2.21008">
        <ele>27.8</ele>
        <time>2022-04-11T12:01:44Z</time>
      </trkpt>
      <trkpt lat="49.94005" lon="2.21009">
        <ele>27.8</ele>
        <time>2022-04-11T12:01:45Z</time>
      </trkpt>
      <trkpt lat="49.94006" lon="2.2101">
        <ele>27.8</ele>
        <time>2022-04-11T12:01:46Z</time>
      </trkpt>
      <trkpt lat="49.94007" lon="2.21011">
        <ele>27.8</ele>
        <time>2022-04-11T12:01:47Z</time>
      </trkpt>
      <trkpt lat="49.94008" lon="2.21011">
        <ele>27.9</ele>
        <time>2022-04-11T12:01:49Z</time>
      </trkpt>
      <trkpt lat="49.94009" lon="2.21012">
        <ele>28</ele>
        <time>2022-04-11T12:01:50Z</time>
      </trkpt>
      <trkpt lat="49.9401" lon="2.21013">
        <ele>28</ele>
        <time>2022-04-11T12:01:51Z</time>
      </trkpt>
      <trkpt lat="49.94011" lon="2.21012">
        <ele>28</ele>
        <time>2022-04-11T12:01:52Z</time>
      </trkpt>
      <trkpt lat="49.94012" lon="2.21012">
        <ele>28</ele>
        <time>2022-04-11T12:01:53Z</time>
      </trkpt>
      <trkpt lat="49.94012" lon="2.21012">
        <ele>28.2</ele>
        <time>2022-04-11T12:01:54Z</time>
      </trkpt>
      <trkpt lat="49.94013" lon="2.21012">
        <ele>28.2</ele>
        <time>2022-04-11T12:01:55Z</time>
      </trkpt>
      <trkpt lat="49.94014" lon="2.21012">
        <ele>28.2</ele>
        <time>2022-04-11T12:01:57Z</time>
      </trkpt>
      <trkpt lat="49.94015" lon="2.21013">
        <ele>28.3</ele>
        <time>2022-04-11T12:01:58Z</time>
      </trkpt>
      <trkpt lat="49.94016" lon="2.21013">
        <ele>28.3</ele>
        <time>2022-04-11T12:01:59Z</time>
      </trkpt>
      <trkpt lat="49.94017" lon="2.21013">
        <ele>28.4</ele>
        <time>2022-04-11T12:02:00Z</time>
      </trkpt>
      <trkpt lat="49.94018" lon="2.21014">
        <ele>28.4</ele>
        <time>2022-04-11T12:02:01Z</time>
      </trkpt>
      <trkpt lat="49.94019" lon="2.21014">
        <ele>28.5</ele>
        <time>2022-04-11T12:02:02Z</time>
      </trkpt>
      <trkpt lat="49.9402" lon="2.21014">
        <ele>28.5</ele>
        <time>2022-04-11T12:02:03Z</time>
      </trkpt>
      <trkpt lat="49.94021" lon="2.21014">
        <ele>28.6</ele>
        <time>2022-04-11T12:02:04Z</time>
      </trkpt>
      <trkpt lat="49.94022" lon="2.21013">
        <ele>28.7</ele>
        <time>2022-04-11T12:02:06Z</time>
      </trkpt>
      <trkpt lat="49.94023" lon="2.21012">
        <ele>28.7</ele>
        <time>2022-04-11T12:02:07Z</time>
      </trkpt>
      <trkpt lat="49.94024" lon="2.21009">
        <ele>28.8</ele>
        <time>2022-04-11T12:02:08Z</time>
      </trkpt>
      <trkpt lat="49.94024" lon="2.21008">
        <ele>28.9</ele>
        <time>2022-04-11T12:02:09Z</time>
      </trkpt>
      <trkpt lat="49.94024" lon="2.21006">
        <ele>28.9</ele>
        <time>2022-04-11T12:02:10Z</time>
      </trkpt>
      <trkpt lat="49.94025" lon="2.21005">
        <ele>29</ele>
        <time>2022-04-11T12:02:11Z</time>
      </trkpt>
      <trkpt lat="49.94026" lon="2.21004">
        <ele>29.1</ele>
        <time>2022-04-11T12:02:12Z</time>
      </trkpt>
      <trkpt lat="49.94026" lon="2.21003">
        <ele>29.1</ele>
        <time>2022-04-11T12:02:14Z</time>
      </trkpt>
      <trkpt lat="49.94027" lon="2.21002">
        <ele>29.2</ele>
        <time>2022-04-11T12:02:15Z</time>
      </trkpt>
      <trkpt lat="49.94028" lon="2.21001">
        <ele>29.3</ele>
        <time>2022-04-11T12:02:16Z</time>
      </trkpt>
      <trkpt lat="49.94028" lon="2.21">
        <ele>29.3</ele>
        <time>2022-04-11T12:02:17Z</time>
      </trkpt>
      <trkpt lat="49.94029" lon="2.20999">
        <ele>29.4</ele>
        <time>2022-04-11T12:02:18Z</time>
      </trkpt>
      <trkpt lat="49.94029" lon="2.20997">
        <ele>29.5</ele>
        <time>2022-04-11T12:02:19Z</time>
      </trkpt>
      <trkpt lat="49.94029" lon="2.20996">
        <ele>29.6</ele>
        <time>2022-04-11T12:02:20Z</time>
      </trkpt>
      <trkpt lat="49.94028" lon="2.20994">
        <ele>29.6</ele>
        <time>2022-04-11T12:02:22Z</time>
      </trkpt>
      <trkpt lat="49.94028" lon="2.20993">
        <ele>29.6</ele>
        <time>2022-04-11T12:02:23Z</time>
      </trkpt>
      <trkpt lat="49.94027" lon="2.20991">
        <ele>29.7</ele>
        <time>2022-04-11T12:02:24Z</time>
      </trkpt>
      <trkpt lat="49.94027" lon="2.2099">
        <ele>29.7</ele>
        <time>2022-04-11T12:02:25Z</time>
      </trkpt>
      <trkpt lat="49.94027" lon="2.20988">
        <ele>29.7</ele>
        <time>2022-04-11T12:02:26Z</time>
      </trkpt>
      <trkpt lat="49.94026" lon="2.20986">
        <ele>29.8</ele>
        <time>2022-04-11T12:02:27Z</time>
      </trkpt>
      <trkpt lat="49.94026" lon="2.20985">
        <ele>29.8</ele>
        <time>2022-04-11T12:02:28Z</time>
      </trkpt>
      <trkpt lat="49.94026" lon="2.20984">
        <ele>29.9</ele>
        <time>2022-04-11T12:02:30Z</time>
      </trkpt>
      <trkpt lat="49.94025" lon="2.20984">
        <ele>29.9</ele>
        <time>2022-04-11T12:02:31Z</time>
      </trkpt>
      <trkpt lat="49.94023" lon="2.20984">
        <ele>29.9</ele>
        <time>2022-04-11T12:02:32Z</time>
      </trkpt>
      <trkpt lat="49.94022" lon="2.20984">
        <ele>30</ele>
        <time>2022-04-11T12:02:33Z</time>
      </trkpt>
      <trkpt lat="49.94021" lon="2.20985">
        <ele>30</ele>
        <time>2022-04-11T12:02:34Z</time>
      </trkpt>
      <trkpt lat="49.9402" lon="2.20986">
        <ele>30.1</ele>
        <time>2022-04-11T12:02:36Z</time>
      </trkpt>
      <trkpt lat="49.94019" lon="2.20987">
        <ele>30.1</ele>
        <time>2022-04-11T12:02:37Z</time>
      </trkpt>
      <trkpt lat="49.94018" lon="2.20988">
        <ele>30.1</ele>
        <time>2022-04-11T12:02:38Z</time>
      </trkpt>
      <trkpt lat="49.94017" lon="2.20989">
        <ele>30.1</ele>
        <time>2022-04-11T12:02:39Z</time>
      </trkpt>
      <trkpt lat="49.94016" lon="2.2099">
        <ele>30.2</ele>
        <time>2022-04-11T12:02:40Z</time>
      </trkpt>
      <trkpt lat="49.94015" lon="2.20991">
        <ele>30.2</ele>
        <time>2022-04-11T12:02:42Z</time>
      </trkpt>
      <trkpt lat="49.94014" lon="2.20992">
        <ele>30.2</ele>
        <time>2022-04-11T12:02:43Z</time>
      </trkpt>
      <trkpt lat="49.94014" lon="2.20993">
        <ele>30.2</ele>
        <time>2022-04-11T12:02:44Z</time>
      </trkpt>
      <trkpt lat="49.94014" lon="2.20993">
        <ele>30.3</ele>
        <time>2022-04-11T12:02:45Z</time>
      </trkpt>
      <trkpt lat="49.94014" lon="2.20993">
        <ele>30.3</ele>
        <time>2022-04-11T12:02:46Z</time>
      </trkpt>
      <trkpt lat="49.94014" lon="2.20992">
        <ele>30.3</ele>
        <time>2022-04-11T12:02:47Z</time>
      </trkpt>
      <trkpt lat="49.94014" lon="2.20992">
        <ele>30.3</ele>
        <time>2022-04-11T12:02:48Z</time>
      </trkpt>
      <trkpt lat="49.94015" lon="2.20992">
        <ele>30.3</ele>
        <time>2022-04-11T12:02:49Z</time>
      </trkpt>
      <trkpt lat="49.94015" lon="2.20992">
        <ele>30.4</ele>
        <time>2022-04-11T12:02:50Z</time>
      </trkpt>
      <trkpt lat="49.94015" lon="2.20992">
        <ele>30.4</ele>
        <time>2022-04-11T12:02:51Z</time>
      </trkpt>
      <trkpt lat="49.94015" lon="2.20992">
        <ele>30.4</ele>
        <time>2022-04-11T12:02:52Z</time>
      </trkpt>
      <trkpt lat="49.94015" lon="2.20992">
        <ele>30.4</ele>
        <time>2022-04-11T12:02:53Z</time>
      </trkpt>
      <trkpt lat="49.94016" lon="2.20993">
        <ele>30.4</ele>
        <time>2022-04-11T12:02:54Z</time>
      </trkpt>
      <trkpt lat="49.94016" lon="2.20993">
        <ele>30.4</ele>
        <time>2022-04-11T12:02:55Z</time>
      </trkpt>
      <trkpt lat="49.94017" lon="2.20993">
        <ele>30.5</ele>
        <time>2022-04-11T12:02:56Z</time>
      </trkpt>
      <trkpt lat="49.94017" lon="2.20992">
        <ele>30.5</ele>
        <time>2022-04-11T12:02:57Z</time>
      </trkpt>
      <trkpt lat="49.94018" lon="2.20992">
        <ele>30.5</ele>
        <time>2022-04-11T12:02:58Z</time>
      </trkpt>
      <trkpt lat="49.94018" lon="2.20991">
        <ele>30.5</ele>
        <time>2022-04-11T12:02:59Z</time>
      </trkpt>
      <trkpt lat="49.94018" lon="2.20991">
        <ele>30.5</ele>
        <time>2022-04-11T12:03:00Z</time>
      </trkpt>
      <trkpt lat="49.94019" lon="2.20991">
        <ele>30.6</ele>
        <time>2022-04-11T12:03:01Z</time>
      </trkpt>
      <trkpt lat="49.94019" lon="2.20991">
        <ele>30.6</ele>
        <time>2022-04-11T12:03:02Z</time>
      </trkpt>
      <trkpt lat="49.94019" lon="2.20991">
        <ele>30.6</ele>
        <time>2022-04-11T12:03:03Z</time>
      </trkpt>
      <trkpt lat="49.9402" lon="2.20991">
        <ele>30.6</ele>
        <time>2022-04-11T12:03:04Z</time>
      </trkpt>
      <trkpt lat="49.94021" lon="2.20991">
        <ele>30.6</ele>
        <time>2022-04-11T12:03:05Z</time>
      </trkpt>
      <trkpt lat="49.94022" lon="2.20991">
        <ele>30.6</ele>
        <time>2022-04-11T12:03:06Z</time>
      </trkpt>
      <trkpt lat="49.94022" lon="2.20991">
        <ele>30.6</ele>
        <time>2022-04-11T12:03:07Z</time>
      </trkpt>
      <trkpt lat="49.94022" lon="2.20991">
        <ele>30.7</ele>
        <time>2022-04-11T12:03:08Z</time>
      </trkpt>
      <trkpt lat="49.94022" lon="2.20991">
        <ele>30.7</ele>
        <time>2022-04-11T12:03:09Z</time>
      </trkpt>
      <trkpt lat="49.94022" lon="2.20991">
        <ele>30.7</ele>
        <time>2022-04-11T12:03:10Z</time>
      </trkpt>
      <trkpt lat="49.94022" lon="2.20991">
        <ele>30.7</ele>
        <time>2022-04-11T12:03:11Z</time>
      </trkpt>
      <trkpt lat="49.94022" lon="2.20991">
        <ele>30.7</ele>
        <time>2022-04-11T12:03:12Z</time>
      </trkpt>
      <trkpt lat="49.94022" lon="2.20991">
        <ele>30.7</ele>
        <time>2022-04-11T12:03:13Z</time>
      </trkpt>
      <trkpt lat="49.94022" lon="2.20991">
        <ele>30.7</ele>
        <time>2022-04-11T12:03:14Z</time>
      </trkpt>
      <trkpt lat="49.94022" lon="2.20991">
        <ele>30.7</ele>
        <time>2022-04-11T12:03:15Z</time>
      </trkpt>
      <trkpt lat="49.94022" lon="2.20991">
        <ele>30.7</ele>
        <time>2022-04-11T12:03:16Z</time>
      </trkpt>
      <trkpt lat="49.94022" lon="2.20991">
        <ele>30.7</ele>
        <time>2022-04-11T12:03:17Z</time>
      </trkpt>
      <trkpt lat="49.94022" lon="2.20991">
        <ele>30.7</ele>
        <time>2022-04-11T12:03:18Z</time>
      </trkpt>
      <trkpt lat="49.94022" lon="2.20991">
        <ele>30.7</ele>
        <time>2022-04-11T12:03:19Z</time>
      </trkpt>
      <trkpt lat="49.94022" lon="2.20991">
        <ele>30.7</ele>
        <time>2022-04-11T12:03:20Z</time>
      </trkpt>
      <trkpt lat="49.94023" lon="2.2099">
        <ele>30.7</ele>
        <time>2022-04-11T12:03:21Z</time>
      </trkpt>
      <trkpt lat="49.94024" lon="2.2099">
        <ele>30.7</ele>
        <time>2022-04-11T12:03:22Z</time>
      </trkpt>
      <trkpt lat="49.94024" lon="2.2099">
        <ele>30.7</ele>
        <time>2022-04-11T12:03:23Z</time>
      </trkpt>
      <trkpt lat="49.94024" lon="2.2099">
        <ele>30.7</ele>
        <time>2022-04-11T12:03:24Z</time>
      </trkpt>
      <trkpt lat="49.94024" lon="2.2099">
        <ele>30.7</ele>
        <time>2022-04-11T12:03:25Z</time>
      </trkpt>
      <trkpt lat="49.94024" lon="2.2099">
        <ele>30.7</ele>
        <time>2022-04-11T12:03:26Z</time>
      </trkpt>
      <trkpt lat="49.94024" lon="2.2099">
        <ele>30.7</ele>
        <time>2022-04-11T12:03:27Z</time>
      </trkpt>
      <trkpt lat="49.94024" lon="2.2099">
        <ele>30.7</ele>
        <time>2022-04-11T12:03:28Z</time>
      </trkpt>
      <trkpt lat="49.94024" lon="2.2099">
        <ele>30.7</ele>
        <time>2022-04-11T12:03:29Z</time>
      </trkpt>
      <trkpt lat="49.94024" lon="2.2099">
        <ele>30.7</ele>
        <time>2022-04-11T12:03:30Z</time>
      </trkpt>
      <trkpt lat="49.94024" lon="2.2099">
        <ele>30.7</ele>
        <time>2022-04-11T12:03:31Z</time>
      </trkpt>
      <trkpt lat="49.94024" lon="2.2099">
        <ele>30.7</ele>
        <time>2022-04-11T12:03:32Z</time>
      </trkpt>
      <trkpt lat="49.94024" lon="2.2099">
        <ele>30.7</ele>
        <time>2022-04-11T12:03:33Z</time>
      </trkpt>
      <trkpt lat="49.94024" lon="2.2099">
        <ele>30.7</ele>
        <time>2022-04-11T12:03:34Z</time>
      </trkpt>
      <trkpt lat="49.94024" lon="2.2099">
        <ele>30.7</ele>
        <time>2022-04-11T12:03:35Z</time>
      </trkpt>
      <trkpt lat="49.94024" lon="2.2099">
        <ele>30.7</ele>
        <time>2022-04-11T12:03:36Z</time>
      </trkpt>
      <trkpt lat="49.94024" lon="2.2099">
        <ele>30.7</ele>
        <time>2022-04-11T12:03:37Z</time>
      </trkpt>
      <trkpt lat="49.94024" lon="2.2099">
        <ele>30.7</ele>
        <time>2022-04-11T12:03:38Z</time>
      </trkpt>
      <trkpt lat="49.94024" lon="2.2099">
        <ele>30.7</ele>
        <time>2022-04-11T12:03:39Z</time>
      </trkpt>
      <trkpt lat="49.94024" lon="2.2099">
        <ele>30.7</ele>
        <time>2022-04-11T12:03:40Z</time>
      </trkpt>
      <trkpt lat="49.94024" lon="2.2099">
        <ele>30.7</ele>
        <time>2022-04-11T12:03:41Z</time>
      </trkpt>
      <trkpt lat="49.94024" lon="2.2099">
        <ele>30.7</ele>
        <time>2022-04-11T12:03:42Z</time>
      </trkpt>
      <trkpt lat="49.94024" lon="2.2099">
        <ele>30.7</ele>
        <time>2022-04-11T12:03:43Z</time>
      </trkpt>
      <trkpt lat="49.94024" lon="2.2099">
        <ele>30.7</ele>
        <time>2022-04-11T12:03:44Z</time>
      </trkpt>
      <trkpt lat="49.94024" lon="2.20989">
        <ele>30.7</ele>
        <time>2022-04-11T12:03:45Z</time>
      </trkpt>
      <trkpt lat="49.94023" lon="2.20989">
        <ele>30.7</ele>
        <time>2022-04-11T12:03:46Z</time>
      </trkpt>
      <trkpt lat="49.94023" lon="2.20989">
        <ele>30.7</ele>
        <time>2022-04-11T12:03:47Z</time>
      </trkpt>
      <trkpt lat="49.94023" lon="2.20988">
        <ele>30.7</ele>
        <time>2022-04-11T12:03:48Z</time>
      </trkpt>
      <trkpt lat="49.94023" lon="2.20987">
        <ele>30.7</ele>
        <time>2022-04-11T12:03:49Z</time>
      </trkpt>
      <trkpt lat="49.94023" lon="2.20986">
        <ele>30.7</ele>
        <time>2022-04-11T12:03:50Z</time>
      </trkpt>
      <trkpt lat="49.94023" lon="2.20986">
        <ele>30.7</ele>
        <time>2022-04-11T12:03:51Z</time>
      </trkpt>
      <trkpt lat="49.94023" lon="2.20985">
        <ele>30.7</ele>
        <time>2022-04-11T12:03:52Z</time>
      </trkpt>
      <trkpt lat="49.94022" lon="2.20984">
        <ele>30.7</ele>
        <time>2022-04-11T12:03:53Z</time>
      </trkpt>
      <trkpt lat="49.94022" lon="2.20984">
        <ele>30.7</ele>
        <time>2022-04-11T12:03:54Z</time>
      </trkpt>
      <trkpt lat="49.94022" lon="2.20983">
        <ele>30.7</ele>
        <time>2022-04-11T12:03:55Z</time>
      </trkpt>
      <trkpt lat="49.94022" lon="2.20983">
        <ele>30.7</ele>
        <time>2022-04-11T12:03:56Z</time>
      </trkpt>
      <trkpt lat="49.94022" lon="2.20983">
        <ele>30.7</ele>
        <time>2022-04-11T12:03:57Z</time>
      </trkpt>
      <trkpt lat="49.94021" lon="2.20982">
        <ele>30.7</ele>
        <time>2022-04-11T12:03:58Z</time>
      </trkpt>
      <trkpt lat="49.94021" lon="2.20983">
        <ele>30.7</ele>
        <time>2022-04-11T12:03:59Z</time>
      </trkpt>
      <trkpt lat="49.94021" lon="2.20984">
        <ele>30.7</ele>
        <time>2022-04-11T12:04:00Z</time>
      </trkpt>
      <trkpt lat="49.94021" lon="2.20985">
        <ele>30.7</ele>
        <time>2022-04-11T12:04:02Z</time>
      </trkpt>
      <trkpt lat="49.9402" lon="2.20985">
        <ele>30.7</ele>
        <time>2022-04-11T12:04:03Z</time>
      </trkpt>
      <trkpt lat="49.9402" lon="2.20986">
        <ele>30.7</ele>
        <time>2022-04-11T12:04:04Z</time>
      </trkpt>
      <trkpt lat="49.9402" lon="2.20986">
        <ele>30.7</ele>
        <time>2022-04-11T12:04:05Z</time>
      </trkpt>
      <trkpt lat="49.94021" lon="2.20986">
        <ele>30.7</ele>
        <time>2022-04-11T12:04:06Z</time>
      </trkpt>
      <trkpt lat="49.94021" lon="2.20986">
        <ele>30.7</ele>
        <time>2022-04-11T12:04:07Z</time>
      </trkpt>
      <trkpt lat="49.94021" lon="2.20986">
        <ele>30.7</ele>
        <time>2022-04-11T12:04:08Z</time>
      </trkpt>
      <trkpt lat="49.94021" lon="2.20987">
        <ele>30.7</ele>
        <time>2022-04-11T12:04:09Z</time>
      </trkpt>
      <trkpt lat="49.94022" lon="2.20987">
        <ele>30.7</ele>
        <time>2022-04-11T12:04:10Z</time>
      </trkpt>
      <trkpt lat="49.94022" lon="2.20986">
        <ele>30.7</ele>
        <time>2022-04-11T12:04:11Z</time>
      </trkpt>
      <trkpt lat="49.94022" lon="2.20986">
        <ele>30.7</ele>
        <time>2022-04-11T12:04:12Z</time>
      </trkpt>
      <trkpt lat="49.94022" lon="2.20986">
        <ele>30.7</ele>
        <time>2022-04-11T12:04:13Z</time>
      </trkpt>
      <trkpt lat="49.94022" lon="2.20986">
        <ele>30.7</ele>
        <time>2022-04-11T12:04:14Z</time>
      </trkpt>
      <trkpt lat="49.94022" lon="2.20986">
        <ele>30.7</ele>
        <time>2022-04-11T12:04:15Z</time>
      </trkpt>
      <trkpt lat="49.94022" lon="2.20986">
        <ele>30.7</ele>
        <time>2022-04-11T12:04:16Z</time>
      </trkpt>
      <trkpt lat="49.94022" lon="2.20986">
        <ele>30.7</ele>
        <time>2022-04-11T12:04:17Z</time>
      </trkpt>
      <trkpt lat="49.94022" lon="2.20986">
        <ele>30.7</ele>
        <time>2022-04-11T12:04:18Z</time>
      </trkpt>
      <trkpt lat="49.94022" lon="2.20986">
        <ele>30.7</ele>
        <time>2022-04-11T12:04:19Z</time>
      </trkpt>
      <trkpt lat="49.94022" lon="2.20986">
        <ele>30.7</ele>
        <time>2022-04-11T12:04:20Z</time>
      </trkpt>
      <trkpt lat="49.94022" lon="2.20986">
        <ele>30.7</ele>
        <time>2022-04-11T12:04:21Z</time>
      </trkpt>
      <trkpt lat="49.94022" lon="2.20986">
        <ele>30.7</ele>
        <time>2022-04-11T12:04:22Z</time>
      </trkpt>
      <trkpt lat="49.94022" lon="2.20986">
        <ele>30.7</ele>
        <time>2022-04-11T12:04:23Z</time>
      </trkpt>
      <trkpt lat="49.94022" lon="2.20986">
        <ele>30.7</ele>
        <time>2022-04-11T12:04:24Z</time>
      </trkpt>
      <trkpt lat="49.94022" lon="2.20986">
        <ele>30.7</ele>
        <time>2022-04-11T12:04:25Z</time>
      </trkpt>
      <trkpt lat="49.94022" lon="2.20986">
        <ele>30.7</ele>
        <time>2022-04-11T12:04:26Z</time>
      </trkpt>
      <trkpt lat="49.94022" lon="2.20986">
        <ele>30.7</ele>
        <time>2022-04-11T12:04:27Z</time>
      </trkpt>
      <trkpt lat="49.94021" lon="2.20986">
        <ele>30.7</ele>
        <time>2022-04-11T12:04:28Z</time>
      </trkpt>
      <trkpt lat="49.94021" lon="2.20986">
        <ele>30.7</ele>
        <time>2022-04-11T12:04:29Z</time>
      </trkpt>
      <trkpt lat="49.94021" lon="2.20986">
        <ele>30.7</ele>
        <time>2022-04-11T12:04:30Z</time>
      </trkpt>
      <trkpt lat="49.94021" lon="2.20986">
        <ele>30.7</ele>
        <time>2022-04-11T12:04:31Z</time>
      </trkpt>
      <trkpt lat="49.94021" lon="2.20986">
        <ele>30.7</ele>
        <time>2022-04-11T12:04:32Z</time>
      </trkpt>
      <trkpt lat="49.94021" lon="2.20987">
        <ele>30.7</ele>
        <time>2022-04-11T12:04:33Z</time>
      </trkpt>
      <trkpt lat="49.9402" lon="2.20987">
        <ele>30.7</ele>
        <time>2022-04-11T12:04:34Z</time>
      </trkpt>
      <trkpt lat="49.9402" lon="2.20988">
        <ele>30.7</ele>
        <time>2022-04-11T12:04:35Z</time>
      </trkpt>
      <trkpt lat="49.9402" lon="2.20988">
        <ele>30.7</ele>
        <time>2022-04-11T12:04:36Z</time>
      </trkpt>
      <trkpt lat="49.9402" lon="2.20987">
        <ele>30.7</ele>
        <time>2022-04-11T12:04:37Z</time>
      </trkpt>
      <trkpt lat="49.9402" lon="2.20987">
        <ele>30.7</ele>
        <time>2022-04-11T12:04:38Z</time>
      </trkpt>
      <trkpt lat="49.9402" lon="2.20987">
        <ele>30.7</ele>
        <time>2022-04-11T12:04:39Z</time>
      </trkpt>
      <trkpt lat="49.9402" lon="2.20986">
        <ele>30.7</ele>
        <time>2022-04-11T12:04:40Z</time>
      </trkpt>
      <trkpt lat="49.9402" lon="2.20986">
        <ele>30.7</ele>
        <time>2022-04-11T12:04:41Z</time>
      </trkpt>
      <trkpt lat="49.9402" lon="2.20986">
        <ele>30.7</ele>
        <time>2022-04-11T12:04:42Z</time>
      </trkpt>
      <trkpt lat="49.9402" lon="2.20987">
        <ele>30.7</ele>
        <time>2022-04-11T12:04:44Z</time>
      </trkpt>
      <trkpt lat="49.94019" lon="2.20988">
        <ele>30.7</ele>
        <time>2022-04-11T12:04:45Z</time>
      </trkpt>
      <trkpt lat="49.94019" lon="2.20988">
        <ele>30.7</ele>
        <time>2022-04-11T12:04:46Z</time>
      </trkpt>
      <trkpt lat="49.94019" lon="2.20988">
        <ele>30.7</ele>
        <time>2022-04-11T12:04:47Z</time>
      </trkpt>
      <trkpt lat="49.94019" lon="2.20988">
        <ele>30.7</ele>
        <time>2022-04-11T12:04:48Z</time>
      </trkpt>
      <trkpt lat="49.94019" lon="2.20988">
        <ele>30.7</ele>
        <time>2022-04-11T12:04:49Z</time>
      </trkpt>
      <trkpt lat="49.94019" lon="2.20987">
        <ele>30.7</ele>
        <time>2022-04-11T12:04:50Z</time>
      </trkpt>
      <trkpt lat="49.94019" lon="2.20987">
        <ele>30.7</ele>
        <time>2022-04-11T12:04:51Z</time>
      </trkpt>
      <trkpt lat="49.94019" lon="2.20987">
        <ele>30.7</ele>
        <time>2022-04-11T12:04:52Z</time>
      </trkpt>
      <trkpt lat="49.94018" lon="2.20988">
        <ele>30.7</ele>
        <time>2022-04-11T12:04:53Z</time>
      </trkpt>
      <trkpt lat="49.94018" lon="2.20988">
        <ele>30.7</ele>
        <time>2022-04-11T12:04:54Z</time>
      </trkpt>
      <trkpt lat="49.94018" lon="2.20987">
        <ele>30.7</ele>
        <time>2022-04-11T12:04:55Z</time>
      </trkpt>
      <trkpt lat="49.94017" lon="2.20987">
        <ele>30.7</ele>
        <time>2022-04-11T12:04:56Z</time>
      </trkpt>
      <trkpt lat="49.94017" lon="2.20987">
        <ele>30.7</ele>
        <time>2022-04-11T12:04:57Z</time>
      </trkpt>
      <trkpt lat="49.94018" lon="2.20987">
        <ele>30.7</ele>
        <time>2022-04-11T12:04:58Z</time>
      </trkpt>
      <trkpt lat="49.94018" lon="2.20987">
        <ele>30.7</ele>
        <time>2022-04-11T12:04:59Z</time>
      </trkpt>
      <trkpt lat="49.94018" lon="2.20987">
        <ele>30.7</ele>
        <time>2022-04-11T12:05:00Z</time>
      </trkpt>
      <trkpt lat="49.94018" lon="2.20987">
        <ele>30.7</ele>
        <time>2022-04-11T12:05:01Z</time>
      </trkpt>
      <trkpt lat="49.94018" lon="2.20987">
        <ele>30.7</ele>
        <time>2022-04-11T12:05:02Z</time>
      </trkpt>
      <trkpt lat="49.94018" lon="2.20987">
        <ele>30.7</ele>
        <time>2022-04-11T12:05:03Z</time>
      </trkpt>
      <trkpt lat="49.94018" lon="2.20987">
        <ele>30.7</ele>
        <time>2022-04-11T12:05:05Z</time>
      </trkpt>
      <trkpt lat="49.94017" lon="2.20986">
        <ele>30.7</ele>
        <time>2022-04-11T12:05:06Z</time>
      </trkpt>
      <trkpt lat="49.94017" lon="2.20985">
        <ele>30.7</ele>
        <time>2022-04-11T12:05:08Z</time>
      </trkpt>
      <trkpt lat="49.94016" lon="2.20986">
        <ele>30.7</ele>
        <time>2022-04-11T12:05:09Z</time>
      </trkpt>
      <trkpt lat="49.94016" lon="2.20987">
        <ele>30.7</ele>
        <time>2022-04-11T12:05:10Z</time>
      </trkpt>
      <trkpt lat="49.94015" lon="2.20987">
        <ele>30.7</ele>
        <time>2022-04-11T12:05:11Z</time>
      </trkpt>
      <trkpt lat="49.94015" lon="2.20988">
        <ele>30.7</ele>
        <time>2022-04-11T12:05:12Z</time>
      </trkpt>
      <trkpt lat="49.94015" lon="2.20987">
        <ele>30.7</ele>
        <time>2022-04-11T12:05:13Z</time>
      </trkpt>
      <trkpt lat="49.94014" lon="2.20987">
        <ele>30.7</ele>
        <time>2022-04-11T12:05:14Z</time>
      </trkpt>
      <trkpt lat="49.94014" lon="2.20987">
        <ele>30.7</ele>
        <time>2022-04-11T12:05:15Z</time>
      </trkpt>
      <trkpt lat="49.94014" lon="2.20986">
        <ele>30.7</ele>
        <time>2022-04-11T12:05:16Z</time>
      </trkpt>
      <trkpt lat="49.94014" lon="2.20987">
        <ele>30.7</ele>
        <time>2022-04-11T12:05:17Z</time>
      </trkpt>
      <trkpt lat="49.94014" lon="2.20987">
        <ele>30.7</ele>
        <time>2022-04-11T12:05:18Z</time>
      </trkpt>
      <trkpt lat="49.94014" lon="2.20987">
        <ele>30.7</ele>
        <time>2022-04-11T12:05:19Z</time>
      </trkpt>
      <trkpt lat="49.94014" lon="2.20987">
        <ele>30.7</ele>
        <time>2022-04-11T12:05:20Z</time>
      </trkpt>
      <trkpt lat="49.94014" lon="2.20987">
        <ele>30.7</ele>
        <time>2022-04-11T12:05:21Z</time>
      </trkpt>
      <trkpt lat="49.94014" lon="2.20987">
        <ele>30.7</ele>
        <time>2022-04-11T12:05:22Z</time>
      </trkpt>
      <trkpt lat="49.94014" lon="2.20987">
        <ele>30.7</ele>
        <time>2022-04-11T12:05:23Z</time>
      </trkpt>
      <trkpt lat="49.94014" lon="2.20987">
        <ele>30.7</ele>
        <time>2022-04-11T12:05:24Z</time>
      </trkpt>
      <trkpt lat="49.94014" lon="2.20987">
        <ele>30.7</ele>
        <time>2022-04-11T12:05:25Z</time>
      </trkpt>
      <trkpt lat="49.94014" lon="2.20987">
        <ele>30.7</ele>
        <time>2022-04-11T12:05:26Z</time>
      </trkpt>
      <trkpt lat="49.94014" lon="2.20987">
        <ele>30.7</ele>
        <time>2022-04-11T12:05:27Z</time>
      </trkpt>
      <trkpt lat="49.94014" lon="2.20987">
        <ele>30.7</ele>
        <time>2022-04-11T12:05:28Z</time>
      </trkpt>
      <trkpt lat="49.94014" lon="2.20987">
        <ele>30.7</ele>
        <time>2022-04-11T12:05:29Z</time>
      </trkpt>
      <trkpt lat="49.94014" lon="2.20987">
        <ele>30.7</ele>
        <time>2022-04-11T12:05:30Z</time>
      </trkpt>
      <trkpt lat="49.94013" lon="2.20987">
        <ele>30.7</ele>
        <time>2022-04-11T12:05:31Z</time>
      </trkpt>
      <trkpt lat="49.94013" lon="2.20987">
        <ele>30.7</ele>
        <time>2022-04-11T12:05:32Z</time>
      </trkpt>
      <trkpt lat="49.94013" lon="2.20987">
        <ele>30.7</ele>
        <time>2022-04-11T12:05:33Z</time>
      </trkpt>
      <trkpt lat="49.94014" lon="2.20987">
        <ele>30.7</ele>
        <time>2022-04-11T12:05:34Z</time>
      </trkpt>
      <trkpt lat="49.94014" lon="2.20988">
        <ele>30.7</ele>
        <time>2022-04-11T12:05:35Z</time>
      </trkpt>
      <trkpt lat="49.94014" lon="2.20988">
        <ele>30.7</ele>
        <time>2022-04-11T12:05:36Z</time>
      </trkpt>
      <trkpt lat="49.94015" lon="2.20988">
        <ele>30.7</ele>
        <time>2022-04-11T12:05:37Z</time>
      </trkpt>
      <trkpt lat="49.94015" lon="2.20988">
        <ele>30.7</ele>
        <time>2022-04-11T12:05:38Z</time>
      </trkpt>
      <trkpt lat="49.94015" lon="2.20988">
        <ele>30.7</ele>
        <time>2022-04-11T12:05:39Z</time>
      </trkpt>
      <trkpt lat="49.94016" lon="2.20989">
        <ele>30.7</ele>
        <time>2022-04-11T12:05:40Z</time>
      </trkpt>
      <trkpt lat="49.94016" lon="2.20989">
        <ele>30.7</ele>
        <time>2022-04-11T12:05:41Z</time>
      </trkpt>
      <trkpt lat="49.94016" lon="2.20989">
        <ele>30.7</ele>
        <time>2022-04-11T12:05:42Z</time>
      </trkpt>
      <trkpt lat="49.94017" lon="2.20989">
        <ele>30.7</ele>
        <time>2022-04-11T12:05:43Z</time>
      </trkpt>
      <trkpt lat="49.94017" lon="2.20989">
        <ele>30.7</ele>
        <time>2022-04-11T12:05:44Z</time>
      </trkpt>
      <trkpt lat="49.94018" lon="2.2099">
        <ele>30.7</ele>
        <time>2022-04-11T12:05:45Z</time>
      </trkpt>
      <trkpt lat="49.94018" lon="2.20989">
        <ele>30.7</ele>
        <time>2022-04-11T12:05:46Z</time>
      </trkpt>
      <trkpt lat="49.94018" lon="2.20989">
        <ele>30.7</ele>
        <time>2022-04-11T12:05:47Z</time>
      </trkpt>
      <trkpt lat="49.94018" lon="2.20989">
        <ele>30.7</ele>
        <time>2022-04-11T12:05:48Z</time>
      </trkpt>
      <trkpt lat="49.94018" lon="2.20989">
        <ele>30.7</ele>
        <time>2022-04-11T12:05:49Z</time>
      </trkpt>
      <trkpt lat="49.94019" lon="2.20989">
        <ele>30.7</ele>
        <time>2022-04-11T12:05:51Z</time>
      </trkpt>
      <trkpt lat="49.94019" lon="2.20989">
        <ele>30.7</ele>
        <time>2022-04-11T12:05:52Z</time>
      </trkpt>
      <trkpt lat="49.94019" lon="2.20989">
        <ele>30.7</ele>
        <time>2022-04-11T12:05:53Z</time>
      </trkpt>
      <trkpt lat="49.94019" lon="2.20989">
        <ele>30.7</ele>
        <time>2022-04-11T12:05:54Z</time>
      </trkpt>
      <trkpt lat="49.94018" lon="2.20989">
        <ele>30.7</ele>
        <time>2022-04-11T12:05:55Z</time>
      </trkpt>
      <trkpt lat="49.94018" lon="2.20989">
        <ele>30.7</ele>
        <time>2022-04-11T12:05:56Z</time>
      </trkpt>
      <trkpt lat="49.94018" lon="2.20988">
        <ele>30.7</ele>
        <time>2022-04-11T12:05:57Z</time>
      </trkpt>
      <trkpt lat="49.94017" lon="2.20988">
        <ele>30.7</ele>
        <time>2022-04-11T12:05:58Z</time>
      </trkpt>
      <trkpt lat="49.94017" lon="2.20988">
        <ele>30.7</ele>
        <time>2022-04-11T12:05:59Z</time>
      </trkpt>
      <trkpt lat="49.94017" lon="2.20988">
        <ele>30.7</ele>
        <time>2022-04-11T12:06:00Z</time>
      </trkpt>
      <trkpt lat="49.94017" lon="2.20988">
        <ele>30.7</ele>
        <time>2022-04-11T12:06:01Z</time>
      </trkpt>
      <trkpt lat="49.94017" lon="2.20988">
        <ele>30.7</ele>
        <time>2022-04-11T12:06:02Z</time>
      </trkpt>
      <trkpt lat="49.94017" lon="2.20988">
        <ele>30.7</ele>
        <time>2022-04-11T12:06:03Z</time>
      </trkpt>
      <trkpt lat="49.94016" lon="2.20988">
        <ele>30.7</ele>
        <time>2022-04-11T12:06:04Z</time>
      </trkpt>
      <trkpt lat="49.94016" lon="2.20988">
        <ele>30.7</ele>
        <time>2022-04-11T12:06:05Z</time>
      </trkpt>
      <trkpt lat="49.94016" lon="2.20987">
        <ele>30.7</ele>
        <time>2022-04-11T12:06:06Z</time>
      </trkpt>
      <trkpt lat="49.94016" lon="2.20988">
        <ele>30.7</ele>
        <time>2022-04-11T12:06:07Z</time>
      </trkpt>
      <trkpt lat="49.94016" lon="2.20988">
        <ele>30.7</ele>
        <time>2022-04-11T12:06:08Z</time>
      </trkpt>
      <trkpt lat="49.94016" lon="2.20988">
        <ele>30.7</ele>
        <time>2022-04-11T12:06:09Z</time>
      </trkpt>
      <trkpt lat="49.94016" lon="2.20989">
        <ele>30.7</ele>
        <time>2022-04-11T12:06:10Z</time>
      </trkpt>
      <trkpt lat="49.94016" lon="2.20989">
        <ele>30.7</ele>
        <time>2022-04-11T12:06:11Z</time>
      </trkpt>
      <trkpt lat="49.94015" lon="2.2099">
        <ele>30.7</ele>
        <time>2022-04-11T12:06:13Z</time>
      </trkpt>
      <trkpt lat="49.94016" lon="2.2099">
        <ele>30.7</ele>
        <time>2022-04-11T12:06:14Z</time>
      </trkpt>
      <trkpt lat="49.94016" lon="2.2099">
        <ele>30.7</ele>
        <time>2022-04-11T12:06:15Z</time>
      </trkpt>
      <trkpt lat="49.94016" lon="2.20989">
        <ele>30.7</ele>
        <time>2022-04-11T12:06:16Z</time>
      </trkpt>
      <trkpt lat="49.94015" lon="2.20989">
        <ele>30.7</ele>
        <time>2022-04-11T12:06:17Z</time>
      </trkpt>
      <trkpt lat="49.94015" lon="2.20989">
        <ele>30.7</ele>
        <time>2022-04-11T12:06:18Z</time>
      </trkpt>
      <trkpt lat="49.94015" lon="2.20988">
        <ele>30.7</ele>
        <time>2022-04-11T12:06:19Z</time>
      </trkpt>
      <trkpt lat="49.94015" lon="2.20988">
        <ele>30.7</ele>
        <time>2022-04-11T12:06:20Z</time>
      </trkpt>
      <trkpt lat="49.94014" lon="2.20989">
        <ele>30.7</ele>
        <time>2022-04-11T12:06:21Z</time>
      </trkpt>
      <trkpt lat="49.94014" lon="2.20989">
        <ele>30.7</ele>
        <time>2022-04-11T12:06:22Z</time>
      </trkpt>
      <trkpt lat="49.94014" lon="2.20989">
        <ele>30.7</ele>
        <time>2022-04-11T12:06:23Z</time>
      </trkpt>
      <trkpt lat="49.94013" lon="2.2099">
        <ele>30.7</ele>
        <time>2022-04-11T12:06:24Z</time>
      </trkpt>
      <trkpt lat="49.94013" lon="2.2099">
        <ele>30.7</ele>
        <time>2022-04-11T12:06:25Z</time>
      </trkpt>
      <trkpt lat="49.94013" lon="2.2099">
        <ele>30.7</ele>
        <time>2022-04-11T12:06:26Z</time>
      </trkpt>
      <trkpt lat="49.94013" lon="2.2099">
        <ele>30.7</ele>
        <time>2022-04-11T12:06:27Z</time>
      </trkpt>
      <trkpt lat="49.94013" lon="2.2099">
        <ele>30.7</ele>
        <time>2022-04-11T12:06:28Z</time>
      </trkpt>
      <trkpt lat="49.94013" lon="2.2099">
        <ele>30.7</ele>
        <time>2022-04-11T12:06:29Z</time>
      </trkpt>
      <trkpt lat="49.94013" lon="2.2099">
        <ele>30.7</ele>
        <time>2022-04-11T12:06:30Z</time>
      </trkpt>
      <trkpt lat="49.94013" lon="2.2099">
        <ele>30.7</ele>
        <time>2022-04-11T12:06:31Z</time>
      </trkpt>
      <trkpt lat="49.94013" lon="2.2099">
        <ele>30.7</ele>
        <time>2022-04-11T12:06:32Z</time>
      </trkpt>
      <trkpt lat="49.94013" lon="2.2099">
        <ele>30.7</ele>
        <time>2022-04-11T12:06:33Z</time>
      </trkpt>
      <trkpt lat="49.94014" lon="2.2099">
        <ele>30.7</ele>
        <time>2022-04-11T12:06:34Z</time>
      </trkpt>
      <trkpt lat="49.94014" lon="2.2099">
        <ele>30.7</ele>
        <time>2022-04-11T12:06:36Z</time>
      </trkpt>
      <trkpt lat="49.94015" lon="2.20989">
        <ele>30.7</ele>
        <time>2022-04-11T12:06:38Z</time>
      </trkpt>
      <trkpt lat="49.94015" lon="2.2099">
        <ele>30.7</ele>
        <time>2022-04-11T12:06:39Z</time>
      </trkpt>
      <trkpt lat="49.94015" lon="2.2099">
        <ele>30.7</ele>
        <time>2022-04-11T12:06:40Z</time>
      </trkpt>
      <trkpt lat="49.94015" lon="2.2099">
        <ele>30.7</ele>
        <time>2022-04-11T12:06:41Z</time>
      </trkpt>
      <trkpt lat="49.94015" lon="2.20991">
        <ele>30.7</ele>
        <time>2022-04-11T12:06:42Z</time>
      </trkpt>
      <trkpt lat="49.94015" lon="2.20991">
        <ele>30.7</ele>
        <time>2022-04-11T12:06:43Z</time>
      </trkpt>
      <trkpt lat="49.94014" lon="2.20991">
        <ele>30.7</ele>
        <time>2022-04-11T12:06:44Z</time>
      </trkpt>
      <trkpt lat="49.94014" lon="2.20992">
        <ele>30.7</ele>
        <time>2022-04-11T12:06:45Z</time>
      </trkpt>
      <trkpt lat="49.94014" lon="2.20992">
        <ele>30.7</ele>
        <time>2022-04-11T12:06:46Z</time>
      </trkpt>
      <trkpt lat="49.94014" lon="2.20992">
        <ele>30.7</ele>
        <time>2022-04-11T12:06:47Z</time>
      </trkpt>
      <trkpt lat="49.94014" lon="2.20991">
        <ele>30.7</ele>
        <time>2022-04-11T12:06:48Z</time>
      </trkpt>
      <trkpt lat="49.94015" lon="2.20991">
        <ele>30.7</ele>
        <time>2022-04-11T12:06:49Z</time>
      </trkpt>
      <trkpt lat="49.94015" lon="2.20991">
        <ele>30.7</ele>
        <time>2022-04-11T12:06:50Z</time>
      </trkpt>
      <trkpt lat="49.94015" lon="2.20991">
        <ele>30.7</ele>
        <time>2022-04-11T12:06:51Z</time>
      </trkpt>
      <trkpt lat="49.94015" lon="2.20991">
        <ele>30.7</ele>
        <time>2022-04-11T12:06:52Z</time>
      </trkpt>
      <trkpt lat="49.94015" lon="2.20991">
        <ele>30.7</ele>
        <time>2022-04-11T12:06:53Z</time>
      </trkpt>
      <trkpt lat="49.94015" lon="2.20991">
        <ele>30.7</ele>
        <time>2022-04-11T12:06:54Z</time>
      </trkpt>
      <trkpt lat="49.94015" lon="2.20991">
        <ele>30.7</ele>
        <time>2022-04-11T12:06:55Z</time>
      </trkpt>
      <trkpt lat="49.94014" lon="2.20991">
        <ele>30.7</ele>
        <time>2022-04-11T12:06:56Z</time>
      </trkpt>
      <trkpt lat="49.94014" lon="2.2099">
        <ele>30.7</ele>
        <time>2022-04-11T12:06:57Z</time>
      </trkpt>
      <trkpt lat="49.94014" lon="2.2099">
        <ele>30.7</ele>
        <time>2022-04-11T12:06:58Z</time>
      </trkpt>
      <trkpt lat="49.94014" lon="2.2099">
        <ele>30.7</ele>
        <time>2022-04-11T12:06:59Z</time>
      </trkpt>
      <trkpt lat="49.94014" lon="2.2099">
        <ele>30.7</ele>
        <time>2022-04-11T12:07:00Z</time>
      </trkpt>
      <trkpt lat="49.94014" lon="2.2099">
        <ele>30.7</ele>
        <time>2022-04-11T12:07:01Z</time>
      </trkpt>
      <trkpt lat="49.94014" lon="2.2099">
        <ele>30.7</ele>
        <time>2022-04-11T12:07:02Z</time>
      </trkpt>
      <trkpt lat="49.94014" lon="2.2099">
        <ele>30.7</ele>
        <time>2022-04-11T12:07:03Z</time>
      </trkpt>
      <trkpt lat="49.94014" lon="2.2099">
        <ele>30.7</ele>
        <time>2022-04-11T12:07:04Z</time>
      </trkpt>
      <trkpt lat="49.94014" lon="2.2099">
        <ele>30.7</ele>
        <time>2022-04-11T12:07:05Z</time>
      </trkpt>
      <trkpt lat="49.94014" lon="2.2099">
        <ele>30.7</ele>
        <time>2022-04-11T12:07:06Z</time>
      </trkpt>
      <trkpt lat="49.94014" lon="2.2099">
        <ele>30.7</ele>
        <time>2022-04-11T12:07:07Z</time>
      </trkpt>
      <trkpt lat="49.94014" lon="2.2099">
        <ele>30.7</ele>
        <time>2022-04-11T12:07:08Z</time>
      </trkpt>
      <trkpt lat="49.94014" lon="2.2099">
        <ele>30.7</ele>
        <time>2022-04-11T12:07:09Z</time>
      </trkpt>
      <trkpt lat="49.94014" lon="2.2099">
        <ele>30.7</ele>
        <time>2022-04-11T12:07:10Z</time>
      </trkpt>
      <trkpt lat="49.94014" lon="2.2099">
        <ele>30.7</ele>
        <time>2022-04-11T12:07:11Z</time>
      </trkpt>
      <trkpt lat="49.94014" lon="2.2099">
        <ele>30.7</ele>
        <time>2022-04-11T12:07:12Z</time>
      </trkpt>
      <trkpt lat="49.94014" lon="2.2099">
        <ele>30.7</ele>
        <time>2022-04-11T12:07:13Z</time>
      </trkpt>
      <trkpt lat="49.94014" lon="2.2099">
        <ele>30.7</ele>
        <time>2022-04-11T12:07:14Z</time>
      </trkpt>
      <trkpt lat="49.94014" lon="2.2099">
        <ele>30.7</ele>
        <time>2022-04-11T12:07:15Z</time>
      </trkpt>
      <trkpt lat="49.94014" lon="2.2099">
        <ele>30.7</ele>
        <time>2022-04-11T12:07:16Z</time>
      </trkpt>
      <trkpt lat="49.94014" lon="2.2099">
        <ele>30.7</ele>
        <time>2022-04-11T12:07:17Z</time>
      </trkpt>
      <trkpt lat="49.94014" lon="2.2099">
        <ele>30.7</ele>
        <time>2022-04-11T12:07:18Z</time>
      </trkpt>
      <trkpt lat="49.94014" lon="2.2099">
        <ele>30.7</ele>
        <time>2022-04-11T12:07:19Z</time>
      </trkpt>
      <trkpt lat="49.94014" lon="2.2099">
        <ele>30.7</ele>
        <time>2022-04-11T12:07:20Z</time>
      </trkpt>
      <trkpt lat="49.94014" lon="2.2099">
        <ele>30.7</ele>
        <time>2022-04-11T12:07:21Z</time>
      </trkpt>
      <trkpt lat="49.94014" lon="2.2099">
        <ele>30.7</ele>
        <time>2022-04-11T12:07:22Z</time>
      </trkpt>
      <trkpt lat="49.94014" lon="2.2099">
        <ele>30.7</ele>
        <time>2022-04-11T12:07:23Z</time>
      </trkpt>
      <trkpt lat="49.94014" lon="2.2099">
        <ele>30.7</ele>
        <time>2022-04-11T12:07:24Z</time>
      </trkpt>
      <trkpt lat="49.94014" lon="2.2099">
        <ele>30.7</ele>
        <time>2022-04-11T12:07:25Z</time>
      </trkpt>
      <trkpt lat="49.94014" lon="2.2099">
        <ele>30.7</ele>
        <time>2022-04-11T12:07:26Z</time>
      </trkpt>
      <trkpt lat="49.94015" lon="2.20992">
        <ele>30.7</ele>
        <time>2022-04-11T12:07:27Z</time>
      </trkpt>
      <trkpt lat="49.94015" lon="2.20993">
        <ele>30.7</ele>
        <time>2022-04-11T12:07:28Z</time>
      </trkpt>
      <trkpt lat="49.94015" lon="2.20994">
        <ele>30.7</ele>
        <time>2022-04-11T12:07:29Z</time>
      </trkpt>
      <trkpt lat="49.94016" lon="2.20995">
        <ele>30.7</ele>
        <time>2022-04-11T12:07:30Z</time>
      </trkpt>
      <trkpt lat="49.94016" lon="2.20997">
        <ele>30.7</ele>
        <time>2022-04-11T12:07:31Z</time>
      </trkpt>
      <trkpt lat="49.94016" lon="2.20997">
        <ele>30.7</ele>
        <time>2022-04-11T12:07:32Z</time>
      </trkpt>
      <trkpt lat="49.94016" lon="2.20997">
        <ele>30.7</ele>
        <time>2022-04-11T12:07:33Z</time>
      </trkpt>
      <trkpt lat="49.94016" lon="2.20998">
        <ele>30.7</ele>
        <time>2022-04-11T12:07:34Z</time>
      </trkpt>
      <trkpt lat="49.94016" lon="2.20998">
        <ele>30.7</ele>
        <time>2022-04-11T12:07:35Z</time>
      </trkpt>
      <trkpt lat="49.94016" lon="2.20998">
        <ele>30.7</ele>
        <time>2022-04-11T12:07:36Z</time>
      </trkpt>
      <trkpt lat="49.94016" lon="2.20998">
        <ele>30.7</ele>
        <time>2022-04-11T12:07:37Z</time>
      </trkpt>
      <trkpt lat="49.94016" lon="2.20998">
        <ele>30.7</ele>
        <time>2022-04-11T12:07:38Z</time>
      </trkpt>
      <trkpt lat="49.94016" lon="2.20998">
        <ele>30.7</ele>
        <time>2022-04-11T12:07:39Z</time>
      </trkpt>
      <trkpt lat="49.94016" lon="2.20998">
        <ele>30.7</ele>
        <time>2022-04-11T12:07:40Z</time>
      </trkpt>
      <trkpt lat="49.94016" lon="2.20998">
        <ele>30.7</ele>
        <time>2022-04-11T12:07:41Z</time>
      </trkpt>
      <trkpt lat="49.94016" lon="2.20998">
        <ele>30.7</ele>
        <time>2022-04-11T12:07:42Z</time>
      </trkpt>
      <trkpt lat="49.94016" lon="2.20998">
        <ele>30.7</ele>
        <time>2022-04-11T12:07:43Z</time>
      </trkpt>
      <trkpt lat="49.94016" lon="2.20998">
        <ele>30.7</ele>
        <time>2022-04-11T12:07:44Z</time>
      </trkpt>
      <trkpt lat="49.94016" lon="2.20998">
        <ele>30.7</ele>
        <time>2022-04-11T12:07:45Z</time>
      </trkpt>
      <trkpt lat="49.94016" lon="2.20998">
        <ele>30.7</ele>
        <time>2022-04-11T12:07:46Z</time>
      </trkpt>
      <trkpt lat="49.94016" lon="2.20998">
        <ele>30.7</ele>
        <time>2022-04-11T12:07:47Z</time>
      </trkpt>
      <trkpt lat="49.94016" lon="2.20998">
        <ele>30.7</ele>
        <time>2022-04-11T12:07:48Z</time>
      </trkpt>
      <trkpt lat="49.94016" lon="2.20998">
        <ele>30.7</ele>
        <time>2022-04-11T12:07:49Z</time>
      </trkpt>
      <trkpt lat="49.94016" lon="2.20998">
        <ele>30.7</ele>
        <time>2022-04-11T12:07:50Z</time>
      </trkpt>
      <trkpt lat="49.94016" lon="2.20998">
        <ele>30.7</ele>
        <time>2022-04-11T12:07:51Z</time>
      </trkpt>
      <trkpt lat="49.94016" lon="2.20998">
        <ele>30.7</ele>
        <time>2022-04-11T12:07:52Z</time>
      </trkpt>
      <trkpt lat="49.94016" lon="2.20998">
        <ele>30.7</ele>
        <time>2022-04-11T12:07:53Z</time>
      </trkpt>
      <trkpt lat="49.94016" lon="2.20998">
        <ele>30.7</ele>
        <time>2022-04-11T12:07:54Z</time>
      </trkpt>
      <trkpt lat="49.94016" lon="2.20998">
        <ele>30.7</ele>
        <time>2022-04-11T12:07:55Z</time>
      </trkpt>
      <trkpt lat="49.94016" lon="2.20998">
        <ele>30.7</ele>
        <time>2022-04-11T12:07:56Z</time>
      </trkpt>
      <trkpt lat="49.94016" lon="2.20998">
        <ele>30.7</ele>
        <time>2022-04-11T12:07:57Z</time>
      </trkpt>
      <trkpt lat="49.94016" lon="2.20998">
        <ele>30.7</ele>
        <time>2022-04-11T12:07:58Z</time>
      </trkpt>
      <trkpt lat="49.94016" lon="2.20998">
        <ele>30.7</ele>
        <time>2022-04-11T12:07:59Z</time>
      </trkpt>
      <trkpt lat="49.94016" lon="2.20998">
        <ele>30.7</ele>
        <time>2022-04-11T12:08:00Z</time>
      </trkpt>
      <trkpt lat="49.94016" lon="2.20998">
        <ele>30.7</ele>
        <time>2022-04-11T12:08:01Z</time>
      </trkpt>
      <trkpt lat="49.94016" lon="2.20998">
        <ele>30.7</ele>
        <time>2022-04-11T12:08:02Z</time>
      </trkpt>
      <trkpt lat="49.94016" lon="2.20998">
        <ele>30.7</ele>
        <time>2022-04-11T12:08:03Z</time>
      </trkpt>
      <trkpt lat="49.94016" lon="2.20998">
        <ele>30.7</ele>
        <time>2022-04-11T12:08:04Z</time>
      </trkpt>
      <trkpt lat="49.94016" lon="2.20998">
        <ele>30.7</ele>
        <time>2022-04-11T12:08:05Z</time>
      </trkpt>
      <trkpt lat="49.94016" lon="2.20998">
        <ele>30.7</ele>
        <time>2022-04-11T12:08:06Z</time>
      </trkpt>
      <trkpt lat="49.94016" lon="2.20998">
        <ele>30.7</ele>
        <time>2022-04-11T12:08:07Z</time>
      </trkpt>
      <trkpt lat="49.94016" lon="2.20998">
        <ele>30.7</ele>
        <time>2022-04-11T12:08:08Z</time>
      </trkpt>
      <trkpt lat="49.94016" lon="2.20998">
        <ele>30.7</ele>
        <time>2022-04-11T12:08:09Z</time>
      </trkpt>
      <trkpt lat="49.94016" lon="2.20998">
        <ele>30.7</ele>
        <time>2022-04-11T12:08:10Z</time>
      </trkpt>
      <trkpt lat="49.94016" lon="2.20998">
        <ele>30.7</ele>
        <time>2022-04-11T12:08:11Z</time>
      </trkpt>
      <trkpt lat="49.94016" lon="2.20998">
        <ele>30.7</ele>
        <time>2022-04-11T12:08:12Z</time>
      </trkpt>
      <trkpt lat="49.94016" lon="2.20998">
        <ele>30.7</ele>
        <time>2022-04-11T12:08:13Z</time>
      </trkpt>
      <trkpt lat="49.94016" lon="2.20998">
        <ele>30.7</ele>
        <time>2022-04-11T12:08:14Z</time>
      </trkpt>
      <trkpt lat="49.94016" lon="2.20998">
        <ele>30.7</ele>
        <time>2022-04-11T12:08:15Z</time>
      </trkpt>
      <trkpt lat="49.94016" lon="2.20998">
        <ele>30.7</ele>
        <time>2022-04-11T12:08:16Z</time>
      </trkpt>
      <trkpt lat="49.94016" lon="2.20998">
        <ele>30.7</ele>
        <time>2022-04-11T12:08:17Z</time>
      </trkpt>
      <trkpt lat="49.94016" lon="2.20998">
        <ele>30.7</ele>
        <time>2022-04-11T12:08:18Z</time>
      </trkpt>
      <trkpt lat="49.94016" lon="2.20998">
        <ele>30.7</ele>
        <time>2022-04-11T12:08:19Z</time>
      </trkpt>
      <trkpt lat="49.94016" lon="2.20998">
        <ele>30.7</ele>
        <time>2022-04-11T12:08:20Z</time>
      </trkpt>
      <trkpt lat="49.94016" lon="2.20998">
        <ele>30.7</ele>
        <time>2022-04-11T12:08:21Z</time>
      </trkpt>
      <trkpt lat="49.94016" lon="2.20998">
        <ele>30.7</ele>
        <time>2022-04-11T12:08:22Z</time>
      </trkpt>
      <trkpt lat="49.94016" lon="2.20998">
        <ele>30.7</ele>
        <time>2022-04-11T12:08:23Z</time>
      </trkpt>
      <trkpt lat="49.94016" lon="2.20998">
        <ele>30.7</ele>
        <time>2022-04-11T12:08:24Z</time>
      </trkpt>
      <trkpt lat="49.94016" lon="2.20998">
        <ele>30.7</ele>
        <time>2022-04-11T12:08:25Z</time>
      </trkpt>
      <trkpt lat="49.94016" lon="2.20998">
        <ele>30.7</ele>
        <time>2022-04-11T12:08:26Z</time>
      </trkpt>
      <trkpt lat="49.94016" lon="2.20998">
        <ele>30.7</ele>
        <time>2022-04-11T12:08:27Z</time>
      </trkpt>
      <trkpt lat="49.94016" lon="2.20998">
        <ele>30.7</ele>
        <time>2022-04-11T12:08:28Z</time>
      </trkpt>
      <trkpt lat="49.94016" lon="2.20998">
        <ele>30.7</ele>
        <time>2022-04-11T12:08:29Z</time>
      </trkpt>
      <trkpt lat="49.94016" lon="2.20998">
        <ele>30.7</ele>
        <time>2022-04-11T12:08:30Z</time>
      </trkpt>
      <trkpt lat="49.94016" lon="2.20998">
        <ele>30.7</ele>
        <time>2022-04-11T12:08:31Z</time>
      </trkpt>
      <trkpt lat="49.94016" lon="2.20998">
        <ele>30.7</ele>
        <time>2022-04-11T12:08:32Z</time>
      </trkpt>
      <trkpt lat="49.94016" lon="2.20998">
        <ele>30.7</ele>
        <time>2022-04-11T12:08:33Z</time>
      </trkpt>
      <trkpt lat="49.94016" lon="2.20998">
        <ele>30.7</ele>
        <time>2022-04-11T12:08:34Z</time>
      </trkpt>
      <trkpt lat="49.94016" lon="2.20998">
        <ele>30.7</ele>
        <time>2022-04-11T12:08:35Z</time>
      </trkpt>
      <trkpt lat="49.94016" lon="2.20998">
        <ele>30.7</ele>
        <time>2022-04-11T12:08:36Z</time>
      </trkpt>
      <trkpt lat="49.94016" lon="2.20998">
        <ele>30.7</ele>
        <time>2022-04-11T12:08:37Z</time>
      </trkpt>
      <trkpt lat="49.94016" lon="2.20998">
        <ele>30.7</ele>
        <time>2022-04-11T12:08:38Z</time>
      </trkpt>
      <trkpt lat="49.94016" lon="2.20998">
        <ele>30.7</ele>
        <time>2022-04-11T12:08:39Z</time>
      </trkpt>
      <trkpt lat="49.94016" lon="2.20998">
        <ele>30.7</ele>
        <time>2022-04-11T12:08:40Z</time>
      </trkpt>
      <trkpt lat="49.94016" lon="2.20998">
        <ele>30.7</ele>
        <time>2022-04-11T12:08:41Z</time>
      </trkpt>
      <trkpt lat="49.94016" lon="2.20998">
        <ele>30.7</ele>
        <time>2022-04-11T12:08:42Z</time>
      </trkpt>
      <trkpt lat="49.94016" lon="2.20998">
        <ele>30.7</ele>
        <time>2022-04-11T12:08:43Z</time>
      </trkpt>
      <trkpt lat="49.94016" lon="2.20998">
        <ele>30.7</ele>
        <time>2022-04-11T12:08:44Z</time>
      </trkpt>
      <trkpt lat="49.94016" lon="2.20998">
        <ele>30.7</ele>
        <time>2022-04-11T12:08:45Z</time>
      </trkpt>
      <trkpt lat="49.94016" lon="2.20998">
        <ele>30.7</ele>
        <time>2022-04-11T12:08:46Z</time>
      </trkpt>
      <trkpt lat="49.94016" lon="2.20998">
        <ele>30.7</ele>
        <time>2022-04-11T12:08:47Z</time>
      </trkpt>
      <trkpt lat="49.94016" lon="2.20998">
        <ele>30.7</ele>
        <time>2022-04-11T12:08:48Z</time>
      </trkpt>
      <trkpt lat="49.94016" lon="2.20998">
        <ele>30.7</ele>
        <time>2022-04-11T12:08:49Z</time>
      </trkpt>
      <trkpt lat="49.94016" lon="2.20998">
        <ele>30.7</ele>
        <time>2022-04-11T12:08:50Z</time>
      </trkpt>
      <trkpt lat="49.94016" lon="2.20998">
        <ele>30.7</ele>
        <time>2022-04-11T12:08:51Z</time>
      </trkpt>
      <trkpt lat="49.94016" lon="2.20998">
        <ele>30.7</ele>
        <time>2022-04-11T12:08:52Z</time>
      </trkpt>
      <trkpt lat="49.94016" lon="2.20998">
        <ele>30.7</ele>
        <time>2022-04-11T12:08:53Z</time>
      </trkpt>
      <trkpt lat="49.94016" lon="2.20998">
        <ele>30.7</ele>
        <time>2022-04-11T12:08:54Z</time>
      </trkpt>
      <trkpt lat="49.94016" lon="2.20998">
        <ele>30.7</ele>
        <time>2022-04-11T12:08:55Z</time>
      </trkpt>
      <trkpt lat="49.94016" lon="2.20998">
        <ele>30.7</ele>
        <time>2022-04-11T12:08:56Z</time>
      </trkpt>
      <trkpt lat="49.94016" lon="2.20998">
        <ele>30.7</ele>
        <time>2022-04-11T12:08:57Z</time>
      </trkpt>
      <trkpt lat="49.94016" lon="2.20998">
        <ele>30.7</ele>
        <time>2022-04-11T12:08:58Z</time>
      </trkpt>
      <trkpt lat="49.94016" lon="2.20998">
        <ele>30.7</ele>
        <time>2022-04-11T12:08:59Z</time>
      </trkpt>
      <trkpt lat="49.94016" lon="2.20998">
        <ele>30.7</ele>
        <time>2022-04-11T12:09:00Z</time>
      </trkpt>
      <trkpt lat="49.94016" lon="2.20998">
        <ele>30.7</ele>
        <time>2022-04-11T12:09:01Z</time>
      </trkpt>
      <trkpt lat="49.94016" lon="2.20998">
        <ele>30.7</ele>
        <time>2022-04-11T12:09:02Z</time>
      </trkpt>
      <trkpt lat="49.94016" lon="2.20998">
        <ele>30.7</ele>
        <time>2022-04-11T12:09:03Z</time>
      </trkpt>
      <trkpt lat="49.94016" lon="2.20998">
        <ele>30.7</ele>
        <time>2022-04-11T12:09:04Z</time>
      </trkpt>
      <trkpt lat="49.94016" lon="2.20998">
        <ele>30.7</ele>
        <time>2022-04-11T12:09:05Z</time>
      </trkpt>
      <trkpt lat="49.94016" lon="2.20998">
        <ele>30.7</ele>
        <time>2022-04-11T12:09:06Z</time>
      </trkpt>
      <trkpt lat="49.94016" lon="2.20998">
        <ele>30.7</ele>
        <time>2022-04-11T12:09:07Z</time>
      </trkpt>
      <trkpt lat="49.94015" lon="2.20997">
        <ele>30.7</ele>
        <time>2022-04-11T12:09:08Z</time>
      </trkpt>
      <trkpt lat="49.94013" lon="2.20995">
        <ele>30.7</ele>
        <time>2022-04-11T12:09:09Z</time>
      </trkpt>
      <trkpt lat="49.94012" lon="2.20993">
        <ele>30.7</ele>
        <time>2022-04-11T12:09:10Z</time>
      </trkpt>
      <trkpt lat="49.94012" lon="2.20992">
        <ele>30.7</ele>
        <time>2022-04-11T12:09:11Z</time>
      </trkpt>
      <trkpt lat="49.94011" lon="2.20991">
        <ele>30.7</ele>
        <time>2022-04-11T12:09:12Z</time>
      </trkpt>
      <trkpt lat="49.94012" lon="2.2099">
        <ele>30.7</ele>
        <time>2022-04-11T12:09:13Z</time>
      </trkpt>
      <trkpt lat="49.94012" lon="2.20991">
        <ele>30.7</ele>
        <time>2022-04-11T12:09:14Z</time>
      </trkpt>
      <trkpt lat="49.94012" lon="2.20991">
        <ele>30.7</ele>
        <time>2022-04-11T12:09:15Z</time>
      </trkpt>
      <trkpt lat="49.94011" lon="2.20991">
        <ele>30.7</ele>
        <time>2022-04-11T12:09:16Z</time>
      </trkpt>
      <trkpt lat="49.94011" lon="2.20991">
        <ele>30.7</ele>
        <time>2022-04-11T12:09:17Z</time>
      </trkpt>
      <trkpt lat="49.94011" lon="2.2099">
        <ele>30.7</ele>
        <time>2022-04-11T12:09:18Z</time>
      </trkpt>
      <trkpt lat="49.94011" lon="2.2099">
        <ele>30.7</ele>
        <time>2022-04-11T12:09:19Z</time>
      </trkpt>
      <trkpt lat="49.94011" lon="2.2099">
        <ele>30.7</ele>
        <time>2022-04-11T12:09:20Z</time>
      </trkpt>
      <trkpt lat="49.94011" lon="2.2099">
        <ele>30.7</ele>
        <time>2022-04-11T12:09:22Z</time>
      </trkpt>
      <trkpt lat="49.94012" lon="2.20989">
        <ele>30.7</ele>
        <time>2022-04-11T12:09:23Z</time>
      </trkpt>
      <trkpt lat="49.94012" lon="2.20989">
        <ele>30.7</ele>
        <time>2022-04-11T12:09:24Z</time>
      </trkpt>
      <trkpt lat="49.94012" lon="2.20988">
        <ele>30.7</ele>
        <time>2022-04-11T12:09:26Z</time>
      </trkpt>
      <trkpt lat="49.94013" lon="2.20988">
        <ele>30.7</ele>
        <time>2022-04-11T12:09:27Z</time>
      </trkpt>
      <trkpt lat="49.94013" lon="2.20989">
        <ele>30.7</ele>
        <time>2022-04-11T12:09:28Z</time>
      </trkpt>
      <trkpt lat="49.94013" lon="2.20989">
        <ele>30.7</ele>
        <time>2022-04-11T12:09:29Z</time>
      </trkpt>
      <trkpt lat="49.94013" lon="2.2099">
        <ele>30.7</ele>
        <time>2022-04-11T12:09:30Z</time>
      </trkpt>
      <trkpt lat="49.94013" lon="2.2099">
        <ele>30.7</ele>
        <time>2022-04-11T12:09:31Z</time>
      </trkpt>
      <trkpt lat="49.94013" lon="2.2099">
        <ele>30.7</ele>
        <time>2022-04-11T12:09:32Z</time>
      </trkpt>
      <trkpt lat="49.94013" lon="2.20989">
        <ele>30.7</ele>
        <time>2022-04-11T12:09:33Z</time>
      </trkpt>
      <trkpt lat="49.94013" lon="2.20989">
        <ele>30.7</ele>
        <time>2022-04-11T12:09:34Z</time>
      </trkpt>
      <trkpt lat="49.94013" lon="2.20988">
        <ele>30.7</ele>
        <time>2022-04-11T12:09:35Z</time>
      </trkpt>
      <trkpt lat="49.94013" lon="2.20988">
        <ele>30.7</ele>
        <time>2022-04-11T12:09:36Z</time>
      </trkpt>
      <trkpt lat="49.94013" lon="2.20987">
        <ele>30.7</ele>
        <time>2022-04-11T12:09:37Z</time>
      </trkpt>
      <trkpt lat="49.94013" lon="2.20987">
        <ele>30.7</ele>
        <time>2022-04-11T12:09:38Z</time>
      </trkpt>
      <trkpt lat="49.94013" lon="2.20987">
        <ele>30.7</ele>
        <time>2022-04-11T12:09:39Z</time>
      </trkpt>
      <trkpt lat="49.94013" lon="2.20987">
        <ele>30.7</ele>
        <time>2022-04-11T12:09:40Z</time>
      </trkpt>
      <trkpt lat="49.94013" lon="2.20987">
        <ele>30.7</ele>
        <time>2022-04-11T12:09:41Z</time>
      </trkpt>
      <trkpt lat="49.94013" lon="2.20987">
        <ele>30.7</ele>
        <time>2022-04-11T12:09:42Z</time>
      </trkpt>
      <trkpt lat="49.94013" lon="2.20987">
        <ele>30.7</ele>
        <time>2022-04-11T12:09:43Z</time>
      </trkpt>
      <trkpt lat="49.94013" lon="2.20987">
        <ele>30.7</ele>
        <time>2022-04-11T12:09:44Z</time>
      </trkpt>
      <trkpt lat="49.94013" lon="2.20987">
        <ele>30.7</ele>
        <time>2022-04-11T12:09:45Z</time>
      </trkpt>
      <trkpt lat="49.94013" lon="2.20987">
        <ele>30.7</ele>
        <time>2022-04-11T12:09:46Z</time>
      </trkpt>
      <trkpt lat="49.94013" lon="2.20987">
        <ele>30.7</ele>
        <time>2022-04-11T12:09:47Z</time>
      </trkpt>
      <trkpt lat="49.94013" lon="2.20987">
        <ele>30.7</ele>
        <time>2022-04-11T12:09:48Z</time>
      </trkpt>
      <trkpt lat="49.94013" lon="2.20987">
        <ele>30.7</ele>
        <time>2022-04-11T12:09:49Z</time>
      </trkpt>
      <trkpt lat="49.94013" lon="2.20987">
        <ele>30.7</ele>
        <time>2022-04-11T12:09:50Z</time>
      </trkpt>
      <trkpt lat="49.94013" lon="2.20987">
        <ele>30.7</ele>
        <time>2022-04-11T12:09:51Z</time>
      </trkpt>
      <trkpt lat="49.94013" lon="2.20987">
        <ele>30.7</ele>
        <time>2022-04-11T12:09:52Z</time>
      </trkpt>
      <trkpt lat="49.94013" lon="2.20987">
        <ele>30.7</ele>
        <time>2022-04-11T12:09:53Z</time>
      </trkpt>
      <trkpt lat="49.94013" lon="2.20987">
        <ele>30.7</ele>
        <time>2022-04-11T12:09:54Z</time>
      </trkpt>
      <trkpt lat="49.94013" lon="2.20987">
        <ele>30.7</ele>
        <time>2022-04-11T12:09:55Z</time>
      </trkpt>
      <trkpt lat="49.94013" lon="2.20987">
        <ele>30.7</ele>
        <time>2022-04-11T12:09:56Z</time>
      </trkpt>
      <trkpt lat="49.94013" lon="2.20987">
        <ele>30.7</ele>
        <time>2022-04-11T12:09:57Z</time>
      </trkpt>
      <trkpt lat="49.94013" lon="2.20987">
        <ele>30.7</ele>
        <time>2022-04-11T12:09:58Z</time>
      </trkpt>
      <trkpt lat="49.94013" lon="2.20987">
        <ele>30.7</ele>
        <time>2022-04-11T12:09:59Z</time>
      </trkpt>
      <trkpt lat="49.94013" lon="2.20987">
        <ele>30.7</ele>
        <time>2022-04-11T12:10:00Z</time>
      </trkpt>
      <trkpt lat="49.94013" lon="2.20987">
        <ele>30.7</ele>
        <time>2022-04-11T12:10:01Z</time>
      </trkpt>
      <trkpt lat="49.94013" lon="2.20987">
        <ele>30.7</ele>
        <time>2022-04-11T12:10:02Z</time>
      </trkpt>
      <trkpt lat="49.94013" lon="2.20987">
        <ele>30.7</ele>
        <time>2022-04-11T12:10:03Z</time>
      </trkpt>
      <trkpt lat="49.94013" lon="2.20987">
        <ele>30.7</ele>
        <time>2022-04-11T12:10:04Z</time>
      </trkpt>
      <trkpt lat="49.94013" lon="2.20987">
        <ele>30.7</ele>
        <time>2022-04-11T12:10:05Z</time>
      </trkpt>
      <trkpt lat="49.94013" lon="2.20987">
        <ele>30.7</ele>
        <time>2022-04-11T12:10:06Z</time>
      </trkpt>
      <trkpt lat="49.94013" lon="2.20987">
        <ele>30.7</ele>
        <time>2022-04-11T12:10:07Z</time>
      </trkpt>
      <trkpt lat="49.94013" lon="2.20987">
        <ele>30.7</ele>
        <time>2022-04-11T12:10:08Z</time>
      </trkpt>
      <trkpt lat="49.94013" lon="2.20987">
        <ele>30.7</ele>
        <time>2022-04-11T12:10:09Z</time>
      </trkpt>
      <trkpt lat="49.94013" lon="2.20987">
        <ele>30.7</ele>
        <time>2022-04-11T12:10:10Z</time>
      </trkpt>
      <trkpt lat="49.94013" lon="2.20987">
        <ele>30.7</ele>
        <time>2022-04-11T12:10:11Z</time>
      </trkpt>
      <trkpt lat="49.94013" lon="2.20987">
        <ele>30.7</ele>
        <time>2022-04-11T12:10:12Z</time>
      </trkpt>
      <trkpt lat="49.94013" lon="2.20987">
        <ele>30.7</ele>
        <time>2022-04-11T12:10:13Z</time>
      </trkpt>
      <trkpt lat="49.94013" lon="2.20987">
        <ele>30.7</ele>
        <time>2022-04-11T12:10:14Z</time>
      </trkpt>
      <trkpt lat="49.94013" lon="2.20987">
        <ele>30.7</ele>
        <time>2022-04-11T12:10:15Z</time>
      </trkpt>
      <trkpt lat="49.94013" lon="2.20987">
        <ele>30.7</ele>
        <time>2022-04-11T12:10:16Z</time>
      </trkpt>
      <trkpt lat="49.94013" lon="2.20987">
        <ele>30.7</ele>
        <time>2022-04-11T12:10:17Z</time>
      </trkpt>
      <trkpt lat="49.94013" lon="2.20987">
        <ele>30.7</ele>
        <time>2022-04-11T12:10:18Z</time>
      </trkpt>
      <trkpt lat="49.94013" lon="2.20987">
        <ele>30.7</ele>
        <time>2022-04-11T12:10:19Z</time>
      </trkpt>
      <trkpt lat="49.94013" lon="2.20987">
        <ele>30.7</ele>
        <time>2022-04-11T12:10:20Z</time>
      </trkpt>
      <trkpt lat="49.94013" lon="2.20987">
        <ele>30.7</ele>
        <time>2022-04-11T12:10:21Z</time>
      </trkpt>
      <trkpt lat="49.94013" lon="2.20987">
        <ele>30.7</ele>
        <time>2022-04-11T12:10:22Z</time>
      </trkpt>
      <trkpt lat="49.94013" lon="2.20987">
        <ele>30.7</ele>
        <time>2022-04-11T12:10:23Z</time>
      </trkpt>
      <trkpt lat="49.94013" lon="2.20987">
        <ele>30.7</ele>
        <time>2022-04-11T12:10:24Z</time>
      </trkpt>
      <trkpt lat="49.94013" lon="2.20987">
        <ele>30.7</ele>
        <time>2022-04-11T12:10:25Z</time>
      </trkpt>
      <trkpt lat="49.94013" lon="2.20987">
        <ele>30.7</ele>
        <time>2022-04-11T12:10:26Z</time>
      </trkpt>
      <trkpt lat="49.94013" lon="2.20987">
        <ele>30.7</ele>
        <time>2022-04-11T12:10:27Z</time>
      </trkpt>
      <trkpt lat="49.94013" lon="2.20987">
        <ele>30.7</ele>
        <time>2022-04-11T12:10:28Z</time>
      </trkpt>
      <trkpt lat="49.94013" lon="2.20987">
        <ele>30.7</ele>
        <time>2022-04-11T12:10:29Z</time>
      </trkpt>
      <trkpt lat="49.94013" lon="2.20987">
        <ele>30.7</ele>
        <time>2022-04-11T12:10:30Z</time>
      </trkpt>
      <trkpt lat="49.94013" lon="2.20987">
        <ele>30.7</ele>
        <time>2022-04-11T12:10:31Z</time>
      </trkpt>
      <trkpt lat="49.94013" lon="2.20987">
        <ele>30.7</ele>
        <time>2022-04-11T12:10:32Z</time>
      </trkpt>
      <trkpt lat="49.94013" lon="2.20987">
        <ele>30.7</ele>
        <time>2022-04-11T12:10:33Z</time>
      </trkpt>
      <trkpt lat="49.94013" lon="2.20987">
        <ele>30.7</ele>
        <time>2022-04-11T12:10:34Z</time>
      </trkpt>
      <trkpt lat="49.94013" lon="2.20987">
        <ele>30.7</ele>
        <time>2022-04-11T12:10:35Z</time>
      </trkpt>
      <trkpt lat="49.94013" lon="2.20987">
        <ele>30.7</ele>
        <time>2022-04-11T12:10:36Z</time>
      </trkpt>
      <trkpt lat="49.94013" lon="2.20987">
        <ele>30.7</ele>
        <time>2022-04-11T12:10:37Z</time>
      </trkpt>
      <trkpt lat="49.94013" lon="2.20987">
        <ele>30.7</ele>
        <time>2022-04-11T12:10:38Z</time>
      </trkpt>
      <trkpt lat="49.94013" lon="2.20987">
        <ele>30.7</ele>
        <time>2022-04-11T12:10:39Z</time>
      </trkpt>
      <trkpt lat="49.94013" lon="2.20987">
        <ele>30.7</ele>
        <time>2022-04-11T12:10:40Z</time>
      </trkpt>
      <trkpt lat="49.94013" lon="2.20987">
        <ele>30.7</ele>
        <time>2022-04-11T12:10:41Z</time>
      </trkpt>
      <trkpt lat="49.94013" lon="2.20987">
        <ele>30.7</ele>
        <time>2022-04-11T12:10:42Z</time>
      </trkpt>
      <trkpt lat="49.94013" lon="2.20987">
        <ele>30.7</ele>
        <time>2022-04-11T12:10:43Z</time>
      </trkpt>
      <trkpt lat="49.94013" lon="2.20987">
        <ele>30.7</ele>
        <time>2022-04-11T12:10:44Z</time>
      </trkpt>
      <trkpt lat="49.94013" lon="2.20987">
        <ele>30.7</ele>
        <time>2022-04-11T12:10:45Z</time>
      </trkpt>
      <trkpt lat="49.94013" lon="2.20987">
        <ele>30.7</ele>
        <time>2022-04-11T12:10:46Z</time>
      </trkpt>
      <trkpt lat="49.94013" lon="2.20987">
        <ele>30.7</ele>
        <time>2022-04-11T12:10:47Z</time>
      </trkpt>
      <trkpt lat="49.94013" lon="2.20987">
        <ele>30.7</ele>
        <time>2022-04-11T12:10:48Z</time>
      </trkpt>
      <trkpt lat="49.94013" lon="2.20987">
        <ele>30.7</ele>
        <time>2022-04-11T12:10:49Z</time>
      </trkpt>
      <trkpt lat="49.94013" lon="2.20987">
        <ele>30.7</ele>
        <time>2022-04-11T12:10:50Z</time>
      </trkpt>
      <trkpt lat="49.94013" lon="2.20987">
        <ele>30.7</ele>
        <time>2022-04-11T12:10:51Z</time>
      </trkpt>
      <trkpt lat="49.94013" lon="2.20987">
        <ele>30.7</ele>
        <time>2022-04-11T12:10:52Z</time>
      </trkpt>
      <trkpt lat="49.94013" lon="2.20987">
        <ele>30.7</ele>
        <time>2022-04-11T12:10:53Z</time>
      </trkpt>
      <trkpt lat="49.94013" lon="2.20987">
        <ele>30.7</ele>
        <time>2022-04-11T12:10:54Z</time>
      </trkpt>
      <trkpt lat="49.94013" lon="2.20987">
        <ele>30.7</ele>
        <time>2022-04-11T12:10:55Z</time>
      </trkpt>
      <trkpt lat="49.94013" lon="2.20987">
        <ele>30.7</ele>
        <time>2022-04-11T12:10:56Z</time>
      </trkpt>
      <trkpt lat="49.94013" lon="2.20987">
        <ele>30.7</ele>
        <time>2022-04-11T12:10:57Z</time>
      </trkpt>
      <trkpt lat="49.94013" lon="2.20987">
        <ele>30.7</ele>
        <time>2022-04-11T12:10:58Z</time>
      </trkpt>
      <trkpt lat="49.94013" lon="2.20987">
        <ele>30.7</ele>
        <time>2022-04-11T12:10:59Z</time>
      </trkpt>
      <trkpt lat="49.94013" lon="2.20987">
        <ele>30.7</ele>
        <time>2022-04-11T12:11:00Z</time>
      </trkpt>
      <trkpt lat="49.94013" lon="2.20987">
        <ele>30.7</ele>
        <time>2022-04-11T12:11:01Z</time>
      </trkpt>
      <trkpt lat="49.94013" lon="2.20987">
        <ele>30.7</ele>
        <time>2022-04-11T12:11:02Z</time>
      </trkpt>
      <trkpt lat="49.94013" lon="2.20987">
        <ele>30.7</ele>
        <time>2022-04-11T12:11:03Z</time>
      </trkpt>
      <trkpt lat="49.94013" lon="2.20987">
        <ele>30.7</ele>
        <time>2022-04-11T12:11:04Z</time>
      </trkpt>
      <trkpt lat="49.94013" lon="2.20987">
        <ele>30.7</ele>
        <time>2022-04-11T12:11:05Z</time>
      </trkpt>
      <trkpt lat="49.94013" lon="2.20987">
        <ele>30.7</ele>
        <time>2022-04-11T12:11:06Z</time>
      </trkpt>
      <trkpt lat="49.94013" lon="2.20987">
        <ele>30.7</ele>
        <time>2022-04-11T12:11:07Z</time>
      </trkpt>
      <trkpt lat="49.94013" lon="2.20987">
        <ele>30.7</ele>
        <time>2022-04-11T12:11:08Z</time>
      </trkpt>
      <trkpt lat="49.94013" lon="2.20987">
        <ele>30.7</ele>
        <time>2022-04-11T12:11:09Z</time>
      </trkpt>
      <trkpt lat="49.94013" lon="2.20987">
        <ele>30.7</ele>
        <time>2022-04-11T12:11:10Z</time>
      </trkpt>
      <trkpt lat="49.94013" lon="2.20987">
        <ele>30.7</ele>
        <time>2022-04-11T12:11:11Z</time>
      </trkpt>
      <trkpt lat="49.94013" lon="2.20987">
        <ele>30.7</ele>
        <time>2022-04-11T12:11:12Z</time>
      </trkpt>
      <trkpt lat="49.94013" lon="2.20987">
        <ele>30.7</ele>
        <time>2022-04-11T12:11:13Z</time>
      </trkpt>
      <trkpt lat="49.94013" lon="2.20987">
        <ele>30.7</ele>
        <time>2022-04-11T12:11:14Z</time>
      </trkpt>
      <trkpt lat="49.94013" lon="2.20987">
        <ele>30.7</ele>
        <time>2022-04-11T12:11:15Z</time>
      </trkpt>
      <trkpt lat="49.94013" lon="2.20987">
        <ele>30.7</ele>
        <time>2022-04-11T12:11:16Z</time>
      </trkpt>
      <trkpt lat="49.94013" lon="2.20987">
        <ele>30.7</ele>
        <time>2022-04-11T12:11:17Z</time>
      </trkpt>
      <trkpt lat="49.94013" lon="2.20987">
        <ele>30.7</ele>
        <time>2022-04-11T12:11:18Z</time>
      </trkpt>
      <trkpt lat="49.94013" lon="2.20987">
        <ele>30.7</ele>
        <time>2022-04-11T12:11:19Z</time>
      </trkpt>
      <trkpt lat="49.94013" lon="2.20987">
        <ele>30.7</ele>
        <time>2022-04-11T12:11:20Z</time>
      </trkpt>
      <trkpt lat="49.94013" lon="2.20987">
        <ele>30.7</ele>
        <time>2022-04-11T12:11:21Z</time>
      </trkpt>
      <trkpt lat="49.94013" lon="2.20987">
        <ele>30.7</ele>
        <time>2022-04-11T12:11:22Z</time>
      </trkpt>
      <trkpt lat="49.94013" lon="2.20987">
        <ele>30.7</ele>
        <time>2022-04-11T12:11:23Z</time>
      </trkpt>
      <trkpt lat="49.94013" lon="2.20987">
        <ele>30.7</ele>
        <time>2022-04-11T12:11:24Z</time>
      </trkpt>
      <trkpt lat="49.94013" lon="2.20987">
        <ele>30.7</ele>
        <time>2022-04-11T12:11:25Z</time>
      </trkpt>
      <trkpt lat="49.94013" lon="2.20987">
        <ele>30.7</ele>
        <time>2022-04-11T12:11:26Z</time>
      </trkpt>
      <trkpt lat="49.94013" lon="2.20987">
        <ele>30.7</ele>
        <time>2022-04-11T12:11:27Z</time>
      </trkpt>
      <trkpt lat="49.94013" lon="2.20987">
        <ele>30.7</ele>
        <time>2022-04-11T12:11:28Z</time>
      </trkpt>
      <trkpt lat="49.94013" lon="2.20987">
        <ele>30.7</ele>
        <time>2022-04-11T12:11:29Z</time>
      </trkpt>
      <trkpt lat="49.94013" lon="2.20987">
        <ele>30.7</ele>
        <time>2022-04-11T12:11:30Z</time>
      </trkpt>
      <trkpt lat="49.94013" lon="2.20987">
        <ele>30.7</ele>
        <time>2022-04-11T12:11:31Z</time>
      </trkpt>
      <trkpt lat="49.94013" lon="2.20987">
        <ele>30.7</ele>
        <time>2022-04-11T12:11:32Z</time>
      </trkpt>
      <trkpt lat="49.94013" lon="2.20987">
        <ele>30.7</ele>
        <time>2022-04-11T12:11:33Z</time>
      </trkpt>
      <trkpt lat="49.94013" lon="2.20987">
        <ele>30.7</ele>
        <time>2022-04-11T12:11:34Z</time>
      </trkpt>
      <trkpt lat="49.94013" lon="2.20987">
        <ele>30.7</ele>
        <time>2022-04-11T12:11:35Z</time>
      </trkpt>
      <trkpt lat="49.94013" lon="2.20987">
        <ele>30.7</ele>
        <time>2022-04-11T12:11:36Z</time>
      </trkpt>
      <trkpt lat="49.94013" lon="2.20987">
        <ele>30.7</ele>
        <time>2022-04-11T12:11:37Z</time>
      </trkpt>
      <trkpt lat="49.94013" lon="2.20987">
        <ele>30.7</ele>
        <time>2022-04-11T12:11:38Z</time>
      </trkpt>
      <trkpt lat="49.94013" lon="2.20987">
        <ele>30.7</ele>
        <time>2022-04-11T12:11:39Z</time>
      </trkpt>
      <trkpt lat="49.94013" lon="2.20987">
        <ele>30.7</ele>
        <time>2022-04-11T12:11:40Z</time>
      </trkpt>
      <trkpt lat="49.94013" lon="2.20987">
        <ele>30.7</ele>
        <time>2022-04-11T12:11:41Z</time>
      </trkpt>
      <trkpt lat="49.94013" lon="2.20987">
        <ele>30.7</ele>
        <time>2022-04-11T12:11:42Z</time>
      </trkpt>
      <trkpt lat="49.94013" lon="2.20987">
        <ele>30.7</ele>
        <time>2022-04-11T12:11:43Z</time>
      </trkpt>
      <trkpt lat="49.94013" lon="2.20987">
        <ele>30.7</ele>
        <time>2022-04-11T12:11:44Z</time>
      </trkpt>
      <trkpt lat="49.94013" lon="2.20987">
        <ele>30.7</ele>
        <time>2022-04-11T12:11:45Z</time>
      </trkpt>
      <trkpt lat="49.94013" lon="2.20987">
        <ele>30.7</ele>
        <time>2022-04-11T12:11:46Z</time>
      </trkpt>
      <trkpt lat="49.94013" lon="2.20987">
        <ele>30.7</ele>
        <time>2022-04-11T12:11:47Z</time>
      </trkpt>
      <trkpt lat="49.94013" lon="2.20987">
        <ele>30.7</ele>
        <time>2022-04-11T12:11:48Z</time>
      </trkpt>
      <trkpt lat="49.94013" lon="2.20987">
        <ele>30.7</ele>
        <time>2022-04-11T12:11:49Z</time>
      </trkpt>
      <trkpt lat="49.94013" lon="2.20987">
        <ele>30.7</ele>
        <time>2022-04-11T12:11:50Z</time>
      </trkpt>
      <trkpt lat="49.94013" lon="2.20987">
        <ele>30.7</ele>
        <time>2022-04-11T12:11:51Z</time>
      </trkpt>
      <trkpt lat="49.94013" lon="2.20987">
        <ele>30.7</ele>
        <time>2022-04-11T12:11:52Z</time>
      </trkpt>
      <trkpt lat="49.94013" lon="2.20987">
        <ele>30.7</ele>
        <time>2022-04-11T12:11:53Z</time>
      </trkpt>
      <trkpt lat="49.94013" lon="2.20987">
        <ele>30.7</ele>
        <time>2022-04-11T12:11:54Z</time>
      </trkpt>
      <trkpt lat="49.94013" lon="2.20987">
        <ele>30.7</ele>
        <time>2022-04-11T12:11:55Z</time>
      </trkpt>
      <trkpt lat="49.94013" lon="2.20987">
        <ele>30.7</ele>
        <time>2022-04-11T12:11:56Z</time>
      </trkpt>
      <trkpt lat="49.94013" lon="2.20987">
        <ele>30.7</ele>
        <time>2022-04-11T12:11:57Z</time>
      </trkpt>
      <trkpt lat="49.94013" lon="2.20987">
        <ele>30.7</ele>
        <time>2022-04-11T12:11:58Z</time>
      </trkpt>
      <trkpt lat="49.94013" lon="2.20987">
        <ele>30.7</ele>
        <time>2022-04-11T12:11:59Z</time>
      </trkpt>
      <trkpt lat="49.94013" lon="2.20987">
        <ele>30.7</ele>
        <time>2022-04-11T12:12:00Z</time>
      </trkpt>
      <trkpt lat="49.94013" lon="2.20987">
        <ele>30.7</ele>
        <time>2022-04-11T12:12:01Z</time>
      </trkpt>
      <trkpt lat="49.94013" lon="2.20987">
        <ele>30.7</ele>
        <time>2022-04-11T12:12:02Z</time>
      </trkpt>
      <trkpt lat="49.94013" lon="2.20987">
        <ele>30.7</ele>
        <time>2022-04-11T12:12:03Z</time>
      </trkpt>
      <trkpt lat="49.94013" lon="2.20987">
        <ele>30.7</ele>
        <time>2022-04-11T12:12:04Z</time>
      </trkpt>
      <trkpt lat="49.94013" lon="2.20987">
        <ele>30.7</ele>
        <time>2022-04-11T12:12:05Z</time>
      </trkpt>
      <trkpt lat="49.94013" lon="2.20987">
        <ele>30.7</ele>
        <time>2022-04-11T12:12:06Z</time>
      </trkpt>
      <trkpt lat="49.94013" lon="2.20987">
        <ele>30.7</ele>
        <time>2022-04-11T12:12:07Z</time>
      </trkpt>
      <trkpt lat="49.94013" lon="2.20987">
        <ele>30.7</ele>
        <time>2022-04-11T12:12:08Z</time>
      </trkpt>
      <trkpt lat="49.94013" lon="2.20987">
        <ele>30.7</ele>
        <time>2022-04-11T12:12:09Z</time>
      </trkpt>
      <trkpt lat="49.94013" lon="2.20987">
        <ele>30.7</ele>
        <time>2022-04-11T12:12:10Z</time>
      </trkpt>
      <trkpt lat="49.94013" lon="2.20987">
        <ele>30.7</ele>
        <time>2022-04-11T12:12:11Z</time>
      </trkpt>
      <trkpt lat="49.94013" lon="2.20987">
        <ele>30.7</ele>
        <time>2022-04-11T12:12:12Z</time>
      </trkpt>
      <trkpt lat="49.94013" lon="2.20987">
        <ele>30.7</ele>
        <time>2022-04-11T12:12:13Z</time>
      </trkpt>
      <trkpt lat="49.94013" lon="2.20987">
        <ele>30.7</ele>
        <time>2022-04-11T12:12:14Z</time>
      </trkpt>
      <trkpt lat="49.94013" lon="2.20987">
        <ele>30.7</ele>
        <time>2022-04-11T12:12:15Z</time>
      </trkpt>
      <trkpt lat="49.94013" lon="2.20987">
        <ele>30.7</ele>
        <time>2022-04-11T12:12:16Z</time>
      </trkpt>
      <trkpt lat="49.94013" lon="2.20987">
        <ele>30.7</ele>
        <time>2022-04-11T12:12:17Z</time>
      </trkpt>
      <trkpt lat="49.94013" lon="2.20987">
        <ele>30.7</ele>
        <time>2022-04-11T12:12:18Z</time>
      </trkpt>
      <trkpt lat="49.94013" lon="2.20987">
        <ele>30.7</ele>
        <time>2022-04-11T12:12:19Z</time>
      </trkpt>
      <trkpt lat="49.94013" lon="2.20987">
        <ele>30.7</ele>
        <time>2022-04-11T12:12:20Z</time>
      </trkpt>
      <trkpt lat="49.94013" lon="2.20987">
        <ele>30.7</ele>
        <time>2022-04-11T12:12:21Z</time>
      </trkpt>
      <trkpt lat="49.94013" lon="2.20987">
        <ele>30.7</ele>
        <time>2022-04-11T12:12:22Z</time>
      </trkpt>
      <trkpt lat="49.94013" lon="2.20987">
        <ele>30.7</ele>
        <time>2022-04-11T12:12:23Z</time>
      </trkpt>
      <trkpt lat="49.94013" lon="2.20987">
        <ele>30.7</ele>
        <time>2022-04-11T12:12:24Z</time>
      </trkpt>
      <trkpt lat="49.94013" lon="2.20987">
        <ele>30.7</ele>
        <time>2022-04-11T12:12:25Z</time>
      </trkpt>
      <trkpt lat="49.94013" lon="2.20987">
        <ele>30.7</ele>
        <time>2022-04-11T12:12:26Z</time>
      </trkpt>
      <trkpt lat="49.94013" lon="2.20987">
        <ele>30.7</ele>
        <time>2022-04-11T12:12:27Z</time>
      </trkpt>
      <trkpt lat="49.94013" lon="2.20987">
        <ele>30.7</ele>
        <time>2022-04-11T12:12:28Z</time>
      </trkpt>
      <trkpt lat="49.94013" lon="2.20987">
        <ele>30.7</ele>
        <time>2022-04-11T12:12:29Z</time>
      </trkpt>
      <trkpt lat="49.94013" lon="2.20987">
        <ele>30.7</ele>
        <time>2022-04-11T12:12:30Z</time>
      </trkpt>
      <trkpt lat="49.94013" lon="2.20987">
        <ele>30.7</ele>
        <time>2022-04-11T12:12:31Z</time>
      </trkpt>
      <trkpt lat="49.94013" lon="2.20987">
        <ele>30.7</ele>
        <time>2022-04-11T12:12:32Z</time>
      </trkpt>
      <trkpt lat="49.94013" lon="2.20987">
        <ele>30.7</ele>
        <time>2022-04-11T12:12:33Z</time>
      </trkpt>
      <trkpt lat="49.94013" lon="2.20987">
        <ele>30.7</ele>
        <time>2022-04-11T12:12:34Z</time>
      </trkpt>
      <trkpt lat="49.94013" lon="2.20987">
        <ele>30.7</ele>
        <time>2022-04-11T12:12:35Z</time>
      </trkpt>
      <trkpt lat="49.94013" lon="2.20987">
        <ele>30.7</ele>
        <time>2022-04-11T12:12:36Z</time>
      </trkpt>
      <trkpt lat="49.94013" lon="2.20987">
        <ele>30.7</ele>
        <time>2022-04-11T12:12:37Z</time>
      </trkpt>
      <trkpt lat="49.94013" lon="2.20987">
        <ele>30.7</ele>
        <time>2022-04-11T12:12:38Z</time>
      </trkpt>
      <trkpt lat="49.94013" lon="2.20987">
        <ele>30.7</ele>
        <time>2022-04-11T12:12:39Z</time>
      </trkpt>
      <trkpt lat="49.94013" lon="2.20987">
        <ele>30.7</ele>
        <time>2022-04-11T12:12:40Z</time>
      </trkpt>
      <trkpt lat="49.94013" lon="2.20987">
        <ele>30.7</ele>
        <time>2022-04-11T12:12:41Z</time>
      </trkpt>
      <trkpt lat="49.94013" lon="2.20987">
        <ele>30.7</ele>
        <time>2022-04-11T12:12:42Z</time>
      </trkpt>
      <trkpt lat="49.94013" lon="2.20987">
        <ele>30.7</ele>
        <time>2022-04-11T12:12:43Z</time>
      </trkpt>
      <trkpt lat="49.94013" lon="2.20987">
        <ele>30.7</ele>
        <time>2022-04-11T12:12:44Z</time>
      </trkpt>
      <trkpt lat="49.94013" lon="2.20987">
        <ele>30.7</ele>
        <time>2022-04-11T12:12:45Z</time>
      </trkpt>
      <trkpt lat="49.94013" lon="2.20987">
        <ele>30.7</ele>
        <time>2022-04-11T12:12:46Z</time>
      </trkpt>
      <trkpt lat="49.94013" lon="2.20987">
        <ele>30.7</ele>
        <time>2022-04-11T12:12:47Z</time>
      </trkpt>
      <trkpt lat="49.94013" lon="2.20987">
        <ele>30.7</ele>
        <time>2022-04-11T12:12:48Z</time>
      </trkpt>
      <trkpt lat="49.94013" lon="2.20987">
        <ele>30.7</ele>
        <time>2022-04-11T12:12:49Z</time>
      </trkpt>
      <trkpt lat="49.94013" lon="2.20987">
        <ele>30.7</ele>
        <time>2022-04-11T12:12:50Z</time>
      </trkpt>
      <trkpt lat="49.94013" lon="2.20987">
        <ele>30.7</ele>
        <time>2022-04-11T12:12:51Z</time>
      </trkpt>
      <trkpt lat="49.94013" lon="2.20987">
        <ele>30.7</ele>
        <time>2022-04-11T12:12:52Z</time>
      </trkpt>
      <trkpt lat="49.94013" lon="2.20987">
        <ele>30.7</ele>
        <time>2022-04-11T12:12:53Z</time>
      </trkpt>
      <trkpt lat="49.94013" lon="2.20987">
        <ele>30.7</ele>
        <time>2022-04-11T12:12:54Z</time>
      </trkpt>
      <trkpt lat="49.94013" lon="2.20987">
        <ele>30.7</ele>
        <time>2022-04-11T12:12:55Z</time>
      </trkpt>
      <trkpt lat="49.94013" lon="2.20987">
        <ele>30.7</ele>
        <time>2022-04-11T12:12:56Z</time>
      </trkpt>
      <trkpt lat="49.94013" lon="2.20987">
        <ele>30.7</ele>
        <time>2022-04-11T12:12:57Z</time>
      </trkpt>
      <trkpt lat="49.94013" lon="2.20987">
        <ele>30.7</ele>
        <time>2022-04-11T12:12:58Z</time>
      </trkpt>
      <trkpt lat="49.94013" lon="2.20987">
        <ele>30.7</ele>
        <time>2022-04-11T12:12:59Z</time>
      </trkpt>
      <trkpt lat="49.94013" lon="2.20987">
        <ele>30.7</ele>
        <time>2022-04-11T12:13:00Z</time>
      </trkpt>
      <trkpt lat="49.94013" lon="2.20987">
        <ele>30.7</ele>
        <time>2022-04-11T12:13:01Z</time>
      </trkpt>
      <trkpt lat="49.94013" lon="2.20987">
        <ele>30.7</ele>
        <time>2022-04-11T12:13:02Z</time>
      </trkpt>
      <trkpt lat="49.94013" lon="2.20987">
        <ele>30.7</ele>
        <time>2022-04-11T12:13:03Z</time>
      </trkpt>
      <trkpt lat="49.94013" lon="2.20987">
        <ele>30.7</ele>
        <time>2022-04-11T12:13:04Z</time>
      </trkpt>
      <trkpt lat="49.94013" lon="2.20987">
        <ele>30.7</ele>
        <time>2022-04-11T12:13:05Z</time>
      </trkpt>
      <trkpt lat="49.94013" lon="2.20987">
        <ele>30.7</ele>
        <time>2022-04-11T12:13:06Z</time>
      </trkpt>
      <trkpt lat="49.94013" lon="2.20987">
        <ele>30.7</ele>
        <time>2022-04-11T12:13:07Z</time>
      </trkpt>
      <trkpt lat="49.94013" lon="2.20987">
        <ele>30.7</ele>
        <time>2022-04-11T12:13:08Z</time>
      </trkpt>
      <trkpt lat="49.94013" lon="2.20987">
        <ele>30.7</ele>
        <time>2022-04-11T12:13:09Z</time>
      </trkpt>
      <trkpt lat="49.94013" lon="2.20987">
        <ele>30.7</ele>
        <time>2022-04-11T12:13:10Z</time>
      </trkpt>
      <trkpt lat="49.94013" lon="2.20987">
        <ele>30.7</ele>
        <time>2022-04-11T12:13:11Z</time>
      </trkpt>
      <trkpt lat="49.94013" lon="2.20987">
        <ele>30.7</ele>
        <time>2022-04-11T12:13:12Z</time>
      </trkpt>
      <trkpt lat="49.94013" lon="2.20987">
        <ele>30.7</ele>
        <time>2022-04-11T12:13:13Z</time>
      </trkpt>
      <trkpt lat="49.94013" lon="2.20987">
        <ele>30.7</ele>
        <time>2022-04-11T12:13:14Z</time>
      </trkpt>
      <trkpt lat="49.94013" lon="2.20987">
        <ele>30.7</ele>
        <time>2022-04-11T12:13:15Z</time>
      </trkpt>
      <trkpt lat="49.94013" lon="2.20987">
        <ele>30.7</ele>
        <time>2022-04-11T12:13:16Z</time>
      </trkpt>
      <trkpt lat="49.94013" lon="2.20987">
        <ele>30.7</ele>
        <time>2022-04-11T12:13:17Z</time>
      </trkpt>
      <trkpt lat="49.94013" lon="2.20987">
        <ele>30.7</ele>
        <time>2022-04-11T12:13:18Z</time>
      </trkpt>
      <trkpt lat="49.94013" lon="2.20987">
        <ele>30.7</ele>
        <time>2022-04-11T12:13:19Z</time>
      </trkpt>
      <trkpt lat="49.94013" lon="2.20987">
        <ele>30.7</ele>
        <time>2022-04-11T12:13:20Z</time>
      </trkpt>
      <trkpt lat="49.94013" lon="2.20987">
        <ele>30.7</ele>
        <time>2022-04-11T12:13:21Z</time>
      </trkpt>
      <trkpt lat="49.94014" lon="2.20987">
        <ele>30.7</ele>
        <time>2022-04-11T12:13:22Z</time>
      </trkpt>
      <trkpt lat="49.94014" lon="2.20987">
        <ele>30.7</ele>
        <time>2022-04-11T12:13:23Z</time>
      </trkpt>
      <trkpt lat="49.94014" lon="2.20987">
        <ele>30.7</ele>
        <time>2022-04-11T12:13:24Z</time>
      </trkpt>
      <trkpt lat="49.94014" lon="2.20987">
        <ele>30.7</ele>
        <time>2022-04-11T12:13:25Z</time>
      </trkpt>
      <trkpt lat="49.94014" lon="2.20987">
        <ele>30.7</ele>
        <time>2022-04-11T12:13:26Z</time>
      </trkpt>
      <trkpt lat="49.94014" lon="2.20987">
        <ele>30.7</ele>
        <time>2022-04-11T12:13:27Z</time>
      </trkpt>
      <trkpt lat="49.94014" lon="2.20987">
        <ele>30.7</ele>
        <time>2022-04-11T12:13:28Z</time>
      </trkpt>
      <trkpt lat="49.94014" lon="2.20987">
        <ele>30.7</ele>
        <time>2022-04-11T12:13:29Z</time>
      </trkpt>
      <trkpt lat="49.94014" lon="2.20987">
        <ele>30.7</ele>
        <time>2022-04-11T12:13:30Z</time>
      </trkpt>
      <trkpt lat="49.94014" lon="2.20987">
        <ele>30.7</ele>
        <time>2022-04-11T12:13:31Z</time>
      </trkpt>
      <trkpt lat="49.94014" lon="2.20987">
        <ele>30.7</ele>
        <time>2022-04-11T12:13:32Z</time>
      </trkpt>
      <trkpt lat="49.94014" lon="2.20987">
        <ele>30.7</ele>
        <time>2022-04-11T12:13:33Z</time>
      </trkpt>
      <trkpt lat="49.94014" lon="2.20987">
        <ele>30.7</ele>
        <time>2022-04-11T12:13:34Z</time>
      </trkpt>
      <trkpt lat="49.94014" lon="2.20987">
        <ele>30.7</ele>
        <time>2022-04-11T12:13:35Z</time>
      </trkpt>
      <trkpt lat="49.94014" lon="2.20987">
        <ele>30.7</ele>
        <time>2022-04-11T12:13:36Z</time>
      </trkpt>
      <trkpt lat="49.94014" lon="2.20987">
        <ele>30.7</ele>
        <time>2022-04-11T12:13:37Z</time>
      </trkpt>
      <trkpt lat="49.94014" lon="2.20987">
        <ele>30.7</ele>
        <time>2022-04-11T12:13:38Z</time>
      </trkpt>
      <trkpt lat="49.94014" lon="2.20987">
        <ele>30.7</ele>
        <time>2022-04-11T12:13:39Z</time>
      </trkpt>
      <trkpt lat="49.94014" lon="2.20987">
        <ele>30.7</ele>
        <time>2022-04-11T12:13:40Z</time>
      </trkpt>
      <trkpt lat="49.94014" lon="2.20987">
        <ele>30.7</ele>
        <time>2022-04-11T12:13:41Z</time>
      </trkpt>
      <trkpt lat="49.94014" lon="2.20987">
        <ele>30.7</ele>
        <time>2022-04-11T12:13:42Z</time>
      </trkpt>
      <trkpt lat="49.94014" lon="2.20987">
        <ele>30.7</ele>
        <time>2022-04-11T12:13:43Z</time>
      </trkpt>
      <trkpt lat="49.94014" lon="2.20987">
        <ele>30.7</ele>
        <time>2022-04-11T12:13:44Z</time>
      </trkpt>
      <trkpt lat="49.94014" lon="2.20987">
        <ele>30.7</ele>
        <time>2022-04-11T12:13:45Z</time>
      </trkpt>
      <trkpt lat="49.94014" lon="2.20987">
        <ele>30.7</ele>
        <time>2022-04-11T12:13:46Z</time>
      </trkpt>
      <trkpt lat="49.94014" lon="2.20987">
        <ele>30.7</ele>
        <time>2022-04-11T12:13:47Z</time>
      </trkpt>
      <trkpt lat="49.94014" lon="2.20987">
        <ele>30.7</ele>
        <time>2022-04-11T12:13:48Z</time>
      </trkpt>
      <trkpt lat="49.94014" lon="2.20987">
        <ele>30.7</ele>
        <time>2022-04-11T12:13:49Z</time>
      </trkpt>
      <trkpt lat="49.94014" lon="2.20987">
        <ele>30.7</ele>
        <time>2022-04-11T12:13:50Z</time>
      </trkpt>
      <trkpt lat="49.94014" lon="2.20987">
        <ele>30.7</ele>
        <time>2022-04-11T12:13:51Z</time>
      </trkpt>
      <trkpt lat="49.94014" lon="2.20987">
        <ele>30.7</ele>
        <time>2022-04-11T12:13:52Z</time>
      </trkpt>
      <trkpt lat="49.94014" lon="2.20987">
        <ele>30.7</ele>
        <time>2022-04-11T12:13:53Z</time>
      </trkpt>
      <trkpt lat="49.94014" lon="2.20987">
        <ele>30.7</ele>
        <time>2022-04-11T12:13:54Z</time>
      </trkpt>
      <trkpt lat="49.94014" lon="2.20987">
        <ele>30.7</ele>
        <time>2022-04-11T12:13:55Z</time>
      </trkpt>
      <trkpt lat="49.94014" lon="2.20987">
        <ele>30.7</ele>
        <time>2022-04-11T12:13:56Z</time>
      </trkpt>
      <trkpt lat="49.94014" lon="2.20987">
        <ele>30.7</ele>
        <time>2022-04-11T12:13:57Z</time>
      </trkpt>
      <trkpt lat="49.94014" lon="2.20987">
        <ele>30.7</ele>
        <time>2022-04-11T12:13:58Z</time>
      </trkpt>
      <trkpt lat="49.94014" lon="2.20987">
        <ele>30.7</ele>
        <time>2022-04-11T12:13:59Z</time>
      </trkpt>
      <trkpt lat="49.94014" lon="2.20987">
        <ele>30.7</ele>
        <time>2022-04-11T12:14:00Z</time>
      </trkpt>
      <trkpt lat="49.94014" lon="2.20987">
        <ele>30.7</ele>
        <time>2022-04-11T12:14:01Z</time>
      </trkpt>
      <trkpt lat="49.94014" lon="2.20987">
        <ele>30.7</ele>
        <time>2022-04-11T12:14:02Z</time>
      </trkpt>
      <trkpt lat="49.94014" lon="2.20987">
        <ele>30.7</ele>
        <time>2022-04-11T12:14:03Z</time>
      </trkpt>
      <trkpt lat="49.94014" lon="2.20987">
        <ele>30.7</ele>
        <time>2022-04-11T12:14:04Z</time>
      </trkpt>
      <trkpt lat="49.94014" lon="2.20987">
        <ele>30.7</ele>
        <time>2022-04-11T12:14:05Z</time>
      </trkpt>
      <trkpt lat="49.94014" lon="2.20987">
        <ele>30.7</ele>
        <time>2022-04-11T12:14:06Z</time>
      </trkpt>
      <trkpt lat="49.94014" lon="2.20987">
        <ele>30.7</ele>
        <time>2022-04-11T12:14:07Z</time>
      </trkpt>
      <trkpt lat="49.94014" lon="2.20987">
        <ele>30.7</ele>
        <time>2022-04-11T12:14:08Z</time>
      </trkpt>
      <trkpt lat="49.94014" lon="2.20987">
        <ele>30.7</ele>
        <time>2022-04-11T12:14:09Z</time>
      </trkpt>
      <trkpt lat="49.94014" lon="2.20987">
        <ele>30.7</ele>
        <time>2022-04-11T12:14:10Z</time>
      </trkpt>
      <trkpt lat="49.94014" lon="2.20987">
        <ele>30.7</ele>
        <time>2022-04-11T12:14:11Z</time>
      </trkpt>
      <trkpt lat="49.94014" lon="2.20987">
        <ele>30.7</ele>
        <time>2022-04-11T12:14:12Z</time>
      </trkpt>
      <trkpt lat="49.94014" lon="2.20987">
        <ele>30.7</ele>
        <time>2022-04-11T12:14:13Z</time>
      </trkpt>
      <trkpt lat="49.94014" lon="2.20987">
        <ele>30.7</ele>
        <time>2022-04-11T12:14:14Z</time>
      </trkpt>
      <trkpt lat="49.94014" lon="2.20987">
        <ele>30.7</ele>
        <time>2022-04-11T12:14:15Z</time>
      </trkpt>
      <trkpt lat="49.94014" lon="2.20987">
        <ele>30.7</ele>
        <time>2022-04-11T12:14:16Z</time>
      </trkpt>
      <trkpt lat="49.94014" lon="2.20987">
        <ele>30.7</ele>
        <time>2022-04-11T12:14:17Z</time>
      </trkpt>
      <trkpt lat="49.94014" lon="2.20987">
        <ele>30.7</ele>
        <time>2022-04-11T12:14:18Z</time>
      </trkpt>
      <trkpt lat="49.94014" lon="2.20987">
        <ele>30.7</ele>
        <time>2022-04-11T12:14:19Z</time>
      </trkpt>
      <trkpt lat="49.94014" lon="2.20987">
        <ele>30.7</ele>
        <time>2022-04-11T12:14:20Z</time>
      </trkpt>
      <trkpt lat="49.94014" lon="2.20987">
        <ele>30.7</ele>
        <time>2022-04-11T12:14:21Z</time>
      </trkpt>
      <trkpt lat="49.94014" lon="2.20987">
        <ele>30.7</ele>
        <time>2022-04-11T12:14:22Z</time>
      </trkpt>
      <trkpt lat="49.94014" lon="2.20987">
        <ele>30.7</ele>
        <time>2022-04-11T12:14:23Z</time>
      </trkpt>
      <trkpt lat="49.94014" lon="2.20987">
        <ele>30.7</ele>
        <time>2022-04-11T12:14:24Z</time>
      </trkpt>
      <trkpt lat="49.94014" lon="2.20987">
        <ele>30.7</ele>
        <time>2022-04-11T12:14:25Z</time>
      </trkpt>
      <trkpt lat="49.94014" lon="2.20987">
        <ele>30.7</ele>
        <time>2022-04-11T12:14:26Z</time>
      </trkpt>
      <trkpt lat="49.94014" lon="2.20987">
        <ele>30.7</ele>
        <time>2022-04-11T12:14:27Z</time>
      </trkpt>
      <trkpt lat="49.94014" lon="2.20987">
        <ele>30.7</ele>
        <time>2022-04-11T12:14:28Z</time>
      </trkpt>
      <trkpt lat="49.94014" lon="2.20987">
        <ele>30.7</ele>
        <time>2022-04-11T12:14:29Z</time>
      </trkpt>
      <trkpt lat="49.94014" lon="2.20987">
        <ele>30.7</ele>
        <time>2022-04-11T12:14:30Z</time>
      </trkpt>
      <trkpt lat="49.94014" lon="2.20987">
        <ele>30.7</ele>
        <time>2022-04-11T12:14:31Z</time>
      </trkpt>
      <trkpt lat="49.94014" lon="2.20987">
        <ele>30.7</ele>
        <time>2022-04-11T12:14:32Z</time>
      </trkpt>
      <trkpt lat="49.94014" lon="2.20987">
        <ele>30.7</ele>
        <time>2022-04-11T12:14:33Z</time>
      </trkpt>
      <trkpt lat="49.94014" lon="2.20987">
        <ele>30.7</ele>
        <time>2022-04-11T12:14:34Z</time>
      </trkpt>
      <trkpt lat="49.94014" lon="2.20987">
        <ele>30.7</ele>
        <time>2022-04-11T12:14:35Z</time>
      </trkpt>
      <trkpt lat="49.94014" lon="2.20987">
        <ele>30.7</ele>
        <time>2022-04-11T12:14:36Z</time>
      </trkpt>
      <trkpt lat="49.94014" lon="2.20987">
        <ele>30.7</ele>
        <time>2022-04-11T12:14:37Z</time>
      </trkpt>
      <trkpt lat="49.94014" lon="2.20987">
        <ele>30.7</ele>
        <time>2022-04-11T12:14:38Z</time>
      </trkpt>
      <trkpt lat="49.94014" lon="2.20987">
        <ele>30.7</ele>
        <time>2022-04-11T12:14:39Z</time>
      </trkpt>
      <trkpt lat="49.94014" lon="2.20987">
        <ele>30.7</ele>
        <time>2022-04-11T12:14:40Z</time>
      </trkpt>
      <trkpt lat="49.94014" lon="2.20987">
        <ele>30.7</ele>
        <time>2022-04-11T12:14:41Z</time>
      </trkpt>
      <trkpt lat="49.94014" lon="2.20987">
        <ele>30.7</ele>
        <time>2022-04-11T12:14:42Z</time>
      </trkpt>
      <trkpt lat="49.94014" lon="2.20987">
        <ele>30.7</ele>
        <time>2022-04-11T12:14:43Z</time>
      </trkpt>
      <trkpt lat="49.94014" lon="2.20987">
        <ele>30.7</ele>
        <time>2022-04-11T12:14:44Z</time>
      </trkpt>
      <trkpt lat="49.94014" lon="2.20987">
        <ele>30.7</ele>
        <time>2022-04-11T12:14:45Z</time>
      </trkpt>
      <trkpt lat="49.94014" lon="2.20987">
        <ele>30.7</ele>
        <time>2022-04-11T12:14:46Z</time>
      </trkpt>
      <trkpt lat="49.94014" lon="2.20987">
        <ele>30.7</ele>
        <time>2022-04-11T12:14:47Z</time>
      </trkpt>
      <trkpt lat="49.94014" lon="2.20987">
        <ele>30.7</ele>
        <time>2022-04-11T12:14:48Z</time>
      </trkpt>
      <trkpt lat="49.94014" lon="2.20987">
        <ele>30.7</ele>
        <time>2022-04-11T12:14:49Z</time>
      </trkpt>
      <trkpt lat="49.94014" lon="2.20987">
        <ele>30.7</ele>
        <time>2022-04-11T12:14:50Z</time>
      </trkpt>
      <trkpt lat="49.94014" lon="2.20987">
        <ele>30.7</ele>
        <time>2022-04-11T12:14:51Z</time>
      </trkpt>
      <trkpt lat="49.94014" lon="2.20987">
        <ele>30.7</ele>
        <time>2022-04-11T12:14:52Z</time>
      </trkpt>
      <trkpt lat="49.94014" lon="2.20987">
        <ele>30.7</ele>
        <time>2022-04-11T12:14:53Z</time>
      </trkpt>
      <trkpt lat="49.94014" lon="2.20987">
        <ele>30.7</ele>
        <time>2022-04-11T12:14:54Z</time>
      </trkpt>
      <trkpt lat="49.94014" lon="2.20987">
        <ele>30.7</ele>
        <time>2022-04-11T12:14:55Z</time>
      </trkpt>
      <trkpt lat="49.94014" lon="2.20987">
        <ele>30.7</ele>
        <time>2022-04-11T12:14:56Z</time>
      </trkpt>
      <trkpt lat="49.94014" lon="2.20987">
        <ele>30.7</ele>
        <time>2022-04-11T12:14:57Z</time>
      </trkpt>
      <trkpt lat="49.94014" lon="2.20987">
        <ele>30.7</ele>
        <time>2022-04-11T12:14:58Z</time>
      </trkpt>
      <trkpt lat="49.94014" lon="2.20987">
        <ele>30.7</ele>
        <time>2022-04-11T12:14:59Z</time>
      </trkpt>
      <trkpt lat="49.94014" lon="2.20987">
        <ele>30.7</ele>
        <time>2022-04-11T12:15:00Z</time>
      </trkpt>
      <trkpt lat="49.94014" lon="2.20987">
        <ele>30.7</ele>
        <time>2022-04-11T12:15:01Z</time>
      </trkpt>
      <trkpt lat="49.94014" lon="2.20987">
        <ele>30.7</ele>
        <time>2022-04-11T12:15:02Z</time>
      </trkpt>
      <trkpt lat="49.94014" lon="2.20987">
        <ele>30.7</ele>
        <time>2022-04-11T12:15:03Z</time>
      </trkpt>
      <trkpt lat="49.94014" lon="2.20987">
        <ele>30.7</ele>
        <time>2022-04-11T12:15:04Z</time>
      </trkpt>
      <trkpt lat="49.94014" lon="2.20987">
        <ele>30.7</ele>
        <time>2022-04-11T12:15:05Z</time>
      </trkpt>
      <trkpt lat="49.94014" lon="2.20987">
        <ele>30.7</ele>
        <time>2022-04-11T12:15:06Z</time>
      </trkpt>
      <trkpt lat="49.94014" lon="2.20987">
        <ele>30.7</ele>
        <time>2022-04-11T12:15:07Z</time>
      </trkpt>
      <trkpt lat="49.94014" lon="2.20987">
        <ele>30.7</ele>
        <time>2022-04-11T12:15:08Z</time>
      </trkpt>
      <trkpt lat="49.94014" lon="2.20987">
        <ele>30.7</ele>
        <time>2022-04-11T12:15:09Z</time>
      </trkpt>
      <trkpt lat="49.94014" lon="2.20987">
        <ele>30.7</ele>
        <time>2022-04-11T12:15:10Z</time>
      </trkpt>
      <trkpt lat="49.94014" lon="2.20987">
        <ele>30.7</ele>
        <time>2022-04-11T12:15:11Z</time>
      </trkpt>
      <trkpt lat="49.94014" lon="2.20987">
        <ele>30.7</ele>
        <time>2022-04-11T12:15:12Z</time>
      </trkpt>
      <trkpt lat="49.94014" lon="2.20987">
        <ele>30.7</ele>
        <time>2022-04-11T12:15:13Z</time>
      </trkpt>
      <trkpt lat="49.94014" lon="2.20987">
        <ele>30.7</ele>
        <time>2022-04-11T12:15:14Z</time>
      </trkpt>
      <trkpt lat="49.94014" lon="2.20987">
        <ele>30.7</ele>
        <time>2022-04-11T12:15:15Z</time>
      </trkpt>
      <trkpt lat="49.94014" lon="2.20987">
        <ele>30.7</ele>
        <time>2022-04-11T12:15:16Z</time>
      </trkpt>
      <trkpt lat="49.94014" lon="2.20987">
        <ele>30.7</ele>
        <time>2022-04-11T12:15:17Z</time>
      </trkpt>
      <trkpt lat="49.94014" lon="2.20987">
        <ele>30.7</ele>
        <time>2022-04-11T12:15:18Z</time>
      </trkpt>
      <trkpt lat="49.94014" lon="2.20987">
        <ele>30.7</ele>
        <time>2022-04-11T12:15:19Z</time>
      </trkpt>
      <trkpt lat="49.94014" lon="2.20987">
        <ele>30.7</ele>
        <time>2022-04-11T12:15:20Z</time>
      </trkpt>
      <trkpt lat="49.94014" lon="2.20987">
        <ele>30.7</ele>
        <time>2022-04-11T12:15:21Z</time>
      </trkpt>
      <trkpt lat="49.94014" lon="2.20987">
        <ele>30.7</ele>
        <time>2022-04-11T12:15:22Z</time>
      </trkpt>
      <trkpt lat="49.94014" lon="2.20987">
        <ele>30.7</ele>
        <time>2022-04-11T12:15:23Z</time>
      </trkpt>
      <trkpt lat="49.94014" lon="2.20987">
        <ele>30.7</ele>
        <time>2022-04-11T12:15:24Z</time>
      </trkpt>
      <trkpt lat="49.94014" lon="2.20987">
        <ele>30.7</ele>
        <time>2022-04-11T12:15:25Z</time>
      </trkpt>
      <trkpt lat="49.94014" lon="2.20987">
        <ele>30.7</ele>
        <time>2022-04-11T12:15:26Z</time>
      </trkpt>
      <trkpt lat="49.94014" lon="2.20987">
        <ele>30.7</ele>
        <time>2022-04-11T12:15:27Z</time>
      </trkpt>
      <trkpt lat="49.94014" lon="2.20987">
        <ele>30.7</ele>
        <time>2022-04-11T12:15:28Z</time>
      </trkpt>
      <trkpt lat="49.94014" lon="2.20987">
        <ele>30.7</ele>
        <time>2022-04-11T12:15:29Z</time>
      </trkpt>
      <trkpt lat="49.94014" lon="2.20987">
        <ele>30.7</ele>
        <time>2022-04-11T12:15:30Z</time>
      </trkpt>
      <trkpt lat="49.94014" lon="2.20987">
        <ele>30.7</ele>
        <time>2022-04-11T12:15:31Z</time>
      </trkpt>
      <trkpt lat="49.94014" lon="2.20987">
        <ele>30.7</ele>
        <time>2022-04-11T12:15:32Z</time>
      </trkpt>
      <trkpt lat="49.94014" lon="2.20987">
        <ele>30.7</ele>
        <time>2022-04-11T12:15:33Z</time>
      </trkpt>
      <trkpt lat="49.94014" lon="2.20987">
        <ele>30.7</ele>
        <time>2022-04-11T12:15:34Z</time>
      </trkpt>
      <trkpt lat="49.94014" lon="2.20987">
        <ele>30.7</ele>
        <time>2022-04-11T12:15:35Z</time>
      </trkpt>
      <trkpt lat="49.94014" lon="2.20987">
        <ele>30.7</ele>
        <time>2022-04-11T12:15:36Z</time>
      </trkpt>
      <trkpt lat="49.94014" lon="2.20987">
        <ele>30.7</ele>
        <time>2022-04-11T12:15:37Z</time>
      </trkpt>
      <trkpt lat="49.94014" lon="2.20987">
        <ele>30.7</ele>
        <time>2022-04-11T12:15:38Z</time>
      </trkpt>
      <trkpt lat="49.94014" lon="2.20987">
        <ele>30.7</ele>
        <time>2022-04-11T12:15:39Z</time>
      </trkpt>
      <trkpt lat="49.94014" lon="2.20987">
        <ele>30.7</ele>
        <time>2022-04-11T12:15:40Z</time>
      </trkpt>
      <trkpt lat="49.94014" lon="2.20987">
        <ele>30.7</ele>
        <time>2022-04-11T12:15:41Z</time>
      </trkpt>
      <trkpt lat="49.94014" lon="2.20987">
        <ele>30.7</ele>
        <time>2022-04-11T12:15:42Z</time>
      </trkpt>
      <trkpt lat="49.94014" lon="2.20987">
        <ele>30.7</ele>
        <time>2022-04-11T12:15:43Z</time>
      </trkpt>
      <trkpt lat="49.94014" lon="2.20987">
        <ele>30.7</ele>
        <time>2022-04-11T12:15:44Z</time>
      </trkpt>
      <trkpt lat="49.94014" lon="2.20987">
        <ele>30.7</ele>
        <time>2022-04-11T12:15:45Z</time>
      </trkpt>
      <trkpt lat="49.94014" lon="2.20987">
        <ele>30.7</ele>
        <time>2022-04-11T12:15:46Z</time>
      </trkpt>
      <trkpt lat="49.94014" lon="2.20987">
        <ele>30.7</ele>
        <time>2022-04-11T12:15:47Z</time>
      </trkpt>
      <trkpt lat="49.94014" lon="2.20987">
        <ele>30.7</ele>
        <time>2022-04-11T12:15:48Z</time>
      </trkpt>
      <trkpt lat="49.94014" lon="2.20987">
        <ele>30.7</ele>
        <time>2022-04-11T12:15:49Z</time>
      </trkpt>
      <trkpt lat="49.94014" lon="2.20987">
        <ele>30.7</ele>
        <time>2022-04-11T12:15:50Z</time>
      </trkpt>
      <trkpt lat="49.94014" lon="2.20987">
        <ele>30.7</ele>
        <time>2022-04-11T12:15:51Z</time>
      </trkpt>
      <trkpt lat="49.94014" lon="2.20987">
        <ele>30.7</ele>
        <time>2022-04-11T12:15:52Z</time>
      </trkpt>
      <trkpt lat="49.94014" lon="2.20987">
        <ele>30.7</ele>
        <time>2022-04-11T12:15:53Z</time>
      </trkpt>
      <trkpt lat="49.94014" lon="2.20987">
        <ele>30.7</ele>
        <time>2022-04-11T12:15:54Z</time>
      </trkpt>
      <trkpt lat="49.94014" lon="2.20987">
        <ele>30.7</ele>
        <time>2022-04-11T12:15:55Z</time>
      </trkpt>
      <trkpt lat="49.94014" lon="2.20987">
        <ele>30.7</ele>
        <time>2022-04-11T12:15:56Z</time>
      </trkpt>
      <trkpt lat="49.94014" lon="2.20987">
        <ele>30.7</ele>
        <time>2022-04-11T12:15:57Z</time>
      </trkpt>
      <trkpt lat="49.94014" lon="2.20987">
        <ele>30.7</ele>
        <time>2022-04-11T12:15:58Z</time>
      </trkpt>
      <trkpt lat="49.94014" lon="2.20987">
        <ele>30.7</ele>
        <time>2022-04-11T12:15:59Z</time>
      </trkpt>
      <trkpt lat="49.94014" lon="2.20987">
        <ele>30.7</ele>
        <time>2022-04-11T12:16:00Z</time>
      </trkpt>
      <trkpt lat="49.94014" lon="2.20987">
        <ele>30.7</ele>
        <time>2022-04-11T12:16:01Z</time>
      </trkpt>
      <trkpt lat="49.94014" lon="2.20987">
        <ele>30.7</ele>
        <time>2022-04-11T12:16:02Z</time>
      </trkpt>
      <trkpt lat="49.94014" lon="2.20987">
        <ele>30.7</ele>
        <time>2022-04-11T12:16:03Z</time>
      </trkpt>
      <trkpt lat="49.94014" lon="2.20987">
        <ele>30.7</ele>
        <time>2022-04-11T12:16:04Z</time>
      </trkpt>
      <trkpt lat="49.94014" lon="2.20987">
        <ele>30.7</ele>
        <time>2022-04-11T12:16:05Z</time>
      </trkpt>
      <trkpt lat="49.94014" lon="2.20987">
        <ele>30.7</ele>
        <time>2022-04-11T12:16:06Z</time>
      </trkpt>
      <trkpt lat="49.94014" lon="2.20987">
        <ele>30.7</ele>
        <time>2022-04-11T12:16:07Z</time>
      </trkpt>
      <trkpt lat="49.94014" lon="2.20987">
        <ele>30.7</ele>
        <time>2022-04-11T12:16:08Z</time>
      </trkpt>
      <trkpt lat="49.94014" lon="2.20987">
        <ele>30.7</ele>
        <time>2022-04-11T12:16:09Z</time>
      </trkpt>
      <trkpt lat="49.94014" lon="2.20987">
        <ele>30.7</ele>
        <time>2022-04-11T12:16:10Z</time>
      </trkpt>
      <trkpt lat="49.94014" lon="2.20987">
        <ele>30.7</ele>
        <time>2022-04-11T12:16:11Z</time>
      </trkpt>
      <trkpt lat="49.94014" lon="2.20987">
        <ele>30.7</ele>
        <time>2022-04-11T12:16:12Z</time>
      </trkpt>
      <trkpt lat="49.94014" lon="2.20987">
        <ele>30.7</ele>
        <time>2022-04-11T12:16:13Z</time>
      </trkpt>
      <trkpt lat="49.94014" lon="2.20987">
        <ele>30.7</ele>
        <time>2022-04-11T12:16:14Z</time>
      </trkpt>
      <trkpt lat="49.94014" lon="2.20987">
        <ele>30.7</ele>
        <time>2022-04-11T12:16:15Z</time>
      </trkpt>
      <trkpt lat="49.94014" lon="2.20987">
        <ele>30.7</ele>
        <time>2022-04-11T12:16:16Z</time>
      </trkpt>
      <trkpt lat="49.94014" lon="2.20987">
        <ele>30.7</ele>
        <time>2022-04-11T12:16:17Z</time>
      </trkpt>
      <trkpt lat="49.94014" lon="2.20987">
        <ele>30.7</ele>
        <time>2022-04-11T12:16:18Z</time>
      </trkpt>
      <trkpt lat="49.94014" lon="2.20987">
        <ele>30.7</ele>
        <time>2022-04-11T12:16:19Z</time>
      </trkpt>
      <trkpt lat="49.94014" lon="2.20987">
        <ele>30.7</ele>
        <time>2022-04-11T12:16:20Z</time>
      </trkpt>
      <trkpt lat="49.94014" lon="2.20987">
        <ele>30.7</ele>
        <time>2022-04-11T12:16:21Z</time>
      </trkpt>
      <trkpt lat="49.94014" lon="2.20987">
        <ele>30.7</ele>
        <time>2022-04-11T12:16:22Z</time>
      </trkpt>
      <trkpt lat="49.94014" lon="2.20987">
        <ele>30.7</ele>
        <time>2022-04-11T12:16:23Z</time>
      </trkpt>
      <trkpt lat="49.94014" lon="2.20987">
        <ele>30.7</ele>
        <time>2022-04-11T12:16:24Z</time>
      </trkpt>
      <trkpt lat="49.94014" lon="2.20987">
        <ele>30.7</ele>
        <time>2022-04-11T12:16:25Z</time>
      </trkpt>
      <trkpt lat="49.94014" lon="2.20987">
        <ele>30.7</ele>
        <time>2022-04-11T12:16:26Z</time>
      </trkpt>
      <trkpt lat="49.94014" lon="2.20987">
        <ele>30.7</ele>
        <time>2022-04-11T12:16:27Z</time>
      </trkpt>
      <trkpt lat="49.94014" lon="2.20987">
        <ele>30.7</ele>
        <time>2022-04-11T12:16:28Z</time>
      </trkpt>
      <trkpt lat="49.94014" lon="2.20987">
        <ele>30.7</ele>
        <time>2022-04-11T12:16:29Z</time>
      </trkpt>
      <trkpt lat="49.94014" lon="2.20987">
        <ele>30.7</ele>
        <time>2022-04-11T12:16:30Z</time>
      </trkpt>
      <trkpt lat="49.94014" lon="2.20987">
        <ele>30.7</ele>
        <time>2022-04-11T12:16:31Z</time>
      </trkpt>
      <trkpt lat="49.94014" lon="2.20987">
        <ele>30.7</ele>
        <time>2022-04-11T12:16:32Z</time>
      </trkpt>
      <trkpt lat="49.94014" lon="2.20987">
        <ele>30.7</ele>
        <time>2022-04-11T12:16:33Z</time>
      </trkpt>
      <trkpt lat="49.94014" lon="2.20987">
        <ele>30.7</ele>
        <time>2022-04-11T12:16:34Z</time>
      </trkpt>
      <trkpt lat="49.94014" lon="2.20987">
        <ele>30.7</ele>
        <time>2022-04-11T12:16:35Z</time>
      </trkpt>
      <trkpt lat="49.94014" lon="2.20987">
        <ele>30.7</ele>
        <time>2022-04-11T12:16:36Z</time>
      </trkpt>
      <trkpt lat="49.94014" lon="2.20987">
        <ele>30.7</ele>
        <time>2022-04-11T12:16:37Z</time>
      </trkpt>
      <trkpt lat="49.94014" lon="2.20987">
        <ele>30.7</ele>
        <time>2022-04-11T12:16:38Z</time>
      </trkpt>
      <trkpt lat="49.94014" lon="2.20987">
        <ele>30.7</ele>
        <time>2022-04-11T12:16:39Z</time>
      </trkpt>
      <trkpt lat="49.94014" lon="2.20987">
        <ele>30.7</ele>
        <time>2022-04-11T12:16:40Z</time>
      </trkpt>
      <trkpt lat="49.94014" lon="2.20987">
        <ele>30.7</ele>
        <time>2022-04-11T12:16:41Z</time>
      </trkpt>
      <trkpt lat="49.94014" lon="2.20987">
        <ele>30.7</ele>
        <time>2022-04-11T12:16:42Z</time>
      </trkpt>
      <trkpt lat="49.94014" lon="2.20987">
        <ele>30.7</ele>
        <time>2022-04-11T12:16:43Z</time>
      </trkpt>
      <trkpt lat="49.94014" lon="2.20987">
        <ele>30.7</ele>
        <time>2022-04-11T12:16:44Z</time>
      </trkpt>
      <trkpt lat="49.94014" lon="2.20987">
        <ele>30.7</ele>
        <time>2022-04-11T12:16:45Z</time>
      </trkpt>
      <trkpt lat="49.94014" lon="2.20987">
        <ele>30.7</ele>
        <time>2022-04-11T12:16:46Z</time>
      </trkpt>
      <trkpt lat="49.94014" lon="2.20987">
        <ele>30.7</ele>
        <time>2022-04-11T12:16:47Z</time>
      </trkpt>
      <trkpt lat="49.94014" lon="2.20987">
        <ele>30.7</ele>
        <time>2022-04-11T12:16:48Z</time>
      </trkpt>
      <trkpt lat="49.94014" lon="2.20987">
        <ele>30.7</ele>
        <time>2022-04-11T12:16:49Z</time>
      </trkpt>
      <trkpt lat="49.94014" lon="2.20987">
        <ele>30.7</ele>
        <time>2022-04-11T12:16:50Z</time>
      </trkpt>
      <trkpt lat="49.94014" lon="2.20987">
        <ele>30.7</ele>
        <time>2022-04-11T12:16:51Z</time>
      </trkpt>
      <trkpt lat="49.94014" lon="2.20987">
        <ele>30.7</ele>
        <time>2022-04-11T12:16:52Z</time>
      </trkpt>
      <trkpt lat="49.94014" lon="2.20987">
        <ele>30.7</ele>
        <time>2022-04-11T12:16:53Z</time>
      </trkpt>
      <trkpt lat="49.94014" lon="2.20987">
        <ele>30.7</ele>
        <time>2022-04-11T12:16:54Z</time>
      </trkpt>
      <trkpt lat="49.94014" lon="2.20987">
        <ele>30.7</ele>
        <time>2022-04-11T12:16:55Z</time>
      </trkpt>
      <trkpt lat="49.94014" lon="2.20987">
        <ele>30.7</ele>
        <time>2022-04-11T12:16:56Z</time>
      </trkpt>
      <trkpt lat="49.94014" lon="2.20987">
        <ele>30.7</ele>
        <time>2022-04-11T12:16:57Z</time>
      </trkpt>
      <trkpt lat="49.94014" lon="2.20987">
        <ele>30.7</ele>
        <time>2022-04-11T12:16:58Z</time>
      </trkpt>
      <trkpt lat="49.94014" lon="2.20987">
        <ele>30.7</ele>
        <time>2022-04-11T12:16:59Z</time>
      </trkpt>
      <trkpt lat="49.94014" lon="2.20987">
        <ele>30.7</ele>
        <time>2022-04-11T12:17:00Z</time>
      </trkpt>
      <trkpt lat="49.94014" lon="2.20987">
        <ele>30.7</ele>
        <time>2022-04-11T12:17:01Z</time>
      </trkpt>
      <trkpt lat="49.94014" lon="2.20987">
        <ele>30.7</ele>
        <time>2022-04-11T12:17:02Z</time>
      </trkpt>
      <trkpt lat="49.94014" lon="2.20987">
        <ele>30.7</ele>
        <time>2022-04-11T12:17:03Z</time>
      </trkpt>
      <trkpt lat="49.94014" lon="2.20987">
        <ele>30.7</ele>
        <time>2022-04-11T12:17:04Z</time>
      </trkpt>
      <trkpt lat="49.94014" lon="2.20987">
        <ele>30.7</ele>
        <time>2022-04-11T12:17:05Z</time>
      </trkpt>
      <trkpt lat="49.94014" lon="2.20987">
        <ele>30.7</ele>
        <time>2022-04-11T12:17:06Z</time>
      </trkpt>
      <trkpt lat="49.94014" lon="2.20987">
        <ele>30.7</ele>
        <time>2022-04-11T12:17:07Z</time>
      </trkpt>
      <trkpt lat="49.94014" lon="2.20987">
        <ele>30.7</ele>
        <time>2022-04-11T12:17:08Z</time>
      </trkpt>
      <trkpt lat="49.94014" lon="2.20987">
        <ele>30.7</ele>
        <time>2022-04-11T12:17:09Z</time>
      </trkpt>
      <trkpt lat="49.94014" lon="2.20987">
        <ele>30.7</ele>
        <time>2022-04-11T12:17:10Z</time>
      </trkpt>
      <trkpt lat="49.94014" lon="2.20987">
        <ele>30.7</ele>
        <time>2022-04-11T12:17:11Z</time>
      </trkpt>
      <trkpt lat="49.94014" lon="2.20987">
        <ele>30.7</ele>
        <time>2022-04-11T12:17:12Z</time>
      </trkpt>
      <trkpt lat="49.94014" lon="2.20987">
        <ele>30.7</ele>
        <time>2022-04-11T12:17:13Z</time>
      </trkpt>
      <trkpt lat="49.94014" lon="2.20987">
        <ele>30.7</ele>
        <time>2022-04-11T12:17:14Z</time>
      </trkpt>
      <trkpt lat="49.94014" lon="2.20987">
        <ele>30.7</ele>
        <time>2022-04-11T12:17:15Z</time>
      </trkpt>
      <trkpt lat="49.94014" lon="2.20987">
        <ele>30.7</ele>
        <time>2022-04-11T12:17:16Z</time>
      </trkpt>
      <trkpt lat="49.94014" lon="2.20987">
        <ele>30.7</ele>
        <time>2022-04-11T12:17:17Z</time>
      </trkpt>
      <trkpt lat="49.94014" lon="2.20987">
        <ele>30.7</ele>
        <time>2022-04-11T12:17:18Z</time>
      </trkpt>
      <trkpt lat="49.94014" lon="2.20987">
        <ele>30.7</ele>
        <time>2022-04-11T12:17:19Z</time>
      </trkpt>
      <trkpt lat="49.94014" lon="2.20987">
        <ele>30.7</ele>
        <time>2022-04-11T12:17:20Z</time>
      </trkpt>
      <trkpt lat="49.94014" lon="2.20987">
        <ele>30.7</ele>
        <time>2022-04-11T12:17:21Z</time>
      </trkpt>
      <trkpt lat="49.94014" lon="2.20987">
        <ele>30.7</ele>
        <time>2022-04-11T12:17:22Z</time>
      </trkpt>
      <trkpt lat="49.94014" lon="2.20987">
        <ele>30.7</ele>
        <time>2022-04-11T12:17:23Z</time>
      </trkpt>
      <trkpt lat="49.94014" lon="2.20987">
        <ele>30.7</ele>
        <time>2022-04-11T12:17:24Z</time>
      </trkpt>
      <trkpt lat="49.94014" lon="2.20987">
        <ele>30.7</ele>
        <time>2022-04-11T12:17:25Z</time>
      </trkpt>
      <trkpt lat="49.94014" lon="2.20987">
        <ele>30.7</ele>
        <time>2022-04-11T12:17:26Z</time>
      </trkpt>
      <trkpt lat="49.94014" lon="2.20987">
        <ele>30.7</ele>
        <time>2022-04-11T12:17:27Z</time>
      </trkpt>
      <trkpt lat="49.94014" lon="2.20987">
        <ele>30.7</ele>
        <time>2022-04-11T12:17:28Z</time>
      </trkpt>
      <trkpt lat="49.94014" lon="2.20987">
        <ele>30.7</ele>
        <time>2022-04-11T12:17:29Z</time>
      </trkpt>
      <trkpt lat="49.94014" lon="2.20987">
        <ele>30.7</ele>
        <time>2022-04-11T12:17:30Z</time>
      </trkpt>
      <trkpt lat="49.94014" lon="2.20987">
        <ele>30.7</ele>
        <time>2022-04-11T12:17:31Z</time>
      </trkpt>
      <trkpt lat="49.94014" lon="2.20987">
        <ele>30.7</ele>
        <time>2022-04-11T12:17:32Z</time>
      </trkpt>
      <trkpt lat="49.94014" lon="2.20987">
        <ele>30.7</ele>
        <time>2022-04-11T12:17:33Z</time>
      </trkpt>
      <trkpt lat="49.94014" lon="2.20987">
        <ele>30.7</ele>
        <time>2022-04-11T12:17:34Z</time>
      </trkpt>
      <trkpt lat="49.94014" lon="2.20987">
        <ele>30.7</ele>
        <time>2022-04-11T12:17:35Z</time>
      </trkpt>
      <trkpt lat="49.94014" lon="2.20987">
        <ele>30.7</ele>
        <time>2022-04-11T12:17:36Z</time>
      </trkpt>
      <trkpt lat="49.94014" lon="2.20987">
        <ele>30.7</ele>
        <time>2022-04-11T12:17:37Z</time>
      </trkpt>
      <trkpt lat="49.94014" lon="2.20987">
        <ele>30.7</ele>
        <time>2022-04-11T12:17:38Z</time>
      </trkpt>
      <trkpt lat="49.94014" lon="2.20987">
        <ele>30.7</ele>
        <time>2022-04-11T12:17:39Z</time>
      </trkpt>
      <trkpt lat="49.94014" lon="2.20987">
        <ele>30.7</ele>
        <time>2022-04-11T12:17:40Z</time>
      </trkpt>
      <trkpt lat="49.94014" lon="2.20987">
        <ele>30.7</ele>
        <time>2022-04-11T12:17:41Z</time>
      </trkpt>
      <trkpt lat="49.94014" lon="2.20987">
        <ele>30.7</ele>
        <time>2022-04-11T12:17:42Z</time>
      </trkpt>
      <trkpt lat="49.94014" lon="2.20987">
        <ele>30.7</ele>
        <time>2022-04-11T12:17:43Z</time>
      </trkpt>
      <trkpt lat="49.94014" lon="2.20987">
        <ele>30.7</ele>
        <time>2022-04-11T12:17:44Z</time>
      </trkpt>
      <trkpt lat="49.94014" lon="2.20987">
        <ele>30.7</ele>
        <time>2022-04-11T12:17:45Z</time>
      </trkpt>
      <trkpt lat="49.94014" lon="2.20987">
        <ele>30.7</ele>
        <time>2022-04-11T12:17:46Z</time>
      </trkpt>
      <trkpt lat="49.94014" lon="2.20987">
        <ele>30.7</ele>
        <time>2022-04-11T12:17:47Z</time>
      </trkpt>
      <trkpt lat="49.94014" lon="2.20987">
        <ele>30.7</ele>
        <time>2022-04-11T12:17:48Z</time>
      </trkpt>
      <trkpt lat="49.94014" lon="2.20987">
        <ele>30.7</ele>
        <time>2022-04-11T12:17:49Z</time>
      </trkpt>
      <trkpt lat="49.94014" lon="2.20987">
        <ele>30.7</ele>
        <time>2022-04-11T12:17:50Z</time>
      </trkpt>
      <trkpt lat="49.94014" lon="2.20987">
        <ele>30.7</ele>
        <time>2022-04-11T12:17:51Z</time>
      </trkpt>
      <trkpt lat="49.94014" lon="2.20987">
        <ele>30.7</ele>
        <time>2022-04-11T12:17:52Z</time>
      </trkpt>
      <trkpt lat="49.94014" lon="2.20987">
        <ele>30.7</ele>
        <time>2022-04-11T12:17:53Z</time>
      </trkpt>
      <trkpt lat="49.94014" lon="2.20987">
        <ele>30.7</ele>
        <time>2022-04-11T12:17:54Z</time>
      </trkpt>
      <trkpt lat="49.94014" lon="2.20987">
        <ele>30.7</ele>
        <time>2022-04-11T12:17:55Z</time>
      </trkpt>
      <trkpt lat="49.94014" lon="2.20987">
        <ele>30.7</ele>
        <time>2022-04-11T12:17:56Z</time>
      </trkpt>
      <trkpt lat="49.94014" lon="2.20987">
        <ele>30.7</ele>
        <time>2022-04-11T12:17:57Z</time>
      </trkpt>
      <trkpt lat="49.94014" lon="2.20987">
        <ele>30.7</ele>
        <time>2022-04-11T12:17:58Z</time>
      </trkpt>
      <trkpt lat="49.94014" lon="2.20987">
        <ele>30.7</ele>
        <time>2022-04-11T12:17:59Z</time>
      </trkpt>
      <trkpt lat="49.94014" lon="2.20987">
        <ele>30.7</ele>
        <time>2022-04-11T12:18:00Z</time>
      </trkpt>
      <trkpt lat="49.94014" lon="2.20987">
        <ele>30.7</ele>
        <time>2022-04-11T12:18:01Z</time>
      </trkpt>
      <trkpt lat="49.94014" lon="2.20987">
        <ele>30.7</ele>
        <time>2022-04-11T12:18:02Z</time>
      </trkpt>
      <trkpt lat="49.94014" lon="2.20987">
        <ele>30.7</ele>
        <time>2022-04-11T12:18:03Z</time>
      </trkpt>
      <trkpt lat="49.94014" lon="2.20987">
        <ele>30.7</ele>
        <time>2022-04-11T12:18:04Z</time>
      </trkpt>
      <trkpt lat="49.94014" lon="2.20987">
        <ele>30.7</ele>
        <time>2022-04-11T12:18:05Z</time>
      </trkpt>
      <trkpt lat="49.94014" lon="2.20987">
        <ele>30.7</ele>
        <time>2022-04-11T12:18:06Z</time>
      </trkpt>
      <trkpt lat="49.94014" lon="2.20987">
        <ele>30.7</ele>
        <time>2022-04-11T12:18:07Z</time>
      </trkpt>
      <trkpt lat="49.94014" lon="2.20987">
        <ele>30.7</ele>
        <time>2022-04-11T12:18:08Z</time>
      </trkpt>
      <trkpt lat="49.94014" lon="2.20987">
        <ele>30.7</ele>
        <time>2022-04-11T12:18:09Z</time>
      </trkpt>
      <trkpt lat="49.94014" lon="2.20987">
        <ele>30.7</ele>
        <time>2022-04-11T12:18:10Z</time>
      </trkpt>
      <trkpt lat="49.94014" lon="2.20987">
        <ele>30.7</ele>
        <time>2022-04-11T12:18:11Z</time>
      </trkpt>
      <trkpt lat="49.94014" lon="2.20987">
        <ele>30.7</ele>
        <time>2022-04-11T12:18:12Z</time>
      </trkpt>
      <trkpt lat="49.94014" lon="2.20987">
        <ele>30.7</ele>
        <time>2022-04-11T12:18:13Z</time>
      </trkpt>
      <trkpt lat="49.94014" lon="2.20987">
        <ele>30.7</ele>
        <time>2022-04-11T12:18:14Z</time>
      </trkpt>
      <trkpt lat="49.94014" lon="2.20987">
        <ele>30.7</ele>
        <time>2022-04-11T12:18:15Z</time>
      </trkpt>
      <trkpt lat="49.94014" lon="2.20987">
        <ele>30.7</ele>
        <time>2022-04-11T12:18:16Z</time>
      </trkpt>
      <trkpt lat="49.94014" lon="2.20987">
        <ele>30.7</ele>
        <time>2022-04-11T12:18:17Z</time>
      </trkpt>
      <trkpt lat="49.94014" lon="2.20987">
        <ele>30.7</ele>
        <time>2022-04-11T12:18:18Z</time>
      </trkpt>
      <trkpt lat="49.94014" lon="2.20987">
        <ele>30.7</ele>
        <time>2022-04-11T12:18:19Z</time>
      </trkpt>
      <trkpt lat="49.94014" lon="2.20987">
        <ele>30.7</ele>
        <time>2022-04-11T12:18:20Z</time>
      </trkpt>
      <trkpt lat="49.94014" lon="2.20987">
        <ele>30.7</ele>
        <time>2022-04-11T12:18:21Z</time>
      </trkpt>
      <trkpt lat="49.94014" lon="2.20987">
        <ele>30.7</ele>
        <time>2022-04-11T12:18:22Z</time>
      </trkpt>
      <trkpt lat="49.94014" lon="2.20987">
        <ele>30.7</ele>
        <time>2022-04-11T12:18:23Z</time>
      </trkpt>
      <trkpt lat="49.94014" lon="2.20987">
        <ele>30.7</ele>
        <time>2022-04-11T12:18:24Z</time>
      </trkpt>
      <trkpt lat="49.94014" lon="2.20987">
        <ele>30.7</ele>
        <time>2022-04-11T12:18:25Z</time>
      </trkpt>
      <trkpt lat="49.94014" lon="2.20987">
        <ele>30.7</ele>
        <time>2022-04-11T12:18:26Z</time>
      </trkpt>
      <trkpt lat="49.94014" lon="2.20987">
        <ele>30.7</ele>
        <time>2022-04-11T12:18:27Z</time>
      </trkpt>
      <trkpt lat="49.94014" lon="2.20987">
        <ele>30.7</ele>
        <time>2022-04-11T12:18:28Z</time>
      </trkpt>
      <trkpt lat="49.94014" lon="2.20987">
        <ele>30.7</ele>
        <time>2022-04-11T12:18:29Z</time>
      </trkpt>
      <trkpt lat="49.94014" lon="2.20987">
        <ele>30.7</ele>
        <time>2022-04-11T12:18:30Z</time>
      </trkpt>
      <trkpt lat="49.94014" lon="2.20987">
        <ele>30.7</ele>
        <time>2022-04-11T12:18:31Z</time>
      </trkpt>
      <trkpt lat="49.94014" lon="2.20987">
        <ele>30.7</ele>
        <time>2022-04-11T12:18:32Z</time>
      </trkpt>
      <trkpt lat="49.94014" lon="2.20987">
        <ele>30.7</ele>
        <time>2022-04-11T12:18:33Z</time>
      </trkpt>
      <trkpt lat="49.94014" lon="2.20987">
        <ele>30.7</ele>
        <time>2022-04-11T12:18:34Z</time>
      </trkpt>
      <trkpt lat="49.94014" lon="2.20987">
        <ele>30.7</ele>
        <time>2022-04-11T12:18:35Z</time>
      </trkpt>
      <trkpt lat="49.94014" lon="2.20987">
        <ele>30.7</ele>
        <time>2022-04-11T12:18:36Z</time>
      </trkpt>
      <trkpt lat="49.94014" lon="2.20987">
        <ele>30.7</ele>
        <time>2022-04-11T12:18:37Z</time>
      </trkpt>
      <trkpt lat="49.94014" lon="2.20987">
        <ele>30.7</ele>
        <time>2022-04-11T12:18:38Z</time>
      </trkpt>
      <trkpt lat="49.94014" lon="2.20987">
        <ele>30.7</ele>
        <time>2022-04-11T12:18:39Z</time>
      </trkpt>
      <trkpt lat="49.94014" lon="2.20987">
        <ele>30.7</ele>
        <time>2022-04-11T12:18:40Z</time>
      </trkpt>
      <trkpt lat="49.94014" lon="2.20987">
        <ele>30.7</ele>
        <time>2022-04-11T12:18:41Z</time>
      </trkpt>
      <trkpt lat="49.94014" lon="2.20987">
        <ele>30.7</ele>
        <time>2022-04-11T12:18:42Z</time>
      </trkpt>
      <trkpt lat="49.94014" lon="2.20987">
        <ele>30.7</ele>
        <time>2022-04-11T12:18:43Z</time>
      </trkpt>
      <trkpt lat="49.94014" lon="2.20987">
        <ele>30.7</ele>
        <time>2022-04-11T12:18:44Z</time>
      </trkpt>
      <trkpt lat="49.94014" lon="2.20987">
        <ele>30.7</ele>
        <time>2022-04-11T12:18:45Z</time>
      </trkpt>
      <trkpt lat="49.94014" lon="2.20987">
        <ele>30.7</ele>
        <time>2022-04-11T12:18:46Z</time>
      </trkpt>
      <trkpt lat="49.94014" lon="2.20987">
        <ele>30.7</ele>
        <time>2022-04-11T12:18:47Z</time>
      </trkpt>
      <trkpt lat="49.94014" lon="2.20987">
        <ele>30.7</ele>
        <time>2022-04-11T12:18:48Z</time>
      </trkpt>
      <trkpt lat="49.94014" lon="2.20987">
        <ele>30.7</ele>
        <time>2022-04-11T12:18:49Z</time>
      </trkpt>
      <trkpt lat="49.94014" lon="2.20987">
        <ele>30.7</ele>
        <time>2022-04-11T12:18:50Z</time>
      </trkpt>
      <trkpt lat="49.94014" lon="2.20987">
        <ele>30.7</ele>
        <time>2022-04-11T12:18:51Z</time>
      </trkpt>
      <trkpt lat="49.94014" lon="2.20987">
        <ele>30.7</ele>
        <time>2022-04-11T12:18:52Z</time>
      </trkpt>
      <trkpt lat="49.94014" lon="2.20987">
        <ele>30.7</ele>
        <time>2022-04-11T12:18:53Z</time>
      </trkpt>
      <trkpt lat="49.94014" lon="2.20987">
        <ele>30.7</ele>
        <time>2022-04-11T12:18:54Z</time>
      </trkpt>
      <trkpt lat="49.94014" lon="2.20987">
        <ele>30.7</ele>
        <time>2022-04-11T12:18:55Z</time>
      </trkpt>
      <trkpt lat="49.94014" lon="2.20987">
        <ele>30.7</ele>
        <time>2022-04-11T12:18:56Z</time>
      </trkpt>
      <trkpt lat="49.94014" lon="2.20987">
        <ele>30.7</ele>
        <time>2022-04-11T12:18:57Z</time>
      </trkpt>
      <trkpt lat="49.94014" lon="2.20987">
        <ele>30.7</ele>
        <time>2022-04-11T12:18:58Z</time>
      </trkpt>
      <trkpt lat="49.94014" lon="2.20987">
        <ele>30.7</ele>
        <time>2022-04-11T12:18:59Z</time>
      </trkpt>
      <trkpt lat="49.94014" lon="2.20987">
        <ele>30.7</ele>
        <time>2022-04-11T12:19:00Z</time>
      </trkpt>
      <trkpt lat="49.94014" lon="2.20987">
        <ele>30.7</ele>
        <time>2022-04-11T12:19:01Z</time>
      </trkpt>
      <trkpt lat="49.94014" lon="2.20987">
        <ele>30.7</ele>
        <time>2022-04-11T12:19:02Z</time>
      </trkpt>
      <trkpt lat="49.94014" lon="2.20987">
        <ele>30.7</ele>
        <time>2022-04-11T12:19:03Z</time>
      </trkpt>
      <trkpt lat="49.94014" lon="2.20987">
        <ele>30.7</ele>
        <time>2022-04-11T12:19:04Z</time>
      </trkpt>
      <trkpt lat="49.94014" lon="2.20987">
        <ele>30.7</ele>
        <time>2022-04-11T12:19:05Z</time>
      </trkpt>
      <trkpt lat="49.94014" lon="2.20987">
        <ele>30.7</ele>
        <time>2022-04-11T12:19:06Z</time>
      </trkpt>
      <trkpt lat="49.94014" lon="2.20987">
        <ele>30.7</ele>
        <time>2022-04-11T12:19:07Z</time>
      </trkpt>
      <trkpt lat="49.94014" lon="2.20987">
        <ele>30.7</ele>
        <time>2022-04-11T12:19:08Z</time>
      </trkpt>
      <trkpt lat="49.94014" lon="2.20987">
        <ele>30.7</ele>
        <time>2022-04-11T12:19:09Z</time>
      </trkpt>
      <trkpt lat="49.94014" lon="2.20987">
        <ele>30.7</ele>
        <time>2022-04-11T12:19:10Z</time>
      </trkpt>
      <trkpt lat="49.94014" lon="2.20987">
        <ele>30.7</ele>
        <time>2022-04-11T12:19:11Z</time>
      </trkpt>
      <trkpt lat="49.94014" lon="2.20987">
        <ele>30.7</ele>
        <time>2022-04-11T12:19:12Z</time>
      </trkpt>
      <trkpt lat="49.94014" lon="2.20987">
        <ele>30.7</ele>
        <time>2022-04-11T12:19:13Z</time>
      </trkpt>
      <trkpt lat="49.94014" lon="2.20987">
        <ele>30.7</ele>
        <time>2022-04-11T12:19:14Z</time>
      </trkpt>
      <trkpt lat="49.94014" lon="2.20987">
        <ele>30.7</ele>
        <time>2022-04-11T12:19:15Z</time>
      </trkpt>
      <trkpt lat="49.94014" lon="2.20987">
        <ele>30.7</ele>
        <time>2022-04-11T12:19:16Z</time>
      </trkpt>
      <trkpt lat="49.94014" lon="2.20987">
        <ele>30.7</ele>
        <time>2022-04-11T12:19:17Z</time>
      </trkpt>
      <trkpt lat="49.94014" lon="2.20987">
        <ele>30.7</ele>
        <time>2022-04-11T12:19:18Z</time>
      </trkpt>
      <trkpt lat="49.94014" lon="2.20987">
        <ele>30.7</ele>
        <time>2022-04-11T12:19:19Z</time>
      </trkpt>
      <trkpt lat="49.94014" lon="2.20987">
        <ele>30.7</ele>
        <time>2022-04-11T12:19:20Z</time>
      </trkpt>
      <trkpt lat="49.94014" lon="2.20987">
        <ele>30.7</ele>
        <time>2022-04-11T12:19:21Z</time>
      </trkpt>
      <trkpt lat="49.94014" lon="2.20987">
        <ele>30.7</ele>
        <time>2022-04-11T12:19:22Z</time>
      </trkpt>
      <trkpt lat="49.94014" lon="2.20987">
        <ele>30.7</ele>
        <time>2022-04-11T12:19:23Z</time>
      </trkpt>
      <trkpt lat="49.94014" lon="2.20987">
        <ele>30.7</ele>
        <time>2022-04-11T12:19:24Z</time>
      </trkpt>
      <trkpt lat="49.94014" lon="2.20987">
        <ele>30.7</ele>
        <time>2022-04-11T12:19:25Z</time>
      </trkpt>
      <trkpt lat="49.94014" lon="2.20987">
        <ele>30.7</ele>
        <time>2022-04-11T12:19:26Z</time>
      </trkpt>
      <trkpt lat="49.94014" lon="2.20987">
        <ele>30.7</ele>
        <time>2022-04-11T12:19:27Z</time>
      </trkpt>
      <trkpt lat="49.94014" lon="2.20987">
        <ele>30.7</ele>
        <time>2022-04-11T12:19:28Z</time>
      </trkpt>
      <trkpt lat="49.94014" lon="2.20987">
        <ele>30.7</ele>
        <time>2022-04-11T12:19:29Z</time>
      </trkpt>
      <trkpt lat="49.94014" lon="2.20987">
        <ele>30.7</ele>
        <time>2022-04-11T12:19:30Z</time>
      </trkpt>
      <trkpt lat="49.94014" lon="2.20987">
        <ele>30.7</ele>
        <time>2022-04-11T12:19:31Z</time>
      </trkpt>
      <trkpt lat="49.94014" lon="2.20987">
        <ele>30.7</ele>
        <time>2022-04-11T12:19:32Z</time>
      </trkpt>
      <trkpt lat="49.94014" lon="2.20987">
        <ele>30.7</ele>
        <time>2022-04-11T12:19:33Z</time>
      </trkpt>
      <trkpt lat="49.94014" lon="2.20987">
        <ele>30.7</ele>
        <time>2022-04-11T12:19:34Z</time>
      </trkpt>
      <trkpt lat="49.94014" lon="2.20987">
        <ele>30.7</ele>
        <time>2022-04-11T12:19:35Z</time>
      </trkpt>
      <trkpt lat="49.94014" lon="2.20987">
        <ele>30.7</ele>
        <time>2022-04-11T12:19:36Z</time>
      </trkpt>
      <trkpt lat="49.94014" lon="2.20987">
        <ele>30.7</ele>
        <time>2022-04-11T12:19:37Z</time>
      </trkpt>
      <trkpt lat="49.94014" lon="2.20987">
        <ele>30.7</ele>
        <time>2022-04-11T12:19:38Z</time>
      </trkpt>
      <trkpt lat="49.94014" lon="2.20987">
        <ele>30.7</ele>
        <time>2022-04-11T12:19:39Z</time>
      </trkpt>
      <trkpt lat="49.94014" lon="2.20987">
        <ele>30.7</ele>
        <time>2022-04-11T12:19:40Z</time>
      </trkpt>
      <trkpt lat="49.94014" lon="2.20987">
        <ele>30.7</ele>
        <time>2022-04-11T12:19:41Z</time>
      </trkpt>
      <trkpt lat="49.94014" lon="2.20987">
        <ele>30.7</ele>
        <time>2022-04-11T12:19:42Z</time>
      </trkpt>
      <trkpt lat="49.94014" lon="2.20987">
        <ele>30.7</ele>
        <time>2022-04-11T12:19:43Z</time>
      </trkpt>
      <trkpt lat="49.94014" lon="2.20987">
        <ele>30.7</ele>
        <time>2022-04-11T12:19:44Z</time>
      </trkpt>
      <trkpt lat="49.94014" lon="2.20987">
        <ele>30.7</ele>
        <time>2022-04-11T12:19:45Z</time>
      </trkpt>
      <trkpt lat="49.94014" lon="2.20987">
        <ele>30.7</ele>
        <time>2022-04-11T12:19:46Z</time>
      </trkpt>
      <trkpt lat="49.94014" lon="2.20987">
        <ele>30.7</ele>
        <time>2022-04-11T12:19:47Z</time>
      </trkpt>
      <trkpt lat="49.94014" lon="2.20987">
        <ele>30.7</ele>
        <time>2022-04-11T12:19:48Z</time>
      </trkpt>
      <trkpt lat="49.94014" lon="2.20987">
        <ele>30.7</ele>
        <time>2022-04-11T12:19:49Z</time>
      </trkpt>
      <trkpt lat="49.94014" lon="2.20987">
        <ele>30.7</ele>
        <time>2022-04-11T12:19:50Z</time>
      </trkpt>
      <trkpt lat="49.94014" lon="2.20987">
        <ele>30.7</ele>
        <time>2022-04-11T12:19:51Z</time>
      </trkpt>
      <trkpt lat="49.94014" lon="2.20987">
        <ele>30.7</ele>
        <time>2022-04-11T12:19:52Z</time>
      </trkpt>
      <trkpt lat="49.94014" lon="2.20987">
        <ele>30.7</ele>
        <time>2022-04-11T12:19:53Z</time>
      </trkpt>
      <trkpt lat="49.94014" lon="2.20987">
        <ele>30.7</ele>
        <time>2022-04-11T12:19:54Z</time>
      </trkpt>
      <trkpt lat="49.94014" lon="2.20987">
        <ele>30.7</ele>
        <time>2022-04-11T12:19:55Z</time>
      </trkpt>
      <trkpt lat="49.94014" lon="2.20987">
        <ele>30.7</ele>
        <time>2022-04-11T12:19:56Z</time>
      </trkpt>
      <trkpt lat="49.94014" lon="2.20987">
        <ele>30.7</ele>
        <time>2022-04-11T12:19:57Z</time>
      </trkpt>
      <trkpt lat="49.94014" lon="2.20987">
        <ele>30.7</ele>
        <time>2022-04-11T12:19:58Z</time>
      </trkpt>
      <trkpt lat="49.94014" lon="2.20987">
        <ele>30.7</ele>
        <time>2022-04-11T12:19:59Z</time>
      </trkpt>
      <trkpt lat="49.94014" lon="2.20987">
        <ele>30.7</ele>
        <time>2022-04-11T12:20:00Z</time>
      </trkpt>
      <trkpt lat="49.94014" lon="2.20987">
        <ele>30.7</ele>
        <time>2022-04-11T12:20:01Z</time>
      </trkpt>
      <trkpt lat="49.94014" lon="2.20987">
        <ele>30.7</ele>
        <time>2022-04-11T12:20:02Z</time>
      </trkpt>
      <trkpt lat="49.94014" lon="2.20987">
        <ele>30.7</ele>
        <time>2022-04-11T12:20:03Z</time>
      </trkpt>
      <trkpt lat="49.94014" lon="2.20987">
        <ele>30.7</ele>
        <time>2022-04-11T12:20:04Z</time>
      </trkpt>
      <trkpt lat="49.94014" lon="2.20987">
        <ele>30.7</ele>
        <time>2022-04-11T12:20:05Z</time>
      </trkpt>
      <trkpt lat="49.94014" lon="2.20987">
        <ele>30.7</ele>
        <time>2022-04-11T12:20:06Z</time>
      </trkpt>
      <trkpt lat="49.94014" lon="2.20987">
        <ele>30.7</ele>
        <time>2022-04-11T12:20:07Z</time>
      </trkpt>
      <trkpt lat="49.94014" lon="2.20987">
        <ele>30.7</ele>
        <time>2022-04-11T12:20:08Z</time>
      </trkpt>
      <trkpt lat="49.94014" lon="2.20987">
        <ele>30.7</ele>
        <time>2022-04-11T12:20:09Z</time>
      </trkpt>
      <trkpt lat="49.94014" lon="2.20987">
        <ele>30.7</ele>
        <time>2022-04-11T12:20:10Z</time>
      </trkpt>
      <trkpt lat="49.94014" lon="2.20987">
        <ele>30.7</ele>
        <time>2022-04-11T12:20:11Z</time>
      </trkpt>
      <trkpt lat="49.94014" lon="2.20987">
        <ele>30.7</ele>
        <time>2022-04-11T12:20:12Z</time>
      </trkpt>
      <trkpt lat="49.94014" lon="2.20987">
        <ele>30.7</ele>
        <time>2022-04-11T12:20:13Z</time>
      </trkpt>
      <trkpt lat="49.94014" lon="2.20987">
        <ele>30.7</ele>
        <time>2022-04-11T12:20:14Z</time>
      </trkpt>
      <trkpt lat="49.94014" lon="2.20987">
        <ele>30.7</ele>
        <time>2022-04-11T12:20:15Z</time>
      </trkpt>
      <trkpt lat="49.94014" lon="2.20987">
        <ele>30.7</ele>
        <time>2022-04-11T12:20:16Z</time>
      </trkpt>
      <trkpt lat="49.94014" lon="2.20987">
        <ele>30.7</ele>
        <time>2022-04-11T12:20:17Z</time>
      </trkpt>
      <trkpt lat="49.94014" lon="2.20987">
        <ele>30.7</ele>
        <time>2022-04-11T12:20:18Z</time>
      </trkpt>
      <trkpt lat="49.94014" lon="2.20987">
        <ele>30.7</ele>
        <time>2022-04-11T12:20:19Z</time>
      </trkpt>
      <trkpt lat="49.94014" lon="2.20987">
        <ele>30.7</ele>
        <time>2022-04-11T12:20:20Z</time>
      </trkpt>
      <trkpt lat="49.94014" lon="2.20987">
        <ele>30.7</ele>
        <time>2022-04-11T12:20:21Z</time>
      </trkpt>
      <trkpt lat="49.94014" lon="2.20987">
        <ele>30.7</ele>
        <time>2022-04-11T12:20:22Z</time>
      </trkpt>
      <trkpt lat="49.94014" lon="2.20987">
        <ele>30.7</ele>
        <time>2022-04-11T12:20:23Z</time>
      </trkpt>
      <trkpt lat="49.94014" lon="2.20987">
        <ele>30.7</ele>
        <time>2022-04-11T12:20:24Z</time>
      </trkpt>
      <trkpt lat="49.94014" lon="2.20987">
        <ele>30.7</ele>
        <time>2022-04-11T12:20:25Z</time>
      </trkpt>
      <trkpt lat="49.94014" lon="2.20987">
        <ele>30.7</ele>
        <time>2022-04-11T12:20:26Z</time>
      </trkpt>
      <trkpt lat="49.94014" lon="2.20987">
        <ele>30.7</ele>
        <time>2022-04-11T12:20:27Z</time>
      </trkpt>
      <trkpt lat="49.94014" lon="2.20987">
        <ele>30.7</ele>
        <time>2022-04-11T12:20:28Z</time>
      </trkpt>
      <trkpt lat="49.94014" lon="2.20987">
        <ele>30.7</ele>
        <time>2022-04-11T12:20:29Z</time>
      </trkpt>
      <trkpt lat="49.94014" lon="2.20987">
        <ele>30.7</ele>
        <time>2022-04-11T12:20:30Z</time>
      </trkpt>
      <trkpt lat="49.94014" lon="2.20987">
        <ele>30.7</ele>
        <time>2022-04-11T12:20:31Z</time>
      </trkpt>
      <trkpt lat="49.94014" lon="2.20987">
        <ele>30.7</ele>
        <time>2022-04-11T12:20:32Z</time>
      </trkpt>
      <trkpt lat="49.94014" lon="2.20987">
        <ele>30.7</ele>
        <time>2022-04-11T12:20:33Z</time>
      </trkpt>
      <trkpt lat="49.94014" lon="2.20987">
        <ele>30.7</ele>
        <time>2022-04-11T12:20:34Z</time>
      </trkpt>
      <trkpt lat="49.94014" lon="2.20987">
        <ele>30.7</ele>
        <time>2022-04-11T12:20:35Z</time>
      </trkpt>
      <trkpt lat="49.94014" lon="2.20987">
        <ele>30.7</ele>
        <time>2022-04-11T12:20:36Z</time>
      </trkpt>
      <trkpt lat="49.94014" lon="2.20987">
        <ele>30.7</ele>
        <time>2022-04-11T12:20:37Z</time>
      </trkpt>
      <trkpt lat="49.94014" lon="2.20987">
        <ele>30.7</ele>
        <time>2022-04-11T12:20:38Z</time>
      </trkpt>
      <trkpt lat="49.94014" lon="2.20987">
        <ele>30.7</ele>
        <time>2022-04-11T12:20:39Z</time>
      </trkpt>
      <trkpt lat="49.94014" lon="2.20987">
        <ele>30.7</ele>
        <time>2022-04-11T12:20:40Z</time>
      </trkpt>
      <trkpt lat="49.94014" lon="2.20987">
        <ele>30.7</ele>
        <time>2022-04-11T12:20:41Z</time>
      </trkpt>
      <trkpt lat="49.94014" lon="2.20987">
        <ele>30.7</ele>
        <time>2022-04-11T12:20:42Z</time>
      </trkpt>
      <trkpt lat="49.94014" lon="2.20987">
        <ele>30.7</ele>
        <time>2022-04-11T12:20:43Z</time>
      </trkpt>
      <trkpt lat="49.94014" lon="2.20987">
        <ele>30.7</ele>
        <time>2022-04-11T12:20:44Z</time>
      </trkpt>
      <trkpt lat="49.94014" lon="2.20987">
        <ele>30.7</ele>
        <time>2022-04-11T12:20:45Z</time>
      </trkpt>
      <trkpt lat="49.94014" lon="2.20987">
        <ele>30.7</ele>
        <time>2022-04-11T12:20:46Z</time>
      </trkpt>
      <trkpt lat="49.94014" lon="2.20987">
        <ele>30.7</ele>
        <time>2022-04-11T12:20:47Z</time>
      </trkpt>
      <trkpt lat="49.94014" lon="2.20987">
        <ele>30.7</ele>
        <time>2022-04-11T12:20:48Z</time>
      </trkpt>
      <trkpt lat="49.94014" lon="2.20987">
        <ele>30.7</ele>
        <time>2022-04-11T12:20:49Z</time>
      </trkpt>
      <trkpt lat="49.94014" lon="2.20987">
        <ele>30.7</ele>
        <time>2022-04-11T12:20:50Z</time>
      </trkpt>
      <trkpt lat="49.94014" lon="2.20987">
        <ele>30.7</ele>
        <time>2022-04-11T12:20:51Z</time>
      </trkpt>
      <trkpt lat="49.94014" lon="2.20987">
        <ele>30.7</ele>
        <time>2022-04-11T12:20:52Z</time>
      </trkpt>
      <trkpt lat="49.94014" lon="2.20987">
        <ele>30.7</ele>
        <time>2022-04-11T12:20:53Z</time>
      </trkpt>
      <trkpt lat="49.94014" lon="2.20987">
        <ele>30.7</ele>
        <time>2022-04-11T12:20:54Z</time>
      </trkpt>
      <trkpt lat="49.94014" lon="2.20987">
        <ele>30.7</ele>
        <time>2022-04-11T12:20:55Z</time>
      </trkpt>
      <trkpt lat="49.94014" lon="2.20987">
        <ele>30.7</ele>
        <time>2022-04-11T12:20:56Z</time>
      </trkpt>
      <trkpt lat="49.94014" lon="2.20987">
        <ele>30.7</ele>
        <time>2022-04-11T12:20:57Z</time>
      </trkpt>
      <trkpt lat="49.94014" lon="2.20987">
        <ele>30.7</ele>
        <time>2022-04-11T12:20:58Z</time>
      </trkpt>
      <trkpt lat="49.94014" lon="2.20987">
        <ele>30.7</ele>
        <time>2022-04-11T12:20:59Z</time>
      </trkpt>
      <trkpt lat="49.94014" lon="2.20987">
        <ele>30.7</ele>
        <time>2022-04-11T12:21:00Z</time>
      </trkpt>
      <trkpt lat="49.94014" lon="2.20987">
        <ele>30.7</ele>
        <time>2022-04-11T12:21:01Z</time>
      </trkpt>
      <trkpt lat="49.94014" lon="2.20987">
        <ele>30.7</ele>
        <time>2022-04-11T12:21:02Z</time>
      </trkpt>
      <trkpt lat="49.94014" lon="2.20987">
        <ele>30.7</ele>
        <time>2022-04-11T12:21:03Z</time>
      </trkpt>
      <trkpt lat="49.94014" lon="2.20987">
        <ele>30.7</ele>
        <time>2022-04-11T12:21:04Z</time>
      </trkpt>
      <trkpt lat="49.94014" lon="2.20987">
        <ele>30.7</ele>
        <time>2022-04-11T12:21:05Z</time>
      </trkpt>
      <trkpt lat="49.94014" lon="2.20987">
        <ele>30.7</ele>
        <time>2022-04-11T12:21:06Z</time>
      </trkpt>
      <trkpt lat="49.94014" lon="2.20987">
        <ele>30.7</ele>
        <time>2022-04-11T12:21:07Z</time>
      </trkpt>
      <trkpt lat="49.94014" lon="2.20987">
        <ele>30.7</ele>
        <time>2022-04-11T12:21:08Z</time>
      </trkpt>
      <trkpt lat="49.94014" lon="2.20987">
        <ele>30.7</ele>
        <time>2022-04-11T12:21:09Z</time>
      </trkpt>
      <trkpt lat="49.94014" lon="2.20987">
        <ele>30.7</ele>
        <time>2022-04-11T12:21:10Z</time>
      </trkpt>
      <trkpt lat="49.94014" lon="2.20987">
        <ele>30.7</ele>
        <time>2022-04-11T12:21:11Z</time>
      </trkpt>
      <trkpt lat="49.94014" lon="2.20987">
        <ele>30.7</ele>
        <time>2022-04-11T12:21:12Z</time>
      </trkpt>
      <trkpt lat="49.94014" lon="2.20987">
        <ele>30.7</ele>
        <time>2022-04-11T12:21:13Z</time>
      </trkpt>
      <trkpt lat="49.94014" lon="2.20987">
        <ele>30.7</ele>
        <time>2022-04-11T12:21:14Z</time>
      </trkpt>
      <trkpt lat="49.94014" lon="2.20987">
        <ele>30.7</ele>
        <time>2022-04-11T12:21:15Z</time>
      </trkpt>
      <trkpt lat="49.94014" lon="2.20987">
        <ele>30.7</ele>
        <time>2022-04-11T12:21:16Z</time>
      </trkpt>
      <trkpt lat="49.94014" lon="2.20987">
        <ele>30.7</ele>
        <time>2022-04-11T12:21:17Z</time>
      </trkpt>
      <trkpt lat="49.94014" lon="2.20987">
        <ele>30.7</ele>
        <time>2022-04-11T12:21:18Z</time>
      </trkpt>
      <trkpt lat="49.94014" lon="2.20987">
        <ele>30.7</ele>
        <time>2022-04-11T12:21:19Z</time>
      </trkpt>
      <trkpt lat="49.94014" lon="2.20987">
        <ele>30.7</ele>
        <time>2022-04-11T12:21:20Z</time>
      </trkpt>
      <trkpt lat="49.94014" lon="2.20987">
        <ele>30.7</ele>
        <time>2022-04-11T12:21:21Z</time>
      </trkpt>
      <trkpt lat="49.94014" lon="2.20987">
        <ele>30.7</ele>
        <time>2022-04-11T12:21:22Z</time>
      </trkpt>
      <trkpt lat="49.94014" lon="2.20987">
        <ele>30.7</ele>
        <time>2022-04-11T12:21:23Z</time>
      </trkpt>
      <trkpt lat="49.94014" lon="2.20987">
        <ele>30.7</ele>
        <time>2022-04-11T12:21:24Z</time>
      </trkpt>
      <trkpt lat="49.94014" lon="2.20987">
        <ele>30.7</ele>
        <time>2022-04-11T12:21:25Z</time>
      </trkpt>
      <trkpt lat="49.94014" lon="2.20987">
        <ele>30.7</ele>
        <time>2022-04-11T12:21:26Z</time>
      </trkpt>
      <trkpt lat="49.94014" lon="2.20987">
        <ele>30.7</ele>
        <time>2022-04-11T12:21:27Z</time>
      </trkpt>
      <trkpt lat="49.94014" lon="2.20987">
        <ele>30.7</ele>
        <time>2022-04-11T12:21:28Z</time>
      </trkpt>
      <trkpt lat="49.94014" lon="2.20987">
        <ele>30.7</ele>
        <time>2022-04-11T12:21:29Z</time>
      </trkpt>
      <trkpt lat="49.94014" lon="2.20987">
        <ele>30.7</ele>
        <time>2022-04-11T12:21:30Z</time>
      </trkpt>
      <trkpt lat="49.94014" lon="2.20987">
        <ele>30.7</ele>
        <time>2022-04-11T12:21:31Z</time>
      </trkpt>
      <trkpt lat="49.94014" lon="2.20987">
        <ele>30.7</ele>
        <time>2022-04-11T12:21:32Z</time>
      </trkpt>
      <trkpt lat="49.94014" lon="2.20987">
        <ele>30.7</ele>
        <time>2022-04-11T12:21:33Z</time>
      </trkpt>
      <trkpt lat="49.94014" lon="2.20987">
        <ele>30.7</ele>
        <time>2022-04-11T12:21:34Z</time>
      </trkpt>
      <trkpt lat="49.94014" lon="2.20987">
        <ele>30.7</ele>
        <time>2022-04-11T12:21:35Z</time>
      </trkpt>
      <trkpt lat="49.94014" lon="2.20987">
        <ele>30.7</ele>
        <time>2022-04-11T12:21:36Z</time>
      </trkpt>
      <trkpt lat="49.94014" lon="2.20987">
        <ele>30.7</ele>
        <time>2022-04-11T12:21:37Z</time>
      </trkpt>
      <trkpt lat="49.94014" lon="2.20987">
        <ele>30.7</ele>
        <time>2022-04-11T12:21:38Z</time>
      </trkpt>
      <trkpt lat="49.94014" lon="2.20987">
        <ele>30.7</ele>
        <time>2022-04-11T12:21:39Z</time>
      </trkpt>
      <trkpt lat="49.94014" lon="2.20987">
        <ele>30.7</ele>
        <time>2022-04-11T12:21:40Z</time>
      </trkpt>
      <trkpt lat="49.94014" lon="2.20986">
        <ele>30.7</ele>
        <time>2022-04-11T12:21:41Z</time>
      </trkpt>
      <trkpt lat="49.94014" lon="2.20986">
        <ele>30.7</ele>
        <time>2022-04-11T12:21:42Z</time>
      </trkpt>
      <trkpt lat="49.94014" lon="2.20986">
        <ele>30.7</ele>
        <time>2022-04-11T12:21:43Z</time>
      </trkpt>
      <trkpt lat="49.94014" lon="2.20986">
        <ele>30.7</ele>
        <time>2022-04-11T12:21:44Z</time>
      </trkpt>
      <trkpt lat="49.94014" lon="2.20986">
        <ele>30.7</ele>
        <time>2022-04-11T12:21:45Z</time>
      </trkpt>
      <trkpt lat="49.94014" lon="2.20986">
        <ele>30.7</ele>
        <time>2022-04-11T12:21:46Z</time>
      </trkpt>
      <trkpt lat="49.94014" lon="2.20986">
        <ele>30.7</ele>
        <time>2022-04-11T12:21:47Z</time>
      </trkpt>
      <trkpt lat="49.94014" lon="2.20986">
        <ele>30.7</ele>
        <time>2022-04-11T12:21:48Z</time>
      </trkpt>
      <trkpt lat="49.94014" lon="2.20986">
        <ele>30.7</ele>
        <time>2022-04-11T12:21:49Z</time>
      </trkpt>
      <trkpt lat="49.94014" lon="2.20986">
        <ele>30.7</ele>
        <time>2022-04-11T12:21:50Z</time>
      </trkpt>
      <trkpt lat="49.94014" lon="2.20986">
        <ele>30.7</ele>
        <time>2022-04-11T12:21:51Z</time>
      </trkpt>
      <trkpt lat="49.94014" lon="2.20986">
        <ele>30.7</ele>
        <time>2022-04-11T12:21:52Z</time>
      </trkpt>
      <trkpt lat="49.94014" lon="2.20986">
        <ele>30.7</ele>
        <time>2022-04-11T12:21:53Z</time>
      </trkpt>
      <trkpt lat="49.94014" lon="2.20986">
        <ele>30.7</ele>
        <time>2022-04-11T12:21:54Z</time>
      </trkpt>
      <trkpt lat="49.94014" lon="2.20986">
        <ele>30.7</ele>
        <time>2022-04-11T12:21:55Z</time>
      </trkpt>
      <trkpt lat="49.94014" lon="2.20986">
        <ele>30.7</ele>
        <time>2022-04-11T12:21:56Z</time>
      </trkpt>
      <trkpt lat="49.94014" lon="2.20986">
        <ele>30.7</ele>
        <time>2022-04-11T12:21:57Z</time>
      </trkpt>
      <trkpt lat="49.94014" lon="2.20986">
        <ele>30.7</ele>
        <time>2022-04-11T12:21:58Z</time>
      </trkpt>
      <trkpt lat="49.94014" lon="2.20986">
        <ele>30.7</ele>
        <time>2022-04-11T12:21:59Z</time>
      </trkpt>
      <trkpt lat="49.94014" lon="2.20986">
        <ele>30.7</ele>
        <time>2022-04-11T12:22:00Z</time>
      </trkpt>
      <trkpt lat="49.94014" lon="2.20986">
        <ele>30.7</ele>
        <time>2022-04-11T12:22:01Z</time>
      </trkpt>
      <trkpt lat="49.94014" lon="2.20986">
        <ele>30.7</ele>
        <time>2022-04-11T12:22:02Z</time>
      </trkpt>
      <trkpt lat="49.94014" lon="2.20986">
        <ele>30.7</ele>
        <time>2022-04-11T12:22:03Z</time>
      </trkpt>
      <trkpt lat="49.94014" lon="2.20986">
        <ele>30.7</ele>
        <time>2022-04-11T12:22:04Z</time>
      </trkpt>
      <trkpt lat="49.94014" lon="2.20986">
        <ele>30.7</ele>
        <time>2022-04-11T12:22:05Z</time>
      </trkpt>
      <trkpt lat="49.94014" lon="2.20986">
        <ele>30.7</ele>
        <time>2022-04-11T12:22:06Z</time>
      </trkpt>
      <trkpt lat="49.94014" lon="2.20986">
        <ele>30.7</ele>
        <time>2022-04-11T12:22:07Z</time>
      </trkpt>
      <trkpt lat="49.94014" lon="2.20986">
        <ele>30.7</ele>
        <time>2022-04-11T12:22:08Z</time>
      </trkpt>
      <trkpt lat="49.94014" lon="2.20986">
        <ele>30.7</ele>
        <time>2022-04-11T12:22:09Z</time>
      </trkpt>
      <trkpt lat="49.94014" lon="2.20986">
        <ele>30.6</ele>
        <time>2022-04-11T12:22:10Z</time>
      </trkpt>
      <trkpt lat="49.94014" lon="2.20986">
        <ele>30.6</ele>
        <time>2022-04-11T12:22:11Z</time>
      </trkpt>
      <trkpt lat="49.94014" lon="2.20986">
        <ele>30.6</ele>
        <time>2022-04-11T12:22:12Z</time>
      </trkpt>
      <trkpt lat="49.94014" lon="2.20986">
        <ele>30.6</ele>
        <time>2022-04-11T12:22:13Z</time>
      </trkpt>
      <trkpt lat="49.94014" lon="2.20986">
        <ele>30.6</ele>
        <time>2022-04-11T12:22:14Z</time>
      </trkpt>
      <trkpt lat="49.94014" lon="2.20986">
        <ele>30.6</ele>
        <time>2022-04-11T12:22:15Z</time>
      </trkpt>
      <trkpt lat="49.94014" lon="2.20986">
        <ele>30.6</ele>
        <time>2022-04-11T12:22:16Z</time>
      </trkpt>
      <trkpt lat="49.94014" lon="2.20986">
        <ele>30.5</ele>
        <time>2022-04-11T12:22:17Z</time>
      </trkpt>
      <trkpt lat="49.94014" lon="2.20986">
        <ele>30.5</ele>
        <time>2022-04-11T12:22:18Z</time>
      </trkpt>
      <trkpt lat="49.94014" lon="2.20986">
        <ele>30.5</ele>
        <time>2022-04-11T12:22:19Z</time>
      </trkpt>
      <trkpt lat="49.94014" lon="2.20986">
        <ele>30.5</ele>
        <time>2022-04-11T12:22:20Z</time>
      </trkpt>
      <trkpt lat="49.94014" lon="2.20986">
        <ele>30.5</ele>
        <time>2022-04-11T12:22:21Z</time>
      </trkpt>
      <trkpt lat="49.94014" lon="2.20986">
        <ele>30.5</ele>
        <time>2022-04-11T12:22:22Z</time>
      </trkpt>
      <trkpt lat="49.94014" lon="2.20986">
        <ele>30.4</ele>
        <time>2022-04-11T12:22:23Z</time>
      </trkpt>
      <trkpt lat="49.94014" lon="2.20986">
        <ele>30.4</ele>
        <time>2022-04-11T12:22:24Z</time>
      </trkpt>
      <trkpt lat="49.94014" lon="2.20986">
        <ele>30.4</ele>
        <time>2022-04-11T12:22:25Z</time>
      </trkpt>
      <trkpt lat="49.94014" lon="2.20986">
        <ele>30.4</ele>
        <time>2022-04-11T12:22:26Z</time>
      </trkpt>
      <trkpt lat="49.94014" lon="2.20986">
        <ele>30.4</ele>
        <time>2022-04-11T12:22:27Z</time>
      </trkpt>
      <trkpt lat="49.94014" lon="2.20986">
        <ele>30.4</ele>
        <time>2022-04-11T12:22:28Z</time>
      </trkpt>
      <trkpt lat="49.94014" lon="2.20986">
        <ele>30.4</ele>
        <time>2022-04-11T12:22:29Z</time>
      </trkpt>
      <trkpt lat="49.94014" lon="2.20986">
        <ele>30.3</ele>
        <time>2022-04-11T12:22:30Z</time>
      </trkpt>
      <trkpt lat="49.94014" lon="2.20986">
        <ele>30.3</ele>
        <time>2022-04-11T12:22:31Z</time>
      </trkpt>
      <trkpt lat="49.94014" lon="2.20986">
        <ele>30.3</ele>
        <time>2022-04-11T12:22:32Z</time>
      </trkpt>
      <trkpt lat="49.94014" lon="2.20986">
        <ele>30.3</ele>
        <time>2022-04-11T12:22:33Z</time>
      </trkpt>
      <trkpt lat="49.94014" lon="2.20986">
        <ele>30.3</ele>
        <time>2022-04-11T12:22:34Z</time>
      </trkpt>
      <trkpt lat="49.94014" lon="2.20986">
        <ele>30.3</ele>
        <time>2022-04-11T12:22:35Z</time>
      </trkpt>
      <trkpt lat="49.94014" lon="2.20986">
        <ele>30.3</ele>
        <time>2022-04-11T12:22:36Z</time>
      </trkpt>
      <trkpt lat="49.94014" lon="2.20986">
        <ele>30.2</ele>
        <time>2022-04-11T12:22:37Z</time>
      </trkpt>
      <trkpt lat="49.94014" lon="2.20986">
        <ele>30.2</ele>
        <time>2022-04-11T12:22:38Z</time>
      </trkpt>
      <trkpt lat="49.94014" lon="2.20986">
        <ele>30.2</ele>
        <time>2022-04-11T12:22:39Z</time>
      </trkpt>
      <trkpt lat="49.94014" lon="2.20986">
        <ele>30.2</ele>
        <time>2022-04-11T12:22:40Z</time>
      </trkpt>
      <trkpt lat="49.94014" lon="2.20986">
        <ele>30.2</ele>
        <time>2022-04-11T12:22:41Z</time>
      </trkpt>
      <trkpt lat="49.94014" lon="2.20986">
        <ele>30.2</ele>
        <time>2022-04-11T12:22:42Z</time>
      </trkpt>
      <trkpt lat="49.94014" lon="2.20986">
        <ele>30.1</ele>
        <time>2022-04-11T12:22:43Z</time>
      </trkpt>
      <trkpt lat="49.94014" lon="2.20986">
        <ele>30.1</ele>
        <time>2022-04-11T12:22:44Z</time>
      </trkpt>
      <trkpt lat="49.94014" lon="2.20986">
        <ele>30.1</ele>
        <time>2022-04-11T12:22:45Z</time>
      </trkpt>
      <trkpt lat="49.94014" lon="2.20986">
        <ele>30.1</ele>
        <time>2022-04-11T12:22:46Z</time>
      </trkpt>
      <trkpt lat="49.94014" lon="2.20986">
        <ele>30.1</ele>
        <time>2022-04-11T12:22:47Z</time>
      </trkpt>
      <trkpt lat="49.94014" lon="2.20986">
        <ele>30.1</ele>
        <time>2022-04-11T12:22:48Z</time>
      </trkpt>
      <trkpt lat="49.94014" lon="2.20986">
        <ele>30.1</ele>
        <time>2022-04-11T12:22:49Z</time>
      </trkpt>
      <trkpt lat="49.94014" lon="2.20986">
        <ele>30</ele>
        <time>2022-04-11T12:22:50Z</time>
      </trkpt>
      <trkpt lat="49.94014" lon="2.20986">
        <ele>30</ele>
        <time>2022-04-11T12:22:51Z</time>
      </trkpt>
      <trkpt lat="49.94014" lon="2.20986">
        <ele>30</ele>
        <time>2022-04-11T12:22:52Z</time>
      </trkpt>
      <trkpt lat="49.94014" lon="2.20986">
        <ele>30</ele>
        <time>2022-04-11T12:22:53Z</time>
      </trkpt>
      <trkpt lat="49.94014" lon="2.20986">
        <ele>30</ele>
        <time>2022-04-11T12:22:54Z</time>
      </trkpt>
      <trkpt lat="49.94014" lon="2.20986">
        <ele>30</ele>
        <time>2022-04-11T12:22:55Z</time>
      </trkpt>
      <trkpt lat="49.94014" lon="2.20986">
        <ele>30</ele>
        <time>2022-04-11T12:22:56Z</time>
      </trkpt>
      <trkpt lat="49.94014" lon="2.20986">
        <ele>29.9</ele>
        <time>2022-04-11T12:22:57Z</time>
      </trkpt>
      <trkpt lat="49.94014" lon="2.20986">
        <ele>29.9</ele>
        <time>2022-04-11T12:22:58Z</time>
      </trkpt>
      <trkpt lat="49.94014" lon="2.20986">
        <ele>29.9</ele>
        <time>2022-04-11T12:22:59Z</time>
      </trkpt>
      <trkpt lat="49.94014" lon="2.20986">
        <ele>29.9</ele>
        <time>2022-04-11T12:23:00Z</time>
      </trkpt>
      <trkpt lat="49.94014" lon="2.20986">
        <ele>29.9</ele>
        <time>2022-04-11T12:23:01Z</time>
      </trkpt>
      <trkpt lat="49.94014" lon="2.20986">
        <ele>29.9</ele>
        <time>2022-04-11T12:23:02Z</time>
      </trkpt>
      <trkpt lat="49.94014" lon="2.20986">
        <ele>29.8</ele>
        <time>2022-04-11T12:23:03Z</time>
      </trkpt>
      <trkpt lat="49.94014" lon="2.20986">
        <ele>29.8</ele>
        <time>2022-04-11T12:23:04Z</time>
      </trkpt>
      <trkpt lat="49.94014" lon="2.20986">
        <ele>29.8</ele>
        <time>2022-04-11T12:23:05Z</time>
      </trkpt>
      <trkpt lat="49.94014" lon="2.20986">
        <ele>29.8</ele>
        <time>2022-04-11T12:23:06Z</time>
      </trkpt>
      <trkpt lat="49.94014" lon="2.20986">
        <ele>29.8</ele>
        <time>2022-04-11T12:23:07Z</time>
      </trkpt>
      <trkpt lat="49.94014" lon="2.20986">
        <ele>29.8</ele>
        <time>2022-04-11T12:23:08Z</time>
      </trkpt>
      <trkpt lat="49.94014" lon="2.20986">
        <ele>29.8</ele>
        <time>2022-04-11T12:23:09Z</time>
      </trkpt>
      <trkpt lat="49.94014" lon="2.20986">
        <ele>29.7</ele>
        <time>2022-04-11T12:23:10Z</time>
      </trkpt>
      <trkpt lat="49.94014" lon="2.20986">
        <ele>29.7</ele>
        <time>2022-04-11T12:23:11Z</time>
      </trkpt>
      <trkpt lat="49.94014" lon="2.20986">
        <ele>29.7</ele>
        <time>2022-04-11T12:23:12Z</time>
      </trkpt>
      <trkpt lat="49.94014" lon="2.20986">
        <ele>29.7</ele>
        <time>2022-04-11T12:23:13Z</time>
      </trkpt>
      <trkpt lat="49.94014" lon="2.20986">
        <ele>29.7</ele>
        <time>2022-04-11T12:23:14Z</time>
      </trkpt>
      <trkpt lat="49.94014" lon="2.20986">
        <ele>29.7</ele>
        <time>2022-04-11T12:23:15Z</time>
      </trkpt>
      <trkpt lat="49.94014" lon="2.20986">
        <ele>29.7</ele>
        <time>2022-04-11T12:23:16Z</time>
      </trkpt>
      <trkpt lat="49.94014" lon="2.20986">
        <ele>29.6</ele>
        <time>2022-04-11T12:23:17Z</time>
      </trkpt>
      <trkpt lat="49.94014" lon="2.20986">
        <ele>29.6</ele>
        <time>2022-04-11T12:23:18Z</time>
      </trkpt>
      <trkpt lat="49.94014" lon="2.20986">
        <ele>29.6</ele>
        <time>2022-04-11T12:23:19Z</time>
      </trkpt>
      <trkpt lat="49.94014" lon="2.20986">
        <ele>29.6</ele>
        <time>2022-04-11T12:23:20Z</time>
      </trkpt>
      <trkpt lat="49.94014" lon="2.20986">
        <ele>29.6</ele>
        <time>2022-04-11T12:23:21Z</time>
      </trkpt>
      <trkpt lat="49.94014" lon="2.20986">
        <ele>29.6</ele>
        <time>2022-04-11T12:23:22Z</time>
      </trkpt>
      <trkpt lat="49.94014" lon="2.20986">
        <ele>29.5</ele>
        <time>2022-04-11T12:23:23Z</time>
      </trkpt>
      <trkpt lat="49.94014" lon="2.20986">
        <ele>29.5</ele>
        <time>2022-04-11T12:23:24Z</time>
      </trkpt>
      <trkpt lat="49.94014" lon="2.20986">
        <ele>29.5</ele>
        <time>2022-04-11T12:23:25Z</time>
      </trkpt>
      <trkpt lat="49.94014" lon="2.20986">
        <ele>29.5</ele>
        <time>2022-04-11T12:23:26Z</time>
      </trkpt>
      <trkpt lat="49.94014" lon="2.20986">
        <ele>29.5</ele>
        <time>2022-04-11T12:23:27Z</time>
      </trkpt>
      <trkpt lat="49.94014" lon="2.20986">
        <ele>29.5</ele>
        <time>2022-04-11T12:23:28Z</time>
      </trkpt>
      <trkpt lat="49.94014" lon="2.20986">
        <ele>29.5</ele>
        <time>2022-04-11T12:23:29Z</time>
      </trkpt>
      <trkpt lat="49.94014" lon="2.20986">
        <ele>29.4</ele>
        <time>2022-04-11T12:23:30Z</time>
      </trkpt>
      <trkpt lat="49.94014" lon="2.20986">
        <ele>29.4</ele>
        <time>2022-04-11T12:23:31Z</time>
      </trkpt>
      <trkpt lat="49.94014" lon="2.20986">
        <ele>29.4</ele>
        <time>2022-04-11T12:23:32Z</time>
      </trkpt>
      <trkpt lat="49.94014" lon="2.20986">
        <ele>29.4</ele>
        <time>2022-04-11T12:23:33Z</time>
      </trkpt>
      <trkpt lat="49.94014" lon="2.20986">
        <ele>29.4</ele>
        <time>2022-04-11T12:23:34Z</time>
      </trkpt>
      <trkpt lat="49.94014" lon="2.20986">
        <ele>29.4</ele>
        <time>2022-04-11T12:23:35Z</time>
      </trkpt>
      <trkpt lat="49.94014" lon="2.20986">
        <ele>29.4</ele>
        <time>2022-04-11T12:23:36Z</time>
      </trkpt>
      <trkpt lat="49.94014" lon="2.20986">
        <ele>29.3</ele>
        <time>2022-04-11T12:23:37Z</time>
      </trkpt>
      <trkpt lat="49.94014" lon="2.20986">
        <ele>29.3</ele>
        <time>2022-04-11T12:23:38Z</time>
      </trkpt>
      <trkpt lat="49.94014" lon="2.20986">
        <ele>29.3</ele>
        <time>2022-04-11T12:23:39Z</time>
      </trkpt>
      <trkpt lat="49.94014" lon="2.20986">
        <ele>29.3</ele>
        <time>2022-04-11T12:23:40Z</time>
      </trkpt>
      <trkpt lat="49.94014" lon="2.20986">
        <ele>29.3</ele>
        <time>2022-04-11T12:23:41Z</time>
      </trkpt>
      <trkpt lat="49.94014" lon="2.20986">
        <ele>29.3</ele>
        <time>2022-04-11T12:23:42Z</time>
      </trkpt>
      <trkpt lat="49.94014" lon="2.20986">
        <ele>29.2</ele>
        <time>2022-04-11T12:23:43Z</time>
      </trkpt>
      <trkpt lat="49.94014" lon="2.20986">
        <ele>29.2</ele>
        <time>2022-04-11T12:23:44Z</time>
      </trkpt>
      <trkpt lat="49.94014" lon="2.20986">
        <ele>29.2</ele>
        <time>2022-04-11T12:23:45Z</time>
      </trkpt>
      <trkpt lat="49.94014" lon="2.20986">
        <ele>29.2</ele>
        <time>2022-04-11T12:23:46Z</time>
      </trkpt>
      <trkpt lat="49.94014" lon="2.20986">
        <ele>29.2</ele>
        <time>2022-04-11T12:23:47Z</time>
      </trkpt>
      <trkpt lat="49.94014" lon="2.20986">
        <ele>29.2</ele>
        <time>2022-04-11T12:23:48Z</time>
      </trkpt>
      <trkpt lat="49.94014" lon="2.20986">
        <ele>29.2</ele>
        <time>2022-04-11T12:23:49Z</time>
      </trkpt>
      <trkpt lat="49.94014" lon="2.20986">
        <ele>29.2</ele>
        <time>2022-04-11T12:23:50Z</time>
      </trkpt>
      <trkpt lat="49.94014" lon="2.20986">
        <ele>29.2</ele>
        <time>2022-04-11T12:23:51Z</time>
      </trkpt>
      <trkpt lat="49.94014" lon="2.20986">
        <ele>29.2</ele>
        <time>2022-04-11T12:23:52Z</time>
      </trkpt>
      <trkpt lat="49.94014" lon="2.20986">
        <ele>29.2</ele>
        <time>2022-04-11T12:23:53Z</time>
      </trkpt>
      <trkpt lat="49.94014" lon="2.20986">
        <ele>29.2</ele>
        <time>2022-04-11T12:23:54Z</time>
      </trkpt>
      <trkpt lat="49.94014" lon="2.20986">
        <ele>29.2</ele>
        <time>2022-04-11T12:23:55Z</time>
      </trkpt>
      <trkpt lat="49.94014" lon="2.20986">
        <ele>29.2</ele>
        <time>2022-04-11T12:23:56Z</time>
      </trkpt>
      <trkpt lat="49.94014" lon="2.20986">
        <ele>29.2</ele>
        <time>2022-04-11T12:23:57Z</time>
      </trkpt>
      <trkpt lat="49.94014" lon="2.20986">
        <ele>29.2</ele>
        <time>2022-04-11T12:23:58Z</time>
      </trkpt>
      <trkpt lat="49.94014" lon="2.20986">
        <ele>29.2</ele>
        <time>2022-04-11T12:23:59Z</time>
      </trkpt>
      <trkpt lat="49.94014" lon="2.20986">
        <ele>29.2</ele>
        <time>2022-04-11T12:24:00Z</time>
      </trkpt>
      <trkpt lat="49.94014" lon="2.20986">
        <ele>29.2</ele>
        <time>2022-04-11T12:24:01Z</time>
      </trkpt>
      <trkpt lat="49.94014" lon="2.20986">
        <ele>29.2</ele>
        <time>2022-04-11T12:24:02Z</time>
      </trkpt>
      <trkpt lat="49.94014" lon="2.20986">
        <ele>29.2</ele>
        <time>2022-04-11T12:24:03Z</time>
      </trkpt>
      <trkpt lat="49.94014" lon="2.20986">
        <ele>29.2</ele>
        <time>2022-04-11T12:24:04Z</time>
      </trkpt>
      <trkpt lat="49.94014" lon="2.20986">
        <ele>29.2</ele>
        <time>2022-04-11T12:24:05Z</time>
      </trkpt>
      <trkpt lat="49.94014" lon="2.20986">
        <ele>29.2</ele>
        <time>2022-04-11T12:24:06Z</time>
      </trkpt>
      <trkpt lat="49.94014" lon="2.20986">
        <ele>29.2</ele>
        <time>2022-04-11T12:24:07Z</time>
      </trkpt>
      <trkpt lat="49.94014" lon="2.20986">
        <ele>29.2</ele>
        <time>2022-04-11T12:24:08Z</time>
      </trkpt>
      <trkpt lat="49.94014" lon="2.20986">
        <ele>29.2</ele>
        <time>2022-04-11T12:24:09Z</time>
      </trkpt>
      <trkpt lat="49.94014" lon="2.20986">
        <ele>29.2</ele>
        <time>2022-04-11T12:24:10Z</time>
      </trkpt>
      <trkpt lat="49.94014" lon="2.20986">
        <ele>29.2</ele>
        <time>2022-04-11T12:24:11Z</time>
      </trkpt>
      <trkpt lat="49.94014" lon="2.20986">
        <ele>29.2</ele>
        <time>2022-04-11T12:24:12Z</time>
      </trkpt>
      <trkpt lat="49.94014" lon="2.20986">
        <ele>29.2</ele>
        <time>2022-04-11T12:24:13Z</time>
      </trkpt>
      <trkpt lat="49.94014" lon="2.20986">
        <ele>29.2</ele>
        <time>2022-04-11T12:24:14Z</time>
      </trkpt>
      <trkpt lat="49.94014" lon="2.20986">
        <ele>29.2</ele>
        <time>2022-04-11T12:24:15Z</time>
      </trkpt>
      <trkpt lat="49.94014" lon="2.20986">
        <ele>29.2</ele>
        <time>2022-04-11T12:24:16Z</time>
      </trkpt>
      <trkpt lat="49.94014" lon="2.20986">
        <ele>29.2</ele>
        <time>2022-04-11T12:24:17Z</time>
      </trkpt>
      <trkpt lat="49.94014" lon="2.20986">
        <ele>29.2</ele>
        <time>2022-04-11T12:24:18Z</time>
      </trkpt>
      <trkpt lat="49.94014" lon="2.20986">
        <ele>29.2</ele>
        <time>2022-04-11T12:24:19Z</time>
      </trkpt>
      <trkpt lat="49.94014" lon="2.20986">
        <ele>29.2</ele>
        <time>2022-04-11T12:24:20Z</time>
      </trkpt>
      <trkpt lat="49.94014" lon="2.20986">
        <ele>29.2</ele>
        <time>2022-04-11T12:24:21Z</time>
      </trkpt>
      <trkpt lat="49.94014" lon="2.20986">
        <ele>29.2</ele>
        <time>2022-04-11T12:24:22Z</time>
      </trkpt>
      <trkpt lat="49.94014" lon="2.20986">
        <ele>29.2</ele>
        <time>2022-04-11T12:24:23Z</time>
      </trkpt>
      <trkpt lat="49.94014" lon="2.20986">
        <ele>29.2</ele>
        <time>2022-04-11T12:24:24Z</time>
      </trkpt>
      <trkpt lat="49.94014" lon="2.20986">
        <ele>29.2</ele>
        <time>2022-04-11T12:24:25Z</time>
      </trkpt>
      <trkpt lat="49.94014" lon="2.20986">
        <ele>29.2</ele>
        <time>2022-04-11T12:24:26Z</time>
      </trkpt>
      <trkpt lat="49.94014" lon="2.20986">
        <ele>29.2</ele>
        <time>2022-04-11T12:24:27Z</time>
      </trkpt>
      <trkpt lat="49.94014" lon="2.20986">
        <ele>29.2</ele>
        <time>2022-04-11T12:24:28Z</time>
      </trkpt>
      <trkpt lat="49.94014" lon="2.20986">
        <ele>29.2</ele>
        <time>2022-04-11T12:24:29Z</time>
      </trkpt>
      <trkpt lat="49.94014" lon="2.20986">
        <ele>29.2</ele>
        <time>2022-04-11T12:24:30Z</time>
      </trkpt>
      <trkpt lat="49.94014" lon="2.20986">
        <ele>29.2</ele>
        <time>2022-04-11T12:24:31Z</time>
      </trkpt>
      <trkpt lat="49.94014" lon="2.20986">
        <ele>29.2</ele>
        <time>2022-04-11T12:24:32Z</time>
      </trkpt>
      <trkpt lat="49.94014" lon="2.20986">
        <ele>29.2</ele>
        <time>2022-04-11T12:24:33Z</time>
      </trkpt>
      <trkpt lat="49.94014" lon="2.20986">
        <ele>29.2</ele>
        <time>2022-04-11T12:24:34Z</time>
      </trkpt>
      <trkpt lat="49.94014" lon="2.20986">
        <ele>29.2</ele>
        <time>2022-04-11T12:24:35Z</time>
      </trkpt>
      <trkpt lat="49.94014" lon="2.20986">
        <ele>29.2</ele>
        <time>2022-04-11T12:24:36Z</time>
      </trkpt>
      <trkpt lat="49.94014" lon="2.20986">
        <ele>29.2</ele>
        <time>2022-04-11T12:24:37Z</time>
      </trkpt>
      <trkpt lat="49.94014" lon="2.20986">
        <ele>29.2</ele>
        <time>2022-04-11T12:24:38Z</time>
      </trkpt>
      <trkpt lat="49.94014" lon="2.20986">
        <ele>29.2</ele>
        <time>2022-04-11T12:24:39Z</time>
      </trkpt>
      <trkpt lat="49.94014" lon="2.20986">
        <ele>29.2</ele>
        <time>2022-04-11T12:24:40Z</time>
      </trkpt>
      <trkpt lat="49.94014" lon="2.20986">
        <ele>29.2</ele>
        <time>2022-04-11T12:24:41Z</time>
      </trkpt>
      <trkpt lat="49.94014" lon="2.20986">
        <ele>29.2</ele>
        <time>2022-04-11T12:24:42Z</time>
      </trkpt>
      <trkpt lat="49.94014" lon="2.20986">
        <ele>29.2</ele>
        <time>2022-04-11T12:24:43Z</time>
      </trkpt>
      <trkpt lat="49.94014" lon="2.20986">
        <ele>29.2</ele>
        <time>2022-04-11T12:24:44Z</time>
      </trkpt>
      <trkpt lat="49.94014" lon="2.20986">
        <ele>29.2</ele>
        <time>2022-04-11T12:24:45Z</time>
      </trkpt>
      <trkpt lat="49.94014" lon="2.20986">
        <ele>29.2</ele>
        <time>2022-04-11T12:24:46Z</time>
      </trkpt>
      <trkpt lat="49.94014" lon="2.20986">
        <ele>29.2</ele>
        <time>2022-04-11T12:24:47Z</time>
      </trkpt>
      <trkpt lat="49.94014" lon="2.20986">
        <ele>29.2</ele>
        <time>2022-04-11T12:24:48Z</time>
      </trkpt>
      <trkpt lat="49.94014" lon="2.20986">
        <ele>29.2</ele>
        <time>2022-04-11T12:24:49Z</time>
      </trkpt>
      <trkpt lat="49.94014" lon="2.20986">
        <ele>29.2</ele>
        <time>2022-04-11T12:24:50Z</time>
      </trkpt>
      <trkpt lat="49.94014" lon="2.20986">
        <ele>29.2</ele>
        <time>2022-04-11T12:24:51Z</time>
      </trkpt>
      <trkpt lat="49.94014" lon="2.20986">
        <ele>29.2</ele>
        <time>2022-04-11T12:24:52Z</time>
      </trkpt>
      <trkpt lat="49.94014" lon="2.20986">
        <ele>29.2</ele>
        <time>2022-04-11T12:24:53Z</time>
      </trkpt>
      <trkpt lat="49.94014" lon="2.20986">
        <ele>29.2</ele>
        <time>2022-04-11T12:24:54Z</time>
      </trkpt>
      <trkpt lat="49.94014" lon="2.20986">
        <ele>29.2</ele>
        <time>2022-04-11T12:24:55Z</time>
      </trkpt>
      <trkpt lat="49.94014" lon="2.20986">
        <ele>29.2</ele>
        <time>2022-04-11T12:24:56Z</time>
      </trkpt>
      <trkpt lat="49.94014" lon="2.20986">
        <ele>29.2</ele>
        <time>2022-04-11T12:24:57Z</time>
      </trkpt>
      <trkpt lat="49.94014" lon="2.20986">
        <ele>29.2</ele>
        <time>2022-04-11T12:24:58Z</time>
      </trkpt>
      <trkpt lat="49.94014" lon="2.20986">
        <ele>29.2</ele>
        <time>2022-04-11T12:24:59Z</time>
      </trkpt>
      <trkpt lat="49.94014" lon="2.20986">
        <ele>29.2</ele>
        <time>2022-04-11T12:25:00Z</time>
      </trkpt>
      <trkpt lat="49.94014" lon="2.20986">
        <ele>29.2</ele>
        <time>2022-04-11T12:25:01Z</time>
      </trkpt>
      <trkpt lat="49.94015" lon="2.20986">
        <ele>29.2</ele>
        <time>2022-04-11T12:25:02Z</time>
      </trkpt>
      <trkpt lat="49.94015" lon="2.20986">
        <ele>29.2</ele>
        <time>2022-04-11T12:25:03Z</time>
      </trkpt>
      <trkpt lat="49.94015" lon="2.20986">
        <ele>29.2</ele>
        <time>2022-04-11T12:25:04Z</time>
      </trkpt>
      <trkpt lat="49.94015" lon="2.20986">
        <ele>29.2</ele>
        <time>2022-04-11T12:25:05Z</time>
      </trkpt>
      <trkpt lat="49.94015" lon="2.20986">
        <ele>29.2</ele>
        <time>2022-04-11T12:25:06Z</time>
      </trkpt>
      <trkpt lat="49.94015" lon="2.20986">
        <ele>29.2</ele>
        <time>2022-04-11T12:25:07Z</time>
      </trkpt>
      <trkpt lat="49.94015" lon="2.20986">
        <ele>29.2</ele>
        <time>2022-04-11T12:25:08Z</time>
      </trkpt>
      <trkpt lat="49.94015" lon="2.20986">
        <ele>29.2</ele>
        <time>2022-04-11T12:25:09Z</time>
      </trkpt>
      <trkpt lat="49.94015" lon="2.20986">
        <ele>29.2</ele>
        <time>2022-04-11T12:25:10Z</time>
      </trkpt>
      <trkpt lat="49.94015" lon="2.20986">
        <ele>29.2</ele>
        <time>2022-04-11T12:25:11Z</time>
      </trkpt>
      <trkpt lat="49.94015" lon="2.20986">
        <ele>29.2</ele>
        <time>2022-04-11T12:25:12Z</time>
      </trkpt>
      <trkpt lat="49.94015" lon="2.20986">
        <ele>29.2</ele>
        <time>2022-04-11T12:25:13Z</time>
      </trkpt>
      <trkpt lat="49.94015" lon="2.20986">
        <ele>29.2</ele>
        <time>2022-04-11T12:25:14Z</time>
      </trkpt>
      <trkpt lat="49.94015" lon="2.20986">
        <ele>29.2</ele>
        <time>2022-04-11T12:25:15Z</time>
      </trkpt>
      <trkpt lat="49.94015" lon="2.20986">
        <ele>29.2</ele>
        <time>2022-04-11T12:25:16Z</time>
      </trkpt>
      <trkpt lat="49.94015" lon="2.20986">
        <ele>29.2</ele>
        <time>2022-04-11T12:25:17Z</time>
      </trkpt>
      <trkpt lat="49.94015" lon="2.20986">
        <ele>29.2</ele>
        <time>2022-04-11T12:25:18Z</time>
      </trkpt>
      <trkpt lat="49.94015" lon="2.20986">
        <ele>29.2</ele>
        <time>2022-04-11T12:25:19Z</time>
      </trkpt>
      <trkpt lat="49.94015" lon="2.20986">
        <ele>29.2</ele>
        <time>2022-04-11T12:25:20Z</time>
      </trkpt>
      <trkpt lat="49.94015" lon="2.20986">
        <ele>29.2</ele>
        <time>2022-04-11T12:25:21Z</time>
      </trkpt>
      <trkpt lat="49.94015" lon="2.20986">
        <ele>29.2</ele>
        <time>2022-04-11T12:25:22Z</time>
      </trkpt>
      <trkpt lat="49.94015" lon="2.20986">
        <ele>29.2</ele>
        <time>2022-04-11T12:25:23Z</time>
      </trkpt>
      <trkpt lat="49.94015" lon="2.20986">
        <ele>29.2</ele>
        <time>2022-04-11T12:25:24Z</time>
      </trkpt>
      <trkpt lat="49.94015" lon="2.20986">
        <ele>29.2</ele>
        <time>2022-04-11T12:25:25Z</time>
      </trkpt>
      <trkpt lat="49.94015" lon="2.20986">
        <ele>29.2</ele>
        <time>2022-04-11T12:25:26Z</time>
      </trkpt>
      <trkpt lat="49.94015" lon="2.20986">
        <ele>29.2</ele>
        <time>2022-04-11T12:25:27Z</time>
      </trkpt>
      <trkpt lat="49.94015" lon="2.20986">
        <ele>29.2</ele>
        <time>2022-04-11T12:25:28Z</time>
      </trkpt>
      <trkpt lat="49.94015" lon="2.20986">
        <ele>29.2</ele>
        <time>2022-04-11T12:25:29Z</time>
      </trkpt>
      <trkpt lat="49.94015" lon="2.20986">
        <ele>29.2</ele>
        <time>2022-04-11T12:25:30Z</time>
      </trkpt>
      <trkpt lat="49.94015" lon="2.20986">
        <ele>29.2</ele>
        <time>2022-04-11T12:25:31Z</time>
      </trkpt>
      <trkpt lat="49.94015" lon="2.20986">
        <ele>29.2</ele>
        <time>2022-04-11T12:25:32Z</time>
      </trkpt>
      <trkpt lat="49.94015" lon="2.20986">
        <ele>29.2</ele>
        <time>2022-04-11T12:25:33Z</time>
      </trkpt>
      <trkpt lat="49.94015" lon="2.20986">
        <ele>29.2</ele>
        <time>2022-04-11T12:25:34Z</time>
      </trkpt>
      <trkpt lat="49.94015" lon="2.20986">
        <ele>29.2</ele>
        <time>2022-04-11T12:25:35Z</time>
      </trkpt>
      <trkpt lat="49.94015" lon="2.20986">
        <ele>29.2</ele>
        <time>2022-04-11T12:25:36Z</time>
      </trkpt>
      <trkpt lat="49.94015" lon="2.20986">
        <ele>29.2</ele>
        <time>2022-04-11T12:25:37Z</time>
      </trkpt>
      <trkpt lat="49.94015" lon="2.20986">
        <ele>29.2</ele>
        <time>2022-04-11T12:25:38Z</time>
      </trkpt>
      <trkpt lat="49.94015" lon="2.20986">
        <ele>29.2</ele>
        <time>2022-04-11T12:25:39Z</time>
      </trkpt>
      <trkpt lat="49.94015" lon="2.20986">
        <ele>29.2</ele>
        <time>2022-04-11T12:25:40Z</time>
      </trkpt>
      <trkpt lat="49.94015" lon="2.20986">
        <ele>29.2</ele>
        <time>2022-04-11T12:25:41Z</time>
      </trkpt>
      <trkpt lat="49.94015" lon="2.20986">
        <ele>29.2</ele>
        <time>2022-04-11T12:25:42Z</time>
      </trkpt>
      <trkpt lat="49.94015" lon="2.20986">
        <ele>29.2</ele>
        <time>2022-04-11T12:25:43Z</time>
      </trkpt>
      <trkpt lat="49.94015" lon="2.20986">
        <ele>29.2</ele>
        <time>2022-04-11T12:25:44Z</time>
      </trkpt>
      <trkpt lat="49.94015" lon="2.20986">
        <ele>29.2</ele>
        <time>2022-04-11T12:25:45Z</time>
      </trkpt>
      <trkpt lat="49.94015" lon="2.20986">
        <ele>29.2</ele>
        <time>2022-04-11T12:25:46Z</time>
      </trkpt>
      <trkpt lat="49.94015" lon="2.20986">
        <ele>29.2</ele>
        <time>2022-04-11T12:25:47Z</time>
      </trkpt>
      <trkpt lat="49.94015" lon="2.20986">
        <ele>29.2</ele>
        <time>2022-04-11T12:25:48Z</time>
      </trkpt>
      <trkpt lat="49.94015" lon="2.20986">
        <ele>29.2</ele>
        <time>2022-04-11T12:25:49Z</time>
      </trkpt>
      <trkpt lat="49.94015" lon="2.20986">
        <ele>29.2</ele>
        <time>2022-04-11T12:25:50Z</time>
      </trkpt>
      <trkpt lat="49.94015" lon="2.20986">
        <ele>29.2</ele>
        <time>2022-04-11T12:25:51Z</time>
      </trkpt>
      <trkpt lat="49.94015" lon="2.20986">
        <ele>29.2</ele>
        <time>2022-04-11T12:25:52Z</time>
      </trkpt>
      <trkpt lat="49.94015" lon="2.20986">
        <ele>29.2</ele>
        <time>2022-04-11T12:25:53Z</time>
      </trkpt>
      <trkpt lat="49.94015" lon="2.20986">
        <ele>29.2</ele>
        <time>2022-04-11T12:25:54Z</time>
      </trkpt>
      <trkpt lat="49.94015" lon="2.20986">
        <ele>29.2</ele>
        <time>2022-04-11T12:25:55Z</time>
      </trkpt>
      <trkpt lat="49.94015" lon="2.20986">
        <ele>29.2</ele>
        <time>2022-04-11T12:25:56Z</time>
      </trkpt>
      <trkpt lat="49.94015" lon="2.20986">
        <ele>29.2</ele>
        <time>2022-04-11T12:25:57Z</time>
      </trkpt>
      <trkpt lat="49.94015" lon="2.20986">
        <ele>29.2</ele>
        <time>2022-04-11T12:25:58Z</time>
      </trkpt>
      <trkpt lat="49.94015" lon="2.20986">
        <ele>29.2</ele>
        <time>2022-04-11T12:25:59Z</time>
      </trkpt>
      <trkpt lat="49.94015" lon="2.20986">
        <ele>29.2</ele>
        <time>2022-04-11T12:26:00Z</time>
      </trkpt>
      <trkpt lat="49.94015" lon="2.20986">
        <ele>29.2</ele>
        <time>2022-04-11T12:26:01Z</time>
      </trkpt>
      <trkpt lat="49.94015" lon="2.20986">
        <ele>29.2</ele>
        <time>2022-04-11T12:26:02Z</time>
      </trkpt>
      <trkpt lat="49.94015" lon="2.20986">
        <ele>29.2</ele>
        <time>2022-04-11T12:26:03Z</time>
      </trkpt>
      <trkpt lat="49.94015" lon="2.20986">
        <ele>29.2</ele>
        <time>2022-04-11T12:26:04Z</time>
      </trkpt>
      <trkpt lat="49.94015" lon="2.20986">
        <ele>29.2</ele>
        <time>2022-04-11T12:26:05Z</time>
      </trkpt>
      <trkpt lat="49.94015" lon="2.20986">
        <ele>29.2</ele>
        <time>2022-04-11T12:26:06Z</time>
      </trkpt>
      <trkpt lat="49.94015" lon="2.20986">
        <ele>29.2</ele>
        <time>2022-04-11T12:26:07Z</time>
      </trkpt>
      <trkpt lat="49.94015" lon="2.20986">
        <ele>29.2</ele>
        <time>2022-04-11T12:26:08Z</time>
      </trkpt>
      <trkpt lat="49.94015" lon="2.20986">
        <ele>29.2</ele>
        <time>2022-04-11T12:26:09Z</time>
      </trkpt>
      <trkpt lat="49.94015" lon="2.20986">
        <ele>29.2</ele>
        <time>2022-04-11T12:26:10Z</time>
      </trkpt>
      <trkpt lat="49.94015" lon="2.20986">
        <ele>29.2</ele>
        <time>2022-04-11T12:26:11Z</time>
      </trkpt>
      <trkpt lat="49.94015" lon="2.20986">
        <ele>29.2</ele>
        <time>2022-04-11T12:26:12Z</time>
      </trkpt>
      <trkpt lat="49.94015" lon="2.20986">
        <ele>29.2</ele>
        <time>2022-04-11T12:26:13Z</time>
      </trkpt>
      <trkpt lat="49.94015" lon="2.20986">
        <ele>29.2</ele>
        <time>2022-04-11T12:26:14Z</time>
      </trkpt>
      <trkpt lat="49.94015" lon="2.20986">
        <ele>29.2</ele>
        <time>2022-04-11T12:26:15Z</time>
      </trkpt>
      <trkpt lat="49.94015" lon="2.20986">
        <ele>29.2</ele>
        <time>2022-04-11T12:26:16Z</time>
      </trkpt>
      <trkpt lat="49.94015" lon="2.20986">
        <ele>29.2</ele>
        <time>2022-04-11T12:26:17Z</time>
      </trkpt>
      <trkpt lat="49.94015" lon="2.20986">
        <ele>29.2</ele>
        <time>2022-04-11T12:26:18Z</time>
      </trkpt>
      <trkpt lat="49.94015" lon="2.20986">
        <ele>29.2</ele>
        <time>2022-04-11T12:26:19Z</time>
      </trkpt>
      <trkpt lat="49.94015" lon="2.20986">
        <ele>29.2</ele>
        <time>2022-04-11T12:26:20Z</time>
      </trkpt>
      <trkpt lat="49.94015" lon="2.20986">
        <ele>29.2</ele>
        <time>2022-04-11T12:26:21Z</time>
      </trkpt>
      <trkpt lat="49.94015" lon="2.20986">
        <ele>29.2</ele>
        <time>2022-04-11T12:26:22Z</time>
      </trkpt>
      <trkpt lat="49.94015" lon="2.20986">
        <ele>29.2</ele>
        <time>2022-04-11T12:26:23Z</time>
      </trkpt>
      <trkpt lat="49.94015" lon="2.20986">
        <ele>29.2</ele>
        <time>2022-04-11T12:26:24Z</time>
      </trkpt>
      <trkpt lat="49.94015" lon="2.20986">
        <ele>29.2</ele>
        <time>2022-04-11T12:26:25Z</time>
      </trkpt>
      <trkpt lat="49.94015" lon="2.20986">
        <ele>29.2</ele>
        <time>2022-04-11T12:26:26Z</time>
      </trkpt>
      <trkpt lat="49.94015" lon="2.20986">
        <ele>29.2</ele>
        <time>2022-04-11T12:26:27Z</time>
      </trkpt>
      <trkpt lat="49.94015" lon="2.20986">
        <ele>29.2</ele>
        <time>2022-04-11T12:26:28Z</time>
      </trkpt>
      <trkpt lat="49.94015" lon="2.20986">
        <ele>29.2</ele>
        <time>2022-04-11T12:26:29Z</time>
      </trkpt>
      <trkpt lat="49.94015" lon="2.20986">
        <ele>29.2</ele>
        <time>2022-04-11T12:26:30Z</time>
      </trkpt>
      <trkpt lat="49.94015" lon="2.20986">
        <ele>29.2</ele>
        <time>2022-04-11T12:26:31Z</time>
      </trkpt>
      <trkpt lat="49.94015" lon="2.20986">
        <ele>29.2</ele>
        <time>2022-04-11T12:26:32Z</time>
      </trkpt>
      <trkpt lat="49.94015" lon="2.20986">
        <ele>29.2</ele>
        <time>2022-04-11T12:26:33Z</time>
      </trkpt>
      <trkpt lat="49.94015" lon="2.20986">
        <ele>29.2</ele>
        <time>2022-04-11T12:26:34Z</time>
      </trkpt>
      <trkpt lat="49.94015" lon="2.20986">
        <ele>29.2</ele>
        <time>2022-04-11T12:26:35Z</time>
      </trkpt>
      <trkpt lat="49.94015" lon="2.20986">
        <ele>29.2</ele>
        <time>2022-04-11T12:26:36Z</time>
      </trkpt>
      <trkpt lat="49.94015" lon="2.20986">
        <ele>29.2</ele>
        <time>2022-04-11T12:26:37Z</time>
      </trkpt>
      <trkpt lat="49.94015" lon="2.20986">
        <ele>29.2</ele>
        <time>2022-04-11T12:26:38Z</time>
      </trkpt>
      <trkpt lat="49.94015" lon="2.20986">
        <ele>29.2</ele>
        <time>2022-04-11T12:26:39Z</time>
      </trkpt>
      <trkpt lat="49.94015" lon="2.20986">
        <ele>29.2</ele>
        <time>2022-04-11T12:26:40Z</time>
      </trkpt>
      <trkpt lat="49.94015" lon="2.20986">
        <ele>29.2</ele>
        <time>2022-04-11T12:26:41Z</time>
      </trkpt>
      <trkpt lat="49.94015" lon="2.20986">
        <ele>29.2</ele>
        <time>2022-04-11T12:26:42Z</time>
      </trkpt>
      <trkpt lat="49.94015" lon="2.20986">
        <ele>29.2</ele>
        <time>2022-04-11T12:26:43Z</time>
      </trkpt>
      <trkpt lat="49.94015" lon="2.20986">
        <ele>29.2</ele>
        <time>2022-04-11T12:26:44Z</time>
      </trkpt>
      <trkpt lat="49.94015" lon="2.20986">
        <ele>29.2</ele>
        <time>2022-04-11T12:26:45Z</time>
      </trkpt>
      <trkpt lat="49.94015" lon="2.20986">
        <ele>29.2</ele>
        <time>2022-04-11T12:26:46Z</time>
      </trkpt>
      <trkpt lat="49.94015" lon="2.20986">
        <ele>29.2</ele>
        <time>2022-04-11T12:26:47Z</time>
      </trkpt>
      <trkpt lat="49.94015" lon="2.20986">
        <ele>29.2</ele>
        <time>2022-04-11T12:26:48Z</time>
      </trkpt>
      <trkpt lat="49.94015" lon="2.20986">
        <ele>29.2</ele>
        <time>2022-04-11T12:26:49Z</time>
      </trkpt>
      <trkpt lat="49.94015" lon="2.20986">
        <ele>29.2</ele>
        <time>2022-04-11T12:26:50Z</time>
      </trkpt>
      <trkpt lat="49.94015" lon="2.20986">
        <ele>29.2</ele>
        <time>2022-04-11T12:26:51Z</time>
      </trkpt>
      <trkpt lat="49.94015" lon="2.20986">
        <ele>29.2</ele>
        <time>2022-04-11T12:26:52Z</time>
      </trkpt>
      <trkpt lat="49.94015" lon="2.20986">
        <ele>29.2</ele>
        <time>2022-04-11T12:26:53Z</time>
      </trkpt>
      <trkpt lat="49.94015" lon="2.20986">
        <ele>29.2</ele>
        <time>2022-04-11T12:26:54Z</time>
      </trkpt>
      <trkpt lat="49.94015" lon="2.20986">
        <ele>29.2</ele>
        <time>2022-04-11T12:26:55Z</time>
      </trkpt>
      <trkpt lat="49.94015" lon="2.20986">
        <ele>29.2</ele>
        <time>2022-04-11T12:26:56Z</time>
      </trkpt>
      <trkpt lat="49.94015" lon="2.20986">
        <ele>29.2</ele>
        <time>2022-04-11T12:26:57Z</time>
      </trkpt>
      <trkpt lat="49.94015" lon="2.20986">
        <ele>29.2</ele>
        <time>2022-04-11T12:26:58Z</time>
      </trkpt>
      <trkpt lat="49.94015" lon="2.20986">
        <ele>29.2</ele>
        <time>2022-04-11T12:26:59Z</time>
      </trkpt>
      <trkpt lat="49.94015" lon="2.20986">
        <ele>29.2</ele>
        <time>2022-04-11T12:27:00Z</time>
      </trkpt>
      <trkpt lat="49.94015" lon="2.20986">
        <ele>29.2</ele>
        <time>2022-04-11T12:27:01Z</time>
      </trkpt>
      <trkpt lat="49.94015" lon="2.20986">
        <ele>29.2</ele>
        <time>2022-04-11T12:27:02Z</time>
      </trkpt>
      <trkpt lat="49.94015" lon="2.20986">
        <ele>29.2</ele>
        <time>2022-04-11T12:27:03Z</time>
      </trkpt>
      <trkpt lat="49.94015" lon="2.20986">
        <ele>29.2</ele>
        <time>2022-04-11T12:27:04Z</time>
      </trkpt>
      <trkpt lat="49.94015" lon="2.20986">
        <ele>29.2</ele>
        <time>2022-04-11T12:27:05Z</time>
      </trkpt>
      <trkpt lat="49.94015" lon="2.20986">
        <ele>29.2</ele>
        <time>2022-04-11T12:27:06Z</time>
      </trkpt>
      <trkpt lat="49.94015" lon="2.20986">
        <ele>29.2</ele>
        <time>2022-04-11T12:27:07Z</time>
      </trkpt>
      <trkpt lat="49.94015" lon="2.20986">
        <ele>29.2</ele>
        <time>2022-04-11T12:27:08Z</time>
      </trkpt>
      <trkpt lat="49.94015" lon="2.20986">
        <ele>29.2</ele>
        <time>2022-04-11T12:27:09Z</time>
      </trkpt>
      <trkpt lat="49.94015" lon="2.20986">
        <ele>29.2</ele>
        <time>2022-04-11T12:27:10Z</time>
      </trkpt>
      <trkpt lat="49.94015" lon="2.20986">
        <ele>29.2</ele>
        <time>2022-04-11T12:27:11Z</time>
      </trkpt>
      <trkpt lat="49.94015" lon="2.20986">
        <ele>29.2</ele>
        <time>2022-04-11T12:27:12Z</time>
      </trkpt>
      <trkpt lat="49.94015" lon="2.20986">
        <ele>29.2</ele>
        <time>2022-04-11T12:27:13Z</time>
      </trkpt>
      <trkpt lat="49.94015" lon="2.20986">
        <ele>29.2</ele>
        <time>2022-04-11T12:27:14Z</time>
      </trkpt>
      <trkpt lat="49.94015" lon="2.20986">
        <ele>29.2</ele>
        <time>2022-04-11T12:27:15Z</time>
      </trkpt>
      <trkpt lat="49.94015" lon="2.20986">
        <ele>29.2</ele>
        <time>2022-04-11T12:27:16Z</time>
      </trkpt>
      <trkpt lat="49.94015" lon="2.20986">
        <ele>29.2</ele>
        <time>2022-04-11T12:27:17Z</time>
      </trkpt>
      <trkpt lat="49.94015" lon="2.20986">
        <ele>29.2</ele>
        <time>2022-04-11T12:27:18Z</time>
      </trkpt>
      <trkpt lat="49.94015" lon="2.20986">
        <ele>29.2</ele>
        <time>2022-04-11T12:27:19Z</time>
      </trkpt>
      <trkpt lat="49.94015" lon="2.20986">
        <ele>29.2</ele>
        <time>2022-04-11T12:27:20Z</time>
      </trkpt>
      <trkpt lat="49.94015" lon="2.20986">
        <ele>29.2</ele>
        <time>2022-04-11T12:27:21Z</time>
      </trkpt>
      <trkpt lat="49.94015" lon="2.20986">
        <ele>29.2</ele>
        <time>2022-04-11T12:27:22Z</time>
      </trkpt>
      <trkpt lat="49.94015" lon="2.20986">
        <ele>29.2</ele>
        <time>2022-04-11T12:27:23Z</time>
      </trkpt>
      <trkpt lat="49.94015" lon="2.20986">
        <ele>29.2</ele>
        <time>2022-04-11T12:27:24Z</time>
      </trkpt>
      <trkpt lat="49.94015" lon="2.20986">
        <ele>29.2</ele>
        <time>2022-04-11T12:27:25Z</time>
      </trkpt>
      <trkpt lat="49.94015" lon="2.20986">
        <ele>29.2</ele>
        <time>2022-04-11T12:27:26Z</time>
      </trkpt>
      <trkpt lat="49.94015" lon="2.20986">
        <ele>29.2</ele>
        <time>2022-04-11T12:27:27Z</time>
      </trkpt>
      <trkpt lat="49.94015" lon="2.20986">
        <ele>29.2</ele>
        <time>2022-04-11T12:27:28Z</time>
      </trkpt>
      <trkpt lat="49.94015" lon="2.20986">
        <ele>29.2</ele>
        <time>2022-04-11T12:27:29Z</time>
      </trkpt>
      <trkpt lat="49.94015" lon="2.20986">
        <ele>29.2</ele>
        <time>2022-04-11T12:27:30Z</time>
      </trkpt>
      <trkpt lat="49.94015" lon="2.20986">
        <ele>29.2</ele>
        <time>2022-04-11T12:27:31Z</time>
      </trkpt>
      <trkpt lat="49.94015" lon="2.20986">
        <ele>29.2</ele>
        <time>2022-04-11T12:27:32Z</time>
      </trkpt>
      <trkpt lat="49.94015" lon="2.20986">
        <ele>29.2</ele>
        <time>2022-04-11T12:27:33Z</time>
      </trkpt>
      <trkpt lat="49.94015" lon="2.20986">
        <ele>29.2</ele>
        <time>2022-04-11T12:27:34Z</time>
      </trkpt>
      <trkpt lat="49.94015" lon="2.20986">
        <ele>29.2</ele>
        <time>2022-04-11T12:27:35Z</time>
      </trkpt>
      <trkpt lat="49.94015" lon="2.20986">
        <ele>29.2</ele>
        <time>2022-04-11T12:27:36Z</time>
      </trkpt>
      <trkpt lat="49.94015" lon="2.20986">
        <ele>29.2</ele>
        <time>2022-04-11T12:27:37Z</time>
      </trkpt>
      <trkpt lat="49.94015" lon="2.20986">
        <ele>29.2</ele>
        <time>2022-04-11T12:27:38Z</time>
      </trkpt>
      <trkpt lat="49.94015" lon="2.20986">
        <ele>29.2</ele>
        <time>2022-04-11T12:27:39Z</time>
      </trkpt>
      <trkpt lat="49.94015" lon="2.20986">
        <ele>29.2</ele>
        <time>2022-04-11T12:27:40Z</time>
      </trkpt>
      <trkpt lat="49.94015" lon="2.20986">
        <ele>29.2</ele>
        <time>2022-04-11T12:27:41Z</time>
      </trkpt>
      <trkpt lat="49.94015" lon="2.20986">
        <ele>29.2</ele>
        <time>2022-04-11T12:27:42Z</time>
      </trkpt>
      <trkpt lat="49.94015" lon="2.20986">
        <ele>29.2</ele>
        <time>2022-04-11T12:27:43Z</time>
      </trkpt>
      <trkpt lat="49.94015" lon="2.20986">
        <ele>29.2</ele>
        <time>2022-04-11T12:27:44Z</time>
      </trkpt>
      <trkpt lat="49.94015" lon="2.20986">
        <ele>29.2</ele>
        <time>2022-04-11T12:27:45Z</time>
      </trkpt>
      <trkpt lat="49.94015" lon="2.20986">
        <ele>29.2</ele>
        <time>2022-04-11T12:27:46Z</time>
      </trkpt>
      <trkpt lat="49.94015" lon="2.20986">
        <ele>29.2</ele>
        <time>2022-04-11T12:27:47Z</time>
      </trkpt>
      <trkpt lat="49.94015" lon="2.20986">
        <ele>29.2</ele>
        <time>2022-04-11T12:27:48Z</time>
      </trkpt>
      <trkpt lat="49.94015" lon="2.20986">
        <ele>29.2</ele>
        <time>2022-04-11T12:27:49Z</time>
      </trkpt>
      <trkpt lat="49.94015" lon="2.20986">
        <ele>29.2</ele>
        <time>2022-04-11T12:27:50Z</time>
      </trkpt>
      <trkpt lat="49.94015" lon="2.20986">
        <ele>29.2</ele>
        <time>2022-04-11T12:27:51Z</time>
      </trkpt>
      <trkpt lat="49.94015" lon="2.20986">
        <ele>29.2</ele>
        <time>2022-04-11T12:27:52Z</time>
      </trkpt>
      <trkpt lat="49.94015" lon="2.20986">
        <ele>29.2</ele>
        <time>2022-04-11T12:27:53Z</time>
      </trkpt>
      <trkpt lat="49.94015" lon="2.20986">
        <ele>29.2</ele>
        <time>2022-04-11T12:27:54Z</time>
      </trkpt>
      <trkpt lat="49.94015" lon="2.20986">
        <ele>29.2</ele>
        <time>2022-04-11T12:27:55Z</time>
      </trkpt>
      <trkpt lat="49.94015" lon="2.20986">
        <ele>29.2</ele>
        <time>2022-04-11T12:27:56Z</time>
      </trkpt>
      <trkpt lat="49.94015" lon="2.20986">
        <ele>29.2</ele>
        <time>2022-04-11T12:27:57Z</time>
      </trkpt>
      <trkpt lat="49.94015" lon="2.20986">
        <ele>29.2</ele>
        <time>2022-04-11T12:27:58Z</time>
      </trkpt>
      <trkpt lat="49.94015" lon="2.20986">
        <ele>29.2</ele>
        <time>2022-04-11T12:27:59Z</time>
      </trkpt>
      <trkpt lat="49.94015" lon="2.20986">
        <ele>29.2</ele>
        <time>2022-04-11T12:28:00Z</time>
      </trkpt>
      <trkpt lat="49.94015" lon="2.20986">
        <ele>29.2</ele>
        <time>2022-04-11T12:28:01Z</time>
      </trkpt>
      <trkpt lat="49.94015" lon="2.20986">
        <ele>29.2</ele>
        <time>2022-04-11T12:28:02Z</time>
      </trkpt>
      <trkpt lat="49.94015" lon="2.20986">
        <ele>29.2</ele>
        <time>2022-04-11T12:28:03Z</time>
      </trkpt>
      <trkpt lat="49.94015" lon="2.20986">
        <ele>29.2</ele>
        <time>2022-04-11T12:28:04Z</time>
      </trkpt>
      <trkpt lat="49.94015" lon="2.20986">
        <ele>29.2</ele>
        <time>2022-04-11T12:28:05Z</time>
      </trkpt>
      <trkpt lat="49.94015" lon="2.20986">
        <ele>29.2</ele>
        <time>2022-04-11T12:28:06Z</time>
      </trkpt>
      <trkpt lat="49.94015" lon="2.20986">
        <ele>29.2</ele>
        <time>2022-04-11T12:28:07Z</time>
      </trkpt>
      <trkpt lat="49.94015" lon="2.20986">
        <ele>29.2</ele>
        <time>2022-04-11T12:28:08Z</time>
      </trkpt>
      <trkpt lat="49.94015" lon="2.20986">
        <ele>29.2</ele>
        <time>2022-04-11T12:28:09Z</time>
      </trkpt>
      <trkpt lat="49.94015" lon="2.20986">
        <ele>29.2</ele>
        <time>2022-04-11T12:28:10Z</time>
      </trkpt>
      <trkpt lat="49.94015" lon="2.20986">
        <ele>29.2</ele>
        <time>2022-04-11T12:28:11Z</time>
      </trkpt>
      <trkpt lat="49.94015" lon="2.20986">
        <ele>29.2</ele>
        <time>2022-04-11T12:28:12Z</time>
      </trkpt>
      <trkpt lat="49.94015" lon="2.20986">
        <ele>29.2</ele>
        <time>2022-04-11T12:28:13Z</time>
      </trkpt>
      <trkpt lat="49.94015" lon="2.20986">
        <ele>29.2</ele>
        <time>2022-04-11T12:28:14Z</time>
      </trkpt>
      <trkpt lat="49.94015" lon="2.20986">
        <ele>29.2</ele>
        <time>2022-04-11T12:28:15Z</time>
      </trkpt>
      <trkpt lat="49.94015" lon="2.20986">
        <ele>29.2</ele>
        <time>2022-04-11T12:28:16Z</time>
      </trkpt>
      <trkpt lat="49.94015" lon="2.20986">
        <ele>29.2</ele>
        <time>2022-04-11T12:28:17Z</time>
      </trkpt>
      <trkpt lat="49.94015" lon="2.20986">
        <ele>29.2</ele>
        <time>2022-04-11T12:28:18Z</time>
      </trkpt>
      <trkpt lat="49.94015" lon="2.20986">
        <ele>29.2</ele>
        <time>2022-04-11T12:28:19Z</time>
      </trkpt>
      <trkpt lat="49.94015" lon="2.20986">
        <ele>29.2</ele>
        <time>2022-04-11T12:28:20Z</time>
      </trkpt>
      <trkpt lat="49.94015" lon="2.20986">
        <ele>29.2</ele>
        <time>2022-04-11T12:28:21Z</time>
      </trkpt>
      <trkpt lat="49.94015" lon="2.20986">
        <ele>29.2</ele>
        <time>2022-04-11T12:28:22Z</time>
      </trkpt>
      <trkpt lat="49.94015" lon="2.20986">
        <ele>29.2</ele>
        <time>2022-04-11T12:28:23Z</time>
      </trkpt>
      <trkpt lat="49.94015" lon="2.20986">
        <ele>29.2</ele>
        <time>2022-04-11T12:28:24Z</time>
      </trkpt>
      <trkpt lat="49.94015" lon="2.20986">
        <ele>29.2</ele>
        <time>2022-04-11T12:28:25Z</time>
      </trkpt>
      <trkpt lat="49.94015" lon="2.20986">
        <ele>29.2</ele>
        <time>2022-04-11T12:28:26Z</time>
      </trkpt>
      <trkpt lat="49.94015" lon="2.20986">
        <ele>29.2</ele>
        <time>2022-04-11T12:28:27Z</time>
      </trkpt>
      <trkpt lat="49.94015" lon="2.20986">
        <ele>29.2</ele>
        <time>2022-04-11T12:28:28Z</time>
      </trkpt>
      <trkpt lat="49.94015" lon="2.20986">
        <ele>29.2</ele>
        <time>2022-04-11T12:28:29Z</time>
      </trkpt>
      <trkpt lat="49.94015" lon="2.20986">
        <ele>29.2</ele>
        <time>2022-04-11T12:28:30Z</time>
      </trkpt>
      <trkpt lat="49.94015" lon="2.20986">
        <ele>29.2</ele>
        <time>2022-04-11T12:28:31Z</time>
      </trkpt>
      <trkpt lat="49.94015" lon="2.20986">
        <ele>29.2</ele>
        <time>2022-04-11T12:28:32Z</time>
      </trkpt>
      <trkpt lat="49.94015" lon="2.20986">
        <ele>29.2</ele>
        <time>2022-04-11T12:28:33Z</time>
      </trkpt>
      <trkpt lat="49.94015" lon="2.20986">
        <ele>29.2</ele>
        <time>2022-04-11T12:28:34Z</time>
      </trkpt>
      <trkpt lat="49.94015" lon="2.20986">
        <ele>29.2</ele>
        <time>2022-04-11T12:28:35Z</time>
      </trkpt>
      <trkpt lat="49.94015" lon="2.20986">
        <ele>29.2</ele>
        <time>2022-04-11T12:28:36Z</time>
      </trkpt>
      <trkpt lat="49.94015" lon="2.20986">
        <ele>29.2</ele>
        <time>2022-04-11T12:28:37Z</time>
      </trkpt>
      <trkpt lat="49.94015" lon="2.20986">
        <ele>29.2</ele>
        <time>2022-04-11T12:28:38Z</time>
      </trkpt>
      <trkpt lat="49.94015" lon="2.20986">
        <ele>29.2</ele>
        <time>2022-04-11T12:28:39Z</time>
      </trkpt>
      <trkpt lat="49.94015" lon="2.20986">
        <ele>29.2</ele>
        <time>2022-04-11T12:28:40Z</time>
      </trkpt>
      <trkpt lat="49.94015" lon="2.20986">
        <ele>29.2</ele>
        <time>2022-04-11T12:28:41Z</time>
      </trkpt>
      <trkpt lat="49.94015" lon="2.20986">
        <ele>29.2</ele>
        <time>2022-04-11T12:28:42Z</time>
      </trkpt>
      <trkpt lat="49.94015" lon="2.20986">
        <ele>29.2</ele>
        <time>2022-04-11T12:28:43Z</time>
      </trkpt>
      <trkpt lat="49.94015" lon="2.20986">
        <ele>29.2</ele>
        <time>2022-04-11T12:28:44Z</time>
      </trkpt>
      <trkpt lat="49.94015" lon="2.20986">
        <ele>29.2</ele>
        <time>2022-04-11T12:28:45Z</time>
      </trkpt>
      <trkpt lat="49.94015" lon="2.20986">
        <ele>29.2</ele>
        <time>2022-04-11T12:28:46Z</time>
      </trkpt>
      <trkpt lat="49.94015" lon="2.20986">
        <ele>29.2</ele>
        <time>2022-04-11T12:28:47Z</time>
      </trkpt>
      <trkpt lat="49.94015" lon="2.20986">
        <ele>29.2</ele>
        <time>2022-04-11T12:28:48Z</time>
      </trkpt>
      <trkpt lat="49.94015" lon="2.20986">
        <ele>29.2</ele>
        <time>2022-04-11T12:28:49Z</time>
      </trkpt>
      <trkpt lat="49.94015" lon="2.20986">
        <ele>29.2</ele>
        <time>2022-04-11T12:28:50Z</time>
      </trkpt>
      <trkpt lat="49.94015" lon="2.20986">
        <ele>29.2</ele>
        <time>2022-04-11T12:28:51Z</time>
      </trkpt>
      <trkpt lat="49.94015" lon="2.20986">
        <ele>29.2</ele>
        <time>2022-04-11T12:28:52Z</time>
      </trkpt>
      <trkpt lat="49.94015" lon="2.20986">
        <ele>29.2</ele>
        <time>2022-04-11T12:28:53Z</time>
      </trkpt>
      <trkpt lat="49.94015" lon="2.20986">
        <ele>29.2</ele>
        <time>2022-04-11T12:28:54Z</time>
      </trkpt>
      <trkpt lat="49.94015" lon="2.20986">
        <ele>29.2</ele>
        <time>2022-04-11T12:28:55Z</time>
      </trkpt>
      <trkpt lat="49.94015" lon="2.20986">
        <ele>29.2</ele>
        <time>2022-04-11T12:28:56Z</time>
      </trkpt>
      <trkpt lat="49.94015" lon="2.20986">
        <ele>29.2</ele>
        <time>2022-04-11T12:28:57Z</time>
      </trkpt>
      <trkpt lat="49.94015" lon="2.20986">
        <ele>29.2</ele>
        <time>2022-04-11T12:28:58Z</time>
      </trkpt>
      <trkpt lat="49.94015" lon="2.20986">
        <ele>29.2</ele>
        <time>2022-04-11T12:28:59Z</time>
      </trkpt>
      <trkpt lat="49.94015" lon="2.20986">
        <ele>29.2</ele>
        <time>2022-04-11T12:29:00Z</time>
      </trkpt>
      <trkpt lat="49.94015" lon="2.20986">
        <ele>29.2</ele>
        <time>2022-04-11T12:29:01Z</time>
      </trkpt>
      <trkpt lat="49.94015" lon="2.20986">
        <ele>29.2</ele>
        <time>2022-04-11T12:29:02Z</time>
      </trkpt>
      <trkpt lat="49.94015" lon="2.20986">
        <ele>29.2</ele>
        <time>2022-04-11T12:29:03Z</time>
      </trkpt>
      <trkpt lat="49.94015" lon="2.20986">
        <ele>29.2</ele>
        <time>2022-04-11T12:29:04Z</time>
      </trkpt>
      <trkpt lat="49.94015" lon="2.20986">
        <ele>29.2</ele>
        <time>2022-04-11T12:29:05Z</time>
      </trkpt>
      <trkpt lat="49.94015" lon="2.20986">
        <ele>29.2</ele>
        <time>2022-04-11T12:29:06Z</time>
      </trkpt>
      <trkpt lat="49.94015" lon="2.20986">
        <ele>29.2</ele>
        <time>2022-04-11T12:29:07Z</time>
      </trkpt>
      <trkpt lat="49.94015" lon="2.20986">
        <ele>29.2</ele>
        <time>2022-04-11T12:29:08Z</time>
      </trkpt>
      <trkpt lat="49.94015" lon="2.20986">
        <ele>29.2</ele>
        <time>2022-04-11T12:29:09Z</time>
      </trkpt>
      <trkpt lat="49.94015" lon="2.20986">
        <ele>29.2</ele>
        <time>2022-04-11T12:29:10Z</time>
      </trkpt>
      <trkpt lat="49.94015" lon="2.20986">
        <ele>29.2</ele>
        <time>2022-04-11T12:29:11Z</time>
      </trkpt>
      <trkpt lat="49.94015" lon="2.20986">
        <ele>29.2</ele>
        <time>2022-04-11T12:29:12Z</time>
      </trkpt>
      <trkpt lat="49.94015" lon="2.20986">
        <ele>29.2</ele>
        <time>2022-04-11T12:29:13Z</time>
      </trkpt>
      <trkpt lat="49.94015" lon="2.20986">
        <ele>29.2</ele>
        <time>2022-04-11T12:29:14Z</time>
      </trkpt>
      <trkpt lat="49.94015" lon="2.20986">
        <ele>29.2</ele>
        <time>2022-04-11T12:29:15Z</time>
      </trkpt>
      <trkpt lat="49.94015" lon="2.20986">
        <ele>29.2</ele>
        <time>2022-04-11T12:29:16Z</time>
      </trkpt>
      <trkpt lat="49.94015" lon="2.20986">
        <ele>29.2</ele>
        <time>2022-04-11T12:29:17Z</time>
      </trkpt>
      <trkpt lat="49.94015" lon="2.20986">
        <ele>29.2</ele>
        <time>2022-04-11T12:29:18Z</time>
      </trkpt>
      <trkpt lat="49.94015" lon="2.20986">
        <ele>29.2</ele>
        <time>2022-04-11T12:29:19Z</time>
      </trkpt>
      <trkpt lat="49.94015" lon="2.20986">
        <ele>29.2</ele>
        <time>2022-04-11T12:29:20Z</time>
      </trkpt>
      <trkpt lat="49.94015" lon="2.20986">
        <ele>29.2</ele>
        <time>2022-04-11T12:29:21Z</time>
      </trkpt>
      <trkpt lat="49.94015" lon="2.20986">
        <ele>29.2</ele>
        <time>2022-04-11T12:29:22Z</time>
      </trkpt>
      <trkpt lat="49.94015" lon="2.20986">
        <ele>29.2</ele>
        <time>2022-04-11T12:29:23Z</time>
      </trkpt>
      <trkpt lat="49.94015" lon="2.20986">
        <ele>29.2</ele>
        <time>2022-04-11T12:29:24Z</time>
      </trkpt>
      <trkpt lat="49.94015" lon="2.20986">
        <ele>29.2</ele>
        <time>2022-04-11T12:29:25Z</time>
      </trkpt>
      <trkpt lat="49.94015" lon="2.20986">
        <ele>29.2</ele>
        <time>2022-04-11T12:29:26Z</time>
      </trkpt>
      <trkpt lat="49.94015" lon="2.20986">
        <ele>29.2</ele>
        <time>2022-04-11T12:29:27Z</time>
      </trkpt>
      <trkpt lat="49.94015" lon="2.20986">
        <ele>29.2</ele>
        <time>2022-04-11T12:29:28Z</time>
      </trkpt>
      <trkpt lat="49.94015" lon="2.20986">
        <ele>29.2</ele>
        <time>2022-04-11T12:29:29Z</time>
      </trkpt>
      <trkpt lat="49.94015" lon="2.20986">
        <ele>29.2</ele>
        <time>2022-04-11T12:29:30Z</time>
      </trkpt>
      <trkpt lat="49.94015" lon="2.20986">
        <ele>29.2</ele>
        <time>2022-04-11T12:29:31Z</time>
      </trkpt>
      <trkpt lat="49.94015" lon="2.20986">
        <ele>29.2</ele>
        <time>2022-04-11T12:29:32Z</time>
      </trkpt>
      <trkpt lat="49.94015" lon="2.20986">
        <ele>29.2</ele>
        <time>2022-04-11T12:29:33Z</time>
      </trkpt>
      <trkpt lat="49.94015" lon="2.20986">
        <ele>29.2</ele>
        <time>2022-04-11T12:29:34Z</time>
      </trkpt>
      <trkpt lat="49.94015" lon="2.20986">
        <ele>29.2</ele>
        <time>2022-04-11T12:29:35Z</time>
      </trkpt>
      <trkpt lat="49.94015" lon="2.20986">
        <ele>29.2</ele>
        <time>2022-04-11T12:29:36Z</time>
      </trkpt>
      <trkpt lat="49.94015" lon="2.20986">
        <ele>29.2</ele>
        <time>2022-04-11T12:29:37Z</time>
      </trkpt>
      <trkpt lat="49.94015" lon="2.20986">
        <ele>29.2</ele>
        <time>2022-04-11T12:29:38Z</time>
      </trkpt>
      <trkpt lat="49.94015" lon="2.20986">
        <ele>29.2</ele>
        <time>2022-04-11T12:29:39Z</time>
      </trkpt>
      <trkpt lat="49.94015" lon="2.20986">
        <ele>29.2</ele>
        <time>2022-04-11T12:29:40Z</time>
      </trkpt>
      <trkpt lat="49.94015" lon="2.20986">
        <ele>29.2</ele>
        <time>2022-04-11T12:29:41Z</time>
      </trkpt>
      <trkpt lat="49.94015" lon="2.20986">
        <ele>29.2</ele>
        <time>2022-04-11T12:29:42Z</time>
      </trkpt>
      <trkpt lat="49.94015" lon="2.20986">
        <ele>29.2</ele>
        <time>2022-04-11T12:29:43Z</time>
      </trkpt>
      <trkpt lat="49.94015" lon="2.20986">
        <ele>29.2</ele>
        <time>2022-04-11T12:29:44Z</time>
      </trkpt>
      <trkpt lat="49.94015" lon="2.20986">
        <ele>29.2</ele>
        <time>2022-04-11T12:29:45Z</time>
      </trkpt>
      <trkpt lat="49.94015" lon="2.20986">
        <ele>29.2</ele>
        <time>2022-04-11T12:29:46Z</time>
      </trkpt>
      <trkpt lat="49.94015" lon="2.20986">
        <ele>29.2</ele>
        <time>2022-04-11T12:29:47Z</time>
      </trkpt>
      <trkpt lat="49.94015" lon="2.20986">
        <ele>29.2</ele>
        <time>2022-04-11T12:29:48Z</time>
      </trkpt>
      <trkpt lat="49.94015" lon="2.20986">
        <ele>29.2</ele>
        <time>2022-04-11T12:29:49Z</time>
      </trkpt>
      <trkpt lat="49.94015" lon="2.20986">
        <ele>29.2</ele>
        <time>2022-04-11T12:29:50Z</time>
      </trkpt>
      <trkpt lat="49.94015" lon="2.20986">
        <ele>29.2</ele>
        <time>2022-04-11T12:29:51Z</time>
      </trkpt>
      <trkpt lat="49.94015" lon="2.20986">
        <ele>29.2</ele>
        <time>2022-04-11T12:29:52Z</time>
      </trkpt>
      <trkpt lat="49.94015" lon="2.20986">
        <ele>29.2</ele>
        <time>2022-04-11T12:29:53Z</time>
      </trkpt>
      <trkpt lat="49.94015" lon="2.20986">
        <ele>29.2</ele>
        <time>2022-04-11T12:29:54Z</time>
      </trkpt>
      <trkpt lat="49.94015" lon="2.20986">
        <ele>29.2</ele>
        <time>2022-04-11T12:29:55Z</time>
      </trkpt>
      <trkpt lat="49.94015" lon="2.20986">
        <ele>29.2</ele>
        <time>2022-04-11T12:29:56Z</time>
      </trkpt>
      <trkpt lat="49.94015" lon="2.20986">
        <ele>29.2</ele>
        <time>2022-04-11T12:29:57Z</time>
      </trkpt>
      <trkpt lat="49.94015" lon="2.20986">
        <ele>29.2</ele>
        <time>2022-04-11T12:29:58Z</time>
      </trkpt>
      <trkpt lat="49.94015" lon="2.20986">
        <ele>29.2</ele>
        <time>2022-04-11T12:29:59Z</time>
      </trkpt>
      <trkpt lat="49.94015" lon="2.20986">
        <ele>29.2</ele>
        <time>2022-04-11T12:30:00Z</time>
      </trkpt>
      <trkpt lat="49.94015" lon="2.20986">
        <ele>29.2</ele>
        <time>2022-04-11T12:30:01Z</time>
      </trkpt>
      <trkpt lat="49.94015" lon="2.20986">
        <ele>29.2</ele>
        <time>2022-04-11T12:30:02Z</time>
      </trkpt>
      <trkpt lat="49.94015" lon="2.20986">
        <ele>29.2</ele>
        <time>2022-04-11T12:30:03Z</time>
      </trkpt>
      <trkpt lat="49.94015" lon="2.20986">
        <ele>29.2</ele>
        <time>2022-04-11T12:30:04Z</time>
      </trkpt>
      <trkpt lat="49.94015" lon="2.20986">
        <ele>29.2</ele>
        <time>2022-04-11T12:30:05Z</time>
      </trkpt>
      <trkpt lat="49.94015" lon="2.20986">
        <ele>29.2</ele>
        <time>2022-04-11T12:30:06Z</time>
      </trkpt>
      <trkpt lat="49.94015" lon="2.20986">
        <ele>29.2</ele>
        <time>2022-04-11T12:30:07Z</time>
      </trkpt>
      <trkpt lat="49.94015" lon="2.20986">
        <ele>29.2</ele>
        <time>2022-04-11T12:30:08Z</time>
      </trkpt>
      <trkpt lat="49.94015" lon="2.20986">
        <ele>29.2</ele>
        <time>2022-04-11T12:30:09Z</time>
      </trkpt>
      <trkpt lat="49.94015" lon="2.20986">
        <ele>29.2</ele>
        <time>2022-04-11T12:30:10Z</time>
      </trkpt>
      <trkpt lat="49.94015" lon="2.20986">
        <ele>29.2</ele>
        <time>2022-04-11T12:30:11Z</time>
      </trkpt>
      <trkpt lat="49.94015" lon="2.20986">
        <ele>29.2</ele>
        <time>2022-04-11T12:30:12Z</time>
      </trkpt>
      <trkpt lat="49.94015" lon="2.20986">
        <ele>29.2</ele>
        <time>2022-04-11T12:30:13Z</time>
      </trkpt>
      <trkpt lat="49.94015" lon="2.20986">
        <ele>29.2</ele>
        <time>2022-04-11T12:30:14Z</time>
      </trkpt>
      <trkpt lat="49.94015" lon="2.20986">
        <ele>29.2</ele>
        <time>2022-04-11T12:30:15Z</time>
      </trkpt>
      <trkpt lat="49.94015" lon="2.20986">
        <ele>29.2</ele>
        <time>2022-04-11T12:30:16Z</time>
      </trkpt>
      <trkpt lat="49.94015" lon="2.20986">
        <ele>29.2</ele>
        <time>2022-04-11T12:30:17Z</time>
      </trkpt>
      <trkpt lat="49.94015" lon="2.20986">
        <ele>29.2</ele>
        <time>2022-04-11T12:30:18Z</time>
      </trkpt>
      <trkpt lat="49.94015" lon="2.20986">
        <ele>29.2</ele>
        <time>2022-04-11T12:30:19Z</time>
      </trkpt>
      <trkpt lat="49.94015" lon="2.20986">
        <ele>29.2</ele>
        <time>2022-04-11T12:30:20Z</time>
      </trkpt>
      <trkpt lat="49.94015" lon="2.20986">
        <ele>29.2</ele>
        <time>2022-04-11T12:30:21Z</time>
      </trkpt>
      <trkpt lat="49.94015" lon="2.20986">
        <ele>29.2</ele>
        <time>2022-04-11T12:30:22Z</time>
      </trkpt>
      <trkpt lat="49.94015" lon="2.20986">
        <ele>29.2</ele>
        <time>2022-04-11T12:30:23Z</time>
      </trkpt>
      <trkpt lat="49.94015" lon="2.20986">
        <ele>29.2</ele>
        <time>2022-04-11T12:30:24Z</time>
      </trkpt>
      <trkpt lat="49.94015" lon="2.20986">
        <ele>29.2</ele>
        <time>2022-04-11T12:30:25Z</time>
      </trkpt>
      <trkpt lat="49.94015" lon="2.20986">
        <ele>29.2</ele>
        <time>2022-04-11T12:30:26Z</time>
      </trkpt>
      <trkpt lat="49.94015" lon="2.20986">
        <ele>29.2</ele>
        <time>2022-04-11T12:30:27Z</time>
      </trkpt>
      <trkpt lat="49.94015" lon="2.20986">
        <ele>29.2</ele>
        <time>2022-04-11T12:30:28Z</time>
      </trkpt>
      <trkpt lat="49.94015" lon="2.20986">
        <ele>29.2</ele>
        <time>2022-04-11T12:30:29Z</time>
      </trkpt>
      <trkpt lat="49.94015" lon="2.20986">
        <ele>29.2</ele>
        <time>2022-04-11T12:30:30Z</time>
      </trkpt>
      <trkpt lat="49.94015" lon="2.20986">
        <ele>29.2</ele>
        <time>2022-04-11T12:30:31Z</time>
      </trkpt>
      <trkpt lat="49.94015" lon="2.20986">
        <ele>29.2</ele>
        <time>2022-04-11T12:30:32Z</time>
      </trkpt>
      <trkpt lat="49.94015" lon="2.20986">
        <ele>29.2</ele>
        <time>2022-04-11T12:30:33Z</time>
      </trkpt>
      <trkpt lat="49.94015" lon="2.20986">
        <ele>29.2</ele>
        <time>2022-04-11T12:30:34Z</time>
      </trkpt>
      <trkpt lat="49.94015" lon="2.20986">
        <ele>29.2</ele>
        <time>2022-04-11T12:30:35Z</time>
      </trkpt>
      <trkpt lat="49.94015" lon="2.20986">
        <ele>29.2</ele>
        <time>2022-04-11T12:30:36Z</time>
      </trkpt>
      <trkpt lat="49.94015" lon="2.20986">
        <ele>29.2</ele>
        <time>2022-04-11T12:30:37Z</time>
      </trkpt>
      <trkpt lat="49.94015" lon="2.20986">
        <ele>29.2</ele>
        <time>2022-04-11T12:30:38Z</time>
      </trkpt>
      <trkpt lat="49.94015" lon="2.20986">
        <ele>29.2</ele>
        <time>2022-04-11T12:30:39Z</time>
      </trkpt>
      <trkpt lat="49.94015" lon="2.20986">
        <ele>29.2</ele>
        <time>2022-04-11T12:30:40Z</time>
      </trkpt>
      <trkpt lat="49.94015" lon="2.20986">
        <ele>29.2</ele>
        <time>2022-04-11T12:30:41Z</time>
      </trkpt>
      <trkpt lat="49.94015" lon="2.20986">
        <ele>29.2</ele>
        <time>2022-04-11T12:30:42Z</time>
      </trkpt>
      <trkpt lat="49.94015" lon="2.20986">
        <ele>29.2</ele>
        <time>2022-04-11T12:30:43Z</time>
      </trkpt>
      <trkpt lat="49.94015" lon="2.20986">
        <ele>29.2</ele>
        <time>2022-04-11T12:30:44Z</time>
      </trkpt>
      <trkpt lat="49.94015" lon="2.20986">
        <ele>29.2</ele>
        <time>2022-04-11T12:30:45Z</time>
      </trkpt>
      <trkpt lat="49.94015" lon="2.20986">
        <ele>29.2</ele>
        <time>2022-04-11T12:30:46Z</time>
      </trkpt>
      <trkpt lat="49.94015" lon="2.20986">
        <ele>29.2</ele>
        <time>2022-04-11T12:30:47Z</time>
      </trkpt>
      <trkpt lat="49.94015" lon="2.20986">
        <ele>29.2</ele>
        <time>2022-04-11T12:30:48Z</time>
      </trkpt>
      <trkpt lat="49.94015" lon="2.20986">
        <ele>29.2</ele>
        <time>2022-04-11T12:30:49Z</time>
      </trkpt>
      <trkpt lat="49.94015" lon="2.20986">
        <ele>29.2</ele>
        <time>2022-04-11T12:30:50Z</time>
      </trkpt>
      <trkpt lat="49.94015" lon="2.20986">
        <ele>29.2</ele>
        <time>2022-04-11T12:30:51Z</time>
      </trkpt>
      <trkpt lat="49.94015" lon="2.20986">
        <ele>29.2</ele>
        <time>2022-04-11T12:30:52Z</time>
      </trkpt>
      <trkpt lat="49.94015" lon="2.20986">
        <ele>29.2</ele>
        <time>2022-04-11T12:30:53Z</time>
      </trkpt>
      <trkpt lat="49.94015" lon="2.20986">
        <ele>29.2</ele>
        <time>2022-04-11T12:30:54Z</time>
      </trkpt>
      <trkpt lat="49.94015" lon="2.20986">
        <ele>29.2</ele>
        <time>2022-04-11T12:30:55Z</time>
      </trkpt>
      <trkpt lat="49.94015" lon="2.20986">
        <ele>29.2</ele>
        <time>2022-04-11T12:30:56Z</time>
      </trkpt>
      <trkpt lat="49.94015" lon="2.20986">
        <ele>29.2</ele>
        <time>2022-04-11T12:30:57Z</time>
      </trkpt>
      <trkpt lat="49.94015" lon="2.20986">
        <ele>29.2</ele>
        <time>2022-04-11T12:30:58Z</time>
      </trkpt>
      <trkpt lat="49.94015" lon="2.20986">
        <ele>29.2</ele>
        <time>2022-04-11T12:30:59Z</time>
      </trkpt>
      <trkpt lat="49.94015" lon="2.20986">
        <ele>29.2</ele>
        <time>2022-04-11T12:31:00Z</time>
      </trkpt>
      <trkpt lat="49.94015" lon="2.20986">
        <ele>29.2</ele>
        <time>2022-04-11T12:31:01Z</time>
      </trkpt>
      <trkpt lat="49.94015" lon="2.20986">
        <ele>29.2</ele>
        <time>2022-04-11T12:31:02Z</time>
      </trkpt>
      <trkpt lat="49.94015" lon="2.20986">
        <ele>29.2</ele>
        <time>2022-04-11T12:31:03Z</time>
      </trkpt>
      <trkpt lat="49.94015" lon="2.20986">
        <ele>29.2</ele>
        <time>2022-04-11T12:31:04Z</time>
      </trkpt>
      <trkpt lat="49.94015" lon="2.20986">
        <ele>29.2</ele>
        <time>2022-04-11T12:31:05Z</time>
      </trkpt>
      <trkpt lat="49.94015" lon="2.20986">
        <ele>29.2</ele>
        <time>2022-04-11T12:31:06Z</time>
      </trkpt>
      <trkpt lat="49.94015" lon="2.20986">
        <ele>29.2</ele>
        <time>2022-04-11T12:31:07Z</time>
      </trkpt>
      <trkpt lat="49.94015" lon="2.20986">
        <ele>29.2</ele>
        <time>2022-04-11T12:31:08Z</time>
      </trkpt>
      <trkpt lat="49.94015" lon="2.20986">
        <ele>29.2</ele>
        <time>2022-04-11T12:31:09Z</time>
      </trkpt>
      <trkpt lat="49.94015" lon="2.20986">
        <ele>29.2</ele>
        <time>2022-04-11T12:31:10Z</time>
      </trkpt>
      <trkpt lat="49.94015" lon="2.20986">
        <ele>29.2</ele>
        <time>2022-04-11T12:31:11Z</time>
      </trkpt>
      <trkpt lat="49.94015" lon="2.20986">
        <ele>29.2</ele>
        <time>2022-04-11T12:31:12Z</time>
      </trkpt>
      <trkpt lat="49.94015" lon="2.20986">
        <ele>29.2</ele>
        <time>2022-04-11T12:31:13Z</time>
      </trkpt>
      <trkpt lat="49.94015" lon="2.20986">
        <ele>29.2</ele>
        <time>2022-04-11T12:31:14Z</time>
      </trkpt>
      <trkpt lat="49.94015" lon="2.20986">
        <ele>29.2</ele>
        <time>2022-04-11T12:31:15Z</time>
      </trkpt>
      <trkpt lat="49.94015" lon="2.20986">
        <ele>29.2</ele>
        <time>2022-04-11T12:31:16Z</time>
      </trkpt>
      <trkpt lat="49.94015" lon="2.20986">
        <ele>29.2</ele>
        <time>2022-04-11T12:31:17Z</time>
      </trkpt>
      <trkpt lat="49.94015" lon="2.20986">
        <ele>29.2</ele>
        <time>2022-04-11T12:31:18Z</time>
      </trkpt>
      <trkpt lat="49.94015" lon="2.20986">
        <ele>29.2</ele>
        <time>2022-04-11T12:31:19Z</time>
      </trkpt>
      <trkpt lat="49.94015" lon="2.20986">
        <ele>29.2</ele>
        <time>2022-04-11T12:31:20Z</time>
      </trkpt>
      <trkpt lat="49.94015" lon="2.20986">
        <ele>29.2</ele>
        <time>2022-04-11T12:31:21Z</time>
      </trkpt>
      <trkpt lat="49.94015" lon="2.20986">
        <ele>29.2</ele>
        <time>2022-04-11T12:31:22Z</time>
      </trkpt>
      <trkpt lat="49.94015" lon="2.20986">
        <ele>29.2</ele>
        <time>2022-04-11T12:31:23Z</time>
      </trkpt>
      <trkpt lat="49.94015" lon="2.20986">
        <ele>29.2</ele>
        <time>2022-04-11T12:31:24Z</time>
      </trkpt>
      <trkpt lat="49.94015" lon="2.20986">
        <ele>29.2</ele>
        <time>2022-04-11T12:31:25Z</time>
      </trkpt>
      <trkpt lat="49.94015" lon="2.20986">
        <ele>29.2</ele>
        <time>2022-04-11T12:31:26Z</time>
      </trkpt>
      <trkpt lat="49.94015" lon="2.20986">
        <ele>29.2</ele>
        <time>2022-04-11T12:31:27Z</time>
      </trkpt>
      <trkpt lat="49.94015" lon="2.20986">
        <ele>29.2</ele>
        <time>2022-04-11T12:31:28Z</time>
      </trkpt>
      <trkpt lat="49.94015" lon="2.20986">
        <ele>29.2</ele>
        <time>2022-04-11T12:31:29Z</time>
      </trkpt>
      <trkpt lat="49.94015" lon="2.20986">
        <ele>29.2</ele>
        <time>2022-04-11T12:31:30Z</time>
      </trkpt>
      <trkpt lat="49.94015" lon="2.20986">
        <ele>29.2</ele>
        <time>2022-04-11T12:31:31Z</time>
      </trkpt>
      <trkpt lat="49.94015" lon="2.20986">
        <ele>29.2</ele>
        <time>2022-04-11T12:31:32Z</time>
      </trkpt>
      <trkpt lat="49.94015" lon="2.20986">
        <ele>29.2</ele>
        <time>2022-04-11T12:31:33Z</time>
      </trkpt>
      <trkpt lat="49.94015" lon="2.20986">
        <ele>29.2</ele>
        <time>2022-04-11T12:31:34Z</time>
      </trkpt>
      <trkpt lat="49.94015" lon="2.20986">
        <ele>29.2</ele>
        <time>2022-04-11T12:31:35Z</time>
      </trkpt>
      <trkpt lat="49.94015" lon="2.20986">
        <ele>29.2</ele>
        <time>2022-04-11T12:31:36Z</time>
      </trkpt>
      <trkpt lat="49.94015" lon="2.20986">
        <ele>29.2</ele>
        <time>2022-04-11T12:31:37Z</time>
      </trkpt>
      <trkpt lat="49.94015" lon="2.20986">
        <ele>29.2</ele>
        <time>2022-04-11T12:31:38Z</time>
      </trkpt>
      <trkpt lat="49.94015" lon="2.20986">
        <ele>29.2</ele>
        <time>2022-04-11T12:31:39Z</time>
      </trkpt>
      <trkpt lat="49.94015" lon="2.20986">
        <ele>29.2</ele>
        <time>2022-04-11T12:31:40Z</time>
      </trkpt>
      <trkpt lat="49.94015" lon="2.20986">
        <ele>29.2</ele>
        <time>2022-04-11T12:31:41Z</time>
      </trkpt>
      <trkpt lat="49.94015" lon="2.20986">
        <ele>29.2</ele>
        <time>2022-04-11T12:31:42Z</time>
      </trkpt>
      <trkpt lat="49.94015" lon="2.20986">
        <ele>29.2</ele>
        <time>2022-04-11T12:31:43Z</time>
      </trkpt>
      <trkpt lat="49.94015" lon="2.20986">
        <ele>29.2</ele>
        <time>2022-04-11T12:31:44Z</time>
      </trkpt>
      <trkpt lat="49.94015" lon="2.20986">
        <ele>29.2</ele>
        <time>2022-04-11T12:31:45Z</time>
      </trkpt>
      <trkpt lat="49.94015" lon="2.20986">
        <ele>29.2</ele>
        <time>2022-04-11T12:31:46Z</time>
      </trkpt>
      <trkpt lat="49.94015" lon="2.20986">
        <ele>29.2</ele>
        <time>2022-04-11T12:31:47Z</time>
      </trkpt>
      <trkpt lat="49.94015" lon="2.20986">
        <ele>29.2</ele>
        <time>2022-04-11T12:31:48Z</time>
      </trkpt>
      <trkpt lat="49.94015" lon="2.20986">
        <ele>29.2</ele>
        <time>2022-04-11T12:31:49Z</time>
      </trkpt>
      <trkpt lat="49.94015" lon="2.20986">
        <ele>29.2</ele>
        <time>2022-04-11T12:31:50Z</time>
      </trkpt>
      <trkpt lat="49.94015" lon="2.20986">
        <ele>29.2</ele>
        <time>2022-04-11T12:31:51Z</time>
      </trkpt>
      <trkpt lat="49.94015" lon="2.20986">
        <ele>29.2</ele>
        <time>2022-04-11T12:31:52Z</time>
      </trkpt>
      <trkpt lat="49.94015" lon="2.20986">
        <ele>29.2</ele>
        <time>2022-04-11T12:31:53Z</time>
      </trkpt>
      <trkpt lat="49.94015" lon="2.20986">
        <ele>29.2</ele>
        <time>2022-04-11T12:31:54Z</time>
      </trkpt>
      <trkpt lat="49.94015" lon="2.20986">
        <ele>29.2</ele>
        <time>2022-04-11T12:31:55Z</time>
      </trkpt>
      <trkpt lat="49.94015" lon="2.20986">
        <ele>29.2</ele>
        <time>2022-04-11T12:31:56Z</time>
      </trkpt>
      <trkpt lat="49.94015" lon="2.20986">
        <ele>29.2</ele>
        <time>2022-04-11T12:31:57Z</time>
      </trkpt>
      <trkpt lat="49.94015" lon="2.20986">
        <ele>29.2</ele>
        <time>2022-04-11T12:31:58Z</time>
      </trkpt>
      <trkpt lat="49.94015" lon="2.20986">
        <ele>29.2</ele>
        <time>2022-04-11T12:31:59Z</time>
      </trkpt>
      <trkpt lat="49.94015" lon="2.20986">
        <ele>29.2</ele>
        <time>2022-04-11T12:32:00Z</time>
      </trkpt>
      <trkpt lat="49.94015" lon="2.20986">
        <ele>29.2</ele>
        <time>2022-04-11T12:32:01Z</time>
      </trkpt>
      <trkpt lat="49.94015" lon="2.20986">
        <ele>29.2</ele>
        <time>2022-04-11T12:32:02Z</time>
      </trkpt>
      <trkpt lat="49.94015" lon="2.20986">
        <ele>29.2</ele>
        <time>2022-04-11T12:32:03Z</time>
      </trkpt>
      <trkpt lat="49.94015" lon="2.20986">
        <ele>29.2</ele>
        <time>2022-04-11T12:32:04Z</time>
      </trkpt>
      <trkpt lat="49.94015" lon="2.20986">
        <ele>29.2</ele>
        <time>2022-04-11T12:32:05Z</time>
      </trkpt>
      <trkpt lat="49.94015" lon="2.20986">
        <ele>29.2</ele>
        <time>2022-04-11T12:32:06Z</time>
      </trkpt>
      <trkpt lat="49.94015" lon="2.20986">
        <ele>29.2</ele>
        <time>2022-04-11T12:32:07Z</time>
      </trkpt>
      <trkpt lat="49.94015" lon="2.20986">
        <ele>29.2</ele>
        <time>2022-04-11T12:32:08Z</time>
      </trkpt>
      <trkpt lat="49.94015" lon="2.20986">
        <ele>29.2</ele>
        <time>2022-04-11T12:32:09Z</time>
      </trkpt>
      <trkpt lat="49.94015" lon="2.20986">
        <ele>29.2</ele>
        <time>2022-04-11T12:32:10Z</time>
      </trkpt>
      <trkpt lat="49.94015" lon="2.20986">
        <ele>29.2</ele>
        <time>2022-04-11T12:32:11Z</time>
      </trkpt>
      <trkpt lat="49.94015" lon="2.20986">
        <ele>29.2</ele>
        <time>2022-04-11T12:32:12Z</time>
      </trkpt>
      <trkpt lat="49.94015" lon="2.20986">
        <ele>29.2</ele>
        <time>2022-04-11T12:32:13Z</time>
      </trkpt>
      <trkpt lat="49.94015" lon="2.20986">
        <ele>29.2</ele>
        <time>2022-04-11T12:32:14Z</time>
      </trkpt>
      <trkpt lat="49.94015" lon="2.20986">
        <ele>29.2</ele>
        <time>2022-04-11T12:32:15Z</time>
      </trkpt>
      <trkpt lat="49.94015" lon="2.20986">
        <ele>29.2</ele>
        <time>2022-04-11T12:32:16Z</time>
      </trkpt>
      <trkpt lat="49.94015" lon="2.20986">
        <ele>29.2</ele>
        <time>2022-04-11T12:32:17Z</time>
      </trkpt>
      <trkpt lat="49.94015" lon="2.20986">
        <ele>29.2</ele>
        <time>2022-04-11T12:32:18Z</time>
      </trkpt>
      <trkpt lat="49.94015" lon="2.20986">
        <ele>29.2</ele>
        <time>2022-04-11T12:32:19Z</time>
      </trkpt>
      <trkpt lat="49.94015" lon="2.20986">
        <ele>29.2</ele>
        <time>2022-04-11T12:32:20Z</time>
      </trkpt>
      <trkpt lat="49.94015" lon="2.20986">
        <ele>29.2</ele>
        <time>2022-04-11T12:32:21Z</time>
      </trkpt>
      <trkpt lat="49.94015" lon="2.20986">
        <ele>29.2</ele>
        <time>2022-04-11T12:32:22Z</time>
      </trkpt>
      <trkpt lat="49.94015" lon="2.20986">
        <ele>29.2</ele>
        <time>2022-04-11T12:32:23Z</time>
      </trkpt>
      <trkpt lat="49.94015" lon="2.20986">
        <ele>29.2</ele>
        <time>2022-04-11T12:32:24Z</time>
      </trkpt>
      <trkpt lat="49.94015" lon="2.20986">
        <ele>29.2</ele>
        <time>2022-04-11T12:32:25Z</time>
      </trkpt>
      <trkpt lat="49.94015" lon="2.20986">
        <ele>29.2</ele>
        <time>2022-04-11T12:32:26Z</time>
      </trkpt>
      <trkpt lat="49.94015" lon="2.20986">
        <ele>29.2</ele>
        <time>2022-04-11T12:32:27Z</time>
      </trkpt>
      <trkpt lat="49.94015" lon="2.20986">
        <ele>29.2</ele>
        <time>2022-04-11T12:32:28Z</time>
      </trkpt>
      <trkpt lat="49.94015" lon="2.20986">
        <ele>29.2</ele>
        <time>2022-04-11T12:32:29Z</time>
      </trkpt>
      <trkpt lat="49.94015" lon="2.20986">
        <ele>29.2</ele>
        <time>2022-04-11T12:32:30Z</time>
      </trkpt>
      <trkpt lat="49.94015" lon="2.20986">
        <ele>29.2</ele>
        <time>2022-04-11T12:32:31Z</time>
      </trkpt>
      <trkpt lat="49.94015" lon="2.20986">
        <ele>29.2</ele>
        <time>2022-04-11T12:32:32Z</time>
      </trkpt>
      <trkpt lat="49.94015" lon="2.20986">
        <ele>29.2</ele>
        <time>2022-04-11T12:32:33Z</time>
      </trkpt>
      <trkpt lat="49.94015" lon="2.20986">
        <ele>29.2</ele>
        <time>2022-04-11T12:32:34Z</time>
      </trkpt>
      <trkpt lat="49.94015" lon="2.20986">
        <ele>29.2</ele>
        <time>2022-04-11T12:32:35Z</time>
      </trkpt>
      <trkpt lat="49.94015" lon="2.20986">
        <ele>29.2</ele>
        <time>2022-04-11T12:32:36Z</time>
      </trkpt>
      <trkpt lat="49.94015" lon="2.20986">
        <ele>29.2</ele>
        <time>2022-04-11T12:32:37Z</time>
      </trkpt>
      <trkpt lat="49.94015" lon="2.20986">
        <ele>29.2</ele>
        <time>2022-04-11T12:32:38Z</time>
      </trkpt>
      <trkpt lat="49.94015" lon="2.20986">
        <ele>29.2</ele>
        <time>2022-04-11T12:32:39Z</time>
      </trkpt>
      <trkpt lat="49.94015" lon="2.20986">
        <ele>29.2</ele>
        <time>2022-04-11T12:32:40Z</time>
      </trkpt>
      <trkpt lat="49.94015" lon="2.20986">
        <ele>29.2</ele>
        <time>2022-04-11T12:32:41Z</time>
      </trkpt>
      <trkpt lat="49.94015" lon="2.20986">
        <ele>29.2</ele>
        <time>2022-04-11T12:32:42Z</time>
      </trkpt>
      <trkpt lat="49.94015" lon="2.20986">
        <ele>29.2</ele>
        <time>2022-04-11T12:32:43Z</time>
      </trkpt>
      <trkpt lat="49.94015" lon="2.20986">
        <ele>29.2</ele>
        <time>2022-04-11T12:32:44Z</time>
      </trkpt>
      <trkpt lat="49.94015" lon="2.20986">
        <ele>29.2</ele>
        <time>2022-04-11T12:32:45Z</time>
      </trkpt>
      <trkpt lat="49.94015" lon="2.20986">
        <ele>29.2</ele>
        <time>2022-04-11T12:32:46Z</time>
      </trkpt>
      <trkpt lat="49.94015" lon="2.20986">
        <ele>29.2</ele>
        <time>2022-04-11T12:32:47Z</time>
      </trkpt>
      <trkpt lat="49.94015" lon="2.20986">
        <ele>29.2</ele>
        <time>2022-04-11T12:32:48Z</time>
      </trkpt>
      <trkpt lat="49.94015" lon="2.20986">
        <ele>29.2</ele>
        <time>2022-04-11T12:32:49Z</time>
      </trkpt>
      <trkpt lat="49.94015" lon="2.20986">
        <ele>29.2</ele>
        <time>2022-04-11T12:32:50Z</time>
      </trkpt>
      <trkpt lat="49.94015" lon="2.20986">
        <ele>29.2</ele>
        <time>2022-04-11T12:32:51Z</time>
      </trkpt>
      <trkpt lat="49.94015" lon="2.20986">
        <ele>29.2</ele>
        <time>2022-04-11T12:32:52Z</time>
      </trkpt>
      <trkpt lat="49.94015" lon="2.20986">
        <ele>29.2</ele>
        <time>2022-04-11T12:32:53Z</time>
      </trkpt>
      <trkpt lat="49.94015" lon="2.20986">
        <ele>29.2</ele>
        <time>2022-04-11T12:32:54Z</time>
      </trkpt>
      <trkpt lat="49.94015" lon="2.20986">
        <ele>29.2</ele>
        <time>2022-04-11T12:32:55Z</time>
      </trkpt>
      <trkpt lat="49.94015" lon="2.20986">
        <ele>29.2</ele>
        <time>2022-04-11T12:32:56Z</time>
      </trkpt>
      <trkpt lat="49.94015" lon="2.20986">
        <ele>29.2</ele>
        <time>2022-04-11T12:32:57Z</time>
      </trkpt>
      <trkpt lat="49.94015" lon="2.20986">
        <ele>29.2</ele>
        <time>2022-04-11T12:32:58Z</time>
      </trkpt>
      <trkpt lat="49.94015" lon="2.20986">
        <ele>29.2</ele>
        <time>2022-04-11T12:32:59Z</time>
      </trkpt>
      <trkpt lat="49.94015" lon="2.20986">
        <ele>29.2</ele>
        <time>2022-04-11T12:33:00Z</time>
      </trkpt>
      <trkpt lat="49.94015" lon="2.20986">
        <ele>29.2</ele>
        <time>2022-04-11T12:33:01Z</time>
      </trkpt>
      <trkpt lat="49.94015" lon="2.20986">
        <ele>29.2</ele>
        <time>2022-04-11T12:33:02Z</time>
      </trkpt>
      <trkpt lat="49.94015" lon="2.20986">
        <ele>29.2</ele>
        <time>2022-04-11T12:33:03Z</time>
      </trkpt>
      <trkpt lat="49.94015" lon="2.20986">
        <ele>29.2</ele>
        <time>2022-04-11T12:33:04Z</time>
      </trkpt>
      <trkpt lat="49.94015" lon="2.20986">
        <ele>29.2</ele>
        <time>2022-04-11T12:33:05Z</time>
      </trkpt>
      <trkpt lat="49.94015" lon="2.20986">
        <ele>29.2</ele>
        <time>2022-04-11T12:33:06Z</time>
      </trkpt>
      <trkpt lat="49.94015" lon="2.20986">
        <ele>29.2</ele>
        <time>2022-04-11T12:33:07Z</time>
      </trkpt>
      <trkpt lat="49.94015" lon="2.20986">
        <ele>29.2</ele>
        <time>2022-04-11T12:33:08Z</time>
      </trkpt>
      <trkpt lat="49.94015" lon="2.20986">
        <ele>29.2</ele>
        <time>2022-04-11T12:33:09Z</time>
      </trkpt>
      <trkpt lat="49.94015" lon="2.20986">
        <ele>29.2</ele>
        <time>2022-04-11T12:33:10Z</time>
      </trkpt>
      <trkpt lat="49.94015" lon="2.20986">
        <ele>29.2</ele>
        <time>2022-04-11T12:33:11Z</time>
      </trkpt>
      <trkpt lat="49.94015" lon="2.20986">
        <ele>29.2</ele>
        <time>2022-04-11T12:33:12Z</time>
      </trkpt>
      <trkpt lat="49.94015" lon="2.20986">
        <ele>29.2</ele>
        <time>2022-04-11T12:33:13Z</time>
      </trkpt>
      <trkpt lat="49.94015" lon="2.20986">
        <ele>29.2</ele>
        <time>2022-04-11T12:33:14Z</time>
      </trkpt>
      <trkpt lat="49.94015" lon="2.20986">
        <ele>29.2</ele>
        <time>2022-04-11T12:33:15Z</time>
      </trkpt>
      <trkpt lat="49.94015" lon="2.20986">
        <ele>29.2</ele>
        <time>2022-04-11T12:33:16Z</time>
      </trkpt>
      <trkpt lat="49.94015" lon="2.20986">
        <ele>29.2</ele>
        <time>2022-04-11T12:33:17Z</time>
      </trkpt>
      <trkpt lat="49.94015" lon="2.20986">
        <ele>29.2</ele>
        <time>2022-04-11T12:33:18Z</time>
      </trkpt>
      <trkpt lat="49.94015" lon="2.20986">
        <ele>29.2</ele>
        <time>2022-04-11T12:33:19Z</time>
      </trkpt>
      <trkpt lat="49.94015" lon="2.20986">
        <ele>29.2</ele>
        <time>2022-04-11T12:33:20Z</time>
      </trkpt>
      <trkpt lat="49.94015" lon="2.20986">
        <ele>29.2</ele>
        <time>2022-04-11T12:33:21Z</time>
      </trkpt>
      <trkpt lat="49.94015" lon="2.20986">
        <ele>29.2</ele>
        <time>2022-04-11T12:33:22Z</time>
      </trkpt>
      <trkpt lat="49.94015" lon="2.20986">
        <ele>29.2</ele>
        <time>2022-04-11T12:33:23Z</time>
      </trkpt>
      <trkpt lat="49.94015" lon="2.20986">
        <ele>29.2</ele>
        <time>2022-04-11T12:33:24Z</time>
      </trkpt>
      <trkpt lat="49.94015" lon="2.20986">
        <ele>29.2</ele>
        <time>2022-04-11T12:33:25Z</time>
      </trkpt>
      <trkpt lat="49.94015" lon="2.20986">
        <ele>29.2</ele>
        <time>2022-04-11T12:33:26Z</time>
      </trkpt>
      <trkpt lat="49.94015" lon="2.20986">
        <ele>29.2</ele>
        <time>2022-04-11T12:33:27Z</time>
      </trkpt>
      <trkpt lat="49.94015" lon="2.20986">
        <ele>29.2</ele>
        <time>2022-04-11T12:33:28Z</time>
      </trkpt>
      <trkpt lat="49.94015" lon="2.20986">
        <ele>29.2</ele>
        <time>2022-04-11T12:33:29Z</time>
      </trkpt>
      <trkpt lat="49.94015" lon="2.20986">
        <ele>29.2</ele>
        <time>2022-04-11T12:33:30Z</time>
      </trkpt>
      <trkpt lat="49.94015" lon="2.20986">
        <ele>29.2</ele>
        <time>2022-04-11T12:33:31Z</time>
      </trkpt>
      <trkpt lat="49.94015" lon="2.20986">
        <ele>29.2</ele>
        <time>2022-04-11T12:33:32Z</time>
      </trkpt>
      <trkpt lat="49.94015" lon="2.20986">
        <ele>29.2</ele>
        <time>2022-04-11T12:33:33Z</time>
      </trkpt>
      <trkpt lat="49.94015" lon="2.20986">
        <ele>29.2</ele>
        <time>2022-04-11T12:33:34Z</time>
      </trkpt>
      <trkpt lat="49.94015" lon="2.20986">
        <ele>29.2</ele>
        <time>2022-04-11T12:33:35Z</time>
      </trkpt>
      <trkpt lat="49.94015" lon="2.20986">
        <ele>29.2</ele>
        <time>2022-04-11T12:33:36Z</time>
      </trkpt>
      <trkpt lat="49.94015" lon="2.20986">
        <ele>29.2</ele>
        <time>2022-04-11T12:33:37Z</time>
      </trkpt>
      <trkpt lat="49.94015" lon="2.20986">
        <ele>29.2</ele>
        <time>2022-04-11T12:33:38Z</time>
      </trkpt>
      <trkpt lat="49.94015" lon="2.20986">
        <ele>29.2</ele>
        <time>2022-04-11T12:33:39Z</time>
      </trkpt>
      <trkpt lat="49.94015" lon="2.20986">
        <ele>29.2</ele>
        <time>2022-04-11T12:33:40Z</time>
      </trkpt>
      <trkpt lat="49.94015" lon="2.20986">
        <ele>29.2</ele>
        <time>2022-04-11T12:33:41Z</time>
      </trkpt>
      <trkpt lat="49.94015" lon="2.20986">
        <ele>29.2</ele>
        <time>2022-04-11T12:33:42Z</time>
      </trkpt>
      <trkpt lat="49.94015" lon="2.20986">
        <ele>29.2</ele>
        <time>2022-04-11T12:33:43Z</time>
      </trkpt>
      <trkpt lat="49.94015" lon="2.20986">
        <ele>29.2</ele>
        <time>2022-04-11T12:33:44Z</time>
      </trkpt>
      <trkpt lat="49.94015" lon="2.20986">
        <ele>29.2</ele>
        <time>2022-04-11T12:33:45Z</time>
      </trkpt>
      <trkpt lat="49.94015" lon="2.20986">
        <ele>29.2</ele>
        <time>2022-04-11T12:33:46Z</time>
      </trkpt>
      <trkpt lat="49.94015" lon="2.20986">
        <ele>29.2</ele>
        <time>2022-04-11T12:33:47Z</time>
      </trkpt>
      <trkpt lat="49.94015" lon="2.20986">
        <ele>29.2</ele>
        <time>2022-04-11T12:33:48Z</time>
      </trkpt>
      <trkpt lat="49.94015" lon="2.20986">
        <ele>29.2</ele>
        <time>2022-04-11T12:33:49Z</time>
      </trkpt>
      <trkpt lat="49.94015" lon="2.20986">
        <ele>29.2</ele>
        <time>2022-04-11T12:33:50Z</time>
      </trkpt>
      <trkpt lat="49.94015" lon="2.20986">
        <ele>29.2</ele>
        <time>2022-04-11T12:33:51Z</time>
      </trkpt>
      <trkpt lat="49.94015" lon="2.20986">
        <ele>29.2</ele>
        <time>2022-04-11T12:33:52Z</time>
      </trkpt>
      <trkpt lat="49.94015" lon="2.20986">
        <ele>29.2</ele>
        <time>2022-04-11T12:33:53Z</time>
      </trkpt>
      <trkpt lat="49.94015" lon="2.20986">
        <ele>29.2</ele>
        <time>2022-04-11T12:33:54Z</time>
      </trkpt>
      <trkpt lat="49.94015" lon="2.20986">
        <ele>29.2</ele>
        <time>2022-04-11T12:33:55Z</time>
      </trkpt>
      <trkpt lat="49.94015" lon="2.20986">
        <ele>29.2</ele>
        <time>2022-04-11T12:33:56Z</time>
      </trkpt>
      <trkpt lat="49.94015" lon="2.20986">
        <ele>29.2</ele>
        <time>2022-04-11T12:33:57Z</time>
      </trkpt>
      <trkpt lat="49.94015" lon="2.20986">
        <ele>29.2</ele>
        <time>2022-04-11T12:33:58Z</time>
      </trkpt>
      <trkpt lat="49.94015" lon="2.20986">
        <ele>29.2</ele>
        <time>2022-04-11T12:33:59Z</time>
      </trkpt>
      <trkpt lat="49.94015" lon="2.20986">
        <ele>29.2</ele>
        <time>2022-04-11T12:34:00Z</time>
      </trkpt>
      <trkpt lat="49.94015" lon="2.20986">
        <ele>29.2</ele>
        <time>2022-04-11T12:34:01Z</time>
      </trkpt>
      <trkpt lat="49.94015" lon="2.20986">
        <ele>29.2</ele>
        <time>2022-04-11T12:34:02Z</time>
      </trkpt>
      <trkpt lat="49.94015" lon="2.20986">
        <ele>29.2</ele>
        <time>2022-04-11T12:34:03Z</time>
      </trkpt>
      <trkpt lat="49.94015" lon="2.20986">
        <ele>29.2</ele>
        <time>2022-04-11T12:34:04Z</time>
      </trkpt>
      <trkpt lat="49.94015" lon="2.20986">
        <ele>29.2</ele>
        <time>2022-04-11T12:34:05Z</time>
      </trkpt>
      <trkpt lat="49.94015" lon="2.20986">
        <ele>29.2</ele>
        <time>2022-04-11T12:34:06Z</time>
      </trkpt>
      <trkpt lat="49.94015" lon="2.20986">
        <ele>29.2</ele>
        <time>2022-04-11T12:34:07Z</time>
      </trkpt>
      <trkpt lat="49.94015" lon="2.20986">
        <ele>29.2</ele>
        <time>2022-04-11T12:34:08Z</time>
      </trkpt>
      <trkpt lat="49.94015" lon="2.20986">
        <ele>29.2</ele>
        <time>2022-04-11T12:34:09Z</time>
      </trkpt>
      <trkpt lat="49.94015" lon="2.20986">
        <ele>29.2</ele>
        <time>2022-04-11T12:34:10Z</time>
      </trkpt>
      <trkpt lat="49.94015" lon="2.20986">
        <ele>29.2</ele>
        <time>2022-04-11T12:34:11Z</time>
      </trkpt>
      <trkpt lat="49.94015" lon="2.20986">
        <ele>29.2</ele>
        <time>2022-04-11T12:34:12Z</time>
      </trkpt>
      <trkpt lat="49.94015" lon="2.20986">
        <ele>29.2</ele>
        <time>2022-04-11T12:34:13Z</time>
      </trkpt>
      <trkpt lat="49.94015" lon="2.20986">
        <ele>29.2</ele>
        <time>2022-04-11T12:34:14Z</time>
      </trkpt>
      <trkpt lat="49.94015" lon="2.20986">
        <ele>29.2</ele>
        <time>2022-04-11T12:34:15Z</time>
      </trkpt>
      <trkpt lat="49.94015" lon="2.20986">
        <ele>29.2</ele>
        <time>2022-04-11T12:34:16Z</time>
      </trkpt>
      <trkpt lat="49.94015" lon="2.20986">
        <ele>29.2</ele>
        <time>2022-04-11T12:34:17Z</time>
      </trkpt>
      <trkpt lat="49.94015" lon="2.20986">
        <ele>29.2</ele>
        <time>2022-04-11T12:34:18Z</time>
      </trkpt>
      <trkpt lat="49.94015" lon="2.20986">
        <ele>29.2</ele>
        <time>2022-04-11T12:34:19Z</time>
      </trkpt>
      <trkpt lat="49.94015" lon="2.20986">
        <ele>29.2</ele>
        <time>2022-04-11T12:34:20Z</time>
      </trkpt>
      <trkpt lat="49.94015" lon="2.20986">
        <ele>29.2</ele>
        <time>2022-04-11T12:34:21Z</time>
      </trkpt>
      <trkpt lat="49.94015" lon="2.20986">
        <ele>29.2</ele>
        <time>2022-04-11T12:34:22Z</time>
      </trkpt>
      <trkpt lat="49.94015" lon="2.20986">
        <ele>29.2</ele>
        <time>2022-04-11T12:34:23Z</time>
      </trkpt>
      <trkpt lat="49.94015" lon="2.20986">
        <ele>29.2</ele>
        <time>2022-04-11T12:34:24Z</time>
      </trkpt>
      <trkpt lat="49.94015" lon="2.20986">
        <ele>29.2</ele>
        <time>2022-04-11T12:34:25Z</time>
      </trkpt>
      <trkpt lat="49.94015" lon="2.20986">
        <ele>29.2</ele>
        <time>2022-04-11T12:34:26Z</time>
      </trkpt>
      <trkpt lat="49.94015" lon="2.20986">
        <ele>29.2</ele>
        <time>2022-04-11T12:34:27Z</time>
      </trkpt>
      <trkpt lat="49.94015" lon="2.20986">
        <ele>29.2</ele>
        <time>2022-04-11T12:34:28Z</time>
      </trkpt>
      <trkpt lat="49.94015" lon="2.20986">
        <ele>29.2</ele>
        <time>2022-04-11T12:34:29Z</time>
      </trkpt>
      <trkpt lat="49.94015" lon="2.20986">
        <ele>29.2</ele>
        <time>2022-04-11T12:34:30Z</time>
      </trkpt>
      <trkpt lat="49.94015" lon="2.20986">
        <ele>29.2</ele>
        <time>2022-04-11T12:34:31Z</time>
      </trkpt>
      <trkpt lat="49.94015" lon="2.20986">
        <ele>29.2</ele>
        <time>2022-04-11T12:34:32Z</time>
      </trkpt>
      <trkpt lat="49.94015" lon="2.20986">
        <ele>29.2</ele>
        <time>2022-04-11T12:34:33Z</time>
      </trkpt>
      <trkpt lat="49.94015" lon="2.20986">
        <ele>29.2</ele>
        <time>2022-04-11T12:34:34Z</time>
      </trkpt>
      <trkpt lat="49.94015" lon="2.20986">
        <ele>29.2</ele>
        <time>2022-04-11T12:34:35Z</time>
      </trkpt>
      <trkpt lat="49.94015" lon="2.20986">
        <ele>29.2</ele>
        <time>2022-04-11T12:34:36Z</time>
      </trkpt>
      <trkpt lat="49.94015" lon="2.20986">
        <ele>29.2</ele>
        <time>2022-04-11T12:34:37Z</time>
      </trkpt>
      <trkpt lat="49.94015" lon="2.20986">
        <ele>29.2</ele>
        <time>2022-04-11T12:34:38Z</time>
      </trkpt>
      <trkpt lat="49.94015" lon="2.20986">
        <ele>29.2</ele>
        <time>2022-04-11T12:34:39Z</time>
      </trkpt>
      <trkpt lat="49.94015" lon="2.20986">
        <ele>29.2</ele>
        <time>2022-04-11T12:34:40Z</time>
      </trkpt>
      <trkpt lat="49.94015" lon="2.20986">
        <ele>29.2</ele>
        <time>2022-04-11T12:34:41Z</time>
      </trkpt>
      <trkpt lat="49.94015" lon="2.20986">
        <ele>29.2</ele>
        <time>2022-04-11T12:34:42Z</time>
      </trkpt>
      <trkpt lat="49.94015" lon="2.20986">
        <ele>29.2</ele>
        <time>2022-04-11T12:34:43Z</time>
      </trkpt>
      <trkpt lat="49.94015" lon="2.20986">
        <ele>29.2</ele>
        <time>2022-04-11T12:34:44Z</time>
      </trkpt>
      <trkpt lat="49.94015" lon="2.20986">
        <ele>29.2</ele>
        <time>2022-04-11T12:34:45Z</time>
      </trkpt>
      <trkpt lat="49.94015" lon="2.20986">
        <ele>29.2</ele>
        <time>2022-04-11T12:34:46Z</time>
      </trkpt>
      <trkpt lat="49.94015" lon="2.20986">
        <ele>29.2</ele>
        <time>2022-04-11T12:34:47Z</time>
      </trkpt>
      <trkpt lat="49.94015" lon="2.20986">
        <ele>29.2</ele>
        <time>2022-04-11T12:34:48Z</time>
      </trkpt>
      <trkpt lat="49.94015" lon="2.20986">
        <ele>29.2</ele>
        <time>2022-04-11T12:34:49Z</time>
      </trkpt>
      <trkpt lat="49.94015" lon="2.20986">
        <ele>29.2</ele>
        <time>2022-04-11T12:34:50Z</time>
      </trkpt>
      <trkpt lat="49.94015" lon="2.20986">
        <ele>29.2</ele>
        <time>2022-04-11T12:34:51Z</time>
      </trkpt>
      <trkpt lat="49.94015" lon="2.20986">
        <ele>29.2</ele>
        <time>2022-04-11T12:34:52Z</time>
      </trkpt>
      <trkpt lat="49.94015" lon="2.20986">
        <ele>29.2</ele>
        <time>2022-04-11T12:34:53Z</time>
      </trkpt>
      <trkpt lat="49.94015" lon="2.20986">
        <ele>29.2</ele>
        <time>2022-04-11T12:34:54Z</time>
      </trkpt>
      <trkpt lat="49.94015" lon="2.20986">
        <ele>29.2</ele>
        <time>2022-04-11T12:34:55Z</time>
      </trkpt>
      <trkpt lat="49.94015" lon="2.20986">
        <ele>29.2</ele>
        <time>2022-04-11T12:34:56Z</time>
      </trkpt>
      <trkpt lat="49.94015" lon="2.20986">
        <ele>29.2</ele>
        <time>2022-04-11T12:34:57Z</time>
      </trkpt>
      <trkpt lat="49.94015" lon="2.20986">
        <ele>29.2</ele>
        <time>2022-04-11T12:34:58Z</time>
      </trkpt>
      <trkpt lat="49.94015" lon="2.20986">
        <ele>29.2</ele>
        <time>2022-04-11T12:34:59Z</time>
      </trkpt>
      <trkpt lat="49.94015" lon="2.20986">
        <ele>29.2</ele>
        <time>2022-04-11T12:35:00Z</time>
      </trkpt>
      <trkpt lat="49.94015" lon="2.20986">
        <ele>29.2</ele>
        <time>2022-04-11T12:35:01Z</time>
      </trkpt>
      <trkpt lat="49.94015" lon="2.20986">
        <ele>29.2</ele>
        <time>2022-04-11T12:35:02Z</time>
      </trkpt>
      <trkpt lat="49.94015" lon="2.20986">
        <ele>29.2</ele>
        <time>2022-04-11T12:35:03Z</time>
      </trkpt>
      <trkpt lat="49.94015" lon="2.20986">
        <ele>29.2</ele>
        <time>2022-04-11T12:35:04Z</time>
      </trkpt>
      <trkpt lat="49.94015" lon="2.20986">
        <ele>29.2</ele>
        <time>2022-04-11T12:35:05Z</time>
      </trkpt>
      <trkpt lat="49.94015" lon="2.20986">
        <ele>29.2</ele>
        <time>2022-04-11T12:35:06Z</time>
      </trkpt>
      <trkpt lat="49.94015" lon="2.20986">
        <ele>29.2</ele>
        <time>2022-04-11T12:35:07Z</time>
      </trkpt>
      <trkpt lat="49.94015" lon="2.20986">
        <ele>29.2</ele>
        <time>2022-04-11T12:35:08Z</time>
      </trkpt>
      <trkpt lat="49.94015" lon="2.20986">
        <ele>29.2</ele>
        <time>2022-04-11T12:35:09Z</time>
      </trkpt>
      <trkpt lat="49.94015" lon="2.20986">
        <ele>29.2</ele>
        <time>2022-04-11T12:35:10Z</time>
      </trkpt>
      <trkpt lat="49.94015" lon="2.20986">
        <ele>29.2</ele>
        <time>2022-04-11T12:35:11Z</time>
      </trkpt>
      <trkpt lat="49.94015" lon="2.20986">
        <ele>29.2</ele>
        <time>2022-04-11T12:35:12Z</time>
      </trkpt>
      <trkpt lat="49.94015" lon="2.20986">
        <ele>29.2</ele>
        <time>2022-04-11T12:35:13Z</time>
      </trkpt>
      <trkpt lat="49.94015" lon="2.20986">
        <ele>29.2</ele>
        <time>2022-04-11T12:35:14Z</time>
      </trkpt>
      <trkpt lat="49.94015" lon="2.20986">
        <ele>29.2</ele>
        <time>2022-04-11T12:35:15Z</time>
      </trkpt>
      <trkpt lat="49.94015" lon="2.20986">
        <ele>29.2</ele>
        <time>2022-04-11T12:35:16Z</time>
      </trkpt>
      <trkpt lat="49.94015" lon="2.20986">
        <ele>29.2</ele>
        <time>2022-04-11T12:35:17Z</time>
      </trkpt>
      <trkpt lat="49.94015" lon="2.20986">
        <ele>29.2</ele>
        <time>2022-04-11T12:35:18Z</time>
      </trkpt>
      <trkpt lat="49.94015" lon="2.20986">
        <ele>29.2</ele>
        <time>2022-04-11T12:35:19Z</time>
      </trkpt>
      <trkpt lat="49.94015" lon="2.20986">
        <ele>29.2</ele>
        <time>2022-04-11T12:35:20Z</time>
      </trkpt>
      <trkpt lat="49.94015" lon="2.20986">
        <ele>29.2</ele>
        <time>2022-04-11T12:35:21Z</time>
      </trkpt>
      <trkpt lat="49.94015" lon="2.20986">
        <ele>29.2</ele>
        <time>2022-04-11T12:35:22Z</time>
      </trkpt>
      <trkpt lat="49.94015" lon="2.20986">
        <ele>29.2</ele>
        <time>2022-04-11T12:35:23Z</time>
      </trkpt>
      <trkpt lat="49.94015" lon="2.20986">
        <ele>29.2</ele>
        <time>2022-04-11T12:35:24Z</time>
      </trkpt>
      <trkpt lat="49.94015" lon="2.20986">
        <ele>29.2</ele>
        <time>2022-04-11T12:35:25Z</time>
      </trkpt>
      <trkpt lat="49.94015" lon="2.20986">
        <ele>29.2</ele>
        <time>2022-04-11T12:35:26Z</time>
      </trkpt>
      <trkpt lat="49.94015" lon="2.20986">
        <ele>29.2</ele>
        <time>2022-04-11T12:35:27Z</time>
      </trkpt>
      <trkpt lat="49.94015" lon="2.20986">
        <ele>29.2</ele>
        <time>2022-04-11T12:35:28Z</time>
      </trkpt>
      <trkpt lat="49.94015" lon="2.20986">
        <ele>29.2</ele>
        <time>2022-04-11T12:35:29Z</time>
      </trkpt>
      <trkpt lat="49.94015" lon="2.20986">
        <ele>29.2</ele>
        <time>2022-04-11T12:35:30Z</time>
      </trkpt>
      <trkpt lat="49.94015" lon="2.20986">
        <ele>29.2</ele>
        <time>2022-04-11T12:35:31Z</time>
      </trkpt>
      <trkpt lat="49.94015" lon="2.20986">
        <ele>29.2</ele>
        <time>2022-04-11T12:35:32Z</time>
      </trkpt>
      <trkpt lat="49.94015" lon="2.20986">
        <ele>29.2</ele>
        <time>2022-04-11T12:35:33Z</time>
      </trkpt>
      <trkpt lat="49.94015" lon="2.20986">
        <ele>29.2</ele>
        <time>2022-04-11T12:35:34Z</time>
      </trkpt>
      <trkpt lat="49.94015" lon="2.20986">
        <ele>29.2</ele>
        <time>2022-04-11T12:35:35Z</time>
      </trkpt>
      <trkpt lat="49.94015" lon="2.20986">
        <ele>29.2</ele>
        <time>2022-04-11T12:35:36Z</time>
      </trkpt>
      <trkpt lat="49.94015" lon="2.20986">
        <ele>29.2</ele>
        <time>2022-04-11T12:35:37Z</time>
      </trkpt>
      <trkpt lat="49.94015" lon="2.20986">
        <ele>29.2</ele>
        <time>2022-04-11T12:35:38Z</time>
      </trkpt>
      <trkpt lat="49.94015" lon="2.20986">
        <ele>29.2</ele>
        <time>2022-04-11T12:35:39Z</time>
      </trkpt>
      <trkpt lat="49.94015" lon="2.20986">
        <ele>29.2</ele>
        <time>2022-04-11T12:35:40Z</time>
      </trkpt>
      <trkpt lat="49.94015" lon="2.20986">
        <ele>29.2</ele>
        <time>2022-04-11T12:35:41Z</time>
      </trkpt>
      <trkpt lat="49.94015" lon="2.20986">
        <ele>29.2</ele>
        <time>2022-04-11T12:35:42Z</time>
      </trkpt>
      <trkpt lat="49.94015" lon="2.20986">
        <ele>29.2</ele>
        <time>2022-04-11T12:35:43Z</time>
      </trkpt>
      <trkpt lat="49.94015" lon="2.20986">
        <ele>29.2</ele>
        <time>2022-04-11T12:35:44Z</time>
      </trkpt>
      <trkpt lat="49.94015" lon="2.20986">
        <ele>29.2</ele>
        <time>2022-04-11T12:35:45Z</time>
      </trkpt>
      <trkpt lat="49.94015" lon="2.20986">
        <ele>29.2</ele>
        <time>2022-04-11T12:35:46Z</time>
      </trkpt>
      <trkpt lat="49.94015" lon="2.20986">
        <ele>29.2</ele>
        <time>2022-04-11T12:35:47Z</time>
      </trkpt>
      <trkpt lat="49.94015" lon="2.20986">
        <ele>29.2</ele>
        <time>2022-04-11T12:35:48Z</time>
      </trkpt>
      <trkpt lat="49.94015" lon="2.20986">
        <ele>29.2</ele>
        <time>2022-04-11T12:35:49Z</time>
      </trkpt>
      <trkpt lat="49.94015" lon="2.20986">
        <ele>29.2</ele>
        <time>2022-04-11T12:35:50Z</time>
      </trkpt>
      <trkpt lat="49.94015" lon="2.20986">
        <ele>29.2</ele>
        <time>2022-04-11T12:35:51Z</time>
      </trkpt>
      <trkpt lat="49.94015" lon="2.20986">
        <ele>29.2</ele>
        <time>2022-04-11T12:35:52Z</time>
      </trkpt>
      <trkpt lat="49.94015" lon="2.20986">
        <ele>29.2</ele>
        <time>2022-04-11T12:35:53Z</time>
      </trkpt>
      <trkpt lat="49.94015" lon="2.20986">
        <ele>29.2</ele>
        <time>2022-04-11T12:35:54Z</time>
      </trkpt>
      <trkpt lat="49.94015" lon="2.20986">
        <ele>29.2</ele>
        <time>2022-04-11T12:35:55Z</time>
      </trkpt>
      <trkpt lat="49.94015" lon="2.20986">
        <ele>29.2</ele>
        <time>2022-04-11T12:35:56Z</time>
      </trkpt>
      <trkpt lat="49.94015" lon="2.20986">
        <ele>29.2</ele>
        <time>2022-04-11T12:35:57Z</time>
      </trkpt>
      <trkpt lat="49.94015" lon="2.20986">
        <ele>29.2</ele>
        <time>2022-04-11T12:35:58Z</time>
      </trkpt>
      <trkpt lat="49.94015" lon="2.20986">
        <ele>29.2</ele>
        <time>2022-04-11T12:35:59Z</time>
      </trkpt>
      <trkpt lat="49.94015" lon="2.20986">
        <ele>29.2</ele>
        <time>2022-04-11T12:36:00Z</time>
      </trkpt>
      <trkpt lat="49.94015" lon="2.20986">
        <ele>29.2</ele>
        <time>2022-04-11T12:36:01Z</time>
      </trkpt>
      <trkpt lat="49.94015" lon="2.20986">
        <ele>29.2</ele>
        <time>2022-04-11T12:36:02Z</time>
      </trkpt>
      <trkpt lat="49.94015" lon="2.20986">
        <ele>29.2</ele>
        <time>2022-04-11T12:36:03Z</time>
      </trkpt>
      <trkpt lat="49.94015" lon="2.20986">
        <ele>29.2</ele>
        <time>2022-04-11T12:36:04Z</time>
      </trkpt>
      <trkpt lat="49.94015" lon="2.20986">
        <ele>29.2</ele>
        <time>2022-04-11T12:36:05Z</time>
      </trkpt>
      <trkpt lat="49.94015" lon="2.20986">
        <ele>29.2</ele>
        <time>2022-04-11T12:36:06Z</time>
      </trkpt>
      <trkpt lat="49.94015" lon="2.20986">
        <ele>29.2</ele>
        <time>2022-04-11T12:36:07Z</time>
      </trkpt>
      <trkpt lat="49.94015" lon="2.20986">
        <ele>29.2</ele>
        <time>2022-04-11T12:36:08Z</time>
      </trkpt>
      <trkpt lat="49.94015" lon="2.20986">
        <ele>29.2</ele>
        <time>2022-04-11T12:36:09Z</time>
      </trkpt>
      <trkpt lat="49.94015" lon="2.20986">
        <ele>29.2</ele>
        <time>2022-04-11T12:36:10Z</time>
      </trkpt>
      <trkpt lat="49.94015" lon="2.20986">
        <ele>29.2</ele>
        <time>2022-04-11T12:36:11Z</time>
      </trkpt>
      <trkpt lat="49.94015" lon="2.20986">
        <ele>29.2</ele>
        <time>2022-04-11T12:36:12Z</time>
      </trkpt>
      <trkpt lat="49.94015" lon="2.20986">
        <ele>29.2</ele>
        <time>2022-04-11T12:36:13Z</time>
      </trkpt>
      <trkpt lat="49.94015" lon="2.20986">
        <ele>29.2</ele>
        <time>2022-04-11T12:36:14Z</time>
      </trkpt>
      <trkpt lat="49.94015" lon="2.20986">
        <ele>29.2</ele>
        <time>2022-04-11T12:36:15Z</time>
      </trkpt>
      <trkpt lat="49.94015" lon="2.20986">
        <ele>29.2</ele>
        <time>2022-04-11T12:36:16Z</time>
      </trkpt>
      <trkpt lat="49.94015" lon="2.20986">
        <ele>29.2</ele>
        <time>2022-04-11T12:36:17Z</time>
      </trkpt>
      <trkpt lat="49.94015" lon="2.20986">
        <ele>29.2</ele>
        <time>2022-04-11T12:36:18Z</time>
      </trkpt>
      <trkpt lat="49.94015" lon="2.20986">
        <ele>29.2</ele>
        <time>2022-04-11T12:36:19Z</time>
      </trkpt>
      <trkpt lat="49.94015" lon="2.20986">
        <ele>29.2</ele>
        <time>2022-04-11T12:36:20Z</time>
      </trkpt>
      <trkpt lat="49.94015" lon="2.20986">
        <ele>29.2</ele>
        <time>2022-04-11T12:36:21Z</time>
      </trkpt>
      <trkpt lat="49.94015" lon="2.20986">
        <ele>29.2</ele>
        <time>2022-04-11T12:36:22Z</time>
      </trkpt>
      <trkpt lat="49.94015" lon="2.20986">
        <ele>29.2</ele>
        <time>2022-04-11T12:36:23Z</time>
      </trkpt>
      <trkpt lat="49.94015" lon="2.20986">
        <ele>29.2</ele>
        <time>2022-04-11T12:36:24Z</time>
      </trkpt>
      <trkpt lat="49.94015" lon="2.20986">
        <ele>29.2</ele>
        <time>2022-04-11T12:36:25Z</time>
      </trkpt>
      <trkpt lat="49.94015" lon="2.20986">
        <ele>29.2</ele>
        <time>2022-04-11T12:36:26Z</time>
      </trkpt>
      <trkpt lat="49.94015" lon="2.20986">
        <ele>29.2</ele>
        <time>2022-04-11T12:36:27Z</time>
      </trkpt>
      <trkpt lat="49.94015" lon="2.20986">
        <ele>29.2</ele>
        <time>2022-04-11T12:36:28Z</time>
      </trkpt>
      <trkpt lat="49.94015" lon="2.20986">
        <ele>29.2</ele>
        <time>2022-04-11T12:36:29Z</time>
      </trkpt>
      <trkpt lat="49.94015" lon="2.20986">
        <ele>29.2</ele>
        <time>2022-04-11T12:36:30Z</time>
      </trkpt>
      <trkpt lat="49.94015" lon="2.20986">
        <ele>29.2</ele>
        <time>2022-04-11T12:36:31Z</time>
      </trkpt>
      <trkpt lat="49.94015" lon="2.20986">
        <ele>29.2</ele>
        <time>2022-04-11T12:36:32Z</time>
      </trkpt>
      <trkpt lat="49.94015" lon="2.20986">
        <ele>29.2</ele>
        <time>2022-04-11T12:36:33Z</time>
      </trkpt>
      <trkpt lat="49.94015" lon="2.20986">
        <ele>29.2</ele>
        <time>2022-04-11T12:36:34Z</time>
      </trkpt>
      <trkpt lat="49.94015" lon="2.20986">
        <ele>29.2</ele>
        <time>2022-04-11T12:36:35Z</time>
      </trkpt>
      <trkpt lat="49.94015" lon="2.20986">
        <ele>29.2</ele>
        <time>2022-04-11T12:36:36Z</time>
      </trkpt>
      <trkpt lat="49.94015" lon="2.20986">
        <ele>29.2</ele>
        <time>2022-04-11T12:36:37Z</time>
      </trkpt>
      <trkpt lat="49.94015" lon="2.20986">
        <ele>29.2</ele>
        <time>2022-04-11T12:36:38Z</time>
      </trkpt>
      <trkpt lat="49.94015" lon="2.20986">
        <ele>29.2</ele>
        <time>2022-04-11T12:36:39Z</time>
      </trkpt>
      <trkpt lat="49.94015" lon="2.20986">
        <ele>29.2</ele>
        <time>2022-04-11T12:36:40Z</time>
      </trkpt>
      <trkpt lat="49.94015" lon="2.20986">
        <ele>29.2</ele>
        <time>2022-04-11T12:36:41Z</time>
      </trkpt>
      <trkpt lat="49.94015" lon="2.20986">
        <ele>29.2</ele>
        <time>2022-04-11T12:36:42Z</time>
      </trkpt>
      <trkpt lat="49.94016" lon="2.20986">
        <ele>29.2</ele>
        <time>2022-04-11T12:36:43Z</time>
      </trkpt>
      <trkpt lat="49.94016" lon="2.20986">
        <ele>29.2</ele>
        <time>2022-04-11T12:36:44Z</time>
      </trkpt>
      <trkpt lat="49.94016" lon="2.20986">
        <ele>29.2</ele>
        <time>2022-04-11T12:36:45Z</time>
      </trkpt>
      <trkpt lat="49.94016" lon="2.20986">
        <ele>29.2</ele>
        <time>2022-04-11T12:36:46Z</time>
      </trkpt>
      <trkpt lat="49.94016" lon="2.20986">
        <ele>29.2</ele>
        <time>2022-04-11T12:36:47Z</time>
      </trkpt>
      <trkpt lat="49.94016" lon="2.20986">
        <ele>29.2</ele>
        <time>2022-04-11T12:36:48Z</time>
      </trkpt>
      <trkpt lat="49.94016" lon="2.20986">
        <ele>29.2</ele>
        <time>2022-04-11T12:36:49Z</time>
      </trkpt>
      <trkpt lat="49.94016" lon="2.20986">
        <ele>29.2</ele>
        <time>2022-04-11T12:36:50Z</time>
      </trkpt>
      <trkpt lat="49.94016" lon="2.20986">
        <ele>29.2</ele>
        <time>2022-04-11T12:36:51Z</time>
      </trkpt>
      <trkpt lat="49.94016" lon="2.20986">
        <ele>29.2</ele>
        <time>2022-04-11T12:36:52Z</time>
      </trkpt>
      <trkpt lat="49.94016" lon="2.20986">
        <ele>29.2</ele>
        <time>2022-04-11T12:36:53Z</time>
      </trkpt>
      <trkpt lat="49.94016" lon="2.20986">
        <ele>29.2</ele>
        <time>2022-04-11T12:36:54Z</time>
      </trkpt>
      <trkpt lat="49.94016" lon="2.20986">
        <ele>29.2</ele>
        <time>2022-04-11T12:36:55Z</time>
      </trkpt>
      <trkpt lat="49.94016" lon="2.20986">
        <ele>29.2</ele>
        <time>2022-04-11T12:36:56Z</time>
      </trkpt>
      <trkpt lat="49.94016" lon="2.20986">
        <ele>29.2</ele>
        <time>2022-04-11T12:36:57Z</time>
      </trkpt>
      <trkpt lat="49.94016" lon="2.20986">
        <ele>29.2</ele>
        <time>2022-04-11T12:36:58Z</time>
      </trkpt>
      <trkpt lat="49.94016" lon="2.20986">
        <ele>29.2</ele>
        <time>2022-04-11T12:36:59Z</time>
      </trkpt>
      <trkpt lat="49.94016" lon="2.20986">
        <ele>29.2</ele>
        <time>2022-04-11T12:37:00Z</time>
      </trkpt>
      <trkpt lat="49.94016" lon="2.20986">
        <ele>29.2</ele>
        <time>2022-04-11T12:37:01Z</time>
      </trkpt>
      <trkpt lat="49.94016" lon="2.20986">
        <ele>29.2</ele>
        <time>2022-04-11T12:37:02Z</time>
      </trkpt>
      <trkpt lat="49.94016" lon="2.20986">
        <ele>29.2</ele>
        <time>2022-04-11T12:37:03Z</time>
      </trkpt>
      <trkpt lat="49.94016" lon="2.20986">
        <ele>29.2</ele>
        <time>2022-04-11T12:37:04Z</time>
      </trkpt>
      <trkpt lat="49.94016" lon="2.20986">
        <ele>29.2</ele>
        <time>2022-04-11T12:37:05Z</time>
      </trkpt>
      <trkpt lat="49.94016" lon="2.20986">
        <ele>29.2</ele>
        <time>2022-04-11T12:37:06Z</time>
      </trkpt>
      <trkpt lat="49.94016" lon="2.20986">
        <ele>29.2</ele>
        <time>2022-04-11T12:37:07Z</time>
      </trkpt>
      <trkpt lat="49.94016" lon="2.20986">
        <ele>29.2</ele>
        <time>2022-04-11T12:37:08Z</time>
      </trkpt>
      <trkpt lat="49.94016" lon="2.20986">
        <ele>29.2</ele>
        <time>2022-04-11T12:37:09Z</time>
      </trkpt>
      <trkpt lat="49.94016" lon="2.20986">
        <ele>29.2</ele>
        <time>2022-04-11T12:37:10Z</time>
      </trkpt>
      <trkpt lat="49.94016" lon="2.20986">
        <ele>29.2</ele>
        <time>2022-04-11T12:37:11Z</time>
      </trkpt>
      <trkpt lat="49.94016" lon="2.20986">
        <ele>29.2</ele>
        <time>2022-04-11T12:37:12Z</time>
      </trkpt>
      <trkpt lat="49.94016" lon="2.20986">
        <ele>29.2</ele>
        <time>2022-04-11T12:37:13Z</time>
      </trkpt>
      <trkpt lat="49.94016" lon="2.20986">
        <ele>29.2</ele>
        <time>2022-04-11T12:37:14Z</time>
      </trkpt>
      <trkpt lat="49.94016" lon="2.20986">
        <ele>29.2</ele>
        <time>2022-04-11T12:37:15Z</time>
      </trkpt>
      <trkpt lat="49.94016" lon="2.20986">
        <ele>29.2</ele>
        <time>2022-04-11T12:37:16Z</time>
      </trkpt>
      <trkpt lat="49.94016" lon="2.20986">
        <ele>29.2</ele>
        <time>2022-04-11T12:37:17Z</time>
      </trkpt>
      <trkpt lat="49.94016" lon="2.20986">
        <ele>29.2</ele>
        <time>2022-04-11T12:37:18Z</time>
      </trkpt>
      <trkpt lat="49.94016" lon="2.20986">
        <ele>29.2</ele>
        <time>2022-04-11T12:37:19Z</time>
      </trkpt>
      <trkpt lat="49.94016" lon="2.20986">
        <ele>29.2</ele>
        <time>2022-04-11T12:37:20Z</time>
      </trkpt>
      <trkpt lat="49.94016" lon="2.20986">
        <ele>29.2</ele>
        <time>2022-04-11T12:37:21Z</time>
      </trkpt>
      <trkpt lat="49.94016" lon="2.20986">
        <ele>29.2</ele>
        <time>2022-04-11T12:37:22Z</time>
      </trkpt>
      <trkpt lat="49.94016" lon="2.20986">
        <ele>29.2</ele>
        <time>2022-04-11T12:37:23Z</time>
      </trkpt>
      <trkpt lat="49.94016" lon="2.20986">
        <ele>29.2</ele>
        <time>2022-04-11T12:37:24Z</time>
      </trkpt>
      <trkpt lat="49.94016" lon="2.20986">
        <ele>29.2</ele>
        <time>2022-04-11T12:37:25Z</time>
      </trkpt>
      <trkpt lat="49.94016" lon="2.20986">
        <ele>29.2</ele>
        <time>2022-04-11T12:37:26Z</time>
      </trkpt>
      <trkpt lat="49.94016" lon="2.20986">
        <ele>29.2</ele>
        <time>2022-04-11T12:37:27Z</time>
      </trkpt>
      <trkpt lat="49.94016" lon="2.20986">
        <ele>29.2</ele>
        <time>2022-04-11T12:37:28Z</time>
      </trkpt>
      <trkpt lat="49.94016" lon="2.20986">
        <ele>29.2</ele>
        <time>2022-04-11T12:37:29Z</time>
      </trkpt>
      <trkpt lat="49.94016" lon="2.20986">
        <ele>29.2</ele>
        <time>2022-04-11T12:37:30Z</time>
      </trkpt>
      <trkpt lat="49.94016" lon="2.20986">
        <ele>29.2</ele>
        <time>2022-04-11T12:37:31Z</time>
      </trkpt>
      <trkpt lat="49.94016" lon="2.20986">
        <ele>29.2</ele>
        <time>2022-04-11T12:37:32Z</time>
      </trkpt>
      <trkpt lat="49.94016" lon="2.20986">
        <ele>29.2</ele>
        <time>2022-04-11T12:37:33Z</time>
      </trkpt>
      <trkpt lat="49.94016" lon="2.20986">
        <ele>29.2</ele>
        <time>2022-04-11T12:37:34Z</time>
      </trkpt>
      <trkpt lat="49.94016" lon="2.20986">
        <ele>29.2</ele>
        <time>2022-04-11T12:37:35Z</time>
      </trkpt>
      <trkpt lat="49.94016" lon="2.20986">
        <ele>29.2</ele>
        <time>2022-04-11T12:37:36Z</time>
      </trkpt>
      <trkpt lat="49.94016" lon="2.20986">
        <ele>29.2</ele>
        <time>2022-04-11T12:37:37Z</time>
      </trkpt>
      <trkpt lat="49.94016" lon="2.20986">
        <ele>29.2</ele>
        <time>2022-04-11T12:37:38Z</time>
      </trkpt>
      <trkpt lat="49.94016" lon="2.20986">
        <ele>29.2</ele>
        <time>2022-04-11T12:37:39Z</time>
      </trkpt>
      <trkpt lat="49.94016" lon="2.20986">
        <ele>29.2</ele>
        <time>2022-04-11T12:37:40Z</time>
      </trkpt>
      <trkpt lat="49.94016" lon="2.20986">
        <ele>29.2</ele>
        <time>2022-04-11T12:37:41Z</time>
      </trkpt>
      <trkpt lat="49.94016" lon="2.20986">
        <ele>29.2</ele>
        <time>2022-04-11T12:37:42Z</time>
      </trkpt>
      <trkpt lat="49.94016" lon="2.20986">
        <ele>29.2</ele>
        <time>2022-04-11T12:37:43Z</time>
      </trkpt>
      <trkpt lat="49.94016" lon="2.20986">
        <ele>29.2</ele>
        <time>2022-04-11T12:37:44Z</time>
      </trkpt>
      <trkpt lat="49.94016" lon="2.20986">
        <ele>29.2</ele>
        <time>2022-04-11T12:37:45Z</time>
      </trkpt>
      <trkpt lat="49.94016" lon="2.20986">
        <ele>29.2</ele>
        <time>2022-04-11T12:37:46Z</time>
      </trkpt>
      <trkpt lat="49.94016" lon="2.20986">
        <ele>29.2</ele>
        <time>2022-04-11T12:37:47Z</time>
      </trkpt>
      <trkpt lat="49.94016" lon="2.20986">
        <ele>29.2</ele>
        <time>2022-04-11T12:37:48Z</time>
      </trkpt>
      <trkpt lat="49.94016" lon="2.20986">
        <ele>29.2</ele>
        <time>2022-04-11T12:37:49Z</time>
      </trkpt>
      <trkpt lat="49.94016" lon="2.20986">
        <ele>29.2</ele>
        <time>2022-04-11T12:37:50Z</time>
      </trkpt>
      <trkpt lat="49.94016" lon="2.20986">
        <ele>29.2</ele>
        <time>2022-04-11T12:37:51Z</time>
      </trkpt>
      <trkpt lat="49.94016" lon="2.20986">
        <ele>29.2</ele>
        <time>2022-04-11T12:37:52Z</time>
      </trkpt>
      <trkpt lat="49.94016" lon="2.20986">
        <ele>29.2</ele>
        <time>2022-04-11T12:37:53Z</time>
      </trkpt>
      <trkpt lat="49.94016" lon="2.20986">
        <ele>29.2</ele>
        <time>2022-04-11T12:37:54Z</time>
      </trkpt>
      <trkpt lat="49.94016" lon="2.20986">
        <ele>29.2</ele>
        <time>2022-04-11T12:37:55Z</time>
      </trkpt>
      <trkpt lat="49.94016" lon="2.20986">
        <ele>29.2</ele>
        <time>2022-04-11T12:37:56Z</time>
      </trkpt>
      <trkpt lat="49.94016" lon="2.20986">
        <ele>29.2</ele>
        <time>2022-04-11T12:37:57Z</time>
      </trkpt>
      <trkpt lat="49.94016" lon="2.20986">
        <ele>29.2</ele>
        <time>2022-04-11T12:37:58Z</time>
      </trkpt>
      <trkpt lat="49.94016" lon="2.20986">
        <ele>29.2</ele>
        <time>2022-04-11T12:37:59Z</time>
      </trkpt>
      <trkpt lat="49.94016" lon="2.20986">
        <ele>29.2</ele>
        <time>2022-04-11T12:38:00Z</time>
      </trkpt>
      <trkpt lat="49.94016" lon="2.20986">
        <ele>29.2</ele>
        <time>2022-04-11T12:38:01Z</time>
      </trkpt>
      <trkpt lat="49.94016" lon="2.20986">
        <ele>29.2</ele>
        <time>2022-04-11T12:38:02Z</time>
      </trkpt>
      <trkpt lat="49.94016" lon="2.20986">
        <ele>29.2</ele>
        <time>2022-04-11T12:38:03Z</time>
      </trkpt>
      <trkpt lat="49.94016" lon="2.20986">
        <ele>29.2</ele>
        <time>2022-04-11T12:38:04Z</time>
      </trkpt>
      <trkpt lat="49.94016" lon="2.20986">
        <ele>29.2</ele>
        <time>2022-04-11T12:38:05Z</time>
      </trkpt>
      <trkpt lat="49.94016" lon="2.20986">
        <ele>29.2</ele>
        <time>2022-04-11T12:38:06Z</time>
      </trkpt>
      <trkpt lat="49.94016" lon="2.20986">
        <ele>29.2</ele>
        <time>2022-04-11T12:38:07Z</time>
      </trkpt>
      <trkpt lat="49.94016" lon="2.20985">
        <ele>29.3</ele>
        <time>2022-04-11T12:38:08Z</time>
      </trkpt>
      <trkpt lat="49.94016" lon="2.20985">
        <ele>29.3</ele>
        <time>2022-04-11T12:38:09Z</time>
      </trkpt>
      <trkpt lat="49.94016" lon="2.20985">
        <ele>29.3</ele>
        <time>2022-04-11T12:38:10Z</time>
      </trkpt>
      <trkpt lat="49.94016" lon="2.20985">
        <ele>29.3</ele>
        <time>2022-04-11T12:38:11Z</time>
      </trkpt>
      <trkpt lat="49.94016" lon="2.20985">
        <ele>29.3</ele>
        <time>2022-04-11T12:38:12Z</time>
      </trkpt>
      <trkpt lat="49.94016" lon="2.20985">
        <ele>29.3</ele>
        <time>2022-04-11T12:38:13Z</time>
      </trkpt>
      <trkpt lat="49.94016" lon="2.20985">
        <ele>29.3</ele>
        <time>2022-04-11T12:38:14Z</time>
      </trkpt>
      <trkpt lat="49.94016" lon="2.20985">
        <ele>29.3</ele>
        <time>2022-04-11T12:38:15Z</time>
      </trkpt>
      <trkpt lat="49.94016" lon="2.20985">
        <ele>29.3</ele>
        <time>2022-04-11T12:38:16Z</time>
      </trkpt>
      <trkpt lat="49.94016" lon="2.20985">
        <ele>29.3</ele>
        <time>2022-04-11T12:38:17Z</time>
      </trkpt>
      <trkpt lat="49.94016" lon="2.20985">
        <ele>29.3</ele>
        <time>2022-04-11T12:38:18Z</time>
      </trkpt>
      <trkpt lat="49.94016" lon="2.20985">
        <ele>29.3</ele>
        <time>2022-04-11T12:38:19Z</time>
      </trkpt>
      <trkpt lat="49.94016" lon="2.20985">
        <ele>29.3</ele>
        <time>2022-04-11T12:38:20Z</time>
      </trkpt>
      <trkpt lat="49.94016" lon="2.20985">
        <ele>29.3</ele>
        <time>2022-04-11T12:38:21Z</time>
      </trkpt>
      <trkpt lat="49.94016" lon="2.20985">
        <ele>29.3</ele>
        <time>2022-04-11T12:38:22Z</time>
      </trkpt>
      <trkpt lat="49.94016" lon="2.20985">
        <ele>29.3</ele>
        <time>2022-04-11T12:38:23Z</time>
      </trkpt>
      <trkpt lat="49.94016" lon="2.20985">
        <ele>29.3</ele>
        <time>2022-04-11T12:38:24Z</time>
      </trkpt>
      <trkpt lat="49.94016" lon="2.20985">
        <ele>29.3</ele>
        <time>2022-04-11T12:38:25Z</time>
      </trkpt>
      <trkpt lat="49.94016" lon="2.20985">
        <ele>29.3</ele>
        <time>2022-04-11T12:38:26Z</time>
      </trkpt>
      <trkpt lat="49.94016" lon="2.20985">
        <ele>29.3</ele>
        <time>2022-04-11T12:38:27Z</time>
      </trkpt>
      <trkpt lat="49.94016" lon="2.20985">
        <ele>29.3</ele>
        <time>2022-04-11T12:38:28Z</time>
      </trkpt>
      <trkpt lat="49.94016" lon="2.20985">
        <ele>29.3</ele>
        <time>2022-04-11T12:38:29Z</time>
      </trkpt>
      <trkpt lat="49.94016" lon="2.20985">
        <ele>29.3</ele>
        <time>2022-04-11T12:38:30Z</time>
      </trkpt>
      <trkpt lat="49.94016" lon="2.20985">
        <ele>29.3</ele>
        <time>2022-04-11T12:38:31Z</time>
      </trkpt>
      <trkpt lat="49.94016" lon="2.20985">
        <ele>29.3</ele>
        <time>2022-04-11T12:38:32Z</time>
      </trkpt>
      <trkpt lat="49.94016" lon="2.20985">
        <ele>29.3</ele>
        <time>2022-04-11T12:38:33Z</time>
      </trkpt>
      <trkpt lat="49.94016" lon="2.20985">
        <ele>29.3</ele>
        <time>2022-04-11T12:38:34Z</time>
      </trkpt>
      <trkpt lat="49.94016" lon="2.20985">
        <ele>29.3</ele>
        <time>2022-04-11T12:38:35Z</time>
      </trkpt>
      <trkpt lat="49.94016" lon="2.20985">
        <ele>29.3</ele>
        <time>2022-04-11T12:38:36Z</time>
      </trkpt>
      <trkpt lat="49.94016" lon="2.20985">
        <ele>29.3</ele>
        <time>2022-04-11T12:38:37Z</time>
      </trkpt>
      <trkpt lat="49.94016" lon="2.20985">
        <ele>29.3</ele>
        <time>2022-04-11T12:38:38Z</time>
      </trkpt>
      <trkpt lat="49.94016" lon="2.20985">
        <ele>29.3</ele>
        <time>2022-04-11T12:38:39Z</time>
      </trkpt>
      <trkpt lat="49.94016" lon="2.20985">
        <ele>29.3</ele>
        <time>2022-04-11T12:38:40Z</time>
      </trkpt>
      <trkpt lat="49.94016" lon="2.20985">
        <ele>29.3</ele>
        <time>2022-04-11T12:38:41Z</time>
      </trkpt>
      <trkpt lat="49.94016" lon="2.20985">
        <ele>29.3</ele>
        <time>2022-04-11T12:38:42Z</time>
      </trkpt>
      <trkpt lat="49.94016" lon="2.20985">
        <ele>29.3</ele>
        <time>2022-04-11T12:38:43Z</time>
      </trkpt>
      <trkpt lat="49.94016" lon="2.20985">
        <ele>29.3</ele>
        <time>2022-04-11T12:38:44Z</time>
      </trkpt>
      <trkpt lat="49.94016" lon="2.20985">
        <ele>29.3</ele>
        <time>2022-04-11T12:38:45Z</time>
      </trkpt>
      <trkpt lat="49.94016" lon="2.20985">
        <ele>29.3</ele>
        <time>2022-04-11T12:38:46Z</time>
      </trkpt>
      <trkpt lat="49.94016" lon="2.20985">
        <ele>29.3</ele>
        <time>2022-04-11T12:38:47Z</time>
      </trkpt>
      <trkpt lat="49.94016" lon="2.20985">
        <ele>29.3</ele>
        <time>2022-04-11T12:38:48Z</time>
      </trkpt>
      <trkpt lat="49.94016" lon="2.20985">
        <ele>29.3</ele>
        <time>2022-04-11T12:38:49Z</time>
      </trkpt>
      <trkpt lat="49.94016" lon="2.20985">
        <ele>29.3</ele>
        <time>2022-04-11T12:38:50Z</time>
      </trkpt>
      <trkpt lat="49.94016" lon="2.20985">
        <ele>29.3</ele>
        <time>2022-04-11T12:38:51Z</time>
      </trkpt>
      <trkpt lat="49.94016" lon="2.20985">
        <ele>29.3</ele>
        <time>2022-04-11T12:38:52Z</time>
      </trkpt>
      <trkpt lat="49.94016" lon="2.20985">
        <ele>29.3</ele>
        <time>2022-04-11T12:38:53Z</time>
      </trkpt>
      <trkpt lat="49.94016" lon="2.20985">
        <ele>29.3</ele>
        <time>2022-04-11T12:38:54Z</time>
      </trkpt>
      <trkpt lat="49.94016" lon="2.20985">
        <ele>29.3</ele>
        <time>2022-04-11T12:38:55Z</time>
      </trkpt>
      <trkpt lat="49.94016" lon="2.20985">
        <ele>29.3</ele>
        <time>2022-04-11T12:38:56Z</time>
      </trkpt>
      <trkpt lat="49.94016" lon="2.20985">
        <ele>29.3</ele>
        <time>2022-04-11T12:38:57Z</time>
      </trkpt>
      <trkpt lat="49.94016" lon="2.20985">
        <ele>29.3</ele>
        <time>2022-04-11T12:38:58Z</time>
      </trkpt>
      <trkpt lat="49.94016" lon="2.20985">
        <ele>29.3</ele>
        <time>2022-04-11T12:38:59Z</time>
      </trkpt>
      <trkpt lat="49.94016" lon="2.20985">
        <ele>29.3</ele>
        <time>2022-04-11T12:39:00Z</time>
      </trkpt>
      <trkpt lat="49.94016" lon="2.20985">
        <ele>29.3</ele>
        <time>2022-04-11T12:39:01Z</time>
      </trkpt>
      <trkpt lat="49.94016" lon="2.20985">
        <ele>29.3</ele>
        <time>2022-04-11T12:39:02Z</time>
      </trkpt>
      <trkpt lat="49.94016" lon="2.20985">
        <ele>29.3</ele>
        <time>2022-04-11T12:39:03Z</time>
      </trkpt>
      <trkpt lat="49.94016" lon="2.20985">
        <ele>29.3</ele>
        <time>2022-04-11T12:39:04Z</time>
      </trkpt>
      <trkpt lat="49.94016" lon="2.20985">
        <ele>29.3</ele>
        <time>2022-04-11T12:39:05Z</time>
      </trkpt>
      <trkpt lat="49.94016" lon="2.20985">
        <ele>29.3</ele>
        <time>2022-04-11T12:39:06Z</time>
      </trkpt>
      <trkpt lat="49.94016" lon="2.20985">
        <ele>29.3</ele>
        <time>2022-04-11T12:39:07Z</time>
      </trkpt>
      <trkpt lat="49.94016" lon="2.20985">
        <ele>29.3</ele>
        <time>2022-04-11T12:39:08Z</time>
      </trkpt>
      <trkpt lat="49.94016" lon="2.20985">
        <ele>29.3</ele>
        <time>2022-04-11T12:39:09Z</time>
      </trkpt>
      <trkpt lat="49.94016" lon="2.20985">
        <ele>29.3</ele>
        <time>2022-04-11T12:39:10Z</time>
      </trkpt>
      <trkpt lat="49.94016" lon="2.20985">
        <ele>29.3</ele>
        <time>2022-04-11T12:39:11Z</time>
      </trkpt>
      <trkpt lat="49.94016" lon="2.20985">
        <ele>29.3</ele>
        <time>2022-04-11T12:39:12Z</time>
      </trkpt>
      <trkpt lat="49.94016" lon="2.20985">
        <ele>29.3</ele>
        <time>2022-04-11T12:39:13Z</time>
      </trkpt>
      <trkpt lat="49.94016" lon="2.20985">
        <ele>29.3</ele>
        <time>2022-04-11T12:39:14Z</time>
      </trkpt>
      <trkpt lat="49.94016" lon="2.20985">
        <ele>29.3</ele>
        <time>2022-04-11T12:39:15Z</time>
      </trkpt>
      <trkpt lat="49.94016" lon="2.20985">
        <ele>29.3</ele>
        <time>2022-04-11T12:39:16Z</time>
      </trkpt>
      <trkpt lat="49.94016" lon="2.20985">
        <ele>29.3</ele>
        <time>2022-04-11T12:39:17Z</time>
      </trkpt>
      <trkpt lat="49.94016" lon="2.20985">
        <ele>29.3</ele>
        <time>2022-04-11T12:39:18Z</time>
      </trkpt>
      <trkpt lat="49.94016" lon="2.20985">
        <ele>29.3</ele>
        <time>2022-04-11T12:39:19Z</time>
      </trkpt>
      <trkpt lat="49.94016" lon="2.20985">
        <ele>29.3</ele>
        <time>2022-04-11T12:39:20Z</time>
      </trkpt>
      <trkpt lat="49.94016" lon="2.20985">
        <ele>29.3</ele>
        <time>2022-04-11T12:39:21Z</time>
      </trkpt>
      <trkpt lat="49.94016" lon="2.20985">
        <ele>29.3</ele>
        <time>2022-04-11T12:39:22Z</time>
      </trkpt>
      <trkpt lat="49.94016" lon="2.20985">
        <ele>29.3</ele>
        <time>2022-04-11T12:39:23Z</time>
      </trkpt>
      <trkpt lat="49.94016" lon="2.20985">
        <ele>29.3</ele>
        <time>2022-04-11T12:39:24Z</time>
      </trkpt>
      <trkpt lat="49.94016" lon="2.20985">
        <ele>29.3</ele>
        <time>2022-04-11T12:39:25Z</time>
      </trkpt>
      <trkpt lat="49.94016" lon="2.20985">
        <ele>29.3</ele>
        <time>2022-04-11T12:39:26Z</time>
      </trkpt>
      <trkpt lat="49.94016" lon="2.20985">
        <ele>29.3</ele>
        <time>2022-04-11T12:39:27Z</time>
      </trkpt>
      <trkpt lat="49.94016" lon="2.20985">
        <ele>29.3</ele>
        <time>2022-04-11T12:39:28Z</time>
      </trkpt>
      <trkpt lat="49.94016" lon="2.20985">
        <ele>29.3</ele>
        <time>2022-04-11T12:39:29Z</time>
      </trkpt>
      <trkpt lat="49.94016" lon="2.20985">
        <ele>29.3</ele>
        <time>2022-04-11T12:39:30Z</time>
      </trkpt>
      <trkpt lat="49.94016" lon="2.20985">
        <ele>29.3</ele>
        <time>2022-04-11T12:39:31Z</time>
      </trkpt>
      <trkpt lat="49.94016" lon="2.20985">
        <ele>29.3</ele>
        <time>2022-04-11T12:39:32Z</time>
      </trkpt>
      <trkpt lat="49.94016" lon="2.20985">
        <ele>29.3</ele>
        <time>2022-04-11T12:39:33Z</time>
      </trkpt>
      <trkpt lat="49.94016" lon="2.20985">
        <ele>29.3</ele>
        <time>2022-04-11T12:39:34Z</time>
      </trkpt>
      <trkpt lat="49.94016" lon="2.20985">
        <ele>29.3</ele>
        <time>2022-04-11T12:39:35Z</time>
      </trkpt>
      <trkpt lat="49.94016" lon="2.20985">
        <ele>29.3</ele>
        <time>2022-04-11T12:39:36Z</time>
      </trkpt>
      <trkpt lat="49.94016" lon="2.20985">
        <ele>29.3</ele>
        <time>2022-04-11T12:39:37Z</time>
      </trkpt>
      <trkpt lat="49.94016" lon="2.20985">
        <ele>29.3</ele>
        <time>2022-04-11T12:39:38Z</time>
      </trkpt>
      <trkpt lat="49.94016" lon="2.20985">
        <ele>29.3</ele>
        <time>2022-04-11T12:39:39Z</time>
      </trkpt>
      <trkpt lat="49.94016" lon="2.20985">
        <ele>29.3</ele>
        <time>2022-04-11T12:39:40Z</time>
      </trkpt>
      <trkpt lat="49.94016" lon="2.20985">
        <ele>29.3</ele>
        <time>2022-04-11T12:39:41Z</time>
      </trkpt>
      <trkpt lat="49.94016" lon="2.20985">
        <ele>29.3</ele>
        <time>2022-04-11T12:39:42Z</time>
      </trkpt>
      <trkpt lat="49.94016" lon="2.20985">
        <ele>29.3</ele>
        <time>2022-04-11T12:39:43Z</time>
      </trkpt>
      <trkpt lat="49.94016" lon="2.20985">
        <ele>29.3</ele>
        <time>2022-04-11T12:39:44Z</time>
      </trkpt>
      <trkpt lat="49.94016" lon="2.20985">
        <ele>29.3</ele>
        <time>2022-04-11T12:39:45Z</time>
      </trkpt>
      <trkpt lat="49.94016" lon="2.20985">
        <ele>29.3</ele>
        <time>2022-04-11T12:39:46Z</time>
      </trkpt>
      <trkpt lat="49.94016" lon="2.20985">
        <ele>29.3</ele>
        <time>2022-04-11T12:39:47Z</time>
      </trkpt>
      <trkpt lat="49.94016" lon="2.20985">
        <ele>29.3</ele>
        <time>2022-04-11T12:39:48Z</time>
      </trkpt>
      <trkpt lat="49.94016" lon="2.20985">
        <ele>29.3</ele>
        <time>2022-04-11T12:39:49Z</time>
      </trkpt>
      <trkpt lat="49.94016" lon="2.20985">
        <ele>29.3</ele>
        <time>2022-04-11T12:39:50Z</time>
      </trkpt>
      <trkpt lat="49.94016" lon="2.20985">
        <ele>29.3</ele>
        <time>2022-04-11T12:39:51Z</time>
      </trkpt>
      <trkpt lat="49.94016" lon="2.20985">
        <ele>29.3</ele>
        <time>2022-04-11T12:39:52Z</time>
      </trkpt>
      <trkpt lat="49.94016" lon="2.20985">
        <ele>29.3</ele>
        <time>2022-04-11T12:39:53Z</time>
      </trkpt>
      <trkpt lat="49.94016" lon="2.20985">
        <ele>29.3</ele>
        <time>2022-04-11T12:39:54Z</time>
      </trkpt>
      <trkpt lat="49.94016" lon="2.20985">
        <ele>29.3</ele>
        <time>2022-04-11T12:39:55Z</time>
      </trkpt>
      <trkpt lat="49.94016" lon="2.20985">
        <ele>29.3</ele>
        <time>2022-04-11T12:39:56Z</time>
      </trkpt>
      <trkpt lat="49.94016" lon="2.20985">
        <ele>29.3</ele>
        <time>2022-04-11T12:39:57Z</time>
      </trkpt>
      <trkpt lat="49.94016" lon="2.20985">
        <ele>29.3</ele>
        <time>2022-04-11T12:39:58Z</time>
      </trkpt>
      <trkpt lat="49.94016" lon="2.20985">
        <ele>29.3</ele>
        <time>2022-04-11T12:39:59Z</time>
      </trkpt>
      <trkpt lat="49.94016" lon="2.20985">
        <ele>29.3</ele>
        <time>2022-04-11T12:40:00Z</time>
      </trkpt>
      <trkpt lat="49.94016" lon="2.20985">
        <ele>29.3</ele>
        <time>2022-04-11T12:40:01Z</time>
      </trkpt>
      <trkpt lat="49.94016" lon="2.20985">
        <ele>29.3</ele>
        <time>2022-04-11T12:40:02Z</time>
      </trkpt>
      <trkpt lat="49.94016" lon="2.20985">
        <ele>29.3</ele>
        <time>2022-04-11T12:40:03Z</time>
      </trkpt>
      <trkpt lat="49.94016" lon="2.20985">
        <ele>29.3</ele>
        <time>2022-04-11T12:40:04Z</time>
      </trkpt>
      <trkpt lat="49.94016" lon="2.20985">
        <ele>29.3</ele>
        <time>2022-04-11T12:40:05Z</time>
      </trkpt>
      <trkpt lat="49.94016" lon="2.20985">
        <ele>29.3</ele>
        <time>2022-04-11T12:40:06Z</time>
      </trkpt>
      <trkpt lat="49.94016" lon="2.20985">
        <ele>29.3</ele>
        <time>2022-04-11T12:40:07Z</time>
      </trkpt>
      <trkpt lat="49.94016" lon="2.20985">
        <ele>29.3</ele>
        <time>2022-04-11T12:40:08Z</time>
      </trkpt>
      <trkpt lat="49.94016" lon="2.20985">
        <ele>29.3</ele>
        <time>2022-04-11T12:40:09Z</time>
      </trkpt>
      <trkpt lat="49.94016" lon="2.20985">
        <ele>29.3</ele>
        <time>2022-04-11T12:40:10Z</time>
      </trkpt>
      <trkpt lat="49.94016" lon="2.20985">
        <ele>29.3</ele>
        <time>2022-04-11T12:40:11Z</time>
      </trkpt>
      <trkpt lat="49.94016" lon="2.20985">
        <ele>29.3</ele>
        <time>2022-04-11T12:40:12Z</time>
      </trkpt>
      <trkpt lat="49.94016" lon="2.20985">
        <ele>29.3</ele>
        <time>2022-04-11T12:40:13Z</time>
      </trkpt>
      <trkpt lat="49.94016" lon="2.20985">
        <ele>29.3</ele>
        <time>2022-04-11T12:40:14Z</time>
      </trkpt>
      <trkpt lat="49.94016" lon="2.20985">
        <ele>29.3</ele>
        <time>2022-04-11T12:40:15Z</time>
      </trkpt>
      <trkpt lat="49.94016" lon="2.20985">
        <ele>29.3</ele>
        <time>2022-04-11T12:40:16Z</time>
      </trkpt>
      <trkpt lat="49.94016" lon="2.20985">
        <ele>29.3</ele>
        <time>2022-04-11T12:40:17Z</time>
      </trkpt>
      <trkpt lat="49.94016" lon="2.20985">
        <ele>29.3</ele>
        <time>2022-04-11T12:40:18Z</time>
      </trkpt>
      <trkpt lat="49.94016" lon="2.20985">
        <ele>29.3</ele>
        <time>2022-04-11T12:40:19Z</time>
      </trkpt>
      <trkpt lat="49.94016" lon="2.20985">
        <ele>29.3</ele>
        <time>2022-04-11T12:40:20Z</time>
      </trkpt>
      <trkpt lat="49.94016" lon="2.20985">
        <ele>29.3</ele>
        <time>2022-04-11T12:40:21Z</time>
      </trkpt>
      <trkpt lat="49.94016" lon="2.20985">
        <ele>29.3</ele>
        <time>2022-04-11T12:40:22Z</time>
      </trkpt>
      <trkpt lat="49.94016" lon="2.20985">
        <ele>29.3</ele>
        <time>2022-04-11T12:40:23Z</time>
      </trkpt>
      <trkpt lat="49.94016" lon="2.20985">
        <ele>29.3</ele>
        <time>2022-04-11T12:40:24Z</time>
      </trkpt>
      <trkpt lat="49.94016" lon="2.20985">
        <ele>29.3</ele>
        <time>2022-04-11T12:40:25Z</time>
      </trkpt>
      <trkpt lat="49.94016" lon="2.20985">
        <ele>29.3</ele>
        <time>2022-04-11T12:40:26Z</time>
      </trkpt>
      <trkpt lat="49.94016" lon="2.20985">
        <ele>29.3</ele>
        <time>2022-04-11T12:40:27Z</time>
      </trkpt>
      <trkpt lat="49.94016" lon="2.20985">
        <ele>29.3</ele>
        <time>2022-04-11T12:40:28Z</time>
      </trkpt>
      <trkpt lat="49.94016" lon="2.20985">
        <ele>29.3</ele>
        <time>2022-04-11T12:40:29Z</time>
      </trkpt>
      <trkpt lat="49.94016" lon="2.20985">
        <ele>29.3</ele>
        <time>2022-04-11T12:40:30Z</time>
      </trkpt>
      <trkpt lat="49.94016" lon="2.20985">
        <ele>29.3</ele>
        <time>2022-04-11T12:40:31Z</time>
      </trkpt>
      <trkpt lat="49.94016" lon="2.20985">
        <ele>29.3</ele>
        <time>2022-04-11T12:40:32Z</time>
      </trkpt>
      <trkpt lat="49.94016" lon="2.20985">
        <ele>29.3</ele>
        <time>2022-04-11T12:40:33Z</time>
      </trkpt>
      <trkpt lat="49.94016" lon="2.20985">
        <ele>29.3</ele>
        <time>2022-04-11T12:40:34Z</time>
      </trkpt>
      <trkpt lat="49.94016" lon="2.20985">
        <ele>29.3</ele>
        <time>2022-04-11T12:40:35Z</time>
      </trkpt>
      <trkpt lat="49.94016" lon="2.20985">
        <ele>29.3</ele>
        <time>2022-04-11T12:40:36Z</time>
      </trkpt>
      <trkpt lat="49.94016" lon="2.20985">
        <ele>29.3</ele>
        <time>2022-04-11T12:40:37Z</time>
      </trkpt>
      <trkpt lat="49.94016" lon="2.20985">
        <ele>29.3</ele>
        <time>2022-04-11T12:40:38Z</time>
      </trkpt>
      <trkpt lat="49.94016" lon="2.20985">
        <ele>29.3</ele>
        <time>2022-04-11T12:40:39Z</time>
      </trkpt>
      <trkpt lat="49.94016" lon="2.20985">
        <ele>29.3</ele>
        <time>2022-04-11T12:40:40Z</time>
      </trkpt>
      <trkpt lat="49.94016" lon="2.20985">
        <ele>29.3</ele>
        <time>2022-04-11T12:40:41Z</time>
      </trkpt>
      <trkpt lat="49.94016" lon="2.20985">
        <ele>29.3</ele>
        <time>2022-04-11T12:40:42Z</time>
      </trkpt>
      <trkpt lat="49.94016" lon="2.20985">
        <ele>29.3</ele>
        <time>2022-04-11T12:40:43Z</time>
      </trkpt>
      <trkpt lat="49.94016" lon="2.20985">
        <ele>29.3</ele>
        <time>2022-04-11T12:40:44Z</time>
      </trkpt>
      <trkpt lat="49.94016" lon="2.20985">
        <ele>29.3</ele>
        <time>2022-04-11T12:40:45Z</time>
      </trkpt>
      <trkpt lat="49.94016" lon="2.20985">
        <ele>29.3</ele>
        <time>2022-04-11T12:40:46Z</time>
      </trkpt>
      <trkpt lat="49.94016" lon="2.20985">
        <ele>29.3</ele>
        <time>2022-04-11T12:40:47Z</time>
      </trkpt>
      <trkpt lat="49.94016" lon="2.20985">
        <ele>29.3</ele>
        <time>2022-04-11T12:40:48Z</time>
      </trkpt>
      <trkpt lat="49.94016" lon="2.20985">
        <ele>29.3</ele>
        <time>2022-04-11T12:40:49Z</time>
      </trkpt>
      <trkpt lat="49.94016" lon="2.20985">
        <ele>29.3</ele>
        <time>2022-04-11T12:40:50Z</time>
      </trkpt>
      <trkpt lat="49.94016" lon="2.20985">
        <ele>29.3</ele>
        <time>2022-04-11T12:40:51Z</time>
      </trkpt>
      <trkpt lat="49.94016" lon="2.20985">
        <ele>29.3</ele>
        <time>2022-04-11T12:40:52Z</time>
      </trkpt>
      <trkpt lat="49.94016" lon="2.20985">
        <ele>29.3</ele>
        <time>2022-04-11T12:40:53Z</time>
      </trkpt>
      <trkpt lat="49.94016" lon="2.20985">
        <ele>29.3</ele>
        <time>2022-04-11T12:40:54Z</time>
      </trkpt>
      <trkpt lat="49.94016" lon="2.20985">
        <ele>29.3</ele>
        <time>2022-04-11T12:40:55Z</time>
      </trkpt>
      <trkpt lat="49.94016" lon="2.20985">
        <ele>29.3</ele>
        <time>2022-04-11T12:40:56Z</time>
      </trkpt>
      <trkpt lat="49.94016" lon="2.20985">
        <ele>29.3</ele>
        <time>2022-04-11T12:40:57Z</time>
      </trkpt>
      <trkpt lat="49.94016" lon="2.20985">
        <ele>29.3</ele>
        <time>2022-04-11T12:40:58Z</time>
      </trkpt>
      <trkpt lat="49.94016" lon="2.20985">
        <ele>29.3</ele>
        <time>2022-04-11T12:40:59Z</time>
      </trkpt>
      <trkpt lat="49.94016" lon="2.20985">
        <ele>29.3</ele>
        <time>2022-04-11T12:41:00Z</time>
      </trkpt>
      <trkpt lat="49.94016" lon="2.20985">
        <ele>29.3</ele>
        <time>2022-04-11T12:41:01Z</time>
      </trkpt>
      <trkpt lat="49.94016" lon="2.20985">
        <ele>29.3</ele>
        <time>2022-04-11T12:41:02Z</time>
      </trkpt>
      <trkpt lat="49.94016" lon="2.20985">
        <ele>29.3</ele>
        <time>2022-04-11T12:41:03Z</time>
      </trkpt>
      <trkpt lat="49.94016" lon="2.20985">
        <ele>29.3</ele>
        <time>2022-04-11T12:41:04Z</time>
      </trkpt>
      <trkpt lat="49.94016" lon="2.20985">
        <ele>29.3</ele>
        <time>2022-04-11T12:41:05Z</time>
      </trkpt>
      <trkpt lat="49.94016" lon="2.20985">
        <ele>29.3</ele>
        <time>2022-04-11T12:41:06Z</time>
      </trkpt>
      <trkpt lat="49.94016" lon="2.20985">
        <ele>29.3</ele>
        <time>2022-04-11T12:41:07Z</time>
      </trkpt>
      <trkpt lat="49.94016" lon="2.20985">
        <ele>29.3</ele>
        <time>2022-04-11T12:41:08Z</time>
      </trkpt>
      <trkpt lat="49.94016" lon="2.20985">
        <ele>29.3</ele>
        <time>2022-04-11T12:41:09Z</time>
      </trkpt>
      <trkpt lat="49.94016" lon="2.20985">
        <ele>29.3</ele>
        <time>2022-04-11T12:41:10Z</time>
      </trkpt>
      <trkpt lat="49.94016" lon="2.20985">
        <ele>29.3</ele>
        <time>2022-04-11T12:41:11Z</time>
      </trkpt>
      <trkpt lat="49.94016" lon="2.20985">
        <ele>29.3</ele>
        <time>2022-04-11T12:41:12Z</time>
      </trkpt>
      <trkpt lat="49.94016" lon="2.20985">
        <ele>29.3</ele>
        <time>2022-04-11T12:41:13Z</time>
      </trkpt>
      <trkpt lat="49.94016" lon="2.20985">
        <ele>29.3</ele>
        <time>2022-04-11T12:41:14Z</time>
      </trkpt>
      <trkpt lat="49.94016" lon="2.20985">
        <ele>29.3</ele>
        <time>2022-04-11T12:41:15Z</time>
      </trkpt>
      <trkpt lat="49.94016" lon="2.20985">
        <ele>29.3</ele>
        <time>2022-04-11T12:41:16Z</time>
      </trkpt>
      <trkpt lat="49.94016" lon="2.20985">
        <ele>29.3</ele>
        <time>2022-04-11T12:41:17Z</time>
      </trkpt>
      <trkpt lat="49.94016" lon="2.20985">
        <ele>29.3</ele>
        <time>2022-04-11T12:41:18Z</time>
      </trkpt>
      <trkpt lat="49.94016" lon="2.20985">
        <ele>29.3</ele>
        <time>2022-04-11T12:41:19Z</time>
      </trkpt>
      <trkpt lat="49.94016" lon="2.20985">
        <ele>29.3</ele>
        <time>2022-04-11T12:41:20Z</time>
      </trkpt>
      <trkpt lat="49.94016" lon="2.20985">
        <ele>29.3</ele>
        <time>2022-04-11T12:41:21Z</time>
      </trkpt>
      <trkpt lat="49.94016" lon="2.20985">
        <ele>29.3</ele>
        <time>2022-04-11T12:41:22Z</time>
      </trkpt>
      <trkpt lat="49.94016" lon="2.20985">
        <ele>29.3</ele>
        <time>2022-04-11T12:41:23Z</time>
      </trkpt>
      <trkpt lat="49.94016" lon="2.20985">
        <ele>29.3</ele>
        <time>2022-04-11T12:41:24Z</time>
      </trkpt>
      <trkpt lat="49.94016" lon="2.20985">
        <ele>29.3</ele>
        <time>2022-04-11T12:41:25Z</time>
      </trkpt>
      <trkpt lat="49.94016" lon="2.20985">
        <ele>29.3</ele>
        <time>2022-04-11T12:41:26Z</time>
      </trkpt>
      <trkpt lat="49.94016" lon="2.20985">
        <ele>29.3</ele>
        <time>2022-04-11T12:41:27Z</time>
      </trkpt>
      <trkpt lat="49.94016" lon="2.20985">
        <ele>29.3</ele>
        <time>2022-04-11T12:41:28Z</time>
      </trkpt>
      <trkpt lat="49.94016" lon="2.20985">
        <ele>29.3</ele>
        <time>2022-04-11T12:41:29Z</time>
      </trkpt>
      <trkpt lat="49.94016" lon="2.20985">
        <ele>29.3</ele>
        <time>2022-04-11T12:41:30Z</time>
      </trkpt>
      <trkpt lat="49.94016" lon="2.20985">
        <ele>29.3</ele>
        <time>2022-04-11T12:41:31Z</time>
      </trkpt>
      <trkpt lat="49.94016" lon="2.20985">
        <ele>29.3</ele>
        <time>2022-04-11T12:41:32Z</time>
      </trkpt>
      <trkpt lat="49.94016" lon="2.20985">
        <ele>29.3</ele>
        <time>2022-04-11T12:41:33Z</time>
      </trkpt>
      <trkpt lat="49.94016" lon="2.20985">
        <ele>29.3</ele>
        <time>2022-04-11T12:41:34Z</time>
      </trkpt>
      <trkpt lat="49.94016" lon="2.20985">
        <ele>29.3</ele>
        <time>2022-04-11T12:41:35Z</time>
      </trkpt>
      <trkpt lat="49.94016" lon="2.20985">
        <ele>29.3</ele>
        <time>2022-04-11T12:41:36Z</time>
      </trkpt>
      <trkpt lat="49.94016" lon="2.20985">
        <ele>29.3</ele>
        <time>2022-04-11T12:41:37Z</time>
      </trkpt>
      <trkpt lat="49.94016" lon="2.20985">
        <ele>29.3</ele>
        <time>2022-04-11T12:41:38Z</time>
      </trkpt>
      <trkpt lat="49.94016" lon="2.20985">
        <ele>29.3</ele>
        <time>2022-04-11T12:41:39Z</time>
      </trkpt>
      <trkpt lat="49.94016" lon="2.20985">
        <ele>29.3</ele>
        <time>2022-04-11T12:41:40Z</time>
      </trkpt>
      <trkpt lat="49.94016" lon="2.20985">
        <ele>29.3</ele>
        <time>2022-04-11T12:41:41Z</time>
      </trkpt>
      <trkpt lat="49.94016" lon="2.20985">
        <ele>29.3</ele>
        <time>2022-04-11T12:41:42Z</time>
      </trkpt>
      <trkpt lat="49.94016" lon="2.20985">
        <ele>29.3</ele>
        <time>2022-04-11T12:41:43Z</time>
      </trkpt>
      <trkpt lat="49.94016" lon="2.20985">
        <ele>29.3</ele>
        <time>2022-04-11T12:41:44Z</time>
      </trkpt>
      <trkpt lat="49.94016" lon="2.20985">
        <ele>29.3</ele>
        <time>2022-04-11T12:41:45Z</time>
      </trkpt>
      <trkpt lat="49.94016" lon="2.20985">
        <ele>29.3</ele>
        <time>2022-04-11T12:41:46Z</time>
      </trkpt>
      <trkpt lat="49.94016" lon="2.20985">
        <ele>29.3</ele>
        <time>2022-04-11T12:41:47Z</time>
      </trkpt>
      <trkpt lat="49.94016" lon="2.20985">
        <ele>29.3</ele>
        <time>2022-04-11T12:41:48Z</time>
      </trkpt>
      <trkpt lat="49.94016" lon="2.20985">
        <ele>29.3</ele>
        <time>2022-04-11T12:41:49Z</time>
      </trkpt>
      <trkpt lat="49.94016" lon="2.20985">
        <ele>29.3</ele>
        <time>2022-04-11T12:41:50Z</time>
      </trkpt>
      <trkpt lat="49.94016" lon="2.20985">
        <ele>29.3</ele>
        <time>2022-04-11T12:41:51Z</time>
      </trkpt>
      <trkpt lat="49.94016" lon="2.20985">
        <ele>29.3</ele>
        <time>2022-04-11T12:41:52Z</time>
      </trkpt>
      <trkpt lat="49.94016" lon="2.20985">
        <ele>29.3</ele>
        <time>2022-04-11T12:41:53Z</time>
      </trkpt>
      <trkpt lat="49.94016" lon="2.20985">
        <ele>29.3</ele>
        <time>2022-04-11T12:41:54Z</time>
      </trkpt>
      <trkpt lat="49.94016" lon="2.20985">
        <ele>29.3</ele>
        <time>2022-04-11T12:41:55Z</time>
      </trkpt>
      <trkpt lat="49.94016" lon="2.20985">
        <ele>29.3</ele>
        <time>2022-04-11T12:41:56Z</time>
      </trkpt>
      <trkpt lat="49.94016" lon="2.20985">
        <ele>29.3</ele>
        <time>2022-04-11T12:41:57Z</time>
      </trkpt>
      <trkpt lat="49.94016" lon="2.20985">
        <ele>29.3</ele>
        <time>2022-04-11T12:41:58Z</time>
      </trkpt>
      <trkpt lat="49.94016" lon="2.20985">
        <ele>29.3</ele>
        <time>2022-04-11T12:41:59Z</time>
      </trkpt>
      <trkpt lat="49.94016" lon="2.20985">
        <ele>29.3</ele>
        <time>2022-04-11T12:42:00Z</time>
      </trkpt>
      <trkpt lat="49.94016" lon="2.20985">
        <ele>29.3</ele>
        <time>2022-04-11T12:42:01Z</time>
      </trkpt>
      <trkpt lat="49.94016" lon="2.20985">
        <ele>29.3</ele>
        <time>2022-04-11T12:42:02Z</time>
      </trkpt>
      <trkpt lat="49.94016" lon="2.20985">
        <ele>29.3</ele>
        <time>2022-04-11T12:42:03Z</time>
      </trkpt>
      <trkpt lat="49.94016" lon="2.20985">
        <ele>29.3</ele>
        <time>2022-04-11T12:42:04Z</time>
      </trkpt>
      <trkpt lat="49.94016" lon="2.20985">
        <ele>29.3</ele>
        <time>2022-04-11T12:42:05Z</time>
      </trkpt>
      <trkpt lat="49.94016" lon="2.20985">
        <ele>29.3</ele>
        <time>2022-04-11T12:42:06Z</time>
      </trkpt>
      <trkpt lat="49.94016" lon="2.20985">
        <ele>29.3</ele>
        <time>2022-04-11T12:42:07Z</time>
      </trkpt>
      <trkpt lat="49.94016" lon="2.20985">
        <ele>29.3</ele>
        <time>2022-04-11T12:42:08Z</time>
      </trkpt>
      <trkpt lat="49.94016" lon="2.20985">
        <ele>29.3</ele>
        <time>2022-04-11T12:42:09Z</time>
      </trkpt>
      <trkpt lat="49.94016" lon="2.20985">
        <ele>29.3</ele>
        <time>2022-04-11T12:42:10Z</time>
      </trkpt>
      <trkpt lat="49.94016" lon="2.20985">
        <ele>29.3</ele>
        <time>2022-04-11T12:42:11Z</time>
      </trkpt>
      <trkpt lat="49.94016" lon="2.20985">
        <ele>29.3</ele>
        <time>2022-04-11T12:42:12Z</time>
      </trkpt>
      <trkpt lat="49.94016" lon="2.20985">
        <ele>29.3</ele>
        <time>2022-04-11T12:42:13Z</time>
      </trkpt>
      <trkpt lat="49.94016" lon="2.20985">
        <ele>29.3</ele>
        <time>2022-04-11T12:42:14Z</time>
      </trkpt>
      <trkpt lat="49.94016" lon="2.20985">
        <ele>29.3</ele>
        <time>2022-04-11T12:42:15Z</time>
      </trkpt>
      <trkpt lat="49.94016" lon="2.20985">
        <ele>29.3</ele>
        <time>2022-04-11T12:42:16Z</time>
      </trkpt>
      <trkpt lat="49.94016" lon="2.20985">
        <ele>29.3</ele>
        <time>2022-04-11T12:42:17Z</time>
      </trkpt>
      <trkpt lat="49.94016" lon="2.20985">
        <ele>29.3</ele>
        <time>2022-04-11T12:42:18Z</time>
      </trkpt>
      <trkpt lat="49.94016" lon="2.20985">
        <ele>29.3</ele>
        <time>2022-04-11T12:42:19Z</time>
      </trkpt>
      <trkpt lat="49.94016" lon="2.20985">
        <ele>29.3</ele>
        <time>2022-04-11T12:42:20Z</time>
      </trkpt>
      <trkpt lat="49.94016" lon="2.20985">
        <ele>29.3</ele>
        <time>2022-04-11T12:42:21Z</time>
      </trkpt>
      <trkpt lat="49.94016" lon="2.20985">
        <ele>29.3</ele>
        <time>2022-04-11T12:42:22Z</time>
      </trkpt>
      <trkpt lat="49.94016" lon="2.20985">
        <ele>29.3</ele>
        <time>2022-04-11T12:42:23Z</time>
      </trkpt>
      <trkpt lat="49.94016" lon="2.20985">
        <ele>29.3</ele>
        <time>2022-04-11T12:42:24Z</time>
      </trkpt>
      <trkpt lat="49.94016" lon="2.20985">
        <ele>29.3</ele>
        <time>2022-04-11T12:42:25Z</time>
      </trkpt>
      <trkpt lat="49.94016" lon="2.20985">
        <ele>29.3</ele>
        <time>2022-04-11T12:42:26Z</time>
      </trkpt>
      <trkpt lat="49.94016" lon="2.20985">
        <ele>29.3</ele>
        <time>2022-04-11T12:42:27Z</time>
      </trkpt>
      <trkpt lat="49.94016" lon="2.20985">
        <ele>29.3</ele>
        <time>2022-04-11T12:42:28Z</time>
      </trkpt>
      <trkpt lat="49.94016" lon="2.20985">
        <ele>29.3</ele>
        <time>2022-04-11T12:42:29Z</time>
      </trkpt>
      <trkpt lat="49.94016" lon="2.20985">
        <ele>29.3</ele>
        <time>2022-04-11T12:42:30Z</time>
      </trkpt>
      <trkpt lat="49.94016" lon="2.20985">
        <ele>29.3</ele>
        <time>2022-04-11T12:42:31Z</time>
      </trkpt>
      <trkpt lat="49.94016" lon="2.20985">
        <ele>29.3</ele>
        <time>2022-04-11T12:42:32Z</time>
      </trkpt>
      <trkpt lat="49.94016" lon="2.20985">
        <ele>29.3</ele>
        <time>2022-04-11T12:42:33Z</time>
      </trkpt>
      <trkpt lat="49.94016" lon="2.20985">
        <ele>29.3</ele>
        <time>2022-04-11T12:42:34Z</time>
      </trkpt>
      <trkpt lat="49.94016" lon="2.20985">
        <ele>29.4</ele>
        <time>2022-04-11T12:42:35Z</time>
      </trkpt>
      <trkpt lat="49.94016" lon="2.20985">
        <ele>29.4</ele>
        <time>2022-04-11T12:42:36Z</time>
      </trkpt>
      <trkpt lat="49.94016" lon="2.20985">
        <ele>29.4</ele>
        <time>2022-04-11T12:42:37Z</time>
      </trkpt>
      <trkpt lat="49.94016" lon="2.20985">
        <ele>29.4</ele>
        <time>2022-04-11T12:42:38Z</time>
      </trkpt>
      <trkpt lat="49.94016" lon="2.20985">
        <ele>29.4</ele>
        <time>2022-04-11T12:42:39Z</time>
      </trkpt>
      <trkpt lat="49.94016" lon="2.20985">
        <ele>29.4</ele>
        <time>2022-04-11T12:42:40Z</time>
      </trkpt>
      <trkpt lat="49.94016" lon="2.20985">
        <ele>29.5</ele>
        <time>2022-04-11T12:42:41Z</time>
      </trkpt>
      <trkpt lat="49.94016" lon="2.20985">
        <ele>29.5</ele>
        <time>2022-04-11T12:42:42Z</time>
      </trkpt>
      <trkpt lat="49.94016" lon="2.20985">
        <ele>29.5</ele>
        <time>2022-04-11T12:42:43Z</time>
      </trkpt>
      <trkpt lat="49.94016" lon="2.20985">
        <ele>29.5</ele>
        <time>2022-04-11T12:42:44Z</time>
      </trkpt>
      <trkpt lat="49.94016" lon="2.20985">
        <ele>29.5</ele>
        <time>2022-04-11T12:42:45Z</time>
      </trkpt>
      <trkpt lat="49.94016" lon="2.20985">
        <ele>29.5</ele>
        <time>2022-04-11T12:42:46Z</time>
      </trkpt>
      <trkpt lat="49.94016" lon="2.20985">
        <ele>29.5</ele>
        <time>2022-04-11T12:42:47Z</time>
      </trkpt>
      <trkpt lat="49.94016" lon="2.20985">
        <ele>29.6</ele>
        <time>2022-04-11T12:42:48Z</time>
      </trkpt>
      <trkpt lat="49.94016" lon="2.20985">
        <ele>29.6</ele>
        <time>2022-04-11T12:42:49Z</time>
      </trkpt>
      <trkpt lat="49.94016" lon="2.20985">
        <ele>29.6</ele>
        <time>2022-04-11T12:42:50Z</time>
      </trkpt>
      <trkpt lat="49.94016" lon="2.20985">
        <ele>29.6</ele>
        <time>2022-04-11T12:42:51Z</time>
      </trkpt>
      <trkpt lat="49.94016" lon="2.20985">
        <ele>29.6</ele>
        <time>2022-04-11T12:42:52Z</time>
      </trkpt>
      <trkpt lat="49.94016" lon="2.20985">
        <ele>29.6</ele>
        <time>2022-04-11T12:42:53Z</time>
      </trkpt>
      <trkpt lat="49.94016" lon="2.20985">
        <ele>29.6</ele>
        <time>2022-04-11T12:42:54Z</time>
      </trkpt>
      <trkpt lat="49.94016" lon="2.20985">
        <ele>29.7</ele>
        <time>2022-04-11T12:42:55Z</time>
      </trkpt>
      <trkpt lat="49.94016" lon="2.20985">
        <ele>29.7</ele>
        <time>2022-04-11T12:42:56Z</time>
      </trkpt>
      <trkpt lat="49.94016" lon="2.20985">
        <ele>29.7</ele>
        <time>2022-04-11T12:42:57Z</time>
      </trkpt>
      <trkpt lat="49.94016" lon="2.20985">
        <ele>29.7</ele>
        <time>2022-04-11T12:42:58Z</time>
      </trkpt>
      <trkpt lat="49.94016" lon="2.20985">
        <ele>29.7</ele>
        <time>2022-04-11T12:42:59Z</time>
      </trkpt>
      <trkpt lat="49.94016" lon="2.20985">
        <ele>29.7</ele>
        <time>2022-04-11T12:43:00Z</time>
      </trkpt>
      <trkpt lat="49.94016" lon="2.20985">
        <ele>29.8</ele>
        <time>2022-04-11T12:43:01Z</time>
      </trkpt>
      <trkpt lat="49.94016" lon="2.20985">
        <ele>29.8</ele>
        <time>2022-04-11T12:43:02Z</time>
      </trkpt>
      <trkpt lat="49.94016" lon="2.20985">
        <ele>29.8</ele>
        <time>2022-04-11T12:43:03Z</time>
      </trkpt>
      <trkpt lat="49.94016" lon="2.20985">
        <ele>29.8</ele>
        <time>2022-04-11T12:43:04Z</time>
      </trkpt>
      <trkpt lat="49.94016" lon="2.20985">
        <ele>29.8</ele>
        <time>2022-04-11T12:43:05Z</time>
      </trkpt>
      <trkpt lat="49.94016" lon="2.20985">
        <ele>29.8</ele>
        <time>2022-04-11T12:43:06Z</time>
      </trkpt>
      <trkpt lat="49.94016" lon="2.20985">
        <ele>29.8</ele>
        <time>2022-04-11T12:43:07Z</time>
      </trkpt>
      <trkpt lat="49.94016" lon="2.20985">
        <ele>29.9</ele>
        <time>2022-04-11T12:43:08Z</time>
      </trkpt>
      <trkpt lat="49.94016" lon="2.20985">
        <ele>29.9</ele>
        <time>2022-04-11T12:43:09Z</time>
      </trkpt>
      <trkpt lat="49.94016" lon="2.20985">
        <ele>29.9</ele>
        <time>2022-04-11T12:43:10Z</time>
      </trkpt>
      <trkpt lat="49.94016" lon="2.20985">
        <ele>29.9</ele>
        <time>2022-04-11T12:43:11Z</time>
      </trkpt>
      <trkpt lat="49.94016" lon="2.20985">
        <ele>29.9</ele>
        <time>2022-04-11T12:43:12Z</time>
      </trkpt>
      <trkpt lat="49.94016" lon="2.20985">
        <ele>29.9</ele>
        <time>2022-04-11T12:43:13Z</time>
      </trkpt>
      <trkpt lat="49.94016" lon="2.20985">
        <ele>29.9</ele>
        <time>2022-04-11T12:43:14Z</time>
      </trkpt>
      <trkpt lat="49.94016" lon="2.20985">
        <ele>30</ele>
        <time>2022-04-11T12:43:15Z</time>
      </trkpt>
      <trkpt lat="49.94016" lon="2.20985">
        <ele>30</ele>
        <time>2022-04-11T12:43:16Z</time>
      </trkpt>
      <trkpt lat="49.94016" lon="2.20985">
        <ele>30</ele>
        <time>2022-04-11T12:43:17Z</time>
      </trkpt>
      <trkpt lat="49.94016" lon="2.20985">
        <ele>30</ele>
        <time>2022-04-11T12:43:18Z</time>
      </trkpt>
      <trkpt lat="49.94016" lon="2.20985">
        <ele>30</ele>
        <time>2022-04-11T12:43:19Z</time>
      </trkpt>
      <trkpt lat="49.94016" lon="2.20985">
        <ele>30</ele>
        <time>2022-04-11T12:43:20Z</time>
      </trkpt>
      <trkpt lat="49.94016" lon="2.20985">
        <ele>30.1</ele>
        <time>2022-04-11T12:43:21Z</time>
      </trkpt>
      <trkpt lat="49.94016" lon="2.20985">
        <ele>30.1</ele>
        <time>2022-04-11T12:43:22Z</time>
      </trkpt>
      <trkpt lat="49.94016" lon="2.20985">
        <ele>30.1</ele>
        <time>2022-04-11T12:43:23Z</time>
      </trkpt>
      <trkpt lat="49.94016" lon="2.20985">
        <ele>30.1</ele>
        <time>2022-04-11T12:43:24Z</time>
      </trkpt>
      <trkpt lat="49.94016" lon="2.20985">
        <ele>30.1</ele>
        <time>2022-04-11T12:43:25Z</time>
      </trkpt>
      <trkpt lat="49.94016" lon="2.20985">
        <ele>30.1</ele>
        <time>2022-04-11T12:43:26Z</time>
      </trkpt>
      <trkpt lat="49.94016" lon="2.20985">
        <ele>30.1</ele>
        <time>2022-04-11T12:43:27Z</time>
      </trkpt>
      <trkpt lat="49.94016" lon="2.20985">
        <ele>30.2</ele>
        <time>2022-04-11T12:43:28Z</time>
      </trkpt>
      <trkpt lat="49.94016" lon="2.20985">
        <ele>30.2</ele>
        <time>2022-04-11T12:43:29Z</time>
      </trkpt>
      <trkpt lat="49.94016" lon="2.20985">
        <ele>30.2</ele>
        <time>2022-04-11T12:43:30Z</time>
      </trkpt>
      <trkpt lat="49.94016" lon="2.20985">
        <ele>30.2</ele>
        <time>2022-04-11T12:43:31Z</time>
      </trkpt>
      <trkpt lat="49.94016" lon="2.20985">
        <ele>30.2</ele>
        <time>2022-04-11T12:43:32Z</time>
      </trkpt>
      <trkpt lat="49.94016" lon="2.20985">
        <ele>30.2</ele>
        <time>2022-04-11T12:43:33Z</time>
      </trkpt>
      <trkpt lat="49.94016" lon="2.20985">
        <ele>30.2</ele>
        <time>2022-04-11T12:43:34Z</time>
      </trkpt>
      <trkpt lat="49.94016" lon="2.20985">
        <ele>30.3</ele>
        <time>2022-04-11T12:43:35Z</time>
      </trkpt>
      <trkpt lat="49.94016" lon="2.20985">
        <ele>30.3</ele>
        <time>2022-04-11T12:43:36Z</time>
      </trkpt>
      <trkpt lat="49.94016" lon="2.20985">
        <ele>30.3</ele>
        <time>2022-04-11T12:43:37Z</time>
      </trkpt>
      <trkpt lat="49.94016" lon="2.20985">
        <ele>30.3</ele>
        <time>2022-04-11T12:43:38Z</time>
      </trkpt>
      <trkpt lat="49.94016" lon="2.20985">
        <ele>30.3</ele>
        <time>2022-04-11T12:43:39Z</time>
      </trkpt>
      <trkpt lat="49.94016" lon="2.20985">
        <ele>30.3</ele>
        <time>2022-04-11T12:43:40Z</time>
      </trkpt>
      <trkpt lat="49.94016" lon="2.20985">
        <ele>30.4</ele>
        <time>2022-04-11T12:43:41Z</time>
      </trkpt>
      <trkpt lat="49.94016" lon="2.20985">
        <ele>30.4</ele>
        <time>2022-04-11T12:43:42Z</time>
      </trkpt>
      <trkpt lat="49.94016" lon="2.20985">
        <ele>30.4</ele>
        <time>2022-04-11T12:43:43Z</time>
      </trkpt>
      <trkpt lat="49.94016" lon="2.20985">
        <ele>30.4</ele>
        <time>2022-04-11T12:43:44Z</time>
      </trkpt>
      <trkpt lat="49.94016" lon="2.20985">
        <ele>30.4</ele>
        <time>2022-04-11T12:43:45Z</time>
      </trkpt>
      <trkpt lat="49.94016" lon="2.20985">
        <ele>30.4</ele>
        <time>2022-04-11T12:43:46Z</time>
      </trkpt>
      <trkpt lat="49.94016" lon="2.20985">
        <ele>30.4</ele>
        <time>2022-04-11T12:43:47Z</time>
      </trkpt>
      <trkpt lat="49.94016" lon="2.20985">
        <ele>30.5</ele>
        <time>2022-04-11T12:43:48Z</time>
      </trkpt>
      <trkpt lat="49.94016" lon="2.20985">
        <ele>30.5</ele>
        <time>2022-04-11T12:43:49Z</time>
      </trkpt>
      <trkpt lat="49.94016" lon="2.20985">
        <ele>30.5</ele>
        <time>2022-04-11T12:43:50Z</time>
      </trkpt>
      <trkpt lat="49.94016" lon="2.20985">
        <ele>30.5</ele>
        <time>2022-04-11T12:43:51Z</time>
      </trkpt>
      <trkpt lat="49.94016" lon="2.20985">
        <ele>30.5</ele>
        <time>2022-04-11T12:43:52Z</time>
      </trkpt>
      <trkpt lat="49.94016" lon="2.20985">
        <ele>30.5</ele>
        <time>2022-04-11T12:43:53Z</time>
      </trkpt>
      <trkpt lat="49.94016" lon="2.20985">
        <ele>30.5</ele>
        <time>2022-04-11T12:43:54Z</time>
      </trkpt>
      <trkpt lat="49.94016" lon="2.20985">
        <ele>30.6</ele>
        <time>2022-04-11T12:43:55Z</time>
      </trkpt>
      <trkpt lat="49.94016" lon="2.20985">
        <ele>30.6</ele>
        <time>2022-04-11T12:43:56Z</time>
      </trkpt>
      <trkpt lat="49.94016" lon="2.20985">
        <ele>30.6</ele>
        <time>2022-04-11T12:43:57Z</time>
      </trkpt>
      <trkpt lat="49.94016" lon="2.20985">
        <ele>30.6</ele>
        <time>2022-04-11T12:43:58Z</time>
      </trkpt>
      <trkpt lat="49.94016" lon="2.20985">
        <ele>30.6</ele>
        <time>2022-04-11T12:43:59Z</time>
      </trkpt>
      <trkpt lat="49.94016" lon="2.20985">
        <ele>30.6</ele>
        <time>2022-04-11T12:44:00Z</time>
      </trkpt>
      <trkpt lat="49.94016" lon="2.20985">
        <ele>30.7</ele>
        <time>2022-04-11T12:44:01Z</time>
      </trkpt>
      <trkpt lat="49.94016" lon="2.20985">
        <ele>30.7</ele>
        <time>2022-04-11T12:44:02Z</time>
      </trkpt>
      <trkpt lat="49.94016" lon="2.20985">
        <ele>30.7</ele>
        <time>2022-04-11T12:44:03Z</time>
      </trkpt>
      <trkpt lat="49.94016" lon="2.20985">
        <ele>30.7</ele>
        <time>2022-04-11T12:44:04Z</time>
      </trkpt>
      <trkpt lat="49.94016" lon="2.20985">
        <ele>30.7</ele>
        <time>2022-04-11T12:44:05Z</time>
      </trkpt>
      <trkpt lat="49.94016" lon="2.20985">
        <ele>30.7</ele>
        <time>2022-04-11T12:44:06Z</time>
      </trkpt>
      <trkpt lat="49.94016" lon="2.20985">
        <ele>30.7</ele>
        <time>2022-04-11T12:44:07Z</time>
      </trkpt>
      <trkpt lat="49.94016" lon="2.20985">
        <ele>30.8</ele>
        <time>2022-04-11T12:44:08Z</time>
      </trkpt>
      <trkpt lat="49.94016" lon="2.20985">
        <ele>30.8</ele>
        <time>2022-04-11T12:44:09Z</time>
      </trkpt>
      <trkpt lat="49.94016" lon="2.20985">
        <ele>30.8</ele>
        <time>2022-04-11T12:44:10Z</time>
      </trkpt>
      <trkpt lat="49.94016" lon="2.20985">
        <ele>30.8</ele>
        <time>2022-04-11T12:44:11Z</time>
      </trkpt>
      <trkpt lat="49.94016" lon="2.20985">
        <ele>30.8</ele>
        <time>2022-04-11T12:44:12Z</time>
      </trkpt>
      <trkpt lat="49.94016" lon="2.20985">
        <ele>30.8</ele>
        <time>2022-04-11T12:44:13Z</time>
      </trkpt>
      <trkpt lat="49.94016" lon="2.20985">
        <ele>30.8</ele>
        <time>2022-04-11T12:44:14Z</time>
      </trkpt>
      <trkpt lat="49.94016" lon="2.20985">
        <ele>30.8</ele>
        <time>2022-04-11T12:44:15Z</time>
      </trkpt>
      <trkpt lat="49.94016" lon="2.20985">
        <ele>30.8</ele>
        <time>2022-04-11T12:44:16Z</time>
      </trkpt>
      <trkpt lat="49.94016" lon="2.20985">
        <ele>30.8</ele>
        <time>2022-04-11T12:44:17Z</time>
      </trkpt>
      <trkpt lat="49.94016" lon="2.20985">
        <ele>30.8</ele>
        <time>2022-04-11T12:44:18Z</time>
      </trkpt>
      <trkpt lat="49.94016" lon="2.20985">
        <ele>30.8</ele>
        <time>2022-04-11T12:44:19Z</time>
      </trkpt>
      <trkpt lat="49.94016" lon="2.20985">
        <ele>30.8</ele>
        <time>2022-04-11T12:44:20Z</time>
      </trkpt>
      <trkpt lat="49.94016" lon="2.20985">
        <ele>30.8</ele>
        <time>2022-04-11T12:44:21Z</time>
      </trkpt>
      <trkpt lat="49.94016" lon="2.20985">
        <ele>30.8</ele>
        <time>2022-04-11T12:44:22Z</time>
      </trkpt>
      <trkpt lat="49.94016" lon="2.20985">
        <ele>30.8</ele>
        <time>2022-04-11T12:44:23Z</time>
      </trkpt>
      <trkpt lat="49.94016" lon="2.20985">
        <ele>30.8</ele>
        <time>2022-04-11T12:44:24Z</time>
      </trkpt>
      <trkpt lat="49.94016" lon="2.20985">
        <ele>30.8</ele>
        <time>2022-04-11T12:44:25Z</time>
      </trkpt>
      <trkpt lat="49.94016" lon="2.20985">
        <ele>30.8</ele>
        <time>2022-04-11T12:44:26Z</time>
      </trkpt>
      <trkpt lat="49.94016" lon="2.20985">
        <ele>30.8</ele>
        <time>2022-04-11T12:44:27Z</time>
      </trkpt>
      <trkpt lat="49.94016" lon="2.20985">
        <ele>30.8</ele>
        <time>2022-04-11T12:44:28Z</time>
      </trkpt>
      <trkpt lat="49.94016" lon="2.20985">
        <ele>30.8</ele>
        <time>2022-04-11T12:44:29Z</time>
      </trkpt>
      <trkpt lat="49.94016" lon="2.20985">
        <ele>30.8</ele>
        <time>2022-04-11T12:44:30Z</time>
      </trkpt>
      <trkpt lat="49.94016" lon="2.20985">
        <ele>30.8</ele>
        <time>2022-04-11T12:44:31Z</time>
      </trkpt>
      <trkpt lat="49.94016" lon="2.20985">
        <ele>30.8</ele>
        <time>2022-04-11T12:44:32Z</time>
      </trkpt>
      <trkpt lat="49.94016" lon="2.20985">
        <ele>30.8</ele>
        <time>2022-04-11T12:44:33Z</time>
      </trkpt>
      <trkpt lat="49.94016" lon="2.20985">
        <ele>30.8</ele>
        <time>2022-04-11T12:44:34Z</time>
      </trkpt>
      <trkpt lat="49.94016" lon="2.20985">
        <ele>30.8</ele>
        <time>2022-04-11T12:44:35Z</time>
      </trkpt>
      <trkpt lat="49.94016" lon="2.20985">
        <ele>30.8</ele>
        <time>2022-04-11T12:44:36Z</time>
      </trkpt>
      <trkpt lat="49.94016" lon="2.20985">
        <ele>30.8</ele>
        <time>2022-04-11T12:44:37Z</time>
      </trkpt>
      <trkpt lat="49.94016" lon="2.20985">
        <ele>30.8</ele>
        <time>2022-04-11T12:44:38Z</time>
      </trkpt>
      <trkpt lat="49.94016" lon="2.20985">
        <ele>30.8</ele>
        <time>2022-04-11T12:44:39Z</time>
      </trkpt>
      <trkpt lat="49.94016" lon="2.20985">
        <ele>30.8</ele>
        <time>2022-04-11T12:44:40Z</time>
      </trkpt>
      <trkpt lat="49.94016" lon="2.20985">
        <ele>30.8</ele>
        <time>2022-04-11T12:44:41Z</time>
      </trkpt>
      <trkpt lat="49.94016" lon="2.20985">
        <ele>30.8</ele>
        <time>2022-04-11T12:44:42Z</time>
      </trkpt>
      <trkpt lat="49.94016" lon="2.20985">
        <ele>30.8</ele>
        <time>2022-04-11T12:44:43Z</time>
      </trkpt>
      <trkpt lat="49.94016" lon="2.20985">
        <ele>30.8</ele>
        <time>2022-04-11T12:44:44Z</time>
      </trkpt>
      <trkpt lat="49.94016" lon="2.20985">
        <ele>30.8</ele>
        <time>2022-04-11T12:44:45Z</time>
      </trkpt>
      <trkpt lat="49.94016" lon="2.20985">
        <ele>30.8</ele>
        <time>2022-04-11T12:44:46Z</time>
      </trkpt>
      <trkpt lat="49.94016" lon="2.20985">
        <ele>30.8</ele>
        <time>2022-04-11T12:44:47Z</time>
      </trkpt>
      <trkpt lat="49.94016" lon="2.20985">
        <ele>30.8</ele>
        <time>2022-04-11T12:44:48Z</time>
      </trkpt>
      <trkpt lat="49.94016" lon="2.20985">
        <ele>30.8</ele>
        <time>2022-04-11T12:44:49Z</time>
      </trkpt>
      <trkpt lat="49.94016" lon="2.20985">
        <ele>30.8</ele>
        <time>2022-04-11T12:44:50Z</time>
      </trkpt>
      <trkpt lat="49.94016" lon="2.20985">
        <ele>30.8</ele>
        <time>2022-04-11T12:44:51Z</time>
      </trkpt>
      <trkpt lat="49.94016" lon="2.20985">
        <ele>30.8</ele>
        <time>2022-04-11T12:44:52Z</time>
      </trkpt>
      <trkpt lat="49.94016" lon="2.20985">
        <ele>30.8</ele>
        <time>2022-04-11T12:44:53Z</time>
      </trkpt>
      <trkpt lat="49.94016" lon="2.20985">
        <ele>30.8</ele>
        <time>2022-04-11T12:44:54Z</time>
      </trkpt>
      <trkpt lat="49.94016" lon="2.20985">
        <ele>30.8</ele>
        <time>2022-04-11T12:44:55Z</time>
      </trkpt>
      <trkpt lat="49.94016" lon="2.20985">
        <ele>30.8</ele>
        <time>2022-04-11T12:44:56Z</time>
      </trkpt>
      <trkpt lat="49.94016" lon="2.20985">
        <ele>30.8</ele>
        <time>2022-04-11T12:44:57Z</time>
      </trkpt>
      <trkpt lat="49.94016" lon="2.20985">
        <ele>30.8</ele>
        <time>2022-04-11T12:44:58Z</time>
      </trkpt>
      <trkpt lat="49.94016" lon="2.20985">
        <ele>30.8</ele>
        <time>2022-04-11T12:44:59Z</time>
      </trkpt>
      <trkpt lat="49.94016" lon="2.20985">
        <ele>30.8</ele>
        <time>2022-04-11T12:45:00Z</time>
      </trkpt>
      <trkpt lat="49.94016" lon="2.20985">
        <ele>30.8</ele>
        <time>2022-04-11T12:45:01Z</time>
      </trkpt>
      <trkpt lat="49.94016" lon="2.20985">
        <ele>30.8</ele>
        <time>2022-04-11T12:45:02Z</time>
      </trkpt>
      <trkpt lat="49.94016" lon="2.20985">
        <ele>30.8</ele>
        <time>2022-04-11T12:45:03Z</time>
      </trkpt>
      <trkpt lat="49.94016" lon="2.20985">
        <ele>30.8</ele>
        <time>2022-04-11T12:45:04Z</time>
      </trkpt>
      <trkpt lat="49.94016" lon="2.20985">
        <ele>30.8</ele>
        <time>2022-04-11T12:45:05Z</time>
      </trkpt>
      <trkpt lat="49.94016" lon="2.20985">
        <ele>30.8</ele>
        <time>2022-04-11T12:45:06Z</time>
      </trkpt>
      <trkpt lat="49.94016" lon="2.20985">
        <ele>30.8</ele>
        <time>2022-04-11T12:45:07Z</time>
      </trkpt>
      <trkpt lat="49.94016" lon="2.20985">
        <ele>30.8</ele>
        <time>2022-04-11T12:45:08Z</time>
      </trkpt>
      <trkpt lat="49.94016" lon="2.20985">
        <ele>30.8</ele>
        <time>2022-04-11T12:45:09Z</time>
      </trkpt>
      <trkpt lat="49.94016" lon="2.20985">
        <ele>30.8</ele>
        <time>2022-04-11T12:45:10Z</time>
      </trkpt>
      <trkpt lat="49.94016" lon="2.20985">
        <ele>30.8</ele>
        <time>2022-04-11T12:45:11Z</time>
      </trkpt>
      <trkpt lat="49.94016" lon="2.20985">
        <ele>30.8</ele>
        <time>2022-04-11T12:45:12Z</time>
      </trkpt>
      <trkpt lat="49.94016" lon="2.20985">
        <ele>30.8</ele>
        <time>2022-04-11T12:45:13Z</time>
      </trkpt>
      <trkpt lat="49.94016" lon="2.20985">
        <ele>30.8</ele>
        <time>2022-04-11T12:45:14Z</time>
      </trkpt>
      <trkpt lat="49.94016" lon="2.20985">
        <ele>30.8</ele>
        <time>2022-04-11T12:45:15Z</time>
      </trkpt>
      <trkpt lat="49.94016" lon="2.20985">
        <ele>30.8</ele>
        <time>2022-04-11T12:45:16Z</time>
      </trkpt>
      <trkpt lat="49.94016" lon="2.20985">
        <ele>30.8</ele>
        <time>2022-04-11T12:45:17Z</time>
      </trkpt>
      <trkpt lat="49.94016" lon="2.20985">
        <ele>30.8</ele>
        <time>2022-04-11T12:45:18Z</time>
      </trkpt>
      <trkpt lat="49.94016" lon="2.20985">
        <ele>30.8</ele>
        <time>2022-04-11T12:45:19Z</time>
      </trkpt>
      <trkpt lat="49.94016" lon="2.20985">
        <ele>30.8</ele>
        <time>2022-04-11T12:45:20Z</time>
      </trkpt>
      <trkpt lat="49.94016" lon="2.20985">
        <ele>30.8</ele>
        <time>2022-04-11T12:45:21Z</time>
      </trkpt>
      <trkpt lat="49.94016" lon="2.20985">
        <ele>30.8</ele>
        <time>2022-04-11T12:45:22Z</time>
      </trkpt>
      <trkpt lat="49.94016" lon="2.20985">
        <ele>30.8</ele>
        <time>2022-04-11T12:45:23Z</time>
      </trkpt>
      <trkpt lat="49.94016" lon="2.20985">
        <ele>30.8</ele>
        <time>2022-04-11T12:45:24Z</time>
      </trkpt>
      <trkpt lat="49.94016" lon="2.20985">
        <ele>30.8</ele>
        <time>2022-04-11T12:45:25Z</time>
      </trkpt>
      <trkpt lat="49.94016" lon="2.20985">
        <ele>30.8</ele>
        <time>2022-04-11T12:45:26Z</time>
      </trkpt>
      <trkpt lat="49.94016" lon="2.20985">
        <ele>30.8</ele>
        <time>2022-04-11T12:45:27Z</time>
      </trkpt>
      <trkpt lat="49.94016" lon="2.20985">
        <ele>30.8</ele>
        <time>2022-04-11T12:45:28Z</time>
      </trkpt>
      <trkpt lat="49.94016" lon="2.20985">
        <ele>30.8</ele>
        <time>2022-04-11T12:45:29Z</time>
      </trkpt>
      <trkpt lat="49.94016" lon="2.20985">
        <ele>30.8</ele>
        <time>2022-04-11T12:45:30Z</time>
      </trkpt>
      <trkpt lat="49.94016" lon="2.20985">
        <ele>30.8</ele>
        <time>2022-04-11T12:45:31Z</time>
      </trkpt>
      <trkpt lat="49.94016" lon="2.20985">
        <ele>30.8</ele>
        <time>2022-04-11T12:45:32Z</time>
      </trkpt>
      <trkpt lat="49.94016" lon="2.20985">
        <ele>30.8</ele>
        <time>2022-04-11T12:45:33Z</time>
      </trkpt>
      <trkpt lat="49.94016" lon="2.20985">
        <ele>30.8</ele>
        <time>2022-04-11T12:45:34Z</time>
      </trkpt>
      <trkpt lat="49.94016" lon="2.20985">
        <ele>30.8</ele>
        <time>2022-04-11T12:45:35Z</time>
      </trkpt>
      <trkpt lat="49.94016" lon="2.20985">
        <ele>30.8</ele>
        <time>2022-04-11T12:45:36Z</time>
      </trkpt>
      <trkpt lat="49.94016" lon="2.20985">
        <ele>30.8</ele>
        <time>2022-04-11T12:45:37Z</time>
      </trkpt>
      <trkpt lat="49.94016" lon="2.20985">
        <ele>30.8</ele>
        <time>2022-04-11T12:45:38Z</time>
      </trkpt>
      <trkpt lat="49.94016" lon="2.20985">
        <ele>30.8</ele>
        <time>2022-04-11T12:45:39Z</time>
      </trkpt>
      <trkpt lat="49.94016" lon="2.20985">
        <ele>30.8</ele>
        <time>2022-04-11T12:45:40Z</time>
      </trkpt>
      <trkpt lat="49.94016" lon="2.20985">
        <ele>30.8</ele>
        <time>2022-04-11T12:45:41Z</time>
      </trkpt>
      <trkpt lat="49.94016" lon="2.20985">
        <ele>30.8</ele>
        <time>2022-04-11T12:45:42Z</time>
      </trkpt>
      <trkpt lat="49.94016" lon="2.20985">
        <ele>30.8</ele>
        <time>2022-04-11T12:45:43Z</time>
      </trkpt>
      <trkpt lat="49.94016" lon="2.20985">
        <ele>30.8</ele>
        <time>2022-04-11T12:45:44Z</time>
      </trkpt>
      <trkpt lat="49.94016" lon="2.20985">
        <ele>30.8</ele>
        <time>2022-04-11T12:45:45Z</time>
      </trkpt>
      <trkpt lat="49.94016" lon="2.20985">
        <ele>30.8</ele>
        <time>2022-04-11T12:45:46Z</time>
      </trkpt>
      <trkpt lat="49.94016" lon="2.20985">
        <ele>30.8</ele>
        <time>2022-04-11T12:45:47Z</time>
      </trkpt>
      <trkpt lat="49.94016" lon="2.20985">
        <ele>30.8</ele>
        <time>2022-04-11T12:45:48Z</time>
      </trkpt>
      <trkpt lat="49.94016" lon="2.20985">
        <ele>30.8</ele>
        <time>2022-04-11T12:45:49Z</time>
      </trkpt>
      <trkpt lat="49.94016" lon="2.20985">
        <ele>30.8</ele>
        <time>2022-04-11T12:45:50Z</time>
      </trkpt>
      <trkpt lat="49.94016" lon="2.20985">
        <ele>30.8</ele>
        <time>2022-04-11T12:45:51Z</time>
      </trkpt>
      <trkpt lat="49.94016" lon="2.20985">
        <ele>30.8</ele>
        <time>2022-04-11T12:45:52Z</time>
      </trkpt>
      <trkpt lat="49.94016" lon="2.20985">
        <ele>30.8</ele>
        <time>2022-04-11T12:45:53Z</time>
      </trkpt>
      <trkpt lat="49.94016" lon="2.20985">
        <ele>30.8</ele>
        <time>2022-04-11T12:45:54Z</time>
      </trkpt>
      <trkpt lat="49.94016" lon="2.20985">
        <ele>30.8</ele>
        <time>2022-04-11T12:45:55Z</time>
      </trkpt>
      <trkpt lat="49.94016" lon="2.20985">
        <ele>30.8</ele>
        <time>2022-04-11T12:45:56Z</time>
      </trkpt>
      <trkpt lat="49.94016" lon="2.20985">
        <ele>30.8</ele>
        <time>2022-04-11T12:45:57Z</time>
      </trkpt>
      <trkpt lat="49.94016" lon="2.20985">
        <ele>30.8</ele>
        <time>2022-04-11T12:45:58Z</time>
      </trkpt>
      <trkpt lat="49.94016" lon="2.20985">
        <ele>30.8</ele>
        <time>2022-04-11T12:45:59Z</time>
      </trkpt>
      <trkpt lat="49.94016" lon="2.20985">
        <ele>30.8</ele>
        <time>2022-04-11T12:46:00Z</time>
      </trkpt>
      <trkpt lat="49.94016" lon="2.20985">
        <ele>30.8</ele>
        <time>2022-04-11T12:46:01Z</time>
      </trkpt>
      <trkpt lat="49.94016" lon="2.20985">
        <ele>30.8</ele>
        <time>2022-04-11T12:46:02Z</time>
      </trkpt>
      <trkpt lat="49.94016" lon="2.20985">
        <ele>30.8</ele>
        <time>2022-04-11T12:46:03Z</time>
      </trkpt>
      <trkpt lat="49.94016" lon="2.20985">
        <ele>30.8</ele>
        <time>2022-04-11T12:46:04Z</time>
      </trkpt>
      <trkpt lat="49.94016" lon="2.20985">
        <ele>30.8</ele>
        <time>2022-04-11T12:46:05Z</time>
      </trkpt>
      <trkpt lat="49.94016" lon="2.20985">
        <ele>30.8</ele>
        <time>2022-04-11T12:46:06Z</time>
      </trkpt>
      <trkpt lat="49.94016" lon="2.20985">
        <ele>30.8</ele>
        <time>2022-04-11T12:46:07Z</time>
      </trkpt>
      <trkpt lat="49.94016" lon="2.20985">
        <ele>30.8</ele>
        <time>2022-04-11T12:46:08Z</time>
      </trkpt>
      <trkpt lat="49.94016" lon="2.20985">
        <ele>30.8</ele>
        <time>2022-04-11T12:46:09Z</time>
      </trkpt>
      <trkpt lat="49.94016" lon="2.20985">
        <ele>30.8</ele>
        <time>2022-04-11T12:46:10Z</time>
      </trkpt>
      <trkpt lat="49.94016" lon="2.20985">
        <ele>30.8</ele>
        <time>2022-04-11T12:46:11Z</time>
      </trkpt>
      <trkpt lat="49.94016" lon="2.20985">
        <ele>30.8</ele>
        <time>2022-04-11T12:46:12Z</time>
      </trkpt>
      <trkpt lat="49.94016" lon="2.20985">
        <ele>30.8</ele>
        <time>2022-04-11T12:46:13Z</time>
      </trkpt>
      <trkpt lat="49.94016" lon="2.20985">
        <ele>30.8</ele>
        <time>2022-04-11T12:46:14Z</time>
      </trkpt>
      <trkpt lat="49.94016" lon="2.20985">
        <ele>30.8</ele>
        <time>2022-04-11T12:46:15Z</time>
      </trkpt>
      <trkpt lat="49.94016" lon="2.20985">
        <ele>30.8</ele>
        <time>2022-04-11T12:46:16Z</time>
      </trkpt>
      <trkpt lat="49.94016" lon="2.20985">
        <ele>30.8</ele>
        <time>2022-04-11T12:46:17Z</time>
      </trkpt>
      <trkpt lat="49.94016" lon="2.20985">
        <ele>30.8</ele>
        <time>2022-04-11T12:46:18Z</time>
      </trkpt>
      <trkpt lat="49.94016" lon="2.20985">
        <ele>30.8</ele>
        <time>2022-04-11T12:46:19Z</time>
      </trkpt>
      <trkpt lat="49.94016" lon="2.20985">
        <ele>30.8</ele>
        <time>2022-04-11T12:46:20Z</time>
      </trkpt>
      <trkpt lat="49.94016" lon="2.20985">
        <ele>30.8</ele>
        <time>2022-04-11T12:46:21Z</time>
      </trkpt>
      <trkpt lat="49.94016" lon="2.20985">
        <ele>30.8</ele>
        <time>2022-04-11T12:46:22Z</time>
      </trkpt>
      <trkpt lat="49.94016" lon="2.20985">
        <ele>30.8</ele>
        <time>2022-04-11T12:46:23Z</time>
      </trkpt>
      <trkpt lat="49.94016" lon="2.20985">
        <ele>30.8</ele>
        <time>2022-04-11T12:46:24Z</time>
      </trkpt>
      <trkpt lat="49.94016" lon="2.20985">
        <ele>30.8</ele>
        <time>2022-04-11T12:46:25Z</time>
      </trkpt>
      <trkpt lat="49.94016" lon="2.20985">
        <ele>30.8</ele>
        <time>2022-04-11T12:46:26Z</time>
      </trkpt>
      <trkpt lat="49.94016" lon="2.20985">
        <ele>30.8</ele>
        <time>2022-04-11T12:46:27Z</time>
      </trkpt>
      <trkpt lat="49.94016" lon="2.20985">
        <ele>30.8</ele>
        <time>2022-04-11T12:46:28Z</time>
      </trkpt>
      <trkpt lat="49.94016" lon="2.20985">
        <ele>30.8</ele>
        <time>2022-04-11T12:46:29Z</time>
      </trkpt>
      <trkpt lat="49.94016" lon="2.20985">
        <ele>30.8</ele>
        <time>2022-04-11T12:46:30Z</time>
      </trkpt>
      <trkpt lat="49.94016" lon="2.20985">
        <ele>30.8</ele>
        <time>2022-04-11T12:46:31Z</time>
      </trkpt>
      <trkpt lat="49.94016" lon="2.20985">
        <ele>30.8</ele>
        <time>2022-04-11T12:46:32Z</time>
      </trkpt>
      <trkpt lat="49.94016" lon="2.20985">
        <ele>30.8</ele>
        <time>2022-04-11T12:46:33Z</time>
      </trkpt>
      <trkpt lat="49.94016" lon="2.20985">
        <ele>30.8</ele>
        <time>2022-04-11T12:46:34Z</time>
      </trkpt>
      <trkpt lat="49.94016" lon="2.20985">
        <ele>30.8</ele>
        <time>2022-04-11T12:46:35Z</time>
      </trkpt>
      <trkpt lat="49.94016" lon="2.20985">
        <ele>30.8</ele>
        <time>2022-04-11T12:46:36Z</time>
      </trkpt>
      <trkpt lat="49.94016" lon="2.20985">
        <ele>30.8</ele>
        <time>2022-04-11T12:46:37Z</time>
      </trkpt>
      <trkpt lat="49.94016" lon="2.20985">
        <ele>30.8</ele>
        <time>2022-04-11T12:46:38Z</time>
      </trkpt>
      <trkpt lat="49.94016" lon="2.20985">
        <ele>30.8</ele>
        <time>2022-04-11T12:46:39Z</time>
      </trkpt>
      <trkpt lat="49.94016" lon="2.20985">
        <ele>30.8</ele>
        <time>2022-04-11T12:46:40Z</time>
      </trkpt>
      <trkpt lat="49.94016" lon="2.20985">
        <ele>30.8</ele>
        <time>2022-04-11T12:46:41Z</time>
      </trkpt>
      <trkpt lat="49.94017" lon="2.20985">
        <ele>30.8</ele>
        <time>2022-04-11T12:46:42Z</time>
      </trkpt>
      <trkpt lat="49.94017" lon="2.20985">
        <ele>30.8</ele>
        <time>2022-04-11T12:46:43Z</time>
      </trkpt>
      <trkpt lat="49.94017" lon="2.20985">
        <ele>30.8</ele>
        <time>2022-04-11T12:46:44Z</time>
      </trkpt>
      <trkpt lat="49.94017" lon="2.20985">
        <ele>30.8</ele>
        <time>2022-04-11T12:46:45Z</time>
      </trkpt>
      <trkpt lat="49.94017" lon="2.20985">
        <ele>30.8</ele>
        <time>2022-04-11T12:46:46Z</time>
      </trkpt>
      <trkpt lat="49.94017" lon="2.20985">
        <ele>30.8</ele>
        <time>2022-04-11T12:46:47Z</time>
      </trkpt>
      <trkpt lat="49.94017" lon="2.20985">
        <ele>30.8</ele>
        <time>2022-04-11T12:46:48Z</time>
      </trkpt>
      <trkpt lat="49.94017" lon="2.20986">
        <ele>30.8</ele>
        <time>2022-04-11T12:46:49Z</time>
      </trkpt>
      <trkpt lat="49.94017" lon="2.20986">
        <ele>30.8</ele>
        <time>2022-04-11T12:46:50Z</time>
      </trkpt>
      <trkpt lat="49.94017" lon="2.20986">
        <ele>30.8</ele>
        <time>2022-04-11T12:46:51Z</time>
      </trkpt>
      <trkpt lat="49.94017" lon="2.20986">
        <ele>30.8</ele>
        <time>2022-04-11T12:46:52Z</time>
      </trkpt>
      <trkpt lat="49.94017" lon="2.20986">
        <ele>30.8</ele>
        <time>2022-04-11T12:46:53Z</time>
      </trkpt>
      <trkpt lat="49.94017" lon="2.20986">
        <ele>30.8</ele>
        <time>2022-04-11T12:46:54Z</time>
      </trkpt>
      <trkpt lat="49.94017" lon="2.20986">
        <ele>30.8</ele>
        <time>2022-04-11T12:46:55Z</time>
      </trkpt>
      <trkpt lat="49.94017" lon="2.20986">
        <ele>30.8</ele>
        <time>2022-04-11T12:46:56Z</time>
      </trkpt>
      <trkpt lat="49.94017" lon="2.20986">
        <ele>30.8</ele>
        <time>2022-04-11T12:46:57Z</time>
      </trkpt>
      <trkpt lat="49.94017" lon="2.20986">
        <ele>30.8</ele>
        <time>2022-04-11T12:46:58Z</time>
      </trkpt>
      <trkpt lat="49.94017" lon="2.20986">
        <ele>30.8</ele>
        <time>2022-04-11T12:46:59Z</time>
      </trkpt>
      <trkpt lat="49.94017" lon="2.20986">
        <ele>30.8</ele>
        <time>2022-04-11T12:47:00Z</time>
      </trkpt>
      <trkpt lat="49.94017" lon="2.20986">
        <ele>30.8</ele>
        <time>2022-04-11T12:47:01Z</time>
      </trkpt>
      <trkpt lat="49.94017" lon="2.20986">
        <ele>30.8</ele>
        <time>2022-04-11T12:47:02Z</time>
      </trkpt>
      <trkpt lat="49.94017" lon="2.20987">
        <ele>30.8</ele>
        <time>2022-04-11T12:47:03Z</time>
      </trkpt>
      <trkpt lat="49.94017" lon="2.20987">
        <ele>30.8</ele>
        <time>2022-04-11T12:47:04Z</time>
      </trkpt>
      <trkpt lat="49.94017" lon="2.20987">
        <ele>30.8</ele>
        <time>2022-04-11T12:47:05Z</time>
      </trkpt>
      <trkpt lat="49.94018" lon="2.20987">
        <ele>30.8</ele>
        <time>2022-04-11T12:47:06Z</time>
      </trkpt>
      <trkpt lat="49.94018" lon="2.20987">
        <ele>30.8</ele>
        <time>2022-04-11T12:47:07Z</time>
      </trkpt>
      <trkpt lat="49.94018" lon="2.20987">
        <ele>30.8</ele>
        <time>2022-04-11T12:47:08Z</time>
      </trkpt>
      <trkpt lat="49.94018" lon="2.20987">
        <ele>30.8</ele>
        <time>2022-04-11T12:47:09Z</time>
      </trkpt>
      <trkpt lat="49.94018" lon="2.20987">
        <ele>30.8</ele>
        <time>2022-04-11T12:47:10Z</time>
      </trkpt>
      <trkpt lat="49.94018" lon="2.20987">
        <ele>30.8</ele>
        <time>2022-04-11T12:47:11Z</time>
      </trkpt>
      <trkpt lat="49.94018" lon="2.20987">
        <ele>30.8</ele>
        <time>2022-04-11T12:47:12Z</time>
      </trkpt>
      <trkpt lat="49.94018" lon="2.20987">
        <ele>30.8</ele>
        <time>2022-04-11T12:47:13Z</time>
      </trkpt>
      <trkpt lat="49.94018" lon="2.20987">
        <ele>30.8</ele>
        <time>2022-04-11T12:47:14Z</time>
      </trkpt>
      <trkpt lat="49.94018" lon="2.20987">
        <ele>30.8</ele>
        <time>2022-04-11T12:47:15Z</time>
      </trkpt>
      <trkpt lat="49.94018" lon="2.20987">
        <ele>30.8</ele>
        <time>2022-04-11T12:47:16Z</time>
      </trkpt>
      <trkpt lat="49.94018" lon="2.20988">
        <ele>30.8</ele>
        <time>2022-04-11T12:47:17Z</time>
      </trkpt>
      <trkpt lat="49.94018" lon="2.20988">
        <ele>30.8</ele>
        <time>2022-04-11T12:47:18Z</time>
      </trkpt>
      <trkpt lat="49.94018" lon="2.20988">
        <ele>30.8</ele>
        <time>2022-04-11T12:47:19Z</time>
      </trkpt>
      <trkpt lat="49.94018" lon="2.20988">
        <ele>30.8</ele>
        <time>2022-04-11T12:47:20Z</time>
      </trkpt>
      <trkpt lat="49.94018" lon="2.20988">
        <ele>30.8</ele>
        <time>2022-04-11T12:47:21Z</time>
      </trkpt>
      <trkpt lat="49.94018" lon="2.20988">
        <ele>30.8</ele>
        <time>2022-04-11T12:47:22Z</time>
      </trkpt>
      <trkpt lat="49.94018" lon="2.20988">
        <ele>30.8</ele>
        <time>2022-04-11T12:47:23Z</time>
      </trkpt>
      <trkpt lat="49.94018" lon="2.20988">
        <ele>30.8</ele>
        <time>2022-04-11T12:47:24Z</time>
      </trkpt>
      <trkpt lat="49.94018" lon="2.20988">
        <ele>30.8</ele>
        <time>2022-04-11T12:47:25Z</time>
      </trkpt>
      <trkpt lat="49.94018" lon="2.20988">
        <ele>30.8</ele>
        <time>2022-04-11T12:47:26Z</time>
      </trkpt>
      <trkpt lat="49.94018" lon="2.20988">
        <ele>30.8</ele>
        <time>2022-04-11T12:47:27Z</time>
      </trkpt>
      <trkpt lat="49.94018" lon="2.20988">
        <ele>30.8</ele>
        <time>2022-04-11T12:47:28Z</time>
      </trkpt>
      <trkpt lat="49.94018" lon="2.20988">
        <ele>30.8</ele>
        <time>2022-04-11T12:47:29Z</time>
      </trkpt>
      <trkpt lat="49.94018" lon="2.20988">
        <ele>30.8</ele>
        <time>2022-04-11T12:47:30Z</time>
      </trkpt>
      <trkpt lat="49.94018" lon="2.20988">
        <ele>30.8</ele>
        <time>2022-04-11T12:47:31Z</time>
      </trkpt>
      <trkpt lat="49.94018" lon="2.20989">
        <ele>30.8</ele>
        <time>2022-04-11T12:47:32Z</time>
      </trkpt>
      <trkpt lat="49.94018" lon="2.20989">
        <ele>30.8</ele>
        <time>2022-04-11T12:47:33Z</time>
      </trkpt>
      <trkpt lat="49.94018" lon="2.20989">
        <ele>30.8</ele>
        <time>2022-04-11T12:47:34Z</time>
      </trkpt>
      <trkpt lat="49.94018" lon="2.20989">
        <ele>30.8</ele>
        <time>2022-04-11T12:47:35Z</time>
      </trkpt>
      <trkpt lat="49.94018" lon="2.20989">
        <ele>30.8</ele>
        <time>2022-04-11T12:47:36Z</time>
      </trkpt>
      <trkpt lat="49.94018" lon="2.20989">
        <ele>30.8</ele>
        <time>2022-04-11T12:47:37Z</time>
      </trkpt>
      <trkpt lat="49.94018" lon="2.20989">
        <ele>30.8</ele>
        <time>2022-04-11T12:47:38Z</time>
      </trkpt>
      <trkpt lat="49.94018" lon="2.20989">
        <ele>30.8</ele>
        <time>2022-04-11T12:47:39Z</time>
      </trkpt>
      <trkpt lat="49.94018" lon="2.20989">
        <ele>30.8</ele>
        <time>2022-04-11T12:47:40Z</time>
      </trkpt>
      <trkpt lat="49.94018" lon="2.20989">
        <ele>30.8</ele>
        <time>2022-04-11T12:47:41Z</time>
      </trkpt>
      <trkpt lat="49.94018" lon="2.20989">
        <ele>30.8</ele>
        <time>2022-04-11T12:47:42Z</time>
      </trkpt>
      <trkpt lat="49.94018" lon="2.20989">
        <ele>30.8</ele>
        <time>2022-04-11T12:47:43Z</time>
      </trkpt>
      <trkpt lat="49.94018" lon="2.20989">
        <ele>30.8</ele>
        <time>2022-04-11T12:47:44Z</time>
      </trkpt>
      <trkpt lat="49.94018" lon="2.20989">
        <ele>30.8</ele>
        <time>2022-04-11T12:47:45Z</time>
      </trkpt>
      <trkpt lat="49.94018" lon="2.2099">
        <ele>30.8</ele>
        <time>2022-04-11T12:47:46Z</time>
      </trkpt>
      <trkpt lat="49.94018" lon="2.2099">
        <ele>30.8</ele>
        <time>2022-04-11T12:47:47Z</time>
      </trkpt>
      <trkpt lat="49.94018" lon="2.2099">
        <ele>30.8</ele>
        <time>2022-04-11T12:47:48Z</time>
      </trkpt>
      <trkpt lat="49.94018" lon="2.2099">
        <ele>30.8</ele>
        <time>2022-04-11T12:47:49Z</time>
      </trkpt>
      <trkpt lat="49.94018" lon="2.2099">
        <ele>30.8</ele>
        <time>2022-04-11T12:47:50Z</time>
      </trkpt>
      <trkpt lat="49.94018" lon="2.2099">
        <ele>30.8</ele>
        <time>2022-04-11T12:47:51Z</time>
      </trkpt>
      <trkpt lat="49.94018" lon="2.2099">
        <ele>30.8</ele>
        <time>2022-04-11T12:47:52Z</time>
      </trkpt>
      <trkpt lat="49.94018" lon="2.2099">
        <ele>30.8</ele>
        <time>2022-04-11T12:47:53Z</time>
      </trkpt>
      <trkpt lat="49.94018" lon="2.2099">
        <ele>30.8</ele>
        <time>2022-04-11T12:47:54Z</time>
      </trkpt>
      <trkpt lat="49.94018" lon="2.2099">
        <ele>30.8</ele>
        <time>2022-04-11T12:47:55Z</time>
      </trkpt>
      <trkpt lat="49.94018" lon="2.2099">
        <ele>30.8</ele>
        <time>2022-04-11T12:47:56Z</time>
      </trkpt>
      <trkpt lat="49.94018" lon="2.2099">
        <ele>30.8</ele>
        <time>2022-04-11T12:47:57Z</time>
      </trkpt>
      <trkpt lat="49.94018" lon="2.2099">
        <ele>30.8</ele>
        <time>2022-04-11T12:47:58Z</time>
      </trkpt>
      <trkpt lat="49.94018" lon="2.2099">
        <ele>30.8</ele>
        <time>2022-04-11T12:47:59Z</time>
      </trkpt>
      <trkpt lat="49.94018" lon="2.20991">
        <ele>30.8</ele>
        <time>2022-04-11T12:48:00Z</time>
      </trkpt>
      <trkpt lat="49.94018" lon="2.20991">
        <ele>30.8</ele>
        <time>2022-04-11T12:48:01Z</time>
      </trkpt>
      <trkpt lat="49.94018" lon="2.20991">
        <ele>30.8</ele>
        <time>2022-04-11T12:48:02Z</time>
      </trkpt>
      <trkpt lat="49.94018" lon="2.20991">
        <ele>30.8</ele>
        <time>2022-04-11T12:48:03Z</time>
      </trkpt>
      <trkpt lat="49.94018" lon="2.20991">
        <ele>30.8</ele>
        <time>2022-04-11T12:48:04Z</time>
      </trkpt>
      <trkpt lat="49.94018" lon="2.20991">
        <ele>30.8</ele>
        <time>2022-04-11T12:48:05Z</time>
      </trkpt>
      <trkpt lat="49.94018" lon="2.20991">
        <ele>30.8</ele>
        <time>2022-04-11T12:48:06Z</time>
      </trkpt>
      <trkpt lat="49.94018" lon="2.20991">
        <ele>30.8</ele>
        <time>2022-04-11T12:48:07Z</time>
      </trkpt>
      <trkpt lat="49.94018" lon="2.20991">
        <ele>30.8</ele>
        <time>2022-04-11T12:48:08Z</time>
      </trkpt>
      <trkpt lat="49.94018" lon="2.20991">
        <ele>30.8</ele>
        <time>2022-04-11T12:48:09Z</time>
      </trkpt>
      <trkpt lat="49.94018" lon="2.20991">
        <ele>30.8</ele>
        <time>2022-04-11T12:48:10Z</time>
      </trkpt>
      <trkpt lat="49.94018" lon="2.20991">
        <ele>30.8</ele>
        <time>2022-04-11T12:48:11Z</time>
      </trkpt>
      <trkpt lat="49.94018" lon="2.20991">
        <ele>30.8</ele>
        <time>2022-04-11T12:48:12Z</time>
      </trkpt>
      <trkpt lat="49.94018" lon="2.20991">
        <ele>30.8</ele>
        <time>2022-04-11T12:48:13Z</time>
      </trkpt>
      <trkpt lat="49.94018" lon="2.20991">
        <ele>30.8</ele>
        <time>2022-04-11T12:48:14Z</time>
      </trkpt>
      <trkpt lat="49.94018" lon="2.20992">
        <ele>30.8</ele>
        <time>2022-04-11T12:48:15Z</time>
      </trkpt>
      <trkpt lat="49.94018" lon="2.20992">
        <ele>30.8</ele>
        <time>2022-04-11T12:48:16Z</time>
      </trkpt>
      <trkpt lat="49.94018" lon="2.20992">
        <ele>30.8</ele>
        <time>2022-04-11T12:48:17Z</time>
      </trkpt>
      <trkpt lat="49.94018" lon="2.20992">
        <ele>30.8</ele>
        <time>2022-04-11T12:48:18Z</time>
      </trkpt>
      <trkpt lat="49.94018" lon="2.20992">
        <ele>30.8</ele>
        <time>2022-04-11T12:48:19Z</time>
      </trkpt>
      <trkpt lat="49.94018" lon="2.20992">
        <ele>30.8</ele>
        <time>2022-04-11T12:48:20Z</time>
      </trkpt>
      <trkpt lat="49.94018" lon="2.20992">
        <ele>30.8</ele>
        <time>2022-04-11T12:48:21Z</time>
      </trkpt>
      <trkpt lat="49.94018" lon="2.20992">
        <ele>30.8</ele>
        <time>2022-04-11T12:48:22Z</time>
      </trkpt>
      <trkpt lat="49.94018" lon="2.20992">
        <ele>30.8</ele>
        <time>2022-04-11T12:48:23Z</time>
      </trkpt>
      <trkpt lat="49.94018" lon="2.20992">
        <ele>30.8</ele>
        <time>2022-04-11T12:48:24Z</time>
      </trkpt>
      <trkpt lat="49.94018" lon="2.20992">
        <ele>30.8</ele>
        <time>2022-04-11T12:48:25Z</time>
      </trkpt>
      <trkpt lat="49.94018" lon="2.20992">
        <ele>30.8</ele>
        <time>2022-04-11T12:48:26Z</time>
      </trkpt>
      <trkpt lat="49.94018" lon="2.20992">
        <ele>30.8</ele>
        <time>2022-04-11T12:48:27Z</time>
      </trkpt>
      <trkpt lat="49.94018" lon="2.20992">
        <ele>30.8</ele>
        <time>2022-04-11T12:48:28Z</time>
      </trkpt>
      <trkpt lat="49.94018" lon="2.20993">
        <ele>30.8</ele>
        <time>2022-04-11T12:48:29Z</time>
      </trkpt>
      <trkpt lat="49.94018" lon="2.20998">
        <ele>30.7</ele>
        <time>2022-04-11T12:48:30Z</time>
      </trkpt>
      <trkpt lat="49.94018" lon="2.20999">
        <ele>30.7</ele>
        <time>2022-04-11T12:48:31Z</time>
      </trkpt>
      <trkpt lat="49.94018" lon="2.20999">
        <ele>30.7</ele>
        <time>2022-04-11T12:48:32Z</time>
      </trkpt>
      <trkpt lat="49.94018" lon="2.20999">
        <ele>30.7</ele>
        <time>2022-04-11T12:48:33Z</time>
      </trkpt>
      <trkpt lat="49.94018" lon="2.20999">
        <ele>30.7</ele>
        <time>2022-04-11T12:48:34Z</time>
      </trkpt>
      <trkpt lat="49.94018" lon="2.20999">
        <ele>30.7</ele>
        <time>2022-04-11T12:48:35Z</time>
      </trkpt>
      <trkpt lat="49.94018" lon="2.20999">
        <ele>30.7</ele>
        <time>2022-04-11T12:48:36Z</time>
      </trkpt>
      <trkpt lat="49.94018" lon="2.20999">
        <ele>30.7</ele>
        <time>2022-04-11T12:48:37Z</time>
      </trkpt>
      <trkpt lat="49.94018" lon="2.20999">
        <ele>30.7</ele>
        <time>2022-04-11T12:48:38Z</time>
      </trkpt>
      <trkpt lat="49.94018" lon="2.20999">
        <ele>30.7</ele>
        <time>2022-04-11T12:48:39Z</time>
      </trkpt>
      <trkpt lat="49.94018" lon="2.20999">
        <ele>30.7</ele>
        <time>2022-04-11T12:48:40Z</time>
      </trkpt>
      <trkpt lat="49.94018" lon="2.20999">
        <ele>30.7</ele>
        <time>2022-04-11T12:48:41Z</time>
      </trkpt>
      <trkpt lat="49.94018" lon="2.20999">
        <ele>30.7</ele>
        <time>2022-04-11T12:48:42Z</time>
      </trkpt>
      <trkpt lat="49.94018" lon="2.20999">
        <ele>30.7</ele>
        <time>2022-04-11T12:48:43Z</time>
      </trkpt>
      <trkpt lat="49.94018" lon="2.20999">
        <ele>30.7</ele>
        <time>2022-04-11T12:48:44Z</time>
      </trkpt>
      <trkpt lat="49.94018" lon="2.20999">
        <ele>30.7</ele>
        <time>2022-04-11T12:48:45Z</time>
      </trkpt>
      <trkpt lat="49.94018" lon="2.20999">
        <ele>30.7</ele>
        <time>2022-04-11T12:48:46Z</time>
      </trkpt>
      <trkpt lat="49.94018" lon="2.20999">
        <ele>30.7</ele>
        <time>2022-04-11T12:48:47Z</time>
      </trkpt>
      <trkpt lat="49.94018" lon="2.20999">
        <ele>30.7</ele>
        <time>2022-04-11T12:48:48Z</time>
      </trkpt>
      <trkpt lat="49.94018" lon="2.20999">
        <ele>30.7</ele>
        <time>2022-04-11T12:48:49Z</time>
      </trkpt>
      <trkpt lat="49.94018" lon="2.20999">
        <ele>30.7</ele>
        <time>2022-04-11T12:48:50Z</time>
      </trkpt>
      <trkpt lat="49.94018" lon="2.20999">
        <ele>30.7</ele>
        <time>2022-04-11T12:48:51Z</time>
      </trkpt>
      <trkpt lat="49.94018" lon="2.20999">
        <ele>30.7</ele>
        <time>2022-04-11T12:48:52Z</time>
      </trkpt>
      <trkpt lat="49.94018" lon="2.20999">
        <ele>30.7</ele>
        <time>2022-04-11T12:48:53Z</time>
      </trkpt>
      <trkpt lat="49.94018" lon="2.20999">
        <ele>30.7</ele>
        <time>2022-04-11T12:48:54Z</time>
      </trkpt>
      <trkpt lat="49.94018" lon="2.20999">
        <ele>30.7</ele>
        <time>2022-04-11T12:48:55Z</time>
      </trkpt>
      <trkpt lat="49.94017" lon="2.20999">
        <ele>30.7</ele>
        <time>2022-04-11T12:48:56Z</time>
      </trkpt>
      <trkpt lat="49.94017" lon="2.20999">
        <ele>30.7</ele>
        <time>2022-04-11T12:48:57Z</time>
      </trkpt>
      <trkpt lat="49.94017" lon="2.20999">
        <ele>30.7</ele>
        <time>2022-04-11T12:48:58Z</time>
      </trkpt>
      <trkpt lat="49.94017" lon="2.20999">
        <ele>30.7</ele>
        <time>2022-04-11T12:48:59Z</time>
      </trkpt>
      <trkpt lat="49.94017" lon="2.20999">
        <ele>30.7</ele>
        <time>2022-04-11T12:49:00Z</time>
      </trkpt>
      <trkpt lat="49.94017" lon="2.20999">
        <ele>30.7</ele>
        <time>2022-04-11T12:49:01Z</time>
      </trkpt>
      <trkpt lat="49.94017" lon="2.20999">
        <ele>30.7</ele>
        <time>2022-04-11T12:49:02Z</time>
      </trkpt>
      <trkpt lat="49.94017" lon="2.20999">
        <ele>30.7</ele>
        <time>2022-04-11T12:49:03Z</time>
      </trkpt>
      <trkpt lat="49.94017" lon="2.20999">
        <ele>30.7</ele>
        <time>2022-04-11T12:49:04Z</time>
      </trkpt>
      <trkpt lat="49.94017" lon="2.20999">
        <ele>30.7</ele>
        <time>2022-04-11T12:49:05Z</time>
      </trkpt>
      <trkpt lat="49.94017" lon="2.20999">
        <ele>30.7</ele>
        <time>2022-04-11T12:49:06Z</time>
      </trkpt>
      <trkpt lat="49.94017" lon="2.20999">
        <ele>30.7</ele>
        <time>2022-04-11T12:49:07Z</time>
      </trkpt>
      <trkpt lat="49.94017" lon="2.20999">
        <ele>30.7</ele>
        <time>2022-04-11T12:49:08Z</time>
      </trkpt>
      <trkpt lat="49.94017" lon="2.20999">
        <ele>30.7</ele>
        <time>2022-04-11T12:49:09Z</time>
      </trkpt>
      <trkpt lat="49.94017" lon="2.20998">
        <ele>30.7</ele>
        <time>2022-04-11T12:49:10Z</time>
      </trkpt>
      <trkpt lat="49.94017" lon="2.20998">
        <ele>30.7</ele>
        <time>2022-04-11T12:49:11Z</time>
      </trkpt>
      <trkpt lat="49.94017" lon="2.20998">
        <ele>30.7</ele>
        <time>2022-04-11T12:49:12Z</time>
      </trkpt>
      <trkpt lat="49.94017" lon="2.20998">
        <ele>30.7</ele>
        <time>2022-04-11T12:49:13Z</time>
      </trkpt>
      <trkpt lat="49.94017" lon="2.20998">
        <ele>30.7</ele>
        <time>2022-04-11T12:49:14Z</time>
      </trkpt>
      <trkpt lat="49.94017" lon="2.20998">
        <ele>30.7</ele>
        <time>2022-04-11T12:49:15Z</time>
      </trkpt>
      <trkpt lat="49.94017" lon="2.20998">
        <ele>30.7</ele>
        <time>2022-04-11T12:49:16Z</time>
      </trkpt>
      <trkpt lat="49.94017" lon="2.20998">
        <ele>30.7</ele>
        <time>2022-04-11T12:49:17Z</time>
      </trkpt>
      <trkpt lat="49.94017" lon="2.20998">
        <ele>30.7</ele>
        <time>2022-04-11T12:49:18Z</time>
      </trkpt>
      <trkpt lat="49.94017" lon="2.20998">
        <ele>30.7</ele>
        <time>2022-04-11T12:49:19Z</time>
      </trkpt>
      <trkpt lat="49.94017" lon="2.20998">
        <ele>30.7</ele>
        <time>2022-04-11T12:49:20Z</time>
      </trkpt>
      <trkpt lat="49.94017" lon="2.20998">
        <ele>30.7</ele>
        <time>2022-04-11T12:49:21Z</time>
      </trkpt>
      <trkpt lat="49.94016" lon="2.20998">
        <ele>30.7</ele>
        <time>2022-04-11T12:49:22Z</time>
      </trkpt>
      <trkpt lat="49.94016" lon="2.20998">
        <ele>30.7</ele>
        <time>2022-04-11T12:49:23Z</time>
      </trkpt>
      <trkpt lat="49.94016" lon="2.20998">
        <ele>30.7</ele>
        <time>2022-04-11T12:49:24Z</time>
      </trkpt>
      <trkpt lat="49.94016" lon="2.20998">
        <ele>30.7</ele>
        <time>2022-04-11T12:49:25Z</time>
      </trkpt>
      <trkpt lat="49.94016" lon="2.20998">
        <ele>30.7</ele>
        <time>2022-04-11T12:49:26Z</time>
      </trkpt>
      <trkpt lat="49.94016" lon="2.20998">
        <ele>30.7</ele>
        <time>2022-04-11T12:49:27Z</time>
      </trkpt>
      <trkpt lat="49.94016" lon="2.20998">
        <ele>30.7</ele>
        <time>2022-04-11T12:49:28Z</time>
      </trkpt>
      <trkpt lat="49.94016" lon="2.20998">
        <ele>30.7</ele>
        <time>2022-04-11T12:49:29Z</time>
      </trkpt>
      <trkpt lat="49.94016" lon="2.20998">
        <ele>30.7</ele>
        <time>2022-04-11T12:49:30Z</time>
      </trkpt>
      <trkpt lat="49.94016" lon="2.20998">
        <ele>30.7</ele>
        <time>2022-04-11T12:49:31Z</time>
      </trkpt>
      <trkpt lat="49.94016" lon="2.20998">
        <ele>30.7</ele>
        <time>2022-04-11T12:49:32Z</time>
      </trkpt>
      <trkpt lat="49.94016" lon="2.20998">
        <ele>30.7</ele>
        <time>2022-04-11T12:49:33Z</time>
      </trkpt>
      <trkpt lat="49.94016" lon="2.20998">
        <ele>30.7</ele>
        <time>2022-04-11T12:49:34Z</time>
      </trkpt>
      <trkpt lat="49.94016" lon="2.20998">
        <ele>30.7</ele>
        <time>2022-04-11T12:49:35Z</time>
      </trkpt>
      <trkpt lat="49.94016" lon="2.20998">
        <ele>30.7</ele>
        <time>2022-04-11T12:49:36Z</time>
      </trkpt>
      <trkpt lat="49.94016" lon="2.20998">
        <ele>30.7</ele>
        <time>2022-04-11T12:49:37Z</time>
      </trkpt>
      <trkpt lat="49.94016" lon="2.20998">
        <ele>30.7</ele>
        <time>2022-04-11T12:49:38Z</time>
      </trkpt>
      <trkpt lat="49.94016" lon="2.20998">
        <ele>30.7</ele>
        <time>2022-04-11T12:49:39Z</time>
      </trkpt>
      <trkpt lat="49.94016" lon="2.20998">
        <ele>30.7</ele>
        <time>2022-04-11T12:49:40Z</time>
      </trkpt>
      <trkpt lat="49.94016" lon="2.20998">
        <ele>30.7</ele>
        <time>2022-04-11T12:49:41Z</time>
      </trkpt>
      <trkpt lat="49.94016" lon="2.20998">
        <ele>30.7</ele>
        <time>2022-04-11T12:49:42Z</time>
      </trkpt>
      <trkpt lat="49.94016" lon="2.20998">
        <ele>30.7</ele>
        <time>2022-04-11T12:49:43Z</time>
      </trkpt>
      <trkpt lat="49.94016" lon="2.20998">
        <ele>30.7</ele>
        <time>2022-04-11T12:49:44Z</time>
      </trkpt>
      <trkpt lat="49.94016" lon="2.20998">
        <ele>30.7</ele>
        <time>2022-04-11T12:49:45Z</time>
      </trkpt>
      <trkpt lat="49.94016" lon="2.20998">
        <ele>30.7</ele>
        <time>2022-04-11T12:49:46Z</time>
      </trkpt>
      <trkpt lat="49.94015" lon="2.20998">
        <ele>30.7</ele>
        <time>2022-04-11T12:49:47Z</time>
      </trkpt>
      <trkpt lat="49.94015" lon="2.20998">
        <ele>30.7</ele>
        <time>2022-04-11T12:49:48Z</time>
      </trkpt>
      <trkpt lat="49.94015" lon="2.20998">
        <ele>30.7</ele>
        <time>2022-04-11T12:49:49Z</time>
      </trkpt>
      <trkpt lat="49.94015" lon="2.20998">
        <ele>30.7</ele>
        <time>2022-04-11T12:49:50Z</time>
      </trkpt>
      <trkpt lat="49.94015" lon="2.20998">
        <ele>30.7</ele>
        <time>2022-04-11T12:49:51Z</time>
      </trkpt>
      <trkpt lat="49.94015" lon="2.20998">
        <ele>30.7</ele>
        <time>2022-04-11T12:49:52Z</time>
      </trkpt>
      <trkpt lat="49.94015" lon="2.20998">
        <ele>30.7</ele>
        <time>2022-04-11T12:49:53Z</time>
      </trkpt>
      <trkpt lat="49.94015" lon="2.20998">
        <ele>30.7</ele>
        <time>2022-04-11T12:49:54Z</time>
      </trkpt>
      <trkpt lat="49.94015" lon="2.20998">
        <ele>30.7</ele>
        <time>2022-04-11T12:49:55Z</time>
      </trkpt>
      <trkpt lat="49.94015" lon="2.20998">
        <ele>30.7</ele>
        <time>2022-04-11T12:49:56Z</time>
      </trkpt>
      <trkpt lat="49.94015" lon="2.20998">
        <ele>30.7</ele>
        <time>2022-04-11T12:49:57Z</time>
      </trkpt>
      <trkpt lat="49.94015" lon="2.20998">
        <ele>30.7</ele>
        <time>2022-04-11T12:49:58Z</time>
      </trkpt>
      <trkpt lat="49.94015" lon="2.20998">
        <ele>30.7</ele>
        <time>2022-04-11T12:49:59Z</time>
      </trkpt>
      <trkpt lat="49.94015" lon="2.20998">
        <ele>30.7</ele>
        <time>2022-04-11T12:50:00Z</time>
      </trkpt>
      <trkpt lat="49.94015" lon="2.20998">
        <ele>30.7</ele>
        <time>2022-04-11T12:50:01Z</time>
      </trkpt>
      <trkpt lat="49.94015" lon="2.20998">
        <ele>30.7</ele>
        <time>2022-04-11T12:50:02Z</time>
      </trkpt>
      <trkpt lat="49.94015" lon="2.20998">
        <ele>30.7</ele>
        <time>2022-04-11T12:50:03Z</time>
      </trkpt>
      <trkpt lat="49.94015" lon="2.20998">
        <ele>30.7</ele>
        <time>2022-04-11T12:50:04Z</time>
      </trkpt>
      <trkpt lat="49.94015" lon="2.20998">
        <ele>30.7</ele>
        <time>2022-04-11T12:50:05Z</time>
      </trkpt>
      <trkpt lat="49.94015" lon="2.20998">
        <ele>30.7</ele>
        <time>2022-04-11T12:50:06Z</time>
      </trkpt>
      <trkpt lat="49.94015" lon="2.20998">
        <ele>30.7</ele>
        <time>2022-04-11T12:50:07Z</time>
      </trkpt>
      <trkpt lat="49.94015" lon="2.20998">
        <ele>30.7</ele>
        <time>2022-04-11T12:50:08Z</time>
      </trkpt>
      <trkpt lat="49.94015" lon="2.20998">
        <ele>30.7</ele>
        <time>2022-04-11T12:50:09Z</time>
      </trkpt>
      <trkpt lat="49.94015" lon="2.20998">
        <ele>30.7</ele>
        <time>2022-04-11T12:50:10Z</time>
      </trkpt>
      <trkpt lat="49.94015" lon="2.20998">
        <ele>30.7</ele>
        <time>2022-04-11T12:50:11Z</time>
      </trkpt>
      <trkpt lat="49.94015" lon="2.20998">
        <ele>30.7</ele>
        <time>2022-04-11T12:50:12Z</time>
      </trkpt>
      <trkpt lat="49.94014" lon="2.20998">
        <ele>30.7</ele>
        <time>2022-04-11T12:50:13Z</time>
      </trkpt>
      <trkpt lat="49.94014" lon="2.20998">
        <ele>30.7</ele>
        <time>2022-04-11T12:50:14Z</time>
      </trkpt>
      <trkpt lat="49.94014" lon="2.20998">
        <ele>30.7</ele>
        <time>2022-04-11T12:50:15Z</time>
      </trkpt>
      <trkpt lat="49.94014" lon="2.20997">
        <ele>30.7</ele>
        <time>2022-04-11T12:50:16Z</time>
      </trkpt>
      <trkpt lat="49.94014" lon="2.20997">
        <ele>30.7</ele>
        <time>2022-04-11T12:50:17Z</time>
      </trkpt>
      <trkpt lat="49.94014" lon="2.20997">
        <ele>30.7</ele>
        <time>2022-04-11T12:50:18Z</time>
      </trkpt>
      <trkpt lat="49.94014" lon="2.20997">
        <ele>30.7</ele>
        <time>2022-04-11T12:50:19Z</time>
      </trkpt>
      <trkpt lat="49.94014" lon="2.20997">
        <ele>30.7</ele>
        <time>2022-04-11T12:50:20Z</time>
      </trkpt>
      <trkpt lat="49.94014" lon="2.20997">
        <ele>30.7</ele>
        <time>2022-04-11T12:50:21Z</time>
      </trkpt>
      <trkpt lat="49.94014" lon="2.20997">
        <ele>30.7</ele>
        <time>2022-04-11T12:50:22Z</time>
      </trkpt>
      <trkpt lat="49.94014" lon="2.20997">
        <ele>30.7</ele>
        <time>2022-04-11T12:50:23Z</time>
      </trkpt>
      <trkpt lat="49.94014" lon="2.20997">
        <ele>30.7</ele>
        <time>2022-04-11T12:50:24Z</time>
      </trkpt>
      <trkpt lat="49.94014" lon="2.20997">
        <ele>30.7</ele>
        <time>2022-04-11T12:50:25Z</time>
      </trkpt>
      <trkpt lat="49.94014" lon="2.20997">
        <ele>30.7</ele>
        <time>2022-04-11T12:50:26Z</time>
      </trkpt>
      <trkpt lat="49.94014" lon="2.20997">
        <ele>30.7</ele>
        <time>2022-04-11T12:50:27Z</time>
      </trkpt>
      <trkpt lat="49.94014" lon="2.20997">
        <ele>30.7</ele>
        <time>2022-04-11T12:50:28Z</time>
      </trkpt>
      <trkpt lat="49.94014" lon="2.20997">
        <ele>30.7</ele>
        <time>2022-04-11T12:50:29Z</time>
      </trkpt>
      <trkpt lat="49.94014" lon="2.20997">
        <ele>30.7</ele>
        <time>2022-04-11T12:50:30Z</time>
      </trkpt>
      <trkpt lat="49.94014" lon="2.20997">
        <ele>30.7</ele>
        <time>2022-04-11T12:50:31Z</time>
      </trkpt>
      <trkpt lat="49.94014" lon="2.20997">
        <ele>30.7</ele>
        <time>2022-04-11T12:50:32Z</time>
      </trkpt>
      <trkpt lat="49.94014" lon="2.20997">
        <ele>30.7</ele>
        <time>2022-04-11T12:50:33Z</time>
      </trkpt>
      <trkpt lat="49.94011" lon="2.20995">
        <ele>30.7</ele>
        <time>2022-04-11T12:50:34Z</time>
      </trkpt>
      <trkpt lat="49.9401" lon="2.20995">
        <ele>30.7</ele>
        <time>2022-04-11T12:50:35Z</time>
      </trkpt>
      <trkpt lat="49.9401" lon="2.20994">
        <ele>30.7</ele>
        <time>2022-04-11T12:50:36Z</time>
      </trkpt>
      <trkpt lat="49.94009" lon="2.20994">
        <ele>30.7</ele>
        <time>2022-04-11T12:50:37Z</time>
      </trkpt>
      <trkpt lat="49.94009" lon="2.20993">
        <ele>30.7</ele>
        <time>2022-04-11T12:50:38Z</time>
      </trkpt>
      <trkpt lat="49.94009" lon="2.20993">
        <ele>30.7</ele>
        <time>2022-04-11T12:50:39Z</time>
      </trkpt>
      <trkpt lat="49.94008" lon="2.20993">
        <ele>30.7</ele>
        <time>2022-04-11T12:50:40Z</time>
      </trkpt>
      <trkpt lat="49.94008" lon="2.20993">
        <ele>30.7</ele>
        <time>2022-04-11T12:50:41Z</time>
      </trkpt>
      <trkpt lat="49.94008" lon="2.20993">
        <ele>30.7</ele>
        <time>2022-04-11T12:50:42Z</time>
      </trkpt>
      <trkpt lat="49.94008" lon="2.20993">
        <ele>30.7</ele>
        <time>2022-04-11T12:50:43Z</time>
      </trkpt>
      <trkpt lat="49.94008" lon="2.20993">
        <ele>30.7</ele>
        <time>2022-04-11T12:50:44Z</time>
      </trkpt>
      <trkpt lat="49.94008" lon="2.20993">
        <ele>30.7</ele>
        <time>2022-04-11T12:50:45Z</time>
      </trkpt>
      <trkpt lat="49.94008" lon="2.20993">
        <ele>30.7</ele>
        <time>2022-04-11T12:50:46Z</time>
      </trkpt>
      <trkpt lat="49.94008" lon="2.20993">
        <ele>30.7</ele>
        <time>2022-04-11T12:50:47Z</time>
      </trkpt>
      <trkpt lat="49.94008" lon="2.20993">
        <ele>30.7</ele>
        <time>2022-04-11T12:50:48Z</time>
      </trkpt>
      <trkpt lat="49.94008" lon="2.20993">
        <ele>30.7</ele>
        <time>2022-04-11T12:50:49Z</time>
      </trkpt>
      <trkpt lat="49.94008" lon="2.20993">
        <ele>30.7</ele>
        <time>2022-04-11T12:50:50Z</time>
      </trkpt>
      <trkpt lat="49.94008" lon="2.20993">
        <ele>30.7</ele>
        <time>2022-04-11T12:50:51Z</time>
      </trkpt>
      <trkpt lat="49.94008" lon="2.20993">
        <ele>30.7</ele>
        <time>2022-04-11T12:50:52Z</time>
      </trkpt>
      <trkpt lat="49.94008" lon="2.20993">
        <ele>30.7</ele>
        <time>2022-04-11T12:50:53Z</time>
      </trkpt>
      <trkpt lat="49.94008" lon="2.20993">
        <ele>30.7</ele>
        <time>2022-04-11T12:50:54Z</time>
      </trkpt>
      <trkpt lat="49.94008" lon="2.20993">
        <ele>30.7</ele>
        <time>2022-04-11T12:50:55Z</time>
      </trkpt>
      <trkpt lat="49.94008" lon="2.20993">
        <ele>30.7</ele>
        <time>2022-04-11T12:50:56Z</time>
      </trkpt>
      <trkpt lat="49.94008" lon="2.20993">
        <ele>30.7</ele>
        <time>2022-04-11T12:50:57Z</time>
      </trkpt>
      <trkpt lat="49.94008" lon="2.20993">
        <ele>30.7</ele>
        <time>2022-04-11T12:50:58Z</time>
      </trkpt>
      <trkpt lat="49.94008" lon="2.20993">
        <ele>30.7</ele>
        <time>2022-04-11T12:50:59Z</time>
      </trkpt>
      <trkpt lat="49.94008" lon="2.20993">
        <ele>30.7</ele>
        <time>2022-04-11T12:51:00Z</time>
      </trkpt>
      <trkpt lat="49.94008" lon="2.20993">
        <ele>30.7</ele>
        <time>2022-04-11T12:51:01Z</time>
      </trkpt>
      <trkpt lat="49.94008" lon="2.20993">
        <ele>30.7</ele>
        <time>2022-04-11T12:51:02Z</time>
      </trkpt>
      <trkpt lat="49.94008" lon="2.20993">
        <ele>30.7</ele>
        <time>2022-04-11T12:51:03Z</time>
      </trkpt>
      <trkpt lat="49.94008" lon="2.20993">
        <ele>30.7</ele>
        <time>2022-04-11T12:51:04Z</time>
      </trkpt>
      <trkpt lat="49.94008" lon="2.20993">
        <ele>30.7</ele>
        <time>2022-04-11T12:51:05Z</time>
      </trkpt>
      <trkpt lat="49.94008" lon="2.20993">
        <ele>30.7</ele>
        <time>2022-04-11T12:51:06Z</time>
      </trkpt>
      <trkpt lat="49.94008" lon="2.20993">
        <ele>30.7</ele>
        <time>2022-04-11T12:51:07Z</time>
      </trkpt>
      <trkpt lat="49.94008" lon="2.20993">
        <ele>30.7</ele>
        <time>2022-04-11T12:51:08Z</time>
      </trkpt>
      <trkpt lat="49.94008" lon="2.20993">
        <ele>30.7</ele>
        <time>2022-04-11T12:51:09Z</time>
      </trkpt>
      <trkpt lat="49.94008" lon="2.20993">
        <ele>30.7</ele>
        <time>2022-04-11T12:51:10Z</time>
      </trkpt>
      <trkpt lat="49.94008" lon="2.20993">
        <ele>30.7</ele>
        <time>2022-04-11T12:51:11Z</time>
      </trkpt>
      <trkpt lat="49.94008" lon="2.20993">
        <ele>30.7</ele>
        <time>2022-04-11T12:51:12Z</time>
      </trkpt>
      <trkpt lat="49.94008" lon="2.20993">
        <ele>30.7</ele>
        <time>2022-04-11T12:51:13Z</time>
      </trkpt>
      <trkpt lat="49.94008" lon="2.20993">
        <ele>30.7</ele>
        <time>2022-04-11T12:51:14Z</time>
      </trkpt>
      <trkpt lat="49.94008" lon="2.20993">
        <ele>30.7</ele>
        <time>2022-04-11T12:51:15Z</time>
      </trkpt>
      <trkpt lat="49.94008" lon="2.20993">
        <ele>30.7</ele>
        <time>2022-04-11T12:51:16Z</time>
      </trkpt>
      <trkpt lat="49.94008" lon="2.20993">
        <ele>30.7</ele>
        <time>2022-04-11T12:51:17Z</time>
      </trkpt>
      <trkpt lat="49.94008" lon="2.20993">
        <ele>30.7</ele>
        <time>2022-04-11T12:51:18Z</time>
      </trkpt>
      <trkpt lat="49.94008" lon="2.20993">
        <ele>30.7</ele>
        <time>2022-04-11T12:51:19Z</time>
      </trkpt>
      <trkpt lat="49.94008" lon="2.20993">
        <ele>30.7</ele>
        <time>2022-04-11T12:51:20Z</time>
      </trkpt>
      <trkpt lat="49.94008" lon="2.20993">
        <ele>30.7</ele>
        <time>2022-04-11T12:51:21Z</time>
      </trkpt>
      <trkpt lat="49.94008" lon="2.20993">
        <ele>30.7</ele>
        <time>2022-04-11T12:51:22Z</time>
      </trkpt>
      <trkpt lat="49.94008" lon="2.20993">
        <ele>30.7</ele>
        <time>2022-04-11T12:51:23Z</time>
      </trkpt>
      <trkpt lat="49.94008" lon="2.20993">
        <ele>30.7</ele>
        <time>2022-04-11T12:51:24Z</time>
      </trkpt>
      <trkpt lat="49.94008" lon="2.20993">
        <ele>30.7</ele>
        <time>2022-04-11T12:51:25Z</time>
      </trkpt>
      <trkpt lat="49.94008" lon="2.20993">
        <ele>30.7</ele>
        <time>2022-04-11T12:51:26Z</time>
      </trkpt>
      <trkpt lat="49.94008" lon="2.20993">
        <ele>30.7</ele>
        <time>2022-04-11T12:51:27Z</time>
      </trkpt>
      <trkpt lat="49.94008" lon="2.20993">
        <ele>30.7</ele>
        <time>2022-04-11T12:51:28Z</time>
      </trkpt>
      <trkpt lat="49.94008" lon="2.20993">
        <ele>30.7</ele>
        <time>2022-04-11T12:51:29Z</time>
      </trkpt>
      <trkpt lat="49.94008" lon="2.20993">
        <ele>30.7</ele>
        <time>2022-04-11T12:51:30Z</time>
      </trkpt>
      <trkpt lat="49.94008" lon="2.20993">
        <ele>30.7</ele>
        <time>2022-04-11T12:51:31Z</time>
      </trkpt>
      <trkpt lat="49.94008" lon="2.20993">
        <ele>30.7</ele>
        <time>2022-04-11T12:51:32Z</time>
      </trkpt>
      <trkpt lat="49.94008" lon="2.20993">
        <ele>30.7</ele>
        <time>2022-04-11T12:51:33Z</time>
      </trkpt>
      <trkpt lat="49.94008" lon="2.20993">
        <ele>30.7</ele>
        <time>2022-04-11T12:51:34Z</time>
      </trkpt>
      <trkpt lat="49.94008" lon="2.20993">
        <ele>30.7</ele>
        <time>2022-04-11T12:51:35Z</time>
      </trkpt>
      <trkpt lat="49.94008" lon="2.20993">
        <ele>30.7</ele>
        <time>2022-04-11T12:51:36Z</time>
      </trkpt>
      <trkpt lat="49.94008" lon="2.20993">
        <ele>30.7</ele>
        <time>2022-04-11T12:51:37Z</time>
      </trkpt>
      <trkpt lat="49.94008" lon="2.20993">
        <ele>30.7</ele>
        <time>2022-04-11T12:51:38Z</time>
      </trkpt>
      <trkpt lat="49.94008" lon="2.20993">
        <ele>30.7</ele>
        <time>2022-04-11T12:51:39Z</time>
      </trkpt>
      <trkpt lat="49.94008" lon="2.20993">
        <ele>30.7</ele>
        <time>2022-04-11T12:51:40Z</time>
      </trkpt>
      <trkpt lat="49.94008" lon="2.20993">
        <ele>30.7</ele>
        <time>2022-04-11T12:51:41Z</time>
      </trkpt>
      <trkpt lat="49.94008" lon="2.20993">
        <ele>30.7</ele>
        <time>2022-04-11T12:51:42Z</time>
      </trkpt>
      <trkpt lat="49.94008" lon="2.20993">
        <ele>30.7</ele>
        <time>2022-04-11T12:51:43Z</time>
      </trkpt>
      <trkpt lat="49.94008" lon="2.20993">
        <ele>30.7</ele>
        <time>2022-04-11T12:51:44Z</time>
      </trkpt>
      <trkpt lat="49.94008" lon="2.20993">
        <ele>30.7</ele>
        <time>2022-04-11T12:51:45Z</time>
      </trkpt>
      <trkpt lat="49.94008" lon="2.20993">
        <ele>30.7</ele>
        <time>2022-04-11T12:51:46Z</time>
      </trkpt>
      <trkpt lat="49.94008" lon="2.20993">
        <ele>30.7</ele>
        <time>2022-04-11T12:51:47Z</time>
      </trkpt>
      <trkpt lat="49.94008" lon="2.20993">
        <ele>30.7</ele>
        <time>2022-04-11T12:51:48Z</time>
      </trkpt>
      <trkpt lat="49.94008" lon="2.20993">
        <ele>30.7</ele>
        <time>2022-04-11T12:51:49Z</time>
      </trkpt>
      <trkpt lat="49.94008" lon="2.20993">
        <ele>30.7</ele>
        <time>2022-04-11T12:51:50Z</time>
      </trkpt>
      <trkpt lat="49.94008" lon="2.20993">
        <ele>30.7</ele>
        <time>2022-04-11T12:51:51Z</time>
      </trkpt>
      <trkpt lat="49.94008" lon="2.20993">
        <ele>30.7</ele>
        <time>2022-04-11T12:51:52Z</time>
      </trkpt>
      <trkpt lat="49.94008" lon="2.20993">
        <ele>30.7</ele>
        <time>2022-04-11T12:51:53Z</time>
      </trkpt>
      <trkpt lat="49.94008" lon="2.20993">
        <ele>30.7</ele>
        <time>2022-04-11T12:51:54Z</time>
      </trkpt>
      <trkpt lat="49.94008" lon="2.20993">
        <ele>30.7</ele>
        <time>2022-04-11T12:51:55Z</time>
      </trkpt>
      <trkpt lat="49.94008" lon="2.20993">
        <ele>30.7</ele>
        <time>2022-04-11T12:51:56Z</time>
      </trkpt>
      <trkpt lat="49.94008" lon="2.20993">
        <ele>30.7</ele>
        <time>2022-04-11T12:51:57Z</time>
      </trkpt>
      <trkpt lat="49.94008" lon="2.20993">
        <ele>30.7</ele>
        <time>2022-04-11T12:51:58Z</time>
      </trkpt>
      <trkpt lat="49.94008" lon="2.20993">
        <ele>30.7</ele>
        <time>2022-04-11T12:51:59Z</time>
      </trkpt>
      <trkpt lat="49.94008" lon="2.20993">
        <ele>30.7</ele>
        <time>2022-04-11T12:52:00Z</time>
      </trkpt>
      <trkpt lat="49.94008" lon="2.20993">
        <ele>30.7</ele>
        <time>2022-04-11T12:52:01Z</time>
      </trkpt>
      <trkpt lat="49.94008" lon="2.20993">
        <ele>30.7</ele>
        <time>2022-04-11T12:52:02Z</time>
      </trkpt>
      <trkpt lat="49.94008" lon="2.20993">
        <ele>30.7</ele>
        <time>2022-04-11T12:52:03Z</time>
      </trkpt>
      <trkpt lat="49.94008" lon="2.20993">
        <ele>30.7</ele>
        <time>2022-04-11T12:52:04Z</time>
      </trkpt>
      <trkpt lat="49.94008" lon="2.20993">
        <ele>30.7</ele>
        <time>2022-04-11T12:52:05Z</time>
      </trkpt>
      <trkpt lat="49.94008" lon="2.20993">
        <ele>30.7</ele>
        <time>2022-04-11T12:52:06Z</time>
      </trkpt>
      <trkpt lat="49.94008" lon="2.20993">
        <ele>30.7</ele>
        <time>2022-04-11T12:52:07Z</time>
      </trkpt>
      <trkpt lat="49.94008" lon="2.20993">
        <ele>30.7</ele>
        <time>2022-04-11T12:52:08Z</time>
      </trkpt>
      <trkpt lat="49.94008" lon="2.20993">
        <ele>30.7</ele>
        <time>2022-04-11T12:52:09Z</time>
      </trkpt>
      <trkpt lat="49.94008" lon="2.20993">
        <ele>30.7</ele>
        <time>2022-04-11T12:52:10Z</time>
      </trkpt>
      <trkpt lat="49.94008" lon="2.20993">
        <ele>30.7</ele>
        <time>2022-04-11T12:52:11Z</time>
      </trkpt>
      <trkpt lat="49.94008" lon="2.20993">
        <ele>30.7</ele>
        <time>2022-04-11T12:52:12Z</time>
      </trkpt>
      <trkpt lat="49.94008" lon="2.20993">
        <ele>30.7</ele>
        <time>2022-04-11T12:52:13Z</time>
      </trkpt>
      <trkpt lat="49.94008" lon="2.20993">
        <ele>30.7</ele>
        <time>2022-04-11T12:52:14Z</time>
      </trkpt>
      <trkpt lat="49.94008" lon="2.20993">
        <ele>30.7</ele>
        <time>2022-04-11T12:52:15Z</time>
      </trkpt>
      <trkpt lat="49.94008" lon="2.20993">
        <ele>30.7</ele>
        <time>2022-04-11T12:52:16Z</time>
      </trkpt>
      <trkpt lat="49.94008" lon="2.20993">
        <ele>30.7</ele>
        <time>2022-04-11T12:52:17Z</time>
      </trkpt>
      <trkpt lat="49.94008" lon="2.20993">
        <ele>30.7</ele>
        <time>2022-04-11T12:52:18Z</time>
      </trkpt>
      <trkpt lat="49.94008" lon="2.20993">
        <ele>30.7</ele>
        <time>2022-04-11T12:52:19Z</time>
      </trkpt>
      <trkpt lat="49.94008" lon="2.20993">
        <ele>30.7</ele>
        <time>2022-04-11T12:52:20Z</time>
      </trkpt>
      <trkpt lat="49.94008" lon="2.20993">
        <ele>30.7</ele>
        <time>2022-04-11T12:52:21Z</time>
      </trkpt>
      <trkpt lat="49.94008" lon="2.20993">
        <ele>30.7</ele>
        <time>2022-04-11T12:52:22Z</time>
      </trkpt>
      <trkpt lat="49.94008" lon="2.20993">
        <ele>30.7</ele>
        <time>2022-04-11T12:52:23Z</time>
      </trkpt>
      <trkpt lat="49.94008" lon="2.20993">
        <ele>30.7</ele>
        <time>2022-04-11T12:52:24Z</time>
      </trkpt>
      <trkpt lat="49.94008" lon="2.20993">
        <ele>30.7</ele>
        <time>2022-04-11T12:52:25Z</time>
      </trkpt>
      <trkpt lat="49.94008" lon="2.20993">
        <ele>30.7</ele>
        <time>2022-04-11T12:52:26Z</time>
      </trkpt>
      <trkpt lat="49.94008" lon="2.20993">
        <ele>30.7</ele>
        <time>2022-04-11T12:52:27Z</time>
      </trkpt>
      <trkpt lat="49.94008" lon="2.20993">
        <ele>30.7</ele>
        <time>2022-04-11T12:52:28Z</time>
      </trkpt>
      <trkpt lat="49.94008" lon="2.20993">
        <ele>30.7</ele>
        <time>2022-04-11T12:52:29Z</time>
      </trkpt>
      <trkpt lat="49.94008" lon="2.20993">
        <ele>30.7</ele>
        <time>2022-04-11T12:52:30Z</time>
      </trkpt>
      <trkpt lat="49.94008" lon="2.20993">
        <ele>30.7</ele>
        <time>2022-04-11T12:52:31Z</time>
      </trkpt>
      <trkpt lat="49.94008" lon="2.20993">
        <ele>30.7</ele>
        <time>2022-04-11T12:52:32Z</time>
      </trkpt>
      <trkpt lat="49.94008" lon="2.20993">
        <ele>30.7</ele>
        <time>2022-04-11T12:52:33Z</time>
      </trkpt>
      <trkpt lat="49.94008" lon="2.20993">
        <ele>30.7</ele>
        <time>2022-04-11T12:52:34Z</time>
      </trkpt>
      <trkpt lat="49.94008" lon="2.20993">
        <ele>30.7</ele>
        <time>2022-04-11T12:52:35Z</time>
      </trkpt>
      <trkpt lat="49.94008" lon="2.20993">
        <ele>30.7</ele>
        <time>2022-04-11T12:52:36Z</time>
      </trkpt>
      <trkpt lat="49.94008" lon="2.20993">
        <ele>30.7</ele>
        <time>2022-04-11T12:52:37Z</time>
      </trkpt>
      <trkpt lat="49.94008" lon="2.20993">
        <ele>30.7</ele>
        <time>2022-04-11T12:52:38Z</time>
      </trkpt>
      <trkpt lat="49.94008" lon="2.20993">
        <ele>30.7</ele>
        <time>2022-04-11T12:52:39Z</time>
      </trkpt>
      <trkpt lat="49.94008" lon="2.20993">
        <ele>30.7</ele>
        <time>2022-04-11T12:52:40Z</time>
      </trkpt>
      <trkpt lat="49.94008" lon="2.20993">
        <ele>30.7</ele>
        <time>2022-04-11T12:52:41Z</time>
      </trkpt>
      <trkpt lat="49.94008" lon="2.20993">
        <ele>30.7</ele>
        <time>2022-04-11T12:52:42Z</time>
      </trkpt>
      <trkpt lat="49.94008" lon="2.20993">
        <ele>30.7</ele>
        <time>2022-04-11T12:52:43Z</time>
      </trkpt>
      <trkpt lat="49.94008" lon="2.20993">
        <ele>30.7</ele>
        <time>2022-04-11T12:52:44Z</time>
      </trkpt>
      <trkpt lat="49.94008" lon="2.20993">
        <ele>30.7</ele>
        <time>2022-04-11T12:52:45Z</time>
      </trkpt>
      <trkpt lat="49.94008" lon="2.20993">
        <ele>30.7</ele>
        <time>2022-04-11T12:52:46Z</time>
      </trkpt>
      <trkpt lat="49.94008" lon="2.20993">
        <ele>30.7</ele>
        <time>2022-04-11T12:52:47Z</time>
      </trkpt>
      <trkpt lat="49.94008" lon="2.20993">
        <ele>30.7</ele>
        <time>2022-04-11T12:52:48Z</time>
      </trkpt>
      <trkpt lat="49.94008" lon="2.20993">
        <ele>30.7</ele>
        <time>2022-04-11T12:52:49Z</time>
      </trkpt>
      <trkpt lat="49.94008" lon="2.20993">
        <ele>30.7</ele>
        <time>2022-04-11T12:52:50Z</time>
      </trkpt>
      <trkpt lat="49.94008" lon="2.20993">
        <ele>30.7</ele>
        <time>2022-04-11T12:52:51Z</time>
      </trkpt>
      <trkpt lat="49.94008" lon="2.20993">
        <ele>30.7</ele>
        <time>2022-04-11T12:52:52Z</time>
      </trkpt>
      <trkpt lat="49.94008" lon="2.20993">
        <ele>30.7</ele>
        <time>2022-04-11T12:52:53Z</time>
      </trkpt>
      <trkpt lat="49.94008" lon="2.20993">
        <ele>30.7</ele>
        <time>2022-04-11T12:52:54Z</time>
      </trkpt>
      <trkpt lat="49.94008" lon="2.20993">
        <ele>30.7</ele>
        <time>2022-04-11T12:52:55Z</time>
      </trkpt>
      <trkpt lat="49.94008" lon="2.20993">
        <ele>30.7</ele>
        <time>2022-04-11T12:52:56Z</time>
      </trkpt>
      <trkpt lat="49.94008" lon="2.20993">
        <ele>30.7</ele>
        <time>2022-04-11T12:52:57Z</time>
      </trkpt>
      <trkpt lat="49.94008" lon="2.20993">
        <ele>30.7</ele>
        <time>2022-04-11T12:52:58Z</time>
      </trkpt>
      <trkpt lat="49.94008" lon="2.20993">
        <ele>30.7</ele>
        <time>2022-04-11T12:52:59Z</time>
      </trkpt>
      <trkpt lat="49.94008" lon="2.20993">
        <ele>30.7</ele>
        <time>2022-04-11T12:53:00Z</time>
      </trkpt>
      <trkpt lat="49.9401" lon="2.20993">
        <ele>30.7</ele>
        <time>2022-04-11T12:53:01Z</time>
      </trkpt>
      <trkpt lat="49.94011" lon="2.20994">
        <ele>30.7</ele>
        <time>2022-04-11T12:53:02Z</time>
      </trkpt>
      <trkpt lat="49.94011" lon="2.20994">
        <ele>30.7</ele>
        <time>2022-04-11T12:53:03Z</time>
      </trkpt>
      <trkpt lat="49.94012" lon="2.20994">
        <ele>30.7</ele>
        <time>2022-04-11T12:53:04Z</time>
      </trkpt>
      <trkpt lat="49.94012" lon="2.20994">
        <ele>30.7</ele>
        <time>2022-04-11T12:53:05Z</time>
      </trkpt>
      <trkpt lat="49.94012" lon="2.20994">
        <ele>30.7</ele>
        <time>2022-04-11T12:53:06Z</time>
      </trkpt>
      <trkpt lat="49.94012" lon="2.20994">
        <ele>30.7</ele>
        <time>2022-04-11T12:53:07Z</time>
      </trkpt>
      <trkpt lat="49.94012" lon="2.20994">
        <ele>30.7</ele>
        <time>2022-04-11T12:53:08Z</time>
      </trkpt>
      <trkpt lat="49.94012" lon="2.20994">
        <ele>30.7</ele>
        <time>2022-04-11T12:53:09Z</time>
      </trkpt>
      <trkpt lat="49.94013" lon="2.20994">
        <ele>30.7</ele>
        <time>2022-04-11T12:53:10Z</time>
      </trkpt>
      <trkpt lat="49.94013" lon="2.20994">
        <ele>30.7</ele>
        <time>2022-04-11T12:53:11Z</time>
      </trkpt>
      <trkpt lat="49.94013" lon="2.20994">
        <ele>30.7</ele>
        <time>2022-04-11T12:53:12Z</time>
      </trkpt>
      <trkpt lat="49.94013" lon="2.20994">
        <ele>30.7</ele>
        <time>2022-04-11T12:53:13Z</time>
      </trkpt>
      <trkpt lat="49.94013" lon="2.20994">
        <ele>30.7</ele>
        <time>2022-04-11T12:53:14Z</time>
      </trkpt>
      <trkpt lat="49.94013" lon="2.20994">
        <ele>30.7</ele>
        <time>2022-04-11T12:53:15Z</time>
      </trkpt>
      <trkpt lat="49.94013" lon="2.20994">
        <ele>30.7</ele>
        <time>2022-04-11T12:53:16Z</time>
      </trkpt>
      <trkpt lat="49.94013" lon="2.20994">
        <ele>30.7</ele>
        <time>2022-04-11T12:53:17Z</time>
      </trkpt>
      <trkpt lat="49.94013" lon="2.20994">
        <ele>30.7</ele>
        <time>2022-04-11T12:53:18Z</time>
      </trkpt>
      <trkpt lat="49.94013" lon="2.20994">
        <ele>30.7</ele>
        <time>2022-04-11T12:53:19Z</time>
      </trkpt>
      <trkpt lat="49.94013" lon="2.20994">
        <ele>30.7</ele>
        <time>2022-04-11T12:53:20Z</time>
      </trkpt>
      <trkpt lat="49.94013" lon="2.20994">
        <ele>30.7</ele>
        <time>2022-04-11T12:53:21Z</time>
      </trkpt>
      <trkpt lat="49.94013" lon="2.20994">
        <ele>30.7</ele>
        <time>2022-04-11T12:53:22Z</time>
      </trkpt>
      <trkpt lat="49.94013" lon="2.20994">
        <ele>30.7</ele>
        <time>2022-04-11T12:53:23Z</time>
      </trkpt>
      <trkpt lat="49.94013" lon="2.20994">
        <ele>30.7</ele>
        <time>2022-04-11T12:53:24Z</time>
      </trkpt>
      <trkpt lat="49.94013" lon="2.20994">
        <ele>30.7</ele>
        <time>2022-04-11T12:53:25Z</time>
      </trkpt>
      <trkpt lat="49.94012" lon="2.20994">
        <ele>30.7</ele>
        <time>2022-04-11T12:53:26Z</time>
      </trkpt>
      <trkpt lat="49.94012" lon="2.20993">
        <ele>30.7</ele>
        <time>2022-04-11T12:53:27Z</time>
      </trkpt>
      <trkpt lat="49.94012" lon="2.20993">
        <ele>30.7</ele>
        <time>2022-04-11T12:53:28Z</time>
      </trkpt>
      <trkpt lat="49.94011" lon="2.20993">
        <ele>30.7</ele>
        <time>2022-04-11T12:53:29Z</time>
      </trkpt>
      <trkpt lat="49.94011" lon="2.20993">
        <ele>30.7</ele>
        <time>2022-04-11T12:53:30Z</time>
      </trkpt>
      <trkpt lat="49.94011" lon="2.20993">
        <ele>30.7</ele>
        <time>2022-04-11T12:53:31Z</time>
      </trkpt>
      <trkpt lat="49.9401" lon="2.20993">
        <ele>30.7</ele>
        <time>2022-04-11T12:53:32Z</time>
      </trkpt>
      <trkpt lat="49.9401" lon="2.20993">
        <ele>30.7</ele>
        <time>2022-04-11T12:53:33Z</time>
      </trkpt>
      <trkpt lat="49.9401" lon="2.20992">
        <ele>30.7</ele>
        <time>2022-04-11T12:53:34Z</time>
      </trkpt>
      <trkpt lat="49.9401" lon="2.20992">
        <ele>30.7</ele>
        <time>2022-04-11T12:53:35Z</time>
      </trkpt>
      <trkpt lat="49.9401" lon="2.20992">
        <ele>30.7</ele>
        <time>2022-04-11T12:53:36Z</time>
      </trkpt>
      <trkpt lat="49.9401" lon="2.20992">
        <ele>30.7</ele>
        <time>2022-04-11T12:53:37Z</time>
      </trkpt>
      <trkpt lat="49.9401" lon="2.20992">
        <ele>30.7</ele>
        <time>2022-04-11T12:53:38Z</time>
      </trkpt>
      <trkpt lat="49.9401" lon="2.20992">
        <ele>30.7</ele>
        <time>2022-04-11T12:53:39Z</time>
      </trkpt>
      <trkpt lat="49.9401" lon="2.20992">
        <ele>30.7</ele>
        <time>2022-04-11T12:53:40Z</time>
      </trkpt>
      <trkpt lat="49.9401" lon="2.20992">
        <ele>30.7</ele>
        <time>2022-04-11T12:53:41Z</time>
      </trkpt>
      <trkpt lat="49.9401" lon="2.20992">
        <ele>30.7</ele>
        <time>2022-04-11T12:53:42Z</time>
      </trkpt>
      <trkpt lat="49.9401" lon="2.20992">
        <ele>30.7</ele>
        <time>2022-04-11T12:53:43Z</time>
      </trkpt>
      <trkpt lat="49.9401" lon="2.20992">
        <ele>30.7</ele>
        <time>2022-04-11T12:53:44Z</time>
      </trkpt>
      <trkpt lat="49.9401" lon="2.20992">
        <ele>30.7</ele>
        <time>2022-04-11T12:53:45Z</time>
      </trkpt>
      <trkpt lat="49.9401" lon="2.20992">
        <ele>30.7</ele>
        <time>2022-04-11T12:53:46Z</time>
      </trkpt>
      <trkpt lat="49.9401" lon="2.20992">
        <ele>30.7</ele>
        <time>2022-04-11T12:53:47Z</time>
      </trkpt>
      <trkpt lat="49.9401" lon="2.20992">
        <ele>30.7</ele>
        <time>2022-04-11T12:53:48Z</time>
      </trkpt>
      <trkpt lat="49.9401" lon="2.20992">
        <ele>30.7</ele>
        <time>2022-04-11T12:53:49Z</time>
      </trkpt>
      <trkpt lat="49.9401" lon="2.20992">
        <ele>30.7</ele>
        <time>2022-04-11T12:53:50Z</time>
      </trkpt>
      <trkpt lat="49.9401" lon="2.20992">
        <ele>30.7</ele>
        <time>2022-04-11T12:53:51Z</time>
      </trkpt>
      <trkpt lat="49.9401" lon="2.20992">
        <ele>30.7</ele>
        <time>2022-04-11T12:53:52Z</time>
      </trkpt>
      <trkpt lat="49.9401" lon="2.20992">
        <ele>30.7</ele>
        <time>2022-04-11T12:53:53Z</time>
      </trkpt>
      <trkpt lat="49.9401" lon="2.20992">
        <ele>30.7</ele>
        <time>2022-04-11T12:53:54Z</time>
      </trkpt>
      <trkpt lat="49.9401" lon="2.20992">
        <ele>30.7</ele>
        <time>2022-04-11T12:53:55Z</time>
      </trkpt>
      <trkpt lat="49.9401" lon="2.20992">
        <ele>30.7</ele>
        <time>2022-04-11T12:53:56Z</time>
      </trkpt>
      <trkpt lat="49.9401" lon="2.20992">
        <ele>30.7</ele>
        <time>2022-04-11T12:53:57Z</time>
      </trkpt>
      <trkpt lat="49.9401" lon="2.20992">
        <ele>30.7</ele>
        <time>2022-04-11T12:53:58Z</time>
      </trkpt>
      <trkpt lat="49.9401" lon="2.20992">
        <ele>30.7</ele>
        <time>2022-04-11T12:53:59Z</time>
      </trkpt>
      <trkpt lat="49.9401" lon="2.20992">
        <ele>30.7</ele>
        <time>2022-04-11T12:54:00Z</time>
      </trkpt>
      <trkpt lat="49.9401" lon="2.20992">
        <ele>30.7</ele>
        <time>2022-04-11T12:54:01Z</time>
      </trkpt>
      <trkpt lat="49.9401" lon="2.20992">
        <ele>30.7</ele>
        <time>2022-04-11T12:54:02Z</time>
      </trkpt>
      <trkpt lat="49.9401" lon="2.20992">
        <ele>30.7</ele>
        <time>2022-04-11T12:54:03Z</time>
      </trkpt>
      <trkpt lat="49.9401" lon="2.20992">
        <ele>30.7</ele>
        <time>2022-04-11T12:54:04Z</time>
      </trkpt>
      <trkpt lat="49.9401" lon="2.20992">
        <ele>30.7</ele>
        <time>2022-04-11T12:54:05Z</time>
      </trkpt>
      <trkpt lat="49.9401" lon="2.20992">
        <ele>30.7</ele>
        <time>2022-04-11T12:54:06Z</time>
      </trkpt>
      <trkpt lat="49.9401" lon="2.20992">
        <ele>30.7</ele>
        <time>2022-04-11T12:54:07Z</time>
      </trkpt>
      <trkpt lat="49.9401" lon="2.20992">
        <ele>30.7</ele>
        <time>2022-04-11T12:54:08Z</time>
      </trkpt>
      <trkpt lat="49.9401" lon="2.20992">
        <ele>30.7</ele>
        <time>2022-04-11T12:54:09Z</time>
      </trkpt>
      <trkpt lat="49.9401" lon="2.20992">
        <ele>30.7</ele>
        <time>2022-04-11T12:54:10Z</time>
      </trkpt>
      <trkpt lat="49.9401" lon="2.20992">
        <ele>30.7</ele>
        <time>2022-04-11T12:54:11Z</time>
      </trkpt>
      <trkpt lat="49.9401" lon="2.20992">
        <ele>30.7</ele>
        <time>2022-04-11T12:54:12Z</time>
      </trkpt>
      <trkpt lat="49.9401" lon="2.20992">
        <ele>30.7</ele>
        <time>2022-04-11T12:54:13Z</time>
      </trkpt>
      <trkpt lat="49.9401" lon="2.20992">
        <ele>30.7</ele>
        <time>2022-04-11T12:54:14Z</time>
      </trkpt>
      <trkpt lat="49.9401" lon="2.20992">
        <ele>30.7</ele>
        <time>2022-04-11T12:54:15Z</time>
      </trkpt>
      <trkpt lat="49.9401" lon="2.20992">
        <ele>30.7</ele>
        <time>2022-04-11T12:54:16Z</time>
      </trkpt>
      <trkpt lat="49.9401" lon="2.20992">
        <ele>30.7</ele>
        <time>2022-04-11T12:54:17Z</time>
      </trkpt>
      <trkpt lat="49.9401" lon="2.20992">
        <ele>30.7</ele>
        <time>2022-04-11T12:54:18Z</time>
      </trkpt>
      <trkpt lat="49.9401" lon="2.20992">
        <ele>30.7</ele>
        <time>2022-04-11T12:54:19Z</time>
      </trkpt>
      <trkpt lat="49.9401" lon="2.20992">
        <ele>30.7</ele>
        <time>2022-04-11T12:54:20Z</time>
      </trkpt>
      <trkpt lat="49.9401" lon="2.20992">
        <ele>30.7</ele>
        <time>2022-04-11T12:54:21Z</time>
      </trkpt>
      <trkpt lat="49.9401" lon="2.20992">
        <ele>30.7</ele>
        <time>2022-04-11T12:54:22Z</time>
      </trkpt>
      <trkpt lat="49.9401" lon="2.20992">
        <ele>30.7</ele>
        <time>2022-04-11T12:54:23Z</time>
      </trkpt>
      <trkpt lat="49.9401" lon="2.20992">
        <ele>30.7</ele>
        <time>2022-04-11T12:54:24Z</time>
      </trkpt>
      <trkpt lat="49.9401" lon="2.20992">
        <ele>30.7</ele>
        <time>2022-04-11T12:54:25Z</time>
      </trkpt>
      <trkpt lat="49.9401" lon="2.20992">
        <ele>30.7</ele>
        <time>2022-04-11T12:54:26Z</time>
      </trkpt>
      <trkpt lat="49.9401" lon="2.20992">
        <ele>30.7</ele>
        <time>2022-04-11T12:54:27Z</time>
      </trkpt>
      <trkpt lat="49.9401" lon="2.20992">
        <ele>30.7</ele>
        <time>2022-04-11T12:54:28Z</time>
      </trkpt>
      <trkpt lat="49.9401" lon="2.20992">
        <ele>30.7</ele>
        <time>2022-04-11T12:54:29Z</time>
      </trkpt>
      <trkpt lat="49.9401" lon="2.20992">
        <ele>30.7</ele>
        <time>2022-04-11T12:54:30Z</time>
      </trkpt>
      <trkpt lat="49.9401" lon="2.20992">
        <ele>30.7</ele>
        <time>2022-04-11T12:54:31Z</time>
      </trkpt>
      <trkpt lat="49.9401" lon="2.20992">
        <ele>30.7</ele>
        <time>2022-04-11T12:54:32Z</time>
      </trkpt>
      <trkpt lat="49.9401" lon="2.20992">
        <ele>30.7</ele>
        <time>2022-04-11T12:54:33Z</time>
      </trkpt>
      <trkpt lat="49.9401" lon="2.20992">
        <ele>30.7</ele>
        <time>2022-04-11T12:54:34Z</time>
      </trkpt>
      <trkpt lat="49.9401" lon="2.20992">
        <ele>30.7</ele>
        <time>2022-04-11T12:54:35Z</time>
      </trkpt>
      <trkpt lat="49.9401" lon="2.20992">
        <ele>30.7</ele>
        <time>2022-04-11T12:54:36Z</time>
      </trkpt>
      <trkpt lat="49.9401" lon="2.20992">
        <ele>30.7</ele>
        <time>2022-04-11T12:54:37Z</time>
      </trkpt>
      <trkpt lat="49.9401" lon="2.20992">
        <ele>30.7</ele>
        <time>2022-04-11T12:54:38Z</time>
      </trkpt>
      <trkpt lat="49.9401" lon="2.20992">
        <ele>30.7</ele>
        <time>2022-04-11T12:54:39Z</time>
      </trkpt>
      <trkpt lat="49.9401" lon="2.20992">
        <ele>30.7</ele>
        <time>2022-04-11T12:54:40Z</time>
      </trkpt>
      <trkpt lat="49.9401" lon="2.20992">
        <ele>30.7</ele>
        <time>2022-04-11T12:54:41Z</time>
      </trkpt>
      <trkpt lat="49.9401" lon="2.20992">
        <ele>30.7</ele>
        <time>2022-04-11T12:54:42Z</time>
      </trkpt>
      <trkpt lat="49.9401" lon="2.20992">
        <ele>30.7</ele>
        <time>2022-04-11T12:54:43Z</time>
      </trkpt>
      <trkpt lat="49.9401" lon="2.20992">
        <ele>30.7</ele>
        <time>2022-04-11T12:54:44Z</time>
      </trkpt>
      <trkpt lat="49.9401" lon="2.20992">
        <ele>30.7</ele>
        <time>2022-04-11T12:54:45Z</time>
      </trkpt>
      <trkpt lat="49.9401" lon="2.20992">
        <ele>30.7</ele>
        <time>2022-04-11T12:54:46Z</time>
      </trkpt>
      <trkpt lat="49.9401" lon="2.20992">
        <ele>30.7</ele>
        <time>2022-04-11T12:54:47Z</time>
      </trkpt>
      <trkpt lat="49.9401" lon="2.20992">
        <ele>30.7</ele>
        <time>2022-04-11T12:54:48Z</time>
      </trkpt>
      <trkpt lat="49.9401" lon="2.20992">
        <ele>30.7</ele>
        <time>2022-04-11T12:54:49Z</time>
      </trkpt>
      <trkpt lat="49.9401" lon="2.20992">
        <ele>30.7</ele>
        <time>2022-04-11T12:54:50Z</time>
      </trkpt>
      <trkpt lat="49.9401" lon="2.20992">
        <ele>30.7</ele>
        <time>2022-04-11T12:54:51Z</time>
      </trkpt>
      <trkpt lat="49.9401" lon="2.20992">
        <ele>30.7</ele>
        <time>2022-04-11T12:54:52Z</time>
      </trkpt>
      <trkpt lat="49.9401" lon="2.20992">
        <ele>30.7</ele>
        <time>2022-04-11T12:54:53Z</time>
      </trkpt>
      <trkpt lat="49.9401" lon="2.20992">
        <ele>30.7</ele>
        <time>2022-04-11T12:54:54Z</time>
      </trkpt>
      <trkpt lat="49.9401" lon="2.20992">
        <ele>30.7</ele>
        <time>2022-04-11T12:54:55Z</time>
      </trkpt>
      <trkpt lat="49.9401" lon="2.20992">
        <ele>30.7</ele>
        <time>2022-04-11T12:54:56Z</time>
      </trkpt>
      <trkpt lat="49.9401" lon="2.20992">
        <ele>30.7</ele>
        <time>2022-04-11T12:54:57Z</time>
      </trkpt>
      <trkpt lat="49.9401" lon="2.20992">
        <ele>30.7</ele>
        <time>2022-04-11T12:54:58Z</time>
      </trkpt>
      <trkpt lat="49.9401" lon="2.20992">
        <ele>30.7</ele>
        <time>2022-04-11T12:54:59Z</time>
      </trkpt>
      <trkpt lat="49.9401" lon="2.20992">
        <ele>30.7</ele>
        <time>2022-04-11T12:55:00Z</time>
      </trkpt>
      <trkpt lat="49.9401" lon="2.20992">
        <ele>30.7</ele>
        <time>2022-04-11T12:55:01Z</time>
      </trkpt>
      <trkpt lat="49.9401" lon="2.20992">
        <ele>30.7</ele>
        <time>2022-04-11T12:55:02Z</time>
      </trkpt>
      <trkpt lat="49.9401" lon="2.20992">
        <ele>30.7</ele>
        <time>2022-04-11T12:55:03Z</time>
      </trkpt>
      <trkpt lat="49.9401" lon="2.20992">
        <ele>30.7</ele>
        <time>2022-04-11T12:55:04Z</time>
      </trkpt>
      <trkpt lat="49.9401" lon="2.20992">
        <ele>30.7</ele>
        <time>2022-04-11T12:55:05Z</time>
      </trkpt>
      <trkpt lat="49.9401" lon="2.20992">
        <ele>30.7</ele>
        <time>2022-04-11T12:55:06Z</time>
      </trkpt>
      <trkpt lat="49.9401" lon="2.20992">
        <ele>30.7</ele>
        <time>2022-04-11T12:55:07Z</time>
      </trkpt>
      <trkpt lat="49.9401" lon="2.20992">
        <ele>30.7</ele>
        <time>2022-04-11T12:55:08Z</time>
      </trkpt>
      <trkpt lat="49.9401" lon="2.20992">
        <ele>30.7</ele>
        <time>2022-04-11T12:55:09Z</time>
      </trkpt>
      <trkpt lat="49.9401" lon="2.20992">
        <ele>30.7</ele>
        <time>2022-04-11T12:55:10Z</time>
      </trkpt>
      <trkpt lat="49.9401" lon="2.20992">
        <ele>30.7</ele>
        <time>2022-04-11T12:55:11Z</time>
      </trkpt>
      <trkpt lat="49.9401" lon="2.20992">
        <ele>30.7</ele>
        <time>2022-04-11T12:55:12Z</time>
      </trkpt>
      <trkpt lat="49.9401" lon="2.20992">
        <ele>30.7</ele>
        <time>2022-04-11T12:55:13Z</time>
      </trkpt>
      <trkpt lat="49.9401" lon="2.20992">
        <ele>30.7</ele>
        <time>2022-04-11T12:55:14Z</time>
      </trkpt>
      <trkpt lat="49.9401" lon="2.20992">
        <ele>30.7</ele>
        <time>2022-04-11T12:55:15Z</time>
      </trkpt>
      <trkpt lat="49.9401" lon="2.20992">
        <ele>30.7</ele>
        <time>2022-04-11T12:55:16Z</time>
      </trkpt>
      <trkpt lat="49.9401" lon="2.20992">
        <ele>30.7</ele>
        <time>2022-04-11T12:55:17Z</time>
      </trkpt>
      <trkpt lat="49.9401" lon="2.20992">
        <ele>30.7</ele>
        <time>2022-04-11T12:55:18Z</time>
      </trkpt>
      <trkpt lat="49.9401" lon="2.20992">
        <ele>30.7</ele>
        <time>2022-04-11T12:55:19Z</time>
      </trkpt>
      <trkpt lat="49.9401" lon="2.20992">
        <ele>30.7</ele>
        <time>2022-04-11T12:55:20Z</time>
      </trkpt>
      <trkpt lat="49.9401" lon="2.20992">
        <ele>30.7</ele>
        <time>2022-04-11T12:55:21Z</time>
      </trkpt>
      <trkpt lat="49.9401" lon="2.20992">
        <ele>30.7</ele>
        <time>2022-04-11T12:55:22Z</time>
      </trkpt>
      <trkpt lat="49.9401" lon="2.20992">
        <ele>30.7</ele>
        <time>2022-04-11T12:55:23Z</time>
      </trkpt>
      <trkpt lat="49.9401" lon="2.20992">
        <ele>30.7</ele>
        <time>2022-04-11T12:55:24Z</time>
      </trkpt>
      <trkpt lat="49.9401" lon="2.20992">
        <ele>30.7</ele>
        <time>2022-04-11T12:55:25Z</time>
      </trkpt>
      <trkpt lat="49.9401" lon="2.20992">
        <ele>30.7</ele>
        <time>2022-04-11T12:55:26Z</time>
      </trkpt>
      <trkpt lat="49.9401" lon="2.20992">
        <ele>30.7</ele>
        <time>2022-04-11T12:55:27Z</time>
      </trkpt>
      <trkpt lat="49.9401" lon="2.20992">
        <ele>30.7</ele>
        <time>2022-04-11T12:55:28Z</time>
      </trkpt>
      <trkpt lat="49.9401" lon="2.20992">
        <ele>30.7</ele>
        <time>2022-04-11T12:55:29Z</time>
      </trkpt>
      <trkpt lat="49.9401" lon="2.20992">
        <ele>30.7</ele>
        <time>2022-04-11T12:55:30Z</time>
      </trkpt>
      <trkpt lat="49.9401" lon="2.20992">
        <ele>30.7</ele>
        <time>2022-04-11T12:55:31Z</time>
      </trkpt>
      <trkpt lat="49.9401" lon="2.20992">
        <ele>30.7</ele>
        <time>2022-04-11T12:55:32Z</time>
      </trkpt>
      <trkpt lat="49.9401" lon="2.20992">
        <ele>30.7</ele>
        <time>2022-04-11T12:55:33Z</time>
      </trkpt>
      <trkpt lat="49.9401" lon="2.20992">
        <ele>30.7</ele>
        <time>2022-04-11T12:55:34Z</time>
      </trkpt>
      <trkpt lat="49.9401" lon="2.20992">
        <ele>30.7</ele>
        <time>2022-04-11T12:55:35Z</time>
      </trkpt>
      <trkpt lat="49.9401" lon="2.20992">
        <ele>30.7</ele>
        <time>2022-04-11T12:55:36Z</time>
      </trkpt>
      <trkpt lat="49.9401" lon="2.20992">
        <ele>30.7</ele>
        <time>2022-04-11T12:55:37Z</time>
      </trkpt>
      <trkpt lat="49.9401" lon="2.20992">
        <ele>30.7</ele>
        <time>2022-04-11T12:55:38Z</time>
      </trkpt>
      <trkpt lat="49.9401" lon="2.20992">
        <ele>30.7</ele>
        <time>2022-04-11T12:55:39Z</time>
      </trkpt>
      <trkpt lat="49.9401" lon="2.20992">
        <ele>30.7</ele>
        <time>2022-04-11T12:55:40Z</time>
      </trkpt>
      <trkpt lat="49.9401" lon="2.20992">
        <ele>30.7</ele>
        <time>2022-04-11T12:55:41Z</time>
      </trkpt>
      <trkpt lat="49.9401" lon="2.20992">
        <ele>30.7</ele>
        <time>2022-04-11T12:55:42Z</time>
      </trkpt>
      <trkpt lat="49.9401" lon="2.20992">
        <ele>30.7</ele>
        <time>2022-04-11T12:55:43Z</time>
      </trkpt>
      <trkpt lat="49.9401" lon="2.20992">
        <ele>30.7</ele>
        <time>2022-04-11T12:55:44Z</time>
      </trkpt>
      <trkpt lat="49.9401" lon="2.20992">
        <ele>30.7</ele>
        <time>2022-04-11T12:55:45Z</time>
      </trkpt>
      <trkpt lat="49.9401" lon="2.20992">
        <ele>30.7</ele>
        <time>2022-04-11T12:55:46Z</time>
      </trkpt>
      <trkpt lat="49.9401" lon="2.20992">
        <ele>30.7</ele>
        <time>2022-04-11T12:55:47Z</time>
      </trkpt>
      <trkpt lat="49.9401" lon="2.20992">
        <ele>30.7</ele>
        <time>2022-04-11T12:55:48Z</time>
      </trkpt>
      <trkpt lat="49.9401" lon="2.20992">
        <ele>30.7</ele>
        <time>2022-04-11T12:55:49Z</time>
      </trkpt>
      <trkpt lat="49.9401" lon="2.20992">
        <ele>30.7</ele>
        <time>2022-04-11T12:55:50Z</time>
      </trkpt>
      <trkpt lat="49.9401" lon="2.20992">
        <ele>30.7</ele>
        <time>2022-04-11T12:55:51Z</time>
      </trkpt>
      <trkpt lat="49.9401" lon="2.20992">
        <ele>30.7</ele>
        <time>2022-04-11T12:55:52Z</time>
      </trkpt>
      <trkpt lat="49.9401" lon="2.20992">
        <ele>30.7</ele>
        <time>2022-04-11T12:55:53Z</time>
      </trkpt>
      <trkpt lat="49.9401" lon="2.20992">
        <ele>30.7</ele>
        <time>2022-04-11T12:55:54Z</time>
      </trkpt>
      <trkpt lat="49.9401" lon="2.20992">
        <ele>30.7</ele>
        <time>2022-04-11T12:55:55Z</time>
      </trkpt>
      <trkpt lat="49.9401" lon="2.20992">
        <ele>30.7</ele>
        <time>2022-04-11T12:55:56Z</time>
      </trkpt>
      <trkpt lat="49.9401" lon="2.20992">
        <ele>30.7</ele>
        <time>2022-04-11T12:55:57Z</time>
      </trkpt>
      <trkpt lat="49.9401" lon="2.20992">
        <ele>30.7</ele>
        <time>2022-04-11T12:55:58Z</time>
      </trkpt>
      <trkpt lat="49.9401" lon="2.20992">
        <ele>30.7</ele>
        <time>2022-04-11T12:55:59Z</time>
      </trkpt>
      <trkpt lat="49.9401" lon="2.20992">
        <ele>30.7</ele>
        <time>2022-04-11T12:56:00Z</time>
      </trkpt>
      <trkpt lat="49.9401" lon="2.20992">
        <ele>30.7</ele>
        <time>2022-04-11T12:56:01Z</time>
      </trkpt>
      <trkpt lat="49.9401" lon="2.20992">
        <ele>30.7</ele>
        <time>2022-04-11T12:56:02Z</time>
      </trkpt>
      <trkpt lat="49.9401" lon="2.20992">
        <ele>30.7</ele>
        <time>2022-04-11T12:56:03Z</time>
      </trkpt>
      <trkpt lat="49.9401" lon="2.20992">
        <ele>30.7</ele>
        <time>2022-04-11T12:56:04Z</time>
      </trkpt>
      <trkpt lat="49.9401" lon="2.20992">
        <ele>30.7</ele>
        <time>2022-04-11T12:56:05Z</time>
      </trkpt>
      <trkpt lat="49.9401" lon="2.20992">
        <ele>30.7</ele>
        <time>2022-04-11T12:56:06Z</time>
      </trkpt>
      <trkpt lat="49.9401" lon="2.20992">
        <ele>30.7</ele>
        <time>2022-04-11T12:56:07Z</time>
      </trkpt>
      <trkpt lat="49.9401" lon="2.20992">
        <ele>30.7</ele>
        <time>2022-04-11T12:56:08Z</time>
      </trkpt>
      <trkpt lat="49.9401" lon="2.20992">
        <ele>30.7</ele>
        <time>2022-04-11T12:56:09Z</time>
      </trkpt>
      <trkpt lat="49.9401" lon="2.20992">
        <ele>30.7</ele>
        <time>2022-04-11T12:56:10Z</time>
      </trkpt>
      <trkpt lat="49.9401" lon="2.20992">
        <ele>30.7</ele>
        <time>2022-04-11T12:56:11Z</time>
      </trkpt>
      <trkpt lat="49.9401" lon="2.20992">
        <ele>30.7</ele>
        <time>2022-04-11T12:56:12Z</time>
      </trkpt>
      <trkpt lat="49.9401" lon="2.20992">
        <ele>30.7</ele>
        <time>2022-04-11T12:56:13Z</time>
      </trkpt>
      <trkpt lat="49.9401" lon="2.20992">
        <ele>30.7</ele>
        <time>2022-04-11T12:56:14Z</time>
      </trkpt>
      <trkpt lat="49.9401" lon="2.20992">
        <ele>30.7</ele>
        <time>2022-04-11T12:56:15Z</time>
      </trkpt>
      <trkpt lat="49.9401" lon="2.20992">
        <ele>30.7</ele>
        <time>2022-04-11T12:56:16Z</time>
      </trkpt>
      <trkpt lat="49.9401" lon="2.20992">
        <ele>30.7</ele>
        <time>2022-04-11T12:56:17Z</time>
      </trkpt>
      <trkpt lat="49.9401" lon="2.20992">
        <ele>30.7</ele>
        <time>2022-04-11T12:56:18Z</time>
      </trkpt>
      <trkpt lat="49.9401" lon="2.20992">
        <ele>30.7</ele>
        <time>2022-04-11T12:56:19Z</time>
      </trkpt>
      <trkpt lat="49.9401" lon="2.20992">
        <ele>30.7</ele>
        <time>2022-04-11T12:56:20Z</time>
      </trkpt>
      <trkpt lat="49.9401" lon="2.20992">
        <ele>30.7</ele>
        <time>2022-04-11T12:56:21Z</time>
      </trkpt>
      <trkpt lat="49.9401" lon="2.20992">
        <ele>30.7</ele>
        <time>2022-04-11T12:56:22Z</time>
      </trkpt>
      <trkpt lat="49.9401" lon="2.20992">
        <ele>30.7</ele>
        <time>2022-04-11T12:56:23Z</time>
      </trkpt>
      <trkpt lat="49.9401" lon="2.20992">
        <ele>30.7</ele>
        <time>2022-04-11T12:56:24Z</time>
      </trkpt>
      <trkpt lat="49.9401" lon="2.20992">
        <ele>30.7</ele>
        <time>2022-04-11T12:56:25Z</time>
      </trkpt>
      <trkpt lat="49.9401" lon="2.20992">
        <ele>30.7</ele>
        <time>2022-04-11T12:56:26Z</time>
      </trkpt>
      <trkpt lat="49.9401" lon="2.20992">
        <ele>30.7</ele>
        <time>2022-04-11T12:56:27Z</time>
      </trkpt>
      <trkpt lat="49.9401" lon="2.20992">
        <ele>30.7</ele>
        <time>2022-04-11T12:56:28Z</time>
      </trkpt>
      <trkpt lat="49.9401" lon="2.20992">
        <ele>30.7</ele>
        <time>2022-04-11T12:56:29Z</time>
      </trkpt>
      <trkpt lat="49.9401" lon="2.20992">
        <ele>30.7</ele>
        <time>2022-04-11T12:56:30Z</time>
      </trkpt>
      <trkpt lat="49.9401" lon="2.20992">
        <ele>30.7</ele>
        <time>2022-04-11T12:56:31Z</time>
      </trkpt>
      <trkpt lat="49.9401" lon="2.20992">
        <ele>30.7</ele>
        <time>2022-04-11T12:56:32Z</time>
      </trkpt>
      <trkpt lat="49.9401" lon="2.20992">
        <ele>30.7</ele>
        <time>2022-04-11T12:56:33Z</time>
      </trkpt>
      <trkpt lat="49.9401" lon="2.20992">
        <ele>30.7</ele>
        <time>2022-04-11T12:56:34Z</time>
      </trkpt>
      <trkpt lat="49.9401" lon="2.20992">
        <ele>30.7</ele>
        <time>2022-04-11T12:56:35Z</time>
      </trkpt>
      <trkpt lat="49.9401" lon="2.20992">
        <ele>30.7</ele>
        <time>2022-04-11T12:56:36Z</time>
      </trkpt>
      <trkpt lat="49.9401" lon="2.20992">
        <ele>30.7</ele>
        <time>2022-04-11T12:56:37Z</time>
      </trkpt>
      <trkpt lat="49.9401" lon="2.20992">
        <ele>30.7</ele>
        <time>2022-04-11T12:56:38Z</time>
      </trkpt>
      <trkpt lat="49.9401" lon="2.20992">
        <ele>30.7</ele>
        <time>2022-04-11T12:56:39Z</time>
      </trkpt>
      <trkpt lat="49.9401" lon="2.20992">
        <ele>30.7</ele>
        <time>2022-04-11T12:56:40Z</time>
      </trkpt>
      <trkpt lat="49.9401" lon="2.20992">
        <ele>30.7</ele>
        <time>2022-04-11T12:56:41Z</time>
      </trkpt>
      <trkpt lat="49.9401" lon="2.20992">
        <ele>30.7</ele>
        <time>2022-04-11T12:56:42Z</time>
      </trkpt>
      <trkpt lat="49.9401" lon="2.20992">
        <ele>30.7</ele>
        <time>2022-04-11T12:56:43Z</time>
      </trkpt>
      <trkpt lat="49.9401" lon="2.20992">
        <ele>30.7</ele>
        <time>2022-04-11T12:56:44Z</time>
      </trkpt>
      <trkpt lat="49.9401" lon="2.20992">
        <ele>30.7</ele>
        <time>2022-04-11T12:56:45Z</time>
      </trkpt>
      <trkpt lat="49.9401" lon="2.20992">
        <ele>30.7</ele>
        <time>2022-04-11T12:56:46Z</time>
      </trkpt>
      <trkpt lat="49.9401" lon="2.20992">
        <ele>30.7</ele>
        <time>2022-04-11T12:56:47Z</time>
      </trkpt>
      <trkpt lat="49.9401" lon="2.20992">
        <ele>30.7</ele>
        <time>2022-04-11T12:56:48Z</time>
      </trkpt>
      <trkpt lat="49.9401" lon="2.20992">
        <ele>30.7</ele>
        <time>2022-04-11T12:56:49Z</time>
      </trkpt>
      <trkpt lat="49.9401" lon="2.20992">
        <ele>30.7</ele>
        <time>2022-04-11T12:56:50Z</time>
      </trkpt>
      <trkpt lat="49.9401" lon="2.20992">
        <ele>30.7</ele>
        <time>2022-04-11T12:56:51Z</time>
      </trkpt>
      <trkpt lat="49.9401" lon="2.20992">
        <ele>30.7</ele>
        <time>2022-04-11T12:56:52Z</time>
      </trkpt>
      <trkpt lat="49.9401" lon="2.20992">
        <ele>30.7</ele>
        <time>2022-04-11T12:56:53Z</time>
      </trkpt>
      <trkpt lat="49.9401" lon="2.20992">
        <ele>30.7</ele>
        <time>2022-04-11T12:56:54Z</time>
      </trkpt>
      <trkpt lat="49.9401" lon="2.20992">
        <ele>30.7</ele>
        <time>2022-04-11T12:56:55Z</time>
      </trkpt>
      <trkpt lat="49.9401" lon="2.20992">
        <ele>30.7</ele>
        <time>2022-04-11T12:56:56Z</time>
      </trkpt>
      <trkpt lat="49.9401" lon="2.20992">
        <ele>30.7</ele>
        <time>2022-04-11T12:56:57Z</time>
      </trkpt>
      <trkpt lat="49.9401" lon="2.20992">
        <ele>30.7</ele>
        <time>2022-04-11T12:56:58Z</time>
      </trkpt>
      <trkpt lat="49.9401" lon="2.20992">
        <ele>30.7</ele>
        <time>2022-04-11T12:56:59Z</time>
      </trkpt>
      <trkpt lat="49.9401" lon="2.20992">
        <ele>30.7</ele>
        <time>2022-04-11T12:57:00Z</time>
      </trkpt>
      <trkpt lat="49.9401" lon="2.20992">
        <ele>30.7</ele>
        <time>2022-04-11T12:57:01Z</time>
      </trkpt>
      <trkpt lat="49.9401" lon="2.20992">
        <ele>30.7</ele>
        <time>2022-04-11T12:57:02Z</time>
      </trkpt>
      <trkpt lat="49.9401" lon="2.20992">
        <ele>30.7</ele>
        <time>2022-04-11T12:57:03Z</time>
      </trkpt>
      <trkpt lat="49.9401" lon="2.20992">
        <ele>30.7</ele>
        <time>2022-04-11T12:57:04Z</time>
      </trkpt>
      <trkpt lat="49.9401" lon="2.20992">
        <ele>30.7</ele>
        <time>2022-04-11T12:57:05Z</time>
      </trkpt>
      <trkpt lat="49.9401" lon="2.20992">
        <ele>30.7</ele>
        <time>2022-04-11T12:57:06Z</time>
      </trkpt>
      <trkpt lat="49.9401" lon="2.20992">
        <ele>30.7</ele>
        <time>2022-04-11T12:57:07Z</time>
      </trkpt>
      <trkpt lat="49.9401" lon="2.20992">
        <ele>30.7</ele>
        <time>2022-04-11T12:57:08Z</time>
      </trkpt>
      <trkpt lat="49.9401" lon="2.20992">
        <ele>30.7</ele>
        <time>2022-04-11T12:57:09Z</time>
      </trkpt>
      <trkpt lat="49.94008" lon="2.20992">
        <ele>30.7</ele>
        <time>2022-04-11T12:57:10Z</time>
      </trkpt>
      <trkpt lat="49.94008" lon="2.20991">
        <ele>30.7</ele>
        <time>2022-04-11T12:57:11Z</time>
      </trkpt>
      <trkpt lat="49.94007" lon="2.20991">
        <ele>30.7</ele>
        <time>2022-04-11T12:57:12Z</time>
      </trkpt>
      <trkpt lat="49.94007" lon="2.20991">
        <ele>30.7</ele>
        <time>2022-04-11T12:57:13Z</time>
      </trkpt>
      <trkpt lat="49.94007" lon="2.20991">
        <ele>30.7</ele>
        <time>2022-04-11T12:57:14Z</time>
      </trkpt>
      <trkpt lat="49.94007" lon="2.20991">
        <ele>30.7</ele>
        <time>2022-04-11T12:57:15Z</time>
      </trkpt>
      <trkpt lat="49.94007" lon="2.20991">
        <ele>30.7</ele>
        <time>2022-04-11T12:57:16Z</time>
      </trkpt>
      <trkpt lat="49.94007" lon="2.20991">
        <ele>30.7</ele>
        <time>2022-04-11T12:57:17Z</time>
      </trkpt>
      <trkpt lat="49.94007" lon="2.20991">
        <ele>30.7</ele>
        <time>2022-04-11T12:57:18Z</time>
      </trkpt>
      <trkpt lat="49.94007" lon="2.20991">
        <ele>30.7</ele>
        <time>2022-04-11T12:57:19Z</time>
      </trkpt>
      <trkpt lat="49.94007" lon="2.20991">
        <ele>30.7</ele>
        <time>2022-04-11T12:57:20Z</time>
      </trkpt>
      <trkpt lat="49.94007" lon="2.20991">
        <ele>30.7</ele>
        <time>2022-04-11T12:57:21Z</time>
      </trkpt>
      <trkpt lat="49.94007" lon="2.20991">
        <ele>30.7</ele>
        <time>2022-04-11T12:57:22Z</time>
      </trkpt>
      <trkpt lat="49.94007" lon="2.20991">
        <ele>30.7</ele>
        <time>2022-04-11T12:57:23Z</time>
      </trkpt>
      <trkpt lat="49.94007" lon="2.20991">
        <ele>30.7</ele>
        <time>2022-04-11T12:57:24Z</time>
      </trkpt>
      <trkpt lat="49.94007" lon="2.20991">
        <ele>30.7</ele>
        <time>2022-04-11T12:57:25Z</time>
      </trkpt>
      <trkpt lat="49.94007" lon="2.20991">
        <ele>30.7</ele>
        <time>2022-04-11T12:57:26Z</time>
      </trkpt>
      <trkpt lat="49.94007" lon="2.20991">
        <ele>30.7</ele>
        <time>2022-04-11T12:57:27Z</time>
      </trkpt>
      <trkpt lat="49.94007" lon="2.20991">
        <ele>30.7</ele>
        <time>2022-04-11T12:57:28Z</time>
      </trkpt>
      <trkpt lat="49.94007" lon="2.20991">
        <ele>30.7</ele>
        <time>2022-04-11T12:57:29Z</time>
      </trkpt>
      <trkpt lat="49.94007" lon="2.20991">
        <ele>30.7</ele>
        <time>2022-04-11T12:57:30Z</time>
      </trkpt>
      <trkpt lat="49.94007" lon="2.20991">
        <ele>30.7</ele>
        <time>2022-04-11T12:57:31Z</time>
      </trkpt>
      <trkpt lat="49.94007" lon="2.20991">
        <ele>30.7</ele>
        <time>2022-04-11T12:57:32Z</time>
      </trkpt>
      <trkpt lat="49.94007" lon="2.20991">
        <ele>30.7</ele>
        <time>2022-04-11T12:57:33Z</time>
      </trkpt>
      <trkpt lat="49.94007" lon="2.20991">
        <ele>30.7</ele>
        <time>2022-04-11T12:57:34Z</time>
      </trkpt>
      <trkpt lat="49.94007" lon="2.20991">
        <ele>30.7</ele>
        <time>2022-04-11T12:57:35Z</time>
      </trkpt>
      <trkpt lat="49.94007" lon="2.20991">
        <ele>30.7</ele>
        <time>2022-04-11T12:57:36Z</time>
      </trkpt>
      <trkpt lat="49.94007" lon="2.20991">
        <ele>30.7</ele>
        <time>2022-04-11T12:57:37Z</time>
      </trkpt>
      <trkpt lat="49.94007" lon="2.20991">
        <ele>30.7</ele>
        <time>2022-04-11T12:57:38Z</time>
      </trkpt>
      <trkpt lat="49.94007" lon="2.20991">
        <ele>30.7</ele>
        <time>2022-04-11T12:57:39Z</time>
      </trkpt>
      <trkpt lat="49.94007" lon="2.20991">
        <ele>30.7</ele>
        <time>2022-04-11T12:57:40Z</time>
      </trkpt>
      <trkpt lat="49.94007" lon="2.20991">
        <ele>30.7</ele>
        <time>2022-04-11T12:57:41Z</time>
      </trkpt>
      <trkpt lat="49.94007" lon="2.20991">
        <ele>30.7</ele>
        <time>2022-04-11T12:57:42Z</time>
      </trkpt>
      <trkpt lat="49.94007" lon="2.20991">
        <ele>30.7</ele>
        <time>2022-04-11T12:57:43Z</time>
      </trkpt>
      <trkpt lat="49.94007" lon="2.20991">
        <ele>30.7</ele>
        <time>2022-04-11T12:57:44Z</time>
      </trkpt>
      <trkpt lat="49.94007" lon="2.20991">
        <ele>30.7</ele>
        <time>2022-04-11T12:57:45Z</time>
      </trkpt>
      <trkpt lat="49.94007" lon="2.20991">
        <ele>30.7</ele>
        <time>2022-04-11T12:57:46Z</time>
      </trkpt>
      <trkpt lat="49.94007" lon="2.20991">
        <ele>30.7</ele>
        <time>2022-04-11T12:57:47Z</time>
      </trkpt>
      <trkpt lat="49.94007" lon="2.20991">
        <ele>30.7</ele>
        <time>2022-04-11T12:57:48Z</time>
      </trkpt>
      <trkpt lat="49.94007" lon="2.20991">
        <ele>30.7</ele>
        <time>2022-04-11T12:57:49Z</time>
      </trkpt>
      <trkpt lat="49.94007" lon="2.20991">
        <ele>30.7</ele>
        <time>2022-04-11T12:57:50Z</time>
      </trkpt>
      <trkpt lat="49.94007" lon="2.20991">
        <ele>30.7</ele>
        <time>2022-04-11T12:57:51Z</time>
      </trkpt>
      <trkpt lat="49.94007" lon="2.20991">
        <ele>30.7</ele>
        <time>2022-04-11T12:57:52Z</time>
      </trkpt>
      <trkpt lat="49.94007" lon="2.20991">
        <ele>30.7</ele>
        <time>2022-04-11T12:57:53Z</time>
      </trkpt>
      <trkpt lat="49.94007" lon="2.20991">
        <ele>30.7</ele>
        <time>2022-04-11T12:57:54Z</time>
      </trkpt>
      <trkpt lat="49.94007" lon="2.20991">
        <ele>30.7</ele>
        <time>2022-04-11T12:57:55Z</time>
      </trkpt>
      <trkpt lat="49.94007" lon="2.20991">
        <ele>30.7</ele>
        <time>2022-04-11T12:57:56Z</time>
      </trkpt>
      <trkpt lat="49.94007" lon="2.20991">
        <ele>30.7</ele>
        <time>2022-04-11T12:57:57Z</time>
      </trkpt>
      <trkpt lat="49.94007" lon="2.20991">
        <ele>30.7</ele>
        <time>2022-04-11T12:57:58Z</time>
      </trkpt>
      <trkpt lat="49.94007" lon="2.20991">
        <ele>30.7</ele>
        <time>2022-04-11T12:57:59Z</time>
      </trkpt>
      <trkpt lat="49.94007" lon="2.20991">
        <ele>30.7</ele>
        <time>2022-04-11T12:58:00Z</time>
      </trkpt>
      <trkpt lat="49.94007" lon="2.20991">
        <ele>30.7</ele>
        <time>2022-04-11T12:58:01Z</time>
      </trkpt>
      <trkpt lat="49.94007" lon="2.20991">
        <ele>30.7</ele>
        <time>2022-04-11T12:58:02Z</time>
      </trkpt>
      <trkpt lat="49.94007" lon="2.20991">
        <ele>30.7</ele>
        <time>2022-04-11T12:58:03Z</time>
      </trkpt>
      <trkpt lat="49.94007" lon="2.20991">
        <ele>30.7</ele>
        <time>2022-04-11T12:58:04Z</time>
      </trkpt>
      <trkpt lat="49.94007" lon="2.20991">
        <ele>30.7</ele>
        <time>2022-04-11T12:58:05Z</time>
      </trkpt>
      <trkpt lat="49.94007" lon="2.20991">
        <ele>30.7</ele>
        <time>2022-04-11T12:58:06Z</time>
      </trkpt>
      <trkpt lat="49.94007" lon="2.20991">
        <ele>30.7</ele>
        <time>2022-04-11T12:58:07Z</time>
      </trkpt>
      <trkpt lat="49.94007" lon="2.20991">
        <ele>30.7</ele>
        <time>2022-04-11T12:58:08Z</time>
      </trkpt>
      <trkpt lat="49.94007" lon="2.20991">
        <ele>30.7</ele>
        <time>2022-04-11T12:58:09Z</time>
      </trkpt>
      <trkpt lat="49.94007" lon="2.20991">
        <ele>30.7</ele>
        <time>2022-04-11T12:58:10Z</time>
      </trkpt>
      <trkpt lat="49.94007" lon="2.20991">
        <ele>30.7</ele>
        <time>2022-04-11T12:58:11Z</time>
      </trkpt>
      <trkpt lat="49.94007" lon="2.20991">
        <ele>30.7</ele>
        <time>2022-04-11T12:58:12Z</time>
      </trkpt>
      <trkpt lat="49.94007" lon="2.20991">
        <ele>30.7</ele>
        <time>2022-04-11T12:58:13Z</time>
      </trkpt>
      <trkpt lat="49.94007" lon="2.20991">
        <ele>30.7</ele>
        <time>2022-04-11T12:58:14Z</time>
      </trkpt>
      <trkpt lat="49.94007" lon="2.20991">
        <ele>30.7</ele>
        <time>2022-04-11T12:58:15Z</time>
      </trkpt>
      <trkpt lat="49.94007" lon="2.20991">
        <ele>30.7</ele>
        <time>2022-04-11T12:58:16Z</time>
      </trkpt>
      <trkpt lat="49.94007" lon="2.20991">
        <ele>30.7</ele>
        <time>2022-04-11T12:58:17Z</time>
      </trkpt>
      <trkpt lat="49.94007" lon="2.20991">
        <ele>30.7</ele>
        <time>2022-04-11T12:58:18Z</time>
      </trkpt>
      <trkpt lat="49.94007" lon="2.20991">
        <ele>30.7</ele>
        <time>2022-04-11T12:58:19Z</time>
      </trkpt>
      <trkpt lat="49.94007" lon="2.20991">
        <ele>30.7</ele>
        <time>2022-04-11T12:58:20Z</time>
      </trkpt>
      <trkpt lat="49.94007" lon="2.20991">
        <ele>30.7</ele>
        <time>2022-04-11T12:58:21Z</time>
      </trkpt>
      <trkpt lat="49.94007" lon="2.20991">
        <ele>30.7</ele>
        <time>2022-04-11T12:58:22Z</time>
      </trkpt>
      <trkpt lat="49.94007" lon="2.20991">
        <ele>30.7</ele>
        <time>2022-04-11T12:58:23Z</time>
      </trkpt>
      <trkpt lat="49.94007" lon="2.20991">
        <ele>30.7</ele>
        <time>2022-04-11T12:58:24Z</time>
      </trkpt>
      <trkpt lat="49.94007" lon="2.20991">
        <ele>30.7</ele>
        <time>2022-04-11T12:58:25Z</time>
      </trkpt>
      <trkpt lat="49.94007" lon="2.20991">
        <ele>30.7</ele>
        <time>2022-04-11T12:58:26Z</time>
      </trkpt>
      <trkpt lat="49.94007" lon="2.20991">
        <ele>30.7</ele>
        <time>2022-04-11T12:58:27Z</time>
      </trkpt>
      <trkpt lat="49.94007" lon="2.20991">
        <ele>30.7</ele>
        <time>2022-04-11T12:58:28Z</time>
      </trkpt>
      <trkpt lat="49.94007" lon="2.20991">
        <ele>30.7</ele>
        <time>2022-04-11T12:58:29Z</time>
      </trkpt>
      <trkpt lat="49.94007" lon="2.20991">
        <ele>30.7</ele>
        <time>2022-04-11T12:58:30Z</time>
      </trkpt>
      <trkpt lat="49.94007" lon="2.20991">
        <ele>30.7</ele>
        <time>2022-04-11T12:58:31Z</time>
      </trkpt>
      <trkpt lat="49.94007" lon="2.20991">
        <ele>30.7</ele>
        <time>2022-04-11T12:58:32Z</time>
      </trkpt>
      <trkpt lat="49.94007" lon="2.20991">
        <ele>30.7</ele>
        <time>2022-04-11T12:58:33Z</time>
      </trkpt>
      <trkpt lat="49.94007" lon="2.20991">
        <ele>30.7</ele>
        <time>2022-04-11T12:58:34Z</time>
      </trkpt>
      <trkpt lat="49.94007" lon="2.20991">
        <ele>30.7</ele>
        <time>2022-04-11T12:58:35Z</time>
      </trkpt>
      <trkpt lat="49.94007" lon="2.20991">
        <ele>30.7</ele>
        <time>2022-04-11T12:58:36Z</time>
      </trkpt>
      <trkpt lat="49.94007" lon="2.20991">
        <ele>30.7</ele>
        <time>2022-04-11T12:58:37Z</time>
      </trkpt>
      <trkpt lat="49.94007" lon="2.20991">
        <ele>30.7</ele>
        <time>2022-04-11T12:58:38Z</time>
      </trkpt>
      <trkpt lat="49.94007" lon="2.20991">
        <ele>30.7</ele>
        <time>2022-04-11T12:58:39Z</time>
      </trkpt>
      <trkpt lat="49.94007" lon="2.20991">
        <ele>30.7</ele>
        <time>2022-04-11T12:58:40Z</time>
      </trkpt>
      <trkpt lat="49.94007" lon="2.20991">
        <ele>30.7</ele>
        <time>2022-04-11T12:58:41Z</time>
      </trkpt>
      <trkpt lat="49.94007" lon="2.20991">
        <ele>30.7</ele>
        <time>2022-04-11T12:58:42Z</time>
      </trkpt>
      <trkpt lat="49.94007" lon="2.20991">
        <ele>30.7</ele>
        <time>2022-04-11T12:58:43Z</time>
      </trkpt>
      <trkpt lat="49.94007" lon="2.20991">
        <ele>30.7</ele>
        <time>2022-04-11T12:58:44Z</time>
      </trkpt>
      <trkpt lat="49.94007" lon="2.20991">
        <ele>30.7</ele>
        <time>2022-04-11T12:58:45Z</time>
      </trkpt>
      <trkpt lat="49.94007" lon="2.20991">
        <ele>30.7</ele>
        <time>2022-04-11T12:58:46Z</time>
      </trkpt>
      <trkpt lat="49.94007" lon="2.20991">
        <ele>30.7</ele>
        <time>2022-04-11T12:58:47Z</time>
      </trkpt>
      <trkpt lat="49.94007" lon="2.20991">
        <ele>30.7</ele>
        <time>2022-04-11T12:58:48Z</time>
      </trkpt>
      <trkpt lat="49.94007" lon="2.20991">
        <ele>30.7</ele>
        <time>2022-04-11T12:58:49Z</time>
      </trkpt>
      <trkpt lat="49.94007" lon="2.20989">
        <ele>30.7</ele>
        <time>2022-04-11T12:58:50Z</time>
      </trkpt>
      <trkpt lat="49.94007" lon="2.20987">
        <ele>30.7</ele>
        <time>2022-04-11T12:58:51Z</time>
      </trkpt>
      <trkpt lat="49.94007" lon="2.20987">
        <ele>30.7</ele>
        <time>2022-04-11T12:58:52Z</time>
      </trkpt>
      <trkpt lat="49.94008" lon="2.20986">
        <ele>30.7</ele>
        <time>2022-04-11T12:58:53Z</time>
      </trkpt>
      <trkpt lat="49.94008" lon="2.20986">
        <ele>30.7</ele>
        <time>2022-04-11T12:58:54Z</time>
      </trkpt>
      <trkpt lat="49.94008" lon="2.20986">
        <ele>30.7</ele>
        <time>2022-04-11T12:58:55Z</time>
      </trkpt>
      <trkpt lat="49.94008" lon="2.20986">
        <ele>30.7</ele>
        <time>2022-04-11T12:58:56Z</time>
      </trkpt>
      <trkpt lat="49.94008" lon="2.20986">
        <ele>30.7</ele>
        <time>2022-04-11T12:58:57Z</time>
      </trkpt>
      <trkpt lat="49.94008" lon="2.20986">
        <ele>30.7</ele>
        <time>2022-04-11T12:58:58Z</time>
      </trkpt>
      <trkpt lat="49.94008" lon="2.20986">
        <ele>30.7</ele>
        <time>2022-04-11T12:58:59Z</time>
      </trkpt>
      <trkpt lat="49.94008" lon="2.20986">
        <ele>30.7</ele>
        <time>2022-04-11T12:59:00Z</time>
      </trkpt>
      <trkpt lat="49.94008" lon="2.20986">
        <ele>30.7</ele>
        <time>2022-04-11T12:59:01Z</time>
      </trkpt>
      <trkpt lat="49.94008" lon="2.20986">
        <ele>30.7</ele>
        <time>2022-04-11T12:59:02Z</time>
      </trkpt>
      <trkpt lat="49.94008" lon="2.20986">
        <ele>30.7</ele>
        <time>2022-04-11T12:59:03Z</time>
      </trkpt>
      <trkpt lat="49.94008" lon="2.20986">
        <ele>30.7</ele>
        <time>2022-04-11T12:59:04Z</time>
      </trkpt>
      <trkpt lat="49.94008" lon="2.20986">
        <ele>30.7</ele>
        <time>2022-04-11T12:59:05Z</time>
      </trkpt>
      <trkpt lat="49.94008" lon="2.20986">
        <ele>30.7</ele>
        <time>2022-04-11T12:59:06Z</time>
      </trkpt>
      <trkpt lat="49.94008" lon="2.20986">
        <ele>30.7</ele>
        <time>2022-04-11T12:59:07Z</time>
      </trkpt>
      <trkpt lat="49.94008" lon="2.20986">
        <ele>30.7</ele>
        <time>2022-04-11T12:59:08Z</time>
      </trkpt>
      <trkpt lat="49.94008" lon="2.20986">
        <ele>30.7</ele>
        <time>2022-04-11T12:59:09Z</time>
      </trkpt>
      <trkpt lat="49.94008" lon="2.20986">
        <ele>30.7</ele>
        <time>2022-04-11T12:59:10Z</time>
      </trkpt>
      <trkpt lat="49.94008" lon="2.20986">
        <ele>30.7</ele>
        <time>2022-04-11T12:59:11Z</time>
      </trkpt>
      <trkpt lat="49.94008" lon="2.20986">
        <ele>30.7</ele>
        <time>2022-04-11T12:59:12Z</time>
      </trkpt>
      <trkpt lat="49.94008" lon="2.20986">
        <ele>30.7</ele>
        <time>2022-04-11T12:59:13Z</time>
      </trkpt>
      <trkpt lat="49.94008" lon="2.20986">
        <ele>30.7</ele>
        <time>2022-04-11T12:59:14Z</time>
      </trkpt>
      <trkpt lat="49.94008" lon="2.20986">
        <ele>30.7</ele>
        <time>2022-04-11T12:59:15Z</time>
      </trkpt>
      <trkpt lat="49.94008" lon="2.20986">
        <ele>30.7</ele>
        <time>2022-04-11T12:59:16Z</time>
      </trkpt>
      <trkpt lat="49.94008" lon="2.20986">
        <ele>30.7</ele>
        <time>2022-04-11T12:59:17Z</time>
      </trkpt>
      <trkpt lat="49.94008" lon="2.20986">
        <ele>30.7</ele>
        <time>2022-04-11T12:59:18Z</time>
      </trkpt>
      <trkpt lat="49.94008" lon="2.20986">
        <ele>30.7</ele>
        <time>2022-04-11T12:59:19Z</time>
      </trkpt>
      <trkpt lat="49.94008" lon="2.20985">
        <ele>30.7</ele>
        <time>2022-04-11T12:59:20Z</time>
      </trkpt>
      <trkpt lat="49.94008" lon="2.20985">
        <ele>30.7</ele>
        <time>2022-04-11T12:59:21Z</time>
      </trkpt>
      <trkpt lat="49.94008" lon="2.20985">
        <ele>30.7</ele>
        <time>2022-04-11T12:59:22Z</time>
      </trkpt>
      <trkpt lat="49.94008" lon="2.20985">
        <ele>30.7</ele>
        <time>2022-04-11T12:59:23Z</time>
      </trkpt>
      <trkpt lat="49.94008" lon="2.20985">
        <ele>30.7</ele>
        <time>2022-04-11T12:59:24Z</time>
      </trkpt>
      <trkpt lat="49.94008" lon="2.20985">
        <ele>30.7</ele>
        <time>2022-04-11T12:59:25Z</time>
      </trkpt>
      <trkpt lat="49.94008" lon="2.20985">
        <ele>30.7</ele>
        <time>2022-04-11T12:59:26Z</time>
      </trkpt>
      <trkpt lat="49.94008" lon="2.20985">
        <ele>30.7</ele>
        <time>2022-04-11T12:59:27Z</time>
      </trkpt>
      <trkpt lat="49.94008" lon="2.20985">
        <ele>30.7</ele>
        <time>2022-04-11T12:59:28Z</time>
      </trkpt>
      <trkpt lat="49.94008" lon="2.20985">
        <ele>30.7</ele>
        <time>2022-04-11T12:59:29Z</time>
      </trkpt>
      <trkpt lat="49.94009" lon="2.20985">
        <ele>30.7</ele>
        <time>2022-04-11T12:59:30Z</time>
      </trkpt>
      <trkpt lat="49.94009" lon="2.20985">
        <ele>30.7</ele>
        <time>2022-04-11T12:59:31Z</time>
      </trkpt>
      <trkpt lat="49.94009" lon="2.20985">
        <ele>30.7</ele>
        <time>2022-04-11T12:59:32Z</time>
      </trkpt>
      <trkpt lat="49.94009" lon="2.20985">
        <ele>30.7</ele>
        <time>2022-04-11T12:59:33Z</time>
      </trkpt>
      <trkpt lat="49.94009" lon="2.20985">
        <ele>30.7</ele>
        <time>2022-04-11T12:59:34Z</time>
      </trkpt>
      <trkpt lat="49.94009" lon="2.20985">
        <ele>30.7</ele>
        <time>2022-04-11T12:59:35Z</time>
      </trkpt>
      <trkpt lat="49.94009" lon="2.20985">
        <ele>30.7</ele>
        <time>2022-04-11T12:59:36Z</time>
      </trkpt>
      <trkpt lat="49.94009" lon="2.20985">
        <ele>30.7</ele>
        <time>2022-04-11T12:59:37Z</time>
      </trkpt>
      <trkpt lat="49.94009" lon="2.20985">
        <ele>30.7</ele>
        <time>2022-04-11T12:59:38Z</time>
      </trkpt>
      <trkpt lat="49.94009" lon="2.20985">
        <ele>30.7</ele>
        <time>2022-04-11T12:59:39Z</time>
      </trkpt>
      <trkpt lat="49.94009" lon="2.20985">
        <ele>30.7</ele>
        <time>2022-04-11T12:59:40Z</time>
      </trkpt>
      <trkpt lat="49.94009" lon="2.20985">
        <ele>30.7</ele>
        <time>2022-04-11T12:59:41Z</time>
      </trkpt>
      <trkpt lat="49.94009" lon="2.20985">
        <ele>30.7</ele>
        <time>2022-04-11T12:59:42Z</time>
      </trkpt>
      <trkpt lat="49.94009" lon="2.20985">
        <ele>30.7</ele>
        <time>2022-04-11T12:59:43Z</time>
      </trkpt>
      <trkpt lat="49.94009" lon="2.20985">
        <ele>30.7</ele>
        <time>2022-04-11T12:59:44Z</time>
      </trkpt>
      <trkpt lat="49.94009" lon="2.20985">
        <ele>30.7</ele>
        <time>2022-04-11T12:59:45Z</time>
      </trkpt>
      <trkpt lat="49.94009" lon="2.20985">
        <ele>30.7</ele>
        <time>2022-04-11T12:59:46Z</time>
      </trkpt>
      <trkpt lat="49.94009" lon="2.20984">
        <ele>30.7</ele>
        <time>2022-04-11T12:59:47Z</time>
      </trkpt>
      <trkpt lat="49.94009" lon="2.20984">
        <ele>30.7</ele>
        <time>2022-04-11T12:59:48Z</time>
      </trkpt>
      <trkpt lat="49.94009" lon="2.20984">
        <ele>30.7</ele>
        <time>2022-04-11T12:59:49Z</time>
      </trkpt>
      <trkpt lat="49.94009" lon="2.20984">
        <ele>30.7</ele>
        <time>2022-04-11T12:59:50Z</time>
      </trkpt>
      <trkpt lat="49.94009" lon="2.20984">
        <ele>30.7</ele>
        <time>2022-04-11T12:59:51Z</time>
      </trkpt>
      <trkpt lat="49.94009" lon="2.20984">
        <ele>30.7</ele>
        <time>2022-04-11T12:59:52Z</time>
      </trkpt>
      <trkpt lat="49.94009" lon="2.20984">
        <ele>30.7</ele>
        <time>2022-04-11T12:59:53Z</time>
      </trkpt>
      <trkpt lat="49.94009" lon="2.20984">
        <ele>30.7</ele>
        <time>2022-04-11T12:59:54Z</time>
      </trkpt>
      <trkpt lat="49.94009" lon="2.20984">
        <ele>30.7</ele>
        <time>2022-04-11T12:59:55Z</time>
      </trkpt>
      <trkpt lat="49.94009" lon="2.20984">
        <ele>30.7</ele>
        <time>2022-04-11T12:59:56Z</time>
      </trkpt>
      <trkpt lat="49.94009" lon="2.20984">
        <ele>30.7</ele>
        <time>2022-04-11T12:59:57Z</time>
      </trkpt>
      <trkpt lat="49.94009" lon="2.20984">
        <ele>30.7</ele>
        <time>2022-04-11T12:59:58Z</time>
      </trkpt>
      <trkpt lat="49.94009" lon="2.20984">
        <ele>30.7</ele>
        <time>2022-04-11T12:59:59Z</time>
      </trkpt>
      <trkpt lat="49.94009" lon="2.20984">
        <ele>30.7</ele>
        <time>2022-04-11T13:00:00Z</time>
      </trkpt>
      <trkpt lat="49.94009" lon="2.20984">
        <ele>30.7</ele>
        <time>2022-04-11T13:00:01Z</time>
      </trkpt>
      <trkpt lat="49.94009" lon="2.20984">
        <ele>30.7</ele>
        <time>2022-04-11T13:00:02Z</time>
      </trkpt>
      <trkpt lat="49.94009" lon="2.20984">
        <ele>30.7</ele>
        <time>2022-04-11T13:00:03Z</time>
      </trkpt>
      <trkpt lat="49.94009" lon="2.20984">
        <ele>30.7</ele>
        <time>2022-04-11T13:00:04Z</time>
      </trkpt>
      <trkpt lat="49.94009" lon="2.20984">
        <ele>30.7</ele>
        <time>2022-04-11T13:00:05Z</time>
      </trkpt>
      <trkpt lat="49.94009" lon="2.20984">
        <ele>30.7</ele>
        <time>2022-04-11T13:00:06Z</time>
      </trkpt>
      <trkpt lat="49.9401" lon="2.20984">
        <ele>30.7</ele>
        <time>2022-04-11T13:00:07Z</time>
      </trkpt>
      <trkpt lat="49.9401" lon="2.20984">
        <ele>30.7</ele>
        <time>2022-04-11T13:00:08Z</time>
      </trkpt>
      <trkpt lat="49.9401" lon="2.20984">
        <ele>30.7</ele>
        <time>2022-04-11T13:00:09Z</time>
      </trkpt>
      <trkpt lat="49.9401" lon="2.20984">
        <ele>30.7</ele>
        <time>2022-04-11T13:00:10Z</time>
      </trkpt>
      <trkpt lat="49.9401" lon="2.20984">
        <ele>30.7</ele>
        <time>2022-04-11T13:00:11Z</time>
      </trkpt>
      <trkpt lat="49.9401" lon="2.20984">
        <ele>30.7</ele>
        <time>2022-04-11T13:00:12Z</time>
      </trkpt>
      <trkpt lat="49.9401" lon="2.20984">
        <ele>30.7</ele>
        <time>2022-04-11T13:00:13Z</time>
      </trkpt>
      <trkpt lat="49.9401" lon="2.20983">
        <ele>30.7</ele>
        <time>2022-04-11T13:00:14Z</time>
      </trkpt>
      <trkpt lat="49.9401" lon="2.20983">
        <ele>30.7</ele>
        <time>2022-04-11T13:00:15Z</time>
      </trkpt>
      <trkpt lat="49.9401" lon="2.20983">
        <ele>30.7</ele>
        <time>2022-04-11T13:00:16Z</time>
      </trkpt>
      <trkpt lat="49.9401" lon="2.20983">
        <ele>30.7</ele>
        <time>2022-04-11T13:00:17Z</time>
      </trkpt>
      <trkpt lat="49.9401" lon="2.20983">
        <ele>30.7</ele>
        <time>2022-04-11T13:00:18Z</time>
      </trkpt>
      <trkpt lat="49.9401" lon="2.20983">
        <ele>30.7</ele>
        <time>2022-04-11T13:00:19Z</time>
      </trkpt>
      <trkpt lat="49.9401" lon="2.20983">
        <ele>30.7</ele>
        <time>2022-04-11T13:00:20Z</time>
      </trkpt>
      <trkpt lat="49.9401" lon="2.20983">
        <ele>30.7</ele>
        <time>2022-04-11T13:00:21Z</time>
      </trkpt>
      <trkpt lat="49.9401" lon="2.20983">
        <ele>30.7</ele>
        <time>2022-04-11T13:00:22Z</time>
      </trkpt>
      <trkpt lat="49.9401" lon="2.20983">
        <ele>30.7</ele>
        <time>2022-04-11T13:00:23Z</time>
      </trkpt>
      <trkpt lat="49.9401" lon="2.20983">
        <ele>30.7</ele>
        <time>2022-04-11T13:00:24Z</time>
      </trkpt>
      <trkpt lat="49.9401" lon="2.20983">
        <ele>30.7</ele>
        <time>2022-04-11T13:00:25Z</time>
      </trkpt>
      <trkpt lat="49.9401" lon="2.20983">
        <ele>30.7</ele>
        <time>2022-04-11T13:00:26Z</time>
      </trkpt>
      <trkpt lat="49.9401" lon="2.20983">
        <ele>30.7</ele>
        <time>2022-04-11T13:00:27Z</time>
      </trkpt>
      <trkpt lat="49.9401" lon="2.20983">
        <ele>30.7</ele>
        <time>2022-04-11T13:00:28Z</time>
      </trkpt>
      <trkpt lat="49.9401" lon="2.20983">
        <ele>30.7</ele>
        <time>2022-04-11T13:00:29Z</time>
      </trkpt>
      <trkpt lat="49.9401" lon="2.20983">
        <ele>30.7</ele>
        <time>2022-04-11T13:00:30Z</time>
      </trkpt>
      <trkpt lat="49.9401" lon="2.20983">
        <ele>30.7</ele>
        <time>2022-04-11T13:00:31Z</time>
      </trkpt>
      <trkpt lat="49.9401" lon="2.20983">
        <ele>30.7</ele>
        <time>2022-04-11T13:00:32Z</time>
      </trkpt>
      <trkpt lat="49.9401" lon="2.20983">
        <ele>30.7</ele>
        <time>2022-04-11T13:00:33Z</time>
      </trkpt>
      <trkpt lat="49.9401" lon="2.20983">
        <ele>30.7</ele>
        <time>2022-04-11T13:00:34Z</time>
      </trkpt>
      <trkpt lat="49.9401" lon="2.20983">
        <ele>30.7</ele>
        <time>2022-04-11T13:00:35Z</time>
      </trkpt>
      <trkpt lat="49.9401" lon="2.20983">
        <ele>30.7</ele>
        <time>2022-04-11T13:00:36Z</time>
      </trkpt>
      <trkpt lat="49.9401" lon="2.20983">
        <ele>30.7</ele>
        <time>2022-04-11T13:00:37Z</time>
      </trkpt>
      <trkpt lat="49.9401" lon="2.20983">
        <ele>30.7</ele>
        <time>2022-04-11T13:00:38Z</time>
      </trkpt>
      <trkpt lat="49.9401" lon="2.20983">
        <ele>30.7</ele>
        <time>2022-04-11T13:00:39Z</time>
      </trkpt>
      <trkpt lat="49.9401" lon="2.20983">
        <ele>30.7</ele>
        <time>2022-04-11T13:00:40Z</time>
      </trkpt>
      <trkpt lat="49.9401" lon="2.20982">
        <ele>30.7</ele>
        <time>2022-04-11T13:00:41Z</time>
      </trkpt>
      <trkpt lat="49.9401" lon="2.20982">
        <ele>30.7</ele>
        <time>2022-04-11T13:00:42Z</time>
      </trkpt>
      <trkpt lat="49.94011" lon="2.20982">
        <ele>30.7</ele>
        <time>2022-04-11T13:00:43Z</time>
      </trkpt>
      <trkpt lat="49.94011" lon="2.20982">
        <ele>30.7</ele>
        <time>2022-04-11T13:00:44Z</time>
      </trkpt>
      <trkpt lat="49.94011" lon="2.20982">
        <ele>30.7</ele>
        <time>2022-04-11T13:00:45Z</time>
      </trkpt>
      <trkpt lat="49.94011" lon="2.20982">
        <ele>30.7</ele>
        <time>2022-04-11T13:00:46Z</time>
      </trkpt>
      <trkpt lat="49.94011" lon="2.20982">
        <ele>30.7</ele>
        <time>2022-04-11T13:00:47Z</time>
      </trkpt>
      <trkpt lat="49.94011" lon="2.20982">
        <ele>30.7</ele>
        <time>2022-04-11T13:00:48Z</time>
      </trkpt>
      <trkpt lat="49.94011" lon="2.20982">
        <ele>30.7</ele>
        <time>2022-04-11T13:00:49Z</time>
      </trkpt>
      <trkpt lat="49.94011" lon="2.20982">
        <ele>30.7</ele>
        <time>2022-04-11T13:00:50Z</time>
      </trkpt>
      <trkpt lat="49.94011" lon="2.20982">
        <ele>30.7</ele>
        <time>2022-04-11T13:00:51Z</time>
      </trkpt>
      <trkpt lat="49.94011" lon="2.20982">
        <ele>30.7</ele>
        <time>2022-04-11T13:00:52Z</time>
      </trkpt>
      <trkpt lat="49.94011" lon="2.20982">
        <ele>30.7</ele>
        <time>2022-04-11T13:00:53Z</time>
      </trkpt>
      <trkpt lat="49.94011" lon="2.20982">
        <ele>30.7</ele>
        <time>2022-04-11T13:00:54Z</time>
      </trkpt>
      <trkpt lat="49.94011" lon="2.20982">
        <ele>30.7</ele>
        <time>2022-04-11T13:00:55Z</time>
      </trkpt>
      <trkpt lat="49.94011" lon="2.20982">
        <ele>30.7</ele>
        <time>2022-04-11T13:00:56Z</time>
      </trkpt>
      <trkpt lat="49.94011" lon="2.20982">
        <ele>30.7</ele>
        <time>2022-04-11T13:00:57Z</time>
      </trkpt>
      <trkpt lat="49.94011" lon="2.20982">
        <ele>30.7</ele>
        <time>2022-04-11T13:00:58Z</time>
      </trkpt>
      <trkpt lat="49.94011" lon="2.20982">
        <ele>30.7</ele>
        <time>2022-04-11T13:00:59Z</time>
      </trkpt>
      <trkpt lat="49.94011" lon="2.20982">
        <ele>30.7</ele>
        <time>2022-04-11T13:01:00Z</time>
      </trkpt>
      <trkpt lat="49.94011" lon="2.20982">
        <ele>30.7</ele>
        <time>2022-04-11T13:01:01Z</time>
      </trkpt>
      <trkpt lat="49.94011" lon="2.20982">
        <ele>30.7</ele>
        <time>2022-04-11T13:01:02Z</time>
      </trkpt>
      <trkpt lat="49.94011" lon="2.20982">
        <ele>30.7</ele>
        <time>2022-04-11T13:01:03Z</time>
      </trkpt>
      <trkpt lat="49.94011" lon="2.20982">
        <ele>30.7</ele>
        <time>2022-04-11T13:01:04Z</time>
      </trkpt>
      <trkpt lat="49.94011" lon="2.20982">
        <ele>30.7</ele>
        <time>2022-04-11T13:01:05Z</time>
      </trkpt>
      <trkpt lat="49.94011" lon="2.20982">
        <ele>30.7</ele>
        <time>2022-04-11T13:01:06Z</time>
      </trkpt>
      <trkpt lat="49.94011" lon="2.20982">
        <ele>30.7</ele>
        <time>2022-04-11T13:01:07Z</time>
      </trkpt>
      <trkpt lat="49.94011" lon="2.20981">
        <ele>30.7</ele>
        <time>2022-04-11T13:01:08Z</time>
      </trkpt>
      <trkpt lat="49.94011" lon="2.20981">
        <ele>30.7</ele>
        <time>2022-04-11T13:01:09Z</time>
      </trkpt>
      <trkpt lat="49.94011" lon="2.20981">
        <ele>30.7</ele>
        <time>2022-04-11T13:01:10Z</time>
      </trkpt>
      <trkpt lat="49.94012" lon="2.20976">
        <ele>30.7</ele>
        <time>2022-04-11T13:01:11Z</time>
      </trkpt>
      <trkpt lat="49.94013" lon="2.20972">
        <ele>30.7</ele>
        <time>2022-04-11T13:01:12Z</time>
      </trkpt>
      <trkpt lat="49.94014" lon="2.20971">
        <ele>30.7</ele>
        <time>2022-04-11T13:01:13Z</time>
      </trkpt>
      <trkpt lat="49.94014" lon="2.20971">
        <ele>30.7</ele>
        <time>2022-04-11T13:01:14Z</time>
      </trkpt>
      <trkpt lat="49.94014" lon="2.2097">
        <ele>30.7</ele>
        <time>2022-04-11T13:01:15Z</time>
      </trkpt>
      <trkpt lat="49.94015" lon="2.20969">
        <ele>30.7</ele>
        <time>2022-04-11T13:01:16Z</time>
      </trkpt>
      <trkpt lat="49.94016" lon="2.20968">
        <ele>30.7</ele>
        <time>2022-04-11T13:01:17Z</time>
      </trkpt>
      <trkpt lat="49.94016" lon="2.20967">
        <ele>30.7</ele>
        <time>2022-04-11T13:01:18Z</time>
      </trkpt>
      <trkpt lat="49.94015" lon="2.20969">
        <ele>30.7</ele>
        <time>2022-04-11T13:01:19Z</time>
      </trkpt>
      <trkpt lat="49.94014" lon="2.20969">
        <ele>30.7</ele>
        <time>2022-04-11T13:01:20Z</time>
      </trkpt>
      <trkpt lat="49.94014" lon="2.20969">
        <ele>30.7</ele>
        <time>2022-04-11T13:01:21Z</time>
      </trkpt>
      <trkpt lat="49.94014" lon="2.20969">
        <ele>30.7</ele>
        <time>2022-04-11T13:01:22Z</time>
      </trkpt>
      <trkpt lat="49.94014" lon="2.2097">
        <ele>30.7</ele>
        <time>2022-04-11T13:01:23Z</time>
      </trkpt>
      <trkpt lat="49.94014" lon="2.2097">
        <ele>30.7</ele>
        <time>2022-04-11T13:01:24Z</time>
      </trkpt>
      <trkpt lat="49.94014" lon="2.20971">
        <ele>30.7</ele>
        <time>2022-04-11T13:01:25Z</time>
      </trkpt>
      <trkpt lat="49.94014" lon="2.20971">
        <ele>30.7</ele>
        <time>2022-04-11T13:01:26Z</time>
      </trkpt>
      <trkpt lat="49.94014" lon="2.20971">
        <ele>30.7</ele>
        <time>2022-04-11T13:01:27Z</time>
      </trkpt>
      <trkpt lat="49.94014" lon="2.20971">
        <ele>30.7</ele>
        <time>2022-04-11T13:01:28Z</time>
      </trkpt>
      <trkpt lat="49.94014" lon="2.2097">
        <ele>30.7</ele>
        <time>2022-04-11T13:01:29Z</time>
      </trkpt>
      <trkpt lat="49.94014" lon="2.2097">
        <ele>30.7</ele>
        <time>2022-04-11T13:01:30Z</time>
      </trkpt>
      <trkpt lat="49.94014" lon="2.20969">
        <ele>30.7</ele>
        <time>2022-04-11T13:01:31Z</time>
      </trkpt>
      <trkpt lat="49.94014" lon="2.20969">
        <ele>30.7</ele>
        <time>2022-04-11T13:01:32Z</time>
      </trkpt>
      <trkpt lat="49.94014" lon="2.2097">
        <ele>30.7</ele>
        <time>2022-04-11T13:01:33Z</time>
      </trkpt>
      <trkpt lat="49.94015" lon="2.20971">
        <ele>30.7</ele>
        <time>2022-04-11T13:01:34Z</time>
      </trkpt>
      <trkpt lat="49.94015" lon="2.20972">
        <ele>30.7</ele>
        <time>2022-04-11T13:01:35Z</time>
      </trkpt>
      <trkpt lat="49.94015" lon="2.20972">
        <ele>30.7</ele>
        <time>2022-04-11T13:01:36Z</time>
      </trkpt>
      <trkpt lat="49.94016" lon="2.20972">
        <ele>30.7</ele>
        <time>2022-04-11T13:01:37Z</time>
      </trkpt>
      <trkpt lat="49.94016" lon="2.20973">
        <ele>30.7</ele>
        <time>2022-04-11T13:01:38Z</time>
      </trkpt>
      <trkpt lat="49.94016" lon="2.20974">
        <ele>30.7</ele>
        <time>2022-04-11T13:01:39Z</time>
      </trkpt>
      <trkpt lat="49.94017" lon="2.20974">
        <ele>30.7</ele>
        <time>2022-04-11T13:01:40Z</time>
      </trkpt>
      <trkpt lat="49.94017" lon="2.20974">
        <ele>30.7</ele>
        <time>2022-04-11T13:01:41Z</time>
      </trkpt>
      <trkpt lat="49.94017" lon="2.20975">
        <ele>30.7</ele>
        <time>2022-04-11T13:01:42Z</time>
      </trkpt>
      <trkpt lat="49.94017" lon="2.20975">
        <ele>30.7</ele>
        <time>2022-04-11T13:01:43Z</time>
      </trkpt>
      <trkpt lat="49.94017" lon="2.20975">
        <ele>30.7</ele>
        <time>2022-04-11T13:01:44Z</time>
      </trkpt>
      <trkpt lat="49.94017" lon="2.20976">
        <ele>30.7</ele>
        <time>2022-04-11T13:01:45Z</time>
      </trkpt>
      <trkpt lat="49.94018" lon="2.20976">
        <ele>30.7</ele>
        <time>2022-04-11T13:01:46Z</time>
      </trkpt>
      <trkpt lat="49.94018" lon="2.20977">
        <ele>30.7</ele>
        <time>2022-04-11T13:01:47Z</time>
      </trkpt>
      <trkpt lat="49.94018" lon="2.20977">
        <ele>30.7</ele>
        <time>2022-04-11T13:01:48Z</time>
      </trkpt>
      <trkpt lat="49.94018" lon="2.20977">
        <ele>30.7</ele>
        <time>2022-04-11T13:01:49Z</time>
      </trkpt>
      <trkpt lat="49.94018" lon="2.20978">
        <ele>30.7</ele>
        <time>2022-04-11T13:01:50Z</time>
      </trkpt>
      <trkpt lat="49.94018" lon="2.20978">
        <ele>30.7</ele>
        <time>2022-04-11T13:01:51Z</time>
      </trkpt>
      <trkpt lat="49.94018" lon="2.20978">
        <ele>30.7</ele>
        <time>2022-04-11T13:01:52Z</time>
      </trkpt>
      <trkpt lat="49.94019" lon="2.20979">
        <ele>30.7</ele>
        <time>2022-04-11T13:01:53Z</time>
      </trkpt>
      <trkpt lat="49.94019" lon="2.2098">
        <ele>30.7</ele>
        <time>2022-04-11T13:01:54Z</time>
      </trkpt>
      <trkpt lat="49.94019" lon="2.20981">
        <ele>30.7</ele>
        <time>2022-04-11T13:01:55Z</time>
      </trkpt>
      <trkpt lat="49.94019" lon="2.20981">
        <ele>30.7</ele>
        <time>2022-04-11T13:01:56Z</time>
      </trkpt>
      <trkpt lat="49.94019" lon="2.20981">
        <ele>30.7</ele>
        <time>2022-04-11T13:01:57Z</time>
      </trkpt>
      <trkpt lat="49.94019" lon="2.20982">
        <ele>30.7</ele>
        <time>2022-04-11T13:01:58Z</time>
      </trkpt>
      <trkpt lat="49.94019" lon="2.20982">
        <ele>30.7</ele>
        <time>2022-04-11T13:01:59Z</time>
      </trkpt>
      <trkpt lat="49.94019" lon="2.20982">
        <ele>30.7</ele>
        <time>2022-04-11T13:02:00Z</time>
      </trkpt>
      <trkpt lat="49.94019" lon="2.20982">
        <ele>30.7</ele>
        <time>2022-04-11T13:02:01Z</time>
      </trkpt>
      <trkpt lat="49.94019" lon="2.20982">
        <ele>30.7</ele>
        <time>2022-04-11T13:02:02Z</time>
      </trkpt>
      <trkpt lat="49.94019" lon="2.20982">
        <ele>30.7</ele>
        <time>2022-04-11T13:02:03Z</time>
      </trkpt>
      <trkpt lat="49.94019" lon="2.20982">
        <ele>30.7</ele>
        <time>2022-04-11T13:02:04Z</time>
      </trkpt>
      <trkpt lat="49.94019" lon="2.20982">
        <ele>30.7</ele>
        <time>2022-04-11T13:02:05Z</time>
      </trkpt>
      <trkpt lat="49.94019" lon="2.20982">
        <ele>30.7</ele>
        <time>2022-04-11T13:02:06Z</time>
      </trkpt>
      <trkpt lat="49.94019" lon="2.20982">
        <ele>30.7</ele>
        <time>2022-04-11T13:02:07Z</time>
      </trkpt>
      <trkpt lat="49.94019" lon="2.20982">
        <ele>30.7</ele>
        <time>2022-04-11T13:02:08Z</time>
      </trkpt>
      <trkpt lat="49.94019" lon="2.20982">
        <ele>30.7</ele>
        <time>2022-04-11T13:02:09Z</time>
      </trkpt>
      <trkpt lat="49.94019" lon="2.20982">
        <ele>30.7</ele>
        <time>2022-04-11T13:02:10Z</time>
      </trkpt>
      <trkpt lat="49.94019" lon="2.20982">
        <ele>30.7</ele>
        <time>2022-04-11T13:02:11Z</time>
      </trkpt>
      <trkpt lat="49.94019" lon="2.20982">
        <ele>30.7</ele>
        <time>2022-04-11T13:02:12Z</time>
      </trkpt>
      <trkpt lat="49.94019" lon="2.20982">
        <ele>30.7</ele>
        <time>2022-04-11T13:02:13Z</time>
      </trkpt>
      <trkpt lat="49.94019" lon="2.20982">
        <ele>30.7</ele>
        <time>2022-04-11T13:02:14Z</time>
      </trkpt>
      <trkpt lat="49.94019" lon="2.20982">
        <ele>30.7</ele>
        <time>2022-04-11T13:02:15Z</time>
      </trkpt>
      <trkpt lat="49.94019" lon="2.20982">
        <ele>30.7</ele>
        <time>2022-04-11T13:02:16Z</time>
      </trkpt>
      <trkpt lat="49.94019" lon="2.20982">
        <ele>30.7</ele>
        <time>2022-04-11T13:02:17Z</time>
      </trkpt>
      <trkpt lat="49.94019" lon="2.20982">
        <ele>30.7</ele>
        <time>2022-04-11T13:02:18Z</time>
      </trkpt>
      <trkpt lat="49.94019" lon="2.20982">
        <ele>30.7</ele>
        <time>2022-04-11T13:02:19Z</time>
      </trkpt>
      <trkpt lat="49.94019" lon="2.20982">
        <ele>30.7</ele>
        <time>2022-04-11T13:02:20Z</time>
      </trkpt>
      <trkpt lat="49.94019" lon="2.20982">
        <ele>30.7</ele>
        <time>2022-04-11T13:02:21Z</time>
      </trkpt>
      <trkpt lat="49.94019" lon="2.20982">
        <ele>30.7</ele>
        <time>2022-04-11T13:02:22Z</time>
      </trkpt>
      <trkpt lat="49.94019" lon="2.20982">
        <ele>30.7</ele>
        <time>2022-04-11T13:02:23Z</time>
      </trkpt>
      <trkpt lat="49.94019" lon="2.20982">
        <ele>30.7</ele>
        <time>2022-04-11T13:02:24Z</time>
      </trkpt>
      <trkpt lat="49.94019" lon="2.20982">
        <ele>30.7</ele>
        <time>2022-04-11T13:02:25Z</time>
      </trkpt>
      <trkpt lat="49.94019" lon="2.20982">
        <ele>30.7</ele>
        <time>2022-04-11T13:02:26Z</time>
      </trkpt>
      <trkpt lat="49.94019" lon="2.20982">
        <ele>30.7</ele>
        <time>2022-04-11T13:02:27Z</time>
      </trkpt>
      <trkpt lat="49.94019" lon="2.20982">
        <ele>30.7</ele>
        <time>2022-04-11T13:02:28Z</time>
      </trkpt>
      <trkpt lat="49.94019" lon="2.20982">
        <ele>30.7</ele>
        <time>2022-04-11T13:02:29Z</time>
      </trkpt>
      <trkpt lat="49.94019" lon="2.20982">
        <ele>30.7</ele>
        <time>2022-04-11T13:02:30Z</time>
      </trkpt>
      <trkpt lat="49.94019" lon="2.20982">
        <ele>30.7</ele>
        <time>2022-04-11T13:02:31Z</time>
      </trkpt>
      <trkpt lat="49.94019" lon="2.20982">
        <ele>30.7</ele>
        <time>2022-04-11T13:02:32Z</time>
      </trkpt>
      <trkpt lat="49.94019" lon="2.20982">
        <ele>30.7</ele>
        <time>2022-04-11T13:02:33Z</time>
      </trkpt>
      <trkpt lat="49.94019" lon="2.20982">
        <ele>30.7</ele>
        <time>2022-04-11T13:02:34Z</time>
      </trkpt>
      <trkpt lat="49.94019" lon="2.20982">
        <ele>30.7</ele>
        <time>2022-04-11T13:02:35Z</time>
      </trkpt>
      <trkpt lat="49.94019" lon="2.20982">
        <ele>30.7</ele>
        <time>2022-04-11T13:02:36Z</time>
      </trkpt>
      <trkpt lat="49.94019" lon="2.20982">
        <ele>30.7</ele>
        <time>2022-04-11T13:02:37Z</time>
      </trkpt>
      <trkpt lat="49.94019" lon="2.20982">
        <ele>30.7</ele>
        <time>2022-04-11T13:02:38Z</time>
      </trkpt>
      <trkpt lat="49.94019" lon="2.20982">
        <ele>30.7</ele>
        <time>2022-04-11T13:02:39Z</time>
      </trkpt>
      <trkpt lat="49.94019" lon="2.20982">
        <ele>30.7</ele>
        <time>2022-04-11T13:02:40Z</time>
      </trkpt>
      <trkpt lat="49.94019" lon="2.20982">
        <ele>30.7</ele>
        <time>2022-04-11T13:02:41Z</time>
      </trkpt>
      <trkpt lat="49.94019" lon="2.20982">
        <ele>30.7</ele>
        <time>2022-04-11T13:02:42Z</time>
      </trkpt>
      <trkpt lat="49.94019" lon="2.20982">
        <ele>30.7</ele>
        <time>2022-04-11T13:02:43Z</time>
      </trkpt>
      <trkpt lat="49.94019" lon="2.20982">
        <ele>30.7</ele>
        <time>2022-04-11T13:02:44Z</time>
      </trkpt>
      <trkpt lat="49.94019" lon="2.20982">
        <ele>30.7</ele>
        <time>2022-04-11T13:02:45Z</time>
      </trkpt>
      <trkpt lat="49.94019" lon="2.20982">
        <ele>30.7</ele>
        <time>2022-04-11T13:02:46Z</time>
      </trkpt>
      <trkpt lat="49.94019" lon="2.20982">
        <ele>30.7</ele>
        <time>2022-04-11T13:02:47Z</time>
      </trkpt>
      <trkpt lat="49.94019" lon="2.20982">
        <ele>30.7</ele>
        <time>2022-04-11T13:02:48Z</time>
      </trkpt>
      <trkpt lat="49.94019" lon="2.20982">
        <ele>30.7</ele>
        <time>2022-04-11T13:02:49Z</time>
      </trkpt>
      <trkpt lat="49.94019" lon="2.20982">
        <ele>30.7</ele>
        <time>2022-04-11T13:02:50Z</time>
      </trkpt>
      <trkpt lat="49.94019" lon="2.20982">
        <ele>30.7</ele>
        <time>2022-04-11T13:02:51Z</time>
      </trkpt>
      <trkpt lat="49.94019" lon="2.20982">
        <ele>30.7</ele>
        <time>2022-04-11T13:02:52Z</time>
      </trkpt>
      <trkpt lat="49.94019" lon="2.20982">
        <ele>30.7</ele>
        <time>2022-04-11T13:02:53Z</time>
      </trkpt>
      <trkpt lat="49.94019" lon="2.20982">
        <ele>30.7</ele>
        <time>2022-04-11T13:02:54Z</time>
      </trkpt>
      <trkpt lat="49.94019" lon="2.20982">
        <ele>30.7</ele>
        <time>2022-04-11T13:02:55Z</time>
      </trkpt>
      <trkpt lat="49.94019" lon="2.20982">
        <ele>30.7</ele>
        <time>2022-04-11T13:02:56Z</time>
      </trkpt>
      <trkpt lat="49.94019" lon="2.20982">
        <ele>30.7</ele>
        <time>2022-04-11T13:02:57Z</time>
      </trkpt>
      <trkpt lat="49.94019" lon="2.20982">
        <ele>30.7</ele>
        <time>2022-04-11T13:02:58Z</time>
      </trkpt>
      <trkpt lat="49.94019" lon="2.20982">
        <ele>30.7</ele>
        <time>2022-04-11T13:02:59Z</time>
      </trkpt>
      <trkpt lat="49.94019" lon="2.20982">
        <ele>30.7</ele>
        <time>2022-04-11T13:03:00Z</time>
      </trkpt>
      <trkpt lat="49.94019" lon="2.20982">
        <ele>30.7</ele>
        <time>2022-04-11T13:03:01Z</time>
      </trkpt>
      <trkpt lat="49.94019" lon="2.20982">
        <ele>30.7</ele>
        <time>2022-04-11T13:03:02Z</time>
      </trkpt>
      <trkpt lat="49.94019" lon="2.20982">
        <ele>30.7</ele>
        <time>2022-04-11T13:03:03Z</time>
      </trkpt>
      <trkpt lat="49.94019" lon="2.20982">
        <ele>30.7</ele>
        <time>2022-04-11T13:03:04Z</time>
      </trkpt>
      <trkpt lat="49.94019" lon="2.20982">
        <ele>30.7</ele>
        <time>2022-04-11T13:03:05Z</time>
      </trkpt>
      <trkpt lat="49.94019" lon="2.20982">
        <ele>30.7</ele>
        <time>2022-04-11T13:03:06Z</time>
      </trkpt>
      <trkpt lat="49.94019" lon="2.20982">
        <ele>30.7</ele>
        <time>2022-04-11T13:03:07Z</time>
      </trkpt>
      <trkpt lat="49.94019" lon="2.20982">
        <ele>30.7</ele>
        <time>2022-04-11T13:03:08Z</time>
      </trkpt>
      <trkpt lat="49.94019" lon="2.20982">
        <ele>30.7</ele>
        <time>2022-04-11T13:03:09Z</time>
      </trkpt>
      <trkpt lat="49.94019" lon="2.20982">
        <ele>30.7</ele>
        <time>2022-04-11T13:03:10Z</time>
      </trkpt>
      <trkpt lat="49.94019" lon="2.20982">
        <ele>30.7</ele>
        <time>2022-04-11T13:03:11Z</time>
      </trkpt>
      <trkpt lat="49.94019" lon="2.20982">
        <ele>30.7</ele>
        <time>2022-04-11T13:03:12Z</time>
      </trkpt>
      <trkpt lat="49.94019" lon="2.20982">
        <ele>30.7</ele>
        <time>2022-04-11T13:03:13Z</time>
      </trkpt>
      <trkpt lat="49.94019" lon="2.20982">
        <ele>30.7</ele>
        <time>2022-04-11T13:03:14Z</time>
      </trkpt>
      <trkpt lat="49.94019" lon="2.20982">
        <ele>30.7</ele>
        <time>2022-04-11T13:03:15Z</time>
      </trkpt>
      <trkpt lat="49.94019" lon="2.20982">
        <ele>30.7</ele>
        <time>2022-04-11T13:03:16Z</time>
      </trkpt>
      <trkpt lat="49.94019" lon="2.20982">
        <ele>30.7</ele>
        <time>2022-04-11T13:03:17Z</time>
      </trkpt>
      <trkpt lat="49.94019" lon="2.20982">
        <ele>30.7</ele>
        <time>2022-04-11T13:03:18Z</time>
      </trkpt>
      <trkpt lat="49.94019" lon="2.20982">
        <ele>30.7</ele>
        <time>2022-04-11T13:03:19Z</time>
      </trkpt>
      <trkpt lat="49.94019" lon="2.20982">
        <ele>30.7</ele>
        <time>2022-04-11T13:03:20Z</time>
      </trkpt>
      <trkpt lat="49.94019" lon="2.20982">
        <ele>30.7</ele>
        <time>2022-04-11T13:03:21Z</time>
      </trkpt>
      <trkpt lat="49.94019" lon="2.20982">
        <ele>30.7</ele>
        <time>2022-04-11T13:03:22Z</time>
      </trkpt>
      <trkpt lat="49.94019" lon="2.20982">
        <ele>30.7</ele>
        <time>2022-04-11T13:03:23Z</time>
      </trkpt>
      <trkpt lat="49.94019" lon="2.20982">
        <ele>30.7</ele>
        <time>2022-04-11T13:03:24Z</time>
      </trkpt>
      <trkpt lat="49.94019" lon="2.20982">
        <ele>30.7</ele>
        <time>2022-04-11T13:03:25Z</time>
      </trkpt>
      <trkpt lat="49.94018" lon="2.20982">
        <ele>30.7</ele>
        <time>2022-04-11T13:03:26Z</time>
      </trkpt>
      <trkpt lat="49.94018" lon="2.20982">
        <ele>30.7</ele>
        <time>2022-04-11T13:03:27Z</time>
      </trkpt>
      <trkpt lat="49.94017" lon="2.20982">
        <ele>30.7</ele>
        <time>2022-04-11T13:03:28Z</time>
      </trkpt>
      <trkpt lat="49.94017" lon="2.20982">
        <ele>30.7</ele>
        <time>2022-04-11T13:03:29Z</time>
      </trkpt>
      <trkpt lat="49.94017" lon="2.20982">
        <ele>30.7</ele>
        <time>2022-04-11T13:03:30Z</time>
      </trkpt>
      <trkpt lat="49.94017" lon="2.20982">
        <ele>30.7</ele>
        <time>2022-04-11T13:03:31Z</time>
      </trkpt>
      <trkpt lat="49.94017" lon="2.20982">
        <ele>30.7</ele>
        <time>2022-04-11T13:03:32Z</time>
      </trkpt>
      <trkpt lat="49.94018" lon="2.20982">
        <ele>30.7</ele>
        <time>2022-04-11T13:03:33Z</time>
      </trkpt>
      <trkpt lat="49.94018" lon="2.20982">
        <ele>30.7</ele>
        <time>2022-04-11T13:03:34Z</time>
      </trkpt>
      <trkpt lat="49.94018" lon="2.20982">
        <ele>30.7</ele>
        <time>2022-04-11T13:03:35Z</time>
      </trkpt>
      <trkpt lat="49.94018" lon="2.20982">
        <ele>30.7</ele>
        <time>2022-04-11T13:03:36Z</time>
      </trkpt>
      <trkpt lat="49.94018" lon="2.20982">
        <ele>30.7</ele>
        <time>2022-04-11T13:03:37Z</time>
      </trkpt>
      <trkpt lat="49.94018" lon="2.20982">
        <ele>30.7</ele>
        <time>2022-04-11T13:03:38Z</time>
      </trkpt>
      <trkpt lat="49.94018" lon="2.20982">
        <ele>30.7</ele>
        <time>2022-04-11T13:03:39Z</time>
      </trkpt>
      <trkpt lat="49.94018" lon="2.20982">
        <ele>30.7</ele>
        <time>2022-04-11T13:03:40Z</time>
      </trkpt>
      <trkpt lat="49.94018" lon="2.20982">
        <ele>30.7</ele>
        <time>2022-04-11T13:03:41Z</time>
      </trkpt>
      <trkpt lat="49.94018" lon="2.20982">
        <ele>30.7</ele>
        <time>2022-04-11T13:03:42Z</time>
      </trkpt>
      <trkpt lat="49.94018" lon="2.20982">
        <ele>30.7</ele>
        <time>2022-04-11T13:03:43Z</time>
      </trkpt>
      <trkpt lat="49.94018" lon="2.20982">
        <ele>30.7</ele>
        <time>2022-04-11T13:03:44Z</time>
      </trkpt>
      <trkpt lat="49.94018" lon="2.20982">
        <ele>30.7</ele>
        <time>2022-04-11T13:03:45Z</time>
      </trkpt>
      <trkpt lat="49.94018" lon="2.20982">
        <ele>30.7</ele>
        <time>2022-04-11T13:03:46Z</time>
      </trkpt>
      <trkpt lat="49.94018" lon="2.20982">
        <ele>30.7</ele>
        <time>2022-04-11T13:03:47Z</time>
      </trkpt>
      <trkpt lat="49.94018" lon="2.20982">
        <ele>30.7</ele>
        <time>2022-04-11T13:03:48Z</time>
      </trkpt>
      <trkpt lat="49.94018" lon="2.20982">
        <ele>30.7</ele>
        <time>2022-04-11T13:03:49Z</time>
      </trkpt>
      <trkpt lat="49.94018" lon="2.20982">
        <ele>30.7</ele>
        <time>2022-04-11T13:03:50Z</time>
      </trkpt>
      <trkpt lat="49.94018" lon="2.20982">
        <ele>30.7</ele>
        <time>2022-04-11T13:03:51Z</time>
      </trkpt>
      <trkpt lat="49.94018" lon="2.20982">
        <ele>30.7</ele>
        <time>2022-04-11T13:03:52Z</time>
      </trkpt>
      <trkpt lat="49.94018" lon="2.20982">
        <ele>30.7</ele>
        <time>2022-04-11T13:03:53Z</time>
      </trkpt>
      <trkpt lat="49.94019" lon="2.20983">
        <ele>30.7</ele>
        <time>2022-04-11T13:03:54Z</time>
      </trkpt>
      <trkpt lat="49.94019" lon="2.20983">
        <ele>30.7</ele>
        <time>2022-04-11T13:03:55Z</time>
      </trkpt>
      <trkpt lat="49.94018" lon="2.20983">
        <ele>30.7</ele>
        <time>2022-04-11T13:03:56Z</time>
      </trkpt>
      <trkpt lat="49.94018" lon="2.20983">
        <ele>30.7</ele>
        <time>2022-04-11T13:03:58Z</time>
      </trkpt>
      <trkpt lat="49.94017" lon="2.20983">
        <ele>30.7</ele>
        <time>2022-04-11T13:03:59Z</time>
      </trkpt>
      <trkpt lat="49.94017" lon="2.20983">
        <ele>30.7</ele>
        <time>2022-04-11T13:04:00Z</time>
      </trkpt>
      <trkpt lat="49.94017" lon="2.20984">
        <ele>30.7</ele>
        <time>2022-04-11T13:04:01Z</time>
      </trkpt>
      <trkpt lat="49.94016" lon="2.20985">
        <ele>30.7</ele>
        <time>2022-04-11T13:04:03Z</time>
      </trkpt>
      <trkpt lat="49.94016" lon="2.20986">
        <ele>30.7</ele>
        <time>2022-04-11T13:04:04Z</time>
      </trkpt>
      <trkpt lat="49.94016" lon="2.20986">
        <ele>30.7</ele>
        <time>2022-04-11T13:04:05Z</time>
      </trkpt>
      <trkpt lat="49.94016" lon="2.20986">
        <ele>30.7</ele>
        <time>2022-04-11T13:04:06Z</time>
      </trkpt>
      <trkpt lat="49.94016" lon="2.20986">
        <ele>30.7</ele>
        <time>2022-04-11T13:04:07Z</time>
      </trkpt>
      <trkpt lat="49.94016" lon="2.20986">
        <ele>30.7</ele>
        <time>2022-04-11T13:04:08Z</time>
      </trkpt>
      <trkpt lat="49.94016" lon="2.20987">
        <ele>30.7</ele>
        <time>2022-04-11T13:04:09Z</time>
      </trkpt>
      <trkpt lat="49.94016" lon="2.20988">
        <ele>30.7</ele>
        <time>2022-04-11T13:04:10Z</time>
      </trkpt>
      <trkpt lat="49.94016" lon="2.20988">
        <ele>30.7</ele>
        <time>2022-04-11T13:04:11Z</time>
      </trkpt>
      <trkpt lat="49.94016" lon="2.20989">
        <ele>30.7</ele>
        <time>2022-04-11T13:04:13Z</time>
      </trkpt>
      <trkpt lat="49.94016" lon="2.2099">
        <ele>30.7</ele>
        <time>2022-04-11T13:04:14Z</time>
      </trkpt>
      <trkpt lat="49.94016" lon="2.2099">
        <ele>30.7</ele>
        <time>2022-04-11T13:04:15Z</time>
      </trkpt>
      <trkpt lat="49.94016" lon="2.20991">
        <ele>30.7</ele>
        <time>2022-04-11T13:04:16Z</time>
      </trkpt>
      <trkpt lat="49.94015" lon="2.20992">
        <ele>30.7</ele>
        <time>2022-04-11T13:04:17Z</time>
      </trkpt>
      <trkpt lat="49.94015" lon="2.20992">
        <ele>30.7</ele>
        <time>2022-04-11T13:04:18Z</time>
      </trkpt>
      <trkpt lat="49.94014" lon="2.20992">
        <ele>30.7</ele>
        <time>2022-04-11T13:04:19Z</time>
      </trkpt>
      <trkpt lat="49.94014" lon="2.20992">
        <ele>30.7</ele>
        <time>2022-04-11T13:04:21Z</time>
      </trkpt>
      <trkpt lat="49.94014" lon="2.20992">
        <ele>30.7</ele>
        <time>2022-04-11T13:04:22Z</time>
      </trkpt>
      <trkpt lat="49.94014" lon="2.20992">
        <ele>30.7</ele>
        <time>2022-04-11T13:04:23Z</time>
      </trkpt>
      <trkpt lat="49.94014" lon="2.20991">
        <ele>30.7</ele>
        <time>2022-04-11T13:04:24Z</time>
      </trkpt>
      <trkpt lat="49.94014" lon="2.20991">
        <ele>30.7</ele>
        <time>2022-04-11T13:04:25Z</time>
      </trkpt>
      <trkpt lat="49.94014" lon="2.20991">
        <ele>30.7</ele>
        <time>2022-04-11T13:04:26Z</time>
      </trkpt>
      <trkpt lat="49.94014" lon="2.2099">
        <ele>30.7</ele>
        <time>2022-04-11T13:04:27Z</time>
      </trkpt>
      <trkpt lat="49.94014" lon="2.2099">
        <ele>30.7</ele>
        <time>2022-04-11T13:04:28Z</time>
      </trkpt>
      <trkpt lat="49.94013" lon="2.20989">
        <ele>30.7</ele>
        <time>2022-04-11T13:04:29Z</time>
      </trkpt>
      <trkpt lat="49.94013" lon="2.20989">
        <ele>30.7</ele>
        <time>2022-04-11T13:04:30Z</time>
      </trkpt>
      <trkpt lat="49.94013" lon="2.20989">
        <ele>30.7</ele>
        <time>2022-04-11T13:04:31Z</time>
      </trkpt>
      <trkpt lat="49.94013" lon="2.20989">
        <ele>30.7</ele>
        <time>2022-04-11T13:04:32Z</time>
      </trkpt>
      <trkpt lat="49.94013" lon="2.20988">
        <ele>30.7</ele>
        <time>2022-04-11T13:04:33Z</time>
      </trkpt>
      <trkpt lat="49.94013" lon="2.20988">
        <ele>30.7</ele>
        <time>2022-04-11T13:04:34Z</time>
      </trkpt>
      <trkpt lat="49.94013" lon="2.20988">
        <ele>30.7</ele>
        <time>2022-04-11T13:04:35Z</time>
      </trkpt>
      <trkpt lat="49.94013" lon="2.20988">
        <ele>30.7</ele>
        <time>2022-04-11T13:04:36Z</time>
      </trkpt>
      <trkpt lat="49.94012" lon="2.20987">
        <ele>30.7</ele>
        <time>2022-04-11T13:04:37Z</time>
      </trkpt>
      <trkpt lat="49.94012" lon="2.20987">
        <ele>30.7</ele>
        <time>2022-04-11T13:04:38Z</time>
      </trkpt>
      <trkpt lat="49.94012" lon="2.20987">
        <ele>30.7</ele>
        <time>2022-04-11T13:04:39Z</time>
      </trkpt>
      <trkpt lat="49.94012" lon="2.20987">
        <ele>30.7</ele>
        <time>2022-04-11T13:04:40Z</time>
      </trkpt>
      <trkpt lat="49.94012" lon="2.20987">
        <ele>30.7</ele>
        <time>2022-04-11T13:04:41Z</time>
      </trkpt>
      <trkpt lat="49.94012" lon="2.20987">
        <ele>30.7</ele>
        <time>2022-04-11T13:04:42Z</time>
      </trkpt>
      <trkpt lat="49.94012" lon="2.20987">
        <ele>30.7</ele>
        <time>2022-04-11T13:04:43Z</time>
      </trkpt>
      <trkpt lat="49.94012" lon="2.20987">
        <ele>30.7</ele>
        <time>2022-04-11T13:04:44Z</time>
      </trkpt>
      <trkpt lat="49.94012" lon="2.20987">
        <ele>30.7</ele>
        <time>2022-04-11T13:04:45Z</time>
      </trkpt>
      <trkpt lat="49.94012" lon="2.20987">
        <ele>30.7</ele>
        <time>2022-04-11T13:04:46Z</time>
      </trkpt>
      <trkpt lat="49.94012" lon="2.20987">
        <ele>30.7</ele>
        <time>2022-04-11T13:04:47Z</time>
      </trkpt>
      <trkpt lat="49.94012" lon="2.20987">
        <ele>30.7</ele>
        <time>2022-04-11T13:04:48Z</time>
      </trkpt>
      <trkpt lat="49.94012" lon="2.20987">
        <ele>30.7</ele>
        <time>2022-04-11T13:04:49Z</time>
      </trkpt>
      <trkpt lat="49.94012" lon="2.20987">
        <ele>30.7</ele>
        <time>2022-04-11T13:04:50Z</time>
      </trkpt>
      <trkpt lat="49.94012" lon="2.20987">
        <ele>30.7</ele>
        <time>2022-04-11T13:04:51Z</time>
      </trkpt>
      <trkpt lat="49.94012" lon="2.20987">
        <ele>30.7</ele>
        <time>2022-04-11T13:04:52Z</time>
      </trkpt>
      <trkpt lat="49.94012" lon="2.20987">
        <ele>30.7</ele>
        <time>2022-04-11T13:04:53Z</time>
      </trkpt>
      <trkpt lat="49.94012" lon="2.20987">
        <ele>30.7</ele>
        <time>2022-04-11T13:04:54Z</time>
      </trkpt>
      <trkpt lat="49.94012" lon="2.20987">
        <ele>30.7</ele>
        <time>2022-04-11T13:04:55Z</time>
      </trkpt>
      <trkpt lat="49.94012" lon="2.20987">
        <ele>30.7</ele>
        <time>2022-04-11T13:04:56Z</time>
      </trkpt>
      <trkpt lat="49.94012" lon="2.20987">
        <ele>30.7</ele>
        <time>2022-04-11T13:04:57Z</time>
      </trkpt>
      <trkpt lat="49.94012" lon="2.20987">
        <ele>30.7</ele>
        <time>2022-04-11T13:04:58Z</time>
      </trkpt>
      <trkpt lat="49.94012" lon="2.20987">
        <ele>30.7</ele>
        <time>2022-04-11T13:04:59Z</time>
      </trkpt>
      <trkpt lat="49.94012" lon="2.20987">
        <ele>30.7</ele>
        <time>2022-04-11T13:05:00Z</time>
      </trkpt>
      <trkpt lat="49.94012" lon="2.20987">
        <ele>30.7</ele>
        <time>2022-04-11T13:05:01Z</time>
      </trkpt>
      <trkpt lat="49.94012" lon="2.20987">
        <ele>30.7</ele>
        <time>2022-04-11T13:05:02Z</time>
      </trkpt>
      <trkpt lat="49.94012" lon="2.20987">
        <ele>30.7</ele>
        <time>2022-04-11T13:05:03Z</time>
      </trkpt>
      <trkpt lat="49.94012" lon="2.20987">
        <ele>30.7</ele>
        <time>2022-04-11T13:05:04Z</time>
      </trkpt>
      <trkpt lat="49.94012" lon="2.20987">
        <ele>30.7</ele>
        <time>2022-04-11T13:05:05Z</time>
      </trkpt>
      <trkpt lat="49.94012" lon="2.20987">
        <ele>30.7</ele>
        <time>2022-04-11T13:05:06Z</time>
      </trkpt>
      <trkpt lat="49.94012" lon="2.20987">
        <ele>30.7</ele>
        <time>2022-04-11T13:05:07Z</time>
      </trkpt>
      <trkpt lat="49.94012" lon="2.20987">
        <ele>30.7</ele>
        <time>2022-04-11T13:05:08Z</time>
      </trkpt>
      <trkpt lat="49.94012" lon="2.20987">
        <ele>30.7</ele>
        <time>2022-04-11T13:05:09Z</time>
      </trkpt>
      <trkpt lat="49.94012" lon="2.20987">
        <ele>30.7</ele>
        <time>2022-04-11T13:05:10Z</time>
      </trkpt>
      <trkpt lat="49.94012" lon="2.20987">
        <ele>30.7</ele>
        <time>2022-04-11T13:05:11Z</time>
      </trkpt>
      <trkpt lat="49.94012" lon="2.20987">
        <ele>30.7</ele>
        <time>2022-04-11T13:05:12Z</time>
      </trkpt>
      <trkpt lat="49.94012" lon="2.20987">
        <ele>30.7</ele>
        <time>2022-04-11T13:05:13Z</time>
      </trkpt>
      <trkpt lat="49.94012" lon="2.20987">
        <ele>30.7</ele>
        <time>2022-04-11T13:05:14Z</time>
      </trkpt>
      <trkpt lat="49.94012" lon="2.20987">
        <ele>30.7</ele>
        <time>2022-04-11T13:05:15Z</time>
      </trkpt>
      <trkpt lat="49.94012" lon="2.20987">
        <ele>30.7</ele>
        <time>2022-04-11T13:05:16Z</time>
      </trkpt>
      <trkpt lat="49.94012" lon="2.20987">
        <ele>30.7</ele>
        <time>2022-04-11T13:05:17Z</time>
      </trkpt>
      <trkpt lat="49.94012" lon="2.20988">
        <ele>30.7</ele>
        <time>2022-04-11T13:05:18Z</time>
      </trkpt>
      <trkpt lat="49.94011" lon="2.20988">
        <ele>30.7</ele>
        <time>2022-04-11T13:05:19Z</time>
      </trkpt>
      <trkpt lat="49.94012" lon="2.20988">
        <ele>30.7</ele>
        <time>2022-04-11T13:05:20Z</time>
      </trkpt>
      <trkpt lat="49.94011" lon="2.20987">
        <ele>30.7</ele>
        <time>2022-04-11T13:05:21Z</time>
      </trkpt>
      <trkpt lat="49.94011" lon="2.20987">
        <ele>30.7</ele>
        <time>2022-04-11T13:05:22Z</time>
      </trkpt>
      <trkpt lat="49.94011" lon="2.20987">
        <ele>30.7</ele>
        <time>2022-04-11T13:05:23Z</time>
      </trkpt>
      <trkpt lat="49.94011" lon="2.20987">
        <ele>30.7</ele>
        <time>2022-04-11T13:05:24Z</time>
      </trkpt>
      <trkpt lat="49.94012" lon="2.20987">
        <ele>30.7</ele>
        <time>2022-04-11T13:05:25Z</time>
      </trkpt>
      <trkpt lat="49.94012" lon="2.20987">
        <ele>30.7</ele>
        <time>2022-04-11T13:05:26Z</time>
      </trkpt>
      <trkpt lat="49.94013" lon="2.20987">
        <ele>30.7</ele>
        <time>2022-04-11T13:05:27Z</time>
      </trkpt>
      <trkpt lat="49.94013" lon="2.20988">
        <ele>30.7</ele>
        <time>2022-04-11T13:05:28Z</time>
      </trkpt>
      <trkpt lat="49.94013" lon="2.20988">
        <ele>30.7</ele>
        <time>2022-04-11T13:05:29Z</time>
      </trkpt>
      <trkpt lat="49.94015" lon="2.20987">
        <ele>30.7</ele>
        <time>2022-04-11T13:05:30Z</time>
      </trkpt>
      <trkpt lat="49.94016" lon="2.20987">
        <ele>30.7</ele>
        <time>2022-04-11T13:05:31Z</time>
      </trkpt>
      <trkpt lat="49.94016" lon="2.20988">
        <ele>30.7</ele>
        <time>2022-04-11T13:05:32Z</time>
      </trkpt>
      <trkpt lat="49.94016" lon="2.20988">
        <ele>30.7</ele>
        <time>2022-04-11T13:05:33Z</time>
      </trkpt>
      <trkpt lat="49.94016" lon="2.20989">
        <ele>30.7</ele>
        <time>2022-04-11T13:05:34Z</time>
      </trkpt>
      <trkpt lat="49.94017" lon="2.20991">
        <ele>30.7</ele>
        <time>2022-04-11T13:05:36Z</time>
      </trkpt>
      <trkpt lat="49.94018" lon="2.20993">
        <ele>30.7</ele>
        <time>2022-04-11T13:05:37Z</time>
      </trkpt>
      <trkpt lat="49.94018" lon="2.20993">
        <ele>30.7</ele>
        <time>2022-04-11T13:05:39Z</time>
      </trkpt>
      <trkpt lat="49.94018" lon="2.20994">
        <ele>30.7</ele>
        <time>2022-04-11T13:05:40Z</time>
      </trkpt>
      <trkpt lat="49.94018" lon="2.20994">
        <ele>30.7</ele>
        <time>2022-04-11T13:05:41Z</time>
      </trkpt>
      <trkpt lat="49.94018" lon="2.20994">
        <ele>30.7</ele>
        <time>2022-04-11T13:05:42Z</time>
      </trkpt>
      <trkpt lat="49.94018" lon="2.20994">
        <ele>30.7</ele>
        <time>2022-04-11T13:05:43Z</time>
      </trkpt>
      <trkpt lat="49.94018" lon="2.20994">
        <ele>30.7</ele>
        <time>2022-04-11T13:05:44Z</time>
      </trkpt>
      <trkpt lat="49.94018" lon="2.20994">
        <ele>30.7</ele>
        <time>2022-04-11T13:05:45Z</time>
      </trkpt>
      <trkpt lat="49.94018" lon="2.20994">
        <ele>30.7</ele>
        <time>2022-04-11T13:05:46Z</time>
      </trkpt>
      <trkpt lat="49.94018" lon="2.20994">
        <ele>30.7</ele>
        <time>2022-04-11T13:05:47Z</time>
      </trkpt>
      <trkpt lat="49.94018" lon="2.20994">
        <ele>30.7</ele>
        <time>2022-04-11T13:05:48Z</time>
      </trkpt>
      <trkpt lat="49.94018" lon="2.20993">
        <ele>30.7</ele>
        <time>2022-04-11T13:05:49Z</time>
      </trkpt>
      <trkpt lat="49.94018" lon="2.20994">
        <ele>30.7</ele>
        <time>2022-04-11T13:05:51Z</time>
      </trkpt>
      <trkpt lat="49.94018" lon="2.20994">
        <ele>30.7</ele>
        <time>2022-04-11T13:05:52Z</time>
      </trkpt>
      <trkpt lat="49.94018" lon="2.20994">
        <ele>30.7</ele>
        <time>2022-04-11T13:05:53Z</time>
      </trkpt>
      <trkpt lat="49.94018" lon="2.20994">
        <ele>30.7</ele>
        <time>2022-04-11T13:05:54Z</time>
      </trkpt>
      <trkpt lat="49.94018" lon="2.20994">
        <ele>30.7</ele>
        <time>2022-04-11T13:05:55Z</time>
      </trkpt>
      <trkpt lat="49.94018" lon="2.20993">
        <ele>30.7</ele>
        <time>2022-04-11T13:05:56Z</time>
      </trkpt>
      <trkpt lat="49.94018" lon="2.20993">
        <ele>30.7</ele>
        <time>2022-04-11T13:05:57Z</time>
      </trkpt>
      <trkpt lat="49.94018" lon="2.20993">
        <ele>30.7</ele>
        <time>2022-04-11T13:05:58Z</time>
      </trkpt>
      <trkpt lat="49.94018" lon="2.20993">
        <ele>30.7</ele>
        <time>2022-04-11T13:05:59Z</time>
      </trkpt>
      <trkpt lat="49.94018" lon="2.20993">
        <ele>30.7</ele>
        <time>2022-04-11T13:06:00Z</time>
      </trkpt>
      <trkpt lat="49.94017" lon="2.20995">
        <ele>30.7</ele>
        <time>2022-04-11T13:06:02Z</time>
      </trkpt>
      <trkpt lat="49.94016" lon="2.20995">
        <ele>30.7</ele>
        <time>2022-04-11T13:06:03Z</time>
      </trkpt>
      <trkpt lat="49.94016" lon="2.20996">
        <ele>30.7</ele>
        <time>2022-04-11T13:06:04Z</time>
      </trkpt>
      <trkpt lat="49.94014" lon="2.20995">
        <ele>30.7</ele>
        <time>2022-04-11T13:06:05Z</time>
      </trkpt>
      <trkpt lat="49.94013" lon="2.20994">
        <ele>30.7</ele>
        <time>2022-04-11T13:06:06Z</time>
      </trkpt>
      <trkpt lat="49.94013" lon="2.20993">
        <ele>30.7</ele>
        <time>2022-04-11T13:06:07Z</time>
      </trkpt>
      <trkpt lat="49.94013" lon="2.20992">
        <ele>30.7</ele>
        <time>2022-04-11T13:06:08Z</time>
      </trkpt>
      <trkpt lat="49.94013" lon="2.20992">
        <ele>30.7</ele>
        <time>2022-04-11T13:06:09Z</time>
      </trkpt>
      <trkpt lat="49.94013" lon="2.20992">
        <ele>30.7</ele>
        <time>2022-04-11T13:06:10Z</time>
      </trkpt>
      <trkpt lat="49.94013" lon="2.20992">
        <ele>30.7</ele>
        <time>2022-04-11T13:06:11Z</time>
      </trkpt>
      <trkpt lat="49.94013" lon="2.20992">
        <ele>30.7</ele>
        <time>2022-04-11T13:06:12Z</time>
      </trkpt>
      <trkpt lat="49.94013" lon="2.20992">
        <ele>30.7</ele>
        <time>2022-04-11T13:06:13Z</time>
      </trkpt>
      <trkpt lat="49.94013" lon="2.20992">
        <ele>30.7</ele>
        <time>2022-04-11T13:06:14Z</time>
      </trkpt>
      <trkpt lat="49.94013" lon="2.20992">
        <ele>30.7</ele>
        <time>2022-04-11T13:06:15Z</time>
      </trkpt>
      <trkpt lat="49.94013" lon="2.20992">
        <ele>30.7</ele>
        <time>2022-04-11T13:06:16Z</time>
      </trkpt>
      <trkpt lat="49.94013" lon="2.20992">
        <ele>30.7</ele>
        <time>2022-04-11T13:06:17Z</time>
      </trkpt>
      <trkpt lat="49.94013" lon="2.20992">
        <ele>30.7</ele>
        <time>2022-04-11T13:06:18Z</time>
      </trkpt>
      <trkpt lat="49.94013" lon="2.20992">
        <ele>30.7</ele>
        <time>2022-04-11T13:06:19Z</time>
      </trkpt>
      <trkpt lat="49.94013" lon="2.20992">
        <ele>30.7</ele>
        <time>2022-04-11T13:06:21Z</time>
      </trkpt>
      <trkpt lat="49.94013" lon="2.20992">
        <ele>30.7</ele>
        <time>2022-04-11T13:06:22Z</time>
      </trkpt>
      <trkpt lat="49.94013" lon="2.20992">
        <ele>30.7</ele>
        <time>2022-04-11T13:06:23Z</time>
      </trkpt>
      <trkpt lat="49.94013" lon="2.20992">
        <ele>30.7</ele>
        <time>2022-04-11T13:06:24Z</time>
      </trkpt>
      <trkpt lat="49.94013" lon="2.20992">
        <ele>30.7</ele>
        <time>2022-04-11T13:06:25Z</time>
      </trkpt>
      <trkpt lat="49.94013" lon="2.20992">
        <ele>30.7</ele>
        <time>2022-04-11T13:06:26Z</time>
      </trkpt>
      <trkpt lat="49.94013" lon="2.20993">
        <ele>30.7</ele>
        <time>2022-04-11T13:06:27Z</time>
      </trkpt>
      <trkpt lat="49.94013" lon="2.20993">
        <ele>30.7</ele>
        <time>2022-04-11T13:06:28Z</time>
      </trkpt>
      <trkpt lat="49.94013" lon="2.20993">
        <ele>30.7</ele>
        <time>2022-04-11T13:06:29Z</time>
      </trkpt>
      <trkpt lat="49.94013" lon="2.20993">
        <ele>30.7</ele>
        <time>2022-04-11T13:06:30Z</time>
      </trkpt>
      <trkpt lat="49.94014" lon="2.20993">
        <ele>30.7</ele>
        <time>2022-04-11T13:06:32Z</time>
      </trkpt>
      <trkpt lat="49.94014" lon="2.20994">
        <ele>30.7</ele>
        <time>2022-04-11T13:06:34Z</time>
      </trkpt>
      <trkpt lat="49.94013" lon="2.20995">
        <ele>30.7</ele>
        <time>2022-04-11T13:06:35Z</time>
      </trkpt>
      <trkpt lat="49.94012" lon="2.20995">
        <ele>30.7</ele>
        <time>2022-04-11T13:06:37Z</time>
      </trkpt>
      <trkpt lat="49.94012" lon="2.20995">
        <ele>30.7</ele>
        <time>2022-04-11T13:06:38Z</time>
      </trkpt>
      <trkpt lat="49.94012" lon="2.20995">
        <ele>30.7</ele>
        <time>2022-04-11T13:06:39Z</time>
      </trkpt>
      <trkpt lat="49.94012" lon="2.20995">
        <ele>30.7</ele>
        <time>2022-04-11T13:06:40Z</time>
      </trkpt>
      <trkpt lat="49.94011" lon="2.20994">
        <ele>30.7</ele>
        <time>2022-04-11T13:06:41Z</time>
      </trkpt>
      <trkpt lat="49.94011" lon="2.20994">
        <ele>30.7</ele>
        <time>2022-04-11T13:06:42Z</time>
      </trkpt>
      <trkpt lat="49.94011" lon="2.20993">
        <ele>30.7</ele>
        <time>2022-04-11T13:06:43Z</time>
      </trkpt>
      <trkpt lat="49.9401" lon="2.20992">
        <ele>30.7</ele>
        <time>2022-04-11T13:06:44Z</time>
      </trkpt>
      <trkpt lat="49.9401" lon="2.20991">
        <ele>30.7</ele>
        <time>2022-04-11T13:06:46Z</time>
      </trkpt>
      <trkpt lat="49.94009" lon="2.2099">
        <ele>30.7</ele>
        <time>2022-04-11T13:06:47Z</time>
      </trkpt>
      <trkpt lat="49.94009" lon="2.2099">
        <ele>30.7</ele>
        <time>2022-04-11T13:06:49Z</time>
      </trkpt>
      <trkpt lat="49.94009" lon="2.2099">
        <ele>30.7</ele>
        <time>2022-04-11T13:06:50Z</time>
      </trkpt>
      <trkpt lat="49.94009" lon="2.20991">
        <ele>30.7</ele>
        <time>2022-04-11T13:06:51Z</time>
      </trkpt>
      <trkpt lat="49.94009" lon="2.20992">
        <ele>30.7</ele>
        <time>2022-04-11T13:06:52Z</time>
      </trkpt>
      <trkpt lat="49.94009" lon="2.20992">
        <ele>30.7</ele>
        <time>2022-04-11T13:06:53Z</time>
      </trkpt>
      <trkpt lat="49.9401" lon="2.20993">
        <ele>30.7</ele>
        <time>2022-04-11T13:06:54Z</time>
      </trkpt>
      <trkpt lat="49.9401" lon="2.20993">
        <ele>30.7</ele>
        <time>2022-04-11T13:06:55Z</time>
      </trkpt>
      <trkpt lat="49.9401" lon="2.20993">
        <ele>30.7</ele>
        <time>2022-04-11T13:06:56Z</time>
      </trkpt>
      <trkpt lat="49.9401" lon="2.20993">
        <ele>30.7</ele>
        <time>2022-04-11T13:06:57Z</time>
      </trkpt>
      <trkpt lat="49.94011" lon="2.20993">
        <ele>30.7</ele>
        <time>2022-04-11T13:06:58Z</time>
      </trkpt>
      <trkpt lat="49.94011" lon="2.20993">
        <ele>30.7</ele>
        <time>2022-04-11T13:06:59Z</time>
      </trkpt>
      <trkpt lat="49.94011" lon="2.20994">
        <ele>30.7</ele>
        <time>2022-04-11T13:07:00Z</time>
      </trkpt>
      <trkpt lat="49.94011" lon="2.20994">
        <ele>30.7</ele>
        <time>2022-04-11T13:07:01Z</time>
      </trkpt>
      <trkpt lat="49.94011" lon="2.20994">
        <ele>30.7</ele>
        <time>2022-04-11T13:07:02Z</time>
      </trkpt>
      <trkpt lat="49.94011" lon="2.20994">
        <ele>30.7</ele>
        <time>2022-04-11T13:07:03Z</time>
      </trkpt>
      <trkpt lat="49.94011" lon="2.20994">
        <ele>30.7</ele>
        <time>2022-04-11T13:07:04Z</time>
      </trkpt>
      <trkpt lat="49.94011" lon="2.20994">
        <ele>30.7</ele>
        <time>2022-04-11T13:07:05Z</time>
      </trkpt>
      <trkpt lat="49.94011" lon="2.20994">
        <ele>30.7</ele>
        <time>2022-04-11T13:07:06Z</time>
      </trkpt>
      <trkpt lat="49.94011" lon="2.20994">
        <ele>30.7</ele>
        <time>2022-04-11T13:07:08Z</time>
      </trkpt>
      <trkpt lat="49.94011" lon="2.20994">
        <ele>30.7</ele>
        <time>2022-04-11T13:07:09Z</time>
      </trkpt>
      <trkpt lat="49.94011" lon="2.20994">
        <ele>30.7</ele>
        <time>2022-04-11T13:07:10Z</time>
      </trkpt>
      <trkpt lat="49.94011" lon="2.20994">
        <ele>30.7</ele>
        <time>2022-04-11T13:07:11Z</time>
      </trkpt>
      <trkpt lat="49.94011" lon="2.20994">
        <ele>30.7</ele>
        <time>2022-04-11T13:07:12Z</time>
      </trkpt>
      <trkpt lat="49.94011" lon="2.20994">
        <ele>30.7</ele>
        <time>2022-04-11T13:07:13Z</time>
      </trkpt>
      <trkpt lat="49.94011" lon="2.20994">
        <ele>30.7</ele>
        <time>2022-04-11T13:07:14Z</time>
      </trkpt>
      <trkpt lat="49.94012" lon="2.20994">
        <ele>30.7</ele>
        <time>2022-04-11T13:07:15Z</time>
      </trkpt>
      <trkpt lat="49.94012" lon="2.20993">
        <ele>30.7</ele>
        <time>2022-04-11T13:07:16Z</time>
      </trkpt>
      <trkpt lat="49.94012" lon="2.20993">
        <ele>30.7</ele>
        <time>2022-04-11T13:07:17Z</time>
      </trkpt>
      <trkpt lat="49.94012" lon="2.20993">
        <ele>30.7</ele>
        <time>2022-04-11T13:07:18Z</time>
      </trkpt>
      <trkpt lat="49.94012" lon="2.20993">
        <ele>30.7</ele>
        <time>2022-04-11T13:07:19Z</time>
      </trkpt>
      <trkpt lat="49.94012" lon="2.20993">
        <ele>30.7</ele>
        <time>2022-04-11T13:07:20Z</time>
      </trkpt>
      <trkpt lat="49.94012" lon="2.20993">
        <ele>30.7</ele>
        <time>2022-04-11T13:07:21Z</time>
      </trkpt>
      <trkpt lat="49.94012" lon="2.20993">
        <ele>30.7</ele>
        <time>2022-04-11T13:07:22Z</time>
      </trkpt>
      <trkpt lat="49.94012" lon="2.20993">
        <ele>30.7</ele>
        <time>2022-04-11T13:07:23Z</time>
      </trkpt>
      <trkpt lat="49.94012" lon="2.20993">
        <ele>30.7</ele>
        <time>2022-04-11T13:07:24Z</time>
      </trkpt>
      <trkpt lat="49.94012" lon="2.20993">
        <ele>30.7</ele>
        <time>2022-04-11T13:07:25Z</time>
      </trkpt>
      <trkpt lat="49.94012" lon="2.20993">
        <ele>30.7</ele>
        <time>2022-04-11T13:07:26Z</time>
      </trkpt>
      <trkpt lat="49.94012" lon="2.20993">
        <ele>30.7</ele>
        <time>2022-04-11T13:07:27Z</time>
      </trkpt>
      <trkpt lat="49.94012" lon="2.20993">
        <ele>30.7</ele>
        <time>2022-04-11T13:07:28Z</time>
      </trkpt>
      <trkpt lat="49.94012" lon="2.20993">
        <ele>30.7</ele>
        <time>2022-04-11T13:07:29Z</time>
      </trkpt>
      <trkpt lat="49.94012" lon="2.20993">
        <ele>30.7</ele>
        <time>2022-04-11T13:07:30Z</time>
      </trkpt>
      <trkpt lat="49.94012" lon="2.20993">
        <ele>30.7</ele>
        <time>2022-04-11T13:07:31Z</time>
      </trkpt>
      <trkpt lat="49.94012" lon="2.20993">
        <ele>30.7</ele>
        <time>2022-04-11T13:07:32Z</time>
      </trkpt>
      <trkpt lat="49.94012" lon="2.20993">
        <ele>30.7</ele>
        <time>2022-04-11T13:07:33Z</time>
      </trkpt>
      <trkpt lat="49.94012" lon="2.20993">
        <ele>30.7</ele>
        <time>2022-04-11T13:07:34Z</time>
      </trkpt>
      <trkpt lat="49.94012" lon="2.20993">
        <ele>30.7</ele>
        <time>2022-04-11T13:07:35Z</time>
      </trkpt>
      <trkpt lat="49.94012" lon="2.20993">
        <ele>30.7</ele>
        <time>2022-04-11T13:07:36Z</time>
      </trkpt>
      <trkpt lat="49.94012" lon="2.20993">
        <ele>30.7</ele>
        <time>2022-04-11T13:07:37Z</time>
      </trkpt>
      <trkpt lat="49.94012" lon="2.20993">
        <ele>30.7</ele>
        <time>2022-04-11T13:07:38Z</time>
      </trkpt>
      <trkpt lat="49.94012" lon="2.20993">
        <ele>30.7</ele>
        <time>2022-04-11T13:07:39Z</time>
      </trkpt>
      <trkpt lat="49.94012" lon="2.20993">
        <ele>30.7</ele>
        <time>2022-04-11T13:07:40Z</time>
      </trkpt>
      <trkpt lat="49.94012" lon="2.20993">
        <ele>30.7</ele>
        <time>2022-04-11T13:07:41Z</time>
      </trkpt>
      <trkpt lat="49.94012" lon="2.20993">
        <ele>30.7</ele>
        <time>2022-04-11T13:07:42Z</time>
      </trkpt>
      <trkpt lat="49.94012" lon="2.20993">
        <ele>30.7</ele>
        <time>2022-04-11T13:07:43Z</time>
      </trkpt>
      <trkpt lat="49.94012" lon="2.20993">
        <ele>30.7</ele>
        <time>2022-04-11T13:07:44Z</time>
      </trkpt>
      <trkpt lat="49.94012" lon="2.20993">
        <ele>30.7</ele>
        <time>2022-04-11T13:07:45Z</time>
      </trkpt>
      <trkpt lat="49.94012" lon="2.20993">
        <ele>30.7</ele>
        <time>2022-04-11T13:07:46Z</time>
      </trkpt>
      <trkpt lat="49.94012" lon="2.20993">
        <ele>30.7</ele>
        <time>2022-04-11T13:07:47Z</time>
      </trkpt>
      <trkpt lat="49.94012" lon="2.20993">
        <ele>30.7</ele>
        <time>2022-04-11T13:07:48Z</time>
      </trkpt>
      <trkpt lat="49.94012" lon="2.20993">
        <ele>30.7</ele>
        <time>2022-04-11T13:07:49Z</time>
      </trkpt>
      <trkpt lat="49.94012" lon="2.20993">
        <ele>30.7</ele>
        <time>2022-04-11T13:07:50Z</time>
      </trkpt>
      <trkpt lat="49.94012" lon="2.20993">
        <ele>30.7</ele>
        <time>2022-04-11T13:07:51Z</time>
      </trkpt>
      <trkpt lat="49.94012" lon="2.20993">
        <ele>30.7</ele>
        <time>2022-04-11T13:07:52Z</time>
      </trkpt>
      <trkpt lat="49.94012" lon="2.20993">
        <ele>30.7</ele>
        <time>2022-04-11T13:07:53Z</time>
      </trkpt>
      <trkpt lat="49.94012" lon="2.20993">
        <ele>30.7</ele>
        <time>2022-04-11T13:07:54Z</time>
      </trkpt>
      <trkpt lat="49.94012" lon="2.20993">
        <ele>30.7</ele>
        <time>2022-04-11T13:07:55Z</time>
      </trkpt>
      <trkpt lat="49.94012" lon="2.20993">
        <ele>30.7</ele>
        <time>2022-04-11T13:07:56Z</time>
      </trkpt>
      <trkpt lat="49.94012" lon="2.20993">
        <ele>30.7</ele>
        <time>2022-04-11T13:07:57Z</time>
      </trkpt>
      <trkpt lat="49.94012" lon="2.20993">
        <ele>30.7</ele>
        <time>2022-04-11T13:07:58Z</time>
      </trkpt>
      <trkpt lat="49.94012" lon="2.20993">
        <ele>30.7</ele>
        <time>2022-04-11T13:07:59Z</time>
      </trkpt>
      <trkpt lat="49.94012" lon="2.20993">
        <ele>30.7</ele>
        <time>2022-04-11T13:08:00Z</time>
      </trkpt>
      <trkpt lat="49.94012" lon="2.20993">
        <ele>30.7</ele>
        <time>2022-04-11T13:08:01Z</time>
      </trkpt>
      <trkpt lat="49.94012" lon="2.20993">
        <ele>30.7</ele>
        <time>2022-04-11T13:08:02Z</time>
      </trkpt>
      <trkpt lat="49.94012" lon="2.20993">
        <ele>30.7</ele>
        <time>2022-04-11T13:08:03Z</time>
      </trkpt>
      <trkpt lat="49.94012" lon="2.20993">
        <ele>30.7</ele>
        <time>2022-04-11T13:08:04Z</time>
      </trkpt>
      <trkpt lat="49.94012" lon="2.20993">
        <ele>30.7</ele>
        <time>2022-04-11T13:08:05Z</time>
      </trkpt>
      <trkpt lat="49.94012" lon="2.20993">
        <ele>30.7</ele>
        <time>2022-04-11T13:08:06Z</time>
      </trkpt>
      <trkpt lat="49.94012" lon="2.20993">
        <ele>30.7</ele>
        <time>2022-04-11T13:08:07Z</time>
      </trkpt>
      <trkpt lat="49.94012" lon="2.20993">
        <ele>30.7</ele>
        <time>2022-04-11T13:08:08Z</time>
      </trkpt>
      <trkpt lat="49.94012" lon="2.20993">
        <ele>30.7</ele>
        <time>2022-04-11T13:08:09Z</time>
      </trkpt>
      <trkpt lat="49.94012" lon="2.20993">
        <ele>30.7</ele>
        <time>2022-04-11T13:08:10Z</time>
      </trkpt>
      <trkpt lat="49.94012" lon="2.20993">
        <ele>30.7</ele>
        <time>2022-04-11T13:08:11Z</time>
      </trkpt>
      <trkpt lat="49.94012" lon="2.20993">
        <ele>30.7</ele>
        <time>2022-04-11T13:08:12Z</time>
      </trkpt>
      <trkpt lat="49.94012" lon="2.20993">
        <ele>30.7</ele>
        <time>2022-04-11T13:08:13Z</time>
      </trkpt>
      <trkpt lat="49.94012" lon="2.20993">
        <ele>30.7</ele>
        <time>2022-04-11T13:08:14Z</time>
      </trkpt>
      <trkpt lat="49.94012" lon="2.20993">
        <ele>30.7</ele>
        <time>2022-04-11T13:08:15Z</time>
      </trkpt>
      <trkpt lat="49.94012" lon="2.20993">
        <ele>30.7</ele>
        <time>2022-04-11T13:08:16Z</time>
      </trkpt>
      <trkpt lat="49.94012" lon="2.20993">
        <ele>30.7</ele>
        <time>2022-04-11T13:08:17Z</time>
      </trkpt>
      <trkpt lat="49.94012" lon="2.20993">
        <ele>30.7</ele>
        <time>2022-04-11T13:08:18Z</time>
      </trkpt>
      <trkpt lat="49.94012" lon="2.20993">
        <ele>30.7</ele>
        <time>2022-04-11T13:08:19Z</time>
      </trkpt>
      <trkpt lat="49.94012" lon="2.20993">
        <ele>30.7</ele>
        <time>2022-04-11T13:08:20Z</time>
      </trkpt>
      <trkpt lat="49.94012" lon="2.20993">
        <ele>30.7</ele>
        <time>2022-04-11T13:08:21Z</time>
      </trkpt>
      <trkpt lat="49.94012" lon="2.20993">
        <ele>30.7</ele>
        <time>2022-04-11T13:08:22Z</time>
      </trkpt>
      <trkpt lat="49.94012" lon="2.20993">
        <ele>30.7</ele>
        <time>2022-04-11T13:08:23Z</time>
      </trkpt>
      <trkpt lat="49.94012" lon="2.20993">
        <ele>30.7</ele>
        <time>2022-04-11T13:08:24Z</time>
      </trkpt>
      <trkpt lat="49.94012" lon="2.20993">
        <ele>30.7</ele>
        <time>2022-04-11T13:08:25Z</time>
      </trkpt>
      <trkpt lat="49.94012" lon="2.20993">
        <ele>30.7</ele>
        <time>2022-04-11T13:08:26Z</time>
      </trkpt>
      <trkpt lat="49.94012" lon="2.20993">
        <ele>30.7</ele>
        <time>2022-04-11T13:08:27Z</time>
      </trkpt>
      <trkpt lat="49.94012" lon="2.20993">
        <ele>30.7</ele>
        <time>2022-04-11T13:08:28Z</time>
      </trkpt>
      <trkpt lat="49.94012" lon="2.20993">
        <ele>30.7</ele>
        <time>2022-04-11T13:08:29Z</time>
      </trkpt>
      <trkpt lat="49.94012" lon="2.20993">
        <ele>30.7</ele>
        <time>2022-04-11T13:08:30Z</time>
      </trkpt>
      <trkpt lat="49.94012" lon="2.20993">
        <ele>30.7</ele>
        <time>2022-04-11T13:08:31Z</time>
      </trkpt>
      <trkpt lat="49.94012" lon="2.20993">
        <ele>30.7</ele>
        <time>2022-04-11T13:08:32Z</time>
      </trkpt>
      <trkpt lat="49.94012" lon="2.20993">
        <ele>30.7</ele>
        <time>2022-04-11T13:08:33Z</time>
      </trkpt>
      <trkpt lat="49.94012" lon="2.20993">
        <ele>30.7</ele>
        <time>2022-04-11T13:08:34Z</time>
      </trkpt>
      <trkpt lat="49.94012" lon="2.20993">
        <ele>30.7</ele>
        <time>2022-04-11T13:08:35Z</time>
      </trkpt>
      <trkpt lat="49.94012" lon="2.20993">
        <ele>30.7</ele>
        <time>2022-04-11T13:08:36Z</time>
      </trkpt>
      <trkpt lat="49.94012" lon="2.20993">
        <ele>30.7</ele>
        <time>2022-04-11T13:08:37Z</time>
      </trkpt>
      <trkpt lat="49.94012" lon="2.20993">
        <ele>30.7</ele>
        <time>2022-04-11T13:08:38Z</time>
      </trkpt>
      <trkpt lat="49.94012" lon="2.20993">
        <ele>30.7</ele>
        <time>2022-04-11T13:08:39Z</time>
      </trkpt>
      <trkpt lat="49.94012" lon="2.20993">
        <ele>30.7</ele>
        <time>2022-04-11T13:08:40Z</time>
      </trkpt>
      <trkpt lat="49.94012" lon="2.20993">
        <ele>30.7</ele>
        <time>2022-04-11T13:08:41Z</time>
      </trkpt>
      <trkpt lat="49.94012" lon="2.20993">
        <ele>30.7</ele>
        <time>2022-04-11T13:08:42Z</time>
      </trkpt>
      <trkpt lat="49.94012" lon="2.20993">
        <ele>30.7</ele>
        <time>2022-04-11T13:08:43Z</time>
      </trkpt>
      <trkpt lat="49.94012" lon="2.20993">
        <ele>30.7</ele>
        <time>2022-04-11T13:08:44Z</time>
      </trkpt>
      <trkpt lat="49.94012" lon="2.20993">
        <ele>30.7</ele>
        <time>2022-04-11T13:08:45Z</time>
      </trkpt>
      <trkpt lat="49.94012" lon="2.20993">
        <ele>30.7</ele>
        <time>2022-04-11T13:08:46Z</time>
      </trkpt>
      <trkpt lat="49.94012" lon="2.20993">
        <ele>30.7</ele>
        <time>2022-04-11T13:08:47Z</time>
      </trkpt>
      <trkpt lat="49.94012" lon="2.20993">
        <ele>30.7</ele>
        <time>2022-04-11T13:08:48Z</time>
      </trkpt>
      <trkpt lat="49.94012" lon="2.20993">
        <ele>30.7</ele>
        <time>2022-04-11T13:08:49Z</time>
      </trkpt>
      <trkpt lat="49.94012" lon="2.20993">
        <ele>30.7</ele>
        <time>2022-04-11T13:08:50Z</time>
      </trkpt>
      <trkpt lat="49.94012" lon="2.20993">
        <ele>30.7</ele>
        <time>2022-04-11T13:08:51Z</time>
      </trkpt>
      <trkpt lat="49.94012" lon="2.20993">
        <ele>30.7</ele>
        <time>2022-04-11T13:08:52Z</time>
      </trkpt>
      <trkpt lat="49.94012" lon="2.20993">
        <ele>30.7</ele>
        <time>2022-04-11T13:08:53Z</time>
      </trkpt>
      <trkpt lat="49.94012" lon="2.20993">
        <ele>30.7</ele>
        <time>2022-04-11T13:08:54Z</time>
      </trkpt>
      <trkpt lat="49.94012" lon="2.20993">
        <ele>30.7</ele>
        <time>2022-04-11T13:08:55Z</time>
      </trkpt>
      <trkpt lat="49.94012" lon="2.20993">
        <ele>30.7</ele>
        <time>2022-04-11T13:08:56Z</time>
      </trkpt>
      <trkpt lat="49.94012" lon="2.20993">
        <ele>30.7</ele>
        <time>2022-04-11T13:08:57Z</time>
      </trkpt>
      <trkpt lat="49.94012" lon="2.20993">
        <ele>30.7</ele>
        <time>2022-04-11T13:08:58Z</time>
      </trkpt>
      <trkpt lat="49.94012" lon="2.20993">
        <ele>30.7</ele>
        <time>2022-04-11T13:08:59Z</time>
      </trkpt>
      <trkpt lat="49.94012" lon="2.20993">
        <ele>30.7</ele>
        <time>2022-04-11T13:09:00Z</time>
      </trkpt>
      <trkpt lat="49.94012" lon="2.20993">
        <ele>30.7</ele>
        <time>2022-04-11T13:09:01Z</time>
      </trkpt>
      <trkpt lat="49.94012" lon="2.20993">
        <ele>30.7</ele>
        <time>2022-04-11T13:09:02Z</time>
      </trkpt>
      <trkpt lat="49.94012" lon="2.20993">
        <ele>30.7</ele>
        <time>2022-04-11T13:09:03Z</time>
      </trkpt>
      <trkpt lat="49.94012" lon="2.20993">
        <ele>30.7</ele>
        <time>2022-04-11T13:09:04Z</time>
      </trkpt>
      <trkpt lat="49.94012" lon="2.20993">
        <ele>30.7</ele>
        <time>2022-04-11T13:09:05Z</time>
      </trkpt>
      <trkpt lat="49.94012" lon="2.20993">
        <ele>30.7</ele>
        <time>2022-04-11T13:09:06Z</time>
      </trkpt>
      <trkpt lat="49.94012" lon="2.20993">
        <ele>30.7</ele>
        <time>2022-04-11T13:09:07Z</time>
      </trkpt>
      <trkpt lat="49.94012" lon="2.20993">
        <ele>30.7</ele>
        <time>2022-04-11T13:09:08Z</time>
      </trkpt>
      <trkpt lat="49.94012" lon="2.20993">
        <ele>30.7</ele>
        <time>2022-04-11T13:09:09Z</time>
      </trkpt>
      <trkpt lat="49.94012" lon="2.20993">
        <ele>30.7</ele>
        <time>2022-04-11T13:09:10Z</time>
      </trkpt>
      <trkpt lat="49.94012" lon="2.20993">
        <ele>30.7</ele>
        <time>2022-04-11T13:09:11Z</time>
      </trkpt>
      <trkpt lat="49.94012" lon="2.20993">
        <ele>30.7</ele>
        <time>2022-04-11T13:09:12Z</time>
      </trkpt>
      <trkpt lat="49.94012" lon="2.20993">
        <ele>30.7</ele>
        <time>2022-04-11T13:09:13Z</time>
      </trkpt>
      <trkpt lat="49.94012" lon="2.20993">
        <ele>30.7</ele>
        <time>2022-04-11T13:09:14Z</time>
      </trkpt>
      <trkpt lat="49.94012" lon="2.20993">
        <ele>30.7</ele>
        <time>2022-04-11T13:09:15Z</time>
      </trkpt>
      <trkpt lat="49.94012" lon="2.20993">
        <ele>30.7</ele>
        <time>2022-04-11T13:09:16Z</time>
      </trkpt>
      <trkpt lat="49.94012" lon="2.20993">
        <ele>30.7</ele>
        <time>2022-04-11T13:09:17Z</time>
      </trkpt>
      <trkpt lat="49.94012" lon="2.20993">
        <ele>30.7</ele>
        <time>2022-04-11T13:09:18Z</time>
      </trkpt>
      <trkpt lat="49.94012" lon="2.20993">
        <ele>30.7</ele>
        <time>2022-04-11T13:09:19Z</time>
      </trkpt>
      <trkpt lat="49.94012" lon="2.20993">
        <ele>30.7</ele>
        <time>2022-04-11T13:09:20Z</time>
      </trkpt>
      <trkpt lat="49.94012" lon="2.20993">
        <ele>30.7</ele>
        <time>2022-04-11T13:09:21Z</time>
      </trkpt>
      <trkpt lat="49.94012" lon="2.20993">
        <ele>30.7</ele>
        <time>2022-04-11T13:09:22Z</time>
      </trkpt>
      <trkpt lat="49.94012" lon="2.20993">
        <ele>30.7</ele>
        <time>2022-04-11T13:09:23Z</time>
      </trkpt>
      <trkpt lat="49.94012" lon="2.20993">
        <ele>30.7</ele>
        <time>2022-04-11T13:09:24Z</time>
      </trkpt>
      <trkpt lat="49.94012" lon="2.20993">
        <ele>30.7</ele>
        <time>2022-04-11T13:09:25Z</time>
      </trkpt>
      <trkpt lat="49.94012" lon="2.20993">
        <ele>30.7</ele>
        <time>2022-04-11T13:09:26Z</time>
      </trkpt>
      <trkpt lat="49.94012" lon="2.20993">
        <ele>30.7</ele>
        <time>2022-04-11T13:09:27Z</time>
      </trkpt>
      <trkpt lat="49.94012" lon="2.20993">
        <ele>30.7</ele>
        <time>2022-04-11T13:09:28Z</time>
      </trkpt>
      <trkpt lat="49.94012" lon="2.20993">
        <ele>30.7</ele>
        <time>2022-04-11T13:09:29Z</time>
      </trkpt>
      <trkpt lat="49.94012" lon="2.20993">
        <ele>30.7</ele>
        <time>2022-04-11T13:09:30Z</time>
      </trkpt>
      <trkpt lat="49.94012" lon="2.20993">
        <ele>30.7</ele>
        <time>2022-04-11T13:09:31Z</time>
      </trkpt>
      <trkpt lat="49.94012" lon="2.20993">
        <ele>30.7</ele>
        <time>2022-04-11T13:09:32Z</time>
      </trkpt>
      <trkpt lat="49.94012" lon="2.20993">
        <ele>30.7</ele>
        <time>2022-04-11T13:09:33Z</time>
      </trkpt>
      <trkpt lat="49.94012" lon="2.20993">
        <ele>30.7</ele>
        <time>2022-04-11T13:09:34Z</time>
      </trkpt>
      <trkpt lat="49.94012" lon="2.20993">
        <ele>30.7</ele>
        <time>2022-04-11T13:09:35Z</time>
      </trkpt>
      <trkpt lat="49.94012" lon="2.20993">
        <ele>30.7</ele>
        <time>2022-04-11T13:09:36Z</time>
      </trkpt>
      <trkpt lat="49.94012" lon="2.20993">
        <ele>30.7</ele>
        <time>2022-04-11T13:09:37Z</time>
      </trkpt>
      <trkpt lat="49.94012" lon="2.20993">
        <ele>30.7</ele>
        <time>2022-04-11T13:09:38Z</time>
      </trkpt>
      <trkpt lat="49.94012" lon="2.20993">
        <ele>30.7</ele>
        <time>2022-04-11T13:09:39Z</time>
      </trkpt>
      <trkpt lat="49.94012" lon="2.20993">
        <ele>30.7</ele>
        <time>2022-04-11T13:09:40Z</time>
      </trkpt>
      <trkpt lat="49.94012" lon="2.20993">
        <ele>30.7</ele>
        <time>2022-04-11T13:09:41Z</time>
      </trkpt>
      <trkpt lat="49.94012" lon="2.20993">
        <ele>30.7</ele>
        <time>2022-04-11T13:09:42Z</time>
      </trkpt>
      <trkpt lat="49.94012" lon="2.20993">
        <ele>30.7</ele>
        <time>2022-04-11T13:09:43Z</time>
      </trkpt>
      <trkpt lat="49.94012" lon="2.20993">
        <ele>30.7</ele>
        <time>2022-04-11T13:09:44Z</time>
      </trkpt>
      <trkpt lat="49.94012" lon="2.20993">
        <ele>30.7</ele>
        <time>2022-04-11T13:09:45Z</time>
      </trkpt>
      <trkpt lat="49.94012" lon="2.20993">
        <ele>30.7</ele>
        <time>2022-04-11T13:09:46Z</time>
      </trkpt>
      <trkpt lat="49.94012" lon="2.20993">
        <ele>30.7</ele>
        <time>2022-04-11T13:09:47Z</time>
      </trkpt>
      <trkpt lat="49.94012" lon="2.20993">
        <ele>30.7</ele>
        <time>2022-04-11T13:09:48Z</time>
      </trkpt>
      <trkpt lat="49.94012" lon="2.20993">
        <ele>30.7</ele>
        <time>2022-04-11T13:09:49Z</time>
      </trkpt>
      <trkpt lat="49.94012" lon="2.20993">
        <ele>30.7</ele>
        <time>2022-04-11T13:09:50Z</time>
      </trkpt>
      <trkpt lat="49.94012" lon="2.20993">
        <ele>30.7</ele>
        <time>2022-04-11T13:09:51Z</time>
      </trkpt>
      <trkpt lat="49.94012" lon="2.20993">
        <ele>30.7</ele>
        <time>2022-04-11T13:09:52Z</time>
      </trkpt>
      <trkpt lat="49.94012" lon="2.20993">
        <ele>30.7</ele>
        <time>2022-04-11T13:09:53Z</time>
      </trkpt>
      <trkpt lat="49.94012" lon="2.20993">
        <ele>30.7</ele>
        <time>2022-04-11T13:09:54Z</time>
      </trkpt>
      <trkpt lat="49.94012" lon="2.20993">
        <ele>30.7</ele>
        <time>2022-04-11T13:09:55Z</time>
      </trkpt>
      <trkpt lat="49.94012" lon="2.20993">
        <ele>30.7</ele>
        <time>2022-04-11T13:09:56Z</time>
      </trkpt>
      <trkpt lat="49.94012" lon="2.20993">
        <ele>30.7</ele>
        <time>2022-04-11T13:09:57Z</time>
      </trkpt>
      <trkpt lat="49.94012" lon="2.20993">
        <ele>30.7</ele>
        <time>2022-04-11T13:09:58Z</time>
      </trkpt>
      <trkpt lat="49.94012" lon="2.20993">
        <ele>30.7</ele>
        <time>2022-04-11T13:09:59Z</time>
      </trkpt>
      <trkpt lat="49.94012" lon="2.20993">
        <ele>30.7</ele>
        <time>2022-04-11T13:10:00Z</time>
      </trkpt>
      <trkpt lat="49.94012" lon="2.20993">
        <ele>30.7</ele>
        <time>2022-04-11T13:10:01Z</time>
      </trkpt>
      <trkpt lat="49.94012" lon="2.20993">
        <ele>30.7</ele>
        <time>2022-04-11T13:10:02Z</time>
      </trkpt>
      <trkpt lat="49.94012" lon="2.20993">
        <ele>30.7</ele>
        <time>2022-04-11T13:10:03Z</time>
      </trkpt>
      <trkpt lat="49.94012" lon="2.20993">
        <ele>30.7</ele>
        <time>2022-04-11T13:10:04Z</time>
      </trkpt>
      <trkpt lat="49.94012" lon="2.20993">
        <ele>30.7</ele>
        <time>2022-04-11T13:10:05Z</time>
      </trkpt>
      <trkpt lat="49.94012" lon="2.20993">
        <ele>30.7</ele>
        <time>2022-04-11T13:10:06Z</time>
      </trkpt>
      <trkpt lat="49.94012" lon="2.20993">
        <ele>30.7</ele>
        <time>2022-04-11T13:10:07Z</time>
      </trkpt>
      <trkpt lat="49.94012" lon="2.20993">
        <ele>30.7</ele>
        <time>2022-04-11T13:10:08Z</time>
      </trkpt>
      <trkpt lat="49.94012" lon="2.20993">
        <ele>30.7</ele>
        <time>2022-04-11T13:10:09Z</time>
      </trkpt>
      <trkpt lat="49.94012" lon="2.20993">
        <ele>30.7</ele>
        <time>2022-04-11T13:10:10Z</time>
      </trkpt>
      <trkpt lat="49.94012" lon="2.20993">
        <ele>30.7</ele>
        <time>2022-04-11T13:10:11Z</time>
      </trkpt>
      <trkpt lat="49.94012" lon="2.20993">
        <ele>30.7</ele>
        <time>2022-04-11T13:10:12Z</time>
      </trkpt>
      <trkpt lat="49.94012" lon="2.20993">
        <ele>30.7</ele>
        <time>2022-04-11T13:10:13Z</time>
      </trkpt>
      <trkpt lat="49.94012" lon="2.20993">
        <ele>30.7</ele>
        <time>2022-04-11T13:10:14Z</time>
      </trkpt>
      <trkpt lat="49.94012" lon="2.20993">
        <ele>30.7</ele>
        <time>2022-04-11T13:10:15Z</time>
      </trkpt>
      <trkpt lat="49.94012" lon="2.20993">
        <ele>30.7</ele>
        <time>2022-04-11T13:10:16Z</time>
      </trkpt>
      <trkpt lat="49.94012" lon="2.20993">
        <ele>30.7</ele>
        <time>2022-04-11T13:10:17Z</time>
      </trkpt>
      <trkpt lat="49.94012" lon="2.20993">
        <ele>30.7</ele>
        <time>2022-04-11T13:10:18Z</time>
      </trkpt>
      <trkpt lat="49.94012" lon="2.20993">
        <ele>30.7</ele>
        <time>2022-04-11T13:10:19Z</time>
      </trkpt>
      <trkpt lat="49.94012" lon="2.20993">
        <ele>30.7</ele>
        <time>2022-04-11T13:10:20Z</time>
      </trkpt>
      <trkpt lat="49.94012" lon="2.20993">
        <ele>30.7</ele>
        <time>2022-04-11T13:10:21Z</time>
      </trkpt>
      <trkpt lat="49.94012" lon="2.20993">
        <ele>30.7</ele>
        <time>2022-04-11T13:10:22Z</time>
      </trkpt>
      <trkpt lat="49.94012" lon="2.20993">
        <ele>30.7</ele>
        <time>2022-04-11T13:10:23Z</time>
      </trkpt>
      <trkpt lat="49.94012" lon="2.20993">
        <ele>30.7</ele>
        <time>2022-04-11T13:10:24Z</time>
      </trkpt>
      <trkpt lat="49.94012" lon="2.20993">
        <ele>30.7</ele>
        <time>2022-04-11T13:10:25Z</time>
      </trkpt>
      <trkpt lat="49.94012" lon="2.20993">
        <ele>30.7</ele>
        <time>2022-04-11T13:10:26Z</time>
      </trkpt>
      <trkpt lat="49.94012" lon="2.20993">
        <ele>30.7</ele>
        <time>2022-04-11T13:10:27Z</time>
      </trkpt>
      <trkpt lat="49.94012" lon="2.20993">
        <ele>30.7</ele>
        <time>2022-04-11T13:10:28Z</time>
      </trkpt>
      <trkpt lat="49.94012" lon="2.20993">
        <ele>30.7</ele>
        <time>2022-04-11T13:10:29Z</time>
      </trkpt>
      <trkpt lat="49.94012" lon="2.20993">
        <ele>30.7</ele>
        <time>2022-04-11T13:10:30Z</time>
      </trkpt>
      <trkpt lat="49.94012" lon="2.20993">
        <ele>30.7</ele>
        <time>2022-04-11T13:10:31Z</time>
      </trkpt>
      <trkpt lat="49.94012" lon="2.20993">
        <ele>30.7</ele>
        <time>2022-04-11T13:10:32Z</time>
      </trkpt>
      <trkpt lat="49.94012" lon="2.20993">
        <ele>30.7</ele>
        <time>2022-04-11T13:10:33Z</time>
      </trkpt>
      <trkpt lat="49.94012" lon="2.20993">
        <ele>30.7</ele>
        <time>2022-04-11T13:10:34Z</time>
      </trkpt>
      <trkpt lat="49.94012" lon="2.20993">
        <ele>30.7</ele>
        <time>2022-04-11T13:10:35Z</time>
      </trkpt>
      <trkpt lat="49.94012" lon="2.20993">
        <ele>30.7</ele>
        <time>2022-04-11T13:10:36Z</time>
      </trkpt>
      <trkpt lat="49.94012" lon="2.20993">
        <ele>30.7</ele>
        <time>2022-04-11T13:10:37Z</time>
      </trkpt>
      <trkpt lat="49.94012" lon="2.20993">
        <ele>30.7</ele>
        <time>2022-04-11T13:10:38Z</time>
      </trkpt>
      <trkpt lat="49.94012" lon="2.20993">
        <ele>30.7</ele>
        <time>2022-04-11T13:10:39Z</time>
      </trkpt>
      <trkpt lat="49.94012" lon="2.20993">
        <ele>30.7</ele>
        <time>2022-04-11T13:10:40Z</time>
      </trkpt>
      <trkpt lat="49.94012" lon="2.20993">
        <ele>30.7</ele>
        <time>2022-04-11T13:10:41Z</time>
      </trkpt>
      <trkpt lat="49.94012" lon="2.20993">
        <ele>30.7</ele>
        <time>2022-04-11T13:10:42Z</time>
      </trkpt>
      <trkpt lat="49.94012" lon="2.20993">
        <ele>30.7</ele>
        <time>2022-04-11T13:10:43Z</time>
      </trkpt>
      <trkpt lat="49.94012" lon="2.20993">
        <ele>30.7</ele>
        <time>2022-04-11T13:10:44Z</time>
      </trkpt>
      <trkpt lat="49.94012" lon="2.20993">
        <ele>30.7</ele>
        <time>2022-04-11T13:10:45Z</time>
      </trkpt>
      <trkpt lat="49.94012" lon="2.20993">
        <ele>30.7</ele>
        <time>2022-04-11T13:10:46Z</time>
      </trkpt>
      <trkpt lat="49.94013" lon="2.20991">
        <ele>30.7</ele>
        <time>2022-04-11T13:10:47Z</time>
      </trkpt>
      <trkpt lat="49.94014" lon="2.20989">
        <ele>30.7</ele>
        <time>2022-04-11T13:10:48Z</time>
      </trkpt>
      <trkpt lat="49.94014" lon="2.20989">
        <ele>30.7</ele>
        <time>2022-04-11T13:10:49Z</time>
      </trkpt>
      <trkpt lat="49.94014" lon="2.20988">
        <ele>30.7</ele>
        <time>2022-04-11T13:10:50Z</time>
      </trkpt>
      <trkpt lat="49.94015" lon="2.20988">
        <ele>30.7</ele>
        <time>2022-04-11T13:10:51Z</time>
      </trkpt>
      <trkpt lat="49.94015" lon="2.20988">
        <ele>30.7</ele>
        <time>2022-04-11T13:10:52Z</time>
      </trkpt>
      <trkpt lat="49.94014" lon="2.20988">
        <ele>30.7</ele>
        <time>2022-04-11T13:10:53Z</time>
      </trkpt>
      <trkpt lat="49.94014" lon="2.20988">
        <ele>30.7</ele>
        <time>2022-04-11T13:10:54Z</time>
      </trkpt>
      <trkpt lat="49.94014" lon="2.20988">
        <ele>30.7</ele>
        <time>2022-04-11T13:10:55Z</time>
      </trkpt>
      <trkpt lat="49.94014" lon="2.20988">
        <ele>30.7</ele>
        <time>2022-04-11T13:10:56Z</time>
      </trkpt>
      <trkpt lat="49.94014" lon="2.20988">
        <ele>30.7</ele>
        <time>2022-04-11T13:10:57Z</time>
      </trkpt>
      <trkpt lat="49.94014" lon="2.20988">
        <ele>30.7</ele>
        <time>2022-04-11T13:10:58Z</time>
      </trkpt>
      <trkpt lat="49.94014" lon="2.20988">
        <ele>30.7</ele>
        <time>2022-04-11T13:10:59Z</time>
      </trkpt>
      <trkpt lat="49.94014" lon="2.20988">
        <ele>30.7</ele>
        <time>2022-04-11T13:11:00Z</time>
      </trkpt>
      <trkpt lat="49.94014" lon="2.20988">
        <ele>30.7</ele>
        <time>2022-04-11T13:11:01Z</time>
      </trkpt>
      <trkpt lat="49.94014" lon="2.20988">
        <ele>30.7</ele>
        <time>2022-04-11T13:11:02Z</time>
      </trkpt>
      <trkpt lat="49.94014" lon="2.20988">
        <ele>30.7</ele>
        <time>2022-04-11T13:11:03Z</time>
      </trkpt>
      <trkpt lat="49.94014" lon="2.20988">
        <ele>30.7</ele>
        <time>2022-04-11T13:11:04Z</time>
      </trkpt>
      <trkpt lat="49.94014" lon="2.20988">
        <ele>30.7</ele>
        <time>2022-04-11T13:11:05Z</time>
      </trkpt>
      <trkpt lat="49.94014" lon="2.20988">
        <ele>30.7</ele>
        <time>2022-04-11T13:11:06Z</time>
      </trkpt>
      <trkpt lat="49.94014" lon="2.20988">
        <ele>30.7</ele>
        <time>2022-04-11T13:11:07Z</time>
      </trkpt>
      <trkpt lat="49.94014" lon="2.20988">
        <ele>30.7</ele>
        <time>2022-04-11T13:11:08Z</time>
      </trkpt>
      <trkpt lat="49.94014" lon="2.20988">
        <ele>30.7</ele>
        <time>2022-04-11T13:11:09Z</time>
      </trkpt>
      <trkpt lat="49.94014" lon="2.20988">
        <ele>30.7</ele>
        <time>2022-04-11T13:11:10Z</time>
      </trkpt>
      <trkpt lat="49.94014" lon="2.20988">
        <ele>30.7</ele>
        <time>2022-04-11T13:11:11Z</time>
      </trkpt>
      <trkpt lat="49.94014" lon="2.20988">
        <ele>30.7</ele>
        <time>2022-04-11T13:11:12Z</time>
      </trkpt>
      <trkpt lat="49.94014" lon="2.20988">
        <ele>30.7</ele>
        <time>2022-04-11T13:11:13Z</time>
      </trkpt>
      <trkpt lat="49.94014" lon="2.20988">
        <ele>30.7</ele>
        <time>2022-04-11T13:11:14Z</time>
      </trkpt>
      <trkpt lat="49.94014" lon="2.20988">
        <ele>30.7</ele>
        <time>2022-04-11T13:11:15Z</time>
      </trkpt>
      <trkpt lat="49.94014" lon="2.20988">
        <ele>30.7</ele>
        <time>2022-04-11T13:11:16Z</time>
      </trkpt>
      <trkpt lat="49.94014" lon="2.20988">
        <ele>30.7</ele>
        <time>2022-04-11T13:11:17Z</time>
      </trkpt>
      <trkpt lat="49.94014" lon="2.20988">
        <ele>30.7</ele>
        <time>2022-04-11T13:11:18Z</time>
      </trkpt>
      <trkpt lat="49.94014" lon="2.20988">
        <ele>30.7</ele>
        <time>2022-04-11T13:11:19Z</time>
      </trkpt>
      <trkpt lat="49.94014" lon="2.20988">
        <ele>30.7</ele>
        <time>2022-04-11T13:11:20Z</time>
      </trkpt>
      <trkpt lat="49.94014" lon="2.20988">
        <ele>30.7</ele>
        <time>2022-04-11T13:11:21Z</time>
      </trkpt>
      <trkpt lat="49.94014" lon="2.20988">
        <ele>30.7</ele>
        <time>2022-04-11T13:11:22Z</time>
      </trkpt>
      <trkpt lat="49.94014" lon="2.20988">
        <ele>30.7</ele>
        <time>2022-04-11T13:11:23Z</time>
      </trkpt>
      <trkpt lat="49.94014" lon="2.20988">
        <ele>30.7</ele>
        <time>2022-04-11T13:11:24Z</time>
      </trkpt>
      <trkpt lat="49.94014" lon="2.20988">
        <ele>30.7</ele>
        <time>2022-04-11T13:11:25Z</time>
      </trkpt>
      <trkpt lat="49.94014" lon="2.20988">
        <ele>30.7</ele>
        <time>2022-04-11T13:11:26Z</time>
      </trkpt>
      <trkpt lat="49.94014" lon="2.20988">
        <ele>30.7</ele>
        <time>2022-04-11T13:11:27Z</time>
      </trkpt>
      <trkpt lat="49.94014" lon="2.20988">
        <ele>30.7</ele>
        <time>2022-04-11T13:11:28Z</time>
      </trkpt>
      <trkpt lat="49.94014" lon="2.20988">
        <ele>30.7</ele>
        <time>2022-04-11T13:11:29Z</time>
      </trkpt>
      <trkpt lat="49.94014" lon="2.20988">
        <ele>30.7</ele>
        <time>2022-04-11T13:11:30Z</time>
      </trkpt>
      <trkpt lat="49.94014" lon="2.20988">
        <ele>30.7</ele>
        <time>2022-04-11T13:11:31Z</time>
      </trkpt>
      <trkpt lat="49.94014" lon="2.20988">
        <ele>30.7</ele>
        <time>2022-04-11T13:11:32Z</time>
      </trkpt>
      <trkpt lat="49.94014" lon="2.20988">
        <ele>30.7</ele>
        <time>2022-04-11T13:11:33Z</time>
      </trkpt>
      <trkpt lat="49.94014" lon="2.20988">
        <ele>30.7</ele>
        <time>2022-04-11T13:11:34Z</time>
      </trkpt>
      <trkpt lat="49.94014" lon="2.20988">
        <ele>30.7</ele>
        <time>2022-04-11T13:11:35Z</time>
      </trkpt>
      <trkpt lat="49.94014" lon="2.20988">
        <ele>30.7</ele>
        <time>2022-04-11T13:11:36Z</time>
      </trkpt>
      <trkpt lat="49.94014" lon="2.20988">
        <ele>30.7</ele>
        <time>2022-04-11T13:11:37Z</time>
      </trkpt>
      <trkpt lat="49.94014" lon="2.20988">
        <ele>30.7</ele>
        <time>2022-04-11T13:11:38Z</time>
      </trkpt>
      <trkpt lat="49.94014" lon="2.20988">
        <ele>30.7</ele>
        <time>2022-04-11T13:11:39Z</time>
      </trkpt>
      <trkpt lat="49.94014" lon="2.20988">
        <ele>30.7</ele>
        <time>2022-04-11T13:11:40Z</time>
      </trkpt>
      <trkpt lat="49.94014" lon="2.20988">
        <ele>30.7</ele>
        <time>2022-04-11T13:11:41Z</time>
      </trkpt>
      <trkpt lat="49.94014" lon="2.20988">
        <ele>30.7</ele>
        <time>2022-04-11T13:11:42Z</time>
      </trkpt>
      <trkpt lat="49.94014" lon="2.20988">
        <ele>30.7</ele>
        <time>2022-04-11T13:11:43Z</time>
      </trkpt>
      <trkpt lat="49.94014" lon="2.20988">
        <ele>30.7</ele>
        <time>2022-04-11T13:11:44Z</time>
      </trkpt>
      <trkpt lat="49.94014" lon="2.20988">
        <ele>30.7</ele>
        <time>2022-04-11T13:11:45Z</time>
      </trkpt>
      <trkpt lat="49.94014" lon="2.20988">
        <ele>30.7</ele>
        <time>2022-04-11T13:11:46Z</time>
      </trkpt>
      <trkpt lat="49.94014" lon="2.20988">
        <ele>30.7</ele>
        <time>2022-04-11T13:11:47Z</time>
      </trkpt>
      <trkpt lat="49.94014" lon="2.20988">
        <ele>30.7</ele>
        <time>2022-04-11T13:11:48Z</time>
      </trkpt>
      <trkpt lat="49.94014" lon="2.20988">
        <ele>30.7</ele>
        <time>2022-04-11T13:11:49Z</time>
      </trkpt>
      <trkpt lat="49.94014" lon="2.20988">
        <ele>30.7</ele>
        <time>2022-04-11T13:11:50Z</time>
      </trkpt>
      <trkpt lat="49.94014" lon="2.20988">
        <ele>30.7</ele>
        <time>2022-04-11T13:11:51Z</time>
      </trkpt>
      <trkpt lat="49.94014" lon="2.20988">
        <ele>30.7</ele>
        <time>2022-04-11T13:11:52Z</time>
      </trkpt>
      <trkpt lat="49.94014" lon="2.20988">
        <ele>30.7</ele>
        <time>2022-04-11T13:11:53Z</time>
      </trkpt>
      <trkpt lat="49.94014" lon="2.20988">
        <ele>30.7</ele>
        <time>2022-04-11T13:11:54Z</time>
      </trkpt>
      <trkpt lat="49.94014" lon="2.20988">
        <ele>30.7</ele>
        <time>2022-04-11T13:11:55Z</time>
      </trkpt>
      <trkpt lat="49.94014" lon="2.20988">
        <ele>30.7</ele>
        <time>2022-04-11T13:11:56Z</time>
      </trkpt>
      <trkpt lat="49.94014" lon="2.20988">
        <ele>30.7</ele>
        <time>2022-04-11T13:11:57Z</time>
      </trkpt>
      <trkpt lat="49.94014" lon="2.20988">
        <ele>30.7</ele>
        <time>2022-04-11T13:11:58Z</time>
      </trkpt>
      <trkpt lat="49.94014" lon="2.20988">
        <ele>30.7</ele>
        <time>2022-04-11T13:11:59Z</time>
      </trkpt>
      <trkpt lat="49.94014" lon="2.20988">
        <ele>30.7</ele>
        <time>2022-04-11T13:12:00Z</time>
      </trkpt>
      <trkpt lat="49.94014" lon="2.20988">
        <ele>30.7</ele>
        <time>2022-04-11T13:12:01Z</time>
      </trkpt>
      <trkpt lat="49.94014" lon="2.20988">
        <ele>30.7</ele>
        <time>2022-04-11T13:12:02Z</time>
      </trkpt>
      <trkpt lat="49.94014" lon="2.20988">
        <ele>30.7</ele>
        <time>2022-04-11T13:12:03Z</time>
      </trkpt>
      <trkpt lat="49.94014" lon="2.20988">
        <ele>30.7</ele>
        <time>2022-04-11T13:12:04Z</time>
      </trkpt>
      <trkpt lat="49.94014" lon="2.20988">
        <ele>30.7</ele>
        <time>2022-04-11T13:12:05Z</time>
      </trkpt>
      <trkpt lat="49.94014" lon="2.20988">
        <ele>30.7</ele>
        <time>2022-04-11T13:12:06Z</time>
      </trkpt>
      <trkpt lat="49.94014" lon="2.20988">
        <ele>30.7</ele>
        <time>2022-04-11T13:12:07Z</time>
      </trkpt>
      <trkpt lat="49.94014" lon="2.20988">
        <ele>30.7</ele>
        <time>2022-04-11T13:12:08Z</time>
      </trkpt>
      <trkpt lat="49.94014" lon="2.20988">
        <ele>30.7</ele>
        <time>2022-04-11T13:12:09Z</time>
      </trkpt>
      <trkpt lat="49.94014" lon="2.20988">
        <ele>30.7</ele>
        <time>2022-04-11T13:12:10Z</time>
      </trkpt>
      <trkpt lat="49.94014" lon="2.20988">
        <ele>30.7</ele>
        <time>2022-04-11T13:12:11Z</time>
      </trkpt>
      <trkpt lat="49.94014" lon="2.20988">
        <ele>30.7</ele>
        <time>2022-04-11T13:12:12Z</time>
      </trkpt>
      <trkpt lat="49.94014" lon="2.20988">
        <ele>30.7</ele>
        <time>2022-04-11T13:12:13Z</time>
      </trkpt>
      <trkpt lat="49.94014" lon="2.20988">
        <ele>30.7</ele>
        <time>2022-04-11T13:12:14Z</time>
      </trkpt>
      <trkpt lat="49.94014" lon="2.20988">
        <ele>30.7</ele>
        <time>2022-04-11T13:12:15Z</time>
      </trkpt>
      <trkpt lat="49.94014" lon="2.20988">
        <ele>30.7</ele>
        <time>2022-04-11T13:12:16Z</time>
      </trkpt>
      <trkpt lat="49.94014" lon="2.20988">
        <ele>30.7</ele>
        <time>2022-04-11T13:12:17Z</time>
      </trkpt>
      <trkpt lat="49.94014" lon="2.20988">
        <ele>30.7</ele>
        <time>2022-04-11T13:12:18Z</time>
      </trkpt>
      <trkpt lat="49.94014" lon="2.20988">
        <ele>30.7</ele>
        <time>2022-04-11T13:12:19Z</time>
      </trkpt>
      <trkpt lat="49.94014" lon="2.20988">
        <ele>30.7</ele>
        <time>2022-04-11T13:12:20Z</time>
      </trkpt>
      <trkpt lat="49.94014" lon="2.20988">
        <ele>30.7</ele>
        <time>2022-04-11T13:12:21Z</time>
      </trkpt>
      <trkpt lat="49.94014" lon="2.20988">
        <ele>30.7</ele>
        <time>2022-04-11T13:12:22Z</time>
      </trkpt>
      <trkpt lat="49.94014" lon="2.20988">
        <ele>30.7</ele>
        <time>2022-04-11T13:12:23Z</time>
      </trkpt>
      <trkpt lat="49.94014" lon="2.20988">
        <ele>30.7</ele>
        <time>2022-04-11T13:12:24Z</time>
      </trkpt>
      <trkpt lat="49.94014" lon="2.20988">
        <ele>30.7</ele>
        <time>2022-04-11T13:12:25Z</time>
      </trkpt>
      <trkpt lat="49.94014" lon="2.20988">
        <ele>30.7</ele>
        <time>2022-04-11T13:12:26Z</time>
      </trkpt>
      <trkpt lat="49.94014" lon="2.20988">
        <ele>30.7</ele>
        <time>2022-04-11T13:12:27Z</time>
      </trkpt>
      <trkpt lat="49.94014" lon="2.20988">
        <ele>30.7</ele>
        <time>2022-04-11T13:12:28Z</time>
      </trkpt>
      <trkpt lat="49.94014" lon="2.20988">
        <ele>30.7</ele>
        <time>2022-04-11T13:12:29Z</time>
      </trkpt>
      <trkpt lat="49.94014" lon="2.20988">
        <ele>30.7</ele>
        <time>2022-04-11T13:12:30Z</time>
      </trkpt>
      <trkpt lat="49.94014" lon="2.20988">
        <ele>30.7</ele>
        <time>2022-04-11T13:12:31Z</time>
      </trkpt>
      <trkpt lat="49.94014" lon="2.20988">
        <ele>30.7</ele>
        <time>2022-04-11T13:12:32Z</time>
      </trkpt>
      <trkpt lat="49.94014" lon="2.20988">
        <ele>30.7</ele>
        <time>2022-04-11T13:12:33Z</time>
      </trkpt>
      <trkpt lat="49.94014" lon="2.20988">
        <ele>30.7</ele>
        <time>2022-04-11T13:12:34Z</time>
      </trkpt>
      <trkpt lat="49.94014" lon="2.20988">
        <ele>30.7</ele>
        <time>2022-04-11T13:12:35Z</time>
      </trkpt>
      <trkpt lat="49.94014" lon="2.20988">
        <ele>30.7</ele>
        <time>2022-04-11T13:12:36Z</time>
      </trkpt>
      <trkpt lat="49.94014" lon="2.20988">
        <ele>30.7</ele>
        <time>2022-04-11T13:12:37Z</time>
      </trkpt>
      <trkpt lat="49.94014" lon="2.20988">
        <ele>30.7</ele>
        <time>2022-04-11T13:12:38Z</time>
      </trkpt>
      <trkpt lat="49.94014" lon="2.20988">
        <ele>30.7</ele>
        <time>2022-04-11T13:12:39Z</time>
      </trkpt>
      <trkpt lat="49.94014" lon="2.20988">
        <ele>30.7</ele>
        <time>2022-04-11T13:12:40Z</time>
      </trkpt>
      <trkpt lat="49.94014" lon="2.20988">
        <ele>30.7</ele>
        <time>2022-04-11T13:12:41Z</time>
      </trkpt>
      <trkpt lat="49.94014" lon="2.20988">
        <ele>30.7</ele>
        <time>2022-04-11T13:12:42Z</time>
      </trkpt>
      <trkpt lat="49.94014" lon="2.20988">
        <ele>30.7</ele>
        <time>2022-04-11T13:12:43Z</time>
      </trkpt>
      <trkpt lat="49.94014" lon="2.20988">
        <ele>30.7</ele>
        <time>2022-04-11T13:12:44Z</time>
      </trkpt>
      <trkpt lat="49.94014" lon="2.20988">
        <ele>30.7</ele>
        <time>2022-04-11T13:12:45Z</time>
      </trkpt>
      <trkpt lat="49.94014" lon="2.20988">
        <ele>30.7</ele>
        <time>2022-04-11T13:12:46Z</time>
      </trkpt>
      <trkpt lat="49.94014" lon="2.20988">
        <ele>30.7</ele>
        <time>2022-04-11T13:12:47Z</time>
      </trkpt>
      <trkpt lat="49.94014" lon="2.20988">
        <ele>30.7</ele>
        <time>2022-04-11T13:12:48Z</time>
      </trkpt>
      <trkpt lat="49.94014" lon="2.20988">
        <ele>30.7</ele>
        <time>2022-04-11T13:12:49Z</time>
      </trkpt>
      <trkpt lat="49.94014" lon="2.20988">
        <ele>30.7</ele>
        <time>2022-04-11T13:12:50Z</time>
      </trkpt>
      <trkpt lat="49.94014" lon="2.20988">
        <ele>30.7</ele>
        <time>2022-04-11T13:12:51Z</time>
      </trkpt>
      <trkpt lat="49.94014" lon="2.20988">
        <ele>30.7</ele>
        <time>2022-04-11T13:12:52Z</time>
      </trkpt>
      <trkpt lat="49.94014" lon="2.20988">
        <ele>30.7</ele>
        <time>2022-04-11T13:12:53Z</time>
      </trkpt>
      <trkpt lat="49.94014" lon="2.20988">
        <ele>30.7</ele>
        <time>2022-04-11T13:12:54Z</time>
      </trkpt>
      <trkpt lat="49.94014" lon="2.20988">
        <ele>30.7</ele>
        <time>2022-04-11T13:12:55Z</time>
      </trkpt>
      <trkpt lat="49.94014" lon="2.20988">
        <ele>30.7</ele>
        <time>2022-04-11T13:12:56Z</time>
      </trkpt>
      <trkpt lat="49.94014" lon="2.20988">
        <ele>30.7</ele>
        <time>2022-04-11T13:12:57Z</time>
      </trkpt>
      <trkpt lat="49.94014" lon="2.20988">
        <ele>30.7</ele>
        <time>2022-04-11T13:12:58Z</time>
      </trkpt>
      <trkpt lat="49.94014" lon="2.20988">
        <ele>30.7</ele>
        <time>2022-04-11T13:12:59Z</time>
      </trkpt>
      <trkpt lat="49.94014" lon="2.20988">
        <ele>30.7</ele>
        <time>2022-04-11T13:13:00Z</time>
      </trkpt>
      <trkpt lat="49.94014" lon="2.20988">
        <ele>30.7</ele>
        <time>2022-04-11T13:13:01Z</time>
      </trkpt>
      <trkpt lat="49.94014" lon="2.20988">
        <ele>30.7</ele>
        <time>2022-04-11T13:13:02Z</time>
      </trkpt>
      <trkpt lat="49.94014" lon="2.20988">
        <ele>30.7</ele>
        <time>2022-04-11T13:13:03Z</time>
      </trkpt>
      <trkpt lat="49.94014" lon="2.20988">
        <ele>30.7</ele>
        <time>2022-04-11T13:13:04Z</time>
      </trkpt>
      <trkpt lat="49.94014" lon="2.20988">
        <ele>30.7</ele>
        <time>2022-04-11T13:13:05Z</time>
      </trkpt>
      <trkpt lat="49.94014" lon="2.20988">
        <ele>30.7</ele>
        <time>2022-04-11T13:13:06Z</time>
      </trkpt>
      <trkpt lat="49.94014" lon="2.20988">
        <ele>30.7</ele>
        <time>2022-04-11T13:13:07Z</time>
      </trkpt>
      <trkpt lat="49.94014" lon="2.20988">
        <ele>30.7</ele>
        <time>2022-04-11T13:13:08Z</time>
      </trkpt>
      <trkpt lat="49.94014" lon="2.20988">
        <ele>30.7</ele>
        <time>2022-04-11T13:13:09Z</time>
      </trkpt>
      <trkpt lat="49.94014" lon="2.20988">
        <ele>30.7</ele>
        <time>2022-04-11T13:13:10Z</time>
      </trkpt>
      <trkpt lat="49.94014" lon="2.20988">
        <ele>30.7</ele>
        <time>2022-04-11T13:13:11Z</time>
      </trkpt>
      <trkpt lat="49.94014" lon="2.20988">
        <ele>30.7</ele>
        <time>2022-04-11T13:13:12Z</time>
      </trkpt>
      <trkpt lat="49.94014" lon="2.20988">
        <ele>30.7</ele>
        <time>2022-04-11T13:13:13Z</time>
      </trkpt>
      <trkpt lat="49.94014" lon="2.20988">
        <ele>30.7</ele>
        <time>2022-04-11T13:13:14Z</time>
      </trkpt>
      <trkpt lat="49.94014" lon="2.20988">
        <ele>30.7</ele>
        <time>2022-04-11T13:13:15Z</time>
      </trkpt>
      <trkpt lat="49.94014" lon="2.20988">
        <ele>30.7</ele>
        <time>2022-04-11T13:13:16Z</time>
      </trkpt>
      <trkpt lat="49.94014" lon="2.20988">
        <ele>30.7</ele>
        <time>2022-04-11T13:13:17Z</time>
      </trkpt>
      <trkpt lat="49.94014" lon="2.20988">
        <ele>30.7</ele>
        <time>2022-04-11T13:13:18Z</time>
      </trkpt>
      <trkpt lat="49.94014" lon="2.20988">
        <ele>30.7</ele>
        <time>2022-04-11T13:13:19Z</time>
      </trkpt>
      <trkpt lat="49.94014" lon="2.20988">
        <ele>30.7</ele>
        <time>2022-04-11T13:13:20Z</time>
      </trkpt>
      <trkpt lat="49.94014" lon="2.20988">
        <ele>30.7</ele>
        <time>2022-04-11T13:13:21Z</time>
      </trkpt>
      <trkpt lat="49.94014" lon="2.20988">
        <ele>30.7</ele>
        <time>2022-04-11T13:13:22Z</time>
      </trkpt>
      <trkpt lat="49.94014" lon="2.20988">
        <ele>30.7</ele>
        <time>2022-04-11T13:13:23Z</time>
      </trkpt>
      <trkpt lat="49.94014" lon="2.20988">
        <ele>30.7</ele>
        <time>2022-04-11T13:13:24Z</time>
      </trkpt>
      <trkpt lat="49.94014" lon="2.20988">
        <ele>30.7</ele>
        <time>2022-04-11T13:13:25Z</time>
      </trkpt>
      <trkpt lat="49.94014" lon="2.20988">
        <ele>30.7</ele>
        <time>2022-04-11T13:13:26Z</time>
      </trkpt>
      <trkpt lat="49.94014" lon="2.20988">
        <ele>30.7</ele>
        <time>2022-04-11T13:13:27Z</time>
      </trkpt>
      <trkpt lat="49.94014" lon="2.20988">
        <ele>30.7</ele>
        <time>2022-04-11T13:13:28Z</time>
      </trkpt>
      <trkpt lat="49.94014" lon="2.20988">
        <ele>30.7</ele>
        <time>2022-04-11T13:13:29Z</time>
      </trkpt>
      <trkpt lat="49.94014" lon="2.20988">
        <ele>30.7</ele>
        <time>2022-04-11T13:13:30Z</time>
      </trkpt>
      <trkpt lat="49.94014" lon="2.20988">
        <ele>30.7</ele>
        <time>2022-04-11T13:13:31Z</time>
      </trkpt>
      <trkpt lat="49.94014" lon="2.20988">
        <ele>30.7</ele>
        <time>2022-04-11T13:13:32Z</time>
      </trkpt>
      <trkpt lat="49.94014" lon="2.20988">
        <ele>30.7</ele>
        <time>2022-04-11T13:13:33Z</time>
      </trkpt>
      <trkpt lat="49.94013" lon="2.20988">
        <ele>30.7</ele>
        <time>2022-04-11T13:13:34Z</time>
      </trkpt>
      <trkpt lat="49.94012" lon="2.20989">
        <ele>30.7</ele>
        <time>2022-04-11T13:13:35Z</time>
      </trkpt>
      <trkpt lat="49.94011" lon="2.20989">
        <ele>30.7</ele>
        <time>2022-04-11T13:13:36Z</time>
      </trkpt>
      <trkpt lat="49.94011" lon="2.20989">
        <ele>30.7</ele>
        <time>2022-04-11T13:13:37Z</time>
      </trkpt>
      <trkpt lat="49.94012" lon="2.20988">
        <ele>30.7</ele>
        <time>2022-04-11T13:13:38Z</time>
      </trkpt>
      <trkpt lat="49.94011" lon="2.20988">
        <ele>30.7</ele>
        <time>2022-04-11T13:13:39Z</time>
      </trkpt>
      <trkpt lat="49.94011" lon="2.20988">
        <ele>30.6</ele>
        <time>2022-04-11T13:13:40Z</time>
      </trkpt>
      <trkpt lat="49.9401" lon="2.20988">
        <ele>30.6</ele>
        <time>2022-04-11T13:13:41Z</time>
      </trkpt>
      <trkpt lat="49.9401" lon="2.20988">
        <ele>30.6</ele>
        <time>2022-04-11T13:13:43Z</time>
      </trkpt>
      <trkpt lat="49.9401" lon="2.20989">
        <ele>30.6</ele>
        <time>2022-04-11T13:13:44Z</time>
      </trkpt>
      <trkpt lat="49.94009" lon="2.20989">
        <ele>30.6</ele>
        <time>2022-04-11T13:13:45Z</time>
      </trkpt>
      <trkpt lat="49.94009" lon="2.2099">
        <ele>30.6</ele>
        <time>2022-04-11T13:13:46Z</time>
      </trkpt>
      <trkpt lat="49.94009" lon="2.2099">
        <ele>30.6</ele>
        <time>2022-04-11T13:13:47Z</time>
      </trkpt>
      <trkpt lat="49.94009" lon="2.2099">
        <ele>30.6</ele>
        <time>2022-04-11T13:13:48Z</time>
      </trkpt>
      <trkpt lat="49.94009" lon="2.2099">
        <ele>30.6</ele>
        <time>2022-04-11T13:13:49Z</time>
      </trkpt>
      <trkpt lat="49.94009" lon="2.2099">
        <ele>30.6</ele>
        <time>2022-04-11T13:13:50Z</time>
      </trkpt>
      <trkpt lat="49.94009" lon="2.2099">
        <ele>30.6</ele>
        <time>2022-04-11T13:13:51Z</time>
      </trkpt>
      <trkpt lat="49.94009" lon="2.20991">
        <ele>30.6</ele>
        <time>2022-04-11T13:13:52Z</time>
      </trkpt>
      <trkpt lat="49.9401" lon="2.20991">
        <ele>30.6</ele>
        <time>2022-04-11T13:13:53Z</time>
      </trkpt>
      <trkpt lat="49.9401" lon="2.20992">
        <ele>30.6</ele>
        <time>2022-04-11T13:13:54Z</time>
      </trkpt>
      <trkpt lat="49.94009" lon="2.20992">
        <ele>30.6</ele>
        <time>2022-04-11T13:13:55Z</time>
      </trkpt>
      <trkpt lat="49.94009" lon="2.20991">
        <ele>30.6</ele>
        <time>2022-04-11T13:13:56Z</time>
      </trkpt>
      <trkpt lat="49.94009" lon="2.20991">
        <ele>30.6</ele>
        <time>2022-04-11T13:13:57Z</time>
      </trkpt>
      <trkpt lat="49.94009" lon="2.20991">
        <ele>30.6</ele>
        <time>2022-04-11T13:13:58Z</time>
      </trkpt>
      <trkpt lat="49.94009" lon="2.20991">
        <ele>30.6</ele>
        <time>2022-04-11T13:13:59Z</time>
      </trkpt>
      <trkpt lat="49.94009" lon="2.20991">
        <ele>30.6</ele>
        <time>2022-04-11T13:14:00Z</time>
      </trkpt>
      <trkpt lat="49.94009" lon="2.20991">
        <ele>30.6</ele>
        <time>2022-04-11T13:14:02Z</time>
      </trkpt>
      <trkpt lat="49.94009" lon="2.20991">
        <ele>30.6</ele>
        <time>2022-04-11T13:14:03Z</time>
      </trkpt>
      <trkpt lat="49.94009" lon="2.20991">
        <ele>30.6</ele>
        <time>2022-04-11T13:14:04Z</time>
      </trkpt>
      <trkpt lat="49.94009" lon="2.20991">
        <ele>30.6</ele>
        <time>2022-04-11T13:14:05Z</time>
      </trkpt>
      <trkpt lat="49.94009" lon="2.20991">
        <ele>30.6</ele>
        <time>2022-04-11T13:14:06Z</time>
      </trkpt>
      <trkpt lat="49.94009" lon="2.20991">
        <ele>30.6</ele>
        <time>2022-04-11T13:14:07Z</time>
      </trkpt>
      <trkpt lat="49.94009" lon="2.20991">
        <ele>30.6</ele>
        <time>2022-04-11T13:14:08Z</time>
      </trkpt>
      <trkpt lat="49.94009" lon="2.20991">
        <ele>30.6</ele>
        <time>2022-04-11T13:14:09Z</time>
      </trkpt>
      <trkpt lat="49.94009" lon="2.20991">
        <ele>30.6</ele>
        <time>2022-04-11T13:14:10Z</time>
      </trkpt>
      <trkpt lat="49.94009" lon="2.20991">
        <ele>30.6</ele>
        <time>2022-04-11T13:14:11Z</time>
      </trkpt>
      <trkpt lat="49.94009" lon="2.20991">
        <ele>30.6</ele>
        <time>2022-04-11T13:14:12Z</time>
      </trkpt>
      <trkpt lat="49.94009" lon="2.20991">
        <ele>30.6</ele>
        <time>2022-04-11T13:14:13Z</time>
      </trkpt>
      <trkpt lat="49.94009" lon="2.20991">
        <ele>30.6</ele>
        <time>2022-04-11T13:14:14Z</time>
      </trkpt>
      <trkpt lat="49.94009" lon="2.2099">
        <ele>30.6</ele>
        <time>2022-04-11T13:14:15Z</time>
      </trkpt>
      <trkpt lat="49.94009" lon="2.2099">
        <ele>30.6</ele>
        <time>2022-04-11T13:14:16Z</time>
      </trkpt>
      <trkpt lat="49.94009" lon="2.2099">
        <ele>30.6</ele>
        <time>2022-04-11T13:14:17Z</time>
      </trkpt>
      <trkpt lat="49.94009" lon="2.2099">
        <ele>30.6</ele>
        <time>2022-04-11T13:14:18Z</time>
      </trkpt>
      <trkpt lat="49.94009" lon="2.2099">
        <ele>30.6</ele>
        <time>2022-04-11T13:14:20Z</time>
      </trkpt>
      <trkpt lat="49.94009" lon="2.2099">
        <ele>30.6</ele>
        <time>2022-04-11T13:14:21Z</time>
      </trkpt>
      <trkpt lat="49.94009" lon="2.2099">
        <ele>30.6</ele>
        <time>2022-04-11T13:14:22Z</time>
      </trkpt>
      <trkpt lat="49.94009" lon="2.2099">
        <ele>30.6</ele>
        <time>2022-04-11T13:14:23Z</time>
      </trkpt>
      <trkpt lat="49.94009" lon="2.2099">
        <ele>30.6</ele>
        <time>2022-04-11T13:14:24Z</time>
      </trkpt>
      <trkpt lat="49.94009" lon="2.2099">
        <ele>30.6</ele>
        <time>2022-04-11T13:14:25Z</time>
      </trkpt>
      <trkpt lat="49.94009" lon="2.2099">
        <ele>30.6</ele>
        <time>2022-04-11T13:14:26Z</time>
      </trkpt>
      <trkpt lat="49.94009" lon="2.2099">
        <ele>30.6</ele>
        <time>2022-04-11T13:14:27Z</time>
      </trkpt>
      <trkpt lat="49.94009" lon="2.2099">
        <ele>30.6</ele>
        <time>2022-04-11T13:14:28Z</time>
      </trkpt>
      <trkpt lat="49.9401" lon="2.2099">
        <ele>30.6</ele>
        <time>2022-04-11T13:14:29Z</time>
      </trkpt>
      <trkpt lat="49.9401" lon="2.2099">
        <ele>30.6</ele>
        <time>2022-04-11T13:14:30Z</time>
      </trkpt>
      <trkpt lat="49.9401" lon="2.2099">
        <ele>30.6</ele>
        <time>2022-04-11T13:14:31Z</time>
      </trkpt>
      <trkpt lat="49.9401" lon="2.2099">
        <ele>30.6</ele>
        <time>2022-04-11T13:14:32Z</time>
      </trkpt>
      <trkpt lat="49.9401" lon="2.2099">
        <ele>30.6</ele>
        <time>2022-04-11T13:14:33Z</time>
      </trkpt>
      <trkpt lat="49.9401" lon="2.2099">
        <ele>30.6</ele>
        <time>2022-04-11T13:14:34Z</time>
      </trkpt>
      <trkpt lat="49.9401" lon="2.2099">
        <ele>30.6</ele>
        <time>2022-04-11T13:14:35Z</time>
      </trkpt>
      <trkpt lat="49.9401" lon="2.2099">
        <ele>30.6</ele>
        <time>2022-04-11T13:14:36Z</time>
      </trkpt>
      <trkpt lat="49.9401" lon="2.2099">
        <ele>30.6</ele>
        <time>2022-04-11T13:14:37Z</time>
      </trkpt>
      <trkpt lat="49.9401" lon="2.2099">
        <ele>30.6</ele>
        <time>2022-04-11T13:14:38Z</time>
      </trkpt>
      <trkpt lat="49.9401" lon="2.20989">
        <ele>30.6</ele>
        <time>2022-04-11T13:14:39Z</time>
      </trkpt>
      <trkpt lat="49.9401" lon="2.20989">
        <ele>30.6</ele>
        <time>2022-04-11T13:14:40Z</time>
      </trkpt>
      <trkpt lat="49.9401" lon="2.20989">
        <ele>30.6</ele>
        <time>2022-04-11T13:14:41Z</time>
      </trkpt>
      <trkpt lat="49.9401" lon="2.20989">
        <ele>30.6</ele>
        <time>2022-04-11T13:14:42Z</time>
      </trkpt>
      <trkpt lat="49.9401" lon="2.20989">
        <ele>30.6</ele>
        <time>2022-04-11T13:14:43Z</time>
      </trkpt>
      <trkpt lat="49.9401" lon="2.20989">
        <ele>30.6</ele>
        <time>2022-04-11T13:14:44Z</time>
      </trkpt>
      <trkpt lat="49.9401" lon="2.20989">
        <ele>30.6</ele>
        <time>2022-04-11T13:14:45Z</time>
      </trkpt>
      <trkpt lat="49.9401" lon="2.20989">
        <ele>30.6</ele>
        <time>2022-04-11T13:14:46Z</time>
      </trkpt>
      <trkpt lat="49.9401" lon="2.20989">
        <ele>30.6</ele>
        <time>2022-04-11T13:14:47Z</time>
      </trkpt>
      <trkpt lat="49.9401" lon="2.20989">
        <ele>30.6</ele>
        <time>2022-04-11T13:14:48Z</time>
      </trkpt>
      <trkpt lat="49.9401" lon="2.20989">
        <ele>30.6</ele>
        <time>2022-04-11T13:14:49Z</time>
      </trkpt>
      <trkpt lat="49.9401" lon="2.20989">
        <ele>30.6</ele>
        <time>2022-04-11T13:14:50Z</time>
      </trkpt>
      <trkpt lat="49.9401" lon="2.20989">
        <ele>30.6</ele>
        <time>2022-04-11T13:14:51Z</time>
      </trkpt>
      <trkpt lat="49.9401" lon="2.20989">
        <ele>30.6</ele>
        <time>2022-04-11T13:14:52Z</time>
      </trkpt>
      <trkpt lat="49.9401" lon="2.20989">
        <ele>30.6</ele>
        <time>2022-04-11T13:14:53Z</time>
      </trkpt>
      <trkpt lat="49.9401" lon="2.20989">
        <ele>30.6</ele>
        <time>2022-04-11T13:14:54Z</time>
      </trkpt>
      <trkpt lat="49.9401" lon="2.20989">
        <ele>30.6</ele>
        <time>2022-04-11T13:14:55Z</time>
      </trkpt>
      <trkpt lat="49.9401" lon="2.20989">
        <ele>30.6</ele>
        <time>2022-04-11T13:14:56Z</time>
      </trkpt>
      <trkpt lat="49.9401" lon="2.20989">
        <ele>30.6</ele>
        <time>2022-04-11T13:14:57Z</time>
      </trkpt>
      <trkpt lat="49.9401" lon="2.20989">
        <ele>30.6</ele>
        <time>2022-04-11T13:14:58Z</time>
      </trkpt>
      <trkpt lat="49.9401" lon="2.20989">
        <ele>30.6</ele>
        <time>2022-04-11T13:14:59Z</time>
      </trkpt>
      <trkpt lat="49.9401" lon="2.20989">
        <ele>30.6</ele>
        <time>2022-04-11T13:15:00Z</time>
      </trkpt>
      <trkpt lat="49.9401" lon="2.20988">
        <ele>30.6</ele>
        <time>2022-04-11T13:15:01Z</time>
      </trkpt>
      <trkpt lat="49.9401" lon="2.20988">
        <ele>30.6</ele>
        <time>2022-04-11T13:15:02Z</time>
      </trkpt>
      <trkpt lat="49.9401" lon="2.20988">
        <ele>30.6</ele>
        <time>2022-04-11T13:15:03Z</time>
      </trkpt>
      <trkpt lat="49.9401" lon="2.20988">
        <ele>30.6</ele>
        <time>2022-04-11T13:15:04Z</time>
      </trkpt>
      <trkpt lat="49.9401" lon="2.20988">
        <ele>30.6</ele>
        <time>2022-04-11T13:15:05Z</time>
      </trkpt>
      <trkpt lat="49.9401" lon="2.20988">
        <ele>30.6</ele>
        <time>2022-04-11T13:15:06Z</time>
      </trkpt>
      <trkpt lat="49.94011" lon="2.20988">
        <ele>30.6</ele>
        <time>2022-04-11T13:15:07Z</time>
      </trkpt>
      <trkpt lat="49.94011" lon="2.20988">
        <ele>30.6</ele>
        <time>2022-04-11T13:15:08Z</time>
      </trkpt>
      <trkpt lat="49.94011" lon="2.20988">
        <ele>30.6</ele>
        <time>2022-04-11T13:15:09Z</time>
      </trkpt>
      <trkpt lat="49.94011" lon="2.20988">
        <ele>30.6</ele>
        <time>2022-04-11T13:15:10Z</time>
      </trkpt>
      <trkpt lat="49.94011" lon="2.20988">
        <ele>30.6</ele>
        <time>2022-04-11T13:15:11Z</time>
      </trkpt>
      <trkpt lat="49.94011" lon="2.20988">
        <ele>30.6</ele>
        <time>2022-04-11T13:15:12Z</time>
      </trkpt>
      <trkpt lat="49.94011" lon="2.20988">
        <ele>30.6</ele>
        <time>2022-04-11T13:15:13Z</time>
      </trkpt>
      <trkpt lat="49.94011" lon="2.20988">
        <ele>30.6</ele>
        <time>2022-04-11T13:15:14Z</time>
      </trkpt>
      <trkpt lat="49.94011" lon="2.20988">
        <ele>30.6</ele>
        <time>2022-04-11T13:15:15Z</time>
      </trkpt>
      <trkpt lat="49.94011" lon="2.20988">
        <ele>30.6</ele>
        <time>2022-04-11T13:15:16Z</time>
      </trkpt>
      <trkpt lat="49.94011" lon="2.20988">
        <ele>30.6</ele>
        <time>2022-04-11T13:15:17Z</time>
      </trkpt>
      <trkpt lat="49.94011" lon="2.20988">
        <ele>30.6</ele>
        <time>2022-04-11T13:15:18Z</time>
      </trkpt>
      <trkpt lat="49.94011" lon="2.20988">
        <ele>30.6</ele>
        <time>2022-04-11T13:15:19Z</time>
      </trkpt>
      <trkpt lat="49.94011" lon="2.20988">
        <ele>30.6</ele>
        <time>2022-04-11T13:15:20Z</time>
      </trkpt>
      <trkpt lat="49.94011" lon="2.20988">
        <ele>30.6</ele>
        <time>2022-04-11T13:15:21Z</time>
      </trkpt>
      <trkpt lat="49.94011" lon="2.20988">
        <ele>30.6</ele>
        <time>2022-04-11T13:15:22Z</time>
      </trkpt>
      <trkpt lat="49.94011" lon="2.20988">
        <ele>30.6</ele>
        <time>2022-04-11T13:15:23Z</time>
      </trkpt>
      <trkpt lat="49.94011" lon="2.20987">
        <ele>30.6</ele>
        <time>2022-04-11T13:15:24Z</time>
      </trkpt>
      <trkpt lat="49.94011" lon="2.20987">
        <ele>30.6</ele>
        <time>2022-04-11T13:15:25Z</time>
      </trkpt>
      <trkpt lat="49.94011" lon="2.20987">
        <ele>30.6</ele>
        <time>2022-04-11T13:15:26Z</time>
      </trkpt>
      <trkpt lat="49.94011" lon="2.20987">
        <ele>30.6</ele>
        <time>2022-04-11T13:15:27Z</time>
      </trkpt>
      <trkpt lat="49.94011" lon="2.20987">
        <ele>30.6</ele>
        <time>2022-04-11T13:15:28Z</time>
      </trkpt>
      <trkpt lat="49.94011" lon="2.20987">
        <ele>30.6</ele>
        <time>2022-04-11T13:15:29Z</time>
      </trkpt>
      <trkpt lat="49.94011" lon="2.20987">
        <ele>30.6</ele>
        <time>2022-04-11T13:15:30Z</time>
      </trkpt>
      <trkpt lat="49.94011" lon="2.20987">
        <ele>30.6</ele>
        <time>2022-04-11T13:15:31Z</time>
      </trkpt>
      <trkpt lat="49.94011" lon="2.20987">
        <ele>30.6</ele>
        <time>2022-04-11T13:15:32Z</time>
      </trkpt>
      <trkpt lat="49.94011" lon="2.20987">
        <ele>30.6</ele>
        <time>2022-04-11T13:15:33Z</time>
      </trkpt>
      <trkpt lat="49.94011" lon="2.20987">
        <ele>30.6</ele>
        <time>2022-04-11T13:15:34Z</time>
      </trkpt>
      <trkpt lat="49.94011" lon="2.20987">
        <ele>30.6</ele>
        <time>2022-04-11T13:15:35Z</time>
      </trkpt>
      <trkpt lat="49.94011" lon="2.20987">
        <ele>30.6</ele>
        <time>2022-04-11T13:15:36Z</time>
      </trkpt>
      <trkpt lat="49.94011" lon="2.20987">
        <ele>30.6</ele>
        <time>2022-04-11T13:15:37Z</time>
      </trkpt>
      <trkpt lat="49.94011" lon="2.20987">
        <ele>30.6</ele>
        <time>2022-04-11T13:15:38Z</time>
      </trkpt>
      <trkpt lat="49.94011" lon="2.20987">
        <ele>30.6</ele>
        <time>2022-04-11T13:15:39Z</time>
      </trkpt>
      <trkpt lat="49.94011" lon="2.20987">
        <ele>30.6</ele>
        <time>2022-04-11T13:15:40Z</time>
      </trkpt>
      <trkpt lat="49.94011" lon="2.20987">
        <ele>30.6</ele>
        <time>2022-04-11T13:15:41Z</time>
      </trkpt>
      <trkpt lat="49.94011" lon="2.20987">
        <ele>30.6</ele>
        <time>2022-04-11T13:15:42Z</time>
      </trkpt>
      <trkpt lat="49.94011" lon="2.20987">
        <ele>30.6</ele>
        <time>2022-04-11T13:15:43Z</time>
      </trkpt>
      <trkpt lat="49.94011" lon="2.20987">
        <ele>30.6</ele>
        <time>2022-04-11T13:15:44Z</time>
      </trkpt>
      <trkpt lat="49.94011" lon="2.20987">
        <ele>30.6</ele>
        <time>2022-04-11T13:15:45Z</time>
      </trkpt>
      <trkpt lat="49.94012" lon="2.20986">
        <ele>30.6</ele>
        <time>2022-04-11T13:15:46Z</time>
      </trkpt>
      <trkpt lat="49.94012" lon="2.20986">
        <ele>30.6</ele>
        <time>2022-04-11T13:15:47Z</time>
      </trkpt>
      <trkpt lat="49.94012" lon="2.20986">
        <ele>30.6</ele>
        <time>2022-04-11T13:15:48Z</time>
      </trkpt>
      <trkpt lat="49.94012" lon="2.20986">
        <ele>30.6</ele>
        <time>2022-04-11T13:15:49Z</time>
      </trkpt>
      <trkpt lat="49.94012" lon="2.20986">
        <ele>30.6</ele>
        <time>2022-04-11T13:15:50Z</time>
      </trkpt>
      <trkpt lat="49.94012" lon="2.20986">
        <ele>30.6</ele>
        <time>2022-04-11T13:15:51Z</time>
      </trkpt>
      <trkpt lat="49.94012" lon="2.20986">
        <ele>30.6</ele>
        <time>2022-04-11T13:15:52Z</time>
      </trkpt>
      <trkpt lat="49.94012" lon="2.20986">
        <ele>30.6</ele>
        <time>2022-04-11T13:15:53Z</time>
      </trkpt>
      <trkpt lat="49.94012" lon="2.20986">
        <ele>30.6</ele>
        <time>2022-04-11T13:15:54Z</time>
      </trkpt>
      <trkpt lat="49.94012" lon="2.20986">
        <ele>30.6</ele>
        <time>2022-04-11T13:15:55Z</time>
      </trkpt>
      <trkpt lat="49.94012" lon="2.20986">
        <ele>30.6</ele>
        <time>2022-04-11T13:15:56Z</time>
      </trkpt>
      <trkpt lat="49.94012" lon="2.20986">
        <ele>30.6</ele>
        <time>2022-04-11T13:15:57Z</time>
      </trkpt>
      <trkpt lat="49.94012" lon="2.20986">
        <ele>30.6</ele>
        <time>2022-04-11T13:15:58Z</time>
      </trkpt>
      <trkpt lat="49.94012" lon="2.20986">
        <ele>30.6</ele>
        <time>2022-04-11T13:15:59Z</time>
      </trkpt>
      <trkpt lat="49.94012" lon="2.20986">
        <ele>30.6</ele>
        <time>2022-04-11T13:16:00Z</time>
      </trkpt>
      <trkpt lat="49.94012" lon="2.20986">
        <ele>30.6</ele>
        <time>2022-04-11T13:16:01Z</time>
      </trkpt>
      <trkpt lat="49.94012" lon="2.20986">
        <ele>30.6</ele>
        <time>2022-04-11T13:16:02Z</time>
      </trkpt>
      <trkpt lat="49.94012" lon="2.20986">
        <ele>30.6</ele>
        <time>2022-04-11T13:16:03Z</time>
      </trkpt>
      <trkpt lat="49.94012" lon="2.20986">
        <ele>30.6</ele>
        <time>2022-04-11T13:16:04Z</time>
      </trkpt>
      <trkpt lat="49.94012" lon="2.20986">
        <ele>30.6</ele>
        <time>2022-04-11T13:16:05Z</time>
      </trkpt>
      <trkpt lat="49.94012" lon="2.20986">
        <ele>30.6</ele>
        <time>2022-04-11T13:16:06Z</time>
      </trkpt>
      <trkpt lat="49.94012" lon="2.20986">
        <ele>30.6</ele>
        <time>2022-04-11T13:16:07Z</time>
      </trkpt>
      <trkpt lat="49.94012" lon="2.20986">
        <ele>30.6</ele>
        <time>2022-04-11T13:16:08Z</time>
      </trkpt>
      <trkpt lat="49.94012" lon="2.20985">
        <ele>30.6</ele>
        <time>2022-04-11T13:16:09Z</time>
      </trkpt>
      <trkpt lat="49.94012" lon="2.20985">
        <ele>30.6</ele>
        <time>2022-04-11T13:16:10Z</time>
      </trkpt>
      <trkpt lat="49.94012" lon="2.20985">
        <ele>30.6</ele>
        <time>2022-04-11T13:16:11Z</time>
      </trkpt>
      <trkpt lat="49.94012" lon="2.20985">
        <ele>30.6</ele>
        <time>2022-04-11T13:16:12Z</time>
      </trkpt>
      <trkpt lat="49.94012" lon="2.20985">
        <ele>30.6</ele>
        <time>2022-04-11T13:16:13Z</time>
      </trkpt>
      <trkpt lat="49.94012" lon="2.20985">
        <ele>30.6</ele>
        <time>2022-04-11T13:16:15Z</time>
      </trkpt>
      <trkpt lat="49.94012" lon="2.20985">
        <ele>30.6</ele>
        <time>2022-04-11T13:16:16Z</time>
      </trkpt>
      <trkpt lat="49.94012" lon="2.20985">
        <ele>30.6</ele>
        <time>2022-04-11T13:16:17Z</time>
      </trkpt>
      <trkpt lat="49.94012" lon="2.20985">
        <ele>30.6</ele>
        <time>2022-04-11T13:16:18Z</time>
      </trkpt>
      <trkpt lat="49.94012" lon="2.20985">
        <ele>30.6</ele>
        <time>2022-04-11T13:16:20Z</time>
      </trkpt>
      <trkpt lat="49.94012" lon="2.20985">
        <ele>30.6</ele>
        <time>2022-04-11T13:16:21Z</time>
      </trkpt>
      <trkpt lat="49.94012" lon="2.20985">
        <ele>30.6</ele>
        <time>2022-04-11T13:16:22Z</time>
      </trkpt>
      <trkpt lat="49.94012" lon="2.20985">
        <ele>30.6</ele>
        <time>2022-04-11T13:16:23Z</time>
      </trkpt>
      <trkpt lat="49.94012" lon="2.20985">
        <ele>30.6</ele>
        <time>2022-04-11T13:16:25Z</time>
      </trkpt>
      <trkpt lat="49.94012" lon="2.20985">
        <ele>30.6</ele>
        <time>2022-04-11T13:16:26Z</time>
      </trkpt>
      <trkpt lat="49.94012" lon="2.20985">
        <ele>30.6</ele>
        <time>2022-04-11T13:16:28Z</time>
      </trkpt>
      <trkpt lat="49.94013" lon="2.20985">
        <ele>30.6</ele>
        <time>2022-04-11T13:16:29Z</time>
      </trkpt>
      <trkpt lat="49.94013" lon="2.20985">
        <ele>30.6</ele>
        <time>2022-04-11T13:16:31Z</time>
      </trkpt>
      <trkpt lat="49.94013" lon="2.20985">
        <ele>30.6</ele>
        <time>2022-04-11T13:16:32Z</time>
      </trkpt>
      <trkpt lat="49.94014" lon="2.20985">
        <ele>30.6</ele>
        <time>2022-04-11T13:16:33Z</time>
      </trkpt>
      <trkpt lat="49.94014" lon="2.20985">
        <ele>30.6</ele>
        <time>2022-04-11T13:16:34Z</time>
      </trkpt>
      <trkpt lat="49.94015" lon="2.20986">
        <ele>30.6</ele>
        <time>2022-04-11T13:16:35Z</time>
      </trkpt>
      <trkpt lat="49.94016" lon="2.20987">
        <ele>30.6</ele>
        <time>2022-04-11T13:16:36Z</time>
      </trkpt>
      <trkpt lat="49.94018" lon="2.20987">
        <ele>30.6</ele>
        <time>2022-04-11T13:16:37Z</time>
      </trkpt>
      <trkpt lat="49.94019" lon="2.20986">
        <ele>30.6</ele>
        <time>2022-04-11T13:16:38Z</time>
      </trkpt>
      <trkpt lat="49.9402" lon="2.20985">
        <ele>30.6</ele>
        <time>2022-04-11T13:16:39Z</time>
      </trkpt>
      <trkpt lat="49.94021" lon="2.20984">
        <ele>30.6</ele>
        <time>2022-04-11T13:16:40Z</time>
      </trkpt>
      <trkpt lat="49.94022" lon="2.20984">
        <ele>30.6</ele>
        <time>2022-04-11T13:16:41Z</time>
      </trkpt>
      <trkpt lat="49.94024" lon="2.20984">
        <ele>30.6</ele>
        <time>2022-04-11T13:16:43Z</time>
      </trkpt>
      <trkpt lat="49.94025" lon="2.20984">
        <ele>30.6</ele>
        <time>2022-04-11T13:16:44Z</time>
      </trkpt>
      <trkpt lat="49.94026" lon="2.20984">
        <ele>30.6</ele>
        <time>2022-04-11T13:16:45Z</time>
      </trkpt>
      <trkpt lat="49.94028" lon="2.20986">
        <ele>30.6</ele>
        <time>2022-04-11T13:16:46Z</time>
      </trkpt>
      <trkpt lat="49.94029" lon="2.20987">
        <ele>30.6</ele>
        <time>2022-04-11T13:16:47Z</time>
      </trkpt>
      <trkpt lat="49.94029" lon="2.20988">
        <ele>30.6</ele>
        <time>2022-04-11T13:16:48Z</time>
      </trkpt>
      <trkpt lat="49.9403" lon="2.20992">
        <ele>30.6</ele>
        <time>2022-04-11T13:16:49Z</time>
      </trkpt>
      <trkpt lat="49.9403" lon="2.20994">
        <ele>30.6</ele>
        <time>2022-04-11T13:16:50Z</time>
      </trkpt>
      <trkpt lat="49.9403" lon="2.20995">
        <ele>30.6</ele>
        <time>2022-04-11T13:16:52Z</time>
      </trkpt>
      <trkpt lat="49.9403" lon="2.20997">
        <ele>30.6</ele>
        <time>2022-04-11T13:16:53Z</time>
      </trkpt>
      <trkpt lat="49.94031" lon="2.20998">
        <ele>30.6</ele>
        <time>2022-04-11T13:16:54Z</time>
      </trkpt>
      <trkpt lat="49.94031" lon="2.21">
        <ele>30.6</ele>
        <time>2022-04-11T13:16:55Z</time>
      </trkpt>
      <trkpt lat="49.94031" lon="2.21003">
        <ele>30.8</ele>
        <time>2022-04-11T13:16:56Z</time>
      </trkpt>
      <trkpt lat="49.94033" lon="2.21007">
        <ele>31</ele>
        <time>2022-04-11T13:16:58Z</time>
      </trkpt>
      <trkpt lat="49.94033" lon="2.21009">
        <ele>31</ele>
        <time>2022-04-11T13:16:59Z</time>
      </trkpt>
      <trkpt lat="49.94034" lon="2.2101">
        <ele>31.1</ele>
        <time>2022-04-11T13:17:00Z</time>
      </trkpt>
      <trkpt lat="49.94034" lon="2.2101">
        <ele>31.2</ele>
        <time>2022-04-11T13:17:01Z</time>
      </trkpt>
      <trkpt lat="49.94035" lon="2.21012">
        <ele>31.2</ele>
        <time>2022-04-11T13:17:02Z</time>
      </trkpt>
      <trkpt lat="49.94036" lon="2.21013">
        <ele>31.3</ele>
        <time>2022-04-11T13:17:03Z</time>
      </trkpt>
      <trkpt lat="49.94038" lon="2.21017">
        <ele>31.5</ele>
        <time>2022-04-11T13:17:04Z</time>
      </trkpt>
      <trkpt lat="49.94039" lon="2.21019">
        <ele>31.6</ele>
        <time>2022-04-11T13:17:05Z</time>
      </trkpt>
      <trkpt lat="49.9404" lon="2.21022">
        <ele>31.8</ele>
        <time>2022-04-11T13:17:06Z</time>
      </trkpt>
      <trkpt lat="49.94042" lon="2.21025">
        <ele>32</ele>
        <time>2022-04-11T13:17:08Z</time>
      </trkpt>
      <trkpt lat="49.94044" lon="2.21028">
        <ele>32.2</ele>
        <time>2022-04-11T13:17:09Z</time>
      </trkpt>
      <trkpt lat="49.94045" lon="2.2103">
        <ele>32.3</ele>
        <time>2022-04-11T13:17:10Z</time>
      </trkpt>
      <trkpt lat="49.94046" lon="2.21033">
        <ele>32.5</ele>
        <time>2022-04-11T13:17:11Z</time>
      </trkpt>
      <trkpt lat="49.94047" lon="2.21034">
        <ele>32.6</ele>
        <time>2022-04-11T13:17:12Z</time>
      </trkpt>
      <trkpt lat="49.94048" lon="2.21036">
        <ele>32.7</ele>
        <time>2022-04-11T13:17:13Z</time>
      </trkpt>
      <trkpt lat="49.94048" lon="2.21037">
        <ele>32.8</ele>
        <time>2022-04-11T13:17:14Z</time>
      </trkpt>
      <trkpt lat="49.94048" lon="2.21038">
        <ele>32.9</ele>
        <time>2022-04-11T13:17:15Z</time>
      </trkpt>
      <trkpt lat="49.94048" lon="2.21039">
        <ele>32.9</ele>
        <time>2022-04-11T13:17:16Z</time>
      </trkpt>
      <trkpt lat="49.94048" lon="2.21041">
        <ele>33</ele>
        <time>2022-04-11T13:17:17Z</time>
      </trkpt>
      <trkpt lat="49.94048" lon="2.21043">
        <ele>33.1</ele>
        <time>2022-04-11T13:17:18Z</time>
      </trkpt>
      <trkpt lat="49.94048" lon="2.21045">
        <ele>33.2</ele>
        <time>2022-04-11T13:17:20Z</time>
      </trkpt>
      <trkpt lat="49.94046" lon="2.21046">
        <ele>33.4</ele>
        <time>2022-04-11T13:17:21Z</time>
      </trkpt>
      <trkpt lat="49.94046" lon="2.21049">
        <ele>33.6</ele>
        <time>2022-04-11T13:17:22Z</time>
      </trkpt>
      <trkpt lat="49.94047" lon="2.2105">
        <ele>33.7</ele>
        <time>2022-04-11T13:17:23Z</time>
      </trkpt>
      <trkpt lat="49.94047" lon="2.21052">
        <ele>33.8</ele>
        <time>2022-04-11T13:17:24Z</time>
      </trkpt>
      <trkpt lat="49.94048" lon="2.21054">
        <ele>33.9</ele>
        <time>2022-04-11T13:17:25Z</time>
      </trkpt>
      <trkpt lat="49.94049" lon="2.21055">
        <ele>34</ele>
        <time>2022-04-11T13:17:26Z</time>
      </trkpt>
      <trkpt lat="49.9405" lon="2.21057">
        <ele>34.2</ele>
        <time>2022-04-11T13:17:27Z</time>
      </trkpt>
      <trkpt lat="49.94051" lon="2.21058">
        <ele>34.3</ele>
        <time>2022-04-11T13:17:29Z</time>
      </trkpt>
      <trkpt lat="49.94052" lon="2.2106">
        <ele>34.5</ele>
        <time>2022-04-11T13:17:30Z</time>
      </trkpt>
      <trkpt lat="49.94053" lon="2.21061">
        <ele>34.5</ele>
        <time>2022-04-11T13:17:31Z</time>
      </trkpt>
      <trkpt lat="49.94054" lon="2.21061">
        <ele>34.5</ele>
        <time>2022-04-11T13:17:32Z</time>
      </trkpt>
      <trkpt lat="49.94056" lon="2.21061">
        <ele>34.5</ele>
        <time>2022-04-11T13:17:33Z</time>
      </trkpt>
      <trkpt lat="49.94059" lon="2.2106">
        <ele>34.5</ele>
        <time>2022-04-11T13:17:34Z</time>
      </trkpt>
      <trkpt lat="49.9406" lon="2.21059">
        <ele>34.6</ele>
        <time>2022-04-11T13:17:35Z</time>
      </trkpt>
      <trkpt lat="49.94062" lon="2.21054">
        <ele>34.6</ele>
        <time>2022-04-11T13:17:37Z</time>
      </trkpt>
      <trkpt lat="49.94063" lon="2.21053">
        <ele>34.6</ele>
        <time>2022-04-11T13:17:38Z</time>
      </trkpt>
      <trkpt lat="49.94065" lon="2.21049">
        <ele>34.6</ele>
        <time>2022-04-11T13:17:39Z</time>
      </trkpt>
      <trkpt lat="49.94065" lon="2.21047">
        <ele>34.6</ele>
        <time>2022-04-11T13:17:40Z</time>
      </trkpt>
      <trkpt lat="49.94066" lon="2.21045">
        <ele>34.6</ele>
        <time>2022-04-11T13:17:42Z</time>
      </trkpt>
      <trkpt lat="49.94067" lon="2.21042">
        <ele>34.6</ele>
        <time>2022-04-11T13:17:43Z</time>
      </trkpt>
      <trkpt lat="49.94067" lon="2.21041">
        <ele>34.6</ele>
        <time>2022-04-11T13:17:44Z</time>
      </trkpt>
      <trkpt lat="49.94067" lon="2.21038">
        <ele>34.7</ele>
        <time>2022-04-11T13:17:45Z</time>
      </trkpt>
      <trkpt lat="49.94067" lon="2.21036">
        <ele>34.7</ele>
        <time>2022-04-11T13:17:46Z</time>
      </trkpt>
      <trkpt lat="49.94067" lon="2.21035">
        <ele>34.7</ele>
        <time>2022-04-11T13:17:47Z</time>
      </trkpt>
      <trkpt lat="49.94067" lon="2.21032">
        <ele>34.7</ele>
        <time>2022-04-11T13:17:48Z</time>
      </trkpt>
      <trkpt lat="49.94068" lon="2.21031">
        <ele>34.7</ele>
        <time>2022-04-11T13:17:49Z</time>
      </trkpt>
      <trkpt lat="49.94068" lon="2.2103">
        <ele>34.7</ele>
        <time>2022-04-11T13:17:50Z</time>
      </trkpt>
      <trkpt lat="49.94069" lon="2.21028">
        <ele>34.7</ele>
        <time>2022-04-11T13:17:51Z</time>
      </trkpt>
      <trkpt lat="49.9407" lon="2.21027">
        <ele>34.7</ele>
        <time>2022-04-11T13:17:52Z</time>
      </trkpt>
      <trkpt lat="49.94071" lon="2.21025">
        <ele>34.7</ele>
        <time>2022-04-11T13:17:54Z</time>
      </trkpt>
      <trkpt lat="49.94072" lon="2.21024">
        <ele>34.7</ele>
        <time>2022-04-11T13:17:55Z</time>
      </trkpt>
      <trkpt lat="49.94073" lon="2.21022">
        <ele>34.7</ele>
        <time>2022-04-11T13:17:56Z</time>
      </trkpt>
      <trkpt lat="49.94073" lon="2.2102">
        <ele>34.7</ele>
        <time>2022-04-11T13:17:57Z</time>
      </trkpt>
      <trkpt lat="49.94074" lon="2.21019">
        <ele>34.7</ele>
        <time>2022-04-11T13:17:58Z</time>
      </trkpt>
      <trkpt lat="49.94075" lon="2.21018">
        <ele>34.7</ele>
        <time>2022-04-11T13:17:59Z</time>
      </trkpt>
      <trkpt lat="49.94076" lon="2.21016">
        <ele>34.8</ele>
        <time>2022-04-11T13:18:00Z</time>
      </trkpt>
      <trkpt lat="49.94076" lon="2.21014">
        <ele>34.8</ele>
        <time>2022-04-11T13:18:01Z</time>
      </trkpt>
      <trkpt lat="49.94077" lon="2.21012">
        <ele>34.8</ele>
        <time>2022-04-11T13:18:02Z</time>
      </trkpt>
      <trkpt lat="49.94078" lon="2.21011">
        <ele>34.8</ele>
        <time>2022-04-11T13:18:03Z</time>
      </trkpt>
      <trkpt lat="49.94079" lon="2.21009">
        <ele>34.8</ele>
        <time>2022-04-11T13:18:04Z</time>
      </trkpt>
      <trkpt lat="49.9408" lon="2.21008">
        <ele>34.8</ele>
        <time>2022-04-11T13:18:05Z</time>
      </trkpt>
      <trkpt lat="49.9408" lon="2.21006">
        <ele>34.8</ele>
        <time>2022-04-11T13:18:06Z</time>
      </trkpt>
      <trkpt lat="49.94082" lon="2.21003">
        <ele>34.8</ele>
        <time>2022-04-11T13:18:08Z</time>
      </trkpt>
      <trkpt lat="49.94082" lon="2.21002">
        <ele>34.9</ele>
        <time>2022-04-11T13:18:09Z</time>
      </trkpt>
      <trkpt lat="49.94083" lon="2.21001">
        <ele>34.9</ele>
        <time>2022-04-11T13:18:10Z</time>
      </trkpt>
      <trkpt lat="49.94083" lon="2.20999">
        <ele>34.9</ele>
        <time>2022-04-11T13:18:11Z</time>
      </trkpt>
      <trkpt lat="49.94084" lon="2.20997">
        <ele>34.9</ele>
        <time>2022-04-11T13:18:12Z</time>
      </trkpt>
      <trkpt lat="49.94085" lon="2.20996">
        <ele>34.9</ele>
        <time>2022-04-11T13:18:13Z</time>
      </trkpt>
      <trkpt lat="49.94085" lon="2.20995">
        <ele>34.9</ele>
        <time>2022-04-11T13:18:15Z</time>
      </trkpt>
      <trkpt lat="49.94086" lon="2.20993">
        <ele>34.9</ele>
        <time>2022-04-11T13:18:16Z</time>
      </trkpt>
      <trkpt lat="49.94086" lon="2.20992">
        <ele>34.9</ele>
        <time>2022-04-11T13:18:17Z</time>
      </trkpt>
      <trkpt lat="49.94087" lon="2.20991">
        <ele>35</ele>
        <time>2022-04-11T13:18:18Z</time>
      </trkpt>
      <trkpt lat="49.94088" lon="2.20989">
        <ele>35</ele>
        <time>2022-04-11T13:18:19Z</time>
      </trkpt>
      <trkpt lat="49.94088" lon="2.20988">
        <ele>35</ele>
        <time>2022-04-11T13:18:20Z</time>
      </trkpt>
      <trkpt lat="49.94088" lon="2.20987">
        <ele>35</ele>
        <time>2022-04-11T13:18:22Z</time>
      </trkpt>
      <trkpt lat="49.94089" lon="2.20985">
        <ele>35</ele>
        <time>2022-04-11T13:18:23Z</time>
      </trkpt>
      <trkpt lat="49.9409" lon="2.20983">
        <ele>35</ele>
        <time>2022-04-11T13:18:24Z</time>
      </trkpt>
      <trkpt lat="49.9409" lon="2.20981">
        <ele>35</ele>
        <time>2022-04-11T13:18:25Z</time>
      </trkpt>
      <trkpt lat="49.94091" lon="2.20979">
        <ele>35.1</ele>
        <time>2022-04-11T13:18:26Z</time>
      </trkpt>
      <trkpt lat="49.94091" lon="2.20977">
        <ele>35.1</ele>
        <time>2022-04-11T13:18:27Z</time>
      </trkpt>
      <trkpt lat="49.94092" lon="2.20974">
        <ele>35.1</ele>
        <time>2022-04-11T13:18:28Z</time>
      </trkpt>
      <trkpt lat="49.94093" lon="2.20973">
        <ele>35.1</ele>
        <time>2022-04-11T13:18:29Z</time>
      </trkpt>
      <trkpt lat="49.94093" lon="2.20971">
        <ele>35.1</ele>
        <time>2022-04-11T13:18:30Z</time>
      </trkpt>
      <trkpt lat="49.94094" lon="2.20969">
        <ele>35.1</ele>
        <time>2022-04-11T13:18:31Z</time>
      </trkpt>
      <trkpt lat="49.94095" lon="2.20967">
        <ele>35.2</ele>
        <time>2022-04-11T13:18:32Z</time>
      </trkpt>
      <trkpt lat="49.94095" lon="2.20966">
        <ele>35.2</ele>
        <time>2022-04-11T13:18:33Z</time>
      </trkpt>
      <trkpt lat="49.94096" lon="2.20964">
        <ele>35.2</ele>
        <time>2022-04-11T13:18:34Z</time>
      </trkpt>
      <trkpt lat="49.94097" lon="2.20963">
        <ele>35.2</ele>
        <time>2022-04-11T13:18:36Z</time>
      </trkpt>
      <trkpt lat="49.94097" lon="2.20961">
        <ele>35.2</ele>
        <time>2022-04-11T13:18:37Z</time>
      </trkpt>
      <trkpt lat="49.94098" lon="2.2096">
        <ele>35.2</ele>
        <time>2022-04-11T13:18:38Z</time>
      </trkpt>
      <trkpt lat="49.94098" lon="2.20958">
        <ele>35.3</ele>
        <time>2022-04-11T13:18:39Z</time>
      </trkpt>
      <trkpt lat="49.94099" lon="2.20956">
        <ele>35.3</ele>
        <time>2022-04-11T13:18:40Z</time>
      </trkpt>
      <trkpt lat="49.94099" lon="2.20955">
        <ele>35.3</ele>
        <time>2022-04-11T13:18:41Z</time>
      </trkpt>
      <trkpt lat="49.941" lon="2.20953">
        <ele>35.3</ele>
        <time>2022-04-11T13:18:42Z</time>
      </trkpt>
      <trkpt lat="49.94101" lon="2.20951">
        <ele>35.3</ele>
        <time>2022-04-11T13:18:44Z</time>
      </trkpt>
      <trkpt lat="49.94101" lon="2.20949">
        <ele>35.3</ele>
        <time>2022-04-11T13:18:45Z</time>
      </trkpt>
      <trkpt lat="49.94102" lon="2.20947">
        <ele>35.4</ele>
        <time>2022-04-11T13:18:46Z</time>
      </trkpt>
      <trkpt lat="49.94103" lon="2.20944">
        <ele>35.4</ele>
        <time>2022-04-11T13:18:47Z</time>
      </trkpt>
      <trkpt lat="49.94104" lon="2.20942">
        <ele>35.4</ele>
        <time>2022-04-11T13:18:48Z</time>
      </trkpt>
      <trkpt lat="49.94104" lon="2.2094">
        <ele>35.5</ele>
        <time>2022-04-11T13:18:50Z</time>
      </trkpt>
      <trkpt lat="49.94105" lon="2.20938">
        <ele>35.5</ele>
        <time>2022-04-11T13:18:51Z</time>
      </trkpt>
      <trkpt lat="49.94106" lon="2.20936">
        <ele>35.5</ele>
        <time>2022-04-11T13:18:52Z</time>
      </trkpt>
      <trkpt lat="49.94108" lon="2.20932">
        <ele>35.6</ele>
        <time>2022-04-11T13:18:53Z</time>
      </trkpt>
      <trkpt lat="49.94108" lon="2.20931">
        <ele>35.6</ele>
        <time>2022-04-11T13:18:54Z</time>
      </trkpt>
      <trkpt lat="49.94109" lon="2.20929">
        <ele>35.6</ele>
        <time>2022-04-11T13:18:55Z</time>
      </trkpt>
      <trkpt lat="49.9411" lon="2.20927">
        <ele>35.7</ele>
        <time>2022-04-11T13:18:57Z</time>
      </trkpt>
      <trkpt lat="49.94111" lon="2.20923">
        <ele>35.7</ele>
        <time>2022-04-11T13:18:59Z</time>
      </trkpt>
      <trkpt lat="49.94112" lon="2.20921">
        <ele>35.8</ele>
        <time>2022-04-11T13:19:00Z</time>
      </trkpt>
      <trkpt lat="49.94112" lon="2.20919">
        <ele>35.8</ele>
        <time>2022-04-11T13:19:01Z</time>
      </trkpt>
      <trkpt lat="49.94114" lon="2.20916">
        <ele>35.8</ele>
        <time>2022-04-11T13:19:02Z</time>
      </trkpt>
      <trkpt lat="49.94114" lon="2.20914">
        <ele>35.9</ele>
        <time>2022-04-11T13:19:04Z</time>
      </trkpt>
      <trkpt lat="49.94115" lon="2.20912">
        <ele>35.9</ele>
        <time>2022-04-11T13:19:05Z</time>
      </trkpt>
      <trkpt lat="49.94116" lon="2.20911">
        <ele>35.9</ele>
        <time>2022-04-11T13:19:06Z</time>
      </trkpt>
      <trkpt lat="49.94116" lon="2.20909">
        <ele>36</ele>
        <time>2022-04-11T13:19:07Z</time>
      </trkpt>
      <trkpt lat="49.94118" lon="2.20906">
        <ele>36</ele>
        <time>2022-04-11T13:19:08Z</time>
      </trkpt>
      <trkpt lat="49.94119" lon="2.20905">
        <ele>36.1</ele>
        <time>2022-04-11T13:19:09Z</time>
      </trkpt>
      <trkpt lat="49.9412" lon="2.20902">
        <ele>36.1</ele>
        <time>2022-04-11T13:19:10Z</time>
      </trkpt>
      <trkpt lat="49.9412" lon="2.20901">
        <ele>36.2</ele>
        <time>2022-04-11T13:19:12Z</time>
      </trkpt>
      <trkpt lat="49.9412" lon="2.20899">
        <ele>36.2</ele>
        <time>2022-04-11T13:19:13Z</time>
      </trkpt>
      <trkpt lat="49.94121" lon="2.20897">
        <ele>36.3</ele>
        <time>2022-04-11T13:19:14Z</time>
      </trkpt>
      <trkpt lat="49.94121" lon="2.20896">
        <ele>36.3</ele>
        <time>2022-04-11T13:19:15Z</time>
      </trkpt>
      <trkpt lat="49.94121" lon="2.20895">
        <ele>36.3</ele>
        <time>2022-04-11T13:19:16Z</time>
      </trkpt>
      <trkpt lat="49.94122" lon="2.20893">
        <ele>36.4</ele>
        <time>2022-04-11T13:19:18Z</time>
      </trkpt>
      <trkpt lat="49.94123" lon="2.20892">
        <ele>36.4</ele>
        <time>2022-04-11T13:19:19Z</time>
      </trkpt>
      <trkpt lat="49.94123" lon="2.2089">
        <ele>36.4</ele>
        <time>2022-04-11T13:19:20Z</time>
      </trkpt>
      <trkpt lat="49.94124" lon="2.20889">
        <ele>36.5</ele>
        <time>2022-04-11T13:19:21Z</time>
      </trkpt>
      <trkpt lat="49.94124" lon="2.20887">
        <ele>36.5</ele>
        <time>2022-04-11T13:19:22Z</time>
      </trkpt>
      <trkpt lat="49.94125" lon="2.20886">
        <ele>36.5</ele>
        <time>2022-04-11T13:19:23Z</time>
      </trkpt>
      <trkpt lat="49.94126" lon="2.20884">
        <ele>36.6</ele>
        <time>2022-04-11T13:19:24Z</time>
      </trkpt>
      <trkpt lat="49.94126" lon="2.20882">
        <ele>36.6</ele>
        <time>2022-04-11T13:19:25Z</time>
      </trkpt>
      <trkpt lat="49.94127" lon="2.20879">
        <ele>36.7</ele>
        <time>2022-04-11T13:19:26Z</time>
      </trkpt>
      <trkpt lat="49.94128" lon="2.20878">
        <ele>36.8</ele>
        <time>2022-04-11T13:19:27Z</time>
      </trkpt>
      <trkpt lat="49.94128" lon="2.20876">
        <ele>36.8</ele>
        <time>2022-04-11T13:19:28Z</time>
      </trkpt>
      <trkpt lat="49.94129" lon="2.20875">
        <ele>36.8</ele>
        <time>2022-04-11T13:19:29Z</time>
      </trkpt>
      <trkpt lat="49.9413" lon="2.20873">
        <ele>36.9</ele>
        <time>2022-04-11T13:19:30Z</time>
      </trkpt>
      <trkpt lat="49.94131" lon="2.20871">
        <ele>36.9</ele>
        <time>2022-04-11T13:19:32Z</time>
      </trkpt>
      <trkpt lat="49.94132" lon="2.20869">
        <ele>37</ele>
        <time>2022-04-11T13:19:33Z</time>
      </trkpt>
      <trkpt lat="49.94133" lon="2.20867">
        <ele>37</ele>
        <time>2022-04-11T13:19:34Z</time>
      </trkpt>
      <trkpt lat="49.94134" lon="2.20866">
        <ele>37.1</ele>
        <time>2022-04-11T13:19:35Z</time>
      </trkpt>
      <trkpt lat="49.94134" lon="2.20864">
        <ele>37.1</ele>
        <time>2022-04-11T13:19:36Z</time>
      </trkpt>
      <trkpt lat="49.94136" lon="2.20861">
        <ele>37.2</ele>
        <time>2022-04-11T13:19:37Z</time>
      </trkpt>
      <trkpt lat="49.94136" lon="2.20861">
        <ele>37.2</ele>
        <time>2022-04-11T13:19:38Z</time>
      </trkpt>
      <trkpt lat="49.94137" lon="2.2086">
        <ele>37.3</ele>
        <time>2022-04-11T13:19:39Z</time>
      </trkpt>
      <trkpt lat="49.94138" lon="2.20857">
        <ele>37.3</ele>
        <time>2022-04-11T13:19:40Z</time>
      </trkpt>
      <trkpt lat="49.94139" lon="2.20856">
        <ele>37.4</ele>
        <time>2022-04-11T13:19:41Z</time>
      </trkpt>
      <trkpt lat="49.94139" lon="2.20854">
        <ele>37.4</ele>
        <time>2022-04-11T13:19:42Z</time>
      </trkpt>
      <trkpt lat="49.9414" lon="2.20852">
        <ele>37.5</ele>
        <time>2022-04-11T13:19:43Z</time>
      </trkpt>
      <trkpt lat="49.94141" lon="2.2085">
        <ele>37.5</ele>
        <time>2022-04-11T13:19:44Z</time>
      </trkpt>
      <trkpt lat="49.94143" lon="2.20846">
        <ele>37.7</ele>
        <time>2022-04-11T13:19:46Z</time>
      </trkpt>
      <trkpt lat="49.94144" lon="2.20845">
        <ele>37.7</ele>
        <time>2022-04-11T13:19:47Z</time>
      </trkpt>
      <trkpt lat="49.94146" lon="2.20842">
        <ele>37.8</ele>
        <time>2022-04-11T13:19:48Z</time>
      </trkpt>
      <trkpt lat="49.94147" lon="2.20841">
        <ele>37.8</ele>
        <time>2022-04-11T13:19:49Z</time>
      </trkpt>
      <trkpt lat="49.94147" lon="2.20839">
        <ele>37.9</ele>
        <time>2022-04-11T13:19:50Z</time>
      </trkpt>
      <trkpt lat="49.94148" lon="2.20838">
        <ele>37.9</ele>
        <time>2022-04-11T13:19:52Z</time>
      </trkpt>
      <trkpt lat="49.94149" lon="2.20837">
        <ele>38</ele>
        <time>2022-04-11T13:19:53Z</time>
      </trkpt>
      <trkpt lat="49.94149" lon="2.20836">
        <ele>38</ele>
        <time>2022-04-11T13:19:54Z</time>
      </trkpt>
      <trkpt lat="49.9415" lon="2.20834">
        <ele>38</ele>
        <time>2022-04-11T13:19:55Z</time>
      </trkpt>
      <trkpt lat="49.9415" lon="2.20833">
        <ele>38.1</ele>
        <time>2022-04-11T13:19:56Z</time>
      </trkpt>
      <trkpt lat="49.94151" lon="2.20831">
        <ele>38.2</ele>
        <time>2022-04-11T13:19:57Z</time>
      </trkpt>
      <trkpt lat="49.94152" lon="2.20829">
        <ele>38.2</ele>
        <time>2022-04-11T13:19:58Z</time>
      </trkpt>
      <trkpt lat="49.94152" lon="2.20828">
        <ele>38.2</ele>
        <time>2022-04-11T13:19:59Z</time>
      </trkpt>
      <trkpt lat="49.94153" lon="2.20826">
        <ele>38.3</ele>
        <time>2022-04-11T13:20:00Z</time>
      </trkpt>
      <trkpt lat="49.94153" lon="2.20825">
        <ele>38.3</ele>
        <time>2022-04-11T13:20:01Z</time>
      </trkpt>
      <trkpt lat="49.94154" lon="2.20823">
        <ele>38.4</ele>
        <time>2022-04-11T13:20:03Z</time>
      </trkpt>
      <trkpt lat="49.94154" lon="2.20821">
        <ele>38.5</ele>
        <time>2022-04-11T13:20:04Z</time>
      </trkpt>
      <trkpt lat="49.94155" lon="2.20819">
        <ele>38.5</ele>
        <time>2022-04-11T13:20:05Z</time>
      </trkpt>
      <trkpt lat="49.94156" lon="2.20818">
        <ele>38.5</ele>
        <time>2022-04-11T13:20:06Z</time>
      </trkpt>
      <trkpt lat="49.94156" lon="2.20817">
        <ele>38.6</ele>
        <time>2022-04-11T13:20:07Z</time>
      </trkpt>
      <trkpt lat="49.94158" lon="2.20814">
        <ele>38.7</ele>
        <time>2022-04-11T13:20:09Z</time>
      </trkpt>
      <trkpt lat="49.94159" lon="2.20812">
        <ele>38.8</ele>
        <time>2022-04-11T13:20:10Z</time>
      </trkpt>
      <trkpt lat="49.9416" lon="2.20809">
        <ele>38.8</ele>
        <time>2022-04-11T13:20:11Z</time>
      </trkpt>
      <trkpt lat="49.9416" lon="2.20807">
        <ele>38.9</ele>
        <time>2022-04-11T13:20:12Z</time>
      </trkpt>
      <trkpt lat="49.94161" lon="2.20805">
        <ele>39</ele>
        <time>2022-04-11T13:20:13Z</time>
      </trkpt>
      <trkpt lat="49.94161" lon="2.20804">
        <ele>39</ele>
        <time>2022-04-11T13:20:14Z</time>
      </trkpt>
      <trkpt lat="49.94163" lon="2.20802">
        <ele>39.1</ele>
        <time>2022-04-11T13:20:15Z</time>
      </trkpt>
      <trkpt lat="49.94164" lon="2.208">
        <ele>39.2</ele>
        <time>2022-04-11T13:20:16Z</time>
      </trkpt>
      <trkpt lat="49.94165" lon="2.20798">
        <ele>39.2</ele>
        <time>2022-04-11T13:20:17Z</time>
      </trkpt>
      <trkpt lat="49.94165" lon="2.20796">
        <ele>39.3</ele>
        <time>2022-04-11T13:20:18Z</time>
      </trkpt>
      <trkpt lat="49.94165" lon="2.20794">
        <ele>39.3</ele>
        <time>2022-04-11T13:20:19Z</time>
      </trkpt>
      <trkpt lat="49.94166" lon="2.20792">
        <ele>39.4</ele>
        <time>2022-04-11T13:20:21Z</time>
      </trkpt>
      <trkpt lat="49.94167" lon="2.20791">
        <ele>39.4</ele>
        <time>2022-04-11T13:20:22Z</time>
      </trkpt>
      <trkpt lat="49.94167" lon="2.2079">
        <ele>39.5</ele>
        <time>2022-04-11T13:20:23Z</time>
      </trkpt>
      <trkpt lat="49.94168" lon="2.20788">
        <ele>39.5</ele>
        <time>2022-04-11T13:20:24Z</time>
      </trkpt>
      <trkpt lat="49.94169" lon="2.20786">
        <ele>39.6</ele>
        <time>2022-04-11T13:20:25Z</time>
      </trkpt>
      <trkpt lat="49.94169" lon="2.20784">
        <ele>39.6</ele>
        <time>2022-04-11T13:20:26Z</time>
      </trkpt>
      <trkpt lat="49.94169" lon="2.20783">
        <ele>39.7</ele>
        <time>2022-04-11T13:20:27Z</time>
      </trkpt>
      <trkpt lat="49.94171" lon="2.20779">
        <ele>39.8</ele>
        <time>2022-04-11T13:20:28Z</time>
      </trkpt>
      <trkpt lat="49.94171" lon="2.20778">
        <ele>39.8</ele>
        <time>2022-04-11T13:20:29Z</time>
      </trkpt>
      <trkpt lat="49.94172" lon="2.20775">
        <ele>39.9</ele>
        <time>2022-04-11T13:20:30Z</time>
      </trkpt>
      <trkpt lat="49.94173" lon="2.20773">
        <ele>40</ele>
        <time>2022-04-11T13:20:31Z</time>
      </trkpt>
      <trkpt lat="49.94174" lon="2.20772">
        <ele>40</ele>
        <time>2022-04-11T13:20:33Z</time>
      </trkpt>
      <trkpt lat="49.94174" lon="2.20771">
        <ele>40.1</ele>
        <time>2022-04-11T13:20:34Z</time>
      </trkpt>
      <trkpt lat="49.94175" lon="2.2077">
        <ele>40.1</ele>
        <time>2022-04-11T13:20:35Z</time>
      </trkpt>
      <trkpt lat="49.94176" lon="2.20768">
        <ele>40.2</ele>
        <time>2022-04-11T13:20:36Z</time>
      </trkpt>
      <trkpt lat="49.94177" lon="2.20767">
        <ele>40.2</ele>
        <time>2022-04-11T13:20:37Z</time>
      </trkpt>
      <trkpt lat="49.94177" lon="2.20765">
        <ele>40.3</ele>
        <time>2022-04-11T13:20:38Z</time>
      </trkpt>
      <trkpt lat="49.94178" lon="2.20763">
        <ele>40.4</ele>
        <time>2022-04-11T13:20:39Z</time>
      </trkpt>
      <trkpt lat="49.94179" lon="2.20761">
        <ele>40.4</ele>
        <time>2022-04-11T13:20:40Z</time>
      </trkpt>
      <trkpt lat="49.9418" lon="2.20758">
        <ele>40.6</ele>
        <time>2022-04-11T13:20:42Z</time>
      </trkpt>
      <trkpt lat="49.94181" lon="2.20757">
        <ele>40.6</ele>
        <time>2022-04-11T13:20:43Z</time>
      </trkpt>
      <trkpt lat="49.94181" lon="2.20756">
        <ele>40.6</ele>
        <time>2022-04-11T13:20:44Z</time>
      </trkpt>
      <trkpt lat="49.94182" lon="2.20755">
        <ele>40.7</ele>
        <time>2022-04-11T13:20:45Z</time>
      </trkpt>
      <trkpt lat="49.94183" lon="2.20753">
        <ele>40.7</ele>
        <time>2022-04-11T13:20:46Z</time>
      </trkpt>
      <trkpt lat="49.94183" lon="2.20752">
        <ele>40.8</ele>
        <time>2022-04-11T13:20:47Z</time>
      </trkpt>
      <trkpt lat="49.94185" lon="2.20749">
        <ele>40.9</ele>
        <time>2022-04-11T13:20:48Z</time>
      </trkpt>
      <trkpt lat="49.94185" lon="2.20748">
        <ele>40.9</ele>
        <time>2022-04-11T13:20:50Z</time>
      </trkpt>
      <trkpt lat="49.94186" lon="2.20747">
        <ele>41</ele>
        <time>2022-04-11T13:20:51Z</time>
      </trkpt>
      <trkpt lat="49.94187" lon="2.20744">
        <ele>41.1</ele>
        <time>2022-04-11T13:20:52Z</time>
      </trkpt>
      <trkpt lat="49.94187" lon="2.20743">
        <ele>41.1</ele>
        <time>2022-04-11T13:20:53Z</time>
      </trkpt>
      <trkpt lat="49.94187" lon="2.20742">
        <ele>41.2</ele>
        <time>2022-04-11T13:20:54Z</time>
      </trkpt>
      <trkpt lat="49.94188" lon="2.20738">
        <ele>41.3</ele>
        <time>2022-04-11T13:20:55Z</time>
      </trkpt>
      <trkpt lat="49.94188" lon="2.20737">
        <ele>41.3</ele>
        <time>2022-04-11T13:20:56Z</time>
      </trkpt>
      <trkpt lat="49.94189" lon="2.20736">
        <ele>41.4</ele>
        <time>2022-04-11T13:20:57Z</time>
      </trkpt>
      <trkpt lat="49.94189" lon="2.20735">
        <ele>41.4</ele>
        <time>2022-04-11T13:20:58Z</time>
      </trkpt>
      <trkpt lat="49.9419" lon="2.20734">
        <ele>41.5</ele>
        <time>2022-04-11T13:20:59Z</time>
      </trkpt>
      <trkpt lat="49.9419" lon="2.20732">
        <ele>41.5</ele>
        <time>2022-04-11T13:21:01Z</time>
      </trkpt>
      <trkpt lat="49.94191" lon="2.2073">
        <ele>41.6</ele>
        <time>2022-04-11T13:21:02Z</time>
      </trkpt>
      <trkpt lat="49.94191" lon="2.20728">
        <ele>41.7</ele>
        <time>2022-04-11T13:21:03Z</time>
      </trkpt>
      <trkpt lat="49.94192" lon="2.20727">
        <ele>41.8</ele>
        <time>2022-04-11T13:21:04Z</time>
      </trkpt>
      <trkpt lat="49.94193" lon="2.20724">
        <ele>41.8</ele>
        <time>2022-04-11T13:21:05Z</time>
      </trkpt>
      <trkpt lat="49.94194" lon="2.20722">
        <ele>42</ele>
        <time>2022-04-11T13:21:06Z</time>
      </trkpt>
      <trkpt lat="49.94195" lon="2.20721">
        <ele>42</ele>
        <time>2022-04-11T13:21:07Z</time>
      </trkpt>
      <trkpt lat="49.94195" lon="2.2072">
        <ele>42</ele>
        <time>2022-04-11T13:21:08Z</time>
      </trkpt>
      <trkpt lat="49.94196" lon="2.20717">
        <ele>42.2</ele>
        <time>2022-04-11T13:21:10Z</time>
      </trkpt>
      <trkpt lat="49.94197" lon="2.20716">
        <ele>42.2</ele>
        <time>2022-04-11T13:21:11Z</time>
      </trkpt>
      <trkpt lat="49.94197" lon="2.20715">
        <ele>42.2</ele>
        <time>2022-04-11T13:21:12Z</time>
      </trkpt>
      <trkpt lat="49.94198" lon="2.20712">
        <ele>42.3</ele>
        <time>2022-04-11T13:21:13Z</time>
      </trkpt>
      <trkpt lat="49.94199" lon="2.20711">
        <ele>42.4</ele>
        <time>2022-04-11T13:21:14Z</time>
      </trkpt>
      <trkpt lat="49.942" lon="2.20711">
        <ele>42.4</ele>
        <time>2022-04-11T13:21:15Z</time>
      </trkpt>
      <trkpt lat="49.942" lon="2.20709">
        <ele>42.5</ele>
        <time>2022-04-11T13:21:17Z</time>
      </trkpt>
      <trkpt lat="49.94201" lon="2.20707">
        <ele>42.6</ele>
        <time>2022-04-11T13:21:18Z</time>
      </trkpt>
      <trkpt lat="49.94202" lon="2.20705">
        <ele>42.7</ele>
        <time>2022-04-11T13:21:19Z</time>
      </trkpt>
      <trkpt lat="49.94203" lon="2.20703">
        <ele>42.7</ele>
        <time>2022-04-11T13:21:20Z</time>
      </trkpt>
      <trkpt lat="49.94204" lon="2.20702">
        <ele>42.8</ele>
        <time>2022-04-11T13:21:21Z</time>
      </trkpt>
      <trkpt lat="49.94204" lon="2.20699">
        <ele>42.9</ele>
        <time>2022-04-11T13:21:23Z</time>
      </trkpt>
      <trkpt lat="49.94205" lon="2.20698">
        <ele>42.9</ele>
        <time>2022-04-11T13:21:24Z</time>
      </trkpt>
      <trkpt lat="49.94206" lon="2.20697">
        <ele>43</ele>
        <time>2022-04-11T13:21:25Z</time>
      </trkpt>
      <trkpt lat="49.94206" lon="2.20696">
        <ele>43</ele>
        <time>2022-04-11T13:21:26Z</time>
      </trkpt>
      <trkpt lat="49.94206" lon="2.20696">
        <ele>43</ele>
        <time>2022-04-11T13:21:27Z</time>
      </trkpt>
      <trkpt lat="49.94206" lon="2.20696">
        <ele>43</ele>
        <time>2022-04-11T13:21:28Z</time>
      </trkpt>
      <trkpt lat="49.94206" lon="2.20694">
        <ele>43</ele>
        <time>2022-04-11T13:21:29Z</time>
      </trkpt>
      <trkpt lat="49.94207" lon="2.20693">
        <ele>43.1</ele>
        <time>2022-04-11T13:21:30Z</time>
      </trkpt>
      <trkpt lat="49.94207" lon="2.20692">
        <ele>43.1</ele>
        <time>2022-04-11T13:21:31Z</time>
      </trkpt>
      <trkpt lat="49.94207" lon="2.2069">
        <ele>43.2</ele>
        <time>2022-04-11T13:21:33Z</time>
      </trkpt>
      <trkpt lat="49.94208" lon="2.20689">
        <ele>43.2</ele>
        <time>2022-04-11T13:21:34Z</time>
      </trkpt>
      <trkpt lat="49.94208" lon="2.20687">
        <ele>43.3</ele>
        <time>2022-04-11T13:21:35Z</time>
      </trkpt>
      <trkpt lat="49.94209" lon="2.20686">
        <ele>43.3</ele>
        <time>2022-04-11T13:21:36Z</time>
      </trkpt>
      <trkpt lat="49.9421" lon="2.20684">
        <ele>43.4</ele>
        <time>2022-04-11T13:21:37Z</time>
      </trkpt>
      <trkpt lat="49.9421" lon="2.20683">
        <ele>43.5</ele>
        <time>2022-04-11T13:21:38Z</time>
      </trkpt>
      <trkpt lat="49.94211" lon="2.20682">
        <ele>43.5</ele>
        <time>2022-04-11T13:21:39Z</time>
      </trkpt>
      <trkpt lat="49.94212" lon="2.20679">
        <ele>43.6</ele>
        <time>2022-04-11T13:21:40Z</time>
      </trkpt>
      <trkpt lat="49.94213" lon="2.20678">
        <ele>43.7</ele>
        <time>2022-04-11T13:21:41Z</time>
      </trkpt>
      <trkpt lat="49.94213" lon="2.20676">
        <ele>43.7</ele>
        <time>2022-04-11T13:21:43Z</time>
      </trkpt>
      <trkpt lat="49.94214" lon="2.20675">
        <ele>43.8</ele>
        <time>2022-04-11T13:21:44Z</time>
      </trkpt>
      <trkpt lat="49.94215" lon="2.20674">
        <ele>43.8</ele>
        <time>2022-04-11T13:21:45Z</time>
      </trkpt>
      <trkpt lat="49.94215" lon="2.20673">
        <ele>43.9</ele>
        <time>2022-04-11T13:21:46Z</time>
      </trkpt>
      <trkpt lat="49.94216" lon="2.20671">
        <ele>44</ele>
        <time>2022-04-11T13:21:47Z</time>
      </trkpt>
      <trkpt lat="49.94217" lon="2.20669">
        <ele>44</ele>
        <time>2022-04-11T13:21:48Z</time>
      </trkpt>
      <trkpt lat="49.94218" lon="2.20667">
        <ele>44.1</ele>
        <time>2022-04-11T13:21:49Z</time>
      </trkpt>
      <trkpt lat="49.94218" lon="2.20666">
        <ele>44.2</ele>
        <time>2022-04-11T13:21:50Z</time>
      </trkpt>
      <trkpt lat="49.94219" lon="2.20664">
        <ele>44.2</ele>
        <time>2022-04-11T13:21:51Z</time>
      </trkpt>
      <trkpt lat="49.9422" lon="2.20662">
        <ele>44.3</ele>
        <time>2022-04-11T13:21:53Z</time>
      </trkpt>
      <trkpt lat="49.94221" lon="2.20661">
        <ele>44.3</ele>
        <time>2022-04-11T13:21:54Z</time>
      </trkpt>
      <trkpt lat="49.94222" lon="2.2066">
        <ele>44.4</ele>
        <time>2022-04-11T13:21:55Z</time>
      </trkpt>
      <trkpt lat="49.94222" lon="2.20659">
        <ele>44.4</ele>
        <time>2022-04-11T13:21:56Z</time>
      </trkpt>
      <trkpt lat="49.94223" lon="2.20658">
        <ele>44.5</ele>
        <time>2022-04-11T13:21:57Z</time>
      </trkpt>
      <trkpt lat="49.94223" lon="2.20656">
        <ele>44.5</ele>
        <time>2022-04-11T13:21:58Z</time>
      </trkpt>
      <trkpt lat="49.94224" lon="2.20655">
        <ele>44.6</ele>
        <time>2022-04-11T13:21:59Z</time>
      </trkpt>
      <trkpt lat="49.94225" lon="2.20653">
        <ele>44.6</ele>
        <time>2022-04-11T13:22:00Z</time>
      </trkpt>
      <trkpt lat="49.94226" lon="2.20652">
        <ele>44.7</ele>
        <time>2022-04-11T13:22:02Z</time>
      </trkpt>
      <trkpt lat="49.94227" lon="2.2065">
        <ele>44.8</ele>
        <time>2022-04-11T13:22:03Z</time>
      </trkpt>
      <trkpt lat="49.94228" lon="2.20649">
        <ele>44.8</ele>
        <time>2022-04-11T13:22:04Z</time>
      </trkpt>
      <trkpt lat="49.94229" lon="2.20648">
        <ele>44.9</ele>
        <time>2022-04-11T13:22:05Z</time>
      </trkpt>
      <trkpt lat="49.94229" lon="2.20647">
        <ele>44.9</ele>
        <time>2022-04-11T13:22:06Z</time>
      </trkpt>
      <trkpt lat="49.9423" lon="2.20646">
        <ele>45</ele>
        <time>2022-04-11T13:22:07Z</time>
      </trkpt>
      <trkpt lat="49.94231" lon="2.20645">
        <ele>45</ele>
        <time>2022-04-11T13:22:08Z</time>
      </trkpt>
      <trkpt lat="49.94233" lon="2.20643">
        <ele>45.1</ele>
        <time>2022-04-11T13:22:09Z</time>
      </trkpt>
      <trkpt lat="49.94233" lon="2.20642">
        <ele>45.1</ele>
        <time>2022-04-11T13:22:10Z</time>
      </trkpt>
      <trkpt lat="49.94234" lon="2.2064">
        <ele>45.2</ele>
        <time>2022-04-11T13:22:11Z</time>
      </trkpt>
      <trkpt lat="49.94235" lon="2.20639">
        <ele>45.3</ele>
        <time>2022-04-11T13:22:13Z</time>
      </trkpt>
      <trkpt lat="49.94236" lon="2.20637">
        <ele>45.3</ele>
        <time>2022-04-11T13:22:14Z</time>
      </trkpt>
      <trkpt lat="49.94237" lon="2.20635">
        <ele>45.4</ele>
        <time>2022-04-11T13:22:15Z</time>
      </trkpt>
      <trkpt lat="49.94237" lon="2.20634">
        <ele>45.4</ele>
        <time>2022-04-11T13:22:16Z</time>
      </trkpt>
      <trkpt lat="49.94238" lon="2.20633">
        <ele>45.5</ele>
        <time>2022-04-11T13:22:17Z</time>
      </trkpt>
      <trkpt lat="49.94239" lon="2.2063">
        <ele>45.6</ele>
        <time>2022-04-11T13:22:18Z</time>
      </trkpt>
      <trkpt lat="49.9424" lon="2.20628">
        <ele>45.6</ele>
        <time>2022-04-11T13:22:19Z</time>
      </trkpt>
      <trkpt lat="49.9424" lon="2.20627">
        <ele>45.7</ele>
        <time>2022-04-11T13:22:20Z</time>
      </trkpt>
      <trkpt lat="49.94242" lon="2.20624">
        <ele>45.8</ele>
        <time>2022-04-11T13:22:21Z</time>
      </trkpt>
      <trkpt lat="49.94242" lon="2.20623">
        <ele>45.9</ele>
        <time>2022-04-11T13:22:22Z</time>
      </trkpt>
      <trkpt lat="49.94242" lon="2.20622">
        <ele>45.9</ele>
        <time>2022-04-11T13:22:24Z</time>
      </trkpt>
      <trkpt lat="49.94243" lon="2.20621">
        <ele>45.9</ele>
        <time>2022-04-11T13:22:25Z</time>
      </trkpt>
      <trkpt lat="49.94243" lon="2.20621">
        <ele>45.9</ele>
        <time>2022-04-11T13:22:26Z</time>
      </trkpt>
      <trkpt lat="49.94244" lon="2.2062">
        <ele>46</ele>
        <time>2022-04-11T13:22:27Z</time>
      </trkpt>
      <trkpt lat="49.94244" lon="2.20619">
        <ele>46</ele>
        <time>2022-04-11T13:22:28Z</time>
      </trkpt>
      <trkpt lat="49.94244" lon="2.20618">
        <ele>46</ele>
        <time>2022-04-11T13:22:29Z</time>
      </trkpt>
      <trkpt lat="49.94246" lon="2.20617">
        <ele>46.1</ele>
        <time>2022-04-11T13:22:31Z</time>
      </trkpt>
      <trkpt lat="49.94247" lon="2.20615">
        <ele>46.2</ele>
        <time>2022-04-11T13:22:32Z</time>
      </trkpt>
      <trkpt lat="49.94248" lon="2.20613">
        <ele>46.3</ele>
        <time>2022-04-11T13:22:33Z</time>
      </trkpt>
      <trkpt lat="49.94248" lon="2.20612">
        <ele>46.3</ele>
        <time>2022-04-11T13:22:34Z</time>
      </trkpt>
      <trkpt lat="49.94249" lon="2.2061">
        <ele>46.4</ele>
        <time>2022-04-11T13:22:35Z</time>
      </trkpt>
      <trkpt lat="49.9425" lon="2.20609">
        <ele>46.4</ele>
        <time>2022-04-11T13:22:36Z</time>
      </trkpt>
      <trkpt lat="49.94251" lon="2.20607">
        <ele>46.5</ele>
        <time>2022-04-11T13:22:37Z</time>
      </trkpt>
      <trkpt lat="49.94252" lon="2.20604">
        <ele>46.6</ele>
        <time>2022-04-11T13:22:38Z</time>
      </trkpt>
      <trkpt lat="49.94253" lon="2.20603">
        <ele>46.7</ele>
        <time>2022-04-11T13:22:40Z</time>
      </trkpt>
      <trkpt lat="49.94254" lon="2.20601">
        <ele>46.7</ele>
        <time>2022-04-11T13:22:41Z</time>
      </trkpt>
      <trkpt lat="49.94255" lon="2.206">
        <ele>46.8</ele>
        <time>2022-04-11T13:22:42Z</time>
      </trkpt>
      <trkpt lat="49.94257" lon="2.20596">
        <ele>46.9</ele>
        <time>2022-04-11T13:22:43Z</time>
      </trkpt>
      <trkpt lat="49.94257" lon="2.20595">
        <ele>47</ele>
        <time>2022-04-11T13:22:44Z</time>
      </trkpt>
      <trkpt lat="49.94259" lon="2.20593">
        <ele>47.1</ele>
        <time>2022-04-11T13:22:46Z</time>
      </trkpt>
      <trkpt lat="49.9426" lon="2.20591">
        <ele>47.1</ele>
        <time>2022-04-11T13:22:47Z</time>
      </trkpt>
      <trkpt lat="49.94261" lon="2.20589">
        <ele>47.2</ele>
        <time>2022-04-11T13:22:48Z</time>
      </trkpt>
      <trkpt lat="49.94262" lon="2.20587">
        <ele>47.3</ele>
        <time>2022-04-11T13:22:49Z</time>
      </trkpt>
      <trkpt lat="49.94263" lon="2.20585">
        <ele>47.3</ele>
        <time>2022-04-11T13:22:51Z</time>
      </trkpt>
      <trkpt lat="49.94264" lon="2.20583">
        <ele>47.4</ele>
        <time>2022-04-11T13:22:52Z</time>
      </trkpt>
      <trkpt lat="49.94265" lon="2.20581">
        <ele>47.5</ele>
        <time>2022-04-11T13:22:53Z</time>
      </trkpt>
      <trkpt lat="49.94266" lon="2.2058">
        <ele>47.5</ele>
        <time>2022-04-11T13:22:54Z</time>
      </trkpt>
      <trkpt lat="49.94266" lon="2.20578">
        <ele>47.6</ele>
        <time>2022-04-11T13:22:55Z</time>
      </trkpt>
      <trkpt lat="49.94267" lon="2.20577">
        <ele>47.6</ele>
        <time>2022-04-11T13:22:56Z</time>
      </trkpt>
      <trkpt lat="49.94268" lon="2.20575">
        <ele>47.7</ele>
        <time>2022-04-11T13:22:57Z</time>
      </trkpt>
      <trkpt lat="49.94269" lon="2.20575">
        <ele>47.7</ele>
        <time>2022-04-11T13:22:58Z</time>
      </trkpt>
      <trkpt lat="49.9427" lon="2.20574">
        <ele>47.7</ele>
        <time>2022-04-11T13:23:00Z</time>
      </trkpt>
      <trkpt lat="49.9427" lon="2.20572">
        <ele>47.8</ele>
        <time>2022-04-11T13:23:01Z</time>
      </trkpt>
      <trkpt lat="49.94271" lon="2.20571">
        <ele>47.8</ele>
        <time>2022-04-11T13:23:02Z</time>
      </trkpt>
      <trkpt lat="49.94272" lon="2.2057">
        <ele>47.9</ele>
        <time>2022-04-11T13:23:03Z</time>
      </trkpt>
      <trkpt lat="49.94273" lon="2.20569">
        <ele>47.9</ele>
        <time>2022-04-11T13:23:04Z</time>
      </trkpt>
      <trkpt lat="49.94273" lon="2.20569">
        <ele>47.9</ele>
        <time>2022-04-11T13:23:05Z</time>
      </trkpt>
      <trkpt lat="49.94274" lon="2.20568">
        <ele>47.9</ele>
        <time>2022-04-11T13:23:06Z</time>
      </trkpt>
      <trkpt lat="49.94275" lon="2.20566">
        <ele>48</ele>
        <time>2022-04-11T13:23:07Z</time>
      </trkpt>
      <trkpt lat="49.94276" lon="2.20565">
        <ele>48</ele>
        <time>2022-04-11T13:23:08Z</time>
      </trkpt>
      <trkpt lat="49.94277" lon="2.20564">
        <ele>48.1</ele>
        <time>2022-04-11T13:23:09Z</time>
      </trkpt>
      <trkpt lat="49.94278" lon="2.20563">
        <ele>48.1</ele>
        <time>2022-04-11T13:23:10Z</time>
      </trkpt>
      <trkpt lat="49.94279" lon="2.20562">
        <ele>48.1</ele>
        <time>2022-04-11T13:23:12Z</time>
      </trkpt>
      <trkpt lat="49.9428" lon="2.20561">
        <ele>48.2</ele>
        <time>2022-04-11T13:23:13Z</time>
      </trkpt>
      <trkpt lat="49.9428" lon="2.2056">
        <ele>48.2</ele>
        <time>2022-04-11T13:23:14Z</time>
      </trkpt>
      <trkpt lat="49.94281" lon="2.20559">
        <ele>48.2</ele>
        <time>2022-04-11T13:23:15Z</time>
      </trkpt>
      <trkpt lat="49.94282" lon="2.20557">
        <ele>48.3</ele>
        <time>2022-04-11T13:23:16Z</time>
      </trkpt>
      <trkpt lat="49.94283" lon="2.20556">
        <ele>48.3</ele>
        <time>2022-04-11T13:23:17Z</time>
      </trkpt>
      <trkpt lat="49.94284" lon="2.20553">
        <ele>48.4</ele>
        <time>2022-04-11T13:23:19Z</time>
      </trkpt>
      <trkpt lat="49.94285" lon="2.20552">
        <ele>48.4</ele>
        <time>2022-04-11T13:23:20Z</time>
      </trkpt>
      <trkpt lat="49.94286" lon="2.20552">
        <ele>48.4</ele>
        <time>2022-04-11T13:23:21Z</time>
      </trkpt>
      <trkpt lat="49.94286" lon="2.20551">
        <ele>48.4</ele>
        <time>2022-04-11T13:23:22Z</time>
      </trkpt>
      <trkpt lat="49.94287" lon="2.2055">
        <ele>48.5</ele>
        <time>2022-04-11T13:23:23Z</time>
      </trkpt>
      <trkpt lat="49.94288" lon="2.20548">
        <ele>48.5</ele>
        <time>2022-04-11T13:23:24Z</time>
      </trkpt>
      <trkpt lat="49.9429" lon="2.20546">
        <ele>48.5</ele>
        <time>2022-04-11T13:23:25Z</time>
      </trkpt>
      <trkpt lat="49.9429" lon="2.20544">
        <ele>48.6</ele>
        <time>2022-04-11T13:23:26Z</time>
      </trkpt>
      <trkpt lat="49.94291" lon="2.20543">
        <ele>48.6</ele>
        <time>2022-04-11T13:23:27Z</time>
      </trkpt>
      <trkpt lat="49.94292" lon="2.20541">
        <ele>48.6</ele>
        <time>2022-04-11T13:23:28Z</time>
      </trkpt>
      <trkpt lat="49.94292" lon="2.2054">
        <ele>48.7</ele>
        <time>2022-04-11T13:23:29Z</time>
      </trkpt>
      <trkpt lat="49.94293" lon="2.20539">
        <ele>48.7</ele>
        <time>2022-04-11T13:23:30Z</time>
      </trkpt>
      <trkpt lat="49.94295" lon="2.20536">
        <ele>48.7</ele>
        <time>2022-04-11T13:23:32Z</time>
      </trkpt>
      <trkpt lat="49.94295" lon="2.20536">
        <ele>48.8</ele>
        <time>2022-04-11T13:23:33Z</time>
      </trkpt>
      <trkpt lat="49.94296" lon="2.20535">
        <ele>48.8</ele>
        <time>2022-04-11T13:23:34Z</time>
      </trkpt>
      <trkpt lat="49.94297" lon="2.20534">
        <ele>48.8</ele>
        <time>2022-04-11T13:23:35Z</time>
      </trkpt>
      <trkpt lat="49.94297" lon="2.20532">
        <ele>48.8</ele>
        <time>2022-04-11T13:23:36Z</time>
      </trkpt>
      <trkpt lat="49.94299" lon="2.20531">
        <ele>48.9</ele>
        <time>2022-04-11T13:23:38Z</time>
      </trkpt>
      <trkpt lat="49.943" lon="2.20529">
        <ele>48.9</ele>
        <time>2022-04-11T13:23:39Z</time>
      </trkpt>
      <trkpt lat="49.94301" lon="2.20527">
        <ele>48.9</ele>
        <time>2022-04-11T13:23:40Z</time>
      </trkpt>
      <trkpt lat="49.94302" lon="2.20526">
        <ele>48.9</ele>
        <time>2022-04-11T13:23:41Z</time>
      </trkpt>
      <trkpt lat="49.94303" lon="2.20524">
        <ele>49</ele>
        <time>2022-04-11T13:23:42Z</time>
      </trkpt>
      <trkpt lat="49.94304" lon="2.20523">
        <ele>49</ele>
        <time>2022-04-11T13:23:43Z</time>
      </trkpt>
      <trkpt lat="49.94305" lon="2.20521">
        <ele>49</ele>
        <time>2022-04-11T13:23:44Z</time>
      </trkpt>
      <trkpt lat="49.94306" lon="2.2052">
        <ele>49</ele>
        <time>2022-04-11T13:23:45Z</time>
      </trkpt>
      <trkpt lat="49.94307" lon="2.20518">
        <ele>49.1</ele>
        <time>2022-04-11T13:23:46Z</time>
      </trkpt>
      <trkpt lat="49.94308" lon="2.20517">
        <ele>49.1</ele>
        <time>2022-04-11T13:23:47Z</time>
      </trkpt>
      <trkpt lat="49.9431" lon="2.20515">
        <ele>49.1</ele>
        <time>2022-04-11T13:23:49Z</time>
      </trkpt>
      <trkpt lat="49.94311" lon="2.20514">
        <ele>49.1</ele>
        <time>2022-04-11T13:23:50Z</time>
      </trkpt>
      <trkpt lat="49.94312" lon="2.20513">
        <ele>49.1</ele>
        <time>2022-04-11T13:23:51Z</time>
      </trkpt>
      <trkpt lat="49.94313" lon="2.20512">
        <ele>49.2</ele>
        <time>2022-04-11T13:23:52Z</time>
      </trkpt>
      <trkpt lat="49.94314" lon="2.20511">
        <ele>49.2</ele>
        <time>2022-04-11T13:23:53Z</time>
      </trkpt>
      <trkpt lat="49.94315" lon="2.2051">
        <ele>49.2</ele>
        <time>2022-04-11T13:23:54Z</time>
      </trkpt>
      <trkpt lat="49.94316" lon="2.20508">
        <ele>49.2</ele>
        <time>2022-04-11T13:23:55Z</time>
      </trkpt>
      <trkpt lat="49.94317" lon="2.20507">
        <ele>49.2</ele>
        <time>2022-04-11T13:23:57Z</time>
      </trkpt>
      <trkpt lat="49.94318" lon="2.20505">
        <ele>49.2</ele>
        <time>2022-04-11T13:23:58Z</time>
      </trkpt>
      <trkpt lat="49.94319" lon="2.20504">
        <ele>49.3</ele>
        <time>2022-04-11T13:23:59Z</time>
      </trkpt>
      <trkpt lat="49.9432" lon="2.20502">
        <ele>49.3</ele>
        <time>2022-04-11T13:24:00Z</time>
      </trkpt>
      <trkpt lat="49.94321" lon="2.20501">
        <ele>49.3</ele>
        <time>2022-04-11T13:24:01Z</time>
      </trkpt>
      <trkpt lat="49.94322" lon="2.205">
        <ele>49.3</ele>
        <time>2022-04-11T13:24:02Z</time>
      </trkpt>
      <trkpt lat="49.94324" lon="2.20498">
        <ele>49.3</ele>
        <time>2022-04-11T13:24:03Z</time>
      </trkpt>
      <trkpt lat="49.94324" lon="2.20497">
        <ele>49.3</ele>
        <time>2022-04-11T13:24:04Z</time>
      </trkpt>
      <trkpt lat="49.94325" lon="2.20496">
        <ele>49.3</ele>
        <time>2022-04-11T13:24:06Z</time>
      </trkpt>
      <trkpt lat="49.94326" lon="2.20495">
        <ele>49.3</ele>
        <time>2022-04-11T13:24:07Z</time>
      </trkpt>
      <trkpt lat="49.94327" lon="2.20494">
        <ele>49.3</ele>
        <time>2022-04-11T13:24:08Z</time>
      </trkpt>
      <trkpt lat="49.94328" lon="2.20493">
        <ele>49.3</ele>
        <time>2022-04-11T13:24:09Z</time>
      </trkpt>
      <trkpt lat="49.94329" lon="2.20492">
        <ele>49.3</ele>
        <time>2022-04-11T13:24:10Z</time>
      </trkpt>
      <trkpt lat="49.9433" lon="2.20491">
        <ele>49.3</ele>
        <time>2022-04-11T13:24:11Z</time>
      </trkpt>
      <trkpt lat="49.94332" lon="2.2049">
        <ele>49.3</ele>
        <time>2022-04-11T13:24:12Z</time>
      </trkpt>
      <trkpt lat="49.94333" lon="2.20489">
        <ele>49.3</ele>
        <time>2022-04-11T13:24:13Z</time>
      </trkpt>
      <trkpt lat="49.94334" lon="2.20489">
        <ele>49.3</ele>
        <time>2022-04-11T13:24:14Z</time>
      </trkpt>
      <trkpt lat="49.94335" lon="2.20488">
        <ele>49.3</ele>
        <time>2022-04-11T13:24:15Z</time>
      </trkpt>
      <trkpt lat="49.94336" lon="2.20487">
        <ele>49.3</ele>
        <time>2022-04-11T13:24:16Z</time>
      </trkpt>
      <trkpt lat="49.94337" lon="2.20486">
        <ele>49.3</ele>
        <time>2022-04-11T13:24:18Z</time>
      </trkpt>
      <trkpt lat="49.94339" lon="2.20485">
        <ele>49.3</ele>
        <time>2022-04-11T13:24:19Z</time>
      </trkpt>
      <trkpt lat="49.9434" lon="2.20484">
        <ele>49.3</ele>
        <time>2022-04-11T13:24:20Z</time>
      </trkpt>
      <trkpt lat="49.94341" lon="2.20483">
        <ele>49.3</ele>
        <time>2022-04-11T13:24:21Z</time>
      </trkpt>
      <trkpt lat="49.94341" lon="2.20482">
        <ele>49.3</ele>
        <time>2022-04-11T13:24:22Z</time>
      </trkpt>
      <trkpt lat="49.94342" lon="2.20481">
        <ele>49.3</ele>
        <time>2022-04-11T13:24:23Z</time>
      </trkpt>
      <trkpt lat="49.94343" lon="2.2048">
        <ele>49.3</ele>
        <time>2022-04-11T13:24:24Z</time>
      </trkpt>
      <trkpt lat="49.94344" lon="2.20479">
        <ele>49.3</ele>
        <time>2022-04-11T13:24:25Z</time>
      </trkpt>
      <trkpt lat="49.94346" lon="2.20478">
        <ele>49.3</ele>
        <time>2022-04-11T13:24:26Z</time>
      </trkpt>
      <trkpt lat="49.94347" lon="2.20477">
        <ele>49.2</ele>
        <time>2022-04-11T13:24:27Z</time>
      </trkpt>
      <trkpt lat="49.94348" lon="2.20475">
        <ele>49.2</ele>
        <time>2022-04-11T13:24:28Z</time>
      </trkpt>
      <trkpt lat="49.94349" lon="2.20474">
        <ele>49.2</ele>
        <time>2022-04-11T13:24:29Z</time>
      </trkpt>
      <trkpt lat="49.9435" lon="2.20473">
        <ele>49.2</ele>
        <time>2022-04-11T13:24:30Z</time>
      </trkpt>
      <trkpt lat="49.94352" lon="2.20472">
        <ele>49.2</ele>
        <time>2022-04-11T13:24:32Z</time>
      </trkpt>
      <trkpt lat="49.94353" lon="2.20471">
        <ele>49.2</ele>
        <time>2022-04-11T13:24:33Z</time>
      </trkpt>
      <trkpt lat="49.94354" lon="2.2047">
        <ele>49.1</ele>
        <time>2022-04-11T13:24:34Z</time>
      </trkpt>
      <trkpt lat="49.94356" lon="2.20469">
        <ele>49.1</ele>
        <time>2022-04-11T13:24:35Z</time>
      </trkpt>
      <trkpt lat="49.94357" lon="2.20468">
        <ele>49.1</ele>
        <time>2022-04-11T13:24:36Z</time>
      </trkpt>
      <trkpt lat="49.94357" lon="2.20467">
        <ele>49.1</ele>
        <time>2022-04-11T13:24:37Z</time>
      </trkpt>
      <trkpt lat="49.94359" lon="2.20465">
        <ele>49.1</ele>
        <time>2022-04-11T13:24:38Z</time>
      </trkpt>
      <trkpt lat="49.94359" lon="2.20464">
        <ele>49.1</ele>
        <time>2022-04-11T13:24:39Z</time>
      </trkpt>
      <trkpt lat="49.9436" lon="2.20464">
        <ele>49.1</ele>
        <time>2022-04-11T13:24:40Z</time>
      </trkpt>
      <trkpt lat="49.94361" lon="2.20462">
        <ele>49</ele>
        <time>2022-04-11T13:24:41Z</time>
      </trkpt>
      <trkpt lat="49.94362" lon="2.20461">
        <ele>49</ele>
        <time>2022-04-11T13:24:42Z</time>
      </trkpt>
      <trkpt lat="49.94363" lon="2.2046">
        <ele>49</ele>
        <time>2022-04-11T13:24:43Z</time>
      </trkpt>
      <trkpt lat="49.94364" lon="2.20459">
        <ele>49</ele>
        <time>2022-04-11T13:24:45Z</time>
      </trkpt>
      <trkpt lat="49.94364" lon="2.20458">
        <ele>49</ele>
        <time>2022-04-11T13:24:46Z</time>
      </trkpt>
      <trkpt lat="49.94365" lon="2.20456">
        <ele>49</ele>
        <time>2022-04-11T13:24:47Z</time>
      </trkpt>
      <trkpt lat="49.94366" lon="2.20455">
        <ele>48.9</ele>
        <time>2022-04-11T13:24:48Z</time>
      </trkpt>
      <trkpt lat="49.94367" lon="2.20454">
        <ele>48.9</ele>
        <time>2022-04-11T13:24:49Z</time>
      </trkpt>
      <trkpt lat="49.94368" lon="2.20453">
        <ele>48.9</ele>
        <time>2022-04-11T13:24:50Z</time>
      </trkpt>
      <trkpt lat="49.94369" lon="2.20451">
        <ele>48.9</ele>
        <time>2022-04-11T13:24:51Z</time>
      </trkpt>
      <trkpt lat="49.9437" lon="2.2045">
        <ele>48.9</ele>
        <time>2022-04-11T13:24:52Z</time>
      </trkpt>
      <trkpt lat="49.94371" lon="2.20448">
        <ele>48.8</ele>
        <time>2022-04-11T13:24:53Z</time>
      </trkpt>
      <trkpt lat="49.94372" lon="2.20447">
        <ele>48.8</ele>
        <time>2022-04-11T13:24:54Z</time>
      </trkpt>
      <trkpt lat="49.94373" lon="2.20445">
        <ele>48.8</ele>
        <time>2022-04-11T13:24:55Z</time>
      </trkpt>
      <trkpt lat="49.94374" lon="2.20444">
        <ele>48.8</ele>
        <time>2022-04-11T13:24:56Z</time>
      </trkpt>
      <trkpt lat="49.94375" lon="2.20443">
        <ele>48.8</ele>
        <time>2022-04-11T13:24:57Z</time>
      </trkpt>
      <trkpt lat="49.94376" lon="2.20441">
        <ele>48.7</ele>
        <time>2022-04-11T13:24:58Z</time>
      </trkpt>
      <trkpt lat="49.94377" lon="2.20439">
        <ele>48.7</ele>
        <time>2022-04-11T13:25:00Z</time>
      </trkpt>
      <trkpt lat="49.94378" lon="2.20438">
        <ele>48.7</ele>
        <time>2022-04-11T13:25:01Z</time>
      </trkpt>
      <trkpt lat="49.94379" lon="2.20437">
        <ele>48.7</ele>
        <time>2022-04-11T13:25:02Z</time>
      </trkpt>
      <trkpt lat="49.9438" lon="2.20436">
        <ele>48.6</ele>
        <time>2022-04-11T13:25:03Z</time>
      </trkpt>
      <trkpt lat="49.94381" lon="2.20434">
        <ele>48.6</ele>
        <time>2022-04-11T13:25:04Z</time>
      </trkpt>
      <trkpt lat="49.94382" lon="2.20433">
        <ele>48.6</ele>
        <time>2022-04-11T13:25:05Z</time>
      </trkpt>
      <trkpt lat="49.94383" lon="2.20431">
        <ele>48.5</ele>
        <time>2022-04-11T13:25:06Z</time>
      </trkpt>
      <trkpt lat="49.94384" lon="2.2043">
        <ele>48.5</ele>
        <time>2022-04-11T13:25:07Z</time>
      </trkpt>
      <trkpt lat="49.94385" lon="2.20428">
        <ele>48.5</ele>
        <time>2022-04-11T13:25:08Z</time>
      </trkpt>
      <trkpt lat="49.94387" lon="2.20427">
        <ele>48.4</ele>
        <time>2022-04-11T13:25:09Z</time>
      </trkpt>
      <trkpt lat="49.94387" lon="2.20426">
        <ele>48.4</ele>
        <time>2022-04-11T13:25:10Z</time>
      </trkpt>
      <trkpt lat="49.94388" lon="2.20425">
        <ele>48.4</ele>
        <time>2022-04-11T13:25:11Z</time>
      </trkpt>
      <trkpt lat="49.94389" lon="2.20424">
        <ele>48.4</ele>
        <time>2022-04-11T13:25:12Z</time>
      </trkpt>
      <trkpt lat="49.9439" lon="2.20422">
        <ele>48.3</ele>
        <time>2022-04-11T13:25:13Z</time>
      </trkpt>
      <trkpt lat="49.94391" lon="2.20421">
        <ele>48.3</ele>
        <time>2022-04-11T13:25:15Z</time>
      </trkpt>
      <trkpt lat="49.94392" lon="2.2042">
        <ele>48.3</ele>
        <time>2022-04-11T13:25:16Z</time>
      </trkpt>
      <trkpt lat="49.94392" lon="2.20418">
        <ele>48.2</ele>
        <time>2022-04-11T13:25:17Z</time>
      </trkpt>
      <trkpt lat="49.94393" lon="2.20417">
        <ele>48.2</ele>
        <time>2022-04-11T13:25:18Z</time>
      </trkpt>
      <trkpt lat="49.94394" lon="2.20415">
        <ele>48.2</ele>
        <time>2022-04-11T13:25:19Z</time>
      </trkpt>
      <trkpt lat="49.94395" lon="2.20413">
        <ele>48.1</ele>
        <time>2022-04-11T13:25:20Z</time>
      </trkpt>
      <trkpt lat="49.94396" lon="2.20412">
        <ele>48.1</ele>
        <time>2022-04-11T13:25:21Z</time>
      </trkpt>
      <trkpt lat="49.94396" lon="2.20411">
        <ele>48.1</ele>
        <time>2022-04-11T13:25:22Z</time>
      </trkpt>
      <trkpt lat="49.94397" lon="2.20409">
        <ele>48.1</ele>
        <time>2022-04-11T13:25:23Z</time>
      </trkpt>
      <trkpt lat="49.94397" lon="2.20408">
        <ele>48</ele>
        <time>2022-04-11T13:25:24Z</time>
      </trkpt>
      <trkpt lat="49.94398" lon="2.20406">
        <ele>48</ele>
        <time>2022-04-11T13:25:26Z</time>
      </trkpt>
      <trkpt lat="49.94399" lon="2.20403">
        <ele>48</ele>
        <time>2022-04-11T13:25:27Z</time>
      </trkpt>
      <trkpt lat="49.944" lon="2.20402">
        <ele>47.9</ele>
        <time>2022-04-11T13:25:28Z</time>
      </trkpt>
      <trkpt lat="49.944" lon="2.20401">
        <ele>47.9</ele>
        <time>2022-04-11T13:25:29Z</time>
      </trkpt>
      <trkpt lat="49.94402" lon="2.20399">
        <ele>47.9</ele>
        <time>2022-04-11T13:25:30Z</time>
      </trkpt>
      <trkpt lat="49.94403" lon="2.20398">
        <ele>47.8</ele>
        <time>2022-04-11T13:25:32Z</time>
      </trkpt>
      <trkpt lat="49.94404" lon="2.20397">
        <ele>47.8</ele>
        <time>2022-04-11T13:25:33Z</time>
      </trkpt>
      <trkpt lat="49.94405" lon="2.20396">
        <ele>47.8</ele>
        <time>2022-04-11T13:25:34Z</time>
      </trkpt>
      <trkpt lat="49.94406" lon="2.20395">
        <ele>47.7</ele>
        <time>2022-04-11T13:25:35Z</time>
      </trkpt>
      <trkpt lat="49.94407" lon="2.20393">
        <ele>47.7</ele>
        <time>2022-04-11T13:25:36Z</time>
      </trkpt>
      <trkpt lat="49.94408" lon="2.20391">
        <ele>47.7</ele>
        <time>2022-04-11T13:25:37Z</time>
      </trkpt>
      <trkpt lat="49.94409" lon="2.2039">
        <ele>47.6</ele>
        <time>2022-04-11T13:25:38Z</time>
      </trkpt>
      <trkpt lat="49.9441" lon="2.20388">
        <ele>47.6</ele>
        <time>2022-04-11T13:25:39Z</time>
      </trkpt>
      <trkpt lat="49.9441" lon="2.20386">
        <ele>47.6</ele>
        <time>2022-04-11T13:25:40Z</time>
      </trkpt>
      <trkpt lat="49.94411" lon="2.20385">
        <ele>47.6</ele>
        <time>2022-04-11T13:25:41Z</time>
      </trkpt>
      <trkpt lat="49.94412" lon="2.20384">
        <ele>47.5</ele>
        <time>2022-04-11T13:25:42Z</time>
      </trkpt>
      <trkpt lat="49.94413" lon="2.20383">
        <ele>47.5</ele>
        <time>2022-04-11T13:25:43Z</time>
      </trkpt>
      <trkpt lat="49.94413" lon="2.20381">
        <ele>47.5</ele>
        <time>2022-04-11T13:25:45Z</time>
      </trkpt>
      <trkpt lat="49.94414" lon="2.2038">
        <ele>47.5</ele>
        <time>2022-04-11T13:25:46Z</time>
      </trkpt>
      <trkpt lat="49.94415" lon="2.20378">
        <ele>47.4</ele>
        <time>2022-04-11T13:25:47Z</time>
      </trkpt>
      <trkpt lat="49.94415" lon="2.20376">
        <ele>47.4</ele>
        <time>2022-04-11T13:25:48Z</time>
      </trkpt>
      <trkpt lat="49.94416" lon="2.20375">
        <ele>47.4</ele>
        <time>2022-04-11T13:25:49Z</time>
      </trkpt>
      <trkpt lat="49.94416" lon="2.20374">
        <ele>47.3</ele>
        <time>2022-04-11T13:25:50Z</time>
      </trkpt>
      <trkpt lat="49.94417" lon="2.20372">
        <ele>47.3</ele>
        <time>2022-04-11T13:25:51Z</time>
      </trkpt>
      <trkpt lat="49.94418" lon="2.20371">
        <ele>47.3</ele>
        <time>2022-04-11T13:25:52Z</time>
      </trkpt>
      <trkpt lat="49.94419" lon="2.20371">
        <ele>47.3</ele>
        <time>2022-04-11T13:25:53Z</time>
      </trkpt>
      <trkpt lat="49.9442" lon="2.2037">
        <ele>47.2</ele>
        <time>2022-04-11T13:25:54Z</time>
      </trkpt>
      <trkpt lat="49.94421" lon="2.20369">
        <ele>47.2</ele>
        <time>2022-04-11T13:25:55Z</time>
      </trkpt>
      <trkpt lat="49.94422" lon="2.20367">
        <ele>47.2</ele>
        <time>2022-04-11T13:25:57Z</time>
      </trkpt>
      <trkpt lat="49.94423" lon="2.20366">
        <ele>47.1</ele>
        <time>2022-04-11T13:25:58Z</time>
      </trkpt>
      <trkpt lat="49.94424" lon="2.20366">
        <ele>47.1</ele>
        <time>2022-04-11T13:25:59Z</time>
      </trkpt>
      <trkpt lat="49.94425" lon="2.20364">
        <ele>47.1</ele>
        <time>2022-04-11T13:26:00Z</time>
      </trkpt>
      <trkpt lat="49.94426" lon="2.20363">
        <ele>47.1</ele>
        <time>2022-04-11T13:26:01Z</time>
      </trkpt>
      <trkpt lat="49.94427" lon="2.20362">
        <ele>47</ele>
        <time>2022-04-11T13:26:02Z</time>
      </trkpt>
      <trkpt lat="49.94428" lon="2.2036">
        <ele>47</ele>
        <time>2022-04-11T13:26:03Z</time>
      </trkpt>
      <trkpt lat="49.94429" lon="2.20359">
        <ele>47</ele>
        <time>2022-04-11T13:26:04Z</time>
      </trkpt>
      <trkpt lat="49.9443" lon="2.20357">
        <ele>46.9</ele>
        <time>2022-04-11T13:26:05Z</time>
      </trkpt>
      <trkpt lat="49.9443" lon="2.20356">
        <ele>46.9</ele>
        <time>2022-04-11T13:26:06Z</time>
      </trkpt>
      <trkpt lat="49.94431" lon="2.20355">
        <ele>46.9</ele>
        <time>2022-04-11T13:26:07Z</time>
      </trkpt>
      <trkpt lat="49.94432" lon="2.20354">
        <ele>46.8</ele>
        <time>2022-04-11T13:26:09Z</time>
      </trkpt>
      <trkpt lat="49.94433" lon="2.20352">
        <ele>46.8</ele>
        <time>2022-04-11T13:26:10Z</time>
      </trkpt>
      <trkpt lat="49.94435" lon="2.2035">
        <ele>46.7</ele>
        <time>2022-04-11T13:26:11Z</time>
      </trkpt>
      <trkpt lat="49.94436" lon="2.2035">
        <ele>46.7</ele>
        <time>2022-04-11T13:26:12Z</time>
      </trkpt>
      <trkpt lat="49.94437" lon="2.20349">
        <ele>46.7</ele>
        <time>2022-04-11T13:26:13Z</time>
      </trkpt>
      <trkpt lat="49.94438" lon="2.20348">
        <ele>46.6</ele>
        <time>2022-04-11T13:26:14Z</time>
      </trkpt>
      <trkpt lat="49.94439" lon="2.20347">
        <ele>46.6</ele>
        <time>2022-04-11T13:26:15Z</time>
      </trkpt>
      <trkpt lat="49.9444" lon="2.20346">
        <ele>46.5</ele>
        <time>2022-04-11T13:26:16Z</time>
      </trkpt>
      <trkpt lat="49.94441" lon="2.20345">
        <ele>46.5</ele>
        <time>2022-04-11T13:26:17Z</time>
      </trkpt>
      <trkpt lat="49.94442" lon="2.20344">
        <ele>46.5</ele>
        <time>2022-04-11T13:26:18Z</time>
      </trkpt>
      <trkpt lat="49.94443" lon="2.20342">
        <ele>46.4</ele>
        <time>2022-04-11T13:26:20Z</time>
      </trkpt>
      <trkpt lat="49.94444" lon="2.20341">
        <ele>46.4</ele>
        <time>2022-04-11T13:26:21Z</time>
      </trkpt>
      <trkpt lat="49.94445" lon="2.2034">
        <ele>46.4</ele>
        <time>2022-04-11T13:26:22Z</time>
      </trkpt>
      <trkpt lat="49.94446" lon="2.20338">
        <ele>46.3</ele>
        <time>2022-04-11T13:26:23Z</time>
      </trkpt>
      <trkpt lat="49.94447" lon="2.20337">
        <ele>46.3</ele>
        <time>2022-04-11T13:26:24Z</time>
      </trkpt>
      <trkpt lat="49.94447" lon="2.20336">
        <ele>46.2</ele>
        <time>2022-04-11T13:26:25Z</time>
      </trkpt>
      <trkpt lat="49.94449" lon="2.20334">
        <ele>46.2</ele>
        <time>2022-04-11T13:26:26Z</time>
      </trkpt>
      <trkpt lat="49.9445" lon="2.20333">
        <ele>46.2</ele>
        <time>2022-04-11T13:26:27Z</time>
      </trkpt>
      <trkpt lat="49.9445" lon="2.20332">
        <ele>46.1</ele>
        <time>2022-04-11T13:26:28Z</time>
      </trkpt>
      <trkpt lat="49.94452" lon="2.2033">
        <ele>46.1</ele>
        <time>2022-04-11T13:26:29Z</time>
      </trkpt>
      <trkpt lat="49.94452" lon="2.2033">
        <ele>46</ele>
        <time>2022-04-11T13:26:30Z</time>
      </trkpt>
      <trkpt lat="49.94453" lon="2.20329">
        <ele>46</ele>
        <time>2022-04-11T13:26:31Z</time>
      </trkpt>
      <trkpt lat="49.94455" lon="2.20327">
        <ele>46</ele>
        <time>2022-04-11T13:26:33Z</time>
      </trkpt>
      <trkpt lat="49.94455" lon="2.20326">
        <ele>45.9</ele>
        <time>2022-04-11T13:26:34Z</time>
      </trkpt>
      <trkpt lat="49.94456" lon="2.20325">
        <ele>45.9</ele>
        <time>2022-04-11T13:26:35Z</time>
      </trkpt>
      <trkpt lat="49.94457" lon="2.20324">
        <ele>45.9</ele>
        <time>2022-04-11T13:26:36Z</time>
      </trkpt>
      <trkpt lat="49.94458" lon="2.20323">
        <ele>45.8</ele>
        <time>2022-04-11T13:26:37Z</time>
      </trkpt>
      <trkpt lat="49.9446" lon="2.20321">
        <ele>45.8</ele>
        <time>2022-04-11T13:26:38Z</time>
      </trkpt>
      <trkpt lat="49.9446" lon="2.2032">
        <ele>45.8</ele>
        <time>2022-04-11T13:26:39Z</time>
      </trkpt>
      <trkpt lat="49.94461" lon="2.20319">
        <ele>45.7</ele>
        <time>2022-04-11T13:26:40Z</time>
      </trkpt>
      <trkpt lat="49.94462" lon="2.20318">
        <ele>45.7</ele>
        <time>2022-04-11T13:26:41Z</time>
      </trkpt>
      <trkpt lat="49.94463" lon="2.20316">
        <ele>45.7</ele>
        <time>2022-04-11T13:26:42Z</time>
      </trkpt>
      <trkpt lat="49.94463" lon="2.20315">
        <ele>45.7</ele>
        <time>2022-04-11T13:26:43Z</time>
      </trkpt>
      <trkpt lat="49.94464" lon="2.20314">
        <ele>45.6</ele>
        <time>2022-04-11T13:26:44Z</time>
      </trkpt>
      <trkpt lat="49.94465" lon="2.20313">
        <ele>45.6</ele>
        <time>2022-04-11T13:26:45Z</time>
      </trkpt>
      <trkpt lat="49.94465" lon="2.20311">
        <ele>45.6</ele>
        <time>2022-04-11T13:26:46Z</time>
      </trkpt>
      <trkpt lat="49.94466" lon="2.2031">
        <ele>45.5</ele>
        <time>2022-04-11T13:26:48Z</time>
      </trkpt>
      <trkpt lat="49.94467" lon="2.20309">
        <ele>45.5</ele>
        <time>2022-04-11T13:26:49Z</time>
      </trkpt>
      <trkpt lat="49.94468" lon="2.20307">
        <ele>45.5</ele>
        <time>2022-04-11T13:26:50Z</time>
      </trkpt>
      <trkpt lat="49.94469" lon="2.20305">
        <ele>45.4</ele>
        <time>2022-04-11T13:26:51Z</time>
      </trkpt>
      <trkpt lat="49.9447" lon="2.20304">
        <ele>45.4</ele>
        <time>2022-04-11T13:26:52Z</time>
      </trkpt>
      <trkpt lat="49.9447" lon="2.20303">
        <ele>45.4</ele>
        <time>2022-04-11T13:26:53Z</time>
      </trkpt>
      <trkpt lat="49.94471" lon="2.20301">
        <ele>45.4</ele>
        <time>2022-04-11T13:26:54Z</time>
      </trkpt>
      <trkpt lat="49.94472" lon="2.20299">
        <ele>45.3</ele>
        <time>2022-04-11T13:26:56Z</time>
      </trkpt>
      <trkpt lat="49.94473" lon="2.20298">
        <ele>45.3</ele>
        <time>2022-04-11T13:26:57Z</time>
      </trkpt>
      <trkpt lat="49.94474" lon="2.20297">
        <ele>45.3</ele>
        <time>2022-04-11T13:26:58Z</time>
      </trkpt>
      <trkpt lat="49.94475" lon="2.20296">
        <ele>45.3</ele>
        <time>2022-04-11T13:26:59Z</time>
      </trkpt>
      <trkpt lat="49.94477" lon="2.20295">
        <ele>45.2</ele>
        <time>2022-04-11T13:27:00Z</time>
      </trkpt>
      <trkpt lat="49.94477" lon="2.20294">
        <ele>45.2</ele>
        <time>2022-04-11T13:27:01Z</time>
      </trkpt>
      <trkpt lat="49.94478" lon="2.20293">
        <ele>45.2</ele>
        <time>2022-04-11T13:27:02Z</time>
      </trkpt>
      <trkpt lat="49.94479" lon="2.20292">
        <ele>45.2</ele>
        <time>2022-04-11T13:27:03Z</time>
      </trkpt>
      <trkpt lat="49.9448" lon="2.20291">
        <ele>45.1</ele>
        <time>2022-04-11T13:27:04Z</time>
      </trkpt>
      <trkpt lat="49.94481" lon="2.2029">
        <ele>45.1</ele>
        <time>2022-04-11T13:27:05Z</time>
      </trkpt>
      <trkpt lat="49.94482" lon="2.20289">
        <ele>45.1</ele>
        <time>2022-04-11T13:27:06Z</time>
      </trkpt>
      <trkpt lat="49.94484" lon="2.20288">
        <ele>45.1</ele>
        <time>2022-04-11T13:27:08Z</time>
      </trkpt>
      <trkpt lat="49.94484" lon="2.2029">
        <ele>45</ele>
        <time>2022-04-11T13:27:09Z</time>
      </trkpt>
      <trkpt lat="49.94484" lon="2.20291">
        <ele>45</ele>
        <time>2022-04-11T13:27:10Z</time>
      </trkpt>
      <trkpt lat="49.94483" lon="2.20292">
        <ele>45</ele>
        <time>2022-04-11T13:27:11Z</time>
      </trkpt>
      <trkpt lat="49.94483" lon="2.20293">
        <ele>45</ele>
        <time>2022-04-11T13:27:12Z</time>
      </trkpt>
      <trkpt lat="49.94483" lon="2.20294">
        <ele>45</ele>
        <time>2022-04-11T13:27:13Z</time>
      </trkpt>
      <trkpt lat="49.94483" lon="2.20293">
        <ele>45</ele>
        <time>2022-04-11T13:27:14Z</time>
      </trkpt>
      <trkpt lat="49.94484" lon="2.20293">
        <ele>45</ele>
        <time>2022-04-11T13:27:15Z</time>
      </trkpt>
      <trkpt lat="49.94484" lon="2.20292">
        <ele>45</ele>
        <time>2022-04-11T13:27:16Z</time>
      </trkpt>
      <trkpt lat="49.94484" lon="2.20292">
        <ele>45</ele>
        <time>2022-04-11T13:27:17Z</time>
      </trkpt>
      <trkpt lat="49.94485" lon="2.20291">
        <ele>45</ele>
        <time>2022-04-11T13:27:18Z</time>
      </trkpt>
      <trkpt lat="49.94485" lon="2.20291">
        <ele>45</ele>
        <time>2022-04-11T13:27:19Z</time>
      </trkpt>
      <trkpt lat="49.94486" lon="2.20291">
        <ele>45</ele>
        <time>2022-04-11T13:27:20Z</time>
      </trkpt>
      <trkpt lat="49.94486" lon="2.2029">
        <ele>44.9</ele>
        <time>2022-04-11T13:27:21Z</time>
      </trkpt>
      <trkpt lat="49.94487" lon="2.20289">
        <ele>44.9</ele>
        <time>2022-04-11T13:27:23Z</time>
      </trkpt>
      <trkpt lat="49.94489" lon="2.20287">
        <ele>44.9</ele>
        <time>2022-04-11T13:27:24Z</time>
      </trkpt>
      <trkpt lat="49.9449" lon="2.20285">
        <ele>44.9</ele>
        <time>2022-04-11T13:27:25Z</time>
      </trkpt>
      <trkpt lat="49.94491" lon="2.20283">
        <ele>44.9</ele>
        <time>2022-04-11T13:27:26Z</time>
      </trkpt>
      <trkpt lat="49.94492" lon="2.20281">
        <ele>44.8</ele>
        <time>2022-04-11T13:27:27Z</time>
      </trkpt>
      <trkpt lat="49.94493" lon="2.2028">
        <ele>44.8</ele>
        <time>2022-04-11T13:27:28Z</time>
      </trkpt>
      <trkpt lat="49.94495" lon="2.20278">
        <ele>44.8</ele>
        <time>2022-04-11T13:27:30Z</time>
      </trkpt>
      <trkpt lat="49.94496" lon="2.20276">
        <ele>44.8</ele>
        <time>2022-04-11T13:27:31Z</time>
      </trkpt>
      <trkpt lat="49.94497" lon="2.20275">
        <ele>44.8</ele>
        <time>2022-04-11T13:27:32Z</time>
      </trkpt>
      <trkpt lat="49.94498" lon="2.20273">
        <ele>44.8</ele>
        <time>2022-04-11T13:27:33Z</time>
      </trkpt>
      <trkpt lat="49.945" lon="2.20271">
        <ele>44.7</ele>
        <time>2022-04-11T13:27:34Z</time>
      </trkpt>
      <trkpt lat="49.94501" lon="2.2027">
        <ele>44.7</ele>
        <time>2022-04-11T13:27:35Z</time>
      </trkpt>
      <trkpt lat="49.94502" lon="2.2027">
        <ele>44.7</ele>
        <time>2022-04-11T13:27:36Z</time>
      </trkpt>
      <trkpt lat="49.94503" lon="2.20268">
        <ele>44.7</ele>
        <time>2022-04-11T13:27:37Z</time>
      </trkpt>
      <trkpt lat="49.94504" lon="2.20267">
        <ele>44.7</ele>
        <time>2022-04-11T13:27:38Z</time>
      </trkpt>
      <trkpt lat="49.94505" lon="2.20265">
        <ele>44.7</ele>
        <time>2022-04-11T13:27:39Z</time>
      </trkpt>
      <trkpt lat="49.94506" lon="2.20264">
        <ele>44.7</ele>
        <time>2022-04-11T13:27:40Z</time>
      </trkpt>
      <trkpt lat="49.94507" lon="2.20263">
        <ele>44.6</ele>
        <time>2022-04-11T13:27:41Z</time>
      </trkpt>
      <trkpt lat="49.94508" lon="2.20262">
        <ele>44.6</ele>
        <time>2022-04-11T13:27:42Z</time>
      </trkpt>
      <trkpt lat="49.94509" lon="2.20261">
        <ele>44.6</ele>
        <time>2022-04-11T13:27:43Z</time>
      </trkpt>
      <trkpt lat="49.94511" lon="2.20259">
        <ele>44.6</ele>
        <time>2022-04-11T13:27:44Z</time>
      </trkpt>
      <trkpt lat="49.94511" lon="2.20259">
        <ele>44.6</ele>
        <time>2022-04-11T13:27:45Z</time>
      </trkpt>
      <trkpt lat="49.94512" lon="2.20258">
        <ele>44.6</ele>
        <time>2022-04-11T13:27:46Z</time>
      </trkpt>
      <trkpt lat="49.94514" lon="2.20256">
        <ele>44.6</ele>
        <time>2022-04-11T13:27:48Z</time>
      </trkpt>
      <trkpt lat="49.94515" lon="2.20255">
        <ele>44.6</ele>
        <time>2022-04-11T13:27:49Z</time>
      </trkpt>
      <trkpt lat="49.94516" lon="2.20255">
        <ele>44.6</ele>
        <time>2022-04-11T13:27:50Z</time>
      </trkpt>
      <trkpt lat="49.94517" lon="2.20254">
        <ele>44.6</ele>
        <time>2022-04-11T13:27:51Z</time>
      </trkpt>
      <trkpt lat="49.94518" lon="2.20253">
        <ele>44.6</ele>
        <time>2022-04-11T13:27:52Z</time>
      </trkpt>
      <trkpt lat="49.9452" lon="2.20252">
        <ele>44.6</ele>
        <time>2022-04-11T13:27:53Z</time>
      </trkpt>
      <trkpt lat="49.94521" lon="2.20251">
        <ele>44.6</ele>
        <time>2022-04-11T13:27:54Z</time>
      </trkpt>
      <trkpt lat="49.94521" lon="2.2025">
        <ele>44.6</ele>
        <time>2022-04-11T13:27:55Z</time>
      </trkpt>
      <trkpt lat="49.94523" lon="2.20249">
        <ele>44.5</ele>
        <time>2022-04-11T13:27:56Z</time>
      </trkpt>
      <trkpt lat="49.94524" lon="2.20248">
        <ele>44.5</ele>
        <time>2022-04-11T13:27:57Z</time>
      </trkpt>
      <trkpt lat="49.94526" lon="2.20247">
        <ele>44.5</ele>
        <time>2022-04-11T13:27:59Z</time>
      </trkpt>
      <trkpt lat="49.94526" lon="2.20246">
        <ele>44.5</ele>
        <time>2022-04-11T13:28:00Z</time>
      </trkpt>
      <trkpt lat="49.94528" lon="2.20244">
        <ele>44.5</ele>
        <time>2022-04-11T13:28:01Z</time>
      </trkpt>
      <trkpt lat="49.94529" lon="2.20243">
        <ele>44.5</ele>
        <time>2022-04-11T13:28:02Z</time>
      </trkpt>
      <trkpt lat="49.94529" lon="2.20242">
        <ele>44.4</ele>
        <time>2022-04-11T13:28:03Z</time>
      </trkpt>
      <trkpt lat="49.9453" lon="2.20241">
        <ele>44.4</ele>
        <time>2022-04-11T13:28:04Z</time>
      </trkpt>
      <trkpt lat="49.94532" lon="2.20238">
        <ele>44.4</ele>
        <time>2022-04-11T13:28:06Z</time>
      </trkpt>
      <trkpt lat="49.94533" lon="2.20237">
        <ele>44.4</ele>
        <time>2022-04-11T13:28:07Z</time>
      </trkpt>
      <trkpt lat="49.94534" lon="2.20235">
        <ele>44.4</ele>
        <time>2022-04-11T13:28:08Z</time>
      </trkpt>
      <trkpt lat="49.94535" lon="2.20233">
        <ele>44.3</ele>
        <time>2022-04-11T13:28:09Z</time>
      </trkpt>
      <trkpt lat="49.94536" lon="2.20232">
        <ele>44.3</ele>
        <time>2022-04-11T13:28:10Z</time>
      </trkpt>
      <trkpt lat="49.94537" lon="2.2023">
        <ele>44.3</ele>
        <time>2022-04-11T13:28:11Z</time>
      </trkpt>
      <trkpt lat="49.94538" lon="2.20229">
        <ele>44.3</ele>
        <time>2022-04-11T13:28:12Z</time>
      </trkpt>
      <trkpt lat="49.94539" lon="2.20227">
        <ele>44.3</ele>
        <time>2022-04-11T13:28:13Z</time>
      </trkpt>
      <trkpt lat="49.9454" lon="2.20226">
        <ele>44.3</ele>
        <time>2022-04-11T13:28:14Z</time>
      </trkpt>
      <trkpt lat="49.94541" lon="2.20224">
        <ele>44.3</ele>
        <time>2022-04-11T13:28:15Z</time>
      </trkpt>
      <trkpt lat="49.94542" lon="2.20222">
        <ele>44.3</ele>
        <time>2022-04-11T13:28:17Z</time>
      </trkpt>
      <trkpt lat="49.94543" lon="2.20221">
        <ele>44.3</ele>
        <time>2022-04-11T13:28:18Z</time>
      </trkpt>
      <trkpt lat="49.94544" lon="2.20221">
        <ele>44.3</ele>
        <time>2022-04-11T13:28:19Z</time>
      </trkpt>
      <trkpt lat="49.94545" lon="2.20219">
        <ele>44.3</ele>
        <time>2022-04-11T13:28:20Z</time>
      </trkpt>
      <trkpt lat="49.94546" lon="2.20218">
        <ele>44.2</ele>
        <time>2022-04-11T13:28:21Z</time>
      </trkpt>
      <trkpt lat="49.94547" lon="2.20216">
        <ele>44.2</ele>
        <time>2022-04-11T13:28:22Z</time>
      </trkpt>
      <trkpt lat="49.94548" lon="2.20215">
        <ele>44.2</ele>
        <time>2022-04-11T13:28:23Z</time>
      </trkpt>
      <trkpt lat="49.94548" lon="2.20213">
        <ele>44.2</ele>
        <time>2022-04-11T13:28:24Z</time>
      </trkpt>
      <trkpt lat="49.94549" lon="2.20211">
        <ele>44.2</ele>
        <time>2022-04-11T13:28:25Z</time>
      </trkpt>
      <trkpt lat="49.9455" lon="2.20209">
        <ele>44.2</ele>
        <time>2022-04-11T13:28:26Z</time>
      </trkpt>
      <trkpt lat="49.94551" lon="2.20207">
        <ele>44.2</ele>
        <time>2022-04-11T13:28:28Z</time>
      </trkpt>
      <trkpt lat="49.94551" lon="2.20205">
        <ele>44.2</ele>
        <time>2022-04-11T13:28:29Z</time>
      </trkpt>
      <trkpt lat="49.94552" lon="2.20203">
        <ele>44.2</ele>
        <time>2022-04-11T13:28:30Z</time>
      </trkpt>
      <trkpt lat="49.94553" lon="2.20201">
        <ele>44.2</ele>
        <time>2022-04-11T13:28:31Z</time>
      </trkpt>
      <trkpt lat="49.94553" lon="2.20199">
        <ele>44.2</ele>
        <time>2022-04-11T13:28:32Z</time>
      </trkpt>
      <trkpt lat="49.94554" lon="2.20196">
        <ele>44.2</ele>
        <time>2022-04-11T13:28:34Z</time>
      </trkpt>
      <trkpt lat="49.94555" lon="2.20195">
        <ele>44.2</ele>
        <time>2022-04-11T13:28:35Z</time>
      </trkpt>
      <trkpt lat="49.94556" lon="2.20193">
        <ele>44.2</ele>
        <time>2022-04-11T13:28:36Z</time>
      </trkpt>
      <trkpt lat="49.94556" lon="2.20192">
        <ele>44.2</ele>
        <time>2022-04-11T13:28:37Z</time>
      </trkpt>
      <trkpt lat="49.94557" lon="2.20191">
        <ele>44.2</ele>
        <time>2022-04-11T13:28:38Z</time>
      </trkpt>
      <trkpt lat="49.94558" lon="2.20188">
        <ele>44.2</ele>
        <time>2022-04-11T13:28:39Z</time>
      </trkpt>
      <trkpt lat="49.94558" lon="2.20187">
        <ele>44.2</ele>
        <time>2022-04-11T13:28:40Z</time>
      </trkpt>
      <trkpt lat="49.94559" lon="2.20186">
        <ele>44.2</ele>
        <time>2022-04-11T13:28:41Z</time>
      </trkpt>
      <trkpt lat="49.94559" lon="2.20184">
        <ele>44.2</ele>
        <time>2022-04-11T13:28:42Z</time>
      </trkpt>
      <trkpt lat="49.9456" lon="2.20182">
        <ele>44.2</ele>
        <time>2022-04-11T13:28:43Z</time>
      </trkpt>
      <trkpt lat="49.9456" lon="2.2018">
        <ele>44.2</ele>
        <time>2022-04-11T13:28:44Z</time>
      </trkpt>
      <trkpt lat="49.9456" lon="2.20179">
        <ele>44.3</ele>
        <time>2022-04-11T13:28:45Z</time>
      </trkpt>
      <trkpt lat="49.94561" lon="2.20177">
        <ele>44.3</ele>
        <time>2022-04-11T13:28:46Z</time>
      </trkpt>
      <trkpt lat="49.94561" lon="2.20175">
        <ele>44.3</ele>
        <time>2022-04-11T13:28:48Z</time>
      </trkpt>
      <trkpt lat="49.94561" lon="2.20174">
        <ele>44.3</ele>
        <time>2022-04-11T13:28:49Z</time>
      </trkpt>
      <trkpt lat="49.94562" lon="2.20172">
        <ele>44.3</ele>
        <time>2022-04-11T13:28:50Z</time>
      </trkpt>
      <trkpt lat="49.94562" lon="2.2017">
        <ele>44.3</ele>
        <time>2022-04-11T13:28:51Z</time>
      </trkpt>
      <trkpt lat="49.94563" lon="2.20168">
        <ele>44.3</ele>
        <time>2022-04-11T13:28:52Z</time>
      </trkpt>
      <trkpt lat="49.94563" lon="2.20166">
        <ele>44.3</ele>
        <time>2022-04-11T13:28:53Z</time>
      </trkpt>
      <trkpt lat="49.94565" lon="2.20164">
        <ele>44.3</ele>
        <time>2022-04-11T13:28:54Z</time>
      </trkpt>
      <trkpt lat="49.94565" lon="2.20163">
        <ele>44.3</ele>
        <time>2022-04-11T13:28:55Z</time>
      </trkpt>
      <trkpt lat="49.94566" lon="2.20162">
        <ele>44.3</ele>
        <time>2022-04-11T13:28:56Z</time>
      </trkpt>
      <trkpt lat="49.94567" lon="2.2016">
        <ele>44.3</ele>
        <time>2022-04-11T13:28:57Z</time>
      </trkpt>
      <trkpt lat="49.94567" lon="2.20158">
        <ele>44.3</ele>
        <time>2022-04-11T13:28:58Z</time>
      </trkpt>
      <trkpt lat="49.94568" lon="2.20156">
        <ele>44.4</ele>
        <time>2022-04-11T13:29:00Z</time>
      </trkpt>
      <trkpt lat="49.94569" lon="2.20154">
        <ele>44.4</ele>
        <time>2022-04-11T13:29:01Z</time>
      </trkpt>
      <trkpt lat="49.9457" lon="2.20151">
        <ele>44.4</ele>
        <time>2022-04-11T13:29:02Z</time>
      </trkpt>
      <trkpt lat="49.9457" lon="2.2015">
        <ele>44.4</ele>
        <time>2022-04-11T13:29:03Z</time>
      </trkpt>
      <trkpt lat="49.9457" lon="2.20149">
        <ele>44.4</ele>
        <time>2022-04-11T13:29:04Z</time>
      </trkpt>
      <trkpt lat="49.94571" lon="2.20147">
        <ele>44.4</ele>
        <time>2022-04-11T13:29:05Z</time>
      </trkpt>
      <trkpt lat="49.94572" lon="2.20145">
        <ele>44.5</ele>
        <time>2022-04-11T13:29:06Z</time>
      </trkpt>
      <trkpt lat="49.94572" lon="2.20143">
        <ele>44.5</ele>
        <time>2022-04-11T13:29:07Z</time>
      </trkpt>
      <trkpt lat="49.94573" lon="2.20141">
        <ele>44.5</ele>
        <time>2022-04-11T13:29:08Z</time>
      </trkpt>
      <trkpt lat="49.94574" lon="2.20139">
        <ele>44.5</ele>
        <time>2022-04-11T13:29:09Z</time>
      </trkpt>
      <trkpt lat="49.94574" lon="2.20137">
        <ele>44.6</ele>
        <time>2022-04-11T13:29:10Z</time>
      </trkpt>
      <trkpt lat="49.94575" lon="2.20136">
        <ele>44.6</ele>
        <time>2022-04-11T13:29:12Z</time>
      </trkpt>
      <trkpt lat="49.94576" lon="2.20133">
        <ele>44.6</ele>
        <time>2022-04-11T13:29:13Z</time>
      </trkpt>
      <trkpt lat="49.94576" lon="2.20132">
        <ele>44.6</ele>
        <time>2022-04-11T13:29:14Z</time>
      </trkpt>
      <trkpt lat="49.94577" lon="2.20131">
        <ele>44.6</ele>
        <time>2022-04-11T13:29:15Z</time>
      </trkpt>
      <trkpt lat="49.94577" lon="2.20129">
        <ele>44.7</ele>
        <time>2022-04-11T13:29:16Z</time>
      </trkpt>
      <trkpt lat="49.94577" lon="2.20127">
        <ele>44.7</ele>
        <time>2022-04-11T13:29:17Z</time>
      </trkpt>
      <trkpt lat="49.94578" lon="2.20124">
        <ele>44.7</ele>
        <time>2022-04-11T13:29:19Z</time>
      </trkpt>
      <trkpt lat="49.94579" lon="2.20121">
        <ele>44.8</ele>
        <time>2022-04-11T13:29:20Z</time>
      </trkpt>
      <trkpt lat="49.9458" lon="2.2012">
        <ele>44.8</ele>
        <time>2022-04-11T13:29:21Z</time>
      </trkpt>
      <trkpt lat="49.9458" lon="2.20119">
        <ele>44.8</ele>
        <time>2022-04-11T13:29:22Z</time>
      </trkpt>
      <trkpt lat="49.94581" lon="2.20117">
        <ele>44.9</ele>
        <time>2022-04-11T13:29:23Z</time>
      </trkpt>
      <trkpt lat="49.94582" lon="2.20116">
        <ele>44.9</ele>
        <time>2022-04-11T13:29:24Z</time>
      </trkpt>
      <trkpt lat="49.94583" lon="2.20114">
        <ele>44.9</ele>
        <time>2022-04-11T13:29:26Z</time>
      </trkpt>
      <trkpt lat="49.94583" lon="2.20113">
        <ele>44.9</ele>
        <time>2022-04-11T13:29:27Z</time>
      </trkpt>
      <trkpt lat="49.94584" lon="2.20111">
        <ele>45</ele>
        <time>2022-04-11T13:29:28Z</time>
      </trkpt>
      <trkpt lat="49.94584" lon="2.2011">
        <ele>45</ele>
        <time>2022-04-11T13:29:29Z</time>
      </trkpt>
      <trkpt lat="49.94585" lon="2.20109">
        <ele>45</ele>
        <time>2022-04-11T13:29:30Z</time>
      </trkpt>
      <trkpt lat="49.94586" lon="2.20107">
        <ele>45.1</ele>
        <time>2022-04-11T13:29:31Z</time>
      </trkpt>
      <trkpt lat="49.94587" lon="2.20103">
        <ele>45.1</ele>
        <time>2022-04-11T13:29:32Z</time>
      </trkpt>
      <trkpt lat="49.94587" lon="2.20102">
        <ele>45.2</ele>
        <time>2022-04-11T13:29:34Z</time>
      </trkpt>
      <trkpt lat="49.94588" lon="2.201">
        <ele>45.2</ele>
        <time>2022-04-11T13:29:35Z</time>
      </trkpt>
      <trkpt lat="49.94588" lon="2.20098">
        <ele>45.2</ele>
        <time>2022-04-11T13:29:36Z</time>
      </trkpt>
      <trkpt lat="49.94589" lon="2.20097">
        <ele>45.2</ele>
        <time>2022-04-11T13:29:37Z</time>
      </trkpt>
      <trkpt lat="49.9459" lon="2.20094">
        <ele>45.3</ele>
        <time>2022-04-11T13:29:38Z</time>
      </trkpt>
      <trkpt lat="49.94591" lon="2.20093">
        <ele>45.3</ele>
        <time>2022-04-11T13:29:39Z</time>
      </trkpt>
      <trkpt lat="49.94591" lon="2.20092">
        <ele>45.3</ele>
        <time>2022-04-11T13:29:40Z</time>
      </trkpt>
      <trkpt lat="49.94592" lon="2.2009">
        <ele>45.4</ele>
        <time>2022-04-11T13:29:41Z</time>
      </trkpt>
      <trkpt lat="49.94592" lon="2.20087">
        <ele>45.5</ele>
        <time>2022-04-11T13:29:43Z</time>
      </trkpt>
      <trkpt lat="49.94593" lon="2.20085">
        <ele>45.5</ele>
        <time>2022-04-11T13:29:44Z</time>
      </trkpt>
      <trkpt lat="49.94594" lon="2.20083">
        <ele>45.5</ele>
        <time>2022-04-11T13:29:45Z</time>
      </trkpt>
      <trkpt lat="49.94595" lon="2.2008">
        <ele>45.6</ele>
        <time>2022-04-11T13:29:46Z</time>
      </trkpt>
      <trkpt lat="49.94595" lon="2.20079">
        <ele>45.6</ele>
        <time>2022-04-11T13:29:47Z</time>
      </trkpt>
      <trkpt lat="49.94595" lon="2.20078">
        <ele>45.7</ele>
        <time>2022-04-11T13:29:48Z</time>
      </trkpt>
      <trkpt lat="49.94596" lon="2.20077">
        <ele>45.7</ele>
        <time>2022-04-11T13:29:49Z</time>
      </trkpt>
      <trkpt lat="49.94597" lon="2.20074">
        <ele>45.8</ele>
        <time>2022-04-11T13:29:51Z</time>
      </trkpt>
      <trkpt lat="49.94597" lon="2.20071">
        <ele>45.8</ele>
        <time>2022-04-11T13:29:52Z</time>
      </trkpt>
      <trkpt lat="49.94598" lon="2.20069">
        <ele>45.9</ele>
        <time>2022-04-11T13:29:53Z</time>
      </trkpt>
      <trkpt lat="49.94599" lon="2.20067">
        <ele>46</ele>
        <time>2022-04-11T13:29:54Z</time>
      </trkpt>
      <trkpt lat="49.94599" lon="2.20065">
        <ele>46</ele>
        <time>2022-04-11T13:29:55Z</time>
      </trkpt>
      <trkpt lat="49.946" lon="2.20063">
        <ele>46.1</ele>
        <time>2022-04-11T13:29:56Z</time>
      </trkpt>
      <trkpt lat="49.94601" lon="2.2006">
        <ele>46.2</ele>
        <time>2022-04-11T13:29:58Z</time>
      </trkpt>
      <trkpt lat="49.94602" lon="2.20057">
        <ele>46.3</ele>
        <time>2022-04-11T13:29:59Z</time>
      </trkpt>
      <trkpt lat="49.94603" lon="2.20056">
        <ele>46.3</ele>
        <time>2022-04-11T13:30:00Z</time>
      </trkpt>
      <trkpt lat="49.94603" lon="2.20055">
        <ele>46.4</ele>
        <time>2022-04-11T13:30:01Z</time>
      </trkpt>
      <trkpt lat="49.94604" lon="2.20053">
        <ele>46.4</ele>
        <time>2022-04-11T13:30:02Z</time>
      </trkpt>
      <trkpt lat="49.94605" lon="2.20051">
        <ele>46.5</ele>
        <time>2022-04-11T13:30:03Z</time>
      </trkpt>
      <trkpt lat="49.94606" lon="2.2005">
        <ele>46.6</ele>
        <time>2022-04-11T13:30:04Z</time>
      </trkpt>
      <trkpt lat="49.94606" lon="2.20048">
        <ele>46.6</ele>
        <time>2022-04-11T13:30:06Z</time>
      </trkpt>
      <trkpt lat="49.94607" lon="2.20047">
        <ele>46.7</ele>
        <time>2022-04-11T13:30:07Z</time>
      </trkpt>
      <trkpt lat="49.94608" lon="2.20046">
        <ele>46.7</ele>
        <time>2022-04-11T13:30:08Z</time>
      </trkpt>
      <trkpt lat="49.94609" lon="2.20045">
        <ele>46.8</ele>
        <time>2022-04-11T13:30:09Z</time>
      </trkpt>
      <trkpt lat="49.94609" lon="2.20043">
        <ele>46.8</ele>
        <time>2022-04-11T13:30:10Z</time>
      </trkpt>
      <trkpt lat="49.9461" lon="2.20041">
        <ele>46.9</ele>
        <time>2022-04-11T13:30:11Z</time>
      </trkpt>
      <trkpt lat="49.94611" lon="2.2004">
        <ele>47</ele>
        <time>2022-04-11T13:30:12Z</time>
      </trkpt>
      <trkpt lat="49.94611" lon="2.20037">
        <ele>47</ele>
        <time>2022-04-11T13:30:13Z</time>
      </trkpt>
      <trkpt lat="49.94612" lon="2.20036">
        <ele>47.1</ele>
        <time>2022-04-11T13:30:14Z</time>
      </trkpt>
      <trkpt lat="49.94613" lon="2.20034">
        <ele>47.1</ele>
        <time>2022-04-11T13:30:15Z</time>
      </trkpt>
      <trkpt lat="49.94613" lon="2.20033">
        <ele>47.2</ele>
        <time>2022-04-11T13:30:16Z</time>
      </trkpt>
      <trkpt lat="49.94614" lon="2.20032">
        <ele>47.2</ele>
        <time>2022-04-11T13:30:17Z</time>
      </trkpt>
      <trkpt lat="49.94615" lon="2.2003">
        <ele>47.3</ele>
        <time>2022-04-11T13:30:18Z</time>
      </trkpt>
      <trkpt lat="49.94615" lon="2.20028">
        <ele>47.4</ele>
        <time>2022-04-11T13:30:20Z</time>
      </trkpt>
      <trkpt lat="49.94616" lon="2.20027">
        <ele>47.4</ele>
        <time>2022-04-11T13:30:21Z</time>
      </trkpt>
      <trkpt lat="49.94617" lon="2.20025">
        <ele>47.5</ele>
        <time>2022-04-11T13:30:22Z</time>
      </trkpt>
      <trkpt lat="49.94617" lon="2.20023">
        <ele>47.5</ele>
        <time>2022-04-11T13:30:23Z</time>
      </trkpt>
      <trkpt lat="49.94618" lon="2.20021">
        <ele>47.6</ele>
        <time>2022-04-11T13:30:24Z</time>
      </trkpt>
      <trkpt lat="49.94618" lon="2.2002">
        <ele>47.6</ele>
        <time>2022-04-11T13:30:25Z</time>
      </trkpt>
      <trkpt lat="49.94619" lon="2.20019">
        <ele>47.7</ele>
        <time>2022-04-11T13:30:26Z</time>
      </trkpt>
      <trkpt lat="49.9462" lon="2.20017">
        <ele>47.8</ele>
        <time>2022-04-11T13:30:27Z</time>
      </trkpt>
      <trkpt lat="49.94621" lon="2.20015">
        <ele>47.8</ele>
        <time>2022-04-11T13:30:28Z</time>
      </trkpt>
      <trkpt lat="49.94621" lon="2.20014">
        <ele>47.9</ele>
        <time>2022-04-11T13:30:29Z</time>
      </trkpt>
      <trkpt lat="49.94621" lon="2.20013">
        <ele>47.9</ele>
        <time>2022-04-11T13:30:30Z</time>
      </trkpt>
      <trkpt lat="49.94622" lon="2.20012">
        <ele>47.9</ele>
        <time>2022-04-11T13:30:31Z</time>
      </trkpt>
      <trkpt lat="49.94623" lon="2.20011">
        <ele>48</ele>
        <time>2022-04-11T13:30:32Z</time>
      </trkpt>
      <trkpt lat="49.94623" lon="2.20009">
        <ele>48</ele>
        <time>2022-04-11T13:30:33Z</time>
      </trkpt>
      <trkpt lat="49.94624" lon="2.20008">
        <ele>48.1</ele>
        <time>2022-04-11T13:30:35Z</time>
      </trkpt>
      <trkpt lat="49.94625" lon="2.20006">
        <ele>48.2</ele>
        <time>2022-04-11T13:30:36Z</time>
      </trkpt>
      <trkpt lat="49.94625" lon="2.20005">
        <ele>48.2</ele>
        <time>2022-04-11T13:30:37Z</time>
      </trkpt>
      <trkpt lat="49.94626" lon="2.20003">
        <ele>48.3</ele>
        <time>2022-04-11T13:30:38Z</time>
      </trkpt>
      <trkpt lat="49.94626" lon="2.20001">
        <ele>48.3</ele>
        <time>2022-04-11T13:30:39Z</time>
      </trkpt>
      <trkpt lat="49.94627" lon="2.19998">
        <ele>48.4</ele>
        <time>2022-04-11T13:30:40Z</time>
      </trkpt>
      <trkpt lat="49.94628" lon="2.19996">
        <ele>48.5</ele>
        <time>2022-04-11T13:30:42Z</time>
      </trkpt>
      <trkpt lat="49.94628" lon="2.19995">
        <ele>48.5</ele>
        <time>2022-04-11T13:30:43Z</time>
      </trkpt>
      <trkpt lat="49.94628" lon="2.19993">
        <ele>48.6</ele>
        <time>2022-04-11T13:30:44Z</time>
      </trkpt>
      <trkpt lat="49.94629" lon="2.19991">
        <ele>48.6</ele>
        <time>2022-04-11T13:30:45Z</time>
      </trkpt>
      <trkpt lat="49.9463" lon="2.19989">
        <ele>48.7</ele>
        <time>2022-04-11T13:30:46Z</time>
      </trkpt>
      <trkpt lat="49.9463" lon="2.19986">
        <ele>48.8</ele>
        <time>2022-04-11T13:30:47Z</time>
      </trkpt>
      <trkpt lat="49.94631" lon="2.19984">
        <ele>48.8</ele>
        <time>2022-04-11T13:30:49Z</time>
      </trkpt>
      <trkpt lat="49.94632" lon="2.19982">
        <ele>48.9</ele>
        <time>2022-04-11T13:30:50Z</time>
      </trkpt>
      <trkpt lat="49.94633" lon="2.1998">
        <ele>49</ele>
        <time>2022-04-11T13:30:51Z</time>
      </trkpt>
      <trkpt lat="49.94634" lon="2.19979">
        <ele>49</ele>
        <time>2022-04-11T13:30:52Z</time>
      </trkpt>
      <trkpt lat="49.94634" lon="2.19977">
        <ele>49.1</ele>
        <time>2022-04-11T13:30:53Z</time>
      </trkpt>
      <trkpt lat="49.94635" lon="2.19976">
        <ele>49.1</ele>
        <time>2022-04-11T13:30:54Z</time>
      </trkpt>
      <trkpt lat="49.94635" lon="2.19975">
        <ele>49.1</ele>
        <time>2022-04-11T13:30:55Z</time>
      </trkpt>
      <trkpt lat="49.94636" lon="2.19973">
        <ele>49.2</ele>
        <time>2022-04-11T13:30:56Z</time>
      </trkpt>
      <trkpt lat="49.94637" lon="2.19971">
        <ele>49.2</ele>
        <time>2022-04-11T13:30:57Z</time>
      </trkpt>
      <trkpt lat="49.94637" lon="2.19969">
        <ele>49.3</ele>
        <time>2022-04-11T13:30:58Z</time>
      </trkpt>
      <trkpt lat="49.94639" lon="2.19965">
        <ele>49.4</ele>
        <time>2022-04-11T13:30:59Z</time>
      </trkpt>
      <trkpt lat="49.9464" lon="2.19964">
        <ele>49.5</ele>
        <time>2022-04-11T13:31:00Z</time>
      </trkpt>
      <trkpt lat="49.94642" lon="2.1996">
        <ele>49.6</ele>
        <time>2022-04-11T13:31:01Z</time>
      </trkpt>
      <trkpt lat="49.94642" lon="2.19959">
        <ele>49.6</ele>
        <time>2022-04-11T13:31:02Z</time>
      </trkpt>
      <trkpt lat="49.94644" lon="2.19956">
        <ele>49.7</ele>
        <time>2022-04-11T13:31:03Z</time>
      </trkpt>
      <trkpt lat="49.94645" lon="2.19954">
        <ele>49.8</ele>
        <time>2022-04-11T13:31:05Z</time>
      </trkpt>
      <trkpt lat="49.94646" lon="2.19952">
        <ele>49.8</ele>
        <time>2022-04-11T13:31:06Z</time>
      </trkpt>
      <trkpt lat="49.94647" lon="2.1995">
        <ele>49.9</ele>
        <time>2022-04-11T13:31:07Z</time>
      </trkpt>
      <trkpt lat="49.94648" lon="2.19949">
        <ele>49.9</ele>
        <time>2022-04-11T13:31:08Z</time>
      </trkpt>
      <trkpt lat="49.94648" lon="2.19948">
        <ele>49.9</ele>
        <time>2022-04-11T13:31:09Z</time>
      </trkpt>
      <trkpt lat="49.94649" lon="2.19948">
        <ele>50</ele>
        <time>2022-04-11T13:31:10Z</time>
      </trkpt>
      <trkpt lat="49.9465" lon="2.19947">
        <ele>50</ele>
        <time>2022-04-11T13:31:11Z</time>
      </trkpt>
      <trkpt lat="49.9465" lon="2.19948">
        <ele>50</ele>
        <time>2022-04-11T13:31:12Z</time>
      </trkpt>
      <trkpt lat="49.9465" lon="2.19947">
        <ele>50</ele>
        <time>2022-04-11T13:31:13Z</time>
      </trkpt>
      <trkpt lat="49.94651" lon="2.19945">
        <ele>50.1</ele>
        <time>2022-04-11T13:31:14Z</time>
      </trkpt>
      <trkpt lat="49.94652" lon="2.19944">
        <ele>50.1</ele>
        <time>2022-04-11T13:31:15Z</time>
      </trkpt>
      <trkpt lat="49.94653" lon="2.1994">
        <ele>50.2</ele>
        <time>2022-04-11T13:31:17Z</time>
      </trkpt>
      <trkpt lat="49.94654" lon="2.19939">
        <ele>50.3</ele>
        <time>2022-04-11T13:31:19Z</time>
      </trkpt>
      <trkpt lat="49.94655" lon="2.19938">
        <ele>50.3</ele>
        <time>2022-04-11T13:31:20Z</time>
      </trkpt>
      <trkpt lat="49.94655" lon="2.19937">
        <ele>50.3</ele>
        <time>2022-04-11T13:31:21Z</time>
      </trkpt>
      <trkpt lat="49.94656" lon="2.19936">
        <ele>50.4</ele>
        <time>2022-04-11T13:31:22Z</time>
      </trkpt>
      <trkpt lat="49.94657" lon="2.19934">
        <ele>50.4</ele>
        <time>2022-04-11T13:31:23Z</time>
      </trkpt>
      <trkpt lat="49.94658" lon="2.19933">
        <ele>50.5</ele>
        <time>2022-04-11T13:31:24Z</time>
      </trkpt>
      <trkpt lat="49.94658" lon="2.19932">
        <ele>50.5</ele>
        <time>2022-04-11T13:31:25Z</time>
      </trkpt>
      <trkpt lat="49.94659" lon="2.1993">
        <ele>50.5</ele>
        <time>2022-04-11T13:31:26Z</time>
      </trkpt>
      <trkpt lat="49.9466" lon="2.19929">
        <ele>50.6</ele>
        <time>2022-04-11T13:31:27Z</time>
      </trkpt>
      <trkpt lat="49.94661" lon="2.19925">
        <ele>50.7</ele>
        <time>2022-04-11T13:31:29Z</time>
      </trkpt>
      <trkpt lat="49.94661" lon="2.19924">
        <ele>50.7</ele>
        <time>2022-04-11T13:31:30Z</time>
      </trkpt>
      <trkpt lat="49.94662" lon="2.19923">
        <ele>50.8</ele>
        <time>2022-04-11T13:31:31Z</time>
      </trkpt>
      <trkpt lat="49.94663" lon="2.19922">
        <ele>50.8</ele>
        <time>2022-04-11T13:31:32Z</time>
      </trkpt>
      <trkpt lat="49.94665" lon="2.1992">
        <ele>50.8</ele>
        <time>2022-04-11T13:31:33Z</time>
      </trkpt>
      <trkpt lat="49.94665" lon="2.19919">
        <ele>50.9</ele>
        <time>2022-04-11T13:31:34Z</time>
      </trkpt>
      <trkpt lat="49.94666" lon="2.19918">
        <ele>50.9</ele>
        <time>2022-04-11T13:31:35Z</time>
      </trkpt>
      <trkpt lat="49.94667" lon="2.19916">
        <ele>50.9</ele>
        <time>2022-04-11T13:31:36Z</time>
      </trkpt>
      <trkpt lat="49.94668" lon="2.19915">
        <ele>51</ele>
        <time>2022-04-11T13:31:37Z</time>
      </trkpt>
      <trkpt lat="49.94669" lon="2.19913">
        <ele>51</ele>
        <time>2022-04-11T13:31:38Z</time>
      </trkpt>
      <trkpt lat="49.94669" lon="2.19912">
        <ele>51.1</ele>
        <time>2022-04-11T13:31:39Z</time>
      </trkpt>
      <trkpt lat="49.9467" lon="2.1991">
        <ele>51.1</ele>
        <time>2022-04-11T13:31:41Z</time>
      </trkpt>
      <trkpt lat="49.94671" lon="2.19908">
        <ele>51.1</ele>
        <time>2022-04-11T13:31:42Z</time>
      </trkpt>
      <trkpt lat="49.94672" lon="2.19906">
        <ele>51.2</ele>
        <time>2022-04-11T13:31:43Z</time>
      </trkpt>
      <trkpt lat="49.94673" lon="2.19904">
        <ele>51.2</ele>
        <time>2022-04-11T13:31:44Z</time>
      </trkpt>
      <trkpt lat="49.94674" lon="2.19902">
        <ele>51.3</ele>
        <time>2022-04-11T13:31:45Z</time>
      </trkpt>
      <trkpt lat="49.94675" lon="2.19901">
        <ele>51.3</ele>
        <time>2022-04-11T13:31:46Z</time>
      </trkpt>
      <trkpt lat="49.94676" lon="2.199">
        <ele>51.3</ele>
        <time>2022-04-11T13:31:47Z</time>
      </trkpt>
      <trkpt lat="49.94676" lon="2.19899">
        <ele>51.3</ele>
        <time>2022-04-11T13:31:48Z</time>
      </trkpt>
      <trkpt lat="49.94677" lon="2.19897">
        <ele>51.4</ele>
        <time>2022-04-11T13:31:50Z</time>
      </trkpt>
      <trkpt lat="49.94678" lon="2.19896">
        <ele>51.4</ele>
        <time>2022-04-11T13:31:51Z</time>
      </trkpt>
      <trkpt lat="49.94678" lon="2.19896">
        <ele>51.4</ele>
        <time>2022-04-11T13:31:52Z</time>
      </trkpt>
      <trkpt lat="49.94679" lon="2.19895">
        <ele>51.4</ele>
        <time>2022-04-11T13:31:53Z</time>
      </trkpt>
      <trkpt lat="49.9468" lon="2.19893">
        <ele>51.5</ele>
        <time>2022-04-11T13:31:54Z</time>
      </trkpt>
      <trkpt lat="49.94681" lon="2.19892">
        <ele>51.5</ele>
        <time>2022-04-11T13:31:56Z</time>
      </trkpt>
      <trkpt lat="49.94682" lon="2.19891">
        <ele>51.5</ele>
        <time>2022-04-11T13:31:57Z</time>
      </trkpt>
      <trkpt lat="49.94683" lon="2.19889">
        <ele>51.6</ele>
        <time>2022-04-11T13:31:58Z</time>
      </trkpt>
      <trkpt lat="49.94684" lon="2.19888">
        <ele>51.6</ele>
        <time>2022-04-11T13:31:59Z</time>
      </trkpt>
      <trkpt lat="49.94684" lon="2.19888">
        <ele>51.6</ele>
        <time>2022-04-11T13:32:00Z</time>
      </trkpt>
      <trkpt lat="49.94685" lon="2.19886">
        <ele>51.7</ele>
        <time>2022-04-11T13:32:01Z</time>
      </trkpt>
      <trkpt lat="49.94686" lon="2.19885">
        <ele>51.7</ele>
        <time>2022-04-11T13:32:02Z</time>
      </trkpt>
      <trkpt lat="49.94688" lon="2.19883">
        <ele>51.8</ele>
        <time>2022-04-11T13:32:03Z</time>
      </trkpt>
      <trkpt lat="49.94689" lon="2.19882">
        <ele>51.8</ele>
        <time>2022-04-11T13:32:04Z</time>
      </trkpt>
      <trkpt lat="49.94689" lon="2.19881">
        <ele>51.8</ele>
        <time>2022-04-11T13:32:05Z</time>
      </trkpt>
      <trkpt lat="49.9469" lon="2.19879">
        <ele>51.8</ele>
        <time>2022-04-11T13:32:06Z</time>
      </trkpt>
      <trkpt lat="49.94691" lon="2.19878">
        <ele>51.9</ele>
        <time>2022-04-11T13:32:07Z</time>
      </trkpt>
      <trkpt lat="49.94691" lon="2.19877">
        <ele>51.9</ele>
        <time>2022-04-11T13:32:08Z</time>
      </trkpt>
      <trkpt lat="49.94692" lon="2.19874">
        <ele>51.9</ele>
        <time>2022-04-11T13:32:09Z</time>
      </trkpt>
      <trkpt lat="49.94693" lon="2.19873">
        <ele>52</ele>
        <time>2022-04-11T13:32:10Z</time>
      </trkpt>
      <trkpt lat="49.94694" lon="2.19872">
        <ele>52</ele>
        <time>2022-04-11T13:32:12Z</time>
      </trkpt>
      <trkpt lat="49.94694" lon="2.19871">
        <ele>52</ele>
        <time>2022-04-11T13:32:13Z</time>
      </trkpt>
      <trkpt lat="49.94695" lon="2.19869">
        <ele>52</ele>
        <time>2022-04-11T13:32:14Z</time>
      </trkpt>
      <trkpt lat="49.94696" lon="2.19868">
        <ele>52</ele>
        <time>2022-04-11T13:32:15Z</time>
      </trkpt>
      <trkpt lat="49.94696" lon="2.19867">
        <ele>52.1</ele>
        <time>2022-04-11T13:32:16Z</time>
      </trkpt>
      <trkpt lat="49.94697" lon="2.19865">
        <ele>52.1</ele>
        <time>2022-04-11T13:32:17Z</time>
      </trkpt>
      <trkpt lat="49.94698" lon="2.19864">
        <ele>52.1</ele>
        <time>2022-04-11T13:32:18Z</time>
      </trkpt>
      <trkpt lat="49.94699" lon="2.19863">
        <ele>52.2</ele>
        <time>2022-04-11T13:32:19Z</time>
      </trkpt>
      <trkpt lat="49.947" lon="2.19861">
        <ele>52.2</ele>
        <time>2022-04-11T13:32:20Z</time>
      </trkpt>
      <trkpt lat="49.94701" lon="2.1986">
        <ele>52.2</ele>
        <time>2022-04-11T13:32:22Z</time>
      </trkpt>
      <trkpt lat="49.94702" lon="2.19858">
        <ele>52.2</ele>
        <time>2022-04-11T13:32:23Z</time>
      </trkpt>
      <trkpt lat="49.94703" lon="2.19857">
        <ele>52.3</ele>
        <time>2022-04-11T13:32:24Z</time>
      </trkpt>
      <trkpt lat="49.94704" lon="2.19856">
        <ele>52.3</ele>
        <time>2022-04-11T13:32:25Z</time>
      </trkpt>
      <trkpt lat="49.94705" lon="2.19855">
        <ele>52.3</ele>
        <time>2022-04-11T13:32:26Z</time>
      </trkpt>
      <trkpt lat="49.94706" lon="2.19853">
        <ele>52.4</ele>
        <time>2022-04-11T13:32:28Z</time>
      </trkpt>
      <trkpt lat="49.94707" lon="2.19852">
        <ele>52.4</ele>
        <time>2022-04-11T13:32:29Z</time>
      </trkpt>
      <trkpt lat="49.94709" lon="2.1985">
        <ele>52.4</ele>
        <time>2022-04-11T13:32:30Z</time>
      </trkpt>
      <trkpt lat="49.94709" lon="2.19849">
        <ele>52.4</ele>
        <time>2022-04-11T13:32:31Z</time>
      </trkpt>
      <trkpt lat="49.9471" lon="2.19847">
        <ele>52.5</ele>
        <time>2022-04-11T13:32:32Z</time>
      </trkpt>
      <trkpt lat="49.94711" lon="2.19846">
        <ele>52.5</ele>
        <time>2022-04-11T13:32:33Z</time>
      </trkpt>
      <trkpt lat="49.94712" lon="2.19843">
        <ele>52.5</ele>
        <time>2022-04-11T13:32:34Z</time>
      </trkpt>
      <trkpt lat="49.94712" lon="2.19842">
        <ele>52.6</ele>
        <time>2022-04-11T13:32:35Z</time>
      </trkpt>
      <trkpt lat="49.94713" lon="2.19841">
        <ele>52.6</ele>
        <time>2022-04-11T13:32:36Z</time>
      </trkpt>
      <trkpt lat="49.94714" lon="2.19839">
        <ele>52.6</ele>
        <time>2022-04-11T13:32:37Z</time>
      </trkpt>
      <trkpt lat="49.94716" lon="2.19837">
        <ele>52.7</ele>
        <time>2022-04-11T13:32:39Z</time>
      </trkpt>
      <trkpt lat="49.94717" lon="2.19834">
        <ele>52.7</ele>
        <time>2022-04-11T13:32:40Z</time>
      </trkpt>
      <trkpt lat="49.94717" lon="2.19833">
        <ele>52.7</ele>
        <time>2022-04-11T13:32:41Z</time>
      </trkpt>
      <trkpt lat="49.94718" lon="2.19831">
        <ele>52.7</ele>
        <time>2022-04-11T13:32:42Z</time>
      </trkpt>
      <trkpt lat="49.94719" lon="2.1983">
        <ele>52.8</ele>
        <time>2022-04-11T13:32:43Z</time>
      </trkpt>
      <trkpt lat="49.9472" lon="2.19828">
        <ele>52.8</ele>
        <time>2022-04-11T13:32:44Z</time>
      </trkpt>
      <trkpt lat="49.94721" lon="2.19826">
        <ele>52.8</ele>
        <time>2022-04-11T13:32:46Z</time>
      </trkpt>
      <trkpt lat="49.94722" lon="2.19825">
        <ele>52.8</ele>
        <time>2022-04-11T13:32:47Z</time>
      </trkpt>
      <trkpt lat="49.94722" lon="2.19824">
        <ele>52.8</ele>
        <time>2022-04-11T13:32:48Z</time>
      </trkpt>
      <trkpt lat="49.94724" lon="2.19822">
        <ele>52.9</ele>
        <time>2022-04-11T13:32:49Z</time>
      </trkpt>
      <trkpt lat="49.94724" lon="2.19821">
        <ele>52.9</ele>
        <time>2022-04-11T13:32:50Z</time>
      </trkpt>
      <trkpt lat="49.94725" lon="2.1982">
        <ele>52.9</ele>
        <time>2022-04-11T13:32:51Z</time>
      </trkpt>
      <trkpt lat="49.94726" lon="2.19817">
        <ele>52.9</ele>
        <time>2022-04-11T13:32:52Z</time>
      </trkpt>
      <trkpt lat="49.94726" lon="2.19816">
        <ele>52.9</ele>
        <time>2022-04-11T13:32:53Z</time>
      </trkpt>
      <trkpt lat="49.94727" lon="2.19815">
        <ele>53</ele>
        <time>2022-04-11T13:32:54Z</time>
      </trkpt>
      <trkpt lat="49.94728" lon="2.19814">
        <ele>53</ele>
        <time>2022-04-11T13:32:56Z</time>
      </trkpt>
      <trkpt lat="49.94729" lon="2.19812">
        <ele>53</ele>
        <time>2022-04-11T13:32:57Z</time>
      </trkpt>
      <trkpt lat="49.9473" lon="2.1981">
        <ele>53</ele>
        <time>2022-04-11T13:32:58Z</time>
      </trkpt>
      <trkpt lat="49.94731" lon="2.19809">
        <ele>53</ele>
        <time>2022-04-11T13:32:59Z</time>
      </trkpt>
      <trkpt lat="49.94732" lon="2.19808">
        <ele>53.1</ele>
        <time>2022-04-11T13:33:00Z</time>
      </trkpt>
      <trkpt lat="49.94732" lon="2.19806">
        <ele>53.1</ele>
        <time>2022-04-11T13:33:01Z</time>
      </trkpt>
      <trkpt lat="49.94733" lon="2.19805">
        <ele>53.1</ele>
        <time>2022-04-11T13:33:02Z</time>
      </trkpt>
      <trkpt lat="49.94734" lon="2.19803">
        <ele>53.1</ele>
        <time>2022-04-11T13:33:03Z</time>
      </trkpt>
      <trkpt lat="49.94735" lon="2.19802">
        <ele>53.1</ele>
        <time>2022-04-11T13:33:04Z</time>
      </trkpt>
      <trkpt lat="49.94737" lon="2.19799">
        <ele>53.2</ele>
        <time>2022-04-11T13:33:05Z</time>
      </trkpt>
      <trkpt lat="49.94738" lon="2.19797">
        <ele>53.2</ele>
        <time>2022-04-11T13:33:07Z</time>
      </trkpt>
      <trkpt lat="49.94739" lon="2.19796">
        <ele>53.2</ele>
        <time>2022-04-11T13:33:08Z</time>
      </trkpt>
      <trkpt lat="49.9474" lon="2.19795">
        <ele>53.2</ele>
        <time>2022-04-11T13:33:09Z</time>
      </trkpt>
      <trkpt lat="49.94741" lon="2.19793">
        <ele>53.2</ele>
        <time>2022-04-11T13:33:10Z</time>
      </trkpt>
      <trkpt lat="49.94741" lon="2.19791">
        <ele>53.2</ele>
        <time>2022-04-11T13:33:11Z</time>
      </trkpt>
      <trkpt lat="49.94742" lon="2.1979">
        <ele>53.2</ele>
        <time>2022-04-11T13:33:12Z</time>
      </trkpt>
      <trkpt lat="49.94743" lon="2.19788">
        <ele>53.2</ele>
        <time>2022-04-11T13:33:13Z</time>
      </trkpt>
      <trkpt lat="49.94744" lon="2.19787">
        <ele>53.3</ele>
        <time>2022-04-11T13:33:14Z</time>
      </trkpt>
      <trkpt lat="49.94744" lon="2.19785">
        <ele>53.3</ele>
        <time>2022-04-11T13:33:15Z</time>
      </trkpt>
      <trkpt lat="49.94745" lon="2.19783">
        <ele>53.3</ele>
        <time>2022-04-11T13:33:17Z</time>
      </trkpt>
      <trkpt lat="49.94746" lon="2.19782">
        <ele>53.3</ele>
        <time>2022-04-11T13:33:18Z</time>
      </trkpt>
      <trkpt lat="49.94747" lon="2.19781">
        <ele>53.3</ele>
        <time>2022-04-11T13:33:19Z</time>
      </trkpt>
      <trkpt lat="49.94747" lon="2.19779">
        <ele>53.3</ele>
        <time>2022-04-11T13:33:20Z</time>
      </trkpt>
      <trkpt lat="49.94748" lon="2.19777">
        <ele>53.3</ele>
        <time>2022-04-11T13:33:21Z</time>
      </trkpt>
      <trkpt lat="49.9475" lon="2.19774">
        <ele>53.3</ele>
        <time>2022-04-11T13:33:22Z</time>
      </trkpt>
      <trkpt lat="49.94751" lon="2.19773">
        <ele>53.3</ele>
        <time>2022-04-11T13:33:24Z</time>
      </trkpt>
      <trkpt lat="49.94751" lon="2.19772">
        <ele>53.3</ele>
        <time>2022-04-11T13:33:25Z</time>
      </trkpt>
      <trkpt lat="49.94752" lon="2.1977">
        <ele>53.3</ele>
        <time>2022-04-11T13:33:26Z</time>
      </trkpt>
      <trkpt lat="49.94753" lon="2.19769">
        <ele>53.4</ele>
        <time>2022-04-11T13:33:27Z</time>
      </trkpt>
      <trkpt lat="49.94754" lon="2.19768">
        <ele>53.4</ele>
        <time>2022-04-11T13:33:28Z</time>
      </trkpt>
      <trkpt lat="49.94755" lon="2.19766">
        <ele>53.4</ele>
        <time>2022-04-11T13:33:30Z</time>
      </trkpt>
      <trkpt lat="49.94756" lon="2.19764">
        <ele>53.4</ele>
        <time>2022-04-11T13:33:31Z</time>
      </trkpt>
      <trkpt lat="49.94756" lon="2.19762">
        <ele>53.4</ele>
        <time>2022-04-11T13:33:32Z</time>
      </trkpt>
      <trkpt lat="49.94757" lon="2.19761">
        <ele>53.4</ele>
        <time>2022-04-11T13:33:33Z</time>
      </trkpt>
      <trkpt lat="49.94758" lon="2.19758">
        <ele>53.4</ele>
        <time>2022-04-11T13:33:34Z</time>
      </trkpt>
      <trkpt lat="49.94759" lon="2.19757">
        <ele>53.4</ele>
        <time>2022-04-11T13:33:35Z</time>
      </trkpt>
      <trkpt lat="49.94759" lon="2.19756">
        <ele>53.4</ele>
        <time>2022-04-11T13:33:37Z</time>
      </trkpt>
      <trkpt lat="49.9476" lon="2.19755">
        <ele>53.4</ele>
        <time>2022-04-11T13:33:38Z</time>
      </trkpt>
      <trkpt lat="49.94761" lon="2.19753">
        <ele>53.4</ele>
        <time>2022-04-11T13:33:39Z</time>
      </trkpt>
      <trkpt lat="49.94761" lon="2.19752">
        <ele>53.4</ele>
        <time>2022-04-11T13:33:40Z</time>
      </trkpt>
      <trkpt lat="49.94762" lon="2.19751">
        <ele>53.4</ele>
        <time>2022-04-11T13:33:41Z</time>
      </trkpt>
      <trkpt lat="49.94763" lon="2.19749">
        <ele>53.4</ele>
        <time>2022-04-11T13:33:42Z</time>
      </trkpt>
      <trkpt lat="49.94763" lon="2.19747">
        <ele>53.4</ele>
        <time>2022-04-11T13:33:43Z</time>
      </trkpt>
      <trkpt lat="49.94765" lon="2.19745">
        <ele>53.4</ele>
        <time>2022-04-11T13:33:44Z</time>
      </trkpt>
      <trkpt lat="49.94766" lon="2.19744">
        <ele>53.4</ele>
        <time>2022-04-11T13:33:45Z</time>
      </trkpt>
      <trkpt lat="49.94766" lon="2.19743">
        <ele>53.4</ele>
        <time>2022-04-11T13:33:46Z</time>
      </trkpt>
      <trkpt lat="49.94768" lon="2.19741">
        <ele>53.5</ele>
        <time>2022-04-11T13:33:47Z</time>
      </trkpt>
      <trkpt lat="49.94769" lon="2.1974">
        <ele>53.5</ele>
        <time>2022-04-11T13:33:48Z</time>
      </trkpt>
      <trkpt lat="49.94769" lon="2.19739">
        <ele>53.5</ele>
        <time>2022-04-11T13:33:49Z</time>
      </trkpt>
      <trkpt lat="49.9477" lon="2.19738">
        <ele>53.5</ele>
        <time>2022-04-11T13:33:50Z</time>
      </trkpt>
      <trkpt lat="49.94771" lon="2.19737">
        <ele>53.5</ele>
        <time>2022-04-11T13:33:51Z</time>
      </trkpt>
      <trkpt lat="49.94772" lon="2.19736">
        <ele>53.5</ele>
        <time>2022-04-11T13:33:52Z</time>
      </trkpt>
      <trkpt lat="49.94773" lon="2.19733">
        <ele>53.5</ele>
        <time>2022-04-11T13:33:53Z</time>
      </trkpt>
      <trkpt lat="49.94773" lon="2.19732">
        <ele>53.5</ele>
        <time>2022-04-11T13:33:55Z</time>
      </trkpt>
      <trkpt lat="49.94774" lon="2.1973">
        <ele>53.5</ele>
        <time>2022-04-11T13:33:56Z</time>
      </trkpt>
      <trkpt lat="49.94775" lon="2.19729">
        <ele>53.5</ele>
        <time>2022-04-11T13:33:57Z</time>
      </trkpt>
      <trkpt lat="49.94775" lon="2.19727">
        <ele>53.5</ele>
        <time>2022-04-11T13:33:58Z</time>
      </trkpt>
      <trkpt lat="49.94776" lon="2.19726">
        <ele>53.5</ele>
        <time>2022-04-11T13:33:59Z</time>
      </trkpt>
      <trkpt lat="49.94777" lon="2.19723">
        <ele>53.5</ele>
        <time>2022-04-11T13:34:00Z</time>
      </trkpt>
      <trkpt lat="49.94778" lon="2.19722">
        <ele>53.5</ele>
        <time>2022-04-11T13:34:01Z</time>
      </trkpt>
      <trkpt lat="49.94778" lon="2.19721">
        <ele>53.5</ele>
        <time>2022-04-11T13:34:02Z</time>
      </trkpt>
      <trkpt lat="49.94779" lon="2.1972">
        <ele>53.5</ele>
        <time>2022-04-11T13:34:03Z</time>
      </trkpt>
      <trkpt lat="49.9478" lon="2.19718">
        <ele>53.5</ele>
        <time>2022-04-11T13:34:05Z</time>
      </trkpt>
      <trkpt lat="49.94781" lon="2.19716">
        <ele>53.5</ele>
        <time>2022-04-11T13:34:06Z</time>
      </trkpt>
      <trkpt lat="49.94782" lon="2.19714">
        <ele>53.5</ele>
        <time>2022-04-11T13:34:07Z</time>
      </trkpt>
      <trkpt lat="49.94783" lon="2.19713">
        <ele>53.5</ele>
        <time>2022-04-11T13:34:08Z</time>
      </trkpt>
      <trkpt lat="49.94783" lon="2.19712">
        <ele>53.5</ele>
        <time>2022-04-11T13:34:09Z</time>
      </trkpt>
      <trkpt lat="49.94784" lon="2.1971">
        <ele>53.5</ele>
        <time>2022-04-11T13:34:10Z</time>
      </trkpt>
      <trkpt lat="49.94786" lon="2.19708">
        <ele>53.5</ele>
        <time>2022-04-11T13:34:11Z</time>
      </trkpt>
      <trkpt lat="49.94786" lon="2.19706">
        <ele>53.5</ele>
        <time>2022-04-11T13:34:13Z</time>
      </trkpt>
      <trkpt lat="49.94787" lon="2.19705">
        <ele>53.5</ele>
        <time>2022-04-11T13:34:14Z</time>
      </trkpt>
      <trkpt lat="49.94788" lon="2.19703">
        <ele>53.5</ele>
        <time>2022-04-11T13:34:15Z</time>
      </trkpt>
      <trkpt lat="49.94788" lon="2.19702">
        <ele>53.5</ele>
        <time>2022-04-11T13:34:16Z</time>
      </trkpt>
      <trkpt lat="49.94789" lon="2.19699">
        <ele>53.5</ele>
        <time>2022-04-11T13:34:17Z</time>
      </trkpt>
      <trkpt lat="49.9479" lon="2.19698">
        <ele>53.5</ele>
        <time>2022-04-11T13:34:18Z</time>
      </trkpt>
      <trkpt lat="49.9479" lon="2.19697">
        <ele>53.5</ele>
        <time>2022-04-11T13:34:19Z</time>
      </trkpt>
      <trkpt lat="49.94792" lon="2.19694">
        <ele>53.5</ele>
        <time>2022-04-11T13:34:20Z</time>
      </trkpt>
      <trkpt lat="49.94792" lon="2.19693">
        <ele>53.5</ele>
        <time>2022-04-11T13:34:21Z</time>
      </trkpt>
      <trkpt lat="49.94793" lon="2.19692">
        <ele>53.5</ele>
        <time>2022-04-11T13:34:22Z</time>
      </trkpt>
      <trkpt lat="49.94794" lon="2.19689">
        <ele>53.5</ele>
        <time>2022-04-11T13:34:23Z</time>
      </trkpt>
      <trkpt lat="49.94794" lon="2.19689">
        <ele>53.5</ele>
        <time>2022-04-11T13:34:25Z</time>
      </trkpt>
      <trkpt lat="49.94795" lon="2.19688">
        <ele>53.5</ele>
        <time>2022-04-11T13:34:26Z</time>
      </trkpt>
      <trkpt lat="49.94795" lon="2.19686">
        <ele>53.5</ele>
        <time>2022-04-11T13:34:27Z</time>
      </trkpt>
      <trkpt lat="49.94796" lon="2.19685">
        <ele>53.5</ele>
        <time>2022-04-11T13:34:28Z</time>
      </trkpt>
      <trkpt lat="49.94797" lon="2.19683">
        <ele>53.5</ele>
        <time>2022-04-11T13:34:29Z</time>
      </trkpt>
      <trkpt lat="49.94797" lon="2.19682">
        <ele>53.5</ele>
        <time>2022-04-11T13:34:30Z</time>
      </trkpt>
      <trkpt lat="49.94797" lon="2.19681">
        <ele>53.5</ele>
        <time>2022-04-11T13:34:31Z</time>
      </trkpt>
      <trkpt lat="49.94798" lon="2.19679">
        <ele>53.5</ele>
        <time>2022-04-11T13:34:32Z</time>
      </trkpt>
      <trkpt lat="49.94799" lon="2.19678">
        <ele>53.5</ele>
        <time>2022-04-11T13:34:34Z</time>
      </trkpt>
      <trkpt lat="49.948" lon="2.19677">
        <ele>53.5</ele>
        <time>2022-04-11T13:34:35Z</time>
      </trkpt>
      <trkpt lat="49.948" lon="2.19675">
        <ele>53.5</ele>
        <time>2022-04-11T13:34:36Z</time>
      </trkpt>
      <trkpt lat="49.94801" lon="2.19674">
        <ele>53.5</ele>
        <time>2022-04-11T13:34:37Z</time>
      </trkpt>
      <trkpt lat="49.94802" lon="2.19672">
        <ele>53.5</ele>
        <time>2022-04-11T13:34:38Z</time>
      </trkpt>
      <trkpt lat="49.94802" lon="2.19671">
        <ele>53.5</ele>
        <time>2022-04-11T13:34:39Z</time>
      </trkpt>
      <trkpt lat="49.94803" lon="2.19669">
        <ele>53.5</ele>
        <time>2022-04-11T13:34:40Z</time>
      </trkpt>
      <trkpt lat="49.94804" lon="2.19668">
        <ele>53.5</ele>
        <time>2022-04-11T13:34:41Z</time>
      </trkpt>
      <trkpt lat="49.94806" lon="2.19666">
        <ele>53.5</ele>
        <time>2022-04-11T13:34:42Z</time>
      </trkpt>
      <trkpt lat="49.94807" lon="2.19664">
        <ele>53.5</ele>
        <time>2022-04-11T13:34:43Z</time>
      </trkpt>
      <trkpt lat="49.94808" lon="2.19663">
        <ele>53.5</ele>
        <time>2022-04-11T13:34:44Z</time>
      </trkpt>
      <trkpt lat="49.94809" lon="2.19661">
        <ele>53.5</ele>
        <time>2022-04-11T13:34:46Z</time>
      </trkpt>
      <trkpt lat="49.94809" lon="2.1966">
        <ele>53.4</ele>
        <time>2022-04-11T13:34:47Z</time>
      </trkpt>
      <trkpt lat="49.9481" lon="2.19658">
        <ele>53.4</ele>
        <time>2022-04-11T13:34:48Z</time>
      </trkpt>
      <trkpt lat="49.94811" lon="2.19657">
        <ele>53.4</ele>
        <time>2022-04-11T13:34:49Z</time>
      </trkpt>
      <trkpt lat="49.94813" lon="2.19655">
        <ele>53.4</ele>
        <time>2022-04-11T13:34:51Z</time>
      </trkpt>
      <trkpt lat="49.94814" lon="2.19654">
        <ele>53.4</ele>
        <time>2022-04-11T13:34:52Z</time>
      </trkpt>
      <trkpt lat="49.94815" lon="2.19655">
        <ele>53.4</ele>
        <time>2022-04-11T13:34:53Z</time>
      </trkpt>
      <trkpt lat="49.94816" lon="2.19657">
        <ele>53.3</ele>
        <time>2022-04-11T13:34:54Z</time>
      </trkpt>
      <trkpt lat="49.94817" lon="2.19656">
        <ele>53.3</ele>
        <time>2022-04-11T13:34:55Z</time>
      </trkpt>
      <trkpt lat="49.94818" lon="2.19656">
        <ele>53.3</ele>
        <time>2022-04-11T13:34:56Z</time>
      </trkpt>
      <trkpt lat="49.94818" lon="2.19655">
        <ele>53.3</ele>
        <time>2022-04-11T13:34:57Z</time>
      </trkpt>
      <trkpt lat="49.94819" lon="2.19653">
        <ele>53.3</ele>
        <time>2022-04-11T13:34:58Z</time>
      </trkpt>
      <trkpt lat="49.94821" lon="2.19651">
        <ele>53.2</ele>
        <time>2022-04-11T13:34:59Z</time>
      </trkpt>
      <trkpt lat="49.94821" lon="2.1965">
        <ele>53.2</ele>
        <time>2022-04-11T13:35:00Z</time>
      </trkpt>
      <trkpt lat="49.94822" lon="2.19649">
        <ele>53.2</ele>
        <time>2022-04-11T13:35:01Z</time>
      </trkpt>
      <trkpt lat="49.94822" lon="2.19646">
        <ele>53.2</ele>
        <time>2022-04-11T13:35:02Z</time>
      </trkpt>
      <trkpt lat="49.94823" lon="2.19644">
        <ele>53.2</ele>
        <time>2022-04-11T13:35:04Z</time>
      </trkpt>
      <trkpt lat="49.94824" lon="2.19642">
        <ele>53.1</ele>
        <time>2022-04-11T13:35:05Z</time>
      </trkpt>
      <trkpt lat="49.94825" lon="2.1964">
        <ele>53.1</ele>
        <time>2022-04-11T13:35:06Z</time>
      </trkpt>
      <trkpt lat="49.94826" lon="2.19638">
        <ele>53.1</ele>
        <time>2022-04-11T13:35:07Z</time>
      </trkpt>
      <trkpt lat="49.94827" lon="2.19637">
        <ele>53.1</ele>
        <time>2022-04-11T13:35:08Z</time>
      </trkpt>
      <trkpt lat="49.94828" lon="2.19635">
        <ele>53.1</ele>
        <time>2022-04-11T13:35:09Z</time>
      </trkpt>
      <trkpt lat="49.94829" lon="2.19633">
        <ele>53</ele>
        <time>2022-04-11T13:35:10Z</time>
      </trkpt>
      <trkpt lat="49.9483" lon="2.19631">
        <ele>53</ele>
        <time>2022-04-11T13:35:11Z</time>
      </trkpt>
      <trkpt lat="49.94831" lon="2.1963">
        <ele>53</ele>
        <time>2022-04-11T13:35:12Z</time>
      </trkpt>
      <trkpt lat="49.94831" lon="2.19629">
        <ele>53</ele>
        <time>2022-04-11T13:35:13Z</time>
      </trkpt>
      <trkpt lat="49.94833" lon="2.19627">
        <ele>53</ele>
        <time>2022-04-11T13:35:14Z</time>
      </trkpt>
      <trkpt lat="49.94833" lon="2.19626">
        <ele>53</ele>
        <time>2022-04-11T13:35:15Z</time>
      </trkpt>
      <trkpt lat="49.94834" lon="2.19625">
        <ele>53</ele>
        <time>2022-04-11T13:35:16Z</time>
      </trkpt>
      <trkpt lat="49.94835" lon="2.19622">
        <ele>52.9</ele>
        <time>2022-04-11T13:35:17Z</time>
      </trkpt>
      <trkpt lat="49.94836" lon="2.19621">
        <ele>52.9</ele>
        <time>2022-04-11T13:35:19Z</time>
      </trkpt>
      <trkpt lat="49.94837" lon="2.1962">
        <ele>52.9</ele>
        <time>2022-04-11T13:35:20Z</time>
      </trkpt>
      <trkpt lat="49.94838" lon="2.19619">
        <ele>52.9</ele>
        <time>2022-04-11T13:35:21Z</time>
      </trkpt>
      <trkpt lat="49.94839" lon="2.19618">
        <ele>52.9</ele>
        <time>2022-04-11T13:35:22Z</time>
      </trkpt>
      <trkpt lat="49.9484" lon="2.19617">
        <ele>52.9</ele>
        <time>2022-04-11T13:35:23Z</time>
      </trkpt>
      <trkpt lat="49.94841" lon="2.19616">
        <ele>52.9</ele>
        <time>2022-04-11T13:35:24Z</time>
      </trkpt>
      <trkpt lat="49.94843" lon="2.19615">
        <ele>52.8</ele>
        <time>2022-04-11T13:35:26Z</time>
      </trkpt>
      <trkpt lat="49.94843" lon="2.19615">
        <ele>52.8</ele>
        <time>2022-04-11T13:35:27Z</time>
      </trkpt>
      <trkpt lat="49.94844" lon="2.19614">
        <ele>52.8</ele>
        <time>2022-04-11T13:35:28Z</time>
      </trkpt>
      <trkpt lat="49.94844" lon="2.19614">
        <ele>52.8</ele>
        <time>2022-04-11T13:35:29Z</time>
      </trkpt>
      <trkpt lat="49.94844" lon="2.19615">
        <ele>52.8</ele>
        <time>2022-04-11T13:35:30Z</time>
      </trkpt>
      <trkpt lat="49.94844" lon="2.19615">
        <ele>52.8</ele>
        <time>2022-04-11T13:35:31Z</time>
      </trkpt>
      <trkpt lat="49.94844" lon="2.19615">
        <ele>52.8</ele>
        <time>2022-04-11T13:35:32Z</time>
      </trkpt>
      <trkpt lat="49.94844" lon="2.19615">
        <ele>52.8</ele>
        <time>2022-04-11T13:35:33Z</time>
      </trkpt>
      <trkpt lat="49.94843" lon="2.19615">
        <ele>52.8</ele>
        <time>2022-04-11T13:35:34Z</time>
      </trkpt>
      <trkpt lat="49.94843" lon="2.19615">
        <ele>52.8</ele>
        <time>2022-04-11T13:35:35Z</time>
      </trkpt>
      <trkpt lat="49.94843" lon="2.19616">
        <ele>52.8</ele>
        <time>2022-04-11T13:35:36Z</time>
      </trkpt>
      <trkpt lat="49.94843" lon="2.19616">
        <ele>52.8</ele>
        <time>2022-04-11T13:35:37Z</time>
      </trkpt>
      <trkpt lat="49.94843" lon="2.19616">
        <ele>52.8</ele>
        <time>2022-04-11T13:35:38Z</time>
      </trkpt>
      <trkpt lat="49.94843" lon="2.19616">
        <ele>52.8</ele>
        <time>2022-04-11T13:35:39Z</time>
      </trkpt>
      <trkpt lat="49.94843" lon="2.19616">
        <ele>52.8</ele>
        <time>2022-04-11T13:35:40Z</time>
      </trkpt>
      <trkpt lat="49.94843" lon="2.19616">
        <ele>52.8</ele>
        <time>2022-04-11T13:35:41Z</time>
      </trkpt>
      <trkpt lat="49.94843" lon="2.19616">
        <ele>52.8</ele>
        <time>2022-04-11T13:35:42Z</time>
      </trkpt>
      <trkpt lat="49.94844" lon="2.19616">
        <ele>52.8</ele>
        <time>2022-04-11T13:35:43Z</time>
      </trkpt>
      <trkpt lat="49.94844" lon="2.19616">
        <ele>52.8</ele>
        <time>2022-04-11T13:35:44Z</time>
      </trkpt>
      <trkpt lat="49.94844" lon="2.19615">
        <ele>52.8</ele>
        <time>2022-04-11T13:35:46Z</time>
      </trkpt>
      <trkpt lat="49.94845" lon="2.19614">
        <ele>52.8</ele>
        <time>2022-04-11T13:35:47Z</time>
      </trkpt>
      <trkpt lat="49.94846" lon="2.19613">
        <ele>52.8</ele>
        <time>2022-04-11T13:35:48Z</time>
      </trkpt>
      <trkpt lat="49.94847" lon="2.19612">
        <ele>52.8</ele>
        <time>2022-04-11T13:35:49Z</time>
      </trkpt>
      <trkpt lat="49.94847" lon="2.1961">
        <ele>52.8</ele>
        <time>2022-04-11T13:35:50Z</time>
      </trkpt>
      <trkpt lat="49.94847" lon="2.19609">
        <ele>52.7</ele>
        <time>2022-04-11T13:35:51Z</time>
      </trkpt>
      <trkpt lat="49.94847" lon="2.19607">
        <ele>52.7</ele>
        <time>2022-04-11T13:35:53Z</time>
      </trkpt>
      <trkpt lat="49.94848" lon="2.19605">
        <ele>52.7</ele>
        <time>2022-04-11T13:35:55Z</time>
      </trkpt>
      <trkpt lat="49.94849" lon="2.19603">
        <ele>52.7</ele>
        <time>2022-04-11T13:35:56Z</time>
      </trkpt>
      <trkpt lat="49.94849" lon="2.19601">
        <ele>52.7</ele>
        <time>2022-04-11T13:35:57Z</time>
      </trkpt>
      <trkpt lat="49.9485" lon="2.19599">
        <ele>52.7</ele>
        <time>2022-04-11T13:35:58Z</time>
      </trkpt>
      <trkpt lat="49.94851" lon="2.19597">
        <ele>52.6</ele>
        <time>2022-04-11T13:35:59Z</time>
      </trkpt>
      <trkpt lat="49.94852" lon="2.19595">
        <ele>52.6</ele>
        <time>2022-04-11T13:36:00Z</time>
      </trkpt>
      <trkpt lat="49.94854" lon="2.19593">
        <ele>52.6</ele>
        <time>2022-04-11T13:36:01Z</time>
      </trkpt>
      <trkpt lat="49.94855" lon="2.19592">
        <ele>52.6</ele>
        <time>2022-04-11T13:36:02Z</time>
      </trkpt>
      <trkpt lat="49.94855" lon="2.19591">
        <ele>52.6</ele>
        <time>2022-04-11T13:36:03Z</time>
      </trkpt>
      <trkpt lat="49.94857" lon="2.1959">
        <ele>52.6</ele>
        <time>2022-04-11T13:36:04Z</time>
      </trkpt>
      <trkpt lat="49.94858" lon="2.19589">
        <ele>52.5</ele>
        <time>2022-04-11T13:36:06Z</time>
      </trkpt>
      <trkpt lat="49.94859" lon="2.19588">
        <ele>52.5</ele>
        <time>2022-04-11T13:36:07Z</time>
      </trkpt>
      <trkpt lat="49.9486" lon="2.19586">
        <ele>52.5</ele>
        <time>2022-04-11T13:36:08Z</time>
      </trkpt>
      <trkpt lat="49.94861" lon="2.19585">
        <ele>52.5</ele>
        <time>2022-04-11T13:36:09Z</time>
      </trkpt>
      <trkpt lat="49.94862" lon="2.19584">
        <ele>52.5</ele>
        <time>2022-04-11T13:36:10Z</time>
      </trkpt>
      <trkpt lat="49.94863" lon="2.19583">
        <ele>52.5</ele>
        <time>2022-04-11T13:36:11Z</time>
      </trkpt>
      <trkpt lat="49.94864" lon="2.19582">
        <ele>52.5</ele>
        <time>2022-04-11T13:36:12Z</time>
      </trkpt>
      <trkpt lat="49.94865" lon="2.1958">
        <ele>52.5</ele>
        <time>2022-04-11T13:36:13Z</time>
      </trkpt>
      <trkpt lat="49.94866" lon="2.19579">
        <ele>52.4</ele>
        <time>2022-04-11T13:36:14Z</time>
      </trkpt>
      <trkpt lat="49.94868" lon="2.19577">
        <ele>52.4</ele>
        <time>2022-04-11T13:36:16Z</time>
      </trkpt>
      <trkpt lat="49.94869" lon="2.19576">
        <ele>52.4</ele>
        <time>2022-04-11T13:36:17Z</time>
      </trkpt>
      <trkpt lat="49.9487" lon="2.19575">
        <ele>52.4</ele>
        <time>2022-04-11T13:36:18Z</time>
      </trkpt>
      <trkpt lat="49.94872" lon="2.19573">
        <ele>52.4</ele>
        <time>2022-04-11T13:36:19Z</time>
      </trkpt>
      <trkpt lat="49.94872" lon="2.19572">
        <ele>52.4</ele>
        <time>2022-04-11T13:36:20Z</time>
      </trkpt>
      <trkpt lat="49.94873" lon="2.19571">
        <ele>52.4</ele>
        <time>2022-04-11T13:36:21Z</time>
      </trkpt>
      <trkpt lat="49.94874" lon="2.19568">
        <ele>52.4</ele>
        <time>2022-04-11T13:36:22Z</time>
      </trkpt>
      <trkpt lat="49.94875" lon="2.19567">
        <ele>52.4</ele>
        <time>2022-04-11T13:36:23Z</time>
      </trkpt>
      <trkpt lat="49.94875" lon="2.19566">
        <ele>52.4</ele>
        <time>2022-04-11T13:36:24Z</time>
      </trkpt>
      <trkpt lat="49.94876" lon="2.19565">
        <ele>52.4</ele>
        <time>2022-04-11T13:36:25Z</time>
      </trkpt>
      <trkpt lat="49.94877" lon="2.19564">
        <ele>52.4</ele>
        <time>2022-04-11T13:36:26Z</time>
      </trkpt>
      <trkpt lat="49.94879" lon="2.19562">
        <ele>52.4</ele>
        <time>2022-04-11T13:36:28Z</time>
      </trkpt>
      <trkpt lat="49.94879" lon="2.19561">
        <ele>52.4</ele>
        <time>2022-04-11T13:36:29Z</time>
      </trkpt>
      <trkpt lat="49.9488" lon="2.19561">
        <ele>52.4</ele>
        <time>2022-04-11T13:36:30Z</time>
      </trkpt>
      <trkpt lat="49.94881" lon="2.19559">
        <ele>52.4</ele>
        <time>2022-04-11T13:36:31Z</time>
      </trkpt>
      <trkpt lat="49.94883" lon="2.19556">
        <ele>52.4</ele>
        <time>2022-04-11T13:36:32Z</time>
      </trkpt>
      <trkpt lat="49.94884" lon="2.19555">
        <ele>52.4</ele>
        <time>2022-04-11T13:36:33Z</time>
      </trkpt>
      <trkpt lat="49.94885" lon="2.19554">
        <ele>52.4</ele>
        <time>2022-04-11T13:36:35Z</time>
      </trkpt>
      <trkpt lat="49.94886" lon="2.19552">
        <ele>52.4</ele>
        <time>2022-04-11T13:36:36Z</time>
      </trkpt>
      <trkpt lat="49.94887" lon="2.1955">
        <ele>52.4</ele>
        <time>2022-04-11T13:36:37Z</time>
      </trkpt>
      <trkpt lat="49.94888" lon="2.19548">
        <ele>52.4</ele>
        <time>2022-04-11T13:36:38Z</time>
      </trkpt>
      <trkpt lat="49.94888" lon="2.19546">
        <ele>52.4</ele>
        <time>2022-04-11T13:36:39Z</time>
      </trkpt>
      <trkpt lat="49.94889" lon="2.19545">
        <ele>52.4</ele>
        <time>2022-04-11T13:36:40Z</time>
      </trkpt>
      <trkpt lat="49.9489" lon="2.19543">
        <ele>52.4</ele>
        <time>2022-04-11T13:36:41Z</time>
      </trkpt>
      <trkpt lat="49.94891" lon="2.19541">
        <ele>52.4</ele>
        <time>2022-04-11T13:36:42Z</time>
      </trkpt>
      <trkpt lat="49.94893" lon="2.19539">
        <ele>52.4</ele>
        <time>2022-04-11T13:36:44Z</time>
      </trkpt>
      <trkpt lat="49.94894" lon="2.19538">
        <ele>52.4</ele>
        <time>2022-04-11T13:36:45Z</time>
      </trkpt>
      <trkpt lat="49.94894" lon="2.19537">
        <ele>52.4</ele>
        <time>2022-04-11T13:36:46Z</time>
      </trkpt>
      <trkpt lat="49.94896" lon="2.19535">
        <ele>52.4</ele>
        <time>2022-04-11T13:36:47Z</time>
      </trkpt>
      <trkpt lat="49.94897" lon="2.19534">
        <ele>52.4</ele>
        <time>2022-04-11T13:36:48Z</time>
      </trkpt>
      <trkpt lat="49.94897" lon="2.19533">
        <ele>52.5</ele>
        <time>2022-04-11T13:36:49Z</time>
      </trkpt>
      <trkpt lat="49.94898" lon="2.19532">
        <ele>52.5</ele>
        <time>2022-04-11T13:36:50Z</time>
      </trkpt>
      <trkpt lat="49.94899" lon="2.1953">
        <ele>52.5</ele>
        <time>2022-04-11T13:36:51Z</time>
      </trkpt>
      <trkpt lat="49.949" lon="2.19528">
        <ele>52.5</ele>
        <time>2022-04-11T13:36:53Z</time>
      </trkpt>
      <trkpt lat="49.94901" lon="2.19526">
        <ele>52.5</ele>
        <time>2022-04-11T13:36:54Z</time>
      </trkpt>
      <trkpt lat="49.94902" lon="2.19525">
        <ele>52.5</ele>
        <time>2022-04-11T13:36:55Z</time>
      </trkpt>
      <trkpt lat="49.94902" lon="2.19523">
        <ele>52.5</ele>
        <time>2022-04-11T13:36:56Z</time>
      </trkpt>
      <trkpt lat="49.94903" lon="2.19522">
        <ele>52.5</ele>
        <time>2022-04-11T13:36:57Z</time>
      </trkpt>
      <trkpt lat="49.94903" lon="2.1952">
        <ele>52.5</ele>
        <time>2022-04-11T13:36:58Z</time>
      </trkpt>
      <trkpt lat="49.94904" lon="2.19518">
        <ele>52.5</ele>
        <time>2022-04-11T13:36:59Z</time>
      </trkpt>
      <trkpt lat="49.94906" lon="2.19514">
        <ele>52.6</ele>
        <time>2022-04-11T13:37:00Z</time>
      </trkpt>
      <trkpt lat="49.94906" lon="2.19512">
        <ele>52.6</ele>
        <time>2022-04-11T13:37:02Z</time>
      </trkpt>
      <trkpt lat="49.94907" lon="2.19511">
        <ele>52.6</ele>
        <time>2022-04-11T13:37:04Z</time>
      </trkpt>
      <trkpt lat="49.94908" lon="2.19509">
        <ele>52.6</ele>
        <time>2022-04-11T13:37:05Z</time>
      </trkpt>
      <trkpt lat="49.94909" lon="2.19507">
        <ele>52.7</ele>
        <time>2022-04-11T13:37:06Z</time>
      </trkpt>
      <trkpt lat="49.9491" lon="2.19506">
        <ele>52.7</ele>
        <time>2022-04-11T13:37:07Z</time>
      </trkpt>
      <trkpt lat="49.94911" lon="2.19504">
        <ele>52.7</ele>
        <time>2022-04-11T13:37:08Z</time>
      </trkpt>
      <trkpt lat="49.94912" lon="2.19502">
        <ele>52.7</ele>
        <time>2022-04-11T13:37:09Z</time>
      </trkpt>
      <trkpt lat="49.94913" lon="2.19501">
        <ele>52.7</ele>
        <time>2022-04-11T13:37:10Z</time>
      </trkpt>
      <trkpt lat="49.94914" lon="2.19499">
        <ele>52.8</ele>
        <time>2022-04-11T13:37:11Z</time>
      </trkpt>
      <trkpt lat="49.94915" lon="2.19497">
        <ele>52.8</ele>
        <time>2022-04-11T13:37:12Z</time>
      </trkpt>
      <trkpt lat="49.94915" lon="2.19495">
        <ele>52.8</ele>
        <time>2022-04-11T13:37:13Z</time>
      </trkpt>
      <trkpt lat="49.94916" lon="2.19494">
        <ele>52.9</ele>
        <time>2022-04-11T13:37:15Z</time>
      </trkpt>
      <trkpt lat="49.94917" lon="2.19493">
        <ele>52.9</ele>
        <time>2022-04-11T13:37:16Z</time>
      </trkpt>
      <trkpt lat="49.94917" lon="2.19492">
        <ele>52.9</ele>
        <time>2022-04-11T13:37:17Z</time>
      </trkpt>
      <trkpt lat="49.94918" lon="2.1949">
        <ele>52.9</ele>
        <time>2022-04-11T13:37:18Z</time>
      </trkpt>
      <trkpt lat="49.94918" lon="2.19489">
        <ele>52.9</ele>
        <time>2022-04-11T13:37:19Z</time>
      </trkpt>
      <trkpt lat="49.94919" lon="2.19488">
        <ele>52.9</ele>
        <time>2022-04-11T13:37:20Z</time>
      </trkpt>
      <trkpt lat="49.94919" lon="2.19486">
        <ele>53</ele>
        <time>2022-04-11T13:37:21Z</time>
      </trkpt>
      <trkpt lat="49.9492" lon="2.19484">
        <ele>53</ele>
        <time>2022-04-11T13:37:22Z</time>
      </trkpt>
      <trkpt lat="49.94921" lon="2.19482">
        <ele>53</ele>
        <time>2022-04-11T13:37:23Z</time>
      </trkpt>
      <trkpt lat="49.94922" lon="2.1948">
        <ele>53.1</ele>
        <time>2022-04-11T13:37:24Z</time>
      </trkpt>
      <trkpt lat="49.94923" lon="2.19478">
        <ele>53.1</ele>
        <time>2022-04-11T13:37:25Z</time>
      </trkpt>
      <trkpt lat="49.94924" lon="2.19476">
        <ele>53.1</ele>
        <time>2022-04-11T13:37:27Z</time>
      </trkpt>
      <trkpt lat="49.94924" lon="2.19474">
        <ele>53.2</ele>
        <time>2022-04-11T13:37:28Z</time>
      </trkpt>
      <trkpt lat="49.94925" lon="2.19472">
        <ele>53.2</ele>
        <time>2022-04-11T13:37:29Z</time>
      </trkpt>
      <trkpt lat="49.94926" lon="2.1947">
        <ele>53.2</ele>
        <time>2022-04-11T13:37:30Z</time>
      </trkpt>
      <trkpt lat="49.94926" lon="2.19469">
        <ele>53.2</ele>
        <time>2022-04-11T13:37:31Z</time>
      </trkpt>
      <trkpt lat="49.94927" lon="2.19467">
        <ele>53.3</ele>
        <time>2022-04-11T13:37:32Z</time>
      </trkpt>
      <trkpt lat="49.94927" lon="2.19466">
        <ele>53.3</ele>
        <time>2022-04-11T13:37:33Z</time>
      </trkpt>
      <trkpt lat="49.94928" lon="2.19463">
        <ele>53.3</ele>
        <time>2022-04-11T13:37:34Z</time>
      </trkpt>
      <trkpt lat="49.94929" lon="2.19462">
        <ele>53.3</ele>
        <time>2022-04-11T13:37:36Z</time>
      </trkpt>
      <trkpt lat="49.94929" lon="2.19461">
        <ele>53.4</ele>
        <time>2022-04-11T13:37:37Z</time>
      </trkpt>
      <trkpt lat="49.9493" lon="2.19459">
        <ele>53.4</ele>
        <time>2022-04-11T13:37:38Z</time>
      </trkpt>
      <trkpt lat="49.9493" lon="2.19457">
        <ele>53.4</ele>
        <time>2022-04-11T13:37:39Z</time>
      </trkpt>
      <trkpt lat="49.94931" lon="2.19454">
        <ele>53.5</ele>
        <time>2022-04-11T13:37:40Z</time>
      </trkpt>
      <trkpt lat="49.94932" lon="2.19453">
        <ele>53.5</ele>
        <time>2022-04-11T13:37:41Z</time>
      </trkpt>
      <trkpt lat="49.94932" lon="2.19452">
        <ele>53.5</ele>
        <time>2022-04-11T13:37:42Z</time>
      </trkpt>
      <trkpt lat="49.94933" lon="2.1945">
        <ele>53.6</ele>
        <time>2022-04-11T13:37:43Z</time>
      </trkpt>
      <trkpt lat="49.94934" lon="2.19449">
        <ele>53.6</ele>
        <time>2022-04-11T13:37:44Z</time>
      </trkpt>
      <trkpt lat="49.94934" lon="2.19447">
        <ele>53.6</ele>
        <time>2022-04-11T13:37:45Z</time>
      </trkpt>
      <trkpt lat="49.94935" lon="2.19444">
        <ele>53.7</ele>
        <time>2022-04-11T13:37:46Z</time>
      </trkpt>
      <trkpt lat="49.94936" lon="2.19442">
        <ele>53.7</ele>
        <time>2022-04-11T13:37:48Z</time>
      </trkpt>
      <trkpt lat="49.94936" lon="2.1944">
        <ele>53.8</ele>
        <time>2022-04-11T13:37:49Z</time>
      </trkpt>
      <trkpt lat="49.94937" lon="2.19438">
        <ele>53.8</ele>
        <time>2022-04-11T13:37:50Z</time>
      </trkpt>
      <trkpt lat="49.94937" lon="2.19437">
        <ele>53.8</ele>
        <time>2022-04-11T13:37:51Z</time>
      </trkpt>
      <trkpt lat="49.94938" lon="2.19436">
        <ele>53.9</ele>
        <time>2022-04-11T13:37:52Z</time>
      </trkpt>
      <trkpt lat="49.94939" lon="2.19433">
        <ele>53.9</ele>
        <time>2022-04-11T13:37:53Z</time>
      </trkpt>
      <trkpt lat="49.94939" lon="2.19432">
        <ele>53.9</ele>
        <time>2022-04-11T13:37:54Z</time>
      </trkpt>
      <trkpt lat="49.9494" lon="2.19431">
        <ele>54</ele>
        <time>2022-04-11T13:37:55Z</time>
      </trkpt>
      <trkpt lat="49.94941" lon="2.19428">
        <ele>54</ele>
        <time>2022-04-11T13:37:57Z</time>
      </trkpt>
      <trkpt lat="49.94941" lon="2.19426">
        <ele>54.1</ele>
        <time>2022-04-11T13:37:58Z</time>
      </trkpt>
      <trkpt lat="49.94941" lon="2.19425">
        <ele>54.1</ele>
        <time>2022-04-11T13:37:59Z</time>
      </trkpt>
      <trkpt lat="49.94942" lon="2.19422">
        <ele>54.1</ele>
        <time>2022-04-11T13:38:00Z</time>
      </trkpt>
      <trkpt lat="49.94942" lon="2.19421">
        <ele>54.2</ele>
        <time>2022-04-11T13:38:01Z</time>
      </trkpt>
      <trkpt lat="49.94942" lon="2.1942">
        <ele>54.2</ele>
        <time>2022-04-11T13:38:02Z</time>
      </trkpt>
      <trkpt lat="49.94943" lon="2.19418">
        <ele>54.2</ele>
        <time>2022-04-11T13:38:03Z</time>
      </trkpt>
      <trkpt lat="49.94944" lon="2.19416">
        <ele>54.3</ele>
        <time>2022-04-11T13:38:04Z</time>
      </trkpt>
      <trkpt lat="49.94945" lon="2.19413">
        <ele>54.3</ele>
        <time>2022-04-11T13:38:05Z</time>
      </trkpt>
      <trkpt lat="49.94946" lon="2.1941">
        <ele>54.4</ele>
        <time>2022-04-11T13:38:07Z</time>
      </trkpt>
      <trkpt lat="49.94947" lon="2.19408">
        <ele>54.4</ele>
        <time>2022-04-11T13:38:08Z</time>
      </trkpt>
      <trkpt lat="49.94947" lon="2.19406">
        <ele>54.4</ele>
        <time>2022-04-11T13:38:09Z</time>
      </trkpt>
      <trkpt lat="49.94948" lon="2.19404">
        <ele>54.5</ele>
        <time>2022-04-11T13:38:10Z</time>
      </trkpt>
      <trkpt lat="49.94948" lon="2.19403">
        <ele>54.5</ele>
        <time>2022-04-11T13:38:11Z</time>
      </trkpt>
      <trkpt lat="49.94949" lon="2.19401">
        <ele>54.5</ele>
        <time>2022-04-11T13:38:12Z</time>
      </trkpt>
      <trkpt lat="49.94949" lon="2.19399">
        <ele>54.6</ele>
        <time>2022-04-11T13:38:14Z</time>
      </trkpt>
      <trkpt lat="49.9495" lon="2.19399">
        <ele>54.6</ele>
        <time>2022-04-11T13:38:15Z</time>
      </trkpt>
      <trkpt lat="49.9495" lon="2.19398">
        <ele>54.6</ele>
        <time>2022-04-11T13:38:16Z</time>
      </trkpt>
      <trkpt lat="49.94952" lon="2.19395">
        <ele>54.7</ele>
        <time>2022-04-11T13:38:17Z</time>
      </trkpt>
      <trkpt lat="49.94952" lon="2.19394">
        <ele>54.7</ele>
        <time>2022-04-11T13:38:18Z</time>
      </trkpt>
      <trkpt lat="49.94952" lon="2.19393">
        <ele>54.7</ele>
        <time>2022-04-11T13:38:19Z</time>
      </trkpt>
      <trkpt lat="49.94953" lon="2.1939">
        <ele>54.8</ele>
        <time>2022-04-11T13:38:21Z</time>
      </trkpt>
      <trkpt lat="49.94954" lon="2.19389">
        <ele>54.8</ele>
        <time>2022-04-11T13:38:22Z</time>
      </trkpt>
      <trkpt lat="49.94955" lon="2.19386">
        <ele>54.9</ele>
        <time>2022-04-11T13:38:23Z</time>
      </trkpt>
      <trkpt lat="49.94955" lon="2.19385">
        <ele>54.9</ele>
        <time>2022-04-11T13:38:24Z</time>
      </trkpt>
      <trkpt lat="49.94956" lon="2.19384">
        <ele>54.9</ele>
        <time>2022-04-11T13:38:25Z</time>
      </trkpt>
      <trkpt lat="49.94957" lon="2.19383">
        <ele>55</ele>
        <time>2022-04-11T13:38:26Z</time>
      </trkpt>
      <trkpt lat="49.94958" lon="2.1938">
        <ele>55</ele>
        <time>2022-04-11T13:38:27Z</time>
      </trkpt>
      <trkpt lat="49.94959" lon="2.19378">
        <ele>55.1</ele>
        <time>2022-04-11T13:38:29Z</time>
      </trkpt>
      <trkpt lat="49.94959" lon="2.19377">
        <ele>55.1</ele>
        <time>2022-04-11T13:38:30Z</time>
      </trkpt>
      <trkpt lat="49.9496" lon="2.19375">
        <ele>55.1</ele>
        <time>2022-04-11T13:38:31Z</time>
      </trkpt>
      <trkpt lat="49.9496" lon="2.19374">
        <ele>55.2</ele>
        <time>2022-04-11T13:38:32Z</time>
      </trkpt>
      <trkpt lat="49.9496" lon="2.19372">
        <ele>55.2</ele>
        <time>2022-04-11T13:38:33Z</time>
      </trkpt>
      <trkpt lat="49.94961" lon="2.19371">
        <ele>55.2</ele>
        <time>2022-04-11T13:38:34Z</time>
      </trkpt>
      <trkpt lat="49.94962" lon="2.19368">
        <ele>55.3</ele>
        <time>2022-04-11T13:38:35Z</time>
      </trkpt>
      <trkpt lat="49.94963" lon="2.19367">
        <ele>55.3</ele>
        <time>2022-04-11T13:38:36Z</time>
      </trkpt>
      <trkpt lat="49.94963" lon="2.19366">
        <ele>55.3</ele>
        <time>2022-04-11T13:38:37Z</time>
      </trkpt>
      <trkpt lat="49.94964" lon="2.19363">
        <ele>55.4</ele>
        <time>2022-04-11T13:38:39Z</time>
      </trkpt>
      <trkpt lat="49.94965" lon="2.19361">
        <ele>55.4</ele>
        <time>2022-04-11T13:38:40Z</time>
      </trkpt>
      <trkpt lat="49.94965" lon="2.19359">
        <ele>55.4</ele>
        <time>2022-04-11T13:38:41Z</time>
      </trkpt>
      <trkpt lat="49.94966" lon="2.19356">
        <ele>55.5</ele>
        <time>2022-04-11T13:38:42Z</time>
      </trkpt>
      <trkpt lat="49.94967" lon="2.19354">
        <ele>55.5</ele>
        <time>2022-04-11T13:38:43Z</time>
      </trkpt>
      <trkpt lat="49.94968" lon="2.19352">
        <ele>55.6</ele>
        <time>2022-04-11T13:38:44Z</time>
      </trkpt>
      <trkpt lat="49.94968" lon="2.1935">
        <ele>55.6</ele>
        <time>2022-04-11T13:38:45Z</time>
      </trkpt>
      <trkpt lat="49.94969" lon="2.19348">
        <ele>55.6</ele>
        <time>2022-04-11T13:38:46Z</time>
      </trkpt>
      <trkpt lat="49.9497" lon="2.19344">
        <ele>55.7</ele>
        <time>2022-04-11T13:38:47Z</time>
      </trkpt>
      <trkpt lat="49.94971" lon="2.19342">
        <ele>55.7</ele>
        <time>2022-04-11T13:38:49Z</time>
      </trkpt>
      <trkpt lat="49.94971" lon="2.19341">
        <ele>55.8</ele>
        <time>2022-04-11T13:38:50Z</time>
      </trkpt>
      <trkpt lat="49.94972" lon="2.19339">
        <ele>55.8</ele>
        <time>2022-04-11T13:38:51Z</time>
      </trkpt>
      <trkpt lat="49.94972" lon="2.19337">
        <ele>55.8</ele>
        <time>2022-04-11T13:38:52Z</time>
      </trkpt>
      <trkpt lat="49.94972" lon="2.19336">
        <ele>55.9</ele>
        <time>2022-04-11T13:38:53Z</time>
      </trkpt>
      <trkpt lat="49.94973" lon="2.19334">
        <ele>55.9</ele>
        <time>2022-04-11T13:38:54Z</time>
      </trkpt>
      <trkpt lat="49.94974" lon="2.19333">
        <ele>55.9</ele>
        <time>2022-04-11T13:38:55Z</time>
      </trkpt>
      <trkpt lat="49.94975" lon="2.1933">
        <ele>56</ele>
        <time>2022-04-11T13:38:56Z</time>
      </trkpt>
      <trkpt lat="49.94975" lon="2.19329">
        <ele>56</ele>
        <time>2022-04-11T13:38:57Z</time>
      </trkpt>
      <trkpt lat="49.94976" lon="2.19328">
        <ele>56</ele>
        <time>2022-04-11T13:38:58Z</time>
      </trkpt>
      <trkpt lat="49.94976" lon="2.19325">
        <ele>56.1</ele>
        <time>2022-04-11T13:38:59Z</time>
      </trkpt>
      <trkpt lat="49.94977" lon="2.19323">
        <ele>56.1</ele>
        <time>2022-04-11T13:39:00Z</time>
      </trkpt>
      <trkpt lat="49.94977" lon="2.19321">
        <ele>56.1</ele>
        <time>2022-04-11T13:39:01Z</time>
      </trkpt>
      <trkpt lat="49.94977" lon="2.19319">
        <ele>56.2</ele>
        <time>2022-04-11T13:39:02Z</time>
      </trkpt>
      <trkpt lat="49.94978" lon="2.19317">
        <ele>56.2</ele>
        <time>2022-04-11T13:39:04Z</time>
      </trkpt>
      <trkpt lat="49.94979" lon="2.19316">
        <ele>56.2</ele>
        <time>2022-04-11T13:39:05Z</time>
      </trkpt>
      <trkpt lat="49.94979" lon="2.19314">
        <ele>56.3</ele>
        <time>2022-04-11T13:39:06Z</time>
      </trkpt>
      <trkpt lat="49.94979" lon="2.19313">
        <ele>56.3</ele>
        <time>2022-04-11T13:39:07Z</time>
      </trkpt>
      <trkpt lat="49.94979" lon="2.19314">
        <ele>56.3</ele>
        <time>2022-04-11T13:39:08Z</time>
      </trkpt>
      <trkpt lat="49.94979" lon="2.19313">
        <ele>56.3</ele>
        <time>2022-04-11T13:39:09Z</time>
      </trkpt>
      <trkpt lat="49.94979" lon="2.19311">
        <ele>56.4</ele>
        <time>2022-04-11T13:39:10Z</time>
      </trkpt>
      <trkpt lat="49.9498" lon="2.19309">
        <ele>56.4</ele>
        <time>2022-04-11T13:39:11Z</time>
      </trkpt>
      <trkpt lat="49.94981" lon="2.19307">
        <ele>56.4</ele>
        <time>2022-04-11T13:39:12Z</time>
      </trkpt>
      <trkpt lat="49.94981" lon="2.19305">
        <ele>56.5</ele>
        <time>2022-04-11T13:39:14Z</time>
      </trkpt>
      <trkpt lat="49.94981" lon="2.19305">
        <ele>56.5</ele>
        <time>2022-04-11T13:39:15Z</time>
      </trkpt>
      <trkpt lat="49.94982" lon="2.19304">
        <ele>56.5</ele>
        <time>2022-04-11T13:39:16Z</time>
      </trkpt>
      <trkpt lat="49.94983" lon="2.19302">
        <ele>56.5</ele>
        <time>2022-04-11T13:39:17Z</time>
      </trkpt>
      <trkpt lat="49.94983" lon="2.19301">
        <ele>56.6</ele>
        <time>2022-04-11T13:39:18Z</time>
      </trkpt>
      <trkpt lat="49.94984" lon="2.19299">
        <ele>56.6</ele>
        <time>2022-04-11T13:39:19Z</time>
      </trkpt>
      <trkpt lat="49.94985" lon="2.19296">
        <ele>56.7</ele>
        <time>2022-04-11T13:39:21Z</time>
      </trkpt>
      <trkpt lat="49.94986" lon="2.19294">
        <ele>56.7</ele>
        <time>2022-04-11T13:39:22Z</time>
      </trkpt>
      <trkpt lat="49.94986" lon="2.19292">
        <ele>56.7</ele>
        <time>2022-04-11T13:39:23Z</time>
      </trkpt>
      <trkpt lat="49.94987" lon="2.1929">
        <ele>56.8</ele>
        <time>2022-04-11T13:39:24Z</time>
      </trkpt>
      <trkpt lat="49.94988" lon="2.19289">
        <ele>56.8</ele>
        <time>2022-04-11T13:39:25Z</time>
      </trkpt>
      <trkpt lat="49.94988" lon="2.19288">
        <ele>56.8</ele>
        <time>2022-04-11T13:39:26Z</time>
      </trkpt>
      <trkpt lat="49.94989" lon="2.19285">
        <ele>56.9</ele>
        <time>2022-04-11T13:39:27Z</time>
      </trkpt>
      <trkpt lat="49.9499" lon="2.19284">
        <ele>56.9</ele>
        <time>2022-04-11T13:39:28Z</time>
      </trkpt>
      <trkpt lat="49.9499" lon="2.19282">
        <ele>56.9</ele>
        <time>2022-04-11T13:39:29Z</time>
      </trkpt>
      <trkpt lat="49.94991" lon="2.1928">
        <ele>56.9</ele>
        <time>2022-04-11T13:39:31Z</time>
      </trkpt>
      <trkpt lat="49.94992" lon="2.19278">
        <ele>57</ele>
        <time>2022-04-11T13:39:32Z</time>
      </trkpt>
      <trkpt lat="49.94992" lon="2.19277">
        <ele>57</ele>
        <time>2022-04-11T13:39:33Z</time>
      </trkpt>
      <trkpt lat="49.94993" lon="2.19275">
        <ele>57</ele>
        <time>2022-04-11T13:39:34Z</time>
      </trkpt>
      <trkpt lat="49.94993" lon="2.19275">
        <ele>57</ele>
        <time>2022-04-11T13:39:35Z</time>
      </trkpt>
      <trkpt lat="49.94994" lon="2.19273">
        <ele>57.1</ele>
        <time>2022-04-11T13:39:36Z</time>
      </trkpt>
      <trkpt lat="49.94994" lon="2.1927">
        <ele>57.1</ele>
        <time>2022-04-11T13:39:37Z</time>
      </trkpt>
      <trkpt lat="49.94995" lon="2.19268">
        <ele>57.1</ele>
        <time>2022-04-11T13:39:38Z</time>
      </trkpt>
      <trkpt lat="49.94996" lon="2.19266">
        <ele>57.2</ele>
        <time>2022-04-11T13:39:40Z</time>
      </trkpt>
      <trkpt lat="49.94997" lon="2.19264">
        <ele>57.2</ele>
        <time>2022-04-11T13:39:41Z</time>
      </trkpt>
      <trkpt lat="49.94997" lon="2.19262">
        <ele>57.2</ele>
        <time>2022-04-11T13:39:42Z</time>
      </trkpt>
      <trkpt lat="49.94998" lon="2.1926">
        <ele>57.3</ele>
        <time>2022-04-11T13:39:43Z</time>
      </trkpt>
      <trkpt lat="49.94999" lon="2.19259">
        <ele>57.3</ele>
        <time>2022-04-11T13:39:44Z</time>
      </trkpt>
      <trkpt lat="49.94999" lon="2.19258">
        <ele>57.3</ele>
        <time>2022-04-11T13:39:45Z</time>
      </trkpt>
      <trkpt lat="49.95" lon="2.19256">
        <ele>57.3</ele>
        <time>2022-04-11T13:39:46Z</time>
      </trkpt>
      <trkpt lat="49.95001" lon="2.19253">
        <ele>57.4</ele>
        <time>2022-04-11T13:39:47Z</time>
      </trkpt>
      <trkpt lat="49.95003" lon="2.19251">
        <ele>57.4</ele>
        <time>2022-04-11T13:39:49Z</time>
      </trkpt>
      <trkpt lat="49.95003" lon="2.1925">
        <ele>57.4</ele>
        <time>2022-04-11T13:39:50Z</time>
      </trkpt>
      <trkpt lat="49.95004" lon="2.19249">
        <ele>57.4</ele>
        <time>2022-04-11T13:39:51Z</time>
      </trkpt>
      <trkpt lat="49.95004" lon="2.19247">
        <ele>57.5</ele>
        <time>2022-04-11T13:39:52Z</time>
      </trkpt>
      <trkpt lat="49.95005" lon="2.19245">
        <ele>57.5</ele>
        <time>2022-04-11T13:39:53Z</time>
      </trkpt>
      <trkpt lat="49.95005" lon="2.19244">
        <ele>57.5</ele>
        <time>2022-04-11T13:39:55Z</time>
      </trkpt>
      <trkpt lat="49.95006" lon="2.19243">
        <ele>57.5</ele>
        <time>2022-04-11T13:39:56Z</time>
      </trkpt>
      <trkpt lat="49.95007" lon="2.19241">
        <ele>57.6</ele>
        <time>2022-04-11T13:39:57Z</time>
      </trkpt>
      <trkpt lat="49.95007" lon="2.1924">
        <ele>57.6</ele>
        <time>2022-04-11T13:39:58Z</time>
      </trkpt>
      <trkpt lat="49.95008" lon="2.19238">
        <ele>57.6</ele>
        <time>2022-04-11T13:39:59Z</time>
      </trkpt>
      <trkpt lat="49.95009" lon="2.19236">
        <ele>57.6</ele>
        <time>2022-04-11T13:40:00Z</time>
      </trkpt>
      <trkpt lat="49.95009" lon="2.19234">
        <ele>57.7</ele>
        <time>2022-04-11T13:40:01Z</time>
      </trkpt>
      <trkpt lat="49.9501" lon="2.19232">
        <ele>57.7</ele>
        <time>2022-04-11T13:40:02Z</time>
      </trkpt>
      <trkpt lat="49.95011" lon="2.19229">
        <ele>57.7</ele>
        <time>2022-04-11T13:40:04Z</time>
      </trkpt>
      <trkpt lat="49.95012" lon="2.19228">
        <ele>57.8</ele>
        <time>2022-04-11T13:40:05Z</time>
      </trkpt>
      <trkpt lat="49.95012" lon="2.19225">
        <ele>57.8</ele>
        <time>2022-04-11T13:40:06Z</time>
      </trkpt>
      <trkpt lat="49.95013" lon="2.19223">
        <ele>57.8</ele>
        <time>2022-04-11T13:40:07Z</time>
      </trkpt>
      <trkpt lat="49.95014" lon="2.1922">
        <ele>57.9</ele>
        <time>2022-04-11T13:40:08Z</time>
      </trkpt>
      <trkpt lat="49.95015" lon="2.19219">
        <ele>57.9</ele>
        <time>2022-04-11T13:40:10Z</time>
      </trkpt>
      <trkpt lat="49.95015" lon="2.19218">
        <ele>57.9</ele>
        <time>2022-04-11T13:40:11Z</time>
      </trkpt>
      <trkpt lat="49.95016" lon="2.19217">
        <ele>57.9</ele>
        <time>2022-04-11T13:40:12Z</time>
      </trkpt>
      <trkpt lat="49.95016" lon="2.19215">
        <ele>58</ele>
        <time>2022-04-11T13:40:13Z</time>
      </trkpt>
      <trkpt lat="49.95016" lon="2.19214">
        <ele>58</ele>
        <time>2022-04-11T13:40:14Z</time>
      </trkpt>
      <trkpt lat="49.95017" lon="2.19212">
        <ele>58</ele>
        <time>2022-04-11T13:40:15Z</time>
      </trkpt>
      <trkpt lat="49.95017" lon="2.1921">
        <ele>58</ele>
        <time>2022-04-11T13:40:16Z</time>
      </trkpt>
      <trkpt lat="49.95018" lon="2.19209">
        <ele>58</ele>
        <time>2022-04-11T13:40:17Z</time>
      </trkpt>
      <trkpt lat="49.95019" lon="2.19206">
        <ele>58.1</ele>
        <time>2022-04-11T13:40:19Z</time>
      </trkpt>
      <trkpt lat="49.95019" lon="2.19204">
        <ele>58.1</ele>
        <time>2022-04-11T13:40:20Z</time>
      </trkpt>
      <trkpt lat="49.9502" lon="2.19201">
        <ele>58.1</ele>
        <time>2022-04-11T13:40:21Z</time>
      </trkpt>
      <trkpt lat="49.95021" lon="2.19199">
        <ele>58.2</ele>
        <time>2022-04-11T13:40:22Z</time>
      </trkpt>
      <trkpt lat="49.95022" lon="2.19197">
        <ele>58.2</ele>
        <time>2022-04-11T13:40:23Z</time>
      </trkpt>
      <trkpt lat="49.95022" lon="2.19195">
        <ele>58.2</ele>
        <time>2022-04-11T13:40:24Z</time>
      </trkpt>
      <trkpt lat="49.95023" lon="2.19193">
        <ele>58.3</ele>
        <time>2022-04-11T13:40:25Z</time>
      </trkpt>
      <trkpt lat="49.95024" lon="2.19192">
        <ele>58.3</ele>
        <time>2022-04-11T13:40:26Z</time>
      </trkpt>
      <trkpt lat="49.95025" lon="2.1919">
        <ele>58.3</ele>
        <time>2022-04-11T13:40:27Z</time>
      </trkpt>
      <trkpt lat="49.95025" lon="2.19188">
        <ele>58.3</ele>
        <time>2022-04-11T13:40:28Z</time>
      </trkpt>
      <trkpt lat="49.95026" lon="2.19185">
        <ele>58.4</ele>
        <time>2022-04-11T13:40:29Z</time>
      </trkpt>
      <trkpt lat="49.95027" lon="2.19183">
        <ele>58.4</ele>
        <time>2022-04-11T13:40:31Z</time>
      </trkpt>
      <trkpt lat="49.95027" lon="2.19182">
        <ele>58.4</ele>
        <time>2022-04-11T13:40:32Z</time>
      </trkpt>
      <trkpt lat="49.95028" lon="2.19178">
        <ele>58.4</ele>
        <time>2022-04-11T13:40:33Z</time>
      </trkpt>
      <trkpt lat="49.95029" lon="2.19177">
        <ele>58.4</ele>
        <time>2022-04-11T13:40:35Z</time>
      </trkpt>
      <trkpt lat="49.95029" lon="2.19176">
        <ele>58.4</ele>
        <time>2022-04-11T13:40:36Z</time>
      </trkpt>
      <trkpt lat="49.9503" lon="2.19174">
        <ele>58.5</ele>
        <time>2022-04-11T13:40:37Z</time>
      </trkpt>
      <trkpt lat="49.9503" lon="2.19173">
        <ele>58.5</ele>
        <time>2022-04-11T13:40:38Z</time>
      </trkpt>
      <trkpt lat="49.95031" lon="2.19172">
        <ele>58.5</ele>
        <time>2022-04-11T13:40:39Z</time>
      </trkpt>
      <trkpt lat="49.95032" lon="2.19169">
        <ele>58.5</ele>
        <time>2022-04-11T13:40:40Z</time>
      </trkpt>
      <trkpt lat="49.95033" lon="2.19168">
        <ele>58.5</ele>
        <time>2022-04-11T13:40:41Z</time>
      </trkpt>
      <trkpt lat="49.95033" lon="2.19166">
        <ele>58.5</ele>
        <time>2022-04-11T13:40:42Z</time>
      </trkpt>
      <trkpt lat="49.95035" lon="2.19163">
        <ele>58.6</ele>
        <time>2022-04-11T13:40:43Z</time>
      </trkpt>
      <trkpt lat="49.95035" lon="2.19162">
        <ele>58.6</ele>
        <time>2022-04-11T13:40:44Z</time>
      </trkpt>
      <trkpt lat="49.95036" lon="2.19161">
        <ele>58.6</ele>
        <time>2022-04-11T13:40:45Z</time>
      </trkpt>
      <trkpt lat="49.95037" lon="2.19157">
        <ele>58.6</ele>
        <time>2022-04-11T13:40:47Z</time>
      </trkpt>
      <trkpt lat="49.95037" lon="2.19156">
        <ele>58.6</ele>
        <time>2022-04-11T13:40:48Z</time>
      </trkpt>
      <trkpt lat="49.95038" lon="2.19155">
        <ele>58.6</ele>
        <time>2022-04-11T13:40:49Z</time>
      </trkpt>
      <trkpt lat="49.95038" lon="2.19153">
        <ele>58.7</ele>
        <time>2022-04-11T13:40:50Z</time>
      </trkpt>
      <trkpt lat="49.95038" lon="2.19152">
        <ele>58.7</ele>
        <time>2022-04-11T13:40:51Z</time>
      </trkpt>
      <trkpt lat="49.95039" lon="2.1915">
        <ele>58.7</ele>
        <time>2022-04-11T13:40:52Z</time>
      </trkpt>
      <trkpt lat="49.95039" lon="2.19149">
        <ele>58.7</ele>
        <time>2022-04-11T13:40:53Z</time>
      </trkpt>
      <trkpt lat="49.9504" lon="2.19147">
        <ele>58.7</ele>
        <time>2022-04-11T13:40:55Z</time>
      </trkpt>
      <trkpt lat="49.9504" lon="2.19146">
        <ele>58.7</ele>
        <time>2022-04-11T13:40:56Z</time>
      </trkpt>
      <trkpt lat="49.95041" lon="2.19143">
        <ele>58.8</ele>
        <time>2022-04-11T13:40:57Z</time>
      </trkpt>
      <trkpt lat="49.95042" lon="2.19142">
        <ele>58.8</ele>
        <time>2022-04-11T13:40:58Z</time>
      </trkpt>
      <trkpt lat="49.95042" lon="2.19141">
        <ele>58.8</ele>
        <time>2022-04-11T13:40:59Z</time>
      </trkpt>
      <trkpt lat="49.95043" lon="2.19139">
        <ele>58.8</ele>
        <time>2022-04-11T13:41:00Z</time>
      </trkpt>
      <trkpt lat="49.95044" lon="2.19137">
        <ele>58.8</ele>
        <time>2022-04-11T13:41:01Z</time>
      </trkpt>
      <trkpt lat="49.95045" lon="2.19135">
        <ele>58.9</ele>
        <time>2022-04-11T13:41:02Z</time>
      </trkpt>
      <trkpt lat="49.95046" lon="2.19133">
        <ele>58.9</ele>
        <time>2022-04-11T13:41:03Z</time>
      </trkpt>
      <trkpt lat="49.95047" lon="2.19131">
        <ele>58.9</ele>
        <time>2022-04-11T13:41:04Z</time>
      </trkpt>
      <trkpt lat="49.95047" lon="2.1913">
        <ele>58.9</ele>
        <time>2022-04-11T13:41:05Z</time>
      </trkpt>
      <trkpt lat="49.95048" lon="2.19129">
        <ele>58.9</ele>
        <time>2022-04-11T13:41:06Z</time>
      </trkpt>
      <trkpt lat="49.95049" lon="2.19128">
        <ele>59</ele>
        <time>2022-04-11T13:41:07Z</time>
      </trkpt>
      <trkpt lat="49.95049" lon="2.19126">
        <ele>59</ele>
        <time>2022-04-11T13:41:08Z</time>
      </trkpt>
      <trkpt lat="49.9505" lon="2.19125">
        <ele>59</ele>
        <time>2022-04-11T13:41:09Z</time>
      </trkpt>
      <trkpt lat="49.95051" lon="2.19123">
        <ele>59</ele>
        <time>2022-04-11T13:41:10Z</time>
      </trkpt>
      <trkpt lat="49.95052" lon="2.19121">
        <ele>59</ele>
        <time>2022-04-11T13:41:12Z</time>
      </trkpt>
      <trkpt lat="49.95052" lon="2.19119">
        <ele>59</ele>
        <time>2022-04-11T13:41:13Z</time>
      </trkpt>
      <trkpt lat="49.95053" lon="2.19116">
        <ele>59.1</ele>
        <time>2022-04-11T13:41:14Z</time>
      </trkpt>
      <trkpt lat="49.95054" lon="2.19114">
        <ele>59.1</ele>
        <time>2022-04-11T13:41:15Z</time>
      </trkpt>
      <trkpt lat="49.95055" lon="2.19112">
        <ele>59.1</ele>
        <time>2022-04-11T13:41:16Z</time>
      </trkpt>
      <trkpt lat="49.95057" lon="2.19108">
        <ele>59.1</ele>
        <time>2022-04-11T13:41:18Z</time>
      </trkpt>
      <trkpt lat="49.95057" lon="2.19107">
        <ele>59.2</ele>
        <time>2022-04-11T13:41:19Z</time>
      </trkpt>
      <trkpt lat="49.95059" lon="2.19103">
        <ele>59.2</ele>
        <time>2022-04-11T13:41:20Z</time>
      </trkpt>
      <trkpt lat="49.95059" lon="2.19102">
        <ele>59.2</ele>
        <time>2022-04-11T13:41:22Z</time>
      </trkpt>
      <trkpt lat="49.9506" lon="2.19101">
        <ele>59.2</ele>
        <time>2022-04-11T13:41:23Z</time>
      </trkpt>
      <trkpt lat="49.9506" lon="2.19099">
        <ele>59.2</ele>
        <time>2022-04-11T13:41:24Z</time>
      </trkpt>
      <trkpt lat="49.95061" lon="2.19098">
        <ele>59.2</ele>
        <time>2022-04-11T13:41:25Z</time>
      </trkpt>
      <trkpt lat="49.95062" lon="2.19096">
        <ele>59.3</ele>
        <time>2022-04-11T13:41:26Z</time>
      </trkpt>
      <trkpt lat="49.95062" lon="2.19095">
        <ele>59.3</ele>
        <time>2022-04-11T13:41:27Z</time>
      </trkpt>
      <trkpt lat="49.95063" lon="2.19094">
        <ele>59.3</ele>
        <time>2022-04-11T13:41:28Z</time>
      </trkpt>
      <trkpt lat="49.95064" lon="2.19091">
        <ele>59.3</ele>
        <time>2022-04-11T13:41:30Z</time>
      </trkpt>
      <trkpt lat="49.95065" lon="2.1909">
        <ele>59.3</ele>
        <time>2022-04-11T13:41:31Z</time>
      </trkpt>
      <trkpt lat="49.95065" lon="2.19089">
        <ele>59.3</ele>
        <time>2022-04-11T13:41:32Z</time>
      </trkpt>
      <trkpt lat="49.95066" lon="2.19087">
        <ele>59.4</ele>
        <time>2022-04-11T13:41:33Z</time>
      </trkpt>
      <trkpt lat="49.95067" lon="2.19085">
        <ele>59.4</ele>
        <time>2022-04-11T13:41:34Z</time>
      </trkpt>
      <trkpt lat="49.95067" lon="2.19083">
        <ele>59.4</ele>
        <time>2022-04-11T13:41:36Z</time>
      </trkpt>
      <trkpt lat="49.95068" lon="2.19081">
        <ele>59.4</ele>
        <time>2022-04-11T13:41:37Z</time>
      </trkpt>
      <trkpt lat="49.95069" lon="2.19078">
        <ele>59.4</ele>
        <time>2022-04-11T13:41:38Z</time>
      </trkpt>
      <trkpt lat="49.95069" lon="2.19077">
        <ele>59.5</ele>
        <time>2022-04-11T13:41:39Z</time>
      </trkpt>
      <trkpt lat="49.9507" lon="2.19075">
        <ele>59.5</ele>
        <time>2022-04-11T13:41:40Z</time>
      </trkpt>
      <trkpt lat="49.95071" lon="2.19073">
        <ele>59.5</ele>
        <time>2022-04-11T13:41:42Z</time>
      </trkpt>
      <trkpt lat="49.95071" lon="2.19071">
        <ele>59.5</ele>
        <time>2022-04-11T13:41:43Z</time>
      </trkpt>
      <trkpt lat="49.95072" lon="2.1907">
        <ele>59.5</ele>
        <time>2022-04-11T13:41:44Z</time>
      </trkpt>
      <trkpt lat="49.95072" lon="2.19069">
        <ele>59.6</ele>
        <time>2022-04-11T13:41:45Z</time>
      </trkpt>
      <trkpt lat="49.95073" lon="2.19067">
        <ele>59.6</ele>
        <time>2022-04-11T13:41:46Z</time>
      </trkpt>
      <trkpt lat="49.95074" lon="2.19065">
        <ele>59.6</ele>
        <time>2022-04-11T13:41:47Z</time>
      </trkpt>
      <trkpt lat="49.95074" lon="2.19063">
        <ele>59.6</ele>
        <time>2022-04-11T13:41:48Z</time>
      </trkpt>
      <trkpt lat="49.95075" lon="2.19061">
        <ele>59.6</ele>
        <time>2022-04-11T13:41:49Z</time>
      </trkpt>
      <trkpt lat="49.95076" lon="2.19059">
        <ele>59.7</ele>
        <time>2022-04-11T13:41:51Z</time>
      </trkpt>
      <trkpt lat="49.95077" lon="2.19057">
        <ele>59.7</ele>
        <time>2022-04-11T13:41:52Z</time>
      </trkpt>
      <trkpt lat="49.95077" lon="2.19055">
        <ele>59.7</ele>
        <time>2022-04-11T13:41:53Z</time>
      </trkpt>
      <trkpt lat="49.95078" lon="2.19054">
        <ele>59.7</ele>
        <time>2022-04-11T13:41:54Z</time>
      </trkpt>
      <trkpt lat="49.95079" lon="2.19052">
        <ele>59.7</ele>
        <time>2022-04-11T13:41:55Z</time>
      </trkpt>
      <trkpt lat="49.95079" lon="2.19051">
        <ele>59.8</ele>
        <time>2022-04-11T13:41:56Z</time>
      </trkpt>
      <trkpt lat="49.9508" lon="2.19049">
        <ele>59.8</ele>
        <time>2022-04-11T13:41:57Z</time>
      </trkpt>
      <trkpt lat="49.95081" lon="2.19047">
        <ele>59.8</ele>
        <time>2022-04-11T13:41:58Z</time>
      </trkpt>
      <trkpt lat="49.95082" lon="2.19045">
        <ele>59.8</ele>
        <time>2022-04-11T13:41:59Z</time>
      </trkpt>
      <trkpt lat="49.95083" lon="2.19043">
        <ele>59.8</ele>
        <time>2022-04-11T13:42:00Z</time>
      </trkpt>
      <trkpt lat="49.95084" lon="2.19042">
        <ele>59.8</ele>
        <time>2022-04-11T13:42:01Z</time>
      </trkpt>
      <trkpt lat="49.95084" lon="2.19041">
        <ele>59.8</ele>
        <time>2022-04-11T13:42:02Z</time>
      </trkpt>
      <trkpt lat="49.95085" lon="2.19039">
        <ele>59.9</ele>
        <time>2022-04-11T13:42:03Z</time>
      </trkpt>
      <trkpt lat="49.95085" lon="2.19037">
        <ele>59.9</ele>
        <time>2022-04-11T13:42:04Z</time>
      </trkpt>
      <trkpt lat="49.95086" lon="2.19036">
        <ele>59.9</ele>
        <time>2022-04-11T13:42:05Z</time>
      </trkpt>
      <trkpt lat="49.95087" lon="2.19035">
        <ele>59.9</ele>
        <time>2022-04-11T13:42:06Z</time>
      </trkpt>
      <trkpt lat="49.95088" lon="2.19032">
        <ele>59.9</ele>
        <time>2022-04-11T13:42:07Z</time>
      </trkpt>
      <trkpt lat="49.95088" lon="2.19031">
        <ele>59.9</ele>
        <time>2022-04-11T13:42:09Z</time>
      </trkpt>
      <trkpt lat="49.95089" lon="2.1903">
        <ele>59.9</ele>
        <time>2022-04-11T13:42:10Z</time>
      </trkpt>
      <trkpt lat="49.9509" lon="2.19027">
        <ele>60</ele>
        <time>2022-04-11T13:42:11Z</time>
      </trkpt>
      <trkpt lat="49.9509" lon="2.19026">
        <ele>60</ele>
        <time>2022-04-11T13:42:12Z</time>
      </trkpt>
      <trkpt lat="49.95091" lon="2.19025">
        <ele>60</ele>
        <time>2022-04-11T13:42:13Z</time>
      </trkpt>
      <trkpt lat="49.95092" lon="2.19023">
        <ele>60</ele>
        <time>2022-04-11T13:42:14Z</time>
      </trkpt>
      <trkpt lat="49.95092" lon="2.19021">
        <ele>60</ele>
        <time>2022-04-11T13:42:15Z</time>
      </trkpt>
      <trkpt lat="49.95093" lon="2.1902">
        <ele>60</ele>
        <time>2022-04-11T13:42:16Z</time>
      </trkpt>
      <trkpt lat="49.95094" lon="2.19018">
        <ele>60</ele>
        <time>2022-04-11T13:42:18Z</time>
      </trkpt>
      <trkpt lat="49.95095" lon="2.19016">
        <ele>60.1</ele>
        <time>2022-04-11T13:42:19Z</time>
      </trkpt>
      <trkpt lat="49.95095" lon="2.19015">
        <ele>60.1</ele>
        <time>2022-04-11T13:42:20Z</time>
      </trkpt>
      <trkpt lat="49.95096" lon="2.19013">
        <ele>60.1</ele>
        <time>2022-04-11T13:42:21Z</time>
      </trkpt>
      <trkpt lat="49.95096" lon="2.19011">
        <ele>60.1</ele>
        <time>2022-04-11T13:42:22Z</time>
      </trkpt>
      <trkpt lat="49.95097" lon="2.19009">
        <ele>60.1</ele>
        <time>2022-04-11T13:42:23Z</time>
      </trkpt>
      <trkpt lat="49.95097" lon="2.19008">
        <ele>60.1</ele>
        <time>2022-04-11T13:42:24Z</time>
      </trkpt>
      <trkpt lat="49.95098" lon="2.19006">
        <ele>60.1</ele>
        <time>2022-04-11T13:42:25Z</time>
      </trkpt>
      <trkpt lat="49.95099" lon="2.19003">
        <ele>60.1</ele>
        <time>2022-04-11T13:42:26Z</time>
      </trkpt>
      <trkpt lat="49.95099" lon="2.19002">
        <ele>60.2</ele>
        <time>2022-04-11T13:42:27Z</time>
      </trkpt>
      <trkpt lat="49.95099" lon="2.19001">
        <ele>60.2</ele>
        <time>2022-04-11T13:42:28Z</time>
      </trkpt>
      <trkpt lat="49.951" lon="2.18999">
        <ele>60.2</ele>
        <time>2022-04-11T13:42:29Z</time>
      </trkpt>
      <trkpt lat="49.951" lon="2.18998">
        <ele>60.2</ele>
        <time>2022-04-11T13:42:30Z</time>
      </trkpt>
      <trkpt lat="49.95101" lon="2.18996">
        <ele>60.2</ele>
        <time>2022-04-11T13:42:31Z</time>
      </trkpt>
      <trkpt lat="49.95101" lon="2.18993">
        <ele>60.2</ele>
        <time>2022-04-11T13:42:32Z</time>
      </trkpt>
      <trkpt lat="49.95102" lon="2.18992">
        <ele>60.2</ele>
        <time>2022-04-11T13:42:34Z</time>
      </trkpt>
      <trkpt lat="49.95102" lon="2.18991">
        <ele>60.2</ele>
        <time>2022-04-11T13:42:35Z</time>
      </trkpt>
      <trkpt lat="49.95102" lon="2.18989">
        <ele>60.2</ele>
        <time>2022-04-11T13:42:36Z</time>
      </trkpt>
      <trkpt lat="49.95103" lon="2.18988">
        <ele>60.2</ele>
        <time>2022-04-11T13:42:37Z</time>
      </trkpt>
      <trkpt lat="49.95103" lon="2.18987">
        <ele>60.2</ele>
        <time>2022-04-11T13:42:38Z</time>
      </trkpt>
      <trkpt lat="49.95103" lon="2.18986">
        <ele>60.2</ele>
        <time>2022-04-11T13:42:39Z</time>
      </trkpt>
      <trkpt lat="49.95104" lon="2.18983">
        <ele>60.3</ele>
        <time>2022-04-11T13:42:40Z</time>
      </trkpt>
      <trkpt lat="49.95105" lon="2.18981">
        <ele>60.3</ele>
        <time>2022-04-11T13:42:41Z</time>
      </trkpt>
      <trkpt lat="49.95105" lon="2.1898">
        <ele>60.3</ele>
        <time>2022-04-11T13:42:43Z</time>
      </trkpt>
      <trkpt lat="49.95105" lon="2.18978">
        <ele>60.3</ele>
        <time>2022-04-11T13:42:44Z</time>
      </trkpt>
      <trkpt lat="49.95105" lon="2.18977">
        <ele>60.3</ele>
        <time>2022-04-11T13:42:45Z</time>
      </trkpt>
      <trkpt lat="49.95106" lon="2.18975">
        <ele>60.3</ele>
        <time>2022-04-11T13:42:46Z</time>
      </trkpt>
      <trkpt lat="49.95107" lon="2.18972">
        <ele>60.3</ele>
        <time>2022-04-11T13:42:47Z</time>
      </trkpt>
      <trkpt lat="49.95107" lon="2.1897">
        <ele>60.3</ele>
        <time>2022-04-11T13:42:48Z</time>
      </trkpt>
      <trkpt lat="49.95107" lon="2.18969">
        <ele>60.3</ele>
        <time>2022-04-11T13:42:49Z</time>
      </trkpt>
      <trkpt lat="49.95108" lon="2.18967">
        <ele>60.4</ele>
        <time>2022-04-11T13:42:51Z</time>
      </trkpt>
      <trkpt lat="49.95108" lon="2.18966">
        <ele>60.4</ele>
        <time>2022-04-11T13:42:52Z</time>
      </trkpt>
      <trkpt lat="49.95109" lon="2.18965">
        <ele>60.4</ele>
        <time>2022-04-11T13:42:53Z</time>
      </trkpt>
      <trkpt lat="49.95109" lon="2.18963">
        <ele>60.4</ele>
        <time>2022-04-11T13:42:54Z</time>
      </trkpt>
      <trkpt lat="49.9511" lon="2.18962">
        <ele>60.4</ele>
        <time>2022-04-11T13:42:55Z</time>
      </trkpt>
      <trkpt lat="49.9511" lon="2.18961">
        <ele>60.4</ele>
        <time>2022-04-11T13:42:56Z</time>
      </trkpt>
      <trkpt lat="49.95111" lon="2.18959">
        <ele>60.4</ele>
        <time>2022-04-11T13:42:57Z</time>
      </trkpt>
      <trkpt lat="49.95112" lon="2.18957">
        <ele>60.4</ele>
        <time>2022-04-11T13:42:58Z</time>
      </trkpt>
      <trkpt lat="49.95113" lon="2.18954">
        <ele>60.4</ele>
        <time>2022-04-11T13:42:59Z</time>
      </trkpt>
      <trkpt lat="49.95113" lon="2.18953">
        <ele>60.4</ele>
        <time>2022-04-11T13:43:00Z</time>
      </trkpt>
      <trkpt lat="49.95113" lon="2.18952">
        <ele>60.4</ele>
        <time>2022-04-11T13:43:01Z</time>
      </trkpt>
      <trkpt lat="49.95114" lon="2.1895">
        <ele>60.5</ele>
        <time>2022-04-11T13:43:02Z</time>
      </trkpt>
      <trkpt lat="49.95114" lon="2.18948">
        <ele>60.5</ele>
        <time>2022-04-11T13:43:03Z</time>
      </trkpt>
      <trkpt lat="49.95114" lon="2.18946">
        <ele>60.5</ele>
        <time>2022-04-11T13:43:04Z</time>
      </trkpt>
      <trkpt lat="49.95114" lon="2.18944">
        <ele>60.5</ele>
        <time>2022-04-11T13:43:05Z</time>
      </trkpt>
      <trkpt lat="49.95115" lon="2.18943">
        <ele>60.5</ele>
        <time>2022-04-11T13:43:07Z</time>
      </trkpt>
      <trkpt lat="49.95115" lon="2.18941">
        <ele>60.5</ele>
        <time>2022-04-11T13:43:08Z</time>
      </trkpt>
      <trkpt lat="49.95115" lon="2.18939">
        <ele>60.5</ele>
        <time>2022-04-11T13:43:09Z</time>
      </trkpt>
      <trkpt lat="49.95115" lon="2.18938">
        <ele>60.5</ele>
        <time>2022-04-11T13:43:10Z</time>
      </trkpt>
      <trkpt lat="49.95115" lon="2.18936">
        <ele>60.5</ele>
        <time>2022-04-11T13:43:11Z</time>
      </trkpt>
      <trkpt lat="49.95115" lon="2.18935">
        <ele>60.5</ele>
        <time>2022-04-11T13:43:12Z</time>
      </trkpt>
      <trkpt lat="49.95114" lon="2.18934">
        <ele>60.5</ele>
        <time>2022-04-11T13:43:13Z</time>
      </trkpt>
      <trkpt lat="49.95114" lon="2.18933">
        <ele>60.5</ele>
        <time>2022-04-11T13:43:14Z</time>
      </trkpt>
      <trkpt lat="49.95114" lon="2.18932">
        <ele>60.5</ele>
        <time>2022-04-11T13:43:15Z</time>
      </trkpt>
      <trkpt lat="49.95114" lon="2.18931">
        <ele>60.5</ele>
        <time>2022-04-11T13:43:16Z</time>
      </trkpt>
      <trkpt lat="49.95115" lon="2.18929">
        <ele>60.5</ele>
        <time>2022-04-11T13:43:17Z</time>
      </trkpt>
      <trkpt lat="49.95115" lon="2.18928">
        <ele>60.5</ele>
        <time>2022-04-11T13:43:19Z</time>
      </trkpt>
      <trkpt lat="49.95117" lon="2.18927">
        <ele>60.5</ele>
        <time>2022-04-11T13:43:20Z</time>
      </trkpt>
      <trkpt lat="49.95118" lon="2.18927">
        <ele>60.5</ele>
        <time>2022-04-11T13:43:21Z</time>
      </trkpt>
      <trkpt lat="49.9512" lon="2.18926">
        <ele>60.5</ele>
        <time>2022-04-11T13:43:23Z</time>
      </trkpt>
      <trkpt lat="49.9512" lon="2.18926">
        <ele>60.5</ele>
        <time>2022-04-11T13:43:24Z</time>
      </trkpt>
      <trkpt lat="49.95121" lon="2.18926">
        <ele>60.6</ele>
        <time>2022-04-11T13:43:25Z</time>
      </trkpt>
      <trkpt lat="49.95121" lon="2.18926">
        <ele>60.6</ele>
        <time>2022-04-11T13:43:26Z</time>
      </trkpt>
      <trkpt lat="49.95122" lon="2.18926">
        <ele>60.6</ele>
        <time>2022-04-11T13:43:27Z</time>
      </trkpt>
      <trkpt lat="49.95122" lon="2.18926">
        <ele>60.6</ele>
        <time>2022-04-11T13:43:28Z</time>
      </trkpt>
      <trkpt lat="49.95122" lon="2.18926">
        <ele>60.6</ele>
        <time>2022-04-11T13:43:29Z</time>
      </trkpt>
      <trkpt lat="49.95123" lon="2.18925">
        <ele>60.6</ele>
        <time>2022-04-11T13:43:30Z</time>
      </trkpt>
      <trkpt lat="49.95123" lon="2.18924">
        <ele>60.6</ele>
        <time>2022-04-11T13:43:31Z</time>
      </trkpt>
      <trkpt lat="49.95124" lon="2.18923">
        <ele>60.6</ele>
        <time>2022-04-11T13:43:32Z</time>
      </trkpt>
      <trkpt lat="49.95125" lon="2.18922">
        <ele>60.6</ele>
        <time>2022-04-11T13:43:34Z</time>
      </trkpt>
      <trkpt lat="49.95125" lon="2.1892">
        <ele>60.6</ele>
        <time>2022-04-11T13:43:35Z</time>
      </trkpt>
      <trkpt lat="49.95125" lon="2.18919">
        <ele>60.6</ele>
        <time>2022-04-11T13:43:36Z</time>
      </trkpt>
      <trkpt lat="49.95125" lon="2.18917">
        <ele>60.6</ele>
        <time>2022-04-11T13:43:37Z</time>
      </trkpt>
      <trkpt lat="49.95126" lon="2.18916">
        <ele>60.6</ele>
        <time>2022-04-11T13:43:39Z</time>
      </trkpt>
      <trkpt lat="49.95126" lon="2.18915">
        <ele>60.6</ele>
        <time>2022-04-11T13:43:40Z</time>
      </trkpt>
      <trkpt lat="49.95126" lon="2.18914">
        <ele>60.6</ele>
        <time>2022-04-11T13:43:41Z</time>
      </trkpt>
      <trkpt lat="49.95126" lon="2.18914">
        <ele>60.6</ele>
        <time>2022-04-11T13:43:42Z</time>
      </trkpt>
      <trkpt lat="49.95126" lon="2.18915">
        <ele>60.6</ele>
        <time>2022-04-11T13:43:43Z</time>
      </trkpt>
      <trkpt lat="49.95126" lon="2.18915">
        <ele>60.6</ele>
        <time>2022-04-11T13:43:44Z</time>
      </trkpt>
      <trkpt lat="49.95125" lon="2.18916">
        <ele>60.6</ele>
        <time>2022-04-11T13:43:45Z</time>
      </trkpt>
      <trkpt lat="49.95125" lon="2.18916">
        <ele>60.6</ele>
        <time>2022-04-11T13:43:46Z</time>
      </trkpt>
      <trkpt lat="49.95125" lon="2.18916">
        <ele>60.6</ele>
        <time>2022-04-11T13:43:47Z</time>
      </trkpt>
      <trkpt lat="49.95125" lon="2.18916">
        <ele>60.6</ele>
        <time>2022-04-11T13:43:48Z</time>
      </trkpt>
      <trkpt lat="49.95125" lon="2.18917">
        <ele>60.6</ele>
        <time>2022-04-11T13:43:49Z</time>
      </trkpt>
      <trkpt lat="49.95124" lon="2.18917">
        <ele>60.6</ele>
        <time>2022-04-11T13:43:50Z</time>
      </trkpt>
      <trkpt lat="49.95124" lon="2.18917">
        <ele>60.6</ele>
        <time>2022-04-11T13:43:51Z</time>
      </trkpt>
      <trkpt lat="49.95124" lon="2.18917">
        <ele>60.6</ele>
        <time>2022-04-11T13:43:52Z</time>
      </trkpt>
      <trkpt lat="49.95124" lon="2.18917">
        <ele>60.6</ele>
        <time>2022-04-11T13:43:53Z</time>
      </trkpt>
      <trkpt lat="49.95124" lon="2.18917">
        <ele>60.6</ele>
        <time>2022-04-11T13:43:54Z</time>
      </trkpt>
      <trkpt lat="49.95124" lon="2.18917">
        <ele>60.6</ele>
        <time>2022-04-11T13:43:55Z</time>
      </trkpt>
      <trkpt lat="49.95124" lon="2.18917">
        <ele>60.6</ele>
        <time>2022-04-11T13:43:56Z</time>
      </trkpt>
      <trkpt lat="49.95124" lon="2.18918">
        <ele>60.6</ele>
        <time>2022-04-11T13:43:57Z</time>
      </trkpt>
      <trkpt lat="49.95124" lon="2.18918">
        <ele>60.6</ele>
        <time>2022-04-11T13:43:58Z</time>
      </trkpt>
      <trkpt lat="49.95124" lon="2.18918">
        <ele>60.6</ele>
        <time>2022-04-11T13:43:59Z</time>
      </trkpt>
      <trkpt lat="49.95124" lon="2.18918">
        <ele>60.6</ele>
        <time>2022-04-11T13:44:00Z</time>
      </trkpt>
      <trkpt lat="49.95124" lon="2.18918">
        <ele>60.6</ele>
        <time>2022-04-11T13:44:01Z</time>
      </trkpt>
      <trkpt lat="49.95124" lon="2.18918">
        <ele>60.6</ele>
        <time>2022-04-11T13:44:02Z</time>
      </trkpt>
      <trkpt lat="49.95125" lon="2.18917">
        <ele>60.7</ele>
        <time>2022-04-11T13:44:03Z</time>
      </trkpt>
      <trkpt lat="49.95125" lon="2.18917">
        <ele>60.7</ele>
        <time>2022-04-11T13:44:04Z</time>
      </trkpt>
      <trkpt lat="49.95125" lon="2.18916">
        <ele>60.7</ele>
        <time>2022-04-11T13:44:05Z</time>
      </trkpt>
      <trkpt lat="49.95125" lon="2.18916">
        <ele>60.7</ele>
        <time>2022-04-11T13:44:06Z</time>
      </trkpt>
      <trkpt lat="49.95125" lon="2.18916">
        <ele>60.7</ele>
        <time>2022-04-11T13:44:07Z</time>
      </trkpt>
      <trkpt lat="49.95125" lon="2.18915">
        <ele>60.7</ele>
        <time>2022-04-11T13:44:08Z</time>
      </trkpt>
      <trkpt lat="49.95125" lon="2.18915">
        <ele>60.7</ele>
        <time>2022-04-11T13:44:09Z</time>
      </trkpt>
      <trkpt lat="49.95125" lon="2.18916">
        <ele>60.7</ele>
        <time>2022-04-11T13:44:10Z</time>
      </trkpt>
      <trkpt lat="49.95125" lon="2.18916">
        <ele>60.7</ele>
        <time>2022-04-11T13:44:11Z</time>
      </trkpt>
      <trkpt lat="49.95125" lon="2.18916">
        <ele>60.7</ele>
        <time>2022-04-11T13:44:12Z</time>
      </trkpt>
      <trkpt lat="49.95125" lon="2.18916">
        <ele>60.7</ele>
        <time>2022-04-11T13:44:13Z</time>
      </trkpt>
      <trkpt lat="49.95125" lon="2.18916">
        <ele>60.7</ele>
        <time>2022-04-11T13:44:14Z</time>
      </trkpt>
      <trkpt lat="49.95125" lon="2.18916">
        <ele>60.7</ele>
        <time>2022-04-11T13:44:15Z</time>
      </trkpt>
      <trkpt lat="49.95125" lon="2.18916">
        <ele>60.7</ele>
        <time>2022-04-11T13:44:16Z</time>
      </trkpt>
      <trkpt lat="49.95125" lon="2.18916">
        <ele>60.7</ele>
        <time>2022-04-11T13:44:17Z</time>
      </trkpt>
      <trkpt lat="49.95125" lon="2.18916">
        <ele>60.7</ele>
        <time>2022-04-11T13:44:18Z</time>
      </trkpt>
      <trkpt lat="49.95125" lon="2.18916">
        <ele>60.7</ele>
        <time>2022-04-11T13:44:19Z</time>
      </trkpt>
      <trkpt lat="49.95125" lon="2.18916">
        <ele>60.7</ele>
        <time>2022-04-11T13:44:20Z</time>
      </trkpt>
      <trkpt lat="49.95125" lon="2.18916">
        <ele>60.7</ele>
        <time>2022-04-11T13:44:21Z</time>
      </trkpt>
      <trkpt lat="49.95125" lon="2.18916">
        <ele>60.7</ele>
        <time>2022-04-11T13:44:22Z</time>
      </trkpt>
      <trkpt lat="49.95125" lon="2.18916">
        <ele>60.7</ele>
        <time>2022-04-11T13:44:23Z</time>
      </trkpt>
      <trkpt lat="49.95125" lon="2.18916">
        <ele>60.7</ele>
        <time>2022-04-11T13:44:24Z</time>
      </trkpt>
      <trkpt lat="49.95125" lon="2.18916">
        <ele>60.7</ele>
        <time>2022-04-11T13:44:25Z</time>
      </trkpt>
      <trkpt lat="49.95125" lon="2.18916">
        <ele>60.7</ele>
        <time>2022-04-11T13:44:26Z</time>
      </trkpt>
      <trkpt lat="49.95125" lon="2.18916">
        <ele>60.7</ele>
        <time>2022-04-11T13:44:27Z</time>
      </trkpt>
      <trkpt lat="49.95125" lon="2.18916">
        <ele>60.7</ele>
        <time>2022-04-11T13:44:28Z</time>
      </trkpt>
      <trkpt lat="49.95125" lon="2.18916">
        <ele>60.7</ele>
        <time>2022-04-11T13:44:29Z</time>
      </trkpt>
      <trkpt lat="49.95125" lon="2.18916">
        <ele>60.7</ele>
        <time>2022-04-11T13:44:30Z</time>
      </trkpt>
      <trkpt lat="49.95125" lon="2.18916">
        <ele>60.7</ele>
        <time>2022-04-11T13:44:31Z</time>
      </trkpt>
      <trkpt lat="49.95126" lon="2.18914">
        <ele>60.7</ele>
        <time>2022-04-11T13:44:32Z</time>
      </trkpt>
      <trkpt lat="49.95126" lon="2.18914">
        <ele>60.7</ele>
        <time>2022-04-11T13:44:33Z</time>
      </trkpt>
      <trkpt lat="49.95126" lon="2.18913">
        <ele>60.7</ele>
        <time>2022-04-11T13:44:34Z</time>
      </trkpt>
      <trkpt lat="49.95127" lon="2.18912">
        <ele>60.7</ele>
        <time>2022-04-11T13:44:36Z</time>
      </trkpt>
      <trkpt lat="49.95127" lon="2.18911">
        <ele>60.7</ele>
        <time>2022-04-11T13:44:37Z</time>
      </trkpt>
      <trkpt lat="49.95128" lon="2.18911">
        <ele>60.8</ele>
        <time>2022-04-11T13:44:38Z</time>
      </trkpt>
      <trkpt lat="49.95128" lon="2.18911">
        <ele>60.8</ele>
        <time>2022-04-11T13:44:39Z</time>
      </trkpt>
      <trkpt lat="49.95128" lon="2.1891">
        <ele>60.8</ele>
        <time>2022-04-11T13:44:40Z</time>
      </trkpt>
      <trkpt lat="49.95128" lon="2.1891">
        <ele>60.8</ele>
        <time>2022-04-11T13:44:42Z</time>
      </trkpt>
      <trkpt lat="49.95128" lon="2.18909">
        <ele>60.8</ele>
        <time>2022-04-11T13:44:43Z</time>
      </trkpt>
      <trkpt lat="49.95129" lon="2.18909">
        <ele>60.8</ele>
        <time>2022-04-11T13:44:44Z</time>
      </trkpt>
      <trkpt lat="49.95129" lon="2.18908">
        <ele>60.8</ele>
        <time>2022-04-11T13:44:46Z</time>
      </trkpt>
      <trkpt lat="49.9513" lon="2.18908">
        <ele>60.8</ele>
        <time>2022-04-11T13:44:47Z</time>
      </trkpt>
      <trkpt lat="49.9513" lon="2.18908">
        <ele>60.8</ele>
        <time>2022-04-11T13:44:48Z</time>
      </trkpt>
      <trkpt lat="49.9513" lon="2.18908">
        <ele>60.8</ele>
        <time>2022-04-11T13:44:49Z</time>
      </trkpt>
      <trkpt lat="49.9513" lon="2.18908">
        <ele>60.8</ele>
        <time>2022-04-11T13:44:50Z</time>
      </trkpt>
      <trkpt lat="49.9513" lon="2.18908">
        <ele>60.8</ele>
        <time>2022-04-11T13:44:51Z</time>
      </trkpt>
      <trkpt lat="49.9513" lon="2.18907">
        <ele>60.8</ele>
        <time>2022-04-11T13:44:52Z</time>
      </trkpt>
      <trkpt lat="49.9513" lon="2.18907">
        <ele>60.8</ele>
        <time>2022-04-11T13:44:53Z</time>
      </trkpt>
      <trkpt lat="49.95131" lon="2.18906">
        <ele>60.8</ele>
        <time>2022-04-11T13:44:55Z</time>
      </trkpt>
      <trkpt lat="49.95132" lon="2.18906">
        <ele>60.9</ele>
        <time>2022-04-11T13:44:56Z</time>
      </trkpt>
      <trkpt lat="49.95132" lon="2.18905">
        <ele>60.9</ele>
        <time>2022-04-11T13:44:57Z</time>
      </trkpt>
      <trkpt lat="49.95133" lon="2.18905">
        <ele>60.9</ele>
        <time>2022-04-11T13:44:58Z</time>
      </trkpt>
      <trkpt lat="49.95133" lon="2.18905">
        <ele>60.9</ele>
        <time>2022-04-11T13:44:59Z</time>
      </trkpt>
      <trkpt lat="49.95133" lon="2.18905">
        <ele>60.9</ele>
        <time>2022-04-11T13:45:00Z</time>
      </trkpt>
      <trkpt lat="49.95133" lon="2.18905">
        <ele>60.9</ele>
        <time>2022-04-11T13:45:01Z</time>
      </trkpt>
      <trkpt lat="49.95133" lon="2.18905">
        <ele>60.9</ele>
        <time>2022-04-11T13:45:02Z</time>
      </trkpt>
      <trkpt lat="49.95133" lon="2.18905">
        <ele>60.9</ele>
        <time>2022-04-11T13:45:03Z</time>
      </trkpt>
      <trkpt lat="49.95133" lon="2.18905">
        <ele>60.9</ele>
        <time>2022-04-11T13:45:04Z</time>
      </trkpt>
      <trkpt lat="49.95133" lon="2.18905">
        <ele>60.9</ele>
        <time>2022-04-11T13:45:05Z</time>
      </trkpt>
      <trkpt lat="49.95134" lon="2.18905">
        <ele>61</ele>
        <time>2022-04-11T13:45:06Z</time>
      </trkpt>
      <trkpt lat="49.95135" lon="2.18904">
        <ele>61</ele>
        <time>2022-04-11T13:45:07Z</time>
      </trkpt>
      <trkpt lat="49.95135" lon="2.18903">
        <ele>61</ele>
        <time>2022-04-11T13:45:09Z</time>
      </trkpt>
      <trkpt lat="49.95136" lon="2.18902">
        <ele>61</ele>
        <time>2022-04-11T13:45:10Z</time>
      </trkpt>
      <trkpt lat="49.95138" lon="2.18903">
        <ele>61</ele>
        <time>2022-04-11T13:45:11Z</time>
      </trkpt>
      <trkpt lat="49.95139" lon="2.18903">
        <ele>61</ele>
        <time>2022-04-11T13:45:12Z</time>
      </trkpt>
      <trkpt lat="49.95141" lon="2.18904">
        <ele>61</ele>
        <time>2022-04-11T13:45:13Z</time>
      </trkpt>
      <trkpt lat="49.95143" lon="2.18905">
        <ele>61</ele>
        <time>2022-04-11T13:45:15Z</time>
      </trkpt>
      <trkpt lat="49.95144" lon="2.18907">
        <ele>61</ele>
        <time>2022-04-11T13:45:16Z</time>
      </trkpt>
      <trkpt lat="49.95145" lon="2.18908">
        <ele>61</ele>
        <time>2022-04-11T13:45:17Z</time>
      </trkpt>
      <trkpt lat="49.95146" lon="2.18909">
        <ele>61</ele>
        <time>2022-04-11T13:45:18Z</time>
      </trkpt>
      <trkpt lat="49.95147" lon="2.18909">
        <ele>61</ele>
        <time>2022-04-11T13:45:19Z</time>
      </trkpt>
      <trkpt lat="49.95148" lon="2.1891">
        <ele>61</ele>
        <time>2022-04-11T13:45:20Z</time>
      </trkpt>
      <trkpt lat="49.95149" lon="2.1891">
        <ele>61</ele>
        <time>2022-04-11T13:45:21Z</time>
      </trkpt>
      <trkpt lat="49.9515" lon="2.18911">
        <ele>61</ele>
        <time>2022-04-11T13:45:22Z</time>
      </trkpt>
      <trkpt lat="49.95151" lon="2.18911">
        <ele>61</ele>
        <time>2022-04-11T13:45:23Z</time>
      </trkpt>
      <trkpt lat="49.95152" lon="2.18912">
        <ele>61</ele>
        <time>2022-04-11T13:45:24Z</time>
      </trkpt>
      <trkpt lat="49.95153" lon="2.18912">
        <ele>61</ele>
        <time>2022-04-11T13:45:25Z</time>
      </trkpt>
      <trkpt lat="49.95154" lon="2.18913">
        <ele>61</ele>
        <time>2022-04-11T13:45:26Z</time>
      </trkpt>
      <trkpt lat="49.95155" lon="2.18914">
        <ele>61.1</ele>
        <time>2022-04-11T13:45:27Z</time>
      </trkpt>
      <trkpt lat="49.95156" lon="2.18915">
        <ele>61.1</ele>
        <time>2022-04-11T13:45:28Z</time>
      </trkpt>
      <trkpt lat="49.95157" lon="2.18915">
        <ele>61.1</ele>
        <time>2022-04-11T13:45:29Z</time>
      </trkpt>
      <trkpt lat="49.95158" lon="2.18916">
        <ele>61.1</ele>
        <time>2022-04-11T13:45:31Z</time>
      </trkpt>
      <trkpt lat="49.9516" lon="2.18918">
        <ele>61.1</ele>
        <time>2022-04-11T13:45:32Z</time>
      </trkpt>
      <trkpt lat="49.95161" lon="2.18919">
        <ele>61.1</ele>
        <time>2022-04-11T13:45:33Z</time>
      </trkpt>
      <trkpt lat="49.95161" lon="2.1892">
        <ele>61.1</ele>
        <time>2022-04-11T13:45:34Z</time>
      </trkpt>
      <trkpt lat="49.95162" lon="2.18921">
        <ele>61.1</ele>
        <time>2022-04-11T13:45:35Z</time>
      </trkpt>
      <trkpt lat="49.95164" lon="2.18922">
        <ele>61.1</ele>
        <time>2022-04-11T13:45:36Z</time>
      </trkpt>
      <trkpt lat="49.95165" lon="2.18923">
        <ele>61.1</ele>
        <time>2022-04-11T13:45:37Z</time>
      </trkpt>
      <trkpt lat="49.95167" lon="2.18923">
        <ele>61.1</ele>
        <time>2022-04-11T13:45:38Z</time>
      </trkpt>
      <trkpt lat="49.95169" lon="2.18924">
        <ele>61.1</ele>
        <time>2022-04-11T13:45:39Z</time>
      </trkpt>
      <trkpt lat="49.9517" lon="2.18926">
        <ele>61.1</ele>
        <time>2022-04-11T13:45:41Z</time>
      </trkpt>
      <trkpt lat="49.95172" lon="2.18927">
        <ele>61.1</ele>
        <time>2022-04-11T13:45:42Z</time>
      </trkpt>
      <trkpt lat="49.95173" lon="2.18928">
        <ele>61.1</ele>
        <time>2022-04-11T13:45:43Z</time>
      </trkpt>
      <trkpt lat="49.95174" lon="2.18929">
        <ele>61.1</ele>
        <time>2022-04-11T13:45:44Z</time>
      </trkpt>
      <trkpt lat="49.95175" lon="2.1893">
        <ele>61.2</ele>
        <time>2022-04-11T13:45:45Z</time>
      </trkpt>
      <trkpt lat="49.95176" lon="2.18931">
        <ele>61.2</ele>
        <time>2022-04-11T13:45:46Z</time>
      </trkpt>
      <trkpt lat="49.95178" lon="2.18932">
        <ele>61.2</ele>
        <time>2022-04-11T13:45:48Z</time>
      </trkpt>
      <trkpt lat="49.9518" lon="2.18933">
        <ele>61.2</ele>
        <time>2022-04-11T13:45:49Z</time>
      </trkpt>
      <trkpt lat="49.95181" lon="2.18934">
        <ele>61.2</ele>
        <time>2022-04-11T13:45:50Z</time>
      </trkpt>
      <trkpt lat="49.95182" lon="2.18935">
        <ele>61.2</ele>
        <time>2022-04-11T13:45:51Z</time>
      </trkpt>
      <trkpt lat="49.95184" lon="2.18937">
        <ele>61.2</ele>
        <time>2022-04-11T13:45:53Z</time>
      </trkpt>
      <trkpt lat="49.95185" lon="2.18938">
        <ele>61.2</ele>
        <time>2022-04-11T13:45:54Z</time>
      </trkpt>
      <trkpt lat="49.95186" lon="2.18939">
        <ele>61.2</ele>
        <time>2022-04-11T13:45:55Z</time>
      </trkpt>
      <trkpt lat="49.95187" lon="2.1894">
        <ele>61.2</ele>
        <time>2022-04-11T13:45:56Z</time>
      </trkpt>
      <trkpt lat="49.95188" lon="2.18941">
        <ele>61.2</ele>
        <time>2022-04-11T13:45:57Z</time>
      </trkpt>
      <trkpt lat="49.9519" lon="2.18942">
        <ele>61.2</ele>
        <time>2022-04-11T13:45:58Z</time>
      </trkpt>
      <trkpt lat="49.9519" lon="2.18943">
        <ele>61.2</ele>
        <time>2022-04-11T13:45:59Z</time>
      </trkpt>
      <trkpt lat="49.95191" lon="2.18944">
        <ele>61.2</ele>
        <time>2022-04-11T13:46:00Z</time>
      </trkpt>
      <trkpt lat="49.95193" lon="2.18946">
        <ele>61.3</ele>
        <time>2022-04-11T13:46:01Z</time>
      </trkpt>
      <trkpt lat="49.95194" lon="2.18947">
        <ele>61.3</ele>
        <time>2022-04-11T13:46:03Z</time>
      </trkpt>
      <trkpt lat="49.95195" lon="2.18948">
        <ele>61.3</ele>
        <time>2022-04-11T13:46:04Z</time>
      </trkpt>
      <trkpt lat="49.95195" lon="2.18949">
        <ele>61.3</ele>
        <time>2022-04-11T13:46:05Z</time>
      </trkpt>
      <trkpt lat="49.95196" lon="2.1895">
        <ele>61.3</ele>
        <time>2022-04-11T13:46:06Z</time>
      </trkpt>
      <trkpt lat="49.95198" lon="2.18953">
        <ele>61.3</ele>
        <time>2022-04-11T13:46:07Z</time>
      </trkpt>
      <trkpt lat="49.95198" lon="2.18954">
        <ele>61.3</ele>
        <time>2022-04-11T13:46:08Z</time>
      </trkpt>
      <trkpt lat="49.95199" lon="2.18955">
        <ele>61.3</ele>
        <time>2022-04-11T13:46:09Z</time>
      </trkpt>
      <trkpt lat="49.952" lon="2.18956">
        <ele>61.3</ele>
        <time>2022-04-11T13:46:10Z</time>
      </trkpt>
      <trkpt lat="49.95201" lon="2.18958">
        <ele>61.3</ele>
        <time>2022-04-11T13:46:11Z</time>
      </trkpt>
      <trkpt lat="49.95202" lon="2.18961">
        <ele>61.4</ele>
        <time>2022-04-11T13:46:12Z</time>
      </trkpt>
      <trkpt lat="49.95202" lon="2.18962">
        <ele>61.4</ele>
        <time>2022-04-11T13:46:13Z</time>
      </trkpt>
      <trkpt lat="49.95203" lon="2.18963">
        <ele>61.4</ele>
        <time>2022-04-11T13:46:14Z</time>
      </trkpt>
      <trkpt lat="49.95204" lon="2.18965">
        <ele>61.4</ele>
        <time>2022-04-11T13:46:16Z</time>
      </trkpt>
      <trkpt lat="49.95205" lon="2.18966">
        <ele>61.4</ele>
        <time>2022-04-11T13:46:17Z</time>
      </trkpt>
      <trkpt lat="49.95206" lon="2.18967">
        <ele>61.4</ele>
        <time>2022-04-11T13:46:18Z</time>
      </trkpt>
      <trkpt lat="49.95208" lon="2.18968">
        <ele>61.4</ele>
        <time>2022-04-11T13:46:19Z</time>
      </trkpt>
      <trkpt lat="49.95209" lon="2.18969">
        <ele>61.5</ele>
        <time>2022-04-11T13:46:20Z</time>
      </trkpt>
      <trkpt lat="49.9521" lon="2.1897">
        <ele>61.5</ele>
        <time>2022-04-11T13:46:22Z</time>
      </trkpt>
      <trkpt lat="49.9521" lon="2.18971">
        <ele>61.5</ele>
        <time>2022-04-11T13:46:23Z</time>
      </trkpt>
      <trkpt lat="49.95211" lon="2.18972">
        <ele>61.5</ele>
        <time>2022-04-11T13:46:24Z</time>
      </trkpt>
      <trkpt lat="49.95212" lon="2.18972">
        <ele>61.5</ele>
        <time>2022-04-11T13:46:25Z</time>
      </trkpt>
      <trkpt lat="49.95213" lon="2.18974">
        <ele>61.5</ele>
        <time>2022-04-11T13:46:26Z</time>
      </trkpt>
      <trkpt lat="49.95214" lon="2.18975">
        <ele>61.5</ele>
        <time>2022-04-11T13:46:27Z</time>
      </trkpt>
      <trkpt lat="49.95215" lon="2.18976">
        <ele>61.5</ele>
        <time>2022-04-11T13:46:28Z</time>
      </trkpt>
      <trkpt lat="49.95216" lon="2.18977">
        <ele>61.5</ele>
        <time>2022-04-11T13:46:29Z</time>
      </trkpt>
      <trkpt lat="49.95217" lon="2.18978">
        <ele>61.6</ele>
        <time>2022-04-11T13:46:30Z</time>
      </trkpt>
      <trkpt lat="49.95219" lon="2.18979">
        <ele>61.6</ele>
        <time>2022-04-11T13:46:31Z</time>
      </trkpt>
      <trkpt lat="49.9522" lon="2.1898">
        <ele>61.6</ele>
        <time>2022-04-11T13:46:32Z</time>
      </trkpt>
      <trkpt lat="49.95221" lon="2.18981">
        <ele>61.6</ele>
        <time>2022-04-11T13:46:33Z</time>
      </trkpt>
      <trkpt lat="49.95222" lon="2.18981">
        <ele>61.6</ele>
        <time>2022-04-11T13:46:34Z</time>
      </trkpt>
      <trkpt lat="49.95224" lon="2.18982">
        <ele>61.6</ele>
        <time>2022-04-11T13:46:35Z</time>
      </trkpt>
      <trkpt lat="49.95225" lon="2.18983">
        <ele>61.6</ele>
        <time>2022-04-11T13:46:36Z</time>
      </trkpt>
      <trkpt lat="49.95226" lon="2.18983">
        <ele>61.7</ele>
        <time>2022-04-11T13:46:38Z</time>
      </trkpt>
      <trkpt lat="49.95227" lon="2.18984">
        <ele>61.7</ele>
        <time>2022-04-11T13:46:39Z</time>
      </trkpt>
      <trkpt lat="49.95227" lon="2.18985">
        <ele>61.7</ele>
        <time>2022-04-11T13:46:40Z</time>
      </trkpt>
      <trkpt lat="49.95228" lon="2.18985">
        <ele>61.7</ele>
        <time>2022-04-11T13:46:41Z</time>
      </trkpt>
      <trkpt lat="49.95229" lon="2.18986">
        <ele>61.7</ele>
        <time>2022-04-11T13:46:42Z</time>
      </trkpt>
      <trkpt lat="49.9523" lon="2.18987">
        <ele>61.7</ele>
        <time>2022-04-11T13:46:43Z</time>
      </trkpt>
      <trkpt lat="49.95231" lon="2.18987">
        <ele>61.7</ele>
        <time>2022-04-11T13:46:44Z</time>
      </trkpt>
      <trkpt lat="49.95233" lon="2.18989">
        <ele>61.7</ele>
        <time>2022-04-11T13:46:45Z</time>
      </trkpt>
      <trkpt lat="49.95233" lon="2.1899">
        <ele>61.7</ele>
        <time>2022-04-11T13:46:46Z</time>
      </trkpt>
      <trkpt lat="49.95235" lon="2.18991">
        <ele>61.8</ele>
        <time>2022-04-11T13:46:48Z</time>
      </trkpt>
      <trkpt lat="49.95236" lon="2.18993">
        <ele>61.8</ele>
        <time>2022-04-11T13:46:49Z</time>
      </trkpt>
      <trkpt lat="49.95237" lon="2.18993">
        <ele>61.8</ele>
        <time>2022-04-11T13:46:50Z</time>
      </trkpt>
      <trkpt lat="49.95238" lon="2.18994">
        <ele>61.8</ele>
        <time>2022-04-11T13:46:51Z</time>
      </trkpt>
      <trkpt lat="49.9524" lon="2.18996">
        <ele>61.8</ele>
        <time>2022-04-11T13:46:52Z</time>
      </trkpt>
      <trkpt lat="49.9524" lon="2.18997">
        <ele>61.8</ele>
        <time>2022-04-11T13:46:53Z</time>
      </trkpt>
      <trkpt lat="49.95241" lon="2.18998">
        <ele>61.9</ele>
        <time>2022-04-11T13:46:54Z</time>
      </trkpt>
      <trkpt lat="49.95242" lon="2.18999">
        <ele>61.9</ele>
        <time>2022-04-11T13:46:55Z</time>
      </trkpt>
      <trkpt lat="49.95242" lon="2.19001">
        <ele>61.9</ele>
        <time>2022-04-11T13:46:56Z</time>
      </trkpt>
      <trkpt lat="49.95243" lon="2.19003">
        <ele>61.9</ele>
        <time>2022-04-11T13:46:58Z</time>
      </trkpt>
      <trkpt lat="49.95243" lon="2.19004">
        <ele>61.9</ele>
        <time>2022-04-11T13:46:59Z</time>
      </trkpt>
      <trkpt lat="49.95244" lon="2.19005">
        <ele>61.9</ele>
        <time>2022-04-11T13:47:00Z</time>
      </trkpt>
      <trkpt lat="49.95244" lon="2.19006">
        <ele>61.9</ele>
        <time>2022-04-11T13:47:01Z</time>
      </trkpt>
      <trkpt lat="49.95245" lon="2.19007">
        <ele>61.9</ele>
        <time>2022-04-11T13:47:02Z</time>
      </trkpt>
      <trkpt lat="49.95246" lon="2.19008">
        <ele>62</ele>
        <time>2022-04-11T13:47:03Z</time>
      </trkpt>
      <trkpt lat="49.95248" lon="2.1901">
        <ele>62</ele>
        <time>2022-04-11T13:47:05Z</time>
      </trkpt>
      <trkpt lat="49.95248" lon="2.1901">
        <ele>62</ele>
        <time>2022-04-11T13:47:06Z</time>
      </trkpt>
      <trkpt lat="49.9525" lon="2.19011">
        <ele>62</ele>
        <time>2022-04-11T13:47:07Z</time>
      </trkpt>
      <trkpt lat="49.95251" lon="2.19012">
        <ele>62</ele>
        <time>2022-04-11T13:47:08Z</time>
      </trkpt>
      <trkpt lat="49.95253" lon="2.19012">
        <ele>62</ele>
        <time>2022-04-11T13:47:09Z</time>
      </trkpt>
      <trkpt lat="49.95254" lon="2.19013">
        <ele>62.1</ele>
        <time>2022-04-11T13:47:10Z</time>
      </trkpt>
      <trkpt lat="49.95255" lon="2.19013">
        <ele>62.1</ele>
        <time>2022-04-11T13:47:11Z</time>
      </trkpt>
      <trkpt lat="49.95257" lon="2.19014">
        <ele>62.1</ele>
        <time>2022-04-11T13:47:12Z</time>
      </trkpt>
      <trkpt lat="49.95257" lon="2.19015">
        <ele>62.1</ele>
        <time>2022-04-11T13:47:13Z</time>
      </trkpt>
      <trkpt lat="49.95258" lon="2.19015">
        <ele>62.1</ele>
        <time>2022-04-11T13:47:14Z</time>
      </trkpt>
      <trkpt lat="49.95261" lon="2.19017">
        <ele>62.1</ele>
        <time>2022-04-11T13:47:16Z</time>
      </trkpt>
      <trkpt lat="49.95261" lon="2.19017">
        <ele>62.1</ele>
        <time>2022-04-11T13:47:17Z</time>
      </trkpt>
      <trkpt lat="49.95262" lon="2.19017">
        <ele>62.1</ele>
        <time>2022-04-11T13:47:18Z</time>
      </trkpt>
      <trkpt lat="49.95264" lon="2.19017">
        <ele>62.1</ele>
        <time>2022-04-11T13:47:19Z</time>
      </trkpt>
      <trkpt lat="49.95265" lon="2.19018">
        <ele>62.1</ele>
        <time>2022-04-11T13:47:20Z</time>
      </trkpt>
      <trkpt lat="49.95266" lon="2.19019">
        <ele>62.2</ele>
        <time>2022-04-11T13:47:21Z</time>
      </trkpt>
      <trkpt lat="49.95267" lon="2.19019">
        <ele>62.2</ele>
        <time>2022-04-11T13:47:22Z</time>
      </trkpt>
      <trkpt lat="49.95268" lon="2.1902">
        <ele>62.2</ele>
        <time>2022-04-11T13:47:23Z</time>
      </trkpt>
      <trkpt lat="49.95269" lon="2.19021">
        <ele>62.2</ele>
        <time>2022-04-11T13:47:24Z</time>
      </trkpt>
      <trkpt lat="49.9527" lon="2.19022">
        <ele>62.2</ele>
        <time>2022-04-11T13:47:25Z</time>
      </trkpt>
      <trkpt lat="49.95271" lon="2.19022">
        <ele>62.2</ele>
        <time>2022-04-11T13:47:27Z</time>
      </trkpt>
      <trkpt lat="49.95272" lon="2.19023">
        <ele>62.2</ele>
        <time>2022-04-11T13:47:28Z</time>
      </trkpt>
      <trkpt lat="49.95273" lon="2.19024">
        <ele>62.2</ele>
        <time>2022-04-11T13:47:29Z</time>
      </trkpt>
      <trkpt lat="49.95274" lon="2.19024">
        <ele>62.2</ele>
        <time>2022-04-11T13:47:30Z</time>
      </trkpt>
      <trkpt lat="49.95275" lon="2.19026">
        <ele>62.2</ele>
        <time>2022-04-11T13:47:31Z</time>
      </trkpt>
      <trkpt lat="49.95276" lon="2.19026">
        <ele>62.2</ele>
        <time>2022-04-11T13:47:32Z</time>
      </trkpt>
      <trkpt lat="49.95277" lon="2.19027">
        <ele>62.2</ele>
        <time>2022-04-11T13:47:33Z</time>
      </trkpt>
      <trkpt lat="49.95278" lon="2.19028">
        <ele>62.2</ele>
        <time>2022-04-11T13:47:34Z</time>
      </trkpt>
      <trkpt lat="49.95279" lon="2.19029">
        <ele>62.2</ele>
        <time>2022-04-11T13:47:35Z</time>
      </trkpt>
      <trkpt lat="49.9528" lon="2.1903">
        <ele>62.2</ele>
        <time>2022-04-11T13:47:36Z</time>
      </trkpt>
      <trkpt lat="49.9528" lon="2.19031">
        <ele>62.2</ele>
        <time>2022-04-11T13:47:37Z</time>
      </trkpt>
      <trkpt lat="49.95281" lon="2.19031">
        <ele>62.2</ele>
        <time>2022-04-11T13:47:38Z</time>
      </trkpt>
      <trkpt lat="49.95282" lon="2.19032">
        <ele>62.2</ele>
        <time>2022-04-11T13:47:40Z</time>
      </trkpt>
      <trkpt lat="49.95283" lon="2.19034">
        <ele>62.2</ele>
        <time>2022-04-11T13:47:41Z</time>
      </trkpt>
      <trkpt lat="49.95283" lon="2.19035">
        <ele>62.2</ele>
        <time>2022-04-11T13:47:42Z</time>
      </trkpt>
      <trkpt lat="49.95283" lon="2.19036">
        <ele>62.2</ele>
        <time>2022-04-11T13:47:43Z</time>
      </trkpt>
      <trkpt lat="49.95283" lon="2.19037">
        <ele>62.2</ele>
        <time>2022-04-11T13:47:44Z</time>
      </trkpt>
      <trkpt lat="49.95285" lon="2.19037">
        <ele>62.2</ele>
        <time>2022-04-11T13:47:45Z</time>
      </trkpt>
      <trkpt lat="49.95286" lon="2.19037">
        <ele>62.2</ele>
        <time>2022-04-11T13:47:46Z</time>
      </trkpt>
      <trkpt lat="49.95287" lon="2.19038">
        <ele>62.2</ele>
        <time>2022-04-11T13:47:48Z</time>
      </trkpt>
      <trkpt lat="49.95288" lon="2.19039">
        <ele>62.2</ele>
        <time>2022-04-11T13:47:49Z</time>
      </trkpt>
      <trkpt lat="49.95289" lon="2.19039">
        <ele>62.2</ele>
        <time>2022-04-11T13:47:50Z</time>
      </trkpt>
      <trkpt lat="49.9529" lon="2.1904">
        <ele>62.2</ele>
        <time>2022-04-11T13:47:51Z</time>
      </trkpt>
      <trkpt lat="49.95291" lon="2.19042">
        <ele>62.2</ele>
        <time>2022-04-11T13:47:52Z</time>
      </trkpt>
      <trkpt lat="49.95292" lon="2.19042">
        <ele>62.2</ele>
        <time>2022-04-11T13:47:53Z</time>
      </trkpt>
      <trkpt lat="49.95292" lon="2.19043">
        <ele>62.2</ele>
        <time>2022-04-11T13:47:54Z</time>
      </trkpt>
      <trkpt lat="49.95293" lon="2.19044">
        <ele>62.2</ele>
        <time>2022-04-11T13:47:55Z</time>
      </trkpt>
      <trkpt lat="49.95294" lon="2.19045">
        <ele>62.2</ele>
        <time>2022-04-11T13:47:56Z</time>
      </trkpt>
      <trkpt lat="49.95295" lon="2.19047">
        <ele>62.2</ele>
        <time>2022-04-11T13:47:57Z</time>
      </trkpt>
      <trkpt lat="49.95296" lon="2.19048">
        <ele>62.2</ele>
        <time>2022-04-11T13:47:58Z</time>
      </trkpt>
      <trkpt lat="49.95297" lon="2.1905">
        <ele>62.2</ele>
        <time>2022-04-11T13:47:59Z</time>
      </trkpt>
      <trkpt lat="49.95298" lon="2.19051">
        <ele>62.2</ele>
        <time>2022-04-11T13:48:00Z</time>
      </trkpt>
      <trkpt lat="49.95299" lon="2.19053">
        <ele>62.2</ele>
        <time>2022-04-11T13:48:02Z</time>
      </trkpt>
      <trkpt lat="49.953" lon="2.19054">
        <ele>62.2</ele>
        <time>2022-04-11T13:48:03Z</time>
      </trkpt>
      <trkpt lat="49.95301" lon="2.19055">
        <ele>62.2</ele>
        <time>2022-04-11T13:48:04Z</time>
      </trkpt>
      <trkpt lat="49.95302" lon="2.19056">
        <ele>62.2</ele>
        <time>2022-04-11T13:48:05Z</time>
      </trkpt>
      <trkpt lat="49.95302" lon="2.19057">
        <ele>62.2</ele>
        <time>2022-04-11T13:48:06Z</time>
      </trkpt>
      <trkpt lat="49.95303" lon="2.19058">
        <ele>62.2</ele>
        <time>2022-04-11T13:48:07Z</time>
      </trkpt>
      <trkpt lat="49.95305" lon="2.19059">
        <ele>62.2</ele>
        <time>2022-04-11T13:48:09Z</time>
      </trkpt>
      <trkpt lat="49.95306" lon="2.1906">
        <ele>62.2</ele>
        <time>2022-04-11T13:48:10Z</time>
      </trkpt>
      <trkpt lat="49.95307" lon="2.19061">
        <ele>62.2</ele>
        <time>2022-04-11T13:48:11Z</time>
      </trkpt>
      <trkpt lat="49.95309" lon="2.19062">
        <ele>62.2</ele>
        <time>2022-04-11T13:48:12Z</time>
      </trkpt>
      <trkpt lat="49.9531" lon="2.19063">
        <ele>62.2</ele>
        <time>2022-04-11T13:48:13Z</time>
      </trkpt>
      <trkpt lat="49.95311" lon="2.19064">
        <ele>62.2</ele>
        <time>2022-04-11T13:48:14Z</time>
      </trkpt>
      <trkpt lat="49.95312" lon="2.19065">
        <ele>62.2</ele>
        <time>2022-04-11T13:48:15Z</time>
      </trkpt>
      <trkpt lat="49.95313" lon="2.19065">
        <ele>62.2</ele>
        <time>2022-04-11T13:48:16Z</time>
      </trkpt>
      <trkpt lat="49.95315" lon="2.19067">
        <ele>62.2</ele>
        <time>2022-04-11T13:48:18Z</time>
      </trkpt>
      <trkpt lat="49.95315" lon="2.19067">
        <ele>62.3</ele>
        <time>2022-04-11T13:48:19Z</time>
      </trkpt>
      <trkpt lat="49.95316" lon="2.19068">
        <ele>62.3</ele>
        <time>2022-04-11T13:48:20Z</time>
      </trkpt>
      <trkpt lat="49.95318" lon="2.19068">
        <ele>62.3</ele>
        <time>2022-04-11T13:48:21Z</time>
      </trkpt>
      <trkpt lat="49.95319" lon="2.19069">
        <ele>62.3</ele>
        <time>2022-04-11T13:48:22Z</time>
      </trkpt>
      <trkpt lat="49.9532" lon="2.19071">
        <ele>62.3</ele>
        <time>2022-04-11T13:48:23Z</time>
      </trkpt>
      <trkpt lat="49.95322" lon="2.19072">
        <ele>62.3</ele>
        <time>2022-04-11T13:48:25Z</time>
      </trkpt>
      <trkpt lat="49.95323" lon="2.19074">
        <ele>62.3</ele>
        <time>2022-04-11T13:48:26Z</time>
      </trkpt>
      <trkpt lat="49.95324" lon="2.19075">
        <ele>62.3</ele>
        <time>2022-04-11T13:48:27Z</time>
      </trkpt>
      <trkpt lat="49.95326" lon="2.19076">
        <ele>62.3</ele>
        <time>2022-04-11T13:48:28Z</time>
      </trkpt>
      <trkpt lat="49.95327" lon="2.19077">
        <ele>62.3</ele>
        <time>2022-04-11T13:48:29Z</time>
      </trkpt>
      <trkpt lat="49.95327" lon="2.19078">
        <ele>62.3</ele>
        <time>2022-04-11T13:48:30Z</time>
      </trkpt>
      <trkpt lat="49.95329" lon="2.19079">
        <ele>62.3</ele>
        <time>2022-04-11T13:48:31Z</time>
      </trkpt>
      <trkpt lat="49.9533" lon="2.1908">
        <ele>62.3</ele>
        <time>2022-04-11T13:48:32Z</time>
      </trkpt>
      <trkpt lat="49.95331" lon="2.19081">
        <ele>62.3</ele>
        <time>2022-04-11T13:48:34Z</time>
      </trkpt>
      <trkpt lat="49.95332" lon="2.19082">
        <ele>62.3</ele>
        <time>2022-04-11T13:48:35Z</time>
      </trkpt>
      <trkpt lat="49.95333" lon="2.19083">
        <ele>62.3</ele>
        <time>2022-04-11T13:48:36Z</time>
      </trkpt>
      <trkpt lat="49.95334" lon="2.19084">
        <ele>62.3</ele>
        <time>2022-04-11T13:48:37Z</time>
      </trkpt>
      <trkpt lat="49.95334" lon="2.19085">
        <ele>62.3</ele>
        <time>2022-04-11T13:48:38Z</time>
      </trkpt>
      <trkpt lat="49.95336" lon="2.19086">
        <ele>62.3</ele>
        <time>2022-04-11T13:48:39Z</time>
      </trkpt>
      <trkpt lat="49.95336" lon="2.19087">
        <ele>62.4</ele>
        <time>2022-04-11T13:48:40Z</time>
      </trkpt>
      <trkpt lat="49.95338" lon="2.19088">
        <ele>62.4</ele>
        <time>2022-04-11T13:48:41Z</time>
      </trkpt>
      <trkpt lat="49.95339" lon="2.19089">
        <ele>62.4</ele>
        <time>2022-04-11T13:48:42Z</time>
      </trkpt>
      <trkpt lat="49.95341" lon="2.19091">
        <ele>62.4</ele>
        <time>2022-04-11T13:48:43Z</time>
      </trkpt>
      <trkpt lat="49.95342" lon="2.19091">
        <ele>62.3</ele>
        <time>2022-04-11T13:48:44Z</time>
      </trkpt>
      <trkpt lat="49.95343" lon="2.19092">
        <ele>62.3</ele>
        <time>2022-04-11T13:48:45Z</time>
      </trkpt>
      <trkpt lat="49.95344" lon="2.19092">
        <ele>62.3</ele>
        <time>2022-04-11T13:48:47Z</time>
      </trkpt>
      <trkpt lat="49.95345" lon="2.19093">
        <ele>62.3</ele>
        <time>2022-04-11T13:48:48Z</time>
      </trkpt>
      <trkpt lat="49.95346" lon="2.19094">
        <ele>62.3</ele>
        <time>2022-04-11T13:48:49Z</time>
      </trkpt>
      <trkpt lat="49.95347" lon="2.19095">
        <ele>62.3</ele>
        <time>2022-04-11T13:48:50Z</time>
      </trkpt>
      <trkpt lat="49.95348" lon="2.19095">
        <ele>62.3</ele>
        <time>2022-04-11T13:48:51Z</time>
      </trkpt>
      <trkpt lat="49.95349" lon="2.19096">
        <ele>62.3</ele>
        <time>2022-04-11T13:48:52Z</time>
      </trkpt>
      <trkpt lat="49.9535" lon="2.19095">
        <ele>62.3</ele>
        <time>2022-04-11T13:48:53Z</time>
      </trkpt>
      <trkpt lat="49.95351" lon="2.19094">
        <ele>62.2</ele>
        <time>2022-04-11T13:48:54Z</time>
      </trkpt>
      <trkpt lat="49.95352" lon="2.19093">
        <ele>62.2</ele>
        <time>2022-04-11T13:48:55Z</time>
      </trkpt>
      <trkpt lat="49.95353" lon="2.19091">
        <ele>62.2</ele>
        <time>2022-04-11T13:48:56Z</time>
      </trkpt>
      <trkpt lat="49.95353" lon="2.19089">
        <ele>62.2</ele>
        <time>2022-04-11T13:48:57Z</time>
      </trkpt>
      <trkpt lat="49.95352" lon="2.19087">
        <ele>62.1</ele>
        <time>2022-04-11T13:48:58Z</time>
      </trkpt>
      <trkpt lat="49.95352" lon="2.19085">
        <ele>62.1</ele>
        <time>2022-04-11T13:48:59Z</time>
      </trkpt>
      <trkpt lat="49.9535" lon="2.19081">
        <ele>62</ele>
        <time>2022-04-11T13:49:00Z</time>
      </trkpt>
      <trkpt lat="49.95348" lon="2.19078">
        <ele>61.9</ele>
        <time>2022-04-11T13:49:02Z</time>
      </trkpt>
      <trkpt lat="49.95347" lon="2.19077">
        <ele>61.9</ele>
        <time>2022-04-11T13:49:03Z</time>
      </trkpt>
      <trkpt lat="49.95346" lon="2.19076">
        <ele>61.9</ele>
        <time>2022-04-11T13:49:04Z</time>
      </trkpt>
      <trkpt lat="49.95345" lon="2.19074">
        <ele>61.9</ele>
        <time>2022-04-11T13:49:05Z</time>
      </trkpt>
      <trkpt lat="49.95344" lon="2.19073">
        <ele>61.8</ele>
        <time>2022-04-11T13:49:07Z</time>
      </trkpt>
      <trkpt lat="49.95343" lon="2.19074">
        <ele>61.8</ele>
        <time>2022-04-11T13:49:08Z</time>
      </trkpt>
      <trkpt lat="49.95342" lon="2.19074">
        <ele>61.8</ele>
        <time>2022-04-11T13:49:09Z</time>
      </trkpt>
      <trkpt lat="49.95342" lon="2.19074">
        <ele>61.8</ele>
        <time>2022-04-11T13:49:10Z</time>
      </trkpt>
      <trkpt lat="49.95342" lon="2.19074">
        <ele>61.8</ele>
        <time>2022-04-11T13:49:11Z</time>
      </trkpt>
      <trkpt lat="49.95342" lon="2.19075">
        <ele>61.8</ele>
        <time>2022-04-11T13:49:12Z</time>
      </trkpt>
      <trkpt lat="49.95342" lon="2.19075">
        <ele>61.8</ele>
        <time>2022-04-11T13:49:14Z</time>
      </trkpt>
      <trkpt lat="49.95342" lon="2.19076">
        <ele>61.8</ele>
        <time>2022-04-11T13:49:15Z</time>
      </trkpt>
      <trkpt lat="49.95342" lon="2.19076">
        <ele>61.8</ele>
        <time>2022-04-11T13:49:16Z</time>
      </trkpt>
      <trkpt lat="49.95342" lon="2.19076">
        <ele>61.8</ele>
        <time>2022-04-11T13:49:17Z</time>
      </trkpt>
      <trkpt lat="49.95342" lon="2.19076">
        <ele>61.7</ele>
        <time>2022-04-11T13:49:18Z</time>
      </trkpt>
      <trkpt lat="49.95342" lon="2.19077">
        <ele>61.7</ele>
        <time>2022-04-11T13:49:19Z</time>
      </trkpt>
      <trkpt lat="49.95342" lon="2.19077">
        <ele>61.7</ele>
        <time>2022-04-11T13:49:20Z</time>
      </trkpt>
      <trkpt lat="49.95342" lon="2.19077">
        <ele>61.7</ele>
        <time>2022-04-11T13:49:21Z</time>
      </trkpt>
      <trkpt lat="49.95342" lon="2.19077">
        <ele>61.7</ele>
        <time>2022-04-11T13:49:22Z</time>
      </trkpt>
      <trkpt lat="49.95342" lon="2.19077">
        <ele>61.7</ele>
        <time>2022-04-11T13:49:23Z</time>
      </trkpt>
      <trkpt lat="49.95342" lon="2.19077">
        <ele>61.7</ele>
        <time>2022-04-11T13:49:24Z</time>
      </trkpt>
      <trkpt lat="49.95342" lon="2.19077">
        <ele>61.7</ele>
        <time>2022-04-11T13:49:25Z</time>
      </trkpt>
      <trkpt lat="49.95342" lon="2.19077">
        <ele>61.7</ele>
        <time>2022-04-11T13:49:26Z</time>
      </trkpt>
      <trkpt lat="49.95342" lon="2.19076">
        <ele>61.7</ele>
        <time>2022-04-11T13:49:27Z</time>
      </trkpt>
      <trkpt lat="49.95342" lon="2.19076">
        <ele>61.7</ele>
        <time>2022-04-11T13:49:28Z</time>
      </trkpt>
      <trkpt lat="49.95342" lon="2.19076">
        <ele>61.7</ele>
        <time>2022-04-11T13:49:29Z</time>
      </trkpt>
      <trkpt lat="49.95342" lon="2.19076">
        <ele>61.7</ele>
        <time>2022-04-11T13:49:30Z</time>
      </trkpt>
      <trkpt lat="49.95342" lon="2.19076">
        <ele>61.7</ele>
        <time>2022-04-11T13:49:31Z</time>
      </trkpt>
      <trkpt lat="49.95342" lon="2.19076">
        <ele>61.7</ele>
        <time>2022-04-11T13:49:32Z</time>
      </trkpt>
      <trkpt lat="49.95342" lon="2.19076">
        <ele>61.7</ele>
        <time>2022-04-11T13:49:33Z</time>
      </trkpt>
      <trkpt lat="49.95342" lon="2.19076">
        <ele>61.7</ele>
        <time>2022-04-11T13:49:34Z</time>
      </trkpt>
      <trkpt lat="49.95342" lon="2.19076">
        <ele>61.7</ele>
        <time>2022-04-11T13:49:35Z</time>
      </trkpt>
      <trkpt lat="49.95342" lon="2.19076">
        <ele>61.7</ele>
        <time>2022-04-11T13:49:36Z</time>
      </trkpt>
      <trkpt lat="49.95342" lon="2.19076">
        <ele>61.7</ele>
        <time>2022-04-11T13:49:37Z</time>
      </trkpt>
      <trkpt lat="49.95342" lon="2.19076">
        <ele>61.7</ele>
        <time>2022-04-11T13:49:38Z</time>
      </trkpt>
      <trkpt lat="49.95342" lon="2.19076">
        <ele>61.7</ele>
        <time>2022-04-11T13:49:39Z</time>
      </trkpt>
      <trkpt lat="49.95342" lon="2.19076">
        <ele>61.7</ele>
        <time>2022-04-11T13:49:40Z</time>
      </trkpt>
      <trkpt lat="49.95342" lon="2.19076">
        <ele>61.7</ele>
        <time>2022-04-11T13:49:41Z</time>
      </trkpt>
      <trkpt lat="49.95343" lon="2.19077">
        <ele>61.7</ele>
        <time>2022-04-11T13:49:42Z</time>
      </trkpt>
      <trkpt lat="49.95344" lon="2.19077">
        <ele>61.7</ele>
        <time>2022-04-11T13:49:43Z</time>
      </trkpt>
      <trkpt lat="49.95343" lon="2.19078">
        <ele>61.7</ele>
        <time>2022-04-11T13:49:44Z</time>
      </trkpt>
      <trkpt lat="49.95344" lon="2.19079">
        <ele>61.6</ele>
        <time>2022-04-11T13:49:45Z</time>
      </trkpt>
      <trkpt lat="49.95345" lon="2.1908">
        <ele>61.6</ele>
        <time>2022-04-11T13:49:46Z</time>
      </trkpt>
      <trkpt lat="49.95345" lon="2.1908">
        <ele>61.6</ele>
        <time>2022-04-11T13:49:47Z</time>
      </trkpt>
      <trkpt lat="49.95345" lon="2.19081">
        <ele>61.6</ele>
        <time>2022-04-11T13:49:48Z</time>
      </trkpt>
      <trkpt lat="49.95344" lon="2.1908">
        <ele>61.6</ele>
        <time>2022-04-11T13:49:49Z</time>
      </trkpt>
      <trkpt lat="49.95344" lon="2.19079">
        <ele>61.6</ele>
        <time>2022-04-11T13:49:50Z</time>
      </trkpt>
      <trkpt lat="49.95344" lon="2.19079">
        <ele>61.6</ele>
        <time>2022-04-11T13:49:51Z</time>
      </trkpt>
      <trkpt lat="49.95344" lon="2.19079">
        <ele>61.6</ele>
        <time>2022-04-11T13:49:52Z</time>
      </trkpt>
      <trkpt lat="49.95344" lon="2.19079">
        <ele>61.6</ele>
        <time>2022-04-11T13:49:53Z</time>
      </trkpt>
      <trkpt lat="49.95343" lon="2.19078">
        <ele>61.6</ele>
        <time>2022-04-11T13:49:54Z</time>
      </trkpt>
      <trkpt lat="49.95343" lon="2.19077">
        <ele>61.5</ele>
        <time>2022-04-11T13:49:55Z</time>
      </trkpt>
      <trkpt lat="49.95343" lon="2.19077">
        <ele>61.5</ele>
        <time>2022-04-11T13:49:57Z</time>
      </trkpt>
      <trkpt lat="49.95342" lon="2.19076">
        <ele>61.5</ele>
        <time>2022-04-11T13:49:58Z</time>
      </trkpt>
      <trkpt lat="49.95341" lon="2.19075">
        <ele>61.5</ele>
        <time>2022-04-11T13:49:59Z</time>
      </trkpt>
      <trkpt lat="49.95341" lon="2.19074">
        <ele>61.5</ele>
        <time>2022-04-11T13:50:00Z</time>
      </trkpt>
      <trkpt lat="49.95341" lon="2.19072">
        <ele>61.5</ele>
        <time>2022-04-11T13:50:01Z</time>
      </trkpt>
      <trkpt lat="49.95341" lon="2.19071">
        <ele>61.5</ele>
        <time>2022-04-11T13:50:02Z</time>
      </trkpt>
      <trkpt lat="49.95341" lon="2.19069">
        <ele>61.4</ele>
        <time>2022-04-11T13:50:03Z</time>
      </trkpt>
      <trkpt lat="49.95341" lon="2.19067">
        <ele>61.4</ele>
        <time>2022-04-11T13:50:04Z</time>
      </trkpt>
      <trkpt lat="49.9534" lon="2.19066">
        <ele>61.4</ele>
        <time>2022-04-11T13:50:05Z</time>
      </trkpt>
      <trkpt lat="49.95339" lon="2.19065">
        <ele>61.4</ele>
        <time>2022-04-11T13:50:06Z</time>
      </trkpt>
      <trkpt lat="49.95339" lon="2.19063">
        <ele>61.3</ele>
        <time>2022-04-11T13:50:07Z</time>
      </trkpt>
      <trkpt lat="49.95339" lon="2.1906">
        <ele>61.3</ele>
        <time>2022-04-11T13:50:08Z</time>
      </trkpt>
      <trkpt lat="49.9534" lon="2.19058">
        <ele>61.3</ele>
        <time>2022-04-11T13:50:09Z</time>
      </trkpt>
      <trkpt lat="49.9534" lon="2.19057">
        <ele>61.3</ele>
        <time>2022-04-11T13:50:10Z</time>
      </trkpt>
      <trkpt lat="49.95339" lon="2.19055">
        <ele>61.3</ele>
        <time>2022-04-11T13:50:12Z</time>
      </trkpt>
      <trkpt lat="49.95339" lon="2.19053">
        <ele>61.3</ele>
        <time>2022-04-11T13:50:13Z</time>
      </trkpt>
      <trkpt lat="49.95339" lon="2.19051">
        <ele>61.2</ele>
        <time>2022-04-11T13:50:14Z</time>
      </trkpt>
      <trkpt lat="49.95339" lon="2.1905">
        <ele>61.2</ele>
        <time>2022-04-11T13:50:15Z</time>
      </trkpt>
      <trkpt lat="49.95338" lon="2.19048">
        <ele>61.2</ele>
        <time>2022-04-11T13:50:16Z</time>
      </trkpt>
      <trkpt lat="49.95338" lon="2.19047">
        <ele>61.2</ele>
        <time>2022-04-11T13:50:17Z</time>
      </trkpt>
      <trkpt lat="49.95338" lon="2.19045">
        <ele>61.2</ele>
        <time>2022-04-11T13:50:18Z</time>
      </trkpt>
      <trkpt lat="49.95337" lon="2.19044">
        <ele>61.2</ele>
        <time>2022-04-11T13:50:19Z</time>
      </trkpt>
      <trkpt lat="49.95337" lon="2.19042">
        <ele>61.1</ele>
        <time>2022-04-11T13:50:20Z</time>
      </trkpt>
      <trkpt lat="49.95336" lon="2.1904">
        <ele>61.1</ele>
        <time>2022-04-11T13:50:21Z</time>
      </trkpt>
      <trkpt lat="49.95336" lon="2.19038">
        <ele>61.1</ele>
        <time>2022-04-11T13:50:22Z</time>
      </trkpt>
      <trkpt lat="49.95335" lon="2.19037">
        <ele>61.1</ele>
        <time>2022-04-11T13:50:23Z</time>
      </trkpt>
      <trkpt lat="49.95335" lon="2.19036">
        <ele>61.1</ele>
        <time>2022-04-11T13:50:24Z</time>
      </trkpt>
      <trkpt lat="49.95335" lon="2.19035">
        <ele>61.1</ele>
        <time>2022-04-11T13:50:26Z</time>
      </trkpt>
      <trkpt lat="49.95335" lon="2.19031">
        <ele>61</ele>
        <time>2022-04-11T13:50:28Z</time>
      </trkpt>
      <trkpt lat="49.95334" lon="2.19029">
        <ele>61</ele>
        <time>2022-04-11T13:50:29Z</time>
      </trkpt>
      <trkpt lat="49.95334" lon="2.19027">
        <ele>61</ele>
        <time>2022-04-11T13:50:30Z</time>
      </trkpt>
      <trkpt lat="49.95333" lon="2.19025">
        <ele>61</ele>
        <time>2022-04-11T13:50:31Z</time>
      </trkpt>
      <trkpt lat="49.95332" lon="2.19023">
        <ele>61</ele>
        <time>2022-04-11T13:50:32Z</time>
      </trkpt>
      <trkpt lat="49.95331" lon="2.1902">
        <ele>60.9</ele>
        <time>2022-04-11T13:50:33Z</time>
      </trkpt>
      <trkpt lat="49.9533" lon="2.19018">
        <ele>60.9</ele>
        <time>2022-04-11T13:50:34Z</time>
      </trkpt>
      <trkpt lat="49.95329" lon="2.19016">
        <ele>60.9</ele>
        <time>2022-04-11T13:50:35Z</time>
      </trkpt>
      <trkpt lat="49.95329" lon="2.19014">
        <ele>60.8</ele>
        <time>2022-04-11T13:50:36Z</time>
      </trkpt>
      <trkpt lat="49.95327" lon="2.19011">
        <ele>60.8</ele>
        <time>2022-04-11T13:50:37Z</time>
      </trkpt>
      <trkpt lat="49.95326" lon="2.19009">
        <ele>60.8</ele>
        <time>2022-04-11T13:50:39Z</time>
      </trkpt>
      <trkpt lat="49.95325" lon="2.19008">
        <ele>60.8</ele>
        <time>2022-04-11T13:50:40Z</time>
      </trkpt>
      <trkpt lat="49.95325" lon="2.19006">
        <ele>60.7</ele>
        <time>2022-04-11T13:50:41Z</time>
      </trkpt>
      <trkpt lat="49.95324" lon="2.19005">
        <ele>60.7</ele>
        <time>2022-04-11T13:50:42Z</time>
      </trkpt>
      <trkpt lat="49.95323" lon="2.19003">
        <ele>60.7</ele>
        <time>2022-04-11T13:50:43Z</time>
      </trkpt>
      <trkpt lat="49.95322" lon="2.19001">
        <ele>60.7</ele>
        <time>2022-04-11T13:50:44Z</time>
      </trkpt>
      <trkpt lat="49.95321" lon="2.19">
        <ele>60.7</ele>
        <time>2022-04-11T13:50:45Z</time>
      </trkpt>
      <trkpt lat="49.9532" lon="2.18998">
        <ele>60.6</ele>
        <time>2022-04-11T13:50:46Z</time>
      </trkpt>
      <trkpt lat="49.9532" lon="2.18996">
        <ele>60.6</ele>
        <time>2022-04-11T13:50:47Z</time>
      </trkpt>
      <trkpt lat="49.95319" lon="2.18994">
        <ele>60.6</ele>
        <time>2022-04-11T13:50:49Z</time>
      </trkpt>
      <trkpt lat="49.95318" lon="2.18993">
        <ele>60.6</ele>
        <time>2022-04-11T13:50:50Z</time>
      </trkpt>
      <trkpt lat="49.95317" lon="2.18992">
        <ele>60.5</ele>
        <time>2022-04-11T13:50:51Z</time>
      </trkpt>
      <trkpt lat="49.95317" lon="2.18991">
        <ele>60.5</ele>
        <time>2022-04-11T13:50:52Z</time>
      </trkpt>
      <trkpt lat="49.95315" lon="2.18988">
        <ele>60.5</ele>
        <time>2022-04-11T13:50:53Z</time>
      </trkpt>
      <trkpt lat="49.95315" lon="2.18987">
        <ele>60.5</ele>
        <time>2022-04-11T13:50:54Z</time>
      </trkpt>
      <trkpt lat="49.95314" lon="2.18985">
        <ele>60.5</ele>
        <time>2022-04-11T13:50:55Z</time>
      </trkpt>
      <trkpt lat="49.95313" lon="2.18983">
        <ele>60.4</ele>
        <time>2022-04-11T13:50:57Z</time>
      </trkpt>
      <trkpt lat="49.95313" lon="2.18981">
        <ele>60.4</ele>
        <time>2022-04-11T13:50:58Z</time>
      </trkpt>
      <trkpt lat="49.95312" lon="2.18978">
        <ele>60.4</ele>
        <time>2022-04-11T13:50:59Z</time>
      </trkpt>
      <trkpt lat="49.95311" lon="2.18976">
        <ele>60.4</ele>
        <time>2022-04-11T13:51:00Z</time>
      </trkpt>
      <trkpt lat="49.9531" lon="2.18974">
        <ele>60.3</ele>
        <time>2022-04-11T13:51:01Z</time>
      </trkpt>
      <trkpt lat="49.95309" lon="2.18972">
        <ele>60.3</ele>
        <time>2022-04-11T13:51:02Z</time>
      </trkpt>
      <trkpt lat="49.95309" lon="2.18971">
        <ele>60.3</ele>
        <time>2022-04-11T13:51:03Z</time>
      </trkpt>
      <trkpt lat="49.95308" lon="2.18969">
        <ele>60.3</ele>
        <time>2022-04-11T13:51:04Z</time>
      </trkpt>
      <trkpt lat="49.95307" lon="2.18967">
        <ele>60.2</ele>
        <time>2022-04-11T13:51:06Z</time>
      </trkpt>
      <trkpt lat="49.95306" lon="2.18965">
        <ele>60.2</ele>
        <time>2022-04-11T13:51:07Z</time>
      </trkpt>
      <trkpt lat="49.95305" lon="2.18963">
        <ele>60.2</ele>
        <time>2022-04-11T13:51:08Z</time>
      </trkpt>
      <trkpt lat="49.95304" lon="2.18962">
        <ele>60.2</ele>
        <time>2022-04-11T13:51:09Z</time>
      </trkpt>
      <trkpt lat="49.95304" lon="2.18961">
        <ele>60.2</ele>
        <time>2022-04-11T13:51:10Z</time>
      </trkpt>
      <trkpt lat="49.95303" lon="2.18959">
        <ele>60.1</ele>
        <time>2022-04-11T13:51:11Z</time>
      </trkpt>
      <trkpt lat="49.95302" lon="2.18958">
        <ele>60.1</ele>
        <time>2022-04-11T13:51:12Z</time>
      </trkpt>
      <trkpt lat="49.95302" lon="2.18957">
        <ele>60.1</ele>
        <time>2022-04-11T13:51:13Z</time>
      </trkpt>
      <trkpt lat="49.95301" lon="2.18955">
        <ele>60.1</ele>
        <time>2022-04-11T13:51:14Z</time>
      </trkpt>
      <trkpt lat="49.953" lon="2.18953">
        <ele>60.1</ele>
        <time>2022-04-11T13:51:15Z</time>
      </trkpt>
      <trkpt lat="49.95299" lon="2.18951">
        <ele>60</ele>
        <time>2022-04-11T13:51:16Z</time>
      </trkpt>
      <trkpt lat="49.95298" lon="2.18949">
        <ele>60</ele>
        <time>2022-04-11T13:51:17Z</time>
      </trkpt>
      <trkpt lat="49.95297" lon="2.18947">
        <ele>60</ele>
        <time>2022-04-11T13:51:19Z</time>
      </trkpt>
      <trkpt lat="49.95296" lon="2.18945">
        <ele>60</ele>
        <time>2022-04-11T13:51:20Z</time>
      </trkpt>
      <trkpt lat="49.95295" lon="2.18942">
        <ele>60</ele>
        <time>2022-04-11T13:51:21Z</time>
      </trkpt>
      <trkpt lat="49.95294" lon="2.1894">
        <ele>59.9</ele>
        <time>2022-04-11T13:51:22Z</time>
      </trkpt>
      <trkpt lat="49.95294" lon="2.18938">
        <ele>59.9</ele>
        <time>2022-04-11T13:51:23Z</time>
      </trkpt>
      <trkpt lat="49.95293" lon="2.18936">
        <ele>59.9</ele>
        <time>2022-04-11T13:51:24Z</time>
      </trkpt>
      <trkpt lat="49.95292" lon="2.18934">
        <ele>59.9</ele>
        <time>2022-04-11T13:51:25Z</time>
      </trkpt>
      <trkpt lat="49.95292" lon="2.18932">
        <ele>59.9</ele>
        <time>2022-04-11T13:51:26Z</time>
      </trkpt>
      <trkpt lat="49.95291" lon="2.1893">
        <ele>59.8</ele>
        <time>2022-04-11T13:51:27Z</time>
      </trkpt>
      <trkpt lat="49.9529" lon="2.18928">
        <ele>59.8</ele>
        <time>2022-04-11T13:51:29Z</time>
      </trkpt>
      <trkpt lat="49.9529" lon="2.18927">
        <ele>59.8</ele>
        <time>2022-04-11T13:51:30Z</time>
      </trkpt>
      <trkpt lat="49.95289" lon="2.18925">
        <ele>59.8</ele>
        <time>2022-04-11T13:51:31Z</time>
      </trkpt>
      <trkpt lat="49.95289" lon="2.18923">
        <ele>59.8</ele>
        <time>2022-04-11T13:51:32Z</time>
      </trkpt>
      <trkpt lat="49.95288" lon="2.18922">
        <ele>59.8</ele>
        <time>2022-04-11T13:51:33Z</time>
      </trkpt>
      <trkpt lat="49.95288" lon="2.1892">
        <ele>59.8</ele>
        <time>2022-04-11T13:51:34Z</time>
      </trkpt>
      <trkpt lat="49.95288" lon="2.18919">
        <ele>59.8</ele>
        <time>2022-04-11T13:51:35Z</time>
      </trkpt>
      <trkpt lat="49.95287" lon="2.18915">
        <ele>59.7</ele>
        <time>2022-04-11T13:51:36Z</time>
      </trkpt>
      <trkpt lat="49.95287" lon="2.18914">
        <ele>59.7</ele>
        <time>2022-04-11T13:51:37Z</time>
      </trkpt>
      <trkpt lat="49.95287" lon="2.18913">
        <ele>59.7</ele>
        <time>2022-04-11T13:51:38Z</time>
      </trkpt>
      <trkpt lat="49.95286" lon="2.18909">
        <ele>59.7</ele>
        <time>2022-04-11T13:51:39Z</time>
      </trkpt>
      <trkpt lat="49.95286" lon="2.18908">
        <ele>59.7</ele>
        <time>2022-04-11T13:51:40Z</time>
      </trkpt>
      <trkpt lat="49.95286" lon="2.18907">
        <ele>59.7</ele>
        <time>2022-04-11T13:51:41Z</time>
      </trkpt>
      <trkpt lat="49.95285" lon="2.18904">
        <ele>59.7</ele>
        <time>2022-04-11T13:51:43Z</time>
      </trkpt>
      <trkpt lat="49.95285" lon="2.18902">
        <ele>59.6</ele>
        <time>2022-04-11T13:51:44Z</time>
      </trkpt>
      <trkpt lat="49.95285" lon="2.18899">
        <ele>59.6</ele>
        <time>2022-04-11T13:51:45Z</time>
      </trkpt>
      <trkpt lat="49.95285" lon="2.18898">
        <ele>59.6</ele>
        <time>2022-04-11T13:51:46Z</time>
      </trkpt>
      <trkpt lat="49.95285" lon="2.18897">
        <ele>59.6</ele>
        <time>2022-04-11T13:51:47Z</time>
      </trkpt>
      <trkpt lat="49.95284" lon="2.18894">
        <ele>59.6</ele>
        <time>2022-04-11T13:51:49Z</time>
      </trkpt>
      <trkpt lat="49.95283" lon="2.18892">
        <ele>59.6</ele>
        <time>2022-04-11T13:51:50Z</time>
      </trkpt>
      <trkpt lat="49.95283" lon="2.18889">
        <ele>59.6</ele>
        <time>2022-04-11T13:51:51Z</time>
      </trkpt>
      <trkpt lat="49.95282" lon="2.18888">
        <ele>59.5</ele>
        <time>2022-04-11T13:51:52Z</time>
      </trkpt>
      <trkpt lat="49.95282" lon="2.18887">
        <ele>59.5</ele>
        <time>2022-04-11T13:51:53Z</time>
      </trkpt>
      <trkpt lat="49.95282" lon="2.18886">
        <ele>59.5</ele>
        <time>2022-04-11T13:51:54Z</time>
      </trkpt>
      <trkpt lat="49.95281" lon="2.18884">
        <ele>59.5</ele>
        <time>2022-04-11T13:51:55Z</time>
      </trkpt>
      <trkpt lat="49.95281" lon="2.18882">
        <ele>59.5</ele>
        <time>2022-04-11T13:51:56Z</time>
      </trkpt>
      <trkpt lat="49.9528" lon="2.1888">
        <ele>59.5</ele>
        <time>2022-04-11T13:51:57Z</time>
      </trkpt>
      <trkpt lat="49.9528" lon="2.18878">
        <ele>59.5</ele>
        <time>2022-04-11T13:51:58Z</time>
      </trkpt>
      <trkpt lat="49.95279" lon="2.18875">
        <ele>59.4</ele>
        <time>2022-04-11T13:52:00Z</time>
      </trkpt>
      <trkpt lat="49.95278" lon="2.18873">
        <ele>59.4</ele>
        <time>2022-04-11T13:52:01Z</time>
      </trkpt>
      <trkpt lat="49.95278" lon="2.18871">
        <ele>59.4</ele>
        <time>2022-04-11T13:52:02Z</time>
      </trkpt>
      <trkpt lat="49.95277" lon="2.18869">
        <ele>59.4</ele>
        <time>2022-04-11T13:52:03Z</time>
      </trkpt>
      <trkpt lat="49.95276" lon="2.18867">
        <ele>59.3</ele>
        <time>2022-04-11T13:52:04Z</time>
      </trkpt>
      <trkpt lat="49.95276" lon="2.18865">
        <ele>59.3</ele>
        <time>2022-04-11T13:52:05Z</time>
      </trkpt>
      <trkpt lat="49.95275" lon="2.18864">
        <ele>59.3</ele>
        <time>2022-04-11T13:52:06Z</time>
      </trkpt>
      <trkpt lat="49.95274" lon="2.18862">
        <ele>59.3</ele>
        <time>2022-04-11T13:52:07Z</time>
      </trkpt>
      <trkpt lat="49.95273" lon="2.18859">
        <ele>59.3</ele>
        <time>2022-04-11T13:52:08Z</time>
      </trkpt>
      <trkpt lat="49.95272" lon="2.18858">
        <ele>59.3</ele>
        <time>2022-04-11T13:52:10Z</time>
      </trkpt>
      <trkpt lat="49.95271" lon="2.18857">
        <ele>59.2</ele>
        <time>2022-04-11T13:52:11Z</time>
      </trkpt>
      <trkpt lat="49.95271" lon="2.18856">
        <ele>59.2</ele>
        <time>2022-04-11T13:52:12Z</time>
      </trkpt>
      <trkpt lat="49.9527" lon="2.18854">
        <ele>59.2</ele>
        <time>2022-04-11T13:52:13Z</time>
      </trkpt>
      <trkpt lat="49.95269" lon="2.18853">
        <ele>59.2</ele>
        <time>2022-04-11T13:52:14Z</time>
      </trkpt>
      <trkpt lat="49.95269" lon="2.18852">
        <ele>59.2</ele>
        <time>2022-04-11T13:52:15Z</time>
      </trkpt>
      <trkpt lat="49.95269" lon="2.18851">
        <ele>59.2</ele>
        <time>2022-04-11T13:52:16Z</time>
      </trkpt>
      <trkpt lat="49.95268" lon="2.18848">
        <ele>59.2</ele>
        <time>2022-04-11T13:52:17Z</time>
      </trkpt>
      <trkpt lat="49.95267" lon="2.18846">
        <ele>59.2</ele>
        <time>2022-04-11T13:52:18Z</time>
      </trkpt>
      <trkpt lat="49.95267" lon="2.18845">
        <ele>59.2</ele>
        <time>2022-04-11T13:52:19Z</time>
      </trkpt>
      <trkpt lat="49.95266" lon="2.18843">
        <ele>59.1</ele>
        <time>2022-04-11T13:52:20Z</time>
      </trkpt>
      <trkpt lat="49.95266" lon="2.18841">
        <ele>59.1</ele>
        <time>2022-04-11T13:52:21Z</time>
      </trkpt>
      <trkpt lat="49.95265" lon="2.18839">
        <ele>59.1</ele>
        <time>2022-04-11T13:52:23Z</time>
      </trkpt>
      <trkpt lat="49.95264" lon="2.18837">
        <ele>59.1</ele>
        <time>2022-04-11T13:52:24Z</time>
      </trkpt>
      <trkpt lat="49.95263" lon="2.18835">
        <ele>59.1</ele>
        <time>2022-04-11T13:52:25Z</time>
      </trkpt>
      <trkpt lat="49.95262" lon="2.18833">
        <ele>59.1</ele>
        <time>2022-04-11T13:52:26Z</time>
      </trkpt>
      <trkpt lat="49.95262" lon="2.18832">
        <ele>59.1</ele>
        <time>2022-04-11T13:52:27Z</time>
      </trkpt>
      <trkpt lat="49.95261" lon="2.1883">
        <ele>59</ele>
        <time>2022-04-11T13:52:28Z</time>
      </trkpt>
      <trkpt lat="49.9526" lon="2.18829">
        <ele>59</ele>
        <time>2022-04-11T13:52:29Z</time>
      </trkpt>
      <trkpt lat="49.9526" lon="2.18827">
        <ele>59</ele>
        <time>2022-04-11T13:52:30Z</time>
      </trkpt>
      <trkpt lat="49.95258" lon="2.18824">
        <ele>59</ele>
        <time>2022-04-11T13:52:31Z</time>
      </trkpt>
      <trkpt lat="49.95257" lon="2.18822">
        <ele>59</ele>
        <time>2022-04-11T13:52:33Z</time>
      </trkpt>
      <trkpt lat="49.95257" lon="2.18821">
        <ele>59</ele>
        <time>2022-04-11T13:52:34Z</time>
      </trkpt>
      <trkpt lat="49.95257" lon="2.18819">
        <ele>59</ele>
        <time>2022-04-11T13:52:35Z</time>
      </trkpt>
      <trkpt lat="49.95256" lon="2.18816">
        <ele>58.9</ele>
        <time>2022-04-11T13:52:36Z</time>
      </trkpt>
      <trkpt lat="49.95255" lon="2.18815">
        <ele>58.9</ele>
        <time>2022-04-11T13:52:37Z</time>
      </trkpt>
      <trkpt lat="49.95255" lon="2.18814">
        <ele>58.9</ele>
        <time>2022-04-11T13:52:38Z</time>
      </trkpt>
      <trkpt lat="49.95254" lon="2.18812">
        <ele>58.9</ele>
        <time>2022-04-11T13:52:39Z</time>
      </trkpt>
      <trkpt lat="49.95254" lon="2.18811">
        <ele>58.9</ele>
        <time>2022-04-11T13:52:40Z</time>
      </trkpt>
      <trkpt lat="49.95253" lon="2.1881">
        <ele>58.9</ele>
        <time>2022-04-11T13:52:41Z</time>
      </trkpt>
      <trkpt lat="49.95252" lon="2.18807">
        <ele>58.9</ele>
        <time>2022-04-11T13:52:42Z</time>
      </trkpt>
      <trkpt lat="49.95252" lon="2.18806">
        <ele>58.9</ele>
        <time>2022-04-11T13:52:43Z</time>
      </trkpt>
      <trkpt lat="49.95251" lon="2.18804">
        <ele>58.9</ele>
        <time>2022-04-11T13:52:44Z</time>
      </trkpt>
      <trkpt lat="49.95251" lon="2.18802">
        <ele>58.8</ele>
        <time>2022-04-11T13:52:45Z</time>
      </trkpt>
      <trkpt lat="49.9525" lon="2.188">
        <ele>58.8</ele>
        <time>2022-04-11T13:52:47Z</time>
      </trkpt>
      <trkpt lat="49.95249" lon="2.18798">
        <ele>58.8</ele>
        <time>2022-04-11T13:52:48Z</time>
      </trkpt>
      <trkpt lat="49.95248" lon="2.18796">
        <ele>58.8</ele>
        <time>2022-04-11T13:52:49Z</time>
      </trkpt>
      <trkpt lat="49.95247" lon="2.18795">
        <ele>58.8</ele>
        <time>2022-04-11T13:52:51Z</time>
      </trkpt>
      <trkpt lat="49.95246" lon="2.18793">
        <ele>58.8</ele>
        <time>2022-04-11T13:52:52Z</time>
      </trkpt>
      <trkpt lat="49.95245" lon="2.1879">
        <ele>58.7</ele>
        <time>2022-04-11T13:52:53Z</time>
      </trkpt>
      <trkpt lat="49.95245" lon="2.18789">
        <ele>58.7</ele>
        <time>2022-04-11T13:52:54Z</time>
      </trkpt>
      <trkpt lat="49.95244" lon="2.18788">
        <ele>58.7</ele>
        <time>2022-04-11T13:52:55Z</time>
      </trkpt>
      <trkpt lat="49.95243" lon="2.18786">
        <ele>58.7</ele>
        <time>2022-04-11T13:52:56Z</time>
      </trkpt>
      <trkpt lat="49.95243" lon="2.18785">
        <ele>58.7</ele>
        <time>2022-04-11T13:52:57Z</time>
      </trkpt>
      <trkpt lat="49.95241" lon="2.18783">
        <ele>58.7</ele>
        <time>2022-04-11T13:52:59Z</time>
      </trkpt>
      <trkpt lat="49.9524" lon="2.18782">
        <ele>58.7</ele>
        <time>2022-04-11T13:53:00Z</time>
      </trkpt>
      <trkpt lat="49.9524" lon="2.18781">
        <ele>58.7</ele>
        <time>2022-04-11T13:53:01Z</time>
      </trkpt>
      <trkpt lat="49.95239" lon="2.1878">
        <ele>58.6</ele>
        <time>2022-04-11T13:53:02Z</time>
      </trkpt>
      <trkpt lat="49.95237" lon="2.18778">
        <ele>58.6</ele>
        <time>2022-04-11T13:53:03Z</time>
      </trkpt>
      <trkpt lat="49.95236" lon="2.18777">
        <ele>58.6</ele>
        <time>2022-04-11T13:53:04Z</time>
      </trkpt>
      <trkpt lat="49.95235" lon="2.18776">
        <ele>58.6</ele>
        <time>2022-04-11T13:53:05Z</time>
      </trkpt>
      <trkpt lat="49.95234" lon="2.18775">
        <ele>58.6</ele>
        <time>2022-04-11T13:53:06Z</time>
      </trkpt>
      <trkpt lat="49.95233" lon="2.18774">
        <ele>58.6</ele>
        <time>2022-04-11T13:53:08Z</time>
      </trkpt>
      <trkpt lat="49.95231" lon="2.18773">
        <ele>58.6</ele>
        <time>2022-04-11T13:53:09Z</time>
      </trkpt>
      <trkpt lat="49.9523" lon="2.18772">
        <ele>58.5</ele>
        <time>2022-04-11T13:53:10Z</time>
      </trkpt>
      <trkpt lat="49.95229" lon="2.18771">
        <ele>58.5</ele>
        <time>2022-04-11T13:53:11Z</time>
      </trkpt>
      <trkpt lat="49.95228" lon="2.1877">
        <ele>58.5</ele>
        <time>2022-04-11T13:53:12Z</time>
      </trkpt>
      <trkpt lat="49.95227" lon="2.18769">
        <ele>58.5</ele>
        <time>2022-04-11T13:53:13Z</time>
      </trkpt>
      <trkpt lat="49.95225" lon="2.18768">
        <ele>58.5</ele>
        <time>2022-04-11T13:53:14Z</time>
      </trkpt>
      <trkpt lat="49.95224" lon="2.18766">
        <ele>58.5</ele>
        <time>2022-04-11T13:53:15Z</time>
      </trkpt>
      <trkpt lat="49.95223" lon="2.18765">
        <ele>58.5</ele>
        <time>2022-04-11T13:53:16Z</time>
      </trkpt>
      <trkpt lat="49.95223" lon="2.18763">
        <ele>58.5</ele>
        <time>2022-04-11T13:53:17Z</time>
      </trkpt>
      <trkpt lat="49.95222" lon="2.18762">
        <ele>58.5</ele>
        <time>2022-04-11T13:53:19Z</time>
      </trkpt>
      <trkpt lat="49.95222" lon="2.1876">
        <ele>58.5</ele>
        <time>2022-04-11T13:53:20Z</time>
      </trkpt>
      <trkpt lat="49.95221" lon="2.18759">
        <ele>58.5</ele>
        <time>2022-04-11T13:53:21Z</time>
      </trkpt>
      <trkpt lat="49.9522" lon="2.18758">
        <ele>58.4</ele>
        <time>2022-04-11T13:53:22Z</time>
      </trkpt>
      <trkpt lat="49.9522" lon="2.18756">
        <ele>58.4</ele>
        <time>2022-04-11T13:53:23Z</time>
      </trkpt>
      <trkpt lat="49.95219" lon="2.18754">
        <ele>58.4</ele>
        <time>2022-04-11T13:53:24Z</time>
      </trkpt>
      <trkpt lat="49.95219" lon="2.18752">
        <ele>58.4</ele>
        <time>2022-04-11T13:53:25Z</time>
      </trkpt>
      <trkpt lat="49.95218" lon="2.1875">
        <ele>58.4</ele>
        <time>2022-04-11T13:53:27Z</time>
      </trkpt>
      <trkpt lat="49.95217" lon="2.18747">
        <ele>58.4</ele>
        <time>2022-04-11T13:53:28Z</time>
      </trkpt>
      <trkpt lat="49.95216" lon="2.18746">
        <ele>58.4</ele>
        <time>2022-04-11T13:53:29Z</time>
      </trkpt>
      <trkpt lat="49.95216" lon="2.18745">
        <ele>58.4</ele>
        <time>2022-04-11T13:53:30Z</time>
      </trkpt>
      <trkpt lat="49.95215" lon="2.18743">
        <ele>58.4</ele>
        <time>2022-04-11T13:53:31Z</time>
      </trkpt>
      <trkpt lat="49.95214" lon="2.18741">
        <ele>58.4</ele>
        <time>2022-04-11T13:53:32Z</time>
      </trkpt>
      <trkpt lat="49.95214" lon="2.18739">
        <ele>58.4</ele>
        <time>2022-04-11T13:53:34Z</time>
      </trkpt>
      <trkpt lat="49.95213" lon="2.18738">
        <ele>58.4</ele>
        <time>2022-04-11T13:53:35Z</time>
      </trkpt>
      <trkpt lat="49.95212" lon="2.18737">
        <ele>58.4</ele>
        <time>2022-04-11T13:53:36Z</time>
      </trkpt>
      <trkpt lat="49.95212" lon="2.18736">
        <ele>58.4</ele>
        <time>2022-04-11T13:53:37Z</time>
      </trkpt>
      <trkpt lat="49.95211" lon="2.18734">
        <ele>58.4</ele>
        <time>2022-04-11T13:53:38Z</time>
      </trkpt>
      <trkpt lat="49.9521" lon="2.18733">
        <ele>58.3</ele>
        <time>2022-04-11T13:53:39Z</time>
      </trkpt>
      <trkpt lat="49.9521" lon="2.18731">
        <ele>58.3</ele>
        <time>2022-04-11T13:53:40Z</time>
      </trkpt>
      <trkpt lat="49.95209" lon="2.18729">
        <ele>58.3</ele>
        <time>2022-04-11T13:53:42Z</time>
      </trkpt>
      <trkpt lat="49.95208" lon="2.18727">
        <ele>58.3</ele>
        <time>2022-04-11T13:53:43Z</time>
      </trkpt>
      <trkpt lat="49.95207" lon="2.18725">
        <ele>58.3</ele>
        <time>2022-04-11T13:53:44Z</time>
      </trkpt>
      <trkpt lat="49.95206" lon="2.18723">
        <ele>58.3</ele>
        <time>2022-04-11T13:53:46Z</time>
      </trkpt>
      <trkpt lat="49.95205" lon="2.18721">
        <ele>58.3</ele>
        <time>2022-04-11T13:53:47Z</time>
      </trkpt>
      <trkpt lat="49.95204" lon="2.1872">
        <ele>58.3</ele>
        <time>2022-04-11T13:53:48Z</time>
      </trkpt>
      <trkpt lat="49.95203" lon="2.18718">
        <ele>58.3</ele>
        <time>2022-04-11T13:53:49Z</time>
      </trkpt>
      <trkpt lat="49.95201" lon="2.18715">
        <ele>58.3</ele>
        <time>2022-04-11T13:53:50Z</time>
      </trkpt>
      <trkpt lat="49.95201" lon="2.18713">
        <ele>58.3</ele>
        <time>2022-04-11T13:53:52Z</time>
      </trkpt>
      <trkpt lat="49.952" lon="2.18712">
        <ele>58.3</ele>
        <time>2022-04-11T13:53:53Z</time>
      </trkpt>
      <trkpt lat="49.952" lon="2.1871">
        <ele>58.3</ele>
        <time>2022-04-11T13:53:54Z</time>
      </trkpt>
      <trkpt lat="49.952" lon="2.18709">
        <ele>58.3</ele>
        <time>2022-04-11T13:53:55Z</time>
      </trkpt>
      <trkpt lat="49.95199" lon="2.18708">
        <ele>58.3</ele>
        <time>2022-04-11T13:53:56Z</time>
      </trkpt>
      <trkpt lat="49.95199" lon="2.18706">
        <ele>58.3</ele>
        <time>2022-04-11T13:53:57Z</time>
      </trkpt>
      <trkpt lat="49.95198" lon="2.18705">
        <ele>58.3</ele>
        <time>2022-04-11T13:53:58Z</time>
      </trkpt>
      <trkpt lat="49.95197" lon="2.18702">
        <ele>58.3</ele>
        <time>2022-04-11T13:53:59Z</time>
      </trkpt>
      <trkpt lat="49.95197" lon="2.18701">
        <ele>58.3</ele>
        <time>2022-04-11T13:54:00Z</time>
      </trkpt>
      <trkpt lat="49.95196" lon="2.187">
        <ele>58.2</ele>
        <time>2022-04-11T13:54:01Z</time>
      </trkpt>
      <trkpt lat="49.95195" lon="2.18698">
        <ele>58.2</ele>
        <time>2022-04-11T13:54:03Z</time>
      </trkpt>
      <trkpt lat="49.95194" lon="2.18696">
        <ele>58.2</ele>
        <time>2022-04-11T13:54:04Z</time>
      </trkpt>
      <trkpt lat="49.95193" lon="2.18694">
        <ele>58.2</ele>
        <time>2022-04-11T13:54:05Z</time>
      </trkpt>
      <trkpt lat="49.95193" lon="2.18692">
        <ele>58.2</ele>
        <time>2022-04-11T13:54:06Z</time>
      </trkpt>
      <trkpt lat="49.95192" lon="2.1869">
        <ele>58.2</ele>
        <time>2022-04-11T13:54:07Z</time>
      </trkpt>
      <trkpt lat="49.95191" lon="2.18688">
        <ele>58.2</ele>
        <time>2022-04-11T13:54:08Z</time>
      </trkpt>
      <trkpt lat="49.9519" lon="2.18685">
        <ele>58.2</ele>
        <time>2022-04-11T13:54:10Z</time>
      </trkpt>
      <trkpt lat="49.9519" lon="2.18683">
        <ele>58.1</ele>
        <time>2022-04-11T13:54:11Z</time>
      </trkpt>
      <trkpt lat="49.95188" lon="2.18681">
        <ele>58.1</ele>
        <time>2022-04-11T13:54:12Z</time>
      </trkpt>
      <trkpt lat="49.95188" lon="2.1868">
        <ele>58.1</ele>
        <time>2022-04-11T13:54:13Z</time>
      </trkpt>
      <trkpt lat="49.95187" lon="2.18679">
        <ele>58.1</ele>
        <time>2022-04-11T13:54:14Z</time>
      </trkpt>
      <trkpt lat="49.95187" lon="2.18677">
        <ele>58.1</ele>
        <time>2022-04-11T13:54:15Z</time>
      </trkpt>
      <trkpt lat="49.95186" lon="2.18675">
        <ele>58.1</ele>
        <time>2022-04-11T13:54:16Z</time>
      </trkpt>
      <trkpt lat="49.95185" lon="2.18673">
        <ele>58.1</ele>
        <time>2022-04-11T13:54:18Z</time>
      </trkpt>
      <trkpt lat="49.95184" lon="2.18671">
        <ele>58.1</ele>
        <time>2022-04-11T13:54:19Z</time>
      </trkpt>
      <trkpt lat="49.95183" lon="2.18669">
        <ele>58.1</ele>
        <time>2022-04-11T13:54:20Z</time>
      </trkpt>
      <trkpt lat="49.95182" lon="2.18668">
        <ele>58</ele>
        <time>2022-04-11T13:54:21Z</time>
      </trkpt>
      <trkpt lat="49.95181" lon="2.18666">
        <ele>58</ele>
        <time>2022-04-11T13:54:22Z</time>
      </trkpt>
      <trkpt lat="49.95181" lon="2.18664">
        <ele>58</ele>
        <time>2022-04-11T13:54:23Z</time>
      </trkpt>
      <trkpt lat="49.9518" lon="2.18663">
        <ele>58</ele>
        <time>2022-04-11T13:54:24Z</time>
      </trkpt>
      <trkpt lat="49.95179" lon="2.18662">
        <ele>58</ele>
        <time>2022-04-11T13:54:25Z</time>
      </trkpt>
      <trkpt lat="49.95179" lon="2.1866">
        <ele>58</ele>
        <time>2022-04-11T13:54:27Z</time>
      </trkpt>
      <trkpt lat="49.95178" lon="2.18658">
        <ele>58</ele>
        <time>2022-04-11T13:54:28Z</time>
      </trkpt>
      <trkpt lat="49.95178" lon="2.18656">
        <ele>58</ele>
        <time>2022-04-11T13:54:29Z</time>
      </trkpt>
      <trkpt lat="49.95177" lon="2.18655">
        <ele>58</ele>
        <time>2022-04-11T13:54:30Z</time>
      </trkpt>
      <trkpt lat="49.95177" lon="2.18653">
        <ele>58</ele>
        <time>2022-04-11T13:54:31Z</time>
      </trkpt>
      <trkpt lat="49.95177" lon="2.18651">
        <ele>58</ele>
        <time>2022-04-11T13:54:32Z</time>
      </trkpt>
      <trkpt lat="49.95176" lon="2.18649">
        <ele>58</ele>
        <time>2022-04-11T13:54:33Z</time>
      </trkpt>
      <trkpt lat="49.95176" lon="2.18648">
        <ele>57.9</ele>
        <time>2022-04-11T13:54:34Z</time>
      </trkpt>
      <trkpt lat="49.95175" lon="2.18646">
        <ele>57.9</ele>
        <time>2022-04-11T13:54:35Z</time>
      </trkpt>
      <trkpt lat="49.95174" lon="2.18644">
        <ele>57.9</ele>
        <time>2022-04-11T13:54:37Z</time>
      </trkpt>
      <trkpt lat="49.95173" lon="2.18641">
        <ele>57.9</ele>
        <time>2022-04-11T13:54:38Z</time>
      </trkpt>
      <trkpt lat="49.95173" lon="2.1864">
        <ele>57.9</ele>
        <time>2022-04-11T13:54:39Z</time>
      </trkpt>
      <trkpt lat="49.95172" lon="2.18639">
        <ele>57.9</ele>
        <time>2022-04-11T13:54:40Z</time>
      </trkpt>
      <trkpt lat="49.95172" lon="2.18637">
        <ele>57.9</ele>
        <time>2022-04-11T13:54:41Z</time>
      </trkpt>
      <trkpt lat="49.95171" lon="2.18635">
        <ele>57.9</ele>
        <time>2022-04-11T13:54:42Z</time>
      </trkpt>
      <trkpt lat="49.9517" lon="2.18632">
        <ele>57.9</ele>
        <time>2022-04-11T13:54:43Z</time>
      </trkpt>
      <trkpt lat="49.95169" lon="2.18631">
        <ele>57.9</ele>
        <time>2022-04-11T13:54:45Z</time>
      </trkpt>
      <trkpt lat="49.95169" lon="2.1863">
        <ele>57.9</ele>
        <time>2022-04-11T13:54:46Z</time>
      </trkpt>
      <trkpt lat="49.95169" lon="2.18629">
        <ele>57.8</ele>
        <time>2022-04-11T13:54:47Z</time>
      </trkpt>
      <trkpt lat="49.95168" lon="2.18627">
        <ele>57.8</ele>
        <time>2022-04-11T13:54:48Z</time>
      </trkpt>
      <trkpt lat="49.95168" lon="2.18626">
        <ele>57.8</ele>
        <time>2022-04-11T13:54:49Z</time>
      </trkpt>
      <trkpt lat="49.95167" lon="2.18625">
        <ele>57.8</ele>
        <time>2022-04-11T13:54:50Z</time>
      </trkpt>
      <trkpt lat="49.95167" lon="2.18624">
        <ele>57.8</ele>
        <time>2022-04-11T13:54:51Z</time>
      </trkpt>
      <trkpt lat="49.95166" lon="2.18622">
        <ele>57.8</ele>
        <time>2022-04-11T13:54:52Z</time>
      </trkpt>
      <trkpt lat="49.95165" lon="2.18618">
        <ele>57.8</ele>
        <time>2022-04-11T13:54:54Z</time>
      </trkpt>
      <trkpt lat="49.95164" lon="2.18617">
        <ele>57.8</ele>
        <time>2022-04-11T13:54:55Z</time>
      </trkpt>
      <trkpt lat="49.95164" lon="2.18616">
        <ele>57.8</ele>
        <time>2022-04-11T13:54:56Z</time>
      </trkpt>
      <trkpt lat="49.95163" lon="2.18614">
        <ele>57.8</ele>
        <time>2022-04-11T13:54:57Z</time>
      </trkpt>
      <trkpt lat="49.95163" lon="2.18612">
        <ele>57.8</ele>
        <time>2022-04-11T13:54:58Z</time>
      </trkpt>
      <trkpt lat="49.95162" lon="2.18611">
        <ele>57.8</ele>
        <time>2022-04-11T13:54:59Z</time>
      </trkpt>
      <trkpt lat="49.95161" lon="2.18608">
        <ele>57.7</ele>
        <time>2022-04-11T13:55:00Z</time>
      </trkpt>
      <trkpt lat="49.95161" lon="2.18606">
        <ele>57.7</ele>
        <time>2022-04-11T13:55:02Z</time>
      </trkpt>
      <trkpt lat="49.9516" lon="2.18604">
        <ele>57.7</ele>
        <time>2022-04-11T13:55:03Z</time>
      </trkpt>
      <trkpt lat="49.9516" lon="2.18602">
        <ele>57.7</ele>
        <time>2022-04-11T13:55:04Z</time>
      </trkpt>
      <trkpt lat="49.95159" lon="2.186">
        <ele>57.7</ele>
        <time>2022-04-11T13:55:05Z</time>
      </trkpt>
      <trkpt lat="49.95159" lon="2.18599">
        <ele>57.7</ele>
        <time>2022-04-11T13:55:06Z</time>
      </trkpt>
      <trkpt lat="49.95158" lon="2.18596">
        <ele>57.7</ele>
        <time>2022-04-11T13:55:07Z</time>
      </trkpt>
      <trkpt lat="49.95158" lon="2.18595">
        <ele>57.7</ele>
        <time>2022-04-11T13:55:08Z</time>
      </trkpt>
      <trkpt lat="49.95157" lon="2.18593">
        <ele>57.7</ele>
        <time>2022-04-11T13:55:09Z</time>
      </trkpt>
      <trkpt lat="49.95157" lon="2.18591">
        <ele>57.7</ele>
        <time>2022-04-11T13:55:10Z</time>
      </trkpt>
      <trkpt lat="49.95156" lon="2.18589">
        <ele>57.7</ele>
        <time>2022-04-11T13:55:11Z</time>
      </trkpt>
      <trkpt lat="49.95156" lon="2.18586">
        <ele>57.6</ele>
        <time>2022-04-11T13:55:13Z</time>
      </trkpt>
      <trkpt lat="49.95155" lon="2.18584">
        <ele>57.6</ele>
        <time>2022-04-11T13:55:14Z</time>
      </trkpt>
      <trkpt lat="49.95155" lon="2.18582">
        <ele>57.6</ele>
        <time>2022-04-11T13:55:15Z</time>
      </trkpt>
      <trkpt lat="49.95154" lon="2.18579">
        <ele>57.6</ele>
        <time>2022-04-11T13:55:16Z</time>
      </trkpt>
      <trkpt lat="49.95154" lon="2.18577">
        <ele>57.6</ele>
        <time>2022-04-11T13:55:17Z</time>
      </trkpt>
      <trkpt lat="49.95153" lon="2.18575">
        <ele>57.6</ele>
        <time>2022-04-11T13:55:18Z</time>
      </trkpt>
      <trkpt lat="49.95153" lon="2.18573">
        <ele>57.6</ele>
        <time>2022-04-11T13:55:20Z</time>
      </trkpt>
      <trkpt lat="49.95152" lon="2.18571">
        <ele>57.6</ele>
        <time>2022-04-11T13:55:21Z</time>
      </trkpt>
      <trkpt lat="49.95152" lon="2.18569">
        <ele>57.6</ele>
        <time>2022-04-11T13:55:22Z</time>
      </trkpt>
      <trkpt lat="49.95151" lon="2.18568">
        <ele>57.6</ele>
        <time>2022-04-11T13:55:23Z</time>
      </trkpt>
      <trkpt lat="49.95151" lon="2.18566">
        <ele>57.6</ele>
        <time>2022-04-11T13:55:24Z</time>
      </trkpt>
      <trkpt lat="49.9515" lon="2.18565">
        <ele>57.5</ele>
        <time>2022-04-11T13:55:26Z</time>
      </trkpt>
      <trkpt lat="49.95149" lon="2.18563">
        <ele>57.5</ele>
        <time>2022-04-11T13:55:27Z</time>
      </trkpt>
      <trkpt lat="49.95149" lon="2.18562">
        <ele>57.5</ele>
        <time>2022-04-11T13:55:28Z</time>
      </trkpt>
      <trkpt lat="49.95148" lon="2.18559">
        <ele>57.5</ele>
        <time>2022-04-11T13:55:29Z</time>
      </trkpt>
      <trkpt lat="49.95148" lon="2.18557">
        <ele>57.5</ele>
        <time>2022-04-11T13:55:30Z</time>
      </trkpt>
      <trkpt lat="49.95147" lon="2.18555">
        <ele>57.5</ele>
        <time>2022-04-11T13:55:31Z</time>
      </trkpt>
      <trkpt lat="49.95147" lon="2.18554">
        <ele>57.5</ele>
        <time>2022-04-11T13:55:32Z</time>
      </trkpt>
      <trkpt lat="49.95146" lon="2.18552">
        <ele>57.5</ele>
        <time>2022-04-11T13:55:34Z</time>
      </trkpt>
      <trkpt lat="49.95146" lon="2.18551">
        <ele>57.5</ele>
        <time>2022-04-11T13:55:35Z</time>
      </trkpt>
      <trkpt lat="49.95145" lon="2.18549">
        <ele>57.5</ele>
        <time>2022-04-11T13:55:36Z</time>
      </trkpt>
      <trkpt lat="49.95145" lon="2.18547">
        <ele>57.5</ele>
        <time>2022-04-11T13:55:37Z</time>
      </trkpt>
      <trkpt lat="49.95144" lon="2.18544">
        <ele>57.4</ele>
        <time>2022-04-11T13:55:38Z</time>
      </trkpt>
      <trkpt lat="49.95144" lon="2.18543">
        <ele>57.4</ele>
        <time>2022-04-11T13:55:39Z</time>
      </trkpt>
      <trkpt lat="49.95144" lon="2.18542">
        <ele>57.4</ele>
        <time>2022-04-11T13:55:40Z</time>
      </trkpt>
      <trkpt lat="49.95143" lon="2.18539">
        <ele>57.4</ele>
        <time>2022-04-11T13:55:42Z</time>
      </trkpt>
      <trkpt lat="49.95142" lon="2.18538">
        <ele>57.4</ele>
        <time>2022-04-11T13:55:43Z</time>
      </trkpt>
      <trkpt lat="49.9514" lon="2.18535">
        <ele>57.4</ele>
        <time>2022-04-11T13:55:44Z</time>
      </trkpt>
      <trkpt lat="49.9514" lon="2.18534">
        <ele>57.4</ele>
        <time>2022-04-11T13:55:45Z</time>
      </trkpt>
      <trkpt lat="49.95139" lon="2.18533">
        <ele>57.4</ele>
        <time>2022-04-11T13:55:46Z</time>
      </trkpt>
      <trkpt lat="49.95138" lon="2.1853">
        <ele>57.4</ele>
        <time>2022-04-11T13:55:47Z</time>
      </trkpt>
      <trkpt lat="49.95138" lon="2.18528">
        <ele>57.4</ele>
        <time>2022-04-11T13:55:49Z</time>
      </trkpt>
      <trkpt lat="49.95138" lon="2.18527">
        <ele>57.3</ele>
        <time>2022-04-11T13:55:50Z</time>
      </trkpt>
      <trkpt lat="49.95137" lon="2.18526">
        <ele>57.3</ele>
        <time>2022-04-11T13:55:51Z</time>
      </trkpt>
      <trkpt lat="49.95137" lon="2.18524">
        <ele>57.3</ele>
        <time>2022-04-11T13:55:52Z</time>
      </trkpt>
      <trkpt lat="49.95136" lon="2.18523">
        <ele>57.3</ele>
        <time>2022-04-11T13:55:53Z</time>
      </trkpt>
      <trkpt lat="49.95136" lon="2.18521">
        <ele>57.3</ele>
        <time>2022-04-11T13:55:54Z</time>
      </trkpt>
      <trkpt lat="49.95135" lon="2.1852">
        <ele>57.3</ele>
        <time>2022-04-11T13:55:55Z</time>
      </trkpt>
      <trkpt lat="49.95135" lon="2.18518">
        <ele>57.3</ele>
        <time>2022-04-11T13:55:56Z</time>
      </trkpt>
      <trkpt lat="49.95134" lon="2.18515">
        <ele>57.3</ele>
        <time>2022-04-11T13:55:57Z</time>
      </trkpt>
      <trkpt lat="49.95133" lon="2.18514">
        <ele>57.3</ele>
        <time>2022-04-11T13:55:58Z</time>
      </trkpt>
      <trkpt lat="49.95133" lon="2.18513">
        <ele>57.3</ele>
        <time>2022-04-11T13:55:59Z</time>
      </trkpt>
      <trkpt lat="49.95132" lon="2.18511">
        <ele>57.3</ele>
        <time>2022-04-11T13:56:00Z</time>
      </trkpt>
      <trkpt lat="49.95132" lon="2.1851">
        <ele>57.2</ele>
        <time>2022-04-11T13:56:01Z</time>
      </trkpt>
      <trkpt lat="49.95131" lon="2.18508">
        <ele>57.2</ele>
        <time>2022-04-11T13:56:03Z</time>
      </trkpt>
      <trkpt lat="49.95131" lon="2.18506">
        <ele>57.2</ele>
        <time>2022-04-11T13:56:04Z</time>
      </trkpt>
      <trkpt lat="49.9513" lon="2.18505">
        <ele>57.2</ele>
        <time>2022-04-11T13:56:05Z</time>
      </trkpt>
      <trkpt lat="49.9513" lon="2.18504">
        <ele>57.2</ele>
        <time>2022-04-11T13:56:06Z</time>
      </trkpt>
      <trkpt lat="49.95129" lon="2.18501">
        <ele>57.2</ele>
        <time>2022-04-11T13:56:07Z</time>
      </trkpt>
      <trkpt lat="49.95129" lon="2.18499">
        <ele>57.2</ele>
        <time>2022-04-11T13:56:08Z</time>
      </trkpt>
      <trkpt lat="49.95128" lon="2.18498">
        <ele>57.2</ele>
        <time>2022-04-11T13:56:09Z</time>
      </trkpt>
      <trkpt lat="49.95128" lon="2.18496">
        <ele>57.2</ele>
        <time>2022-04-11T13:56:10Z</time>
      </trkpt>
      <trkpt lat="49.95127" lon="2.18494">
        <ele>57.2</ele>
        <time>2022-04-11T13:56:11Z</time>
      </trkpt>
      <trkpt lat="49.95127" lon="2.18492">
        <ele>57.1</ele>
        <time>2022-04-11T13:56:12Z</time>
      </trkpt>
      <trkpt lat="49.95126" lon="2.18491">
        <ele>57.1</ele>
        <time>2022-04-11T13:56:13Z</time>
      </trkpt>
      <trkpt lat="49.95125" lon="2.18488">
        <ele>57.1</ele>
        <time>2022-04-11T13:56:14Z</time>
      </trkpt>
      <trkpt lat="49.95125" lon="2.18486">
        <ele>57.1</ele>
        <time>2022-04-11T13:56:15Z</time>
      </trkpt>
      <trkpt lat="49.95124" lon="2.18485">
        <ele>57.1</ele>
        <time>2022-04-11T13:56:16Z</time>
      </trkpt>
      <trkpt lat="49.95124" lon="2.18484">
        <ele>57.1</ele>
        <time>2022-04-11T13:56:17Z</time>
      </trkpt>
      <trkpt lat="49.95123" lon="2.18482">
        <ele>57.1</ele>
        <time>2022-04-11T13:56:19Z</time>
      </trkpt>
      <trkpt lat="49.95123" lon="2.1848">
        <ele>57.1</ele>
        <time>2022-04-11T13:56:20Z</time>
      </trkpt>
      <trkpt lat="49.95122" lon="2.18479">
        <ele>57.1</ele>
        <time>2022-04-11T13:56:21Z</time>
      </trkpt>
      <trkpt lat="49.95122" lon="2.18477">
        <ele>57.1</ele>
        <time>2022-04-11T13:56:22Z</time>
      </trkpt>
      <trkpt lat="49.95121" lon="2.18475">
        <ele>57.1</ele>
        <time>2022-04-11T13:56:23Z</time>
      </trkpt>
      <trkpt lat="49.95121" lon="2.18472">
        <ele>57</ele>
        <time>2022-04-11T13:56:24Z</time>
      </trkpt>
      <trkpt lat="49.9512" lon="2.18471">
        <ele>57</ele>
        <time>2022-04-11T13:56:25Z</time>
      </trkpt>
      <trkpt lat="49.9512" lon="2.1847">
        <ele>57</ele>
        <time>2022-04-11T13:56:26Z</time>
      </trkpt>
      <trkpt lat="49.95119" lon="2.18467">
        <ele>57</ele>
        <time>2022-04-11T13:56:28Z</time>
      </trkpt>
      <trkpt lat="49.95119" lon="2.18465">
        <ele>57</ele>
        <time>2022-04-11T13:56:29Z</time>
      </trkpt>
      <trkpt lat="49.95119" lon="2.18464">
        <ele>57</ele>
        <time>2022-04-11T13:56:30Z</time>
      </trkpt>
      <trkpt lat="49.95118" lon="2.18463">
        <ele>57</ele>
        <time>2022-04-11T13:56:31Z</time>
      </trkpt>
      <trkpt lat="49.95118" lon="2.18461">
        <ele>57</ele>
        <time>2022-04-11T13:56:32Z</time>
      </trkpt>
      <trkpt lat="49.95117" lon="2.18459">
        <ele>57</ele>
        <time>2022-04-11T13:56:33Z</time>
      </trkpt>
      <trkpt lat="49.95117" lon="2.18457">
        <ele>57</ele>
        <time>2022-04-11T13:56:34Z</time>
      </trkpt>
      <trkpt lat="49.95116" lon="2.18455">
        <ele>57</ele>
        <time>2022-04-11T13:56:35Z</time>
      </trkpt>
      <trkpt lat="49.95115" lon="2.18453">
        <ele>57</ele>
        <time>2022-04-11T13:56:37Z</time>
      </trkpt>
      <trkpt lat="49.95115" lon="2.18451">
        <ele>57</ele>
        <time>2022-04-11T13:56:38Z</time>
      </trkpt>
      <trkpt lat="49.95114" lon="2.18449">
        <ele>57</ele>
        <time>2022-04-11T13:56:39Z</time>
      </trkpt>
      <trkpt lat="49.95114" lon="2.18448">
        <ele>57</ele>
        <time>2022-04-11T13:56:40Z</time>
      </trkpt>
      <trkpt lat="49.95113" lon="2.18447">
        <ele>57</ele>
        <time>2022-04-11T13:56:41Z</time>
      </trkpt>
      <trkpt lat="49.95113" lon="2.18445">
        <ele>57</ele>
        <time>2022-04-11T13:56:42Z</time>
      </trkpt>
      <trkpt lat="49.95113" lon="2.18444">
        <ele>57</ele>
        <time>2022-04-11T13:56:43Z</time>
      </trkpt>
      <trkpt lat="49.95112" lon="2.18442">
        <ele>57</ele>
        <time>2022-04-11T13:56:44Z</time>
      </trkpt>
      <trkpt lat="49.95111" lon="2.1844">
        <ele>56.9</ele>
        <time>2022-04-11T13:56:45Z</time>
      </trkpt>
      <trkpt lat="49.9511" lon="2.18438">
        <ele>56.9</ele>
        <time>2022-04-11T13:56:46Z</time>
      </trkpt>
      <trkpt lat="49.95109" lon="2.18435">
        <ele>56.9</ele>
        <time>2022-04-11T13:56:47Z</time>
      </trkpt>
      <trkpt lat="49.95109" lon="2.18434">
        <ele>56.9</ele>
        <time>2022-04-11T13:56:49Z</time>
      </trkpt>
      <trkpt lat="49.95108" lon="2.18432">
        <ele>56.9</ele>
        <time>2022-04-11T13:56:50Z</time>
      </trkpt>
      <trkpt lat="49.95107" lon="2.18431">
        <ele>56.9</ele>
        <time>2022-04-11T13:56:51Z</time>
      </trkpt>
      <trkpt lat="49.95107" lon="2.1843">
        <ele>56.9</ele>
        <time>2022-04-11T13:56:52Z</time>
      </trkpt>
      <trkpt lat="49.95106" lon="2.18427">
        <ele>56.9</ele>
        <time>2022-04-11T13:56:53Z</time>
      </trkpt>
      <trkpt lat="49.95106" lon="2.18426">
        <ele>56.9</ele>
        <time>2022-04-11T13:56:55Z</time>
      </trkpt>
      <trkpt lat="49.95105" lon="2.18424">
        <ele>56.8</ele>
        <time>2022-04-11T13:56:56Z</time>
      </trkpt>
      <trkpt lat="49.95105" lon="2.18423">
        <ele>56.8</ele>
        <time>2022-04-11T13:56:57Z</time>
      </trkpt>
      <trkpt lat="49.95104" lon="2.18421">
        <ele>56.8</ele>
        <time>2022-04-11T13:56:58Z</time>
      </trkpt>
      <trkpt lat="49.95104" lon="2.1842">
        <ele>56.8</ele>
        <time>2022-04-11T13:56:59Z</time>
      </trkpt>
      <trkpt lat="49.95103" lon="2.18418">
        <ele>56.8</ele>
        <time>2022-04-11T13:57:00Z</time>
      </trkpt>
      <trkpt lat="49.95103" lon="2.18417">
        <ele>56.8</ele>
        <time>2022-04-11T13:57:01Z</time>
      </trkpt>
      <trkpt lat="49.95102" lon="2.18414">
        <ele>56.8</ele>
        <time>2022-04-11T13:57:02Z</time>
      </trkpt>
      <trkpt lat="49.95102" lon="2.18412">
        <ele>56.8</ele>
        <time>2022-04-11T13:57:03Z</time>
      </trkpt>
      <trkpt lat="49.95101" lon="2.18411">
        <ele>56.7</ele>
        <time>2022-04-11T13:57:04Z</time>
      </trkpt>
      <trkpt lat="49.95101" lon="2.18409">
        <ele>56.7</ele>
        <time>2022-04-11T13:57:05Z</time>
      </trkpt>
      <trkpt lat="49.951" lon="2.18407">
        <ele>56.7</ele>
        <time>2022-04-11T13:57:06Z</time>
      </trkpt>
      <trkpt lat="49.95099" lon="2.18405">
        <ele>56.7</ele>
        <time>2022-04-11T13:57:07Z</time>
      </trkpt>
      <trkpt lat="49.95099" lon="2.18404">
        <ele>56.7</ele>
        <time>2022-04-11T13:57:08Z</time>
      </trkpt>
      <trkpt lat="49.95097" lon="2.18401">
        <ele>56.7</ele>
        <time>2022-04-11T13:57:09Z</time>
      </trkpt>
      <trkpt lat="49.95097" lon="2.18399">
        <ele>56.7</ele>
        <time>2022-04-11T13:57:11Z</time>
      </trkpt>
      <trkpt lat="49.95096" lon="2.18398">
        <ele>56.6</ele>
        <time>2022-04-11T13:57:12Z</time>
      </trkpt>
      <trkpt lat="49.95095" lon="2.18397">
        <ele>56.6</ele>
        <time>2022-04-11T13:57:13Z</time>
      </trkpt>
      <trkpt lat="49.95095" lon="2.18395">
        <ele>56.6</ele>
        <time>2022-04-11T13:57:14Z</time>
      </trkpt>
      <trkpt lat="49.95094" lon="2.18393">
        <ele>56.6</ele>
        <time>2022-04-11T13:57:15Z</time>
      </trkpt>
      <trkpt lat="49.95094" lon="2.18392">
        <ele>56.6</ele>
        <time>2022-04-11T13:57:16Z</time>
      </trkpt>
      <trkpt lat="49.95093" lon="2.1839">
        <ele>56.6</ele>
        <time>2022-04-11T13:57:17Z</time>
      </trkpt>
      <trkpt lat="49.95093" lon="2.18389">
        <ele>56.6</ele>
        <time>2022-04-11T13:57:18Z</time>
      </trkpt>
      <trkpt lat="49.95092" lon="2.18386">
        <ele>56.6</ele>
        <time>2022-04-11T13:57:19Z</time>
      </trkpt>
      <trkpt lat="49.95091" lon="2.18383">
        <ele>56.5</ele>
        <time>2022-04-11T13:57:21Z</time>
      </trkpt>
      <trkpt lat="49.9509" lon="2.18382">
        <ele>56.5</ele>
        <time>2022-04-11T13:57:22Z</time>
      </trkpt>
      <trkpt lat="49.9509" lon="2.1838">
        <ele>56.5</ele>
        <time>2022-04-11T13:57:23Z</time>
      </trkpt>
      <trkpt lat="49.95089" lon="2.18378">
        <ele>56.5</ele>
        <time>2022-04-11T13:57:24Z</time>
      </trkpt>
      <trkpt lat="49.95088" lon="2.18377">
        <ele>56.5</ele>
        <time>2022-04-11T13:57:25Z</time>
      </trkpt>
      <trkpt lat="49.95088" lon="2.18376">
        <ele>56.5</ele>
        <time>2022-04-11T13:57:26Z</time>
      </trkpt>
      <trkpt lat="49.95088" lon="2.18375">
        <ele>56.4</ele>
        <time>2022-04-11T13:57:27Z</time>
      </trkpt>
      <trkpt lat="49.95087" lon="2.18373">
        <ele>56.4</ele>
        <time>2022-04-11T13:57:28Z</time>
      </trkpt>
      <trkpt lat="49.95087" lon="2.18371">
        <ele>56.4</ele>
        <time>2022-04-11T13:57:29Z</time>
      </trkpt>
      <trkpt lat="49.95086" lon="2.18368">
        <ele>56.4</ele>
        <time>2022-04-11T13:57:31Z</time>
      </trkpt>
      <trkpt lat="49.95086" lon="2.18367">
        <ele>56.4</ele>
        <time>2022-04-11T13:57:32Z</time>
      </trkpt>
      <trkpt lat="49.95085" lon="2.18365">
        <ele>56.4</ele>
        <time>2022-04-11T13:57:33Z</time>
      </trkpt>
      <trkpt lat="49.95085" lon="2.18364">
        <ele>56.4</ele>
        <time>2022-04-11T13:57:34Z</time>
      </trkpt>
      <trkpt lat="49.95085" lon="2.18362">
        <ele>56.3</ele>
        <time>2022-04-11T13:57:35Z</time>
      </trkpt>
      <trkpt lat="49.95084" lon="2.18361">
        <ele>56.3</ele>
        <time>2022-04-11T13:57:36Z</time>
      </trkpt>
      <trkpt lat="49.95084" lon="2.1836">
        <ele>56.3</ele>
        <time>2022-04-11T13:57:37Z</time>
      </trkpt>
      <trkpt lat="49.95083" lon="2.18359">
        <ele>56.3</ele>
        <time>2022-04-11T13:57:38Z</time>
      </trkpt>
      <trkpt lat="49.95082" lon="2.18357">
        <ele>56.3</ele>
        <time>2022-04-11T13:57:39Z</time>
      </trkpt>
      <trkpt lat="49.95082" lon="2.18356">
        <ele>56.3</ele>
        <time>2022-04-11T13:57:40Z</time>
      </trkpt>
      <trkpt lat="49.95081" lon="2.18354">
        <ele>56.3</ele>
        <time>2022-04-11T13:57:41Z</time>
      </trkpt>
      <trkpt lat="49.9508" lon="2.18353">
        <ele>56.2</ele>
        <time>2022-04-11T13:57:42Z</time>
      </trkpt>
      <trkpt lat="49.95079" lon="2.18351">
        <ele>56.2</ele>
        <time>2022-04-11T13:57:43Z</time>
      </trkpt>
      <trkpt lat="49.95078" lon="2.18348">
        <ele>56.2</ele>
        <time>2022-04-11T13:57:45Z</time>
      </trkpt>
      <trkpt lat="49.95077" lon="2.18347">
        <ele>56.2</ele>
        <time>2022-04-11T13:57:46Z</time>
      </trkpt>
      <trkpt lat="49.95076" lon="2.18344">
        <ele>56.2</ele>
        <time>2022-04-11T13:57:47Z</time>
      </trkpt>
      <trkpt lat="49.95076" lon="2.18342">
        <ele>56.2</ele>
        <time>2022-04-11T13:57:48Z</time>
      </trkpt>
      <trkpt lat="49.95076" lon="2.18341">
        <ele>56.2</ele>
        <time>2022-04-11T13:57:49Z</time>
      </trkpt>
      <trkpt lat="49.95075" lon="2.18339">
        <ele>56.1</ele>
        <time>2022-04-11T13:57:50Z</time>
      </trkpt>
      <trkpt lat="49.95074" lon="2.18338">
        <ele>56.1</ele>
        <time>2022-04-11T13:57:51Z</time>
      </trkpt>
      <trkpt lat="49.95074" lon="2.18336">
        <ele>56.1</ele>
        <time>2022-04-11T13:57:53Z</time>
      </trkpt>
      <trkpt lat="49.95073" lon="2.18334">
        <ele>56.1</ele>
        <time>2022-04-11T13:57:54Z</time>
      </trkpt>
      <trkpt lat="49.95073" lon="2.18333">
        <ele>56.1</ele>
        <time>2022-04-11T13:57:55Z</time>
      </trkpt>
      <trkpt lat="49.95073" lon="2.18331">
        <ele>56.1</ele>
        <time>2022-04-11T13:57:56Z</time>
      </trkpt>
      <trkpt lat="49.95071" lon="2.18328">
        <ele>56</ele>
        <time>2022-04-11T13:57:57Z</time>
      </trkpt>
      <trkpt lat="49.95071" lon="2.18326">
        <ele>56</ele>
        <time>2022-04-11T13:57:59Z</time>
      </trkpt>
      <trkpt lat="49.95071" lon="2.18325">
        <ele>56</ele>
        <time>2022-04-11T13:58:00Z</time>
      </trkpt>
      <trkpt lat="49.9507" lon="2.18323">
        <ele>56</ele>
        <time>2022-04-11T13:58:01Z</time>
      </trkpt>
      <trkpt lat="49.9507" lon="2.18322">
        <ele>56</ele>
        <time>2022-04-11T13:58:02Z</time>
      </trkpt>
      <trkpt lat="49.9507" lon="2.1832">
        <ele>56</ele>
        <time>2022-04-11T13:58:03Z</time>
      </trkpt>
      <trkpt lat="49.95069" lon="2.18318">
        <ele>56</ele>
        <time>2022-04-11T13:58:04Z</time>
      </trkpt>
      <trkpt lat="49.95069" lon="2.18314">
        <ele>56</ele>
        <time>2022-04-11T13:58:05Z</time>
      </trkpt>
      <trkpt lat="49.95068" lon="2.18313">
        <ele>56</ele>
        <time>2022-04-11T13:58:06Z</time>
      </trkpt>
      <trkpt lat="49.95068" lon="2.18312">
        <ele>55.9</ele>
        <time>2022-04-11T13:58:07Z</time>
      </trkpt>
      <trkpt lat="49.95068" lon="2.1831">
        <ele>55.9</ele>
        <time>2022-04-11T13:58:09Z</time>
      </trkpt>
      <trkpt lat="49.95067" lon="2.18308">
        <ele>55.9</ele>
        <time>2022-04-11T13:58:10Z</time>
      </trkpt>
      <trkpt lat="49.95066" lon="2.18307">
        <ele>55.9</ele>
        <time>2022-04-11T13:58:11Z</time>
      </trkpt>
      <trkpt lat="49.95066" lon="2.18306">
        <ele>55.9</ele>
        <time>2022-04-11T13:58:12Z</time>
      </trkpt>
      <trkpt lat="49.95065" lon="2.18304">
        <ele>55.9</ele>
        <time>2022-04-11T13:58:13Z</time>
      </trkpt>
      <trkpt lat="49.95065" lon="2.18303">
        <ele>55.9</ele>
        <time>2022-04-11T13:58:14Z</time>
      </trkpt>
      <trkpt lat="49.95064" lon="2.18301">
        <ele>55.9</ele>
        <time>2022-04-11T13:58:15Z</time>
      </trkpt>
      <trkpt lat="49.95064" lon="2.183">
        <ele>55.9</ele>
        <time>2022-04-11T13:58:16Z</time>
      </trkpt>
      <trkpt lat="49.95063" lon="2.18298">
        <ele>55.8</ele>
        <time>2022-04-11T13:58:17Z</time>
      </trkpt>
      <trkpt lat="49.95062" lon="2.18296">
        <ele>55.8</ele>
        <time>2022-04-11T13:58:18Z</time>
      </trkpt>
      <trkpt lat="49.95062" lon="2.18294">
        <ele>55.8</ele>
        <time>2022-04-11T13:58:19Z</time>
      </trkpt>
      <trkpt lat="49.95061" lon="2.18292">
        <ele>55.8</ele>
        <time>2022-04-11T13:58:21Z</time>
      </trkpt>
      <trkpt lat="49.9506" lon="2.1829">
        <ele>55.8</ele>
        <time>2022-04-11T13:58:22Z</time>
      </trkpt>
      <trkpt lat="49.95059" lon="2.18287">
        <ele>55.8</ele>
        <time>2022-04-11T13:58:23Z</time>
      </trkpt>
      <trkpt lat="49.95059" lon="2.18286">
        <ele>55.8</ele>
        <time>2022-04-11T13:58:24Z</time>
      </trkpt>
      <trkpt lat="49.95058" lon="2.18285">
        <ele>55.8</ele>
        <time>2022-04-11T13:58:25Z</time>
      </trkpt>
      <trkpt lat="49.95057" lon="2.18282">
        <ele>55.8</ele>
        <time>2022-04-11T13:58:26Z</time>
      </trkpt>
      <trkpt lat="49.95057" lon="2.1828">
        <ele>55.8</ele>
        <time>2022-04-11T13:58:27Z</time>
      </trkpt>
      <trkpt lat="49.95056" lon="2.18279">
        <ele>55.7</ele>
        <time>2022-04-11T13:58:28Z</time>
      </trkpt>
      <trkpt lat="49.95055" lon="2.18277">
        <ele>55.7</ele>
        <time>2022-04-11T13:58:30Z</time>
      </trkpt>
      <trkpt lat="49.95054" lon="2.18275">
        <ele>55.7</ele>
        <time>2022-04-11T13:58:31Z</time>
      </trkpt>
      <trkpt lat="49.95053" lon="2.18273">
        <ele>55.7</ele>
        <time>2022-04-11T13:58:32Z</time>
      </trkpt>
      <trkpt lat="49.95053" lon="2.18272">
        <ele>55.7</ele>
        <time>2022-04-11T13:58:33Z</time>
      </trkpt>
      <trkpt lat="49.95052" lon="2.18271">
        <ele>55.7</ele>
        <time>2022-04-11T13:58:34Z</time>
      </trkpt>
      <trkpt lat="49.95051" lon="2.18269">
        <ele>55.7</ele>
        <time>2022-04-11T13:58:35Z</time>
      </trkpt>
      <trkpt lat="49.95051" lon="2.18268">
        <ele>55.7</ele>
        <time>2022-04-11T13:58:36Z</time>
      </trkpt>
      <trkpt lat="49.9505" lon="2.18267">
        <ele>55.7</ele>
        <time>2022-04-11T13:58:37Z</time>
      </trkpt>
      <trkpt lat="49.95049" lon="2.18264">
        <ele>55.7</ele>
        <time>2022-04-11T13:58:38Z</time>
      </trkpt>
      <trkpt lat="49.95049" lon="2.18263">
        <ele>55.7</ele>
        <time>2022-04-11T13:58:39Z</time>
      </trkpt>
      <trkpt lat="49.95048" lon="2.18261">
        <ele>55.7</ele>
        <time>2022-04-11T13:58:40Z</time>
      </trkpt>
      <trkpt lat="49.95048" lon="2.18259">
        <ele>55.7</ele>
        <time>2022-04-11T13:58:42Z</time>
      </trkpt>
      <trkpt lat="49.95047" lon="2.18258">
        <ele>55.6</ele>
        <time>2022-04-11T13:58:43Z</time>
      </trkpt>
      <trkpt lat="49.95046" lon="2.18256">
        <ele>55.6</ele>
        <time>2022-04-11T13:58:44Z</time>
      </trkpt>
      <trkpt lat="49.95046" lon="2.18255">
        <ele>55.6</ele>
        <time>2022-04-11T13:58:45Z</time>
      </trkpt>
      <trkpt lat="49.95045" lon="2.18253">
        <ele>55.6</ele>
        <time>2022-04-11T13:58:46Z</time>
      </trkpt>
      <trkpt lat="49.95045" lon="2.18252">
        <ele>55.6</ele>
        <time>2022-04-11T13:58:47Z</time>
      </trkpt>
      <trkpt lat="49.95044" lon="2.1825">
        <ele>55.6</ele>
        <time>2022-04-11T13:58:48Z</time>
      </trkpt>
      <trkpt lat="49.95043" lon="2.18248">
        <ele>55.6</ele>
        <time>2022-04-11T13:58:50Z</time>
      </trkpt>
      <trkpt lat="49.95042" lon="2.18245">
        <ele>55.6</ele>
        <time>2022-04-11T13:58:51Z</time>
      </trkpt>
      <trkpt lat="49.95042" lon="2.18244">
        <ele>55.6</ele>
        <time>2022-04-11T13:58:52Z</time>
      </trkpt>
      <trkpt lat="49.95041" lon="2.18243">
        <ele>55.6</ele>
        <time>2022-04-11T13:58:53Z</time>
      </trkpt>
      <trkpt lat="49.95041" lon="2.18242">
        <ele>55.6</ele>
        <time>2022-04-11T13:58:54Z</time>
      </trkpt>
      <trkpt lat="49.9504" lon="2.18241">
        <ele>55.6</ele>
        <time>2022-04-11T13:58:55Z</time>
      </trkpt>
      <trkpt lat="49.9504" lon="2.18239">
        <ele>55.6</ele>
        <time>2022-04-11T13:58:56Z</time>
      </trkpt>
      <trkpt lat="49.95039" lon="2.18237">
        <ele>55.6</ele>
        <time>2022-04-11T13:58:57Z</time>
      </trkpt>
      <trkpt lat="49.95038" lon="2.18235">
        <ele>55.6</ele>
        <time>2022-04-11T13:58:58Z</time>
      </trkpt>
      <trkpt lat="49.95038" lon="2.18231">
        <ele>55.6</ele>
        <time>2022-04-11T13:58:59Z</time>
      </trkpt>
      <trkpt lat="49.95037" lon="2.1823">
        <ele>55.6</ele>
        <time>2022-04-11T13:59:00Z</time>
      </trkpt>
      <trkpt lat="49.95037" lon="2.18228">
        <ele>55.6</ele>
        <time>2022-04-11T13:59:01Z</time>
      </trkpt>
      <trkpt lat="49.95037" lon="2.18227">
        <ele>55.6</ele>
        <time>2022-04-11T13:59:02Z</time>
      </trkpt>
      <trkpt lat="49.95036" lon="2.18225">
        <ele>55.6</ele>
        <time>2022-04-11T13:59:03Z</time>
      </trkpt>
      <trkpt lat="49.95036" lon="2.18223">
        <ele>55.6</ele>
        <time>2022-04-11T13:59:05Z</time>
      </trkpt>
      <trkpt lat="49.95036" lon="2.18221">
        <ele>55.7</ele>
        <time>2022-04-11T13:59:06Z</time>
      </trkpt>
      <trkpt lat="49.95035" lon="2.18219">
        <ele>55.7</ele>
        <time>2022-04-11T13:59:07Z</time>
      </trkpt>
      <trkpt lat="49.95035" lon="2.18218">
        <ele>55.7</ele>
        <time>2022-04-11T13:59:08Z</time>
      </trkpt>
      <trkpt lat="49.95034" lon="2.18217">
        <ele>55.7</ele>
        <time>2022-04-11T13:59:09Z</time>
      </trkpt>
      <trkpt lat="49.95034" lon="2.18216">
        <ele>55.7</ele>
        <time>2022-04-11T13:59:10Z</time>
      </trkpt>
      <trkpt lat="49.95033" lon="2.18214">
        <ele>55.7</ele>
        <time>2022-04-11T13:59:12Z</time>
      </trkpt>
      <trkpt lat="49.95034" lon="2.18212">
        <ele>55.7</ele>
        <time>2022-04-11T13:59:13Z</time>
      </trkpt>
      <trkpt lat="49.95034" lon="2.1821">
        <ele>55.7</ele>
        <time>2022-04-11T13:59:14Z</time>
      </trkpt>
      <trkpt lat="49.95034" lon="2.18208">
        <ele>55.7</ele>
        <time>2022-04-11T13:59:15Z</time>
      </trkpt>
      <trkpt lat="49.95034" lon="2.18207">
        <ele>55.7</ele>
        <time>2022-04-11T13:59:16Z</time>
      </trkpt>
      <trkpt lat="49.95034" lon="2.18205">
        <ele>55.7</ele>
        <time>2022-04-11T13:59:17Z</time>
      </trkpt>
      <trkpt lat="49.95033" lon="2.18204">
        <ele>55.7</ele>
        <time>2022-04-11T13:59:18Z</time>
      </trkpt>
      <trkpt lat="49.95033" lon="2.18202">
        <ele>55.8</ele>
        <time>2022-04-11T13:59:19Z</time>
      </trkpt>
      <trkpt lat="49.95033" lon="2.18201">
        <ele>55.8</ele>
        <time>2022-04-11T13:59:20Z</time>
      </trkpt>
      <trkpt lat="49.95033" lon="2.18199">
        <ele>55.8</ele>
        <time>2022-04-11T13:59:21Z</time>
      </trkpt>
      <trkpt lat="49.95033" lon="2.18197">
        <ele>55.7</ele>
        <time>2022-04-11T13:59:23Z</time>
      </trkpt>
      <trkpt lat="49.95033" lon="2.18195">
        <ele>55.7</ele>
        <time>2022-04-11T13:59:24Z</time>
      </trkpt>
      <trkpt lat="49.95033" lon="2.18193">
        <ele>55.7</ele>
        <time>2022-04-11T13:59:25Z</time>
      </trkpt>
      <trkpt lat="49.95033" lon="2.18191">
        <ele>55.7</ele>
        <time>2022-04-11T13:59:26Z</time>
      </trkpt>
      <trkpt lat="49.95032" lon="2.18189">
        <ele>55.6</ele>
        <time>2022-04-11T13:59:27Z</time>
      </trkpt>
      <trkpt lat="49.95032" lon="2.18188">
        <ele>55.6</ele>
        <time>2022-04-11T13:59:28Z</time>
      </trkpt>
      <trkpt lat="49.95032" lon="2.18186">
        <ele>55.6</ele>
        <time>2022-04-11T13:59:29Z</time>
      </trkpt>
      <trkpt lat="49.95032" lon="2.18185">
        <ele>55.6</ele>
        <time>2022-04-11T13:59:30Z</time>
      </trkpt>
      <trkpt lat="49.95032" lon="2.18183">
        <ele>55.6</ele>
        <time>2022-04-11T13:59:31Z</time>
      </trkpt>
      <trkpt lat="49.95031" lon="2.18181">
        <ele>55.5</ele>
        <time>2022-04-11T13:59:32Z</time>
      </trkpt>
      <trkpt lat="49.95031" lon="2.1818">
        <ele>55.5</ele>
        <time>2022-04-11T13:59:33Z</time>
      </trkpt>
      <trkpt lat="49.95031" lon="2.18178">
        <ele>55.5</ele>
        <time>2022-04-11T13:59:34Z</time>
      </trkpt>
      <trkpt lat="49.9503" lon="2.18176">
        <ele>55.4</ele>
        <time>2022-04-11T13:59:35Z</time>
      </trkpt>
      <trkpt lat="49.9503" lon="2.18175">
        <ele>55.4</ele>
        <time>2022-04-11T13:59:36Z</time>
      </trkpt>
      <trkpt lat="49.9503" lon="2.18173">
        <ele>55.4</ele>
        <time>2022-04-11T13:59:37Z</time>
      </trkpt>
      <trkpt lat="49.9503" lon="2.18171">
        <ele>55.4</ele>
        <time>2022-04-11T13:59:39Z</time>
      </trkpt>
      <trkpt lat="49.9503" lon="2.1817">
        <ele>55.3</ele>
        <time>2022-04-11T13:59:40Z</time>
      </trkpt>
      <trkpt lat="49.9503" lon="2.18168">
        <ele>55.3</ele>
        <time>2022-04-11T13:59:41Z</time>
      </trkpt>
      <trkpt lat="49.9503" lon="2.18165">
        <ele>55.3</ele>
        <time>2022-04-11T13:59:42Z</time>
      </trkpt>
      <trkpt lat="49.9503" lon="2.18164">
        <ele>55.3</ele>
        <time>2022-04-11T13:59:43Z</time>
      </trkpt>
      <trkpt lat="49.9503" lon="2.18162">
        <ele>55.3</ele>
        <time>2022-04-11T13:59:44Z</time>
      </trkpt>
      <trkpt lat="49.95029" lon="2.18161">
        <ele>55.3</ele>
        <time>2022-04-11T13:59:45Z</time>
      </trkpt>
      <trkpt lat="49.95029" lon="2.18159">
        <ele>55.2</ele>
        <time>2022-04-11T13:59:46Z</time>
      </trkpt>
      <trkpt lat="49.95029" lon="2.18157">
        <ele>55.2</ele>
        <time>2022-04-11T13:59:48Z</time>
      </trkpt>
      <trkpt lat="49.95029" lon="2.18155">
        <ele>55.2</ele>
        <time>2022-04-11T13:59:49Z</time>
      </trkpt>
      <trkpt lat="49.95029" lon="2.18154">
        <ele>55.2</ele>
        <time>2022-04-11T13:59:50Z</time>
      </trkpt>
      <trkpt lat="49.95029" lon="2.18153">
        <ele>55.2</ele>
        <time>2022-04-11T13:59:51Z</time>
      </trkpt>
      <trkpt lat="49.95029" lon="2.18151">
        <ele>55.2</ele>
        <time>2022-04-11T13:59:52Z</time>
      </trkpt>
      <trkpt lat="49.95029" lon="2.18149">
        <ele>55.2</ele>
        <time>2022-04-11T13:59:53Z</time>
      </trkpt>
      <trkpt lat="49.95029" lon="2.18148">
        <ele>55.2</ele>
        <time>2022-04-11T13:59:54Z</time>
      </trkpt>
      <trkpt lat="49.95029" lon="2.18144">
        <ele>55.1</ele>
        <time>2022-04-11T13:59:55Z</time>
      </trkpt>
      <trkpt lat="49.9503" lon="2.18143">
        <ele>55.1</ele>
        <time>2022-04-11T13:59:56Z</time>
      </trkpt>
      <trkpt lat="49.9503" lon="2.18141">
        <ele>55.1</ele>
        <time>2022-04-11T13:59:58Z</time>
      </trkpt>
      <trkpt lat="49.9503" lon="2.1814">
        <ele>55.1</ele>
        <time>2022-04-11T13:59:59Z</time>
      </trkpt>
      <trkpt lat="49.9503" lon="2.18138">
        <ele>55.1</ele>
        <time>2022-04-11T14:00:00Z</time>
      </trkpt>
      <trkpt lat="49.9503" lon="2.18137">
        <ele>55.1</ele>
        <time>2022-04-11T14:00:01Z</time>
      </trkpt>
      <trkpt lat="49.95031" lon="2.18135">
        <ele>55.1</ele>
        <time>2022-04-11T14:00:02Z</time>
      </trkpt>
      <trkpt lat="49.95031" lon="2.18133">
        <ele>55</ele>
        <time>2022-04-11T14:00:03Z</time>
      </trkpt>
      <trkpt lat="49.95031" lon="2.18131">
        <ele>55</ele>
        <time>2022-04-11T14:00:04Z</time>
      </trkpt>
      <trkpt lat="49.95031" lon="2.1813">
        <ele>55</ele>
        <time>2022-04-11T14:00:05Z</time>
      </trkpt>
      <trkpt lat="49.9503" lon="2.18128">
        <ele>55</ele>
        <time>2022-04-11T14:00:06Z</time>
      </trkpt>
      <trkpt lat="49.95029" lon="2.18127">
        <ele>54.9</ele>
        <time>2022-04-11T14:00:07Z</time>
      </trkpt>
      <trkpt lat="49.95028" lon="2.18125">
        <ele>54.9</ele>
        <time>2022-04-11T14:00:08Z</time>
      </trkpt>
      <trkpt lat="49.95027" lon="2.18124">
        <ele>54.9</ele>
        <time>2022-04-11T14:00:10Z</time>
      </trkpt>
      <trkpt lat="49.95026" lon="2.18123">
        <ele>54.9</ele>
        <time>2022-04-11T14:00:11Z</time>
      </trkpt>
      <trkpt lat="49.95026" lon="2.18123">
        <ele>54.9</ele>
        <time>2022-04-11T14:00:12Z</time>
      </trkpt>
      <trkpt lat="49.95023" lon="2.18123">
        <ele>54.8</ele>
        <time>2022-04-11T14:00:14Z</time>
      </trkpt>
      <trkpt lat="49.95022" lon="2.18125">
        <ele>54.8</ele>
        <time>2022-04-11T14:00:15Z</time>
      </trkpt>
      <trkpt lat="49.95021" lon="2.18125">
        <ele>54.8</ele>
        <time>2022-04-11T14:00:16Z</time>
      </trkpt>
      <trkpt lat="49.9502" lon="2.18126">
        <ele>54.8</ele>
        <time>2022-04-11T14:00:17Z</time>
      </trkpt>
      <trkpt lat="49.9502" lon="2.18126">
        <ele>54.7</ele>
        <time>2022-04-11T14:00:18Z</time>
      </trkpt>
      <trkpt lat="49.95019" lon="2.18127">
        <ele>54.7</ele>
        <time>2022-04-11T14:00:19Z</time>
      </trkpt>
      <trkpt lat="49.95018" lon="2.18127">
        <ele>54.7</ele>
        <time>2022-04-11T14:00:20Z</time>
      </trkpt>
      <trkpt lat="49.95018" lon="2.18128">
        <ele>54.7</ele>
        <time>2022-04-11T14:00:21Z</time>
      </trkpt>
      <trkpt lat="49.95018" lon="2.18128">
        <ele>54.7</ele>
        <time>2022-04-11T14:00:22Z</time>
      </trkpt>
      <trkpt lat="49.95018" lon="2.18128">
        <ele>54.7</ele>
        <time>2022-04-11T14:00:23Z</time>
      </trkpt>
      <trkpt lat="49.95018" lon="2.18128">
        <ele>54.7</ele>
        <time>2022-04-11T14:00:24Z</time>
      </trkpt>
      <trkpt lat="49.95018" lon="2.18129">
        <ele>54.7</ele>
        <time>2022-04-11T14:00:25Z</time>
      </trkpt>
      <trkpt lat="49.95018" lon="2.18129">
        <ele>54.7</ele>
        <time>2022-04-11T14:00:26Z</time>
      </trkpt>
      <trkpt lat="49.95018" lon="2.18129">
        <ele>54.7</ele>
        <time>2022-04-11T14:00:27Z</time>
      </trkpt>
      <trkpt lat="49.95018" lon="2.18129">
        <ele>54.7</ele>
        <time>2022-04-11T14:00:28Z</time>
      </trkpt>
      <trkpt lat="49.95018" lon="2.18129">
        <ele>54.7</ele>
        <time>2022-04-11T14:00:29Z</time>
      </trkpt>
      <trkpt lat="49.95018" lon="2.18129">
        <ele>54.7</ele>
        <time>2022-04-11T14:00:30Z</time>
      </trkpt>
      <trkpt lat="49.95018" lon="2.18129">
        <ele>54.7</ele>
        <time>2022-04-11T14:00:31Z</time>
      </trkpt>
      <trkpt lat="49.95018" lon="2.18129">
        <ele>54.7</ele>
        <time>2022-04-11T14:00:32Z</time>
      </trkpt>
      <trkpt lat="49.95018" lon="2.18129">
        <ele>54.7</ele>
        <time>2022-04-11T14:00:33Z</time>
      </trkpt>
      <trkpt lat="49.95018" lon="2.18129">
        <ele>54.7</ele>
        <time>2022-04-11T14:00:34Z</time>
      </trkpt>
      <trkpt lat="49.95018" lon="2.18129">
        <ele>54.7</ele>
        <time>2022-04-11T14:00:35Z</time>
      </trkpt>
      <trkpt lat="49.95018" lon="2.18129">
        <ele>54.7</ele>
        <time>2022-04-11T14:00:36Z</time>
      </trkpt>
      <trkpt lat="49.95018" lon="2.18129">
        <ele>54.7</ele>
        <time>2022-04-11T14:00:37Z</time>
      </trkpt>
      <trkpt lat="49.95018" lon="2.18129">
        <ele>54.7</ele>
        <time>2022-04-11T14:00:38Z</time>
      </trkpt>
      <trkpt lat="49.95018" lon="2.18129">
        <ele>54.7</ele>
        <time>2022-04-11T14:00:39Z</time>
      </trkpt>
      <trkpt lat="49.95018" lon="2.18129">
        <ele>54.7</ele>
        <time>2022-04-11T14:00:40Z</time>
      </trkpt>
      <trkpt lat="49.95019" lon="2.18129">
        <ele>54.7</ele>
        <time>2022-04-11T14:00:41Z</time>
      </trkpt>
      <trkpt lat="49.95019" lon="2.18129">
        <ele>54.7</ele>
        <time>2022-04-11T14:00:42Z</time>
      </trkpt>
      <trkpt lat="49.95019" lon="2.18129">
        <ele>54.7</ele>
        <time>2022-04-11T14:00:43Z</time>
      </trkpt>
      <trkpt lat="49.95019" lon="2.18129">
        <ele>54.7</ele>
        <time>2022-04-11T14:00:44Z</time>
      </trkpt>
      <trkpt lat="49.95019" lon="2.18129">
        <ele>54.7</ele>
        <time>2022-04-11T14:00:45Z</time>
      </trkpt>
      <trkpt lat="49.95019" lon="2.18129">
        <ele>54.7</ele>
        <time>2022-04-11T14:00:46Z</time>
      </trkpt>
      <trkpt lat="49.95019" lon="2.18129">
        <ele>54.7</ele>
        <time>2022-04-11T14:00:47Z</time>
      </trkpt>
      <trkpt lat="49.95019" lon="2.18129">
        <ele>54.7</ele>
        <time>2022-04-11T14:00:48Z</time>
      </trkpt>
      <trkpt lat="49.95019" lon="2.18129">
        <ele>54.7</ele>
        <time>2022-04-11T14:00:49Z</time>
      </trkpt>
      <trkpt lat="49.95019" lon="2.18129">
        <ele>54.7</ele>
        <time>2022-04-11T14:00:50Z</time>
      </trkpt>
      <trkpt lat="49.95019" lon="2.18129">
        <ele>54.7</ele>
        <time>2022-04-11T14:00:51Z</time>
      </trkpt>
      <trkpt lat="49.95019" lon="2.18129">
        <ele>54.7</ele>
        <time>2022-04-11T14:00:52Z</time>
      </trkpt>
      <trkpt lat="49.95019" lon="2.18129">
        <ele>54.7</ele>
        <time>2022-04-11T14:00:53Z</time>
      </trkpt>
      <trkpt lat="49.95019" lon="2.18129">
        <ele>54.7</ele>
        <time>2022-04-11T14:00:54Z</time>
      </trkpt>
      <trkpt lat="49.95019" lon="2.18129">
        <ele>54.7</ele>
        <time>2022-04-11T14:00:55Z</time>
      </trkpt>
      <trkpt lat="49.95019" lon="2.18129">
        <ele>54.7</ele>
        <time>2022-04-11T14:00:56Z</time>
      </trkpt>
      <trkpt lat="49.95019" lon="2.18129">
        <ele>54.7</ele>
        <time>2022-04-11T14:00:57Z</time>
      </trkpt>
      <trkpt lat="49.95019" lon="2.18129">
        <ele>54.7</ele>
        <time>2022-04-11T14:00:58Z</time>
      </trkpt>
      <trkpt lat="49.95019" lon="2.18129">
        <ele>54.7</ele>
        <time>2022-04-11T14:00:59Z</time>
      </trkpt>
      <trkpt lat="49.95019" lon="2.18129">
        <ele>54.7</ele>
        <time>2022-04-11T14:01:00Z</time>
      </trkpt>
      <trkpt lat="49.95019" lon="2.18129">
        <ele>54.7</ele>
        <time>2022-04-11T14:01:01Z</time>
      </trkpt>
      <trkpt lat="49.95019" lon="2.18129">
        <ele>54.7</ele>
        <time>2022-04-11T14:01:02Z</time>
      </trkpt>
      <trkpt lat="49.95019" lon="2.18129">
        <ele>54.7</ele>
        <time>2022-04-11T14:01:03Z</time>
      </trkpt>
      <trkpt lat="49.95019" lon="2.18129">
        <ele>54.7</ele>
        <time>2022-04-11T14:01:04Z</time>
      </trkpt>
      <trkpt lat="49.95019" lon="2.18129">
        <ele>54.7</ele>
        <time>2022-04-11T14:01:05Z</time>
      </trkpt>
      <trkpt lat="49.95019" lon="2.18129">
        <ele>54.7</ele>
        <time>2022-04-11T14:01:06Z</time>
      </trkpt>
      <trkpt lat="49.95019" lon="2.18129">
        <ele>54.7</ele>
        <time>2022-04-11T14:01:07Z</time>
      </trkpt>
      <trkpt lat="49.95019" lon="2.18129">
        <ele>54.7</ele>
        <time>2022-04-11T14:01:08Z</time>
      </trkpt>
      <trkpt lat="49.95019" lon="2.18129">
        <ele>54.7</ele>
        <time>2022-04-11T14:01:09Z</time>
      </trkpt>
      <trkpt lat="49.95019" lon="2.18129">
        <ele>54.7</ele>
        <time>2022-04-11T14:01:10Z</time>
      </trkpt>
      <trkpt lat="49.95019" lon="2.18129">
        <ele>54.7</ele>
        <time>2022-04-11T14:01:11Z</time>
      </trkpt>
      <trkpt lat="49.95019" lon="2.18129">
        <ele>54.7</ele>
        <time>2022-04-11T14:01:12Z</time>
      </trkpt>
      <trkpt lat="49.95019" lon="2.18129">
        <ele>54.7</ele>
        <time>2022-04-11T14:01:13Z</time>
      </trkpt>
      <trkpt lat="49.95019" lon="2.18129">
        <ele>54.7</ele>
        <time>2022-04-11T14:01:14Z</time>
      </trkpt>
      <trkpt lat="49.95019" lon="2.18129">
        <ele>54.7</ele>
        <time>2022-04-11T14:01:15Z</time>
      </trkpt>
      <trkpt lat="49.95019" lon="2.18129">
        <ele>54.7</ele>
        <time>2022-04-11T14:01:16Z</time>
      </trkpt>
      <trkpt lat="49.95019" lon="2.18129">
        <ele>54.7</ele>
        <time>2022-04-11T14:01:17Z</time>
      </trkpt>
      <trkpt lat="49.95019" lon="2.18129">
        <ele>54.7</ele>
        <time>2022-04-11T14:01:18Z</time>
      </trkpt>
      <trkpt lat="49.95019" lon="2.18129">
        <ele>54.7</ele>
        <time>2022-04-11T14:01:19Z</time>
      </trkpt>
      <trkpt lat="49.95019" lon="2.18129">
        <ele>54.7</ele>
        <time>2022-04-11T14:01:20Z</time>
      </trkpt>
      <trkpt lat="49.95019" lon="2.18129">
        <ele>54.7</ele>
        <time>2022-04-11T14:01:21Z</time>
      </trkpt>
      <trkpt lat="49.95019" lon="2.18129">
        <ele>54.7</ele>
        <time>2022-04-11T14:01:22Z</time>
      </trkpt>
      <trkpt lat="49.95019" lon="2.18129">
        <ele>54.7</ele>
        <time>2022-04-11T14:01:23Z</time>
      </trkpt>
      <trkpt lat="49.95019" lon="2.18129">
        <ele>54.7</ele>
        <time>2022-04-11T14:01:24Z</time>
      </trkpt>
      <trkpt lat="49.95019" lon="2.18129">
        <ele>54.7</ele>
        <time>2022-04-11T14:01:25Z</time>
      </trkpt>
      <trkpt lat="49.95019" lon="2.18129">
        <ele>54.7</ele>
        <time>2022-04-11T14:01:26Z</time>
      </trkpt>
      <trkpt lat="49.95019" lon="2.18129">
        <ele>54.7</ele>
        <time>2022-04-11T14:01:27Z</time>
      </trkpt>
      <trkpt lat="49.95019" lon="2.18129">
        <ele>54.7</ele>
        <time>2022-04-11T14:01:28Z</time>
      </trkpt>
      <trkpt lat="49.95019" lon="2.18129">
        <ele>54.7</ele>
        <time>2022-04-11T14:01:29Z</time>
      </trkpt>
      <trkpt lat="49.95019" lon="2.18129">
        <ele>54.7</ele>
        <time>2022-04-11T14:01:30Z</time>
      </trkpt>
      <trkpt lat="49.95019" lon="2.18129">
        <ele>54.7</ele>
        <time>2022-04-11T14:01:31Z</time>
      </trkpt>
      <trkpt lat="49.95019" lon="2.18129">
        <ele>54.7</ele>
        <time>2022-04-11T14:01:32Z</time>
      </trkpt>
      <trkpt lat="49.95019" lon="2.18129">
        <ele>54.7</ele>
        <time>2022-04-11T14:01:33Z</time>
      </trkpt>
      <trkpt lat="49.95019" lon="2.18129">
        <ele>54.7</ele>
        <time>2022-04-11T14:01:34Z</time>
      </trkpt>
      <trkpt lat="49.95019" lon="2.18129">
        <ele>54.7</ele>
        <time>2022-04-11T14:01:35Z</time>
      </trkpt>
      <trkpt lat="49.95019" lon="2.18129">
        <ele>54.7</ele>
        <time>2022-04-11T14:01:36Z</time>
      </trkpt>
      <trkpt lat="49.95019" lon="2.18129">
        <ele>54.7</ele>
        <time>2022-04-11T14:01:37Z</time>
      </trkpt>
      <trkpt lat="49.95019" lon="2.18129">
        <ele>54.7</ele>
        <time>2022-04-11T14:01:38Z</time>
      </trkpt>
      <trkpt lat="49.95019" lon="2.18129">
        <ele>54.7</ele>
        <time>2022-04-11T14:01:39Z</time>
      </trkpt>
      <trkpt lat="49.95019" lon="2.18129">
        <ele>54.7</ele>
        <time>2022-04-11T14:01:40Z</time>
      </trkpt>
      <trkpt lat="49.95019" lon="2.18129">
        <ele>54.7</ele>
        <time>2022-04-11T14:01:41Z</time>
      </trkpt>
      <trkpt lat="49.95019" lon="2.18129">
        <ele>54.7</ele>
        <time>2022-04-11T14:01:42Z</time>
      </trkpt>
      <trkpt lat="49.95019" lon="2.18129">
        <ele>54.7</ele>
        <time>2022-04-11T14:01:43Z</time>
      </trkpt>
      <trkpt lat="49.95019" lon="2.18129">
        <ele>54.7</ele>
        <time>2022-04-11T14:01:44Z</time>
      </trkpt>
      <trkpt lat="49.95019" lon="2.18129">
        <ele>54.7</ele>
        <time>2022-04-11T14:01:45Z</time>
      </trkpt>
      <trkpt lat="49.95019" lon="2.18129">
        <ele>54.7</ele>
        <time>2022-04-11T14:01:46Z</time>
      </trkpt>
      <trkpt lat="49.95019" lon="2.18129">
        <ele>54.7</ele>
        <time>2022-04-11T14:01:47Z</time>
      </trkpt>
      <trkpt lat="49.95019" lon="2.18129">
        <ele>54.7</ele>
        <time>2022-04-11T14:01:48Z</time>
      </trkpt>
      <trkpt lat="49.95019" lon="2.18129">
        <ele>54.7</ele>
        <time>2022-04-11T14:01:49Z</time>
      </trkpt>
      <trkpt lat="49.95019" lon="2.18129">
        <ele>54.7</ele>
        <time>2022-04-11T14:01:50Z</time>
      </trkpt>
      <trkpt lat="49.95019" lon="2.18129">
        <ele>54.7</ele>
        <time>2022-04-11T14:01:51Z</time>
      </trkpt>
      <trkpt lat="49.95019" lon="2.18129">
        <ele>54.7</ele>
        <time>2022-04-11T14:01:52Z</time>
      </trkpt>
      <trkpt lat="49.95019" lon="2.18129">
        <ele>54.7</ele>
        <time>2022-04-11T14:01:53Z</time>
      </trkpt>
      <trkpt lat="49.95019" lon="2.18129">
        <ele>54.7</ele>
        <time>2022-04-11T14:01:54Z</time>
      </trkpt>
      <trkpt lat="49.95019" lon="2.18129">
        <ele>54.7</ele>
        <time>2022-04-11T14:01:55Z</time>
      </trkpt>
      <trkpt lat="49.95019" lon="2.18129">
        <ele>54.7</ele>
        <time>2022-04-11T14:01:56Z</time>
      </trkpt>
      <trkpt lat="49.95019" lon="2.18129">
        <ele>54.7</ele>
        <time>2022-04-11T14:01:57Z</time>
      </trkpt>
      <trkpt lat="49.95019" lon="2.18129">
        <ele>54.7</ele>
        <time>2022-04-11T14:01:58Z</time>
      </trkpt>
      <trkpt lat="49.95019" lon="2.18129">
        <ele>54.7</ele>
        <time>2022-04-11T14:01:59Z</time>
      </trkpt>
      <trkpt lat="49.95019" lon="2.18129">
        <ele>54.7</ele>
        <time>2022-04-11T14:02:00Z</time>
      </trkpt>
      <trkpt lat="49.95019" lon="2.18129">
        <ele>54.7</ele>
        <time>2022-04-11T14:02:01Z</time>
      </trkpt>
      <trkpt lat="49.95019" lon="2.18129">
        <ele>54.7</ele>
        <time>2022-04-11T14:02:02Z</time>
      </trkpt>
      <trkpt lat="49.95019" lon="2.18129">
        <ele>54.7</ele>
        <time>2022-04-11T14:02:03Z</time>
      </trkpt>
      <trkpt lat="49.95019" lon="2.18129">
        <ele>54.7</ele>
        <time>2022-04-11T14:02:04Z</time>
      </trkpt>
      <trkpt lat="49.95019" lon="2.18129">
        <ele>54.7</ele>
        <time>2022-04-11T14:02:05Z</time>
      </trkpt>
      <trkpt lat="49.95019" lon="2.18129">
        <ele>54.7</ele>
        <time>2022-04-11T14:02:06Z</time>
      </trkpt>
      <trkpt lat="49.95019" lon="2.18129">
        <ele>54.7</ele>
        <time>2022-04-11T14:02:07Z</time>
      </trkpt>
      <trkpt lat="49.95021" lon="2.18129">
        <ele>54.6</ele>
        <time>2022-04-11T14:02:08Z</time>
      </trkpt>
      <trkpt lat="49.95023" lon="2.18128">
        <ele>54.6</ele>
        <time>2022-04-11T14:02:09Z</time>
      </trkpt>
      <trkpt lat="49.95023" lon="2.18127">
        <ele>54.6</ele>
        <time>2022-04-11T14:02:10Z</time>
      </trkpt>
      <trkpt lat="49.95024" lon="2.18127">
        <ele>54.6</ele>
        <time>2022-04-11T14:02:11Z</time>
      </trkpt>
      <trkpt lat="49.95024" lon="2.18127">
        <ele>54.6</ele>
        <time>2022-04-11T14:02:12Z</time>
      </trkpt>
      <trkpt lat="49.95024" lon="2.18127">
        <ele>54.6</ele>
        <time>2022-04-11T14:02:13Z</time>
      </trkpt>
      <trkpt lat="49.95025" lon="2.18126">
        <ele>54.6</ele>
        <time>2022-04-11T14:02:14Z</time>
      </trkpt>
      <trkpt lat="49.95024" lon="2.18127">
        <ele>54.6</ele>
        <time>2022-04-11T14:02:15Z</time>
      </trkpt>
      <trkpt lat="49.95025" lon="2.18128">
        <ele>54.5</ele>
        <time>2022-04-11T14:02:16Z</time>
      </trkpt>
      <trkpt lat="49.95025" lon="2.18129">
        <ele>54.5</ele>
        <time>2022-04-11T14:02:17Z</time>
      </trkpt>
      <trkpt lat="49.95025" lon="2.18129">
        <ele>54.5</ele>
        <time>2022-04-11T14:02:18Z</time>
      </trkpt>
      <trkpt lat="49.95026" lon="2.18129">
        <ele>54.5</ele>
        <time>2022-04-11T14:02:19Z</time>
      </trkpt>
      <trkpt lat="49.95026" lon="2.18129">
        <ele>54.5</ele>
        <time>2022-04-11T14:02:20Z</time>
      </trkpt>
      <trkpt lat="49.95027" lon="2.18129">
        <ele>54.5</ele>
        <time>2022-04-11T14:02:21Z</time>
      </trkpt>
      <trkpt lat="49.95027" lon="2.18128">
        <ele>54.5</ele>
        <time>2022-04-11T14:02:23Z</time>
      </trkpt>
      <trkpt lat="49.95027" lon="2.18128">
        <ele>54.5</ele>
        <time>2022-04-11T14:02:24Z</time>
      </trkpt>
      <trkpt lat="49.95027" lon="2.18128">
        <ele>54.5</ele>
        <time>2022-04-11T14:02:25Z</time>
      </trkpt>
      <trkpt lat="49.95027" lon="2.18128">
        <ele>54.5</ele>
        <time>2022-04-11T14:02:26Z</time>
      </trkpt>
      <trkpt lat="49.95027" lon="2.18128">
        <ele>54.5</ele>
        <time>2022-04-11T14:02:27Z</time>
      </trkpt>
      <trkpt lat="49.95027" lon="2.18128">
        <ele>54.5</ele>
        <time>2022-04-11T14:02:28Z</time>
      </trkpt>
      <trkpt lat="49.95027" lon="2.18128">
        <ele>54.5</ele>
        <time>2022-04-11T14:02:29Z</time>
      </trkpt>
      <trkpt lat="49.95027" lon="2.18128">
        <ele>54.5</ele>
        <time>2022-04-11T14:02:30Z</time>
      </trkpt>
      <trkpt lat="49.95027" lon="2.18128">
        <ele>54.5</ele>
        <time>2022-04-11T14:02:31Z</time>
      </trkpt>
      <trkpt lat="49.95027" lon="2.18128">
        <ele>54.5</ele>
        <time>2022-04-11T14:02:32Z</time>
      </trkpt>
      <trkpt lat="49.95027" lon="2.18128">
        <ele>54.5</ele>
        <time>2022-04-11T14:02:33Z</time>
      </trkpt>
      <trkpt lat="49.95027" lon="2.18128">
        <ele>54.5</ele>
        <time>2022-04-11T14:02:34Z</time>
      </trkpt>
      <trkpt lat="49.95027" lon="2.18128">
        <ele>54.5</ele>
        <time>2022-04-11T14:02:35Z</time>
      </trkpt>
      <trkpt lat="49.95027" lon="2.18128">
        <ele>54.5</ele>
        <time>2022-04-11T14:02:36Z</time>
      </trkpt>
      <trkpt lat="49.95027" lon="2.18128">
        <ele>54.5</ele>
        <time>2022-04-11T14:02:37Z</time>
      </trkpt>
      <trkpt lat="49.95027" lon="2.18126">
        <ele>54.5</ele>
        <time>2022-04-11T14:02:39Z</time>
      </trkpt>
      <trkpt lat="49.95027" lon="2.18124">
        <ele>54.4</ele>
        <time>2022-04-11T14:02:40Z</time>
      </trkpt>
      <trkpt lat="49.95028" lon="2.18122">
        <ele>54.4</ele>
        <time>2022-04-11T14:02:41Z</time>
      </trkpt>
      <trkpt lat="49.95028" lon="2.18119">
        <ele>54.4</ele>
        <time>2022-04-11T14:02:42Z</time>
      </trkpt>
      <trkpt lat="49.9503" lon="2.18116">
        <ele>54.3</ele>
        <time>2022-04-11T14:02:43Z</time>
      </trkpt>
      <trkpt lat="49.95031" lon="2.18113">
        <ele>54.3</ele>
        <time>2022-04-11T14:02:44Z</time>
      </trkpt>
      <trkpt lat="49.9503" lon="2.18111">
        <ele>54.3</ele>
        <time>2022-04-11T14:02:45Z</time>
      </trkpt>
      <trkpt lat="49.9503" lon="2.18108">
        <ele>54.3</ele>
        <time>2022-04-11T14:02:46Z</time>
      </trkpt>
      <trkpt lat="49.9503" lon="2.18107">
        <ele>54.3</ele>
        <time>2022-04-11T14:02:47Z</time>
      </trkpt>
      <trkpt lat="49.9503" lon="2.18105">
        <ele>54.3</ele>
        <time>2022-04-11T14:02:48Z</time>
      </trkpt>
      <trkpt lat="49.95031" lon="2.18103">
        <ele>54.3</ele>
        <time>2022-04-11T14:02:49Z</time>
      </trkpt>
      <trkpt lat="49.95031" lon="2.18101">
        <ele>54.2</ele>
        <time>2022-04-11T14:02:50Z</time>
      </trkpt>
      <trkpt lat="49.9503" lon="2.18099">
        <ele>54.2</ele>
        <time>2022-04-11T14:02:52Z</time>
      </trkpt>
      <trkpt lat="49.95031" lon="2.18097">
        <ele>54.2</ele>
        <time>2022-04-11T14:02:53Z</time>
      </trkpt>
      <trkpt lat="49.95031" lon="2.18095">
        <ele>54.2</ele>
        <time>2022-04-11T14:02:54Z</time>
      </trkpt>
      <trkpt lat="49.95031" lon="2.18094">
        <ele>54.2</ele>
        <time>2022-04-11T14:02:55Z</time>
      </trkpt>
      <trkpt lat="49.95031" lon="2.18092">
        <ele>54.2</ele>
        <time>2022-04-11T14:02:56Z</time>
      </trkpt>
      <trkpt lat="49.95032" lon="2.1809">
        <ele>54.2</ele>
        <time>2022-04-11T14:02:57Z</time>
      </trkpt>
      <trkpt lat="49.95032" lon="2.18087">
        <ele>54.2</ele>
        <time>2022-04-11T14:02:58Z</time>
      </trkpt>
      <trkpt lat="49.95032" lon="2.18085">
        <ele>54.2</ele>
        <time>2022-04-11T14:02:59Z</time>
      </trkpt>
      <trkpt lat="49.95033" lon="2.18083">
        <ele>54.1</ele>
        <time>2022-04-11T14:03:00Z</time>
      </trkpt>
      <trkpt lat="49.95034" lon="2.18081">
        <ele>54.1</ele>
        <time>2022-04-11T14:03:01Z</time>
      </trkpt>
      <trkpt lat="49.95034" lon="2.18078">
        <ele>54.1</ele>
        <time>2022-04-11T14:03:02Z</time>
      </trkpt>
      <trkpt lat="49.95035" lon="2.18074">
        <ele>54.1</ele>
        <time>2022-04-11T14:03:04Z</time>
      </trkpt>
      <trkpt lat="49.95035" lon="2.18073">
        <ele>54.1</ele>
        <time>2022-04-11T14:03:05Z</time>
      </trkpt>
      <trkpt lat="49.95035" lon="2.1807">
        <ele>54.1</ele>
        <time>2022-04-11T14:03:06Z</time>
      </trkpt>
      <trkpt lat="49.95035" lon="2.18068">
        <ele>54.1</ele>
        <time>2022-04-11T14:03:07Z</time>
      </trkpt>
      <trkpt lat="49.95035" lon="2.18066">
        <ele>54.1</ele>
        <time>2022-04-11T14:03:08Z</time>
      </trkpt>
      <trkpt lat="49.95034" lon="2.18065">
        <ele>54.1</ele>
        <time>2022-04-11T14:03:09Z</time>
      </trkpt>
      <trkpt lat="49.95034" lon="2.18062">
        <ele>54</ele>
        <time>2022-04-11T14:03:10Z</time>
      </trkpt>
      <trkpt lat="49.95034" lon="2.1806">
        <ele>54</ele>
        <time>2022-04-11T14:03:11Z</time>
      </trkpt>
      <trkpt lat="49.95034" lon="2.18061">
        <ele>54</ele>
        <time>2022-04-11T14:03:13Z</time>
      </trkpt>
      <trkpt lat="49.95034" lon="2.18061">
        <ele>54</ele>
        <time>2022-04-11T14:03:14Z</time>
      </trkpt>
      <trkpt lat="49.95033" lon="2.18062">
        <ele>54</ele>
        <time>2022-04-11T14:03:15Z</time>
      </trkpt>
      <trkpt lat="49.95033" lon="2.18062">
        <ele>54</ele>
        <time>2022-04-11T14:03:16Z</time>
      </trkpt>
      <trkpt lat="49.95033" lon="2.18063">
        <ele>54</ele>
        <time>2022-04-11T14:03:17Z</time>
      </trkpt>
      <trkpt lat="49.95032" lon="2.18067">
        <ele>54</ele>
        <time>2022-04-11T14:03:18Z</time>
      </trkpt>
      <trkpt lat="49.95032" lon="2.18069">
        <ele>54</ele>
        <time>2022-04-11T14:03:19Z</time>
      </trkpt>
      <trkpt lat="49.95033" lon="2.1807">
        <ele>54</ele>
        <time>2022-04-11T14:03:20Z</time>
      </trkpt>
      <trkpt lat="49.95034" lon="2.18072">
        <ele>54</ele>
        <time>2022-04-11T14:03:22Z</time>
      </trkpt>
      <trkpt lat="49.95035" lon="2.18072">
        <ele>54</ele>
        <time>2022-04-11T14:03:23Z</time>
      </trkpt>
      <trkpt lat="49.95035" lon="2.18071">
        <ele>54</ele>
        <time>2022-04-11T14:03:24Z</time>
      </trkpt>
      <trkpt lat="49.95035" lon="2.18071">
        <ele>54</ele>
        <time>2022-04-11T14:03:25Z</time>
      </trkpt>
      <trkpt lat="49.95036" lon="2.18071">
        <ele>54</ele>
        <time>2022-04-11T14:03:26Z</time>
      </trkpt>
      <trkpt lat="49.95035" lon="2.18071">
        <ele>53.9</ele>
        <time>2022-04-11T14:03:27Z</time>
      </trkpt>
      <trkpt lat="49.95035" lon="2.18071">
        <ele>53.9</ele>
        <time>2022-04-11T14:03:28Z</time>
      </trkpt>
      <trkpt lat="49.95035" lon="2.18071">
        <ele>53.9</ele>
        <time>2022-04-11T14:03:29Z</time>
      </trkpt>
      <trkpt lat="49.95035" lon="2.18071">
        <ele>53.9</ele>
        <time>2022-04-11T14:03:30Z</time>
      </trkpt>
      <trkpt lat="49.95035" lon="2.18071">
        <ele>53.9</ele>
        <time>2022-04-11T14:03:31Z</time>
      </trkpt>
      <trkpt lat="49.95035" lon="2.1807">
        <ele>53.9</ele>
        <time>2022-04-11T14:03:32Z</time>
      </trkpt>
      <trkpt lat="49.95035" lon="2.1807">
        <ele>53.9</ele>
        <time>2022-04-11T14:03:33Z</time>
      </trkpt>
      <trkpt lat="49.95035" lon="2.1807">
        <ele>53.9</ele>
        <time>2022-04-11T14:03:34Z</time>
      </trkpt>
      <trkpt lat="49.95035" lon="2.1807">
        <ele>53.9</ele>
        <time>2022-04-11T14:03:35Z</time>
      </trkpt>
      <trkpt lat="49.95035" lon="2.1807">
        <ele>53.9</ele>
        <time>2022-04-11T14:03:36Z</time>
      </trkpt>
      <trkpt lat="49.95035" lon="2.1807">
        <ele>53.9</ele>
        <time>2022-04-11T14:03:37Z</time>
      </trkpt>
      <trkpt lat="49.95035" lon="2.1807">
        <ele>53.9</ele>
        <time>2022-04-11T14:03:38Z</time>
      </trkpt>
      <trkpt lat="49.95035" lon="2.1807">
        <ele>53.9</ele>
        <time>2022-04-11T14:03:39Z</time>
      </trkpt>
      <trkpt lat="49.95035" lon="2.18069">
        <ele>53.9</ele>
        <time>2022-04-11T14:03:40Z</time>
      </trkpt>
      <trkpt lat="49.95035" lon="2.1807">
        <ele>53.9</ele>
        <time>2022-04-11T14:03:41Z</time>
      </trkpt>
      <trkpt lat="49.95035" lon="2.1807">
        <ele>53.9</ele>
        <time>2022-04-11T14:03:42Z</time>
      </trkpt>
      <trkpt lat="49.95035" lon="2.1807">
        <ele>53.9</ele>
        <time>2022-04-11T14:03:43Z</time>
      </trkpt>
      <trkpt lat="49.95035" lon="2.1807">
        <ele>53.9</ele>
        <time>2022-04-11T14:03:44Z</time>
      </trkpt>
      <trkpt lat="49.95035" lon="2.1807">
        <ele>53.9</ele>
        <time>2022-04-11T14:03:45Z</time>
      </trkpt>
      <trkpt lat="49.95035" lon="2.1807">
        <ele>53.9</ele>
        <time>2022-04-11T14:03:46Z</time>
      </trkpt>
      <trkpt lat="49.95035" lon="2.1807">
        <ele>53.9</ele>
        <time>2022-04-11T14:03:47Z</time>
      </trkpt>
      <trkpt lat="49.95035" lon="2.1807">
        <ele>53.9</ele>
        <time>2022-04-11T14:03:48Z</time>
      </trkpt>
      <trkpt lat="49.95035" lon="2.1807">
        <ele>53.9</ele>
        <time>2022-04-11T14:03:49Z</time>
      </trkpt>
      <trkpt lat="49.95035" lon="2.1807">
        <ele>53.9</ele>
        <time>2022-04-11T14:03:50Z</time>
      </trkpt>
      <trkpt lat="49.95035" lon="2.1807">
        <ele>53.9</ele>
        <time>2022-04-11T14:03:51Z</time>
      </trkpt>
      <trkpt lat="49.95035" lon="2.1807">
        <ele>53.9</ele>
        <time>2022-04-11T14:03:52Z</time>
      </trkpt>
      <trkpt lat="49.95035" lon="2.1807">
        <ele>53.9</ele>
        <time>2022-04-11T14:03:53Z</time>
      </trkpt>
      <trkpt lat="49.95035" lon="2.1807">
        <ele>53.9</ele>
        <time>2022-04-11T14:03:54Z</time>
      </trkpt>
      <trkpt lat="49.95035" lon="2.1807">
        <ele>53.9</ele>
        <time>2022-04-11T14:03:55Z</time>
      </trkpt>
      <trkpt lat="49.95035" lon="2.1807">
        <ele>53.9</ele>
        <time>2022-04-11T14:03:56Z</time>
      </trkpt>
      <trkpt lat="49.95035" lon="2.1807">
        <ele>53.9</ele>
        <time>2022-04-11T14:03:57Z</time>
      </trkpt>
      <trkpt lat="49.95035" lon="2.1807">
        <ele>53.9</ele>
        <time>2022-04-11T14:03:58Z</time>
      </trkpt>
      <trkpt lat="49.95035" lon="2.1807">
        <ele>53.9</ele>
        <time>2022-04-11T14:03:59Z</time>
      </trkpt>
      <trkpt lat="49.95035" lon="2.1807">
        <ele>53.9</ele>
        <time>2022-04-11T14:04:00Z</time>
      </trkpt>
      <trkpt lat="49.95035" lon="2.1807">
        <ele>53.9</ele>
        <time>2022-04-11T14:04:01Z</time>
      </trkpt>
      <trkpt lat="49.95035" lon="2.1807">
        <ele>53.9</ele>
        <time>2022-04-11T14:04:02Z</time>
      </trkpt>
      <trkpt lat="49.95035" lon="2.1807">
        <ele>53.9</ele>
        <time>2022-04-11T14:04:03Z</time>
      </trkpt>
      <trkpt lat="49.95035" lon="2.1807">
        <ele>53.9</ele>
        <time>2022-04-11T14:04:04Z</time>
      </trkpt>
      <trkpt lat="49.95035" lon="2.1807">
        <ele>53.9</ele>
        <time>2022-04-11T14:04:05Z</time>
      </trkpt>
      <trkpt lat="49.95035" lon="2.1807">
        <ele>53.9</ele>
        <time>2022-04-11T14:04:06Z</time>
      </trkpt>
      <trkpt lat="49.95035" lon="2.1807">
        <ele>53.9</ele>
        <time>2022-04-11T14:04:07Z</time>
      </trkpt>
      <trkpt lat="49.95035" lon="2.1807">
        <ele>53.9</ele>
        <time>2022-04-11T14:04:08Z</time>
      </trkpt>
      <trkpt lat="49.95035" lon="2.1807">
        <ele>53.9</ele>
        <time>2022-04-11T14:04:09Z</time>
      </trkpt>
      <trkpt lat="49.95035" lon="2.1807">
        <ele>53.9</ele>
        <time>2022-04-11T14:04:10Z</time>
      </trkpt>
      <trkpt lat="49.95035" lon="2.1807">
        <ele>53.9</ele>
        <time>2022-04-11T14:04:11Z</time>
      </trkpt>
      <trkpt lat="49.95035" lon="2.1807">
        <ele>53.9</ele>
        <time>2022-04-11T14:04:12Z</time>
      </trkpt>
      <trkpt lat="49.95035" lon="2.1807">
        <ele>53.9</ele>
        <time>2022-04-11T14:04:13Z</time>
      </trkpt>
      <trkpt lat="49.95035" lon="2.1807">
        <ele>53.9</ele>
        <time>2022-04-11T14:04:14Z</time>
      </trkpt>
      <trkpt lat="49.95035" lon="2.1807">
        <ele>53.9</ele>
        <time>2022-04-11T14:04:15Z</time>
      </trkpt>
      <trkpt lat="49.95035" lon="2.1807">
        <ele>53.9</ele>
        <time>2022-04-11T14:04:16Z</time>
      </trkpt>
      <trkpt lat="49.95035" lon="2.1807">
        <ele>53.9</ele>
        <time>2022-04-11T14:04:17Z</time>
      </trkpt>
      <trkpt lat="49.95035" lon="2.1807">
        <ele>53.9</ele>
        <time>2022-04-11T14:04:18Z</time>
      </trkpt>
      <trkpt lat="49.95035" lon="2.1807">
        <ele>53.9</ele>
        <time>2022-04-11T14:04:19Z</time>
      </trkpt>
      <trkpt lat="49.95035" lon="2.1807">
        <ele>53.9</ele>
        <time>2022-04-11T14:04:20Z</time>
      </trkpt>
      <trkpt lat="49.95035" lon="2.1807">
        <ele>53.9</ele>
        <time>2022-04-11T14:04:21Z</time>
      </trkpt>
      <trkpt lat="49.95035" lon="2.1807">
        <ele>53.9</ele>
        <time>2022-04-11T14:04:22Z</time>
      </trkpt>
      <trkpt lat="49.95036" lon="2.1807">
        <ele>53.9</ele>
        <time>2022-04-11T14:04:23Z</time>
      </trkpt>
      <trkpt lat="49.95036" lon="2.18069">
        <ele>53.9</ele>
        <time>2022-04-11T14:04:24Z</time>
      </trkpt>
      <trkpt lat="49.95035" lon="2.18068">
        <ele>53.9</ele>
        <time>2022-04-11T14:04:25Z</time>
      </trkpt>
      <trkpt lat="49.95036" lon="2.18065">
        <ele>53.9</ele>
        <time>2022-04-11T14:04:26Z</time>
      </trkpt>
      <trkpt lat="49.95036" lon="2.18061">
        <ele>53.9</ele>
        <time>2022-04-11T14:04:28Z</time>
      </trkpt>
      <trkpt lat="49.95036" lon="2.18056">
        <ele>53.9</ele>
        <time>2022-04-11T14:04:29Z</time>
      </trkpt>
      <trkpt lat="49.95036" lon="2.18055">
        <ele>53.8</ele>
        <time>2022-04-11T14:04:30Z</time>
      </trkpt>
      <trkpt lat="49.95036" lon="2.1805">
        <ele>53.8</ele>
        <time>2022-04-11T14:04:31Z</time>
      </trkpt>
      <trkpt lat="49.95036" lon="2.18048">
        <ele>53.8</ele>
        <time>2022-04-11T14:04:32Z</time>
      </trkpt>
      <trkpt lat="49.95036" lon="2.18046">
        <ele>53.8</ele>
        <time>2022-04-11T14:04:33Z</time>
      </trkpt>
      <trkpt lat="49.95036" lon="2.18044">
        <ele>53.8</ele>
        <time>2022-04-11T14:04:34Z</time>
      </trkpt>
      <trkpt lat="49.95036" lon="2.18039">
        <ele>53.7</ele>
        <time>2022-04-11T14:04:35Z</time>
      </trkpt>
      <trkpt lat="49.95036" lon="2.18038">
        <ele>53.7</ele>
        <time>2022-04-11T14:04:37Z</time>
      </trkpt>
      <trkpt lat="49.95036" lon="2.18036">
        <ele>53.7</ele>
        <time>2022-04-11T14:04:38Z</time>
      </trkpt>
      <trkpt lat="49.95036" lon="2.18034">
        <ele>53.7</ele>
        <time>2022-04-11T14:04:39Z</time>
      </trkpt>
      <trkpt lat="49.95036" lon="2.18032">
        <ele>53.7</ele>
        <time>2022-04-11T14:04:40Z</time>
      </trkpt>
      <trkpt lat="49.95036" lon="2.1803">
        <ele>53.7</ele>
        <time>2022-04-11T14:04:41Z</time>
      </trkpt>
      <trkpt lat="49.95035" lon="2.18029">
        <ele>53.7</ele>
        <time>2022-04-11T14:04:42Z</time>
      </trkpt>
      <trkpt lat="49.95035" lon="2.18027">
        <ele>53.6</ele>
        <time>2022-04-11T14:04:44Z</time>
      </trkpt>
      <trkpt lat="49.95036" lon="2.18026">
        <ele>53.6</ele>
        <time>2022-04-11T14:04:45Z</time>
      </trkpt>
      <trkpt lat="49.95037" lon="2.18025">
        <ele>53.6</ele>
        <time>2022-04-11T14:04:46Z</time>
      </trkpt>
      <trkpt lat="49.95037" lon="2.18022">
        <ele>53.6</ele>
        <time>2022-04-11T14:04:48Z</time>
      </trkpt>
      <trkpt lat="49.95037" lon="2.18019">
        <ele>53.6</ele>
        <time>2022-04-11T14:04:49Z</time>
      </trkpt>
      <trkpt lat="49.95037" lon="2.18018">
        <ele>53.6</ele>
        <time>2022-04-11T14:04:50Z</time>
      </trkpt>
      <trkpt lat="49.95037" lon="2.18017">
        <ele>53.6</ele>
        <time>2022-04-11T14:04:51Z</time>
      </trkpt>
      <trkpt lat="49.95037" lon="2.18013">
        <ele>53.6</ele>
        <time>2022-04-11T14:04:52Z</time>
      </trkpt>
      <trkpt lat="49.95037" lon="2.18012">
        <ele>53.6</ele>
        <time>2022-04-11T14:04:53Z</time>
      </trkpt>
      <trkpt lat="49.95037" lon="2.18011">
        <ele>53.6</ele>
        <time>2022-04-11T14:04:54Z</time>
      </trkpt>
      <trkpt lat="49.95036" lon="2.18007">
        <ele>53.5</ele>
        <time>2022-04-11T14:04:55Z</time>
      </trkpt>
      <trkpt lat="49.95036" lon="2.18005">
        <ele>53.5</ele>
        <time>2022-04-11T14:04:56Z</time>
      </trkpt>
      <trkpt lat="49.95036" lon="2.18003">
        <ele>53.5</ele>
        <time>2022-04-11T14:04:57Z</time>
      </trkpt>
      <trkpt lat="49.95036" lon="2.18001">
        <ele>53.5</ele>
        <time>2022-04-11T14:04:58Z</time>
      </trkpt>
      <trkpt lat="49.95036" lon="2.17997">
        <ele>53.5</ele>
        <time>2022-04-11T14:05:00Z</time>
      </trkpt>
      <trkpt lat="49.95036" lon="2.17995">
        <ele>53.4</ele>
        <time>2022-04-11T14:05:01Z</time>
      </trkpt>
      <trkpt lat="49.95037" lon="2.17991">
        <ele>53.4</ele>
        <time>2022-04-11T14:05:02Z</time>
      </trkpt>
      <trkpt lat="49.95037" lon="2.1799">
        <ele>53.4</ele>
        <time>2022-04-11T14:05:03Z</time>
      </trkpt>
      <trkpt lat="49.95037" lon="2.17988">
        <ele>53.4</ele>
        <time>2022-04-11T14:05:04Z</time>
      </trkpt>
      <trkpt lat="49.95038" lon="2.17985">
        <ele>53.4</ele>
        <time>2022-04-11T14:05:05Z</time>
      </trkpt>
      <trkpt lat="49.95038" lon="2.17983">
        <ele>53.3</ele>
        <time>2022-04-11T14:05:06Z</time>
      </trkpt>
      <trkpt lat="49.95038" lon="2.17982">
        <ele>53.3</ele>
        <time>2022-04-11T14:05:07Z</time>
      </trkpt>
      <trkpt lat="49.95038" lon="2.1798">
        <ele>53.3</ele>
        <time>2022-04-11T14:05:08Z</time>
      </trkpt>
      <trkpt lat="49.95038" lon="2.17978">
        <ele>53.3</ele>
        <time>2022-04-11T14:05:10Z</time>
      </trkpt>
      <trkpt lat="49.95037" lon="2.17975">
        <ele>53.3</ele>
        <time>2022-04-11T14:05:11Z</time>
      </trkpt>
      <trkpt lat="49.95037" lon="2.17973">
        <ele>53.2</ele>
        <time>2022-04-11T14:05:12Z</time>
      </trkpt>
      <trkpt lat="49.95037" lon="2.1797">
        <ele>53.2</ele>
        <time>2022-04-11T14:05:13Z</time>
      </trkpt>
      <trkpt lat="49.95038" lon="2.17968">
        <ele>53.2</ele>
        <time>2022-04-11T14:05:14Z</time>
      </trkpt>
      <trkpt lat="49.95038" lon="2.17966">
        <ele>53.2</ele>
        <time>2022-04-11T14:05:15Z</time>
      </trkpt>
      <trkpt lat="49.95038" lon="2.17964">
        <ele>53.2</ele>
        <time>2022-04-11T14:05:16Z</time>
      </trkpt>
      <trkpt lat="49.95038" lon="2.17962">
        <ele>53.1</ele>
        <time>2022-04-11T14:05:17Z</time>
      </trkpt>
      <trkpt lat="49.95038" lon="2.17961">
        <ele>53.1</ele>
        <time>2022-04-11T14:05:18Z</time>
      </trkpt>
      <trkpt lat="49.95038" lon="2.17958">
        <ele>53.1</ele>
        <time>2022-04-11T14:05:19Z</time>
      </trkpt>
      <trkpt lat="49.95038" lon="2.17956">
        <ele>53.1</ele>
        <time>2022-04-11T14:05:20Z</time>
      </trkpt>
      <trkpt lat="49.95038" lon="2.17954">
        <ele>53.1</ele>
        <time>2022-04-11T14:05:21Z</time>
      </trkpt>
      <trkpt lat="49.95038" lon="2.17952">
        <ele>53.1</ele>
        <time>2022-04-11T14:05:23Z</time>
      </trkpt>
      <trkpt lat="49.95037" lon="2.1795">
        <ele>53</ele>
        <time>2022-04-11T14:05:24Z</time>
      </trkpt>
      <trkpt lat="49.95037" lon="2.17948">
        <ele>53</ele>
        <time>2022-04-11T14:05:25Z</time>
      </trkpt>
      <trkpt lat="49.95037" lon="2.17945">
        <ele>53</ele>
        <time>2022-04-11T14:05:27Z</time>
      </trkpt>
      <trkpt lat="49.95037" lon="2.17943">
        <ele>53</ele>
        <time>2022-04-11T14:05:28Z</time>
      </trkpt>
      <trkpt lat="49.95037" lon="2.17941">
        <ele>53</ele>
        <time>2022-04-11T14:05:29Z</time>
      </trkpt>
      <trkpt lat="49.95037" lon="2.1794">
        <ele>53</ele>
        <time>2022-04-11T14:05:30Z</time>
      </trkpt>
      <trkpt lat="49.95037" lon="2.17938">
        <ele>52.9</ele>
        <time>2022-04-11T14:05:31Z</time>
      </trkpt>
      <trkpt lat="49.95037" lon="2.17936">
        <ele>52.9</ele>
        <time>2022-04-11T14:05:32Z</time>
      </trkpt>
      <trkpt lat="49.95037" lon="2.17934">
        <ele>52.9</ele>
        <time>2022-04-11T14:05:33Z</time>
      </trkpt>
      <trkpt lat="49.95036" lon="2.17933">
        <ele>52.9</ele>
        <time>2022-04-11T14:05:34Z</time>
      </trkpt>
      <trkpt lat="49.95035" lon="2.1793">
        <ele>52.9</ele>
        <time>2022-04-11T14:05:35Z</time>
      </trkpt>
      <trkpt lat="49.95035" lon="2.17929">
        <ele>52.9</ele>
        <time>2022-04-11T14:05:36Z</time>
      </trkpt>
      <trkpt lat="49.95035" lon="2.17928">
        <ele>52.8</ele>
        <time>2022-04-11T14:05:37Z</time>
      </trkpt>
      <trkpt lat="49.95034" lon="2.17925">
        <ele>52.8</ele>
        <time>2022-04-11T14:05:38Z</time>
      </trkpt>
      <trkpt lat="49.95034" lon="2.17923">
        <ele>52.8</ele>
        <time>2022-04-11T14:05:39Z</time>
      </trkpt>
      <trkpt lat="49.95034" lon="2.1792">
        <ele>52.8</ele>
        <time>2022-04-11T14:05:41Z</time>
      </trkpt>
      <trkpt lat="49.95033" lon="2.17918">
        <ele>52.7</ele>
        <time>2022-04-11T14:05:42Z</time>
      </trkpt>
      <trkpt lat="49.95033" lon="2.17915">
        <ele>52.7</ele>
        <time>2022-04-11T14:05:43Z</time>
      </trkpt>
      <trkpt lat="49.95033" lon="2.17913">
        <ele>52.7</ele>
        <time>2022-04-11T14:05:44Z</time>
      </trkpt>
      <trkpt lat="49.95033" lon="2.1791">
        <ele>52.7</ele>
        <time>2022-04-11T14:05:45Z</time>
      </trkpt>
      <trkpt lat="49.95032" lon="2.17908">
        <ele>52.6</ele>
        <time>2022-04-11T14:05:46Z</time>
      </trkpt>
      <trkpt lat="49.95032" lon="2.17906">
        <ele>52.6</ele>
        <time>2022-04-11T14:05:47Z</time>
      </trkpt>
      <trkpt lat="49.95032" lon="2.17904">
        <ele>52.6</ele>
        <time>2022-04-11T14:05:49Z</time>
      </trkpt>
      <trkpt lat="49.95032" lon="2.17902">
        <ele>52.6</ele>
        <time>2022-04-11T14:05:50Z</time>
      </trkpt>
      <trkpt lat="49.95032" lon="2.179">
        <ele>52.5</ele>
        <time>2022-04-11T14:05:51Z</time>
      </trkpt>
      <trkpt lat="49.95032" lon="2.17898">
        <ele>52.5</ele>
        <time>2022-04-11T14:05:52Z</time>
      </trkpt>
      <trkpt lat="49.95032" lon="2.17896">
        <ele>52.5</ele>
        <time>2022-04-11T14:05:53Z</time>
      </trkpt>
      <trkpt lat="49.95032" lon="2.17894">
        <ele>52.5</ele>
        <time>2022-04-11T14:05:54Z</time>
      </trkpt>
      <trkpt lat="49.95031" lon="2.1789">
        <ele>52.4</ele>
        <time>2022-04-11T14:05:55Z</time>
      </trkpt>
      <trkpt lat="49.95031" lon="2.17888">
        <ele>52.4</ele>
        <time>2022-04-11T14:05:57Z</time>
      </trkpt>
      <trkpt lat="49.95031" lon="2.17887">
        <ele>52.4</ele>
        <time>2022-04-11T14:05:58Z</time>
      </trkpt>
      <trkpt lat="49.95031" lon="2.17885">
        <ele>52.4</ele>
        <time>2022-04-11T14:05:59Z</time>
      </trkpt>
      <trkpt lat="49.95031" lon="2.17883">
        <ele>52.4</ele>
        <time>2022-04-11T14:06:00Z</time>
      </trkpt>
      <trkpt lat="49.9503" lon="2.1788">
        <ele>52.4</ele>
        <time>2022-04-11T14:06:01Z</time>
      </trkpt>
      <trkpt lat="49.9503" lon="2.17879">
        <ele>52.3</ele>
        <time>2022-04-11T14:06:02Z</time>
      </trkpt>
      <trkpt lat="49.9503" lon="2.17877">
        <ele>52.3</ele>
        <time>2022-04-11T14:06:03Z</time>
      </trkpt>
      <trkpt lat="49.9503" lon="2.17875">
        <ele>52.3</ele>
        <time>2022-04-11T14:06:05Z</time>
      </trkpt>
      <trkpt lat="49.95029" lon="2.17873">
        <ele>52.3</ele>
        <time>2022-04-11T14:06:06Z</time>
      </trkpt>
      <trkpt lat="49.95029" lon="2.17871">
        <ele>52.3</ele>
        <time>2022-04-11T14:06:07Z</time>
      </trkpt>
      <trkpt lat="49.95029" lon="2.17869">
        <ele>52.3</ele>
        <time>2022-04-11T14:06:08Z</time>
      </trkpt>
      <trkpt lat="49.95029" lon="2.17866">
        <ele>52.2</ele>
        <time>2022-04-11T14:06:09Z</time>
      </trkpt>
      <trkpt lat="49.95029" lon="2.17864">
        <ele>52.2</ele>
        <time>2022-04-11T14:06:11Z</time>
      </trkpt>
      <trkpt lat="49.95029" lon="2.17862">
        <ele>52.2</ele>
        <time>2022-04-11T14:06:12Z</time>
      </trkpt>
      <trkpt lat="49.95029" lon="2.17859">
        <ele>52.2</ele>
        <time>2022-04-11T14:06:13Z</time>
      </trkpt>
      <trkpt lat="49.95028" lon="2.17858">
        <ele>52.2</ele>
        <time>2022-04-11T14:06:14Z</time>
      </trkpt>
      <trkpt lat="49.95028" lon="2.17855">
        <ele>52.2</ele>
        <time>2022-04-11T14:06:15Z</time>
      </trkpt>
      <trkpt lat="49.95028" lon="2.17853">
        <ele>52.1</ele>
        <time>2022-04-11T14:06:16Z</time>
      </trkpt>
      <trkpt lat="49.95028" lon="2.17851">
        <ele>52.1</ele>
        <time>2022-04-11T14:06:17Z</time>
      </trkpt>
      <trkpt lat="49.95027" lon="2.17847">
        <ele>52.1</ele>
        <time>2022-04-11T14:06:19Z</time>
      </trkpt>
      <trkpt lat="49.95027" lon="2.17846">
        <ele>52.1</ele>
        <time>2022-04-11T14:06:20Z</time>
      </trkpt>
      <trkpt lat="49.95027" lon="2.17845">
        <ele>52.1</ele>
        <time>2022-04-11T14:06:21Z</time>
      </trkpt>
      <trkpt lat="49.95026" lon="2.17843">
        <ele>52.1</ele>
        <time>2022-04-11T14:06:22Z</time>
      </trkpt>
      <trkpt lat="49.95026" lon="2.17842">
        <ele>52.1</ele>
        <time>2022-04-11T14:06:23Z</time>
      </trkpt>
      <trkpt lat="49.95026" lon="2.1784">
        <ele>52</ele>
        <time>2022-04-11T14:06:24Z</time>
      </trkpt>
      <trkpt lat="49.95025" lon="2.17838">
        <ele>52</ele>
        <time>2022-04-11T14:06:25Z</time>
      </trkpt>
      <trkpt lat="49.95025" lon="2.17836">
        <ele>52</ele>
        <time>2022-04-11T14:06:26Z</time>
      </trkpt>
      <trkpt lat="49.95024" lon="2.17834">
        <ele>52</ele>
        <time>2022-04-11T14:06:27Z</time>
      </trkpt>
      <trkpt lat="49.95024" lon="2.17833">
        <ele>52</ele>
        <time>2022-04-11T14:06:28Z</time>
      </trkpt>
      <trkpt lat="49.95023" lon="2.1783">
        <ele>51.9</ele>
        <time>2022-04-11T14:06:30Z</time>
      </trkpt>
      <trkpt lat="49.95022" lon="2.17828">
        <ele>51.9</ele>
        <time>2022-04-11T14:06:32Z</time>
      </trkpt>
      <trkpt lat="49.95022" lon="2.17827">
        <ele>51.9</ele>
        <time>2022-04-11T14:06:33Z</time>
      </trkpt>
      <trkpt lat="49.95021" lon="2.17824">
        <ele>51.9</ele>
        <time>2022-04-11T14:06:34Z</time>
      </trkpt>
      <trkpt lat="49.9502" lon="2.17822">
        <ele>51.8</ele>
        <time>2022-04-11T14:06:35Z</time>
      </trkpt>
      <trkpt lat="49.9502" lon="2.17821">
        <ele>51.8</ele>
        <time>2022-04-11T14:06:36Z</time>
      </trkpt>
      <trkpt lat="49.95019" lon="2.17817">
        <ele>51.8</ele>
        <time>2022-04-11T14:06:37Z</time>
      </trkpt>
      <trkpt lat="49.95018" lon="2.17816">
        <ele>51.8</ele>
        <time>2022-04-11T14:06:39Z</time>
      </trkpt>
      <trkpt lat="49.95018" lon="2.17814">
        <ele>51.7</ele>
        <time>2022-04-11T14:06:40Z</time>
      </trkpt>
      <trkpt lat="49.95018" lon="2.17812">
        <ele>51.7</ele>
        <time>2022-04-11T14:06:41Z</time>
      </trkpt>
      <trkpt lat="49.95017" lon="2.17811">
        <ele>51.7</ele>
        <time>2022-04-11T14:06:42Z</time>
      </trkpt>
      <trkpt lat="49.95017" lon="2.17809">
        <ele>51.7</ele>
        <time>2022-04-11T14:06:43Z</time>
      </trkpt>
      <trkpt lat="49.95016" lon="2.17808">
        <ele>51.6</ele>
        <time>2022-04-11T14:06:44Z</time>
      </trkpt>
      <trkpt lat="49.95016" lon="2.17806">
        <ele>51.6</ele>
        <time>2022-04-11T14:06:45Z</time>
      </trkpt>
      <trkpt lat="49.95015" lon="2.17804">
        <ele>51.6</ele>
        <time>2022-04-11T14:06:46Z</time>
      </trkpt>
      <trkpt lat="49.95015" lon="2.17802">
        <ele>51.5</ele>
        <time>2022-04-11T14:06:47Z</time>
      </trkpt>
      <trkpt lat="49.95014" lon="2.17798">
        <ele>51.5</ele>
        <time>2022-04-11T14:06:48Z</time>
      </trkpt>
      <trkpt lat="49.95014" lon="2.17797">
        <ele>51.5</ele>
        <time>2022-04-11T14:06:50Z</time>
      </trkpt>
      <trkpt lat="49.95014" lon="2.17795">
        <ele>51.4</ele>
        <time>2022-04-11T14:06:51Z</time>
      </trkpt>
      <trkpt lat="49.95013" lon="2.17793">
        <ele>51.4</ele>
        <time>2022-04-11T14:06:52Z</time>
      </trkpt>
      <trkpt lat="49.95013" lon="2.17792">
        <ele>51.4</ele>
        <time>2022-04-11T14:06:53Z</time>
      </trkpt>
      <trkpt lat="49.95012" lon="2.17789">
        <ele>51.3</ele>
        <time>2022-04-11T14:06:54Z</time>
      </trkpt>
      <trkpt lat="49.95012" lon="2.17788">
        <ele>51.3</ele>
        <time>2022-04-11T14:06:55Z</time>
      </trkpt>
      <trkpt lat="49.95012" lon="2.17787">
        <ele>51.3</ele>
        <time>2022-04-11T14:06:56Z</time>
      </trkpt>
      <trkpt lat="49.95011" lon="2.17784">
        <ele>51.3</ele>
        <time>2022-04-11T14:06:57Z</time>
      </trkpt>
      <trkpt lat="49.9501" lon="2.17782">
        <ele>51.2</ele>
        <time>2022-04-11T14:06:58Z</time>
      </trkpt>
      <trkpt lat="49.95009" lon="2.17781">
        <ele>51.2</ele>
        <time>2022-04-11T14:06:59Z</time>
      </trkpt>
      <trkpt lat="49.95009" lon="2.17779">
        <ele>51.2</ele>
        <time>2022-04-11T14:07:00Z</time>
      </trkpt>
      <trkpt lat="49.95009" lon="2.17778">
        <ele>51.2</ele>
        <time>2022-04-11T14:07:01Z</time>
      </trkpt>
      <trkpt lat="49.95008" lon="2.17776">
        <ele>51.1</ele>
        <time>2022-04-11T14:07:02Z</time>
      </trkpt>
      <trkpt lat="49.95007" lon="2.17774">
        <ele>51.1</ele>
        <time>2022-04-11T14:07:03Z</time>
      </trkpt>
      <trkpt lat="49.95007" lon="2.17772">
        <ele>51.1</ele>
        <time>2022-04-11T14:07:05Z</time>
      </trkpt>
      <trkpt lat="49.95006" lon="2.17771">
        <ele>51.1</ele>
        <time>2022-04-11T14:07:06Z</time>
      </trkpt>
      <trkpt lat="49.95006" lon="2.17769">
        <ele>51</ele>
        <time>2022-04-11T14:07:07Z</time>
      </trkpt>
      <trkpt lat="49.95005" lon="2.17767">
        <ele>51</ele>
        <time>2022-04-11T14:07:08Z</time>
      </trkpt>
      <trkpt lat="49.95004" lon="2.17764">
        <ele>51</ele>
        <time>2022-04-11T14:07:09Z</time>
      </trkpt>
      <trkpt lat="49.95004" lon="2.17763">
        <ele>51</ele>
        <time>2022-04-11T14:07:10Z</time>
      </trkpt>
      <trkpt lat="49.95004" lon="2.17762">
        <ele>50.9</ele>
        <time>2022-04-11T14:07:11Z</time>
      </trkpt>
      <trkpt lat="49.95003" lon="2.17761">
        <ele>50.9</ele>
        <time>2022-04-11T14:07:12Z</time>
      </trkpt>
      <trkpt lat="49.95003" lon="2.17759">
        <ele>50.9</ele>
        <time>2022-04-11T14:07:13Z</time>
      </trkpt>
      <trkpt lat="49.95002" lon="2.17757">
        <ele>50.9</ele>
        <time>2022-04-11T14:07:14Z</time>
      </trkpt>
      <trkpt lat="49.95001" lon="2.17755">
        <ele>50.8</ele>
        <time>2022-04-11T14:07:15Z</time>
      </trkpt>
      <trkpt lat="49.95001" lon="2.17753">
        <ele>50.8</ele>
        <time>2022-04-11T14:07:16Z</time>
      </trkpt>
      <trkpt lat="49.95" lon="2.17751">
        <ele>50.8</ele>
        <time>2022-04-11T14:07:17Z</time>
      </trkpt>
      <trkpt lat="49.95" lon="2.17749">
        <ele>50.8</ele>
        <time>2022-04-11T14:07:18Z</time>
      </trkpt>
      <trkpt lat="49.94999" lon="2.17748">
        <ele>50.7</ele>
        <time>2022-04-11T14:07:19Z</time>
      </trkpt>
      <trkpt lat="49.94999" lon="2.17746">
        <ele>50.7</ele>
        <time>2022-04-11T14:07:20Z</time>
      </trkpt>
      <trkpt lat="49.94998" lon="2.17744">
        <ele>50.7</ele>
        <time>2022-04-11T14:07:21Z</time>
      </trkpt>
      <trkpt lat="49.94997" lon="2.17742">
        <ele>50.7</ele>
        <time>2022-04-11T14:07:22Z</time>
      </trkpt>
      <trkpt lat="49.94997" lon="2.1774">
        <ele>50.6</ele>
        <time>2022-04-11T14:07:23Z</time>
      </trkpt>
      <trkpt lat="49.94996" lon="2.17738">
        <ele>50.6</ele>
        <time>2022-04-11T14:07:25Z</time>
      </trkpt>
      <trkpt lat="49.94995" lon="2.17736">
        <ele>50.6</ele>
        <time>2022-04-11T14:07:26Z</time>
      </trkpt>
      <trkpt lat="49.94995" lon="2.17734">
        <ele>50.5</ele>
        <time>2022-04-11T14:07:27Z</time>
      </trkpt>
      <trkpt lat="49.94994" lon="2.17732">
        <ele>50.5</ele>
        <time>2022-04-11T14:07:28Z</time>
      </trkpt>
      <trkpt lat="49.94993" lon="2.17731">
        <ele>50.5</ele>
        <time>2022-04-11T14:07:29Z</time>
      </trkpt>
      <trkpt lat="49.94992" lon="2.17729">
        <ele>50.4</ele>
        <time>2022-04-11T14:07:30Z</time>
      </trkpt>
      <trkpt lat="49.94992" lon="2.17727">
        <ele>50.4</ele>
        <time>2022-04-11T14:07:31Z</time>
      </trkpt>
      <trkpt lat="49.94991" lon="2.17725">
        <ele>50.4</ele>
        <time>2022-04-11T14:07:32Z</time>
      </trkpt>
      <trkpt lat="49.9499" lon="2.17723">
        <ele>50.4</ele>
        <time>2022-04-11T14:07:33Z</time>
      </trkpt>
      <trkpt lat="49.94989" lon="2.17721">
        <ele>50.3</ele>
        <time>2022-04-11T14:07:34Z</time>
      </trkpt>
      <trkpt lat="49.94988" lon="2.17719">
        <ele>50.3</ele>
        <time>2022-04-11T14:07:35Z</time>
      </trkpt>
      <trkpt lat="49.94988" lon="2.17718">
        <ele>50.3</ele>
        <time>2022-04-11T14:07:36Z</time>
      </trkpt>
      <trkpt lat="49.94987" lon="2.17717">
        <ele>50.2</ele>
        <time>2022-04-11T14:07:37Z</time>
      </trkpt>
      <trkpt lat="49.94986" lon="2.17715">
        <ele>50.2</ele>
        <time>2022-04-11T14:07:38Z</time>
      </trkpt>
      <trkpt lat="49.94986" lon="2.17713">
        <ele>50.2</ele>
        <time>2022-04-11T14:07:39Z</time>
      </trkpt>
      <trkpt lat="49.94985" lon="2.17712">
        <ele>50.1</ele>
        <time>2022-04-11T14:07:41Z</time>
      </trkpt>
      <trkpt lat="49.94985" lon="2.1771">
        <ele>50.1</ele>
        <time>2022-04-11T14:07:42Z</time>
      </trkpt>
      <trkpt lat="49.94984" lon="2.17709">
        <ele>50.1</ele>
        <time>2022-04-11T14:07:43Z</time>
      </trkpt>
      <trkpt lat="49.94983" lon="2.17707">
        <ele>50</ele>
        <time>2022-04-11T14:07:44Z</time>
      </trkpt>
      <trkpt lat="49.94983" lon="2.17705">
        <ele>50</ele>
        <time>2022-04-11T14:07:45Z</time>
      </trkpt>
      <trkpt lat="49.94982" lon="2.17703">
        <ele>50</ele>
        <time>2022-04-11T14:07:46Z</time>
      </trkpt>
      <trkpt lat="49.94982" lon="2.17702">
        <ele>49.9</ele>
        <time>2022-04-11T14:07:47Z</time>
      </trkpt>
      <trkpt lat="49.94982" lon="2.17701">
        <ele>49.9</ele>
        <time>2022-04-11T14:07:48Z</time>
      </trkpt>
      <trkpt lat="49.94981" lon="2.17699">
        <ele>49.9</ele>
        <time>2022-04-11T14:07:49Z</time>
      </trkpt>
      <trkpt lat="49.94981" lon="2.17698">
        <ele>49.8</ele>
        <time>2022-04-11T14:07:50Z</time>
      </trkpt>
      <trkpt lat="49.9498" lon="2.17696">
        <ele>49.8</ele>
        <time>2022-04-11T14:07:51Z</time>
      </trkpt>
      <trkpt lat="49.94979" lon="2.17694">
        <ele>49.7</ele>
        <time>2022-04-11T14:07:52Z</time>
      </trkpt>
      <trkpt lat="49.94978" lon="2.17692">
        <ele>49.7</ele>
        <time>2022-04-11T14:07:53Z</time>
      </trkpt>
      <trkpt lat="49.94978" lon="2.1769">
        <ele>49.6</ele>
        <time>2022-04-11T14:07:54Z</time>
      </trkpt>
      <trkpt lat="49.94976" lon="2.17687">
        <ele>49.6</ele>
        <time>2022-04-11T14:07:56Z</time>
      </trkpt>
      <trkpt lat="49.94976" lon="2.17686">
        <ele>49.5</ele>
        <time>2022-04-11T14:07:57Z</time>
      </trkpt>
      <trkpt lat="49.94976" lon="2.17685">
        <ele>49.5</ele>
        <time>2022-04-11T14:07:58Z</time>
      </trkpt>
      <trkpt lat="49.94975" lon="2.17683">
        <ele>49.5</ele>
        <time>2022-04-11T14:07:59Z</time>
      </trkpt>
      <trkpt lat="49.94975" lon="2.17682">
        <ele>49.4</ele>
        <time>2022-04-11T14:08:00Z</time>
      </trkpt>
      <trkpt lat="49.94974" lon="2.1768">
        <ele>49.4</ele>
        <time>2022-04-11T14:08:01Z</time>
      </trkpt>
      <trkpt lat="49.94972" lon="2.17677">
        <ele>49.3</ele>
        <time>2022-04-11T14:08:02Z</time>
      </trkpt>
      <trkpt lat="49.94972" lon="2.17676">
        <ele>49.3</ele>
        <time>2022-04-11T14:08:03Z</time>
      </trkpt>
      <trkpt lat="49.94971" lon="2.17675">
        <ele>49.3</ele>
        <time>2022-04-11T14:08:04Z</time>
      </trkpt>
      <trkpt lat="49.9497" lon="2.17673">
        <ele>49.2</ele>
        <time>2022-04-11T14:08:05Z</time>
      </trkpt>
      <trkpt lat="49.94969" lon="2.17671">
        <ele>49.2</ele>
        <time>2022-04-11T14:08:06Z</time>
      </trkpt>
      <trkpt lat="49.94968" lon="2.1767">
        <ele>49.1</ele>
        <time>2022-04-11T14:08:07Z</time>
      </trkpt>
      <trkpt lat="49.94967" lon="2.17668">
        <ele>49.1</ele>
        <time>2022-04-11T14:08:08Z</time>
      </trkpt>
      <trkpt lat="49.94966" lon="2.17667">
        <ele>49</ele>
        <time>2022-04-11T14:08:09Z</time>
      </trkpt>
      <trkpt lat="49.94965" lon="2.17665">
        <ele>48.9</ele>
        <time>2022-04-11T14:08:11Z</time>
      </trkpt>
      <trkpt lat="49.94964" lon="2.17664">
        <ele>48.9</ele>
        <time>2022-04-11T14:08:12Z</time>
      </trkpt>
      <trkpt lat="49.94964" lon="2.17663">
        <ele>48.9</ele>
        <time>2022-04-11T14:08:13Z</time>
      </trkpt>
      <trkpt lat="49.94963" lon="2.17662">
        <ele>48.8</ele>
        <time>2022-04-11T14:08:14Z</time>
      </trkpt>
      <trkpt lat="49.94962" lon="2.17661">
        <ele>48.8</ele>
        <time>2022-04-11T14:08:15Z</time>
      </trkpt>
      <trkpt lat="49.94961" lon="2.17659">
        <ele>48.7</ele>
        <time>2022-04-11T14:08:16Z</time>
      </trkpt>
      <trkpt lat="49.94961" lon="2.17658">
        <ele>48.7</ele>
        <time>2022-04-11T14:08:17Z</time>
      </trkpt>
      <trkpt lat="49.94959" lon="2.17656">
        <ele>48.6</ele>
        <time>2022-04-11T14:08:18Z</time>
      </trkpt>
      <trkpt lat="49.94959" lon="2.17655">
        <ele>48.5</ele>
        <time>2022-04-11T14:08:19Z</time>
      </trkpt>
      <trkpt lat="49.94958" lon="2.17654">
        <ele>48.5</ele>
        <time>2022-04-11T14:08:20Z</time>
      </trkpt>
      <trkpt lat="49.94957" lon="2.17653">
        <ele>48.5</ele>
        <time>2022-04-11T14:08:21Z</time>
      </trkpt>
      <trkpt lat="49.94956" lon="2.17651">
        <ele>48.4</ele>
        <time>2022-04-11T14:08:22Z</time>
      </trkpt>
      <trkpt lat="49.94954" lon="2.17648">
        <ele>48.3</ele>
        <time>2022-04-11T14:08:23Z</time>
      </trkpt>
      <trkpt lat="49.94954" lon="2.17646">
        <ele>48.2</ele>
        <time>2022-04-11T14:08:25Z</time>
      </trkpt>
      <trkpt lat="49.94953" lon="2.17645">
        <ele>48.2</ele>
        <time>2022-04-11T14:08:26Z</time>
      </trkpt>
      <trkpt lat="49.94953" lon="2.17644">
        <ele>48.1</ele>
        <time>2022-04-11T14:08:27Z</time>
      </trkpt>
      <trkpt lat="49.94952" lon="2.17642">
        <ele>48.1</ele>
        <time>2022-04-11T14:08:28Z</time>
      </trkpt>
      <trkpt lat="49.94951" lon="2.1764">
        <ele>48</ele>
        <time>2022-04-11T14:08:29Z</time>
      </trkpt>
      <trkpt lat="49.9495" lon="2.17639">
        <ele>47.9</ele>
        <time>2022-04-11T14:08:30Z</time>
      </trkpt>
      <trkpt lat="49.9495" lon="2.17638">
        <ele>47.9</ele>
        <time>2022-04-11T14:08:31Z</time>
      </trkpt>
      <trkpt lat="49.94949" lon="2.17636">
        <ele>47.9</ele>
        <time>2022-04-11T14:08:32Z</time>
      </trkpt>
      <trkpt lat="49.94949" lon="2.17635">
        <ele>47.8</ele>
        <time>2022-04-11T14:08:33Z</time>
      </trkpt>
      <trkpt lat="49.94948" lon="2.17633">
        <ele>47.8</ele>
        <time>2022-04-11T14:08:34Z</time>
      </trkpt>
      <trkpt lat="49.94947" lon="2.1763">
        <ele>47.7</ele>
        <time>2022-04-11T14:08:35Z</time>
      </trkpt>
      <trkpt lat="49.94947" lon="2.17629">
        <ele>47.6</ele>
        <time>2022-04-11T14:08:36Z</time>
      </trkpt>
      <trkpt lat="49.94947" lon="2.17628">
        <ele>47.6</ele>
        <time>2022-04-11T14:08:37Z</time>
      </trkpt>
      <trkpt lat="49.94946" lon="2.17625">
        <ele>47.5</ele>
        <time>2022-04-11T14:08:38Z</time>
      </trkpt>
      <trkpt lat="49.94945" lon="2.17623">
        <ele>47.4</ele>
        <time>2022-04-11T14:08:39Z</time>
      </trkpt>
      <trkpt lat="49.94945" lon="2.17622">
        <ele>47.4</ele>
        <time>2022-04-11T14:08:41Z</time>
      </trkpt>
      <trkpt lat="49.94945" lon="2.17621">
        <ele>47.3</ele>
        <time>2022-04-11T14:08:42Z</time>
      </trkpt>
      <trkpt lat="49.94944" lon="2.17619">
        <ele>47.2</ele>
        <time>2022-04-11T14:08:43Z</time>
      </trkpt>
      <trkpt lat="49.94944" lon="2.17618">
        <ele>47.2</ele>
        <time>2022-04-11T14:08:44Z</time>
      </trkpt>
      <trkpt lat="49.94943" lon="2.17615">
        <ele>47.1</ele>
        <time>2022-04-11T14:08:45Z</time>
      </trkpt>
      <trkpt lat="49.94942" lon="2.17613">
        <ele>47</ele>
        <time>2022-04-11T14:08:46Z</time>
      </trkpt>
      <trkpt lat="49.94942" lon="2.17612">
        <ele>47</ele>
        <time>2022-04-11T14:08:47Z</time>
      </trkpt>
      <trkpt lat="49.94942" lon="2.17611">
        <ele>46.9</ele>
        <time>2022-04-11T14:08:48Z</time>
      </trkpt>
      <trkpt lat="49.94941" lon="2.1761">
        <ele>46.9</ele>
        <time>2022-04-11T14:08:49Z</time>
      </trkpt>
      <trkpt lat="49.94941" lon="2.17608">
        <ele>46.8</ele>
        <time>2022-04-11T14:08:50Z</time>
      </trkpt>
      <trkpt lat="49.9494" lon="2.17605">
        <ele>46.7</ele>
        <time>2022-04-11T14:08:51Z</time>
      </trkpt>
      <trkpt lat="49.9494" lon="2.17604">
        <ele>46.7</ele>
        <time>2022-04-11T14:08:52Z</time>
      </trkpt>
      <trkpt lat="49.94939" lon="2.17602">
        <ele>46.6</ele>
        <time>2022-04-11T14:08:53Z</time>
      </trkpt>
      <trkpt lat="49.94939" lon="2.176">
        <ele>46.5</ele>
        <time>2022-04-11T14:08:54Z</time>
      </trkpt>
      <trkpt lat="49.94938" lon="2.17598">
        <ele>46.4</ele>
        <time>2022-04-11T14:08:56Z</time>
      </trkpt>
      <trkpt lat="49.94938" lon="2.17596">
        <ele>46.4</ele>
        <time>2022-04-11T14:08:57Z</time>
      </trkpt>
      <trkpt lat="49.94937" lon="2.17594">
        <ele>46.3</ele>
        <time>2022-04-11T14:08:58Z</time>
      </trkpt>
      <trkpt lat="49.94937" lon="2.17591">
        <ele>46.2</ele>
        <time>2022-04-11T14:08:59Z</time>
      </trkpt>
      <trkpt lat="49.94936" lon="2.1759">
        <ele>46.1</ele>
        <time>2022-04-11T14:09:00Z</time>
      </trkpt>
      <trkpt lat="49.94936" lon="2.17588">
        <ele>46.1</ele>
        <time>2022-04-11T14:09:01Z</time>
      </trkpt>
      <trkpt lat="49.94935" lon="2.17585">
        <ele>45.9</ele>
        <time>2022-04-11T14:09:02Z</time>
      </trkpt>
      <trkpt lat="49.94935" lon="2.17584">
        <ele>45.9</ele>
        <time>2022-04-11T14:09:03Z</time>
      </trkpt>
      <trkpt lat="49.94935" lon="2.17583">
        <ele>45.8</ele>
        <time>2022-04-11T14:09:04Z</time>
      </trkpt>
      <trkpt lat="49.94934" lon="2.17581">
        <ele>45.7</ele>
        <time>2022-04-11T14:09:05Z</time>
      </trkpt>
      <trkpt lat="49.94934" lon="2.17579">
        <ele>45.6</ele>
        <time>2022-04-11T14:09:06Z</time>
      </trkpt>
      <trkpt lat="49.94933" lon="2.17577">
        <ele>45.5</ele>
        <time>2022-04-11T14:09:07Z</time>
      </trkpt>
      <trkpt lat="49.94933" lon="2.17574">
        <ele>45.4</ele>
        <time>2022-04-11T14:09:08Z</time>
      </trkpt>
      <trkpt lat="49.94932" lon="2.17572">
        <ele>45.3</ele>
        <time>2022-04-11T14:09:09Z</time>
      </trkpt>
      <trkpt lat="49.94932" lon="2.1757">
        <ele>45.2</ele>
        <time>2022-04-11T14:09:10Z</time>
      </trkpt>
      <trkpt lat="49.94931" lon="2.17569">
        <ele>45.1</ele>
        <time>2022-04-11T14:09:12Z</time>
      </trkpt>
      <trkpt lat="49.9493" lon="2.17566">
        <ele>45</ele>
        <time>2022-04-11T14:09:13Z</time>
      </trkpt>
      <trkpt lat="49.9493" lon="2.17564">
        <ele>44.9</ele>
        <time>2022-04-11T14:09:14Z</time>
      </trkpt>
      <trkpt lat="49.9493" lon="2.17563">
        <ele>44.9</ele>
        <time>2022-04-11T14:09:15Z</time>
      </trkpt>
      <trkpt lat="49.9493" lon="2.17562">
        <ele>44.8</ele>
        <time>2022-04-11T14:09:16Z</time>
      </trkpt>
      <trkpt lat="49.94929" lon="2.1756">
        <ele>44.7</ele>
        <time>2022-04-11T14:09:17Z</time>
      </trkpt>
      <trkpt lat="49.94929" lon="2.17559">
        <ele>44.6</ele>
        <time>2022-04-11T14:09:18Z</time>
      </trkpt>
      <trkpt lat="49.94929" lon="2.17557">
        <ele>44.5</ele>
        <time>2022-04-11T14:09:19Z</time>
      </trkpt>
      <trkpt lat="49.94929" lon="2.17555">
        <ele>44.4</ele>
        <time>2022-04-11T14:09:20Z</time>
      </trkpt>
      <trkpt lat="49.94928" lon="2.17553">
        <ele>44.4</ele>
        <time>2022-04-11T14:09:21Z</time>
      </trkpt>
      <trkpt lat="49.94927" lon="2.1755">
        <ele>44.2</ele>
        <time>2022-04-11T14:09:22Z</time>
      </trkpt>
      <trkpt lat="49.94927" lon="2.17549">
        <ele>44.1</ele>
        <time>2022-04-11T14:09:23Z</time>
      </trkpt>
      <trkpt lat="49.94927" lon="2.17547">
        <ele>44</ele>
        <time>2022-04-11T14:09:24Z</time>
      </trkpt>
      <trkpt lat="49.94926" lon="2.17545">
        <ele>43.9</ele>
        <time>2022-04-11T14:09:26Z</time>
      </trkpt>
      <trkpt lat="49.94926" lon="2.17543">
        <ele>43.8</ele>
        <time>2022-04-11T14:09:27Z</time>
      </trkpt>
      <trkpt lat="49.94925" lon="2.17541">
        <ele>43.7</ele>
        <time>2022-04-11T14:09:28Z</time>
      </trkpt>
      <trkpt lat="49.94925" lon="2.17539">
        <ele>43.5</ele>
        <time>2022-04-11T14:09:29Z</time>
      </trkpt>
      <trkpt lat="49.94924" lon="2.17537">
        <ele>43.4</ele>
        <time>2022-04-11T14:09:30Z</time>
      </trkpt>
      <trkpt lat="49.94924" lon="2.17534">
        <ele>43.3</ele>
        <time>2022-04-11T14:09:31Z</time>
      </trkpt>
      <trkpt lat="49.94923" lon="2.17532">
        <ele>43.1</ele>
        <time>2022-04-11T14:09:33Z</time>
      </trkpt>
      <trkpt lat="49.94923" lon="2.1753">
        <ele>43</ele>
        <time>2022-04-11T14:09:34Z</time>
      </trkpt>
      <trkpt lat="49.94922" lon="2.17528">
        <ele>42.9</ele>
        <time>2022-04-11T14:09:35Z</time>
      </trkpt>
      <trkpt lat="49.94922" lon="2.17527">
        <ele>42.8</ele>
        <time>2022-04-11T14:09:36Z</time>
      </trkpt>
      <trkpt lat="49.94921" lon="2.17525">
        <ele>42.7</ele>
        <time>2022-04-11T14:09:37Z</time>
      </trkpt>
      <trkpt lat="49.9492" lon="2.17524">
        <ele>42.6</ele>
        <time>2022-04-11T14:09:38Z</time>
      </trkpt>
      <trkpt lat="49.9492" lon="2.17522">
        <ele>42.5</ele>
        <time>2022-04-11T14:09:39Z</time>
      </trkpt>
      <trkpt lat="49.94919" lon="2.17519">
        <ele>42.3</ele>
        <time>2022-04-11T14:09:41Z</time>
      </trkpt>
      <trkpt lat="49.94918" lon="2.17518">
        <ele>42.3</ele>
        <time>2022-04-11T14:09:42Z</time>
      </trkpt>
      <trkpt lat="49.94918" lon="2.17517">
        <ele>42.2</ele>
        <time>2022-04-11T14:09:43Z</time>
      </trkpt>
      <trkpt lat="49.94917" lon="2.17515">
        <ele>42.1</ele>
        <time>2022-04-11T14:09:44Z</time>
      </trkpt>
      <trkpt lat="49.94916" lon="2.17514">
        <ele>42</ele>
        <time>2022-04-11T14:09:45Z</time>
      </trkpt>
      <trkpt lat="49.94916" lon="2.17512">
        <ele>41.9</ele>
        <time>2022-04-11T14:09:46Z</time>
      </trkpt>
      <trkpt lat="49.94915" lon="2.17511">
        <ele>41.8</ele>
        <time>2022-04-11T14:09:47Z</time>
      </trkpt>
      <trkpt lat="49.94914" lon="2.17508">
        <ele>41.7</ele>
        <time>2022-04-11T14:09:48Z</time>
      </trkpt>
      <trkpt lat="49.94914" lon="2.17507">
        <ele>41.6</ele>
        <time>2022-04-11T14:09:49Z</time>
      </trkpt>
      <trkpt lat="49.94913" lon="2.17506">
        <ele>41.5</ele>
        <time>2022-04-11T14:09:50Z</time>
      </trkpt>
      <trkpt lat="49.94913" lon="2.17504">
        <ele>41.4</ele>
        <time>2022-04-11T14:09:51Z</time>
      </trkpt>
      <trkpt lat="49.94912" lon="2.17502">
        <ele>41.3</ele>
        <time>2022-04-11T14:09:52Z</time>
      </trkpt>
      <trkpt lat="49.94912" lon="2.17501">
        <ele>41.2</ele>
        <time>2022-04-11T14:09:53Z</time>
      </trkpt>
      <trkpt lat="49.94911" lon="2.17499">
        <ele>41.1</ele>
        <time>2022-04-11T14:09:54Z</time>
      </trkpt>
      <trkpt lat="49.94911" lon="2.17497">
        <ele>40.9</ele>
        <time>2022-04-11T14:09:55Z</time>
      </trkpt>
      <trkpt lat="49.9491" lon="2.17494">
        <ele>40.7</ele>
        <time>2022-04-11T14:09:56Z</time>
      </trkpt>
      <trkpt lat="49.94909" lon="2.17493">
        <ele>40.7</ele>
        <time>2022-04-11T14:09:57Z</time>
      </trkpt>
      <trkpt lat="49.94909" lon="2.17491">
        <ele>40.6</ele>
        <time>2022-04-11T14:09:58Z</time>
      </trkpt>
      <trkpt lat="49.94908" lon="2.1749">
        <ele>40.5</ele>
        <time>2022-04-11T14:09:59Z</time>
      </trkpt>
      <trkpt lat="49.94908" lon="2.17488">
        <ele>40.4</ele>
        <time>2022-04-11T14:10:00Z</time>
      </trkpt>
      <trkpt lat="49.94907" lon="2.17486">
        <ele>40.2</ele>
        <time>2022-04-11T14:10:02Z</time>
      </trkpt>
      <trkpt lat="49.94907" lon="2.17484">
        <ele>40.1</ele>
        <time>2022-04-11T14:10:03Z</time>
      </trkpt>
      <trkpt lat="49.94906" lon="2.17482">
        <ele>40</ele>
        <time>2022-04-11T14:10:04Z</time>
      </trkpt>
      <trkpt lat="49.94905" lon="2.1748">
        <ele>39.9</ele>
        <time>2022-04-11T14:10:05Z</time>
      </trkpt>
      <trkpt lat="49.94905" lon="2.17478">
        <ele>39.7</ele>
        <time>2022-04-11T14:10:07Z</time>
      </trkpt>
      <trkpt lat="49.94904" lon="2.17476">
        <ele>39.6</ele>
        <time>2022-04-11T14:10:08Z</time>
      </trkpt>
      <trkpt lat="49.94904" lon="2.17475">
        <ele>39.5</ele>
        <time>2022-04-11T14:10:09Z</time>
      </trkpt>
      <trkpt lat="49.94903" lon="2.17473">
        <ele>39.4</ele>
        <time>2022-04-11T14:10:10Z</time>
      </trkpt>
      <trkpt lat="49.94903" lon="2.17472">
        <ele>39.3</ele>
        <time>2022-04-11T14:10:11Z</time>
      </trkpt>
      <trkpt lat="49.94902" lon="2.17471">
        <ele>39.2</ele>
        <time>2022-04-11T14:10:12Z</time>
      </trkpt>
      <trkpt lat="49.94901" lon="2.17469">
        <ele>39.1</ele>
        <time>2022-04-11T14:10:13Z</time>
      </trkpt>
      <trkpt lat="49.949" lon="2.17466">
        <ele>38.9</ele>
        <time>2022-04-11T14:10:14Z</time>
      </trkpt>
      <trkpt lat="49.94899" lon="2.17465">
        <ele>38.9</ele>
        <time>2022-04-11T14:10:15Z</time>
      </trkpt>
      <trkpt lat="49.94899" lon="2.17464">
        <ele>38.8</ele>
        <time>2022-04-11T14:10:16Z</time>
      </trkpt>
      <trkpt lat="49.94898" lon="2.17463">
        <ele>38.7</ele>
        <time>2022-04-11T14:10:17Z</time>
      </trkpt>
      <trkpt lat="49.94897" lon="2.17461">
        <ele>38.5</ele>
        <time>2022-04-11T14:10:18Z</time>
      </trkpt>
      <trkpt lat="49.94897" lon="2.1746">
        <ele>38.4</ele>
        <time>2022-04-11T14:10:19Z</time>
      </trkpt>
      <trkpt lat="49.94896" lon="2.17458">
        <ele>38.3</ele>
        <time>2022-04-11T14:10:20Z</time>
      </trkpt>
      <trkpt lat="49.94895" lon="2.17457">
        <ele>38.2</ele>
        <time>2022-04-11T14:10:21Z</time>
      </trkpt>
      <trkpt lat="49.94894" lon="2.17455">
        <ele>38.1</ele>
        <time>2022-04-11T14:10:23Z</time>
      </trkpt>
      <trkpt lat="49.94893" lon="2.17454">
        <ele>38</ele>
        <time>2022-04-11T14:10:24Z</time>
      </trkpt>
      <trkpt lat="49.94893" lon="2.17453">
        <ele>37.9</ele>
        <time>2022-04-11T14:10:25Z</time>
      </trkpt>
      <trkpt lat="49.94892" lon="2.17452">
        <ele>37.8</ele>
        <time>2022-04-11T14:10:26Z</time>
      </trkpt>
      <trkpt lat="49.9489" lon="2.1745">
        <ele>37.6</ele>
        <time>2022-04-11T14:10:27Z</time>
      </trkpt>
      <trkpt lat="49.9489" lon="2.17449">
        <ele>37.5</ele>
        <time>2022-04-11T14:10:28Z</time>
      </trkpt>
      <trkpt lat="49.94889" lon="2.17448">
        <ele>37.4</ele>
        <time>2022-04-11T14:10:29Z</time>
      </trkpt>
      <trkpt lat="49.94888" lon="2.17446">
        <ele>37.2</ele>
        <time>2022-04-11T14:10:30Z</time>
      </trkpt>
      <trkpt lat="49.94886" lon="2.17445">
        <ele>37.1</ele>
        <time>2022-04-11T14:10:31Z</time>
      </trkpt>
      <trkpt lat="49.94885" lon="2.17443">
        <ele>36.9</ele>
        <time>2022-04-11T14:10:32Z</time>
      </trkpt>
      <trkpt lat="49.94884" lon="2.17442">
        <ele>36.8</ele>
        <time>2022-04-11T14:10:33Z</time>
      </trkpt>
      <trkpt lat="49.94883" lon="2.1744">
        <ele>36.6</ele>
        <time>2022-04-11T14:10:35Z</time>
      </trkpt>
      <trkpt lat="49.94882" lon="2.17439">
        <ele>36.5</ele>
        <time>2022-04-11T14:10:36Z</time>
      </trkpt>
      <trkpt lat="49.9488" lon="2.17437">
        <ele>36.3</ele>
        <time>2022-04-11T14:10:37Z</time>
      </trkpt>
      <trkpt lat="49.94879" lon="2.17436">
        <ele>36.2</ele>
        <time>2022-04-11T14:10:38Z</time>
      </trkpt>
      <trkpt lat="49.94878" lon="2.17435">
        <ele>36</ele>
        <time>2022-04-11T14:10:39Z</time>
      </trkpt>
      <trkpt lat="49.94878" lon="2.17434">
        <ele>35.9</ele>
        <time>2022-04-11T14:10:40Z</time>
      </trkpt>
      <trkpt lat="49.94877" lon="2.17433">
        <ele>35.8</ele>
        <time>2022-04-11T14:10:41Z</time>
      </trkpt>
      <trkpt lat="49.94875" lon="2.17431">
        <ele>35.6</ele>
        <time>2022-04-11T14:10:42Z</time>
      </trkpt>
      <trkpt lat="49.94875" lon="2.1743">
        <ele>35.5</ele>
        <time>2022-04-11T14:10:43Z</time>
      </trkpt>
      <trkpt lat="49.94874" lon="2.17429">
        <ele>35.4</ele>
        <time>2022-04-11T14:10:44Z</time>
      </trkpt>
      <trkpt lat="49.94872" lon="2.17426">
        <ele>35.2</ele>
        <time>2022-04-11T14:10:45Z</time>
      </trkpt>
      <trkpt lat="49.94872" lon="2.17425">
        <ele>35.1</ele>
        <time>2022-04-11T14:10:46Z</time>
      </trkpt>
      <trkpt lat="49.94871" lon="2.17424">
        <ele>35</ele>
        <time>2022-04-11T14:10:47Z</time>
      </trkpt>
      <trkpt lat="49.94869" lon="2.17422">
        <ele>34.7</ele>
        <time>2022-04-11T14:10:48Z</time>
      </trkpt>
      <trkpt lat="49.94868" lon="2.17421">
        <ele>34.6</ele>
        <time>2022-04-11T14:10:50Z</time>
      </trkpt>
      <trkpt lat="49.94867" lon="2.1742">
        <ele>34.5</ele>
        <time>2022-04-11T14:10:51Z</time>
      </trkpt>
      <trkpt lat="49.94867" lon="2.17419">
        <ele>34.4</ele>
        <time>2022-04-11T14:10:52Z</time>
      </trkpt>
      <trkpt lat="49.94866" lon="2.17418">
        <ele>34.3</ele>
        <time>2022-04-11T14:10:53Z</time>
      </trkpt>
      <trkpt lat="49.94864" lon="2.17416">
        <ele>34.1</ele>
        <time>2022-04-11T14:10:54Z</time>
      </trkpt>
      <trkpt lat="49.94863" lon="2.17415">
        <ele>34</ele>
        <time>2022-04-11T14:10:55Z</time>
      </trkpt>
      <trkpt lat="49.94863" lon="2.17414">
        <ele>33.9</ele>
        <time>2022-04-11T14:10:56Z</time>
      </trkpt>
      <trkpt lat="49.94861" lon="2.17412">
        <ele>33.7</ele>
        <time>2022-04-11T14:10:57Z</time>
      </trkpt>
      <trkpt lat="49.9486" lon="2.17411">
        <ele>33.6</ele>
        <time>2022-04-11T14:10:58Z</time>
      </trkpt>
      <trkpt lat="49.9486" lon="2.1741">
        <ele>33.5</ele>
        <time>2022-04-11T14:10:59Z</time>
      </trkpt>
      <trkpt lat="49.94859" lon="2.17409">
        <ele>33.4</ele>
        <time>2022-04-11T14:11:00Z</time>
      </trkpt>
      <trkpt lat="49.94859" lon="2.17407">
        <ele>33.3</ele>
        <time>2022-04-11T14:11:01Z</time>
      </trkpt>
      <trkpt lat="49.94858" lon="2.17406">
        <ele>33.1</ele>
        <time>2022-04-11T14:11:02Z</time>
      </trkpt>
      <trkpt lat="49.94858" lon="2.17404">
        <ele>33</ele>
        <time>2022-04-11T14:11:03Z</time>
      </trkpt>
      <trkpt lat="49.94858" lon="2.17403">
        <ele>32.9</ele>
        <time>2022-04-11T14:11:04Z</time>
      </trkpt>
      <trkpt lat="49.94857" lon="2.17399">
        <ele>32.7</ele>
        <time>2022-04-11T14:11:05Z</time>
      </trkpt>
      <trkpt lat="49.94857" lon="2.17398">
        <ele>32.6</ele>
        <time>2022-04-11T14:11:06Z</time>
      </trkpt>
      <trkpt lat="49.94856" lon="2.17397">
        <ele>32.5</ele>
        <time>2022-04-11T14:11:07Z</time>
      </trkpt>
      <trkpt lat="49.94856" lon="2.17394">
        <ele>32.3</ele>
        <time>2022-04-11T14:11:08Z</time>
      </trkpt>
      <trkpt lat="49.94856" lon="2.17393">
        <ele>32.2</ele>
        <time>2022-04-11T14:11:09Z</time>
      </trkpt>
      <trkpt lat="49.94856" lon="2.17391">
        <ele>32.1</ele>
        <time>2022-04-11T14:11:10Z</time>
      </trkpt>
      <trkpt lat="49.94855" lon="2.17389">
        <ele>31.9</ele>
        <time>2022-04-11T14:11:12Z</time>
      </trkpt>
      <trkpt lat="49.94855" lon="2.17387">
        <ele>31.8</ele>
        <time>2022-04-11T14:11:13Z</time>
      </trkpt>
      <trkpt lat="49.94854" lon="2.17385">
        <ele>31.7</ele>
        <time>2022-04-11T14:11:14Z</time>
      </trkpt>
      <trkpt lat="49.94853" lon="2.17384">
        <ele>31.5</ele>
        <time>2022-04-11T14:11:15Z</time>
      </trkpt>
      <trkpt lat="49.94853" lon="2.17382">
        <ele>31.4</ele>
        <time>2022-04-11T14:11:16Z</time>
      </trkpt>
      <trkpt lat="49.94853" lon="2.17381">
        <ele>31.3</ele>
        <time>2022-04-11T14:11:18Z</time>
      </trkpt>
      <trkpt lat="49.94853" lon="2.17379">
        <ele>31.2</ele>
        <time>2022-04-11T14:11:19Z</time>
      </trkpt>
      <trkpt lat="49.94851" lon="2.17376">
        <ele>31</ele>
        <time>2022-04-11T14:11:20Z</time>
      </trkpt>
      <trkpt lat="49.94851" lon="2.17375">
        <ele>30.9</ele>
        <time>2022-04-11T14:11:21Z</time>
      </trkpt>
      <trkpt lat="49.9485" lon="2.17374">
        <ele>30.8</ele>
        <time>2022-04-11T14:11:22Z</time>
      </trkpt>
      <trkpt lat="49.94849" lon="2.17372">
        <ele>30.6</ele>
        <time>2022-04-11T14:11:23Z</time>
      </trkpt>
      <trkpt lat="49.94848" lon="2.1737">
        <ele>30.5</ele>
        <time>2022-04-11T14:11:24Z</time>
      </trkpt>
      <trkpt lat="49.94847" lon="2.17367">
        <ele>30.3</ele>
        <time>2022-04-11T14:11:25Z</time>
      </trkpt>
      <trkpt lat="49.94847" lon="2.17366">
        <ele>30.2</ele>
        <time>2022-04-11T14:11:26Z</time>
      </trkpt>
      <trkpt lat="49.94847" lon="2.17364">
        <ele>30.1</ele>
        <time>2022-04-11T14:11:27Z</time>
      </trkpt>
      <trkpt lat="49.94846" lon="2.17361">
        <ele>29.8</ele>
        <time>2022-04-11T14:11:28Z</time>
      </trkpt>
      <trkpt lat="49.94846" lon="2.1736">
        <ele>29.7</ele>
        <time>2022-04-11T14:11:29Z</time>
      </trkpt>
      <trkpt lat="49.94846" lon="2.17358">
        <ele>29.7</ele>
        <time>2022-04-11T14:11:30Z</time>
      </trkpt>
      <trkpt lat="49.94845" lon="2.17356">
        <ele>29.5</ele>
        <time>2022-04-11T14:11:31Z</time>
      </trkpt>
      <trkpt lat="49.94845" lon="2.17354">
        <ele>29.4</ele>
        <time>2022-04-11T14:11:32Z</time>
      </trkpt>
      <trkpt lat="49.94845" lon="2.17351">
        <ele>29.2</ele>
        <time>2022-04-11T14:11:33Z</time>
      </trkpt>
      <trkpt lat="49.94845" lon="2.17349">
        <ele>29</ele>
        <time>2022-04-11T14:11:34Z</time>
      </trkpt>
      <trkpt lat="49.94845" lon="2.17346">
        <ele>28.9</ele>
        <time>2022-04-11T14:11:36Z</time>
      </trkpt>
      <trkpt lat="49.94846" lon="2.17344">
        <ele>28.6</ele>
        <time>2022-04-11T14:11:37Z</time>
      </trkpt>
      <trkpt lat="49.94846" lon="2.17341">
        <ele>28.4</ele>
        <time>2022-04-11T14:11:38Z</time>
      </trkpt>
      <trkpt lat="49.94846" lon="2.17339">
        <ele>28.3</ele>
        <time>2022-04-11T14:11:39Z</time>
      </trkpt>
      <trkpt lat="49.94847" lon="2.17336">
        <ele>28.1</ele>
        <time>2022-04-11T14:11:40Z</time>
      </trkpt>
      <trkpt lat="49.94847" lon="2.17334">
        <ele>28</ele>
        <time>2022-04-11T14:11:41Z</time>
      </trkpt>
      <trkpt lat="49.94848" lon="2.17332">
        <ele>27.8</ele>
        <time>2022-04-11T14:11:42Z</time>
      </trkpt>
      <trkpt lat="49.94848" lon="2.17329">
        <ele>27.6</ele>
        <time>2022-04-11T14:11:43Z</time>
      </trkpt>
      <trkpt lat="49.94849" lon="2.17326">
        <ele>27.4</ele>
        <time>2022-04-11T14:11:45Z</time>
      </trkpt>
      <trkpt lat="49.94849" lon="2.17325">
        <ele>27.3</ele>
        <time>2022-04-11T14:11:46Z</time>
      </trkpt>
      <trkpt lat="49.9485" lon="2.17323">
        <ele>27.1</ele>
        <time>2022-04-11T14:11:47Z</time>
      </trkpt>
      <trkpt lat="49.94851" lon="2.1732">
        <ele>27</ele>
        <time>2022-04-11T14:11:48Z</time>
      </trkpt>
      <trkpt lat="49.94852" lon="2.17317">
        <ele>26.7</ele>
        <time>2022-04-11T14:11:49Z</time>
      </trkpt>
      <trkpt lat="49.94852" lon="2.17316">
        <ele>26.7</ele>
        <time>2022-04-11T14:11:50Z</time>
      </trkpt>
      <trkpt lat="49.94852" lon="2.17315">
        <ele>26.6</ele>
        <time>2022-04-11T14:11:51Z</time>
      </trkpt>
      <trkpt lat="49.94853" lon="2.17314">
        <ele>26.5</ele>
        <time>2022-04-11T14:11:52Z</time>
      </trkpt>
      <trkpt lat="49.94854" lon="2.17312">
        <ele>26.3</ele>
        <time>2022-04-11T14:11:54Z</time>
      </trkpt>
      <trkpt lat="49.94855" lon="2.17311">
        <ele>26.2</ele>
        <time>2022-04-11T14:11:55Z</time>
      </trkpt>
      <trkpt lat="49.94855" lon="2.17309">
        <ele>26.1</ele>
        <time>2022-04-11T14:11:56Z</time>
      </trkpt>
      <trkpt lat="49.94856" lon="2.17308">
        <ele>26</ele>
        <time>2022-04-11T14:11:57Z</time>
      </trkpt>
      <trkpt lat="49.94857" lon="2.17306">
        <ele>25.8</ele>
        <time>2022-04-11T14:11:58Z</time>
      </trkpt>
      <trkpt lat="49.94857" lon="2.17305">
        <ele>25.7</ele>
        <time>2022-04-11T14:11:59Z</time>
      </trkpt>
      <trkpt lat="49.94858" lon="2.17303">
        <ele>25.6</ele>
        <time>2022-04-11T14:12:00Z</time>
      </trkpt>
      <trkpt lat="49.94859" lon="2.17302">
        <ele>25.5</ele>
        <time>2022-04-11T14:12:01Z</time>
      </trkpt>
      <trkpt lat="49.94859" lon="2.17301">
        <ele>25.4</ele>
        <time>2022-04-11T14:12:02Z</time>
      </trkpt>
      <trkpt lat="49.9486" lon="2.173">
        <ele>25.3</ele>
        <time>2022-04-11T14:12:03Z</time>
      </trkpt>
      <trkpt lat="49.94861" lon="2.17299">
        <ele>25.1</ele>
        <time>2022-04-11T14:12:04Z</time>
      </trkpt>
      <trkpt lat="49.94862" lon="2.17298">
        <ele>25</ele>
        <time>2022-04-11T14:12:05Z</time>
      </trkpt>
      <trkpt lat="49.94863" lon="2.17296">
        <ele>24.9</ele>
        <time>2022-04-11T14:12:06Z</time>
      </trkpt>
      <trkpt lat="49.94864" lon="2.17295">
        <ele>24.8</ele>
        <time>2022-04-11T14:12:07Z</time>
      </trkpt>
      <trkpt lat="49.94865" lon="2.17294">
        <ele>24.7</ele>
        <time>2022-04-11T14:12:08Z</time>
      </trkpt>
      <trkpt lat="49.94865" lon="2.17293">
        <ele>24.6</ele>
        <time>2022-04-11T14:12:09Z</time>
      </trkpt>
      <trkpt lat="49.94866" lon="2.17291">
        <ele>24.5</ele>
        <time>2022-04-11T14:12:10Z</time>
      </trkpt>
      <trkpt lat="49.94867" lon="2.17289">
        <ele>24.3</ele>
        <time>2022-04-11T14:12:12Z</time>
      </trkpt>
      <trkpt lat="49.94867" lon="2.17288">
        <ele>24.2</ele>
        <time>2022-04-11T14:12:13Z</time>
      </trkpt>
      <trkpt lat="49.94868" lon="2.17287">
        <ele>24.1</ele>
        <time>2022-04-11T14:12:14Z</time>
      </trkpt>
      <trkpt lat="49.94869" lon="2.17284">
        <ele>23.9</ele>
        <time>2022-04-11T14:12:15Z</time>
      </trkpt>
      <trkpt lat="49.94869" lon="2.17283">
        <ele>23.8</ele>
        <time>2022-04-11T14:12:16Z</time>
      </trkpt>
      <trkpt lat="49.9487" lon="2.17281">
        <ele>23.7</ele>
        <time>2022-04-11T14:12:17Z</time>
      </trkpt>
      <trkpt lat="49.9487" lon="2.1728">
        <ele>23.6</ele>
        <time>2022-04-11T14:12:18Z</time>
      </trkpt>
      <trkpt lat="49.9487" lon="2.17278">
        <ele>23.5</ele>
        <time>2022-04-11T14:12:20Z</time>
      </trkpt>
      <trkpt lat="49.94871" lon="2.17277">
        <ele>23.4</ele>
        <time>2022-04-11T14:12:21Z</time>
      </trkpt>
      <trkpt lat="49.94871" lon="2.17276">
        <ele>23.3</ele>
        <time>2022-04-11T14:12:22Z</time>
      </trkpt>
      <trkpt lat="49.94871" lon="2.17275">
        <ele>23.3</ele>
        <time>2022-04-11T14:12:23Z</time>
      </trkpt>
      <trkpt lat="49.94872" lon="2.17274">
        <ele>23.2</ele>
        <time>2022-04-11T14:12:24Z</time>
      </trkpt>
      <trkpt lat="49.94873" lon="2.17272">
        <ele>23</ele>
        <time>2022-04-11T14:12:25Z</time>
      </trkpt>
      <trkpt lat="49.94873" lon="2.17271">
        <ele>22.9</ele>
        <time>2022-04-11T14:12:26Z</time>
      </trkpt>
      <trkpt lat="49.94874" lon="2.1727">
        <ele>22.8</ele>
        <time>2022-04-11T14:12:27Z</time>
      </trkpt>
      <trkpt lat="49.94874" lon="2.17269">
        <ele>22.7</ele>
        <time>2022-04-11T14:12:28Z</time>
      </trkpt>
      <trkpt lat="49.94875" lon="2.17267">
        <ele>22.6</ele>
        <time>2022-04-11T14:12:29Z</time>
      </trkpt>
      <trkpt lat="49.94876" lon="2.17266">
        <ele>22.4</ele>
        <time>2022-04-11T14:12:31Z</time>
      </trkpt>
      <trkpt lat="49.94877" lon="2.17265">
        <ele>22.3</ele>
        <time>2022-04-11T14:12:32Z</time>
      </trkpt>
      <trkpt lat="49.94877" lon="2.17263">
        <ele>22.2</ele>
        <time>2022-04-11T14:12:33Z</time>
      </trkpt>
      <trkpt lat="49.94878" lon="2.17262">
        <ele>22.1</ele>
        <time>2022-04-11T14:12:34Z</time>
      </trkpt>
      <trkpt lat="49.94878" lon="2.17261">
        <ele>22</ele>
        <time>2022-04-11T14:12:35Z</time>
      </trkpt>
      <trkpt lat="49.94878" lon="2.17259">
        <ele>22</ele>
        <time>2022-04-11T14:12:36Z</time>
      </trkpt>
      <trkpt lat="49.94879" lon="2.17257">
        <ele>21.9</ele>
        <time>2022-04-11T14:12:37Z</time>
      </trkpt>
      <trkpt lat="49.94879" lon="2.17254">
        <ele>21.7</ele>
        <time>2022-04-11T14:12:38Z</time>
      </trkpt>
      <trkpt lat="49.94879" lon="2.17253">
        <ele>21.7</ele>
        <time>2022-04-11T14:12:39Z</time>
      </trkpt>
      <trkpt lat="49.9488" lon="2.17252">
        <ele>21.6</ele>
        <time>2022-04-11T14:12:40Z</time>
      </trkpt>
      <trkpt lat="49.9488" lon="2.1725">
        <ele>21.5</ele>
        <time>2022-04-11T14:12:41Z</time>
      </trkpt>
      <trkpt lat="49.9488" lon="2.17247">
        <ele>21.4</ele>
        <time>2022-04-11T14:12:43Z</time>
      </trkpt>
      <trkpt lat="49.94881" lon="2.17246">
        <ele>21.3</ele>
        <time>2022-04-11T14:12:44Z</time>
      </trkpt>
      <trkpt lat="49.94881" lon="2.17244">
        <ele>21.2</ele>
        <time>2022-04-11T14:12:45Z</time>
      </trkpt>
      <trkpt lat="49.9488" lon="2.17242">
        <ele>21.1</ele>
        <time>2022-04-11T14:12:46Z</time>
      </trkpt>
      <trkpt lat="49.94881" lon="2.17239">
        <ele>21</ele>
        <time>2022-04-11T14:12:47Z</time>
      </trkpt>
      <trkpt lat="49.9488" lon="2.17237">
        <ele>20.9</ele>
        <time>2022-04-11T14:12:48Z</time>
      </trkpt>
      <trkpt lat="49.9488" lon="2.17236">
        <ele>20.7</ele>
        <time>2022-04-11T14:12:49Z</time>
      </trkpt>
      <trkpt lat="49.9488" lon="2.17233">
        <ele>20.6</ele>
        <time>2022-04-11T14:12:51Z</time>
      </trkpt>
      <trkpt lat="49.94881" lon="2.17232">
        <ele>20.6</ele>
        <time>2022-04-11T14:12:52Z</time>
      </trkpt>
      <trkpt lat="49.94881" lon="2.1723">
        <ele>20.6</ele>
        <time>2022-04-11T14:12:53Z</time>
      </trkpt>
      <trkpt lat="49.94882" lon="2.17229">
        <ele>20.5</ele>
        <time>2022-04-11T14:12:54Z</time>
      </trkpt>
      <trkpt lat="49.94882" lon="2.17227">
        <ele>20.5</ele>
        <time>2022-04-11T14:12:55Z</time>
      </trkpt>
      <trkpt lat="49.94883" lon="2.17224">
        <ele>20.4</ele>
        <time>2022-04-11T14:12:56Z</time>
      </trkpt>
      <trkpt lat="49.94884" lon="2.17223">
        <ele>20.4</ele>
        <time>2022-04-11T14:12:57Z</time>
      </trkpt>
      <trkpt lat="49.94884" lon="2.17222">
        <ele>20.4</ele>
        <time>2022-04-11T14:12:58Z</time>
      </trkpt>
      <trkpt lat="49.94885" lon="2.1722">
        <ele>20.3</ele>
        <time>2022-04-11T14:12:59Z</time>
      </trkpt>
      <trkpt lat="49.94886" lon="2.17218">
        <ele>20.3</ele>
        <time>2022-04-11T14:13:01Z</time>
      </trkpt>
      <trkpt lat="49.94886" lon="2.17216">
        <ele>20.2</ele>
        <time>2022-04-11T14:13:02Z</time>
      </trkpt>
      <trkpt lat="49.94887" lon="2.17215">
        <ele>20.2</ele>
        <time>2022-04-11T14:13:03Z</time>
      </trkpt>
      <trkpt lat="49.94887" lon="2.17214">
        <ele>20.1</ele>
        <time>2022-04-11T14:13:04Z</time>
      </trkpt>
      <trkpt lat="49.94887" lon="2.17213">
        <ele>20.1</ele>
        <time>2022-04-11T14:13:05Z</time>
      </trkpt>
      <trkpt lat="49.94888" lon="2.17212">
        <ele>20.1</ele>
        <time>2022-04-11T14:13:06Z</time>
      </trkpt>
      <trkpt lat="49.94888" lon="2.17211">
        <ele>20.1</ele>
        <time>2022-04-11T14:13:07Z</time>
      </trkpt>
      <trkpt lat="49.94889" lon="2.1721">
        <ele>20</ele>
        <time>2022-04-11T14:13:08Z</time>
      </trkpt>
      <trkpt lat="49.94889" lon="2.17207">
        <ele>20</ele>
        <time>2022-04-11T14:13:10Z</time>
      </trkpt>
      <trkpt lat="49.94889" lon="2.17206">
        <ele>19.9</ele>
        <time>2022-04-11T14:13:11Z</time>
      </trkpt>
      <trkpt lat="49.9489" lon="2.17204">
        <ele>19.9</ele>
        <time>2022-04-11T14:13:12Z</time>
      </trkpt>
      <trkpt lat="49.9489" lon="2.17203">
        <ele>19.8</ele>
        <time>2022-04-11T14:13:13Z</time>
      </trkpt>
      <trkpt lat="49.9489" lon="2.17201">
        <ele>19.8</ele>
        <time>2022-04-11T14:13:14Z</time>
      </trkpt>
      <trkpt lat="49.94891" lon="2.172">
        <ele>19.8</ele>
        <time>2022-04-11T14:13:15Z</time>
      </trkpt>
      <trkpt lat="49.94891" lon="2.17199">
        <ele>19.8</ele>
        <time>2022-04-11T14:13:16Z</time>
      </trkpt>
      <trkpt lat="49.94892" lon="2.17197">
        <ele>19.7</ele>
        <time>2022-04-11T14:13:17Z</time>
      </trkpt>
      <trkpt lat="49.94892" lon="2.17196">
        <ele>19.7</ele>
        <time>2022-04-11T14:13:18Z</time>
      </trkpt>
      <trkpt lat="49.94892" lon="2.17193">
        <ele>19.6</ele>
        <time>2022-04-11T14:13:19Z</time>
      </trkpt>
      <trkpt lat="49.94892" lon="2.17191">
        <ele>19.6</ele>
        <time>2022-04-11T14:13:20Z</time>
      </trkpt>
      <trkpt lat="49.94892" lon="2.1719">
        <ele>19.5</ele>
        <time>2022-04-11T14:13:21Z</time>
      </trkpt>
      <trkpt lat="49.94892" lon="2.17187">
        <ele>19.5</ele>
        <time>2022-04-11T14:13:23Z</time>
      </trkpt>
      <trkpt lat="49.94892" lon="2.17186">
        <ele>19.4</ele>
        <time>2022-04-11T14:13:24Z</time>
      </trkpt>
      <trkpt lat="49.94892" lon="2.17182">
        <ele>19.4</ele>
        <time>2022-04-11T14:13:25Z</time>
      </trkpt>
      <trkpt lat="49.94892" lon="2.17181">
        <ele>19.3</ele>
        <time>2022-04-11T14:13:26Z</time>
      </trkpt>
      <trkpt lat="49.94892" lon="2.17179">
        <ele>19.3</ele>
        <time>2022-04-11T14:13:27Z</time>
      </trkpt>
      <trkpt lat="49.94893" lon="2.17177">
        <ele>19.2</ele>
        <time>2022-04-11T14:13:28Z</time>
      </trkpt>
      <trkpt lat="49.94893" lon="2.17175">
        <ele>19.2</ele>
        <time>2022-04-11T14:13:29Z</time>
      </trkpt>
      <trkpt lat="49.94894" lon="2.17173">
        <ele>19.1</ele>
        <time>2022-04-11T14:13:30Z</time>
      </trkpt>
      <trkpt lat="49.94895" lon="2.17171">
        <ele>19.1</ele>
        <time>2022-04-11T14:13:31Z</time>
      </trkpt>
      <trkpt lat="49.94897" lon="2.17167">
        <ele>18.9</ele>
        <time>2022-04-11T14:13:33Z</time>
      </trkpt>
      <trkpt lat="49.94898" lon="2.17166">
        <ele>18.9</ele>
        <time>2022-04-11T14:13:34Z</time>
      </trkpt>
      <trkpt lat="49.949" lon="2.17163">
        <ele>18.8</ele>
        <time>2022-04-11T14:13:35Z</time>
      </trkpt>
      <trkpt lat="49.949" lon="2.17162">
        <ele>18.8</ele>
        <time>2022-04-11T14:13:36Z</time>
      </trkpt>
      <trkpt lat="49.94901" lon="2.1716">
        <ele>18.7</ele>
        <time>2022-04-11T14:13:37Z</time>
      </trkpt>
      <trkpt lat="49.94902" lon="2.17158">
        <ele>18.7</ele>
        <time>2022-04-11T14:13:38Z</time>
      </trkpt>
      <trkpt lat="49.94903" lon="2.17156">
        <ele>18.6</ele>
        <time>2022-04-11T14:13:39Z</time>
      </trkpt>
      <trkpt lat="49.94904" lon="2.17152">
        <ele>18.5</ele>
        <time>2022-04-11T14:13:41Z</time>
      </trkpt>
      <trkpt lat="49.94906" lon="2.1715">
        <ele>18.5</ele>
        <time>2022-04-11T14:13:42Z</time>
      </trkpt>
      <trkpt lat="49.94907" lon="2.17148">
        <ele>18.4</ele>
        <time>2022-04-11T14:13:43Z</time>
      </trkpt>
      <trkpt lat="49.94908" lon="2.17146">
        <ele>18.4</ele>
        <time>2022-04-11T14:13:44Z</time>
      </trkpt>
      <trkpt lat="49.94909" lon="2.17144">
        <ele>18.3</ele>
        <time>2022-04-11T14:13:45Z</time>
      </trkpt>
      <trkpt lat="49.9491" lon="2.17141">
        <ele>18.3</ele>
        <time>2022-04-11T14:13:46Z</time>
      </trkpt>
      <trkpt lat="49.9491" lon="2.17139">
        <ele>18.2</ele>
        <time>2022-04-11T14:13:47Z</time>
      </trkpt>
      <trkpt lat="49.94911" lon="2.17137">
        <ele>18.2</ele>
        <time>2022-04-11T14:13:49Z</time>
      </trkpt>
      <trkpt lat="49.94912" lon="2.17135">
        <ele>18.1</ele>
        <time>2022-04-11T14:13:50Z</time>
      </trkpt>
      <trkpt lat="49.94912" lon="2.17133">
        <ele>18.1</ele>
        <time>2022-04-11T14:13:51Z</time>
      </trkpt>
      <trkpt lat="49.94913" lon="2.17131">
        <ele>18</ele>
        <time>2022-04-11T14:13:52Z</time>
      </trkpt>
      <trkpt lat="49.94913" lon="2.17129">
        <ele>18</ele>
        <time>2022-04-11T14:13:53Z</time>
      </trkpt>
      <trkpt lat="49.94914" lon="2.17128">
        <ele>18</ele>
        <time>2022-04-11T14:13:54Z</time>
      </trkpt>
      <trkpt lat="49.94915" lon="2.17126">
        <ele>17.9</ele>
        <time>2022-04-11T14:13:55Z</time>
      </trkpt>
      <trkpt lat="49.94916" lon="2.17124">
        <ele>17.9</ele>
        <time>2022-04-11T14:13:56Z</time>
      </trkpt>
      <trkpt lat="49.94917" lon="2.17123">
        <ele>17.9</ele>
        <time>2022-04-11T14:13:57Z</time>
      </trkpt>
      <trkpt lat="49.94917" lon="2.17122">
        <ele>17.8</ele>
        <time>2022-04-11T14:13:58Z</time>
      </trkpt>
      <trkpt lat="49.94918" lon="2.1712">
        <ele>17.8</ele>
        <time>2022-04-11T14:13:59Z</time>
      </trkpt>
      <trkpt lat="49.94919" lon="2.17118">
        <ele>17.8</ele>
        <time>2022-04-11T14:14:00Z</time>
      </trkpt>
      <trkpt lat="49.94919" lon="2.17116">
        <ele>17.7</ele>
        <time>2022-04-11T14:14:02Z</time>
      </trkpt>
      <trkpt lat="49.9492" lon="2.17115">
        <ele>17.7</ele>
        <time>2022-04-11T14:14:03Z</time>
      </trkpt>
      <trkpt lat="49.9492" lon="2.17114">
        <ele>17.7</ele>
        <time>2022-04-11T14:14:04Z</time>
      </trkpt>
      <trkpt lat="49.94921" lon="2.17112">
        <ele>17.6</ele>
        <time>2022-04-11T14:14:05Z</time>
      </trkpt>
      <trkpt lat="49.94922" lon="2.17109">
        <ele>17.6</ele>
        <time>2022-04-11T14:14:06Z</time>
      </trkpt>
      <trkpt lat="49.94923" lon="2.17108">
        <ele>17.6</ele>
        <time>2022-04-11T14:14:07Z</time>
      </trkpt>
      <trkpt lat="49.94923" lon="2.17107">
        <ele>17.5</ele>
        <time>2022-04-11T14:14:08Z</time>
      </trkpt>
      <trkpt lat="49.94924" lon="2.17105">
        <ele>17.5</ele>
        <time>2022-04-11T14:14:09Z</time>
      </trkpt>
      <trkpt lat="49.94924" lon="2.17104">
        <ele>17.5</ele>
        <time>2022-04-11T14:14:10Z</time>
      </trkpt>
      <trkpt lat="49.94925" lon="2.17102">
        <ele>17.4</ele>
        <time>2022-04-11T14:14:11Z</time>
      </trkpt>
      <trkpt lat="49.94925" lon="2.17101">
        <ele>17.4</ele>
        <time>2022-04-11T14:14:12Z</time>
      </trkpt>
      <trkpt lat="49.94926" lon="2.171">
        <ele>17.4</ele>
        <time>2022-04-11T14:14:13Z</time>
      </trkpt>
      <trkpt lat="49.94926" lon="2.17098">
        <ele>17.4</ele>
        <time>2022-04-11T14:14:15Z</time>
      </trkpt>
      <trkpt lat="49.94927" lon="2.17097">
        <ele>17.3</ele>
        <time>2022-04-11T14:14:16Z</time>
      </trkpt>
      <trkpt lat="49.94927" lon="2.17095">
        <ele>17.3</ele>
        <time>2022-04-11T14:14:17Z</time>
      </trkpt>
      <trkpt lat="49.94927" lon="2.17094">
        <ele>17.3</ele>
        <time>2022-04-11T14:14:18Z</time>
      </trkpt>
      <trkpt lat="49.94927" lon="2.17092">
        <ele>17.3</ele>
        <time>2022-04-11T14:14:19Z</time>
      </trkpt>
      <trkpt lat="49.94928" lon="2.1709">
        <ele>17.3</ele>
        <time>2022-04-11T14:14:20Z</time>
      </trkpt>
      <trkpt lat="49.94928" lon="2.17089">
        <ele>17.3</ele>
        <time>2022-04-11T14:14:21Z</time>
      </trkpt>
      <trkpt lat="49.94929" lon="2.17087">
        <ele>17.3</ele>
        <time>2022-04-11T14:14:22Z</time>
      </trkpt>
      <trkpt lat="49.94929" lon="2.17086">
        <ele>17.3</ele>
        <time>2022-04-11T14:14:23Z</time>
      </trkpt>
      <trkpt lat="49.94929" lon="2.17084">
        <ele>17.3</ele>
        <time>2022-04-11T14:14:24Z</time>
      </trkpt>
      <trkpt lat="49.94929" lon="2.17083">
        <ele>17.3</ele>
        <time>2022-04-11T14:14:25Z</time>
      </trkpt>
      <trkpt lat="49.94929" lon="2.17081">
        <ele>17.3</ele>
        <time>2022-04-11T14:14:26Z</time>
      </trkpt>
      <trkpt lat="49.94929" lon="2.17079">
        <ele>17.3</ele>
        <time>2022-04-11T14:14:27Z</time>
      </trkpt>
      <trkpt lat="49.94928" lon="2.17076">
        <ele>17.3</ele>
        <time>2022-04-11T14:14:29Z</time>
      </trkpt>
      <trkpt lat="49.94928" lon="2.17075">
        <ele>17.3</ele>
        <time>2022-04-11T14:14:30Z</time>
      </trkpt>
      <trkpt lat="49.94927" lon="2.17074">
        <ele>17.3</ele>
        <time>2022-04-11T14:14:31Z</time>
      </trkpt>
      <trkpt lat="49.94926" lon="2.17073">
        <ele>17.3</ele>
        <time>2022-04-11T14:14:32Z</time>
      </trkpt>
      <trkpt lat="49.94925" lon="2.17072">
        <ele>17.3</ele>
        <time>2022-04-11T14:14:33Z</time>
      </trkpt>
      <trkpt lat="49.94924" lon="2.17072">
        <ele>17.2</ele>
        <time>2022-04-11T14:14:34Z</time>
      </trkpt>
      <trkpt lat="49.94923" lon="2.1707">
        <ele>17.2</ele>
        <time>2022-04-11T14:14:35Z</time>
      </trkpt>
      <trkpt lat="49.94922" lon="2.17069">
        <ele>17.2</ele>
        <time>2022-04-11T14:14:36Z</time>
      </trkpt>
      <trkpt lat="49.94921" lon="2.17068">
        <ele>17.2</ele>
        <time>2022-04-11T14:14:37Z</time>
      </trkpt>
      <trkpt lat="49.9492" lon="2.17068">
        <ele>17.2</ele>
        <time>2022-04-11T14:14:39Z</time>
      </trkpt>
      <trkpt lat="49.9492" lon="2.17067">
        <ele>17.2</ele>
        <time>2022-04-11T14:14:40Z</time>
      </trkpt>
      <trkpt lat="49.94918" lon="2.17066">
        <ele>17.2</ele>
        <time>2022-04-11T14:14:41Z</time>
      </trkpt>
      <trkpt lat="49.94917" lon="2.17066">
        <ele>17.2</ele>
        <time>2022-04-11T14:14:43Z</time>
      </trkpt>
      <trkpt lat="49.94917" lon="2.17065">
        <ele>17.2</ele>
        <time>2022-04-11T14:14:44Z</time>
      </trkpt>
      <trkpt lat="49.94917" lon="2.17064">
        <ele>17.1</ele>
        <time>2022-04-11T14:14:45Z</time>
      </trkpt>
      <trkpt lat="49.94917" lon="2.17062">
        <ele>17.1</ele>
        <time>2022-04-11T14:14:46Z</time>
      </trkpt>
      <trkpt lat="49.94917" lon="2.17059">
        <ele>17.1</ele>
        <time>2022-04-11T14:14:48Z</time>
      </trkpt>
      <trkpt lat="49.94917" lon="2.17057">
        <ele>17.1</ele>
        <time>2022-04-11T14:14:49Z</time>
      </trkpt>
      <trkpt lat="49.94917" lon="2.17056">
        <ele>17.1</ele>
        <time>2022-04-11T14:14:50Z</time>
      </trkpt>
      <trkpt lat="49.94917" lon="2.17054">
        <ele>17.1</ele>
        <time>2022-04-11T14:14:51Z</time>
      </trkpt>
      <trkpt lat="49.94917" lon="2.17051">
        <ele>17.1</ele>
        <time>2022-04-11T14:14:52Z</time>
      </trkpt>
      <trkpt lat="49.94917" lon="2.17049">
        <ele>17</ele>
        <time>2022-04-11T14:14:53Z</time>
      </trkpt>
      <trkpt lat="49.94917" lon="2.17047">
        <ele>17</ele>
        <time>2022-04-11T14:14:54Z</time>
      </trkpt>
      <trkpt lat="49.94918" lon="2.17044">
        <ele>17</ele>
        <time>2022-04-11T14:14:55Z</time>
      </trkpt>
      <trkpt lat="49.94918" lon="2.17042">
        <ele>17</ele>
        <time>2022-04-11T14:14:57Z</time>
      </trkpt>
      <trkpt lat="49.94918" lon="2.17041">
        <ele>17</ele>
        <time>2022-04-11T14:14:58Z</time>
      </trkpt>
      <trkpt lat="49.94918" lon="2.17039">
        <ele>17</ele>
        <time>2022-04-11T14:14:59Z</time>
      </trkpt>
      <trkpt lat="49.94918" lon="2.17037">
        <ele>17</ele>
        <time>2022-04-11T14:15:00Z</time>
      </trkpt>
      <trkpt lat="49.94919" lon="2.17034">
        <ele>17</ele>
        <time>2022-04-11T14:15:01Z</time>
      </trkpt>
      <trkpt lat="49.94919" lon="2.17032">
        <ele>17</ele>
        <time>2022-04-11T14:15:02Z</time>
      </trkpt>
      <trkpt lat="49.9492" lon="2.1703">
        <ele>17</ele>
        <time>2022-04-11T14:15:03Z</time>
      </trkpt>
      <trkpt lat="49.9492" lon="2.17028">
        <ele>16.9</ele>
        <time>2022-04-11T14:15:05Z</time>
      </trkpt>
      <trkpt lat="49.94921" lon="2.17026">
        <ele>17</ele>
        <time>2022-04-11T14:15:06Z</time>
      </trkpt>
      <trkpt lat="49.94922" lon="2.17025">
        <ele>17</ele>
        <time>2022-04-11T14:15:07Z</time>
      </trkpt>
      <trkpt lat="49.94924" lon="2.17024">
        <ele>17</ele>
        <time>2022-04-11T14:15:08Z</time>
      </trkpt>
      <trkpt lat="49.94925" lon="2.17022">
        <ele>17</ele>
        <time>2022-04-11T14:15:09Z</time>
      </trkpt>
      <trkpt lat="49.94927" lon="2.1702">
        <ele>17</ele>
        <time>2022-04-11T14:15:10Z</time>
      </trkpt>
      <trkpt lat="49.94927" lon="2.17019">
        <ele>17</ele>
        <time>2022-04-11T14:15:11Z</time>
      </trkpt>
      <trkpt lat="49.94928" lon="2.17018">
        <ele>17</ele>
        <time>2022-04-11T14:15:12Z</time>
      </trkpt>
      <trkpt lat="49.94929" lon="2.17015">
        <ele>17</ele>
        <time>2022-04-11T14:15:13Z</time>
      </trkpt>
      <trkpt lat="49.9493" lon="2.17014">
        <ele>17.1</ele>
        <time>2022-04-11T14:15:15Z</time>
      </trkpt>
      <trkpt lat="49.9493" lon="2.17013">
        <ele>17.1</ele>
        <time>2022-04-11T14:15:16Z</time>
      </trkpt>
      <trkpt lat="49.94932" lon="2.17011">
        <ele>17.1</ele>
        <time>2022-04-11T14:15:17Z</time>
      </trkpt>
      <trkpt lat="49.94932" lon="2.1701">
        <ele>17.1</ele>
        <time>2022-04-11T14:15:18Z</time>
      </trkpt>
      <trkpt lat="49.94933" lon="2.17009">
        <ele>17.1</ele>
        <time>2022-04-11T14:15:19Z</time>
      </trkpt>
      <trkpt lat="49.94934" lon="2.17007">
        <ele>17.1</ele>
        <time>2022-04-11T14:15:20Z</time>
      </trkpt>
      <trkpt lat="49.94934" lon="2.17006">
        <ele>17.2</ele>
        <time>2022-04-11T14:15:21Z</time>
      </trkpt>
      <trkpt lat="49.94934" lon="2.17004">
        <ele>17.2</ele>
        <time>2022-04-11T14:15:22Z</time>
      </trkpt>
      <trkpt lat="49.94934" lon="2.17003">
        <ele>17.1</ele>
        <time>2022-04-11T14:15:24Z</time>
      </trkpt>
      <trkpt lat="49.94933" lon="2.17002">
        <ele>17.1</ele>
        <time>2022-04-11T14:15:25Z</time>
      </trkpt>
      <trkpt lat="49.94933" lon="2.17001">
        <ele>17.1</ele>
        <time>2022-04-11T14:15:26Z</time>
      </trkpt>
      <trkpt lat="49.94932" lon="2.17001">
        <ele>17.1</ele>
        <time>2022-04-11T14:15:27Z</time>
      </trkpt>
      <trkpt lat="49.94931" lon="2.17">
        <ele>17.1</ele>
        <time>2022-04-11T14:15:28Z</time>
      </trkpt>
      <trkpt lat="49.9493" lon="2.16999">
        <ele>17.1</ele>
        <time>2022-04-11T14:15:29Z</time>
      </trkpt>
      <trkpt lat="49.94929" lon="2.16998">
        <ele>17</ele>
        <time>2022-04-11T14:15:30Z</time>
      </trkpt>
      <trkpt lat="49.94929" lon="2.16997">
        <ele>17.1</ele>
        <time>2022-04-11T14:15:32Z</time>
      </trkpt>
      <trkpt lat="49.94929" lon="2.16996">
        <ele>17</ele>
        <time>2022-04-11T14:15:33Z</time>
      </trkpt>
      <trkpt lat="49.94928" lon="2.16995">
        <ele>17</ele>
        <time>2022-04-11T14:15:34Z</time>
      </trkpt>
      <trkpt lat="49.94927" lon="2.16994">
        <ele>17</ele>
        <time>2022-04-11T14:15:35Z</time>
      </trkpt>
      <trkpt lat="49.94925" lon="2.16993">
        <ele>16.9</ele>
        <time>2022-04-11T14:15:36Z</time>
      </trkpt>
      <trkpt lat="49.94924" lon="2.16993">
        <ele>17</ele>
        <time>2022-04-11T14:15:37Z</time>
      </trkpt>
      <trkpt lat="49.94923" lon="2.16992">
        <ele>16.9</ele>
        <time>2022-04-11T14:15:38Z</time>
      </trkpt>
      <trkpt lat="49.94921" lon="2.16991">
        <ele>16.9</ele>
        <time>2022-04-11T14:15:39Z</time>
      </trkpt>
      <trkpt lat="49.9492" lon="2.16991">
        <ele>16.9</ele>
        <time>2022-04-11T14:15:41Z</time>
      </trkpt>
      <trkpt lat="49.94919" lon="2.1699">
        <ele>16.8</ele>
        <time>2022-04-11T14:15:42Z</time>
      </trkpt>
      <trkpt lat="49.94918" lon="2.1699">
        <ele>16.8</ele>
        <time>2022-04-11T14:15:43Z</time>
      </trkpt>
      <trkpt lat="49.94917" lon="2.1699">
        <ele>16.8</ele>
        <time>2022-04-11T14:15:44Z</time>
      </trkpt>
      <trkpt lat="49.94915" lon="2.16989">
        <ele>16.8</ele>
        <time>2022-04-11T14:15:45Z</time>
      </trkpt>
      <trkpt lat="49.94913" lon="2.16989">
        <ele>16.7</ele>
        <time>2022-04-11T14:15:46Z</time>
      </trkpt>
      <trkpt lat="49.94912" lon="2.16989">
        <ele>16.7</ele>
        <time>2022-04-11T14:15:47Z</time>
      </trkpt>
      <trkpt lat="49.9491" lon="2.16988">
        <ele>16.7</ele>
        <time>2022-04-11T14:15:48Z</time>
      </trkpt>
      <trkpt lat="49.94909" lon="2.16987">
        <ele>16.7</ele>
        <time>2022-04-11T14:15:49Z</time>
      </trkpt>
      <trkpt lat="49.94907" lon="2.16987">
        <ele>16.7</ele>
        <time>2022-04-11T14:15:50Z</time>
      </trkpt>
      <trkpt lat="49.94906" lon="2.16986">
        <ele>16.6</ele>
        <time>2022-04-11T14:15:52Z</time>
      </trkpt>
      <trkpt lat="49.94905" lon="2.16985">
        <ele>16.6</ele>
        <time>2022-04-11T14:15:53Z</time>
      </trkpt>
      <trkpt lat="49.94903" lon="2.16984">
        <ele>16.6</ele>
        <time>2022-04-11T14:15:54Z</time>
      </trkpt>
      <trkpt lat="49.94902" lon="2.16983">
        <ele>16.6</ele>
        <time>2022-04-11T14:15:55Z</time>
      </trkpt>
      <trkpt lat="49.949" lon="2.16982">
        <ele>16.6</ele>
        <time>2022-04-11T14:15:56Z</time>
      </trkpt>
      <trkpt lat="49.94899" lon="2.16982">
        <ele>16.5</ele>
        <time>2022-04-11T14:15:57Z</time>
      </trkpt>
      <trkpt lat="49.94898" lon="2.16982">
        <ele>16.4</ele>
        <time>2022-04-11T14:15:58Z</time>
      </trkpt>
      <trkpt lat="49.94897" lon="2.16983">
        <ele>16.3</ele>
        <time>2022-04-11T14:16:00Z</time>
      </trkpt>
      <trkpt lat="49.94896" lon="2.16983">
        <ele>16.1</ele>
        <time>2022-04-11T14:16:01Z</time>
      </trkpt>
      <trkpt lat="49.94895" lon="2.16983">
        <ele>16</ele>
        <time>2022-04-11T14:16:02Z</time>
      </trkpt>
      <trkpt lat="49.94894" lon="2.16982">
        <ele>15.8</ele>
        <time>2022-04-11T14:16:03Z</time>
      </trkpt>
      <trkpt lat="49.94893" lon="2.1698">
        <ele>15.7</ele>
        <time>2022-04-11T14:16:04Z</time>
      </trkpt>
      <trkpt lat="49.94892" lon="2.16979">
        <ele>15.6</ele>
        <time>2022-04-11T14:16:06Z</time>
      </trkpt>
      <trkpt lat="49.94892" lon="2.16978">
        <ele>15.5</ele>
        <time>2022-04-11T14:16:07Z</time>
      </trkpt>
      <trkpt lat="49.94891" lon="2.16976">
        <ele>15.2</ele>
        <time>2022-04-11T14:16:08Z</time>
      </trkpt>
      <trkpt lat="49.94891" lon="2.16975">
        <ele>15.2</ele>
        <time>2022-04-11T14:16:09Z</time>
      </trkpt>
      <trkpt lat="49.9489" lon="2.16973">
        <ele>15.2</ele>
        <time>2022-04-11T14:16:10Z</time>
      </trkpt>
      <trkpt lat="49.94889" lon="2.16971">
        <ele>15.1</ele>
        <time>2022-04-11T14:16:11Z</time>
      </trkpt>
      <trkpt lat="49.94888" lon="2.16969">
        <ele>15.1</ele>
        <time>2022-04-11T14:16:13Z</time>
      </trkpt>
      <trkpt lat="49.94887" lon="2.16968">
        <ele>15.1</ele>
        <time>2022-04-11T14:16:14Z</time>
      </trkpt>
      <trkpt lat="49.94886" lon="2.16967">
        <ele>15.1</ele>
        <time>2022-04-11T14:16:15Z</time>
      </trkpt>
      <trkpt lat="49.94884" lon="2.16966">
        <ele>15.1</ele>
        <time>2022-04-11T14:16:16Z</time>
      </trkpt>
      <trkpt lat="49.94883" lon="2.16966">
        <ele>15.1</ele>
        <time>2022-04-11T14:16:17Z</time>
      </trkpt>
      <trkpt lat="49.94882" lon="2.16966">
        <ele>15</ele>
        <time>2022-04-11T14:16:18Z</time>
      </trkpt>
      <trkpt lat="49.94881" lon="2.16966">
        <ele>15</ele>
        <time>2022-04-11T14:16:20Z</time>
      </trkpt>
      <trkpt lat="49.9488" lon="2.16966">
        <ele>15</ele>
        <time>2022-04-11T14:16:21Z</time>
      </trkpt>
      <trkpt lat="49.94879" lon="2.16965">
        <ele>15</ele>
        <time>2022-04-11T14:16:22Z</time>
      </trkpt>
      <trkpt lat="49.94877" lon="2.16964">
        <ele>15</ele>
        <time>2022-04-11T14:16:23Z</time>
      </trkpt>
      <trkpt lat="49.94876" lon="2.16964">
        <ele>15</ele>
        <time>2022-04-11T14:16:24Z</time>
      </trkpt>
      <trkpt lat="49.94875" lon="2.16963">
        <ele>14.9</ele>
        <time>2022-04-11T14:16:25Z</time>
      </trkpt>
      <trkpt lat="49.94874" lon="2.16963">
        <ele>14.9</ele>
        <time>2022-04-11T14:16:26Z</time>
      </trkpt>
      <trkpt lat="49.94873" lon="2.16962">
        <ele>14.9</ele>
        <time>2022-04-11T14:16:28Z</time>
      </trkpt>
      <trkpt lat="49.94872" lon="2.16962">
        <ele>14.9</ele>
        <time>2022-04-11T14:16:29Z</time>
      </trkpt>
      <trkpt lat="49.94872" lon="2.16962">
        <ele>14.9</ele>
        <time>2022-04-11T14:16:30Z</time>
      </trkpt>
      <trkpt lat="49.94871" lon="2.16961">
        <ele>14.9</ele>
        <time>2022-04-11T14:16:31Z</time>
      </trkpt>
      <trkpt lat="49.9487" lon="2.16961">
        <ele>14.9</ele>
        <time>2022-04-11T14:16:32Z</time>
      </trkpt>
      <trkpt lat="49.94869" lon="2.1696">
        <ele>14.9</ele>
        <time>2022-04-11T14:16:33Z</time>
      </trkpt>
      <trkpt lat="49.94869" lon="2.16959">
        <ele>14.9</ele>
        <time>2022-04-11T14:16:35Z</time>
      </trkpt>
      <trkpt lat="49.94868" lon="2.16958">
        <ele>14.8</ele>
        <time>2022-04-11T14:16:36Z</time>
      </trkpt>
      <trkpt lat="49.94867" lon="2.16957">
        <ele>14.8</ele>
        <time>2022-04-11T14:16:37Z</time>
      </trkpt>
      <trkpt lat="49.94867" lon="2.16956">
        <ele>14.8</ele>
        <time>2022-04-11T14:16:38Z</time>
      </trkpt>
      <trkpt lat="49.94866" lon="2.16953">
        <ele>14.8</ele>
        <time>2022-04-11T14:16:39Z</time>
      </trkpt>
      <trkpt lat="49.94865" lon="2.16952">
        <ele>14.8</ele>
        <time>2022-04-11T14:16:40Z</time>
      </trkpt>
      <trkpt lat="49.94865" lon="2.16951">
        <ele>14.8</ele>
        <time>2022-04-11T14:16:41Z</time>
      </trkpt>
      <trkpt lat="49.94864" lon="2.16948">
        <ele>14.8</ele>
        <time>2022-04-11T14:16:43Z</time>
      </trkpt>
      <trkpt lat="49.94863" lon="2.16947">
        <ele>14.8</ele>
        <time>2022-04-11T14:16:44Z</time>
      </trkpt>
      <trkpt lat="49.94863" lon="2.16946">
        <ele>14.8</ele>
        <time>2022-04-11T14:16:45Z</time>
      </trkpt>
      <trkpt lat="49.94862" lon="2.16943">
        <ele>14.8</ele>
        <time>2022-04-11T14:16:46Z</time>
      </trkpt>
      <trkpt lat="49.94861" lon="2.16942">
        <ele>14.8</ele>
        <time>2022-04-11T14:16:47Z</time>
      </trkpt>
      <trkpt lat="49.94861" lon="2.16941">
        <ele>14.8</ele>
        <time>2022-04-11T14:16:48Z</time>
      </trkpt>
      <trkpt lat="49.94859" lon="2.16939">
        <ele>14.8</ele>
        <time>2022-04-11T14:16:49Z</time>
      </trkpt>
      <trkpt lat="49.94859" lon="2.16938">
        <ele>14.8</ele>
        <time>2022-04-11T14:16:51Z</time>
      </trkpt>
      <trkpt lat="49.94858" lon="2.16937">
        <ele>14.8</ele>
        <time>2022-04-11T14:16:52Z</time>
      </trkpt>
      <trkpt lat="49.94857" lon="2.16936">
        <ele>14.8</ele>
        <time>2022-04-11T14:16:53Z</time>
      </trkpt>
      <trkpt lat="49.94856" lon="2.16935">
        <ele>14.8</ele>
        <time>2022-04-11T14:16:54Z</time>
      </trkpt>
      <trkpt lat="49.94855" lon="2.16934">
        <ele>14.8</ele>
        <time>2022-04-11T14:16:55Z</time>
      </trkpt>
      <trkpt lat="49.94854" lon="2.16934">
        <ele>14.8</ele>
        <time>2022-04-11T14:16:57Z</time>
      </trkpt>
      <trkpt lat="49.94853" lon="2.16934">
        <ele>14.8</ele>
        <time>2022-04-11T14:16:58Z</time>
      </trkpt>
      <trkpt lat="49.94852" lon="2.16934">
        <ele>14.8</ele>
        <time>2022-04-11T14:16:59Z</time>
      </trkpt>
      <trkpt lat="49.94851" lon="2.16935">
        <ele>14.8</ele>
        <time>2022-04-11T14:17:01Z</time>
      </trkpt>
      <trkpt lat="49.9485" lon="2.16936">
        <ele>14.8</ele>
        <time>2022-04-11T14:17:02Z</time>
      </trkpt>
      <trkpt lat="49.94849" lon="2.16937">
        <ele>14.8</ele>
        <time>2022-04-11T14:17:03Z</time>
      </trkpt>
      <trkpt lat="49.94849" lon="2.16939">
        <ele>14.8</ele>
        <time>2022-04-11T14:17:04Z</time>
      </trkpt>
      <trkpt lat="49.94848" lon="2.1694">
        <ele>14.8</ele>
        <time>2022-04-11T14:17:05Z</time>
      </trkpt>
      <trkpt lat="49.94848" lon="2.16942">
        <ele>14.8</ele>
        <time>2022-04-11T14:17:07Z</time>
      </trkpt>
      <trkpt lat="49.94848" lon="2.16943">
        <ele>14.8</ele>
        <time>2022-04-11T14:17:08Z</time>
      </trkpt>
      <trkpt lat="49.94847" lon="2.16945">
        <ele>14.8</ele>
        <time>2022-04-11T14:17:09Z</time>
      </trkpt>
      <trkpt lat="49.94847" lon="2.16946">
        <ele>14.8</ele>
        <time>2022-04-11T14:17:10Z</time>
      </trkpt>
      <trkpt lat="49.94847" lon="2.16947">
        <ele>14.8</ele>
        <time>2022-04-11T14:17:11Z</time>
      </trkpt>
      <trkpt lat="49.94847" lon="2.16948">
        <ele>14.8</ele>
        <time>2022-04-11T14:17:12Z</time>
      </trkpt>
      <trkpt lat="49.94847" lon="2.16949">
        <ele>14.8</ele>
        <time>2022-04-11T14:17:13Z</time>
      </trkpt>
      <trkpt lat="49.94847" lon="2.16949">
        <ele>14.8</ele>
        <time>2022-04-11T14:17:14Z</time>
      </trkpt>
      <trkpt lat="49.94847" lon="2.16949">
        <ele>14.8</ele>
        <time>2022-04-11T14:17:15Z</time>
      </trkpt>
      <trkpt lat="49.94847" lon="2.16949">
        <ele>14.8</ele>
        <time>2022-04-11T14:17:16Z</time>
      </trkpt>
      <trkpt lat="49.94847" lon="2.16948">
        <ele>14.8</ele>
        <time>2022-04-11T14:17:17Z</time>
      </trkpt>
      <trkpt lat="49.94847" lon="2.16948">
        <ele>14.8</ele>
        <time>2022-04-11T14:17:18Z</time>
      </trkpt>
      <trkpt lat="49.94847" lon="2.16948">
        <ele>14.8</ele>
        <time>2022-04-11T14:17:19Z</time>
      </trkpt>
      <trkpt lat="49.94847" lon="2.16948">
        <ele>14.8</ele>
        <time>2022-04-11T14:17:20Z</time>
      </trkpt>
      <trkpt lat="49.94847" lon="2.16948">
        <ele>14.8</ele>
        <time>2022-04-11T14:17:21Z</time>
      </trkpt>
      <trkpt lat="49.94846" lon="2.16948">
        <ele>14.8</ele>
        <time>2022-04-11T14:17:22Z</time>
      </trkpt>
      <trkpt lat="49.94846" lon="2.16948">
        <ele>14.8</ele>
        <time>2022-04-11T14:17:23Z</time>
      </trkpt>
      <trkpt lat="49.94846" lon="2.16947">
        <ele>14.8</ele>
        <time>2022-04-11T14:17:24Z</time>
      </trkpt>
      <trkpt lat="49.94846" lon="2.16947">
        <ele>14.8</ele>
        <time>2022-04-11T14:17:25Z</time>
      </trkpt>
      <trkpt lat="49.94846" lon="2.16947">
        <ele>14.8</ele>
        <time>2022-04-11T14:17:26Z</time>
      </trkpt>
      <trkpt lat="49.94847" lon="2.16947">
        <ele>14.8</ele>
        <time>2022-04-11T14:17:27Z</time>
      </trkpt>
      <trkpt lat="49.94847" lon="2.16948">
        <ele>14.8</ele>
        <time>2022-04-11T14:17:28Z</time>
      </trkpt>
      <trkpt lat="49.94847" lon="2.16948">
        <ele>14.8</ele>
        <time>2022-04-11T14:17:29Z</time>
      </trkpt>
      <trkpt lat="49.94847" lon="2.16948">
        <ele>14.8</ele>
        <time>2022-04-11T14:17:30Z</time>
      </trkpt>
      <trkpt lat="49.94847" lon="2.16948">
        <ele>14.8</ele>
        <time>2022-04-11T14:17:31Z</time>
      </trkpt>
      <trkpt lat="49.94847" lon="2.16948">
        <ele>14.8</ele>
        <time>2022-04-11T14:17:32Z</time>
      </trkpt>
      <trkpt lat="49.94847" lon="2.16948">
        <ele>14.8</ele>
        <time>2022-04-11T14:17:33Z</time>
      </trkpt>
      <trkpt lat="49.94847" lon="2.16948">
        <ele>14.8</ele>
        <time>2022-04-11T14:17:34Z</time>
      </trkpt>
      <trkpt lat="49.94847" lon="2.16948">
        <ele>14.8</ele>
        <time>2022-04-11T14:17:35Z</time>
      </trkpt>
      <trkpt lat="49.94847" lon="2.16948">
        <ele>14.8</ele>
        <time>2022-04-11T14:17:36Z</time>
      </trkpt>
      <trkpt lat="49.94847" lon="2.16948">
        <ele>14.8</ele>
        <time>2022-04-11T14:17:37Z</time>
      </trkpt>
      <trkpt lat="49.94847" lon="2.16948">
        <ele>14.8</ele>
        <time>2022-04-11T14:17:38Z</time>
      </trkpt>
      <trkpt lat="49.94847" lon="2.16948">
        <ele>14.8</ele>
        <time>2022-04-11T14:17:39Z</time>
      </trkpt>
      <trkpt lat="49.94847" lon="2.16948">
        <ele>14.8</ele>
        <time>2022-04-11T14:17:40Z</time>
      </trkpt>
      <trkpt lat="49.94847" lon="2.16948">
        <ele>14.8</ele>
        <time>2022-04-11T14:17:41Z</time>
      </trkpt>
      <trkpt lat="49.94847" lon="2.16948">
        <ele>14.8</ele>
        <time>2022-04-11T14:17:42Z</time>
      </trkpt>
      <trkpt lat="49.94847" lon="2.16948">
        <ele>14.8</ele>
        <time>2022-04-11T14:17:43Z</time>
      </trkpt>
      <trkpt lat="49.94847" lon="2.16948">
        <ele>14.8</ele>
        <time>2022-04-11T14:17:44Z</time>
      </trkpt>
      <trkpt lat="49.94847" lon="2.16948">
        <ele>14.8</ele>
        <time>2022-04-11T14:17:45Z</time>
      </trkpt>
      <trkpt lat="49.94847" lon="2.16948">
        <ele>14.8</ele>
        <time>2022-04-11T14:17:46Z</time>
      </trkpt>
      <trkpt lat="49.94847" lon="2.16948">
        <ele>14.8</ele>
        <time>2022-04-11T14:17:47Z</time>
      </trkpt>
      <trkpt lat="49.94847" lon="2.16948">
        <ele>14.8</ele>
        <time>2022-04-11T14:17:48Z</time>
      </trkpt>
      <trkpt lat="49.94847" lon="2.16948">
        <ele>14.8</ele>
        <time>2022-04-11T14:17:49Z</time>
      </trkpt>
      <trkpt lat="49.94847" lon="2.16948">
        <ele>14.8</ele>
        <time>2022-04-11T14:17:50Z</time>
      </trkpt>
      <trkpt lat="49.94847" lon="2.16948">
        <ele>14.8</ele>
        <time>2022-04-11T14:17:51Z</time>
      </trkpt>
      <trkpt lat="49.94847" lon="2.16948">
        <ele>14.8</ele>
        <time>2022-04-11T14:17:52Z</time>
      </trkpt>
      <trkpt lat="49.94847" lon="2.16948">
        <ele>14.8</ele>
        <time>2022-04-11T14:17:53Z</time>
      </trkpt>
      <trkpt lat="49.94847" lon="2.16948">
        <ele>14.8</ele>
        <time>2022-04-11T14:17:54Z</time>
      </trkpt>
      <trkpt lat="49.94847" lon="2.16948">
        <ele>14.8</ele>
        <time>2022-04-11T14:17:55Z</time>
      </trkpt>
      <trkpt lat="49.94847" lon="2.16948">
        <ele>14.8</ele>
        <time>2022-04-11T14:17:56Z</time>
      </trkpt>
      <trkpt lat="49.94847" lon="2.16948">
        <ele>14.8</ele>
        <time>2022-04-11T14:17:57Z</time>
      </trkpt>
      <trkpt lat="49.94847" lon="2.16948">
        <ele>14.8</ele>
        <time>2022-04-11T14:17:58Z</time>
      </trkpt>
      <trkpt lat="49.94847" lon="2.16948">
        <ele>14.8</ele>
        <time>2022-04-11T14:17:59Z</time>
      </trkpt>
      <trkpt lat="49.94847" lon="2.16948">
        <ele>14.8</ele>
        <time>2022-04-11T14:18:00Z</time>
      </trkpt>
      <trkpt lat="49.94847" lon="2.16948">
        <ele>14.8</ele>
        <time>2022-04-11T14:18:01Z</time>
      </trkpt>
      <trkpt lat="49.94847" lon="2.16948">
        <ele>14.8</ele>
        <time>2022-04-11T14:18:02Z</time>
      </trkpt>
      <trkpt lat="49.94847" lon="2.16948">
        <ele>14.8</ele>
        <time>2022-04-11T14:18:03Z</time>
      </trkpt>
      <trkpt lat="49.94847" lon="2.16948">
        <ele>14.8</ele>
        <time>2022-04-11T14:18:04Z</time>
      </trkpt>
      <trkpt lat="49.94847" lon="2.16948">
        <ele>14.8</ele>
        <time>2022-04-11T14:18:05Z</time>
      </trkpt>
      <trkpt lat="49.94847" lon="2.16948">
        <ele>14.8</ele>
        <time>2022-04-11T14:18:06Z</time>
      </trkpt>
      <trkpt lat="49.94847" lon="2.16948">
        <ele>14.8</ele>
        <time>2022-04-11T14:18:07Z</time>
      </trkpt>
      <trkpt lat="49.94847" lon="2.16948">
        <ele>14.8</ele>
        <time>2022-04-11T14:18:08Z</time>
      </trkpt>
      <trkpt lat="49.94847" lon="2.16948">
        <ele>14.8</ele>
        <time>2022-04-11T14:18:09Z</time>
      </trkpt>
      <trkpt lat="49.94847" lon="2.16948">
        <ele>14.8</ele>
        <time>2022-04-11T14:18:10Z</time>
      </trkpt>
      <trkpt lat="49.94847" lon="2.16948">
        <ele>14.8</ele>
        <time>2022-04-11T14:18:11Z</time>
      </trkpt>
      <trkpt lat="49.94847" lon="2.16948">
        <ele>14.8</ele>
        <time>2022-04-11T14:18:12Z</time>
      </trkpt>
      <trkpt lat="49.94847" lon="2.16948">
        <ele>14.8</ele>
        <time>2022-04-11T14:18:13Z</time>
      </trkpt>
      <trkpt lat="49.94847" lon="2.16948">
        <ele>14.8</ele>
        <time>2022-04-11T14:18:14Z</time>
      </trkpt>
      <trkpt lat="49.94847" lon="2.16948">
        <ele>14.8</ele>
        <time>2022-04-11T14:18:15Z</time>
      </trkpt>
      <trkpt lat="49.94847" lon="2.16948">
        <ele>14.8</ele>
        <time>2022-04-11T14:18:16Z</time>
      </trkpt>
      <trkpt lat="49.94849" lon="2.16946">
        <ele>14.8</ele>
        <time>2022-04-11T14:18:17Z</time>
      </trkpt>
      <trkpt lat="49.9485" lon="2.16945">
        <ele>14.8</ele>
        <time>2022-04-11T14:18:18Z</time>
      </trkpt>
      <trkpt lat="49.94851" lon="2.16944">
        <ele>14.8</ele>
        <time>2022-04-11T14:18:19Z</time>
      </trkpt>
      <trkpt lat="49.94851" lon="2.16944">
        <ele>14.8</ele>
        <time>2022-04-11T14:18:20Z</time>
      </trkpt>
      <trkpt lat="49.94852" lon="2.16944">
        <ele>14.8</ele>
        <time>2022-04-11T14:18:21Z</time>
      </trkpt>
      <trkpt lat="49.94852" lon="2.16944">
        <ele>14.8</ele>
        <time>2022-04-11T14:18:22Z</time>
      </trkpt>
      <trkpt lat="49.94852" lon="2.16944">
        <ele>14.8</ele>
        <time>2022-04-11T14:18:23Z</time>
      </trkpt>
      <trkpt lat="49.94852" lon="2.16943">
        <ele>14.8</ele>
        <time>2022-04-11T14:18:24Z</time>
      </trkpt>
      <trkpt lat="49.94851" lon="2.16943">
        <ele>14.8</ele>
        <time>2022-04-11T14:18:25Z</time>
      </trkpt>
      <trkpt lat="49.94851" lon="2.16943">
        <ele>14.8</ele>
        <time>2022-04-11T14:18:26Z</time>
      </trkpt>
      <trkpt lat="49.94851" lon="2.16943">
        <ele>14.8</ele>
        <time>2022-04-11T14:18:27Z</time>
      </trkpt>
      <trkpt lat="49.94851" lon="2.16943">
        <ele>14.8</ele>
        <time>2022-04-11T14:18:28Z</time>
      </trkpt>
      <trkpt lat="49.94851" lon="2.16943">
        <ele>14.8</ele>
        <time>2022-04-11T14:18:29Z</time>
      </trkpt>
      <trkpt lat="49.94851" lon="2.16943">
        <ele>14.8</ele>
        <time>2022-04-11T14:18:30Z</time>
      </trkpt>
      <trkpt lat="49.94851" lon="2.16943">
        <ele>14.8</ele>
        <time>2022-04-11T14:18:31Z</time>
      </trkpt>
      <trkpt lat="49.94851" lon="2.16943">
        <ele>14.8</ele>
        <time>2022-04-11T14:18:32Z</time>
      </trkpt>
      <trkpt lat="49.94851" lon="2.16943">
        <ele>14.8</ele>
        <time>2022-04-11T14:18:33Z</time>
      </trkpt>
      <trkpt lat="49.94851" lon="2.16943">
        <ele>14.8</ele>
        <time>2022-04-11T14:18:34Z</time>
      </trkpt>
      <trkpt lat="49.94851" lon="2.16943">
        <ele>14.8</ele>
        <time>2022-04-11T14:18:35Z</time>
      </trkpt>
      <trkpt lat="49.94851" lon="2.16943">
        <ele>14.8</ele>
        <time>2022-04-11T14:18:36Z</time>
      </trkpt>
      <trkpt lat="49.94851" lon="2.16943">
        <ele>14.8</ele>
        <time>2022-04-11T14:18:37Z</time>
      </trkpt>
      <trkpt lat="49.94851" lon="2.16943">
        <ele>14.8</ele>
        <time>2022-04-11T14:18:38Z</time>
      </trkpt>
      <trkpt lat="49.94851" lon="2.16943">
        <ele>14.8</ele>
        <time>2022-04-11T14:18:39Z</time>
      </trkpt>
      <trkpt lat="49.94851" lon="2.16943">
        <ele>14.8</ele>
        <time>2022-04-11T14:18:40Z</time>
      </trkpt>
      <trkpt lat="49.94851" lon="2.16943">
        <ele>14.8</ele>
        <time>2022-04-11T14:18:41Z</time>
      </trkpt>
      <trkpt lat="49.94851" lon="2.16943">
        <ele>14.8</ele>
        <time>2022-04-11T14:18:42Z</time>
      </trkpt>
      <trkpt lat="49.94851" lon="2.16943">
        <ele>14.8</ele>
        <time>2022-04-11T14:18:43Z</time>
      </trkpt>
      <trkpt lat="49.94851" lon="2.16943">
        <ele>14.8</ele>
        <time>2022-04-11T14:18:44Z</time>
      </trkpt>
      <trkpt lat="49.94851" lon="2.16943">
        <ele>14.8</ele>
        <time>2022-04-11T14:18:45Z</time>
      </trkpt>
      <trkpt lat="49.94851" lon="2.16943">
        <ele>14.8</ele>
        <time>2022-04-11T14:18:46Z</time>
      </trkpt>
      <trkpt lat="49.94851" lon="2.16943">
        <ele>14.8</ele>
        <time>2022-04-11T14:18:47Z</time>
      </trkpt>
      <trkpt lat="49.94851" lon="2.16943">
        <ele>14.8</ele>
        <time>2022-04-11T14:18:48Z</time>
      </trkpt>
      <trkpt lat="49.94851" lon="2.16943">
        <ele>14.8</ele>
        <time>2022-04-11T14:18:49Z</time>
      </trkpt>
      <trkpt lat="49.94851" lon="2.16943">
        <ele>14.8</ele>
        <time>2022-04-11T14:18:50Z</time>
      </trkpt>
      <trkpt lat="49.94851" lon="2.16943">
        <ele>14.8</ele>
        <time>2022-04-11T14:18:51Z</time>
      </trkpt>
      <trkpt lat="49.94851" lon="2.16943">
        <ele>14.8</ele>
        <time>2022-04-11T14:18:52Z</time>
      </trkpt>
      <trkpt lat="49.94851" lon="2.16943">
        <ele>14.8</ele>
        <time>2022-04-11T14:18:53Z</time>
      </trkpt>
      <trkpt lat="49.94851" lon="2.16943">
        <ele>14.8</ele>
        <time>2022-04-11T14:18:54Z</time>
      </trkpt>
      <trkpt lat="49.94851" lon="2.16943">
        <ele>14.8</ele>
        <time>2022-04-11T14:18:55Z</time>
      </trkpt>
      <trkpt lat="49.94851" lon="2.16943">
        <ele>14.8</ele>
        <time>2022-04-11T14:18:56Z</time>
      </trkpt>
      <trkpt lat="49.94851" lon="2.16943">
        <ele>14.8</ele>
        <time>2022-04-11T14:18:57Z</time>
      </trkpt>
      <trkpt lat="49.94851" lon="2.16943">
        <ele>14.8</ele>
        <time>2022-04-11T14:18:58Z</time>
      </trkpt>
      <trkpt lat="49.94851" lon="2.16943">
        <ele>14.8</ele>
        <time>2022-04-11T14:18:59Z</time>
      </trkpt>
      <trkpt lat="49.94851" lon="2.16943">
        <ele>14.8</ele>
        <time>2022-04-11T14:19:00Z</time>
      </trkpt>
      <trkpt lat="49.94851" lon="2.16943">
        <ele>14.8</ele>
        <time>2022-04-11T14:19:01Z</time>
      </trkpt>
      <trkpt lat="49.94851" lon="2.16943">
        <ele>14.8</ele>
        <time>2022-04-11T14:19:02Z</time>
      </trkpt>
      <trkpt lat="49.94851" lon="2.16943">
        <ele>14.8</ele>
        <time>2022-04-11T14:19:03Z</time>
      </trkpt>
      <trkpt lat="49.94851" lon="2.16943">
        <ele>14.8</ele>
        <time>2022-04-11T14:19:04Z</time>
      </trkpt>
      <trkpt lat="49.94851" lon="2.16943">
        <ele>14.8</ele>
        <time>2022-04-11T14:19:05Z</time>
      </trkpt>
      <trkpt lat="49.94851" lon="2.16943">
        <ele>14.8</ele>
        <time>2022-04-11T14:19:06Z</time>
      </trkpt>
      <trkpt lat="49.94851" lon="2.16943">
        <ele>14.8</ele>
        <time>2022-04-11T14:19:07Z</time>
      </trkpt>
      <trkpt lat="49.94851" lon="2.16943">
        <ele>14.8</ele>
        <time>2022-04-11T14:19:08Z</time>
      </trkpt>
      <trkpt lat="49.94851" lon="2.16943">
        <ele>14.8</ele>
        <time>2022-04-11T14:19:09Z</time>
      </trkpt>
      <trkpt lat="49.94851" lon="2.16943">
        <ele>14.8</ele>
        <time>2022-04-11T14:19:10Z</time>
      </trkpt>
      <trkpt lat="49.94851" lon="2.16943">
        <ele>14.8</ele>
        <time>2022-04-11T14:19:11Z</time>
      </trkpt>
      <trkpt lat="49.94851" lon="2.16943">
        <ele>14.8</ele>
        <time>2022-04-11T14:19:12Z</time>
      </trkpt>
      <trkpt lat="49.94851" lon="2.16943">
        <ele>14.8</ele>
        <time>2022-04-11T14:19:13Z</time>
      </trkpt>
      <trkpt lat="49.94851" lon="2.16943">
        <ele>14.8</ele>
        <time>2022-04-11T14:19:14Z</time>
      </trkpt>
      <trkpt lat="49.94851" lon="2.16943">
        <ele>14.8</ele>
        <time>2022-04-11T14:19:15Z</time>
      </trkpt>
      <trkpt lat="49.94851" lon="2.16943">
        <ele>14.8</ele>
        <time>2022-04-11T14:19:16Z</time>
      </trkpt>
      <trkpt lat="49.94851" lon="2.16943">
        <ele>14.8</ele>
        <time>2022-04-11T14:19:17Z</time>
      </trkpt>
      <trkpt lat="49.94851" lon="2.16943">
        <ele>14.8</ele>
        <time>2022-04-11T14:19:18Z</time>
      </trkpt>
      <trkpt lat="49.94851" lon="2.16943">
        <ele>14.8</ele>
        <time>2022-04-11T14:19:19Z</time>
      </trkpt>
      <trkpt lat="49.94851" lon="2.16943">
        <ele>14.8</ele>
        <time>2022-04-11T14:19:20Z</time>
      </trkpt>
      <trkpt lat="49.94851" lon="2.16943">
        <ele>14.8</ele>
        <time>2022-04-11T14:19:21Z</time>
      </trkpt>
      <trkpt lat="49.94851" lon="2.16943">
        <ele>14.8</ele>
        <time>2022-04-11T14:19:22Z</time>
      </trkpt>
      <trkpt lat="49.94851" lon="2.16943">
        <ele>14.8</ele>
        <time>2022-04-11T14:19:23Z</time>
      </trkpt>
      <trkpt lat="49.94851" lon="2.16943">
        <ele>14.8</ele>
        <time>2022-04-11T14:19:24Z</time>
      </trkpt>
      <trkpt lat="49.94851" lon="2.16943">
        <ele>14.8</ele>
        <time>2022-04-11T14:19:25Z</time>
      </trkpt>
      <trkpt lat="49.94851" lon="2.16943">
        <ele>14.8</ele>
        <time>2022-04-11T14:19:26Z</time>
      </trkpt>
      <trkpt lat="49.94851" lon="2.16943">
        <ele>14.8</ele>
        <time>2022-04-11T14:19:27Z</time>
      </trkpt>
      <trkpt lat="49.94851" lon="2.16943">
        <ele>14.8</ele>
        <time>2022-04-11T14:19:28Z</time>
      </trkpt>
      <trkpt lat="49.94851" lon="2.16943">
        <ele>14.8</ele>
        <time>2022-04-11T14:19:29Z</time>
      </trkpt>
      <trkpt lat="49.94851" lon="2.16943">
        <ele>14.8</ele>
        <time>2022-04-11T14:19:30Z</time>
      </trkpt>
      <trkpt lat="49.94851" lon="2.16943">
        <ele>14.8</ele>
        <time>2022-04-11T14:19:31Z</time>
      </trkpt>
      <trkpt lat="49.94851" lon="2.16943">
        <ele>14.8</ele>
        <time>2022-04-11T14:19:32Z</time>
      </trkpt>
      <trkpt lat="49.94851" lon="2.16943">
        <ele>14.8</ele>
        <time>2022-04-11T14:19:33Z</time>
      </trkpt>
      <trkpt lat="49.94851" lon="2.16943">
        <ele>14.8</ele>
        <time>2022-04-11T14:19:34Z</time>
      </trkpt>
      <trkpt lat="49.94851" lon="2.16943">
        <ele>14.8</ele>
        <time>2022-04-11T14:19:35Z</time>
      </trkpt>
      <trkpt lat="49.94851" lon="2.16943">
        <ele>14.8</ele>
        <time>2022-04-11T14:19:36Z</time>
      </trkpt>
      <trkpt lat="49.94851" lon="2.16943">
        <ele>14.8</ele>
        <time>2022-04-11T14:19:37Z</time>
      </trkpt>
      <trkpt lat="49.94851" lon="2.16943">
        <ele>14.8</ele>
        <time>2022-04-11T14:19:38Z</time>
      </trkpt>
      <trkpt lat="49.94851" lon="2.16943">
        <ele>14.8</ele>
        <time>2022-04-11T14:19:39Z</time>
      </trkpt>
      <trkpt lat="49.94851" lon="2.16943">
        <ele>14.8</ele>
        <time>2022-04-11T14:19:40Z</time>
      </trkpt>
      <trkpt lat="49.94851" lon="2.16943">
        <ele>14.8</ele>
        <time>2022-04-11T14:19:41Z</time>
      </trkpt>
      <trkpt lat="49.94851" lon="2.16943">
        <ele>14.8</ele>
        <time>2022-04-11T14:19:42Z</time>
      </trkpt>
      <trkpt lat="49.94851" lon="2.16943">
        <ele>14.8</ele>
        <time>2022-04-11T14:19:43Z</time>
      </trkpt>
      <trkpt lat="49.94851" lon="2.16943">
        <ele>14.8</ele>
        <time>2022-04-11T14:19:44Z</time>
      </trkpt>
      <trkpt lat="49.94851" lon="2.16943">
        <ele>14.8</ele>
        <time>2022-04-11T14:19:45Z</time>
      </trkpt>
      <trkpt lat="49.94851" lon="2.16943">
        <ele>14.8</ele>
        <time>2022-04-11T14:19:46Z</time>
      </trkpt>
      <trkpt lat="49.94851" lon="2.16943">
        <ele>14.8</ele>
        <time>2022-04-11T14:19:47Z</time>
      </trkpt>
      <trkpt lat="49.94851" lon="2.16943">
        <ele>14.8</ele>
        <time>2022-04-11T14:19:48Z</time>
      </trkpt>
      <trkpt lat="49.94851" lon="2.16943">
        <ele>14.8</ele>
        <time>2022-04-11T14:19:49Z</time>
      </trkpt>
      <trkpt lat="49.94851" lon="2.16943">
        <ele>14.8</ele>
        <time>2022-04-11T14:19:50Z</time>
      </trkpt>
      <trkpt lat="49.94851" lon="2.16943">
        <ele>14.8</ele>
        <time>2022-04-11T14:19:51Z</time>
      </trkpt>
      <trkpt lat="49.94851" lon="2.16943">
        <ele>14.8</ele>
        <time>2022-04-11T14:19:52Z</time>
      </trkpt>
      <trkpt lat="49.94851" lon="2.16943">
        <ele>14.8</ele>
        <time>2022-04-11T14:19:53Z</time>
      </trkpt>
      <trkpt lat="49.94851" lon="2.16943">
        <ele>14.8</ele>
        <time>2022-04-11T14:19:54Z</time>
      </trkpt>
      <trkpt lat="49.94851" lon="2.16943">
        <ele>14.8</ele>
        <time>2022-04-11T14:19:55Z</time>
      </trkpt>
      <trkpt lat="49.94851" lon="2.16943">
        <ele>14.8</ele>
        <time>2022-04-11T14:19:56Z</time>
      </trkpt>
      <trkpt lat="49.94851" lon="2.16943">
        <ele>14.8</ele>
        <time>2022-04-11T14:19:57Z</time>
      </trkpt>
      <trkpt lat="49.94851" lon="2.16943">
        <ele>14.8</ele>
        <time>2022-04-11T14:19:58Z</time>
      </trkpt>
      <trkpt lat="49.94851" lon="2.16943">
        <ele>14.8</ele>
        <time>2022-04-11T14:19:59Z</time>
      </trkpt>
      <trkpt lat="49.94851" lon="2.16943">
        <ele>14.8</ele>
        <time>2022-04-11T14:20:00Z</time>
      </trkpt>
      <trkpt lat="49.94851" lon="2.16943">
        <ele>14.8</ele>
        <time>2022-04-11T14:20:01Z</time>
      </trkpt>
      <trkpt lat="49.94851" lon="2.16943">
        <ele>14.8</ele>
        <time>2022-04-11T14:20:02Z</time>
      </trkpt>
      <trkpt lat="49.94851" lon="2.16943">
        <ele>14.8</ele>
        <time>2022-04-11T14:20:03Z</time>
      </trkpt>
      <trkpt lat="49.94851" lon="2.16943">
        <ele>14.8</ele>
        <time>2022-04-11T14:20:04Z</time>
      </trkpt>
      <trkpt lat="49.94851" lon="2.16943">
        <ele>14.8</ele>
        <time>2022-04-11T14:20:05Z</time>
      </trkpt>
      <trkpt lat="49.94851" lon="2.16943">
        <ele>14.8</ele>
        <time>2022-04-11T14:20:06Z</time>
      </trkpt>
      <trkpt lat="49.94851" lon="2.16943">
        <ele>14.8</ele>
        <time>2022-04-11T14:20:07Z</time>
      </trkpt>
      <trkpt lat="49.94851" lon="2.16943">
        <ele>14.8</ele>
        <time>2022-04-11T14:20:08Z</time>
      </trkpt>
      <trkpt lat="49.94851" lon="2.16943">
        <ele>14.8</ele>
        <time>2022-04-11T14:20:09Z</time>
      </trkpt>
      <trkpt lat="49.94851" lon="2.16943">
        <ele>14.8</ele>
        <time>2022-04-11T14:20:10Z</time>
      </trkpt>
      <trkpt lat="49.94851" lon="2.16943">
        <ele>14.8</ele>
        <time>2022-04-11T14:20:11Z</time>
      </trkpt>
      <trkpt lat="49.94851" lon="2.16943">
        <ele>14.8</ele>
        <time>2022-04-11T14:20:12Z</time>
      </trkpt>
      <trkpt lat="49.94851" lon="2.16943">
        <ele>14.8</ele>
        <time>2022-04-11T14:20:13Z</time>
      </trkpt>
      <trkpt lat="49.94851" lon="2.16943">
        <ele>14.8</ele>
        <time>2022-04-11T14:20:14Z</time>
      </trkpt>
      <trkpt lat="49.94851" lon="2.16943">
        <ele>14.8</ele>
        <time>2022-04-11T14:20:15Z</time>
      </trkpt>
      <trkpt lat="49.9485" lon="2.16945">
        <ele>14.8</ele>
        <time>2022-04-11T14:20:16Z</time>
      </trkpt>
      <trkpt lat="49.9485" lon="2.16946">
        <ele>14.8</ele>
        <time>2022-04-11T14:20:17Z</time>
      </trkpt>
      <trkpt lat="49.9485" lon="2.16946">
        <ele>14.8</ele>
        <time>2022-04-11T14:20:18Z</time>
      </trkpt>
      <trkpt lat="49.94851" lon="2.16946">
        <ele>14.8</ele>
        <time>2022-04-11T14:20:19Z</time>
      </trkpt>
      <trkpt lat="49.9485" lon="2.16946">
        <ele>14.8</ele>
        <time>2022-04-11T14:20:20Z</time>
      </trkpt>
      <trkpt lat="49.9485" lon="2.16945">
        <ele>14.8</ele>
        <time>2022-04-11T14:20:21Z</time>
      </trkpt>
      <trkpt lat="49.9485" lon="2.16944">
        <ele>14.8</ele>
        <time>2022-04-11T14:20:22Z</time>
      </trkpt>
      <trkpt lat="49.94851" lon="2.16944">
        <ele>14.8</ele>
        <time>2022-04-11T14:20:23Z</time>
      </trkpt>
      <trkpt lat="49.94851" lon="2.16944">
        <ele>14.8</ele>
        <time>2022-04-11T14:20:24Z</time>
      </trkpt>
      <trkpt lat="49.94851" lon="2.16944">
        <ele>14.8</ele>
        <time>2022-04-11T14:20:25Z</time>
      </trkpt>
      <trkpt lat="49.94851" lon="2.16945">
        <ele>14.8</ele>
        <time>2022-04-11T14:20:26Z</time>
      </trkpt>
      <trkpt lat="49.9485" lon="2.16945">
        <ele>14.8</ele>
        <time>2022-04-11T14:20:27Z</time>
      </trkpt>
      <trkpt lat="49.9485" lon="2.16945">
        <ele>14.8</ele>
        <time>2022-04-11T14:20:28Z</time>
      </trkpt>
      <trkpt lat="49.9485" lon="2.16945">
        <ele>14.8</ele>
        <time>2022-04-11T14:20:29Z</time>
      </trkpt>
      <trkpt lat="49.9485" lon="2.16945">
        <ele>14.8</ele>
        <time>2022-04-11T14:20:30Z</time>
      </trkpt>
      <trkpt lat="49.9485" lon="2.16945">
        <ele>14.8</ele>
        <time>2022-04-11T14:20:31Z</time>
      </trkpt>
      <trkpt lat="49.9485" lon="2.16945">
        <ele>14.8</ele>
        <time>2022-04-11T14:20:32Z</time>
      </trkpt>
      <trkpt lat="49.94851" lon="2.16945">
        <ele>14.8</ele>
        <time>2022-04-11T14:20:34Z</time>
      </trkpt>
      <trkpt lat="49.94851" lon="2.16945">
        <ele>14.8</ele>
        <time>2022-04-11T14:20:35Z</time>
      </trkpt>
      <trkpt lat="49.94851" lon="2.16945">
        <ele>14.8</ele>
        <time>2022-04-11T14:20:36Z</time>
      </trkpt>
      <trkpt lat="49.94851" lon="2.16945">
        <ele>14.8</ele>
        <time>2022-04-11T14:20:37Z</time>
      </trkpt>
      <trkpt lat="49.94851" lon="2.16945">
        <ele>14.8</ele>
        <time>2022-04-11T14:20:38Z</time>
      </trkpt>
      <trkpt lat="49.94851" lon="2.16945">
        <ele>14.8</ele>
        <time>2022-04-11T14:20:39Z</time>
      </trkpt>
      <trkpt lat="49.94851" lon="2.16945">
        <ele>14.8</ele>
        <time>2022-04-11T14:20:40Z</time>
      </trkpt>
      <trkpt lat="49.9485" lon="2.16945">
        <ele>14.8</ele>
        <time>2022-04-11T14:20:41Z</time>
      </trkpt>
      <trkpt lat="49.9485" lon="2.16945">
        <ele>14.8</ele>
        <time>2022-04-11T14:20:42Z</time>
      </trkpt>
      <trkpt lat="49.9485" lon="2.16945">
        <ele>14.8</ele>
        <time>2022-04-11T14:20:43Z</time>
      </trkpt>
      <trkpt lat="49.9485" lon="2.16945">
        <ele>14.8</ele>
        <time>2022-04-11T14:20:44Z</time>
      </trkpt>
      <trkpt lat="49.9485" lon="2.16945">
        <ele>14.8</ele>
        <time>2022-04-11T14:20:45Z</time>
      </trkpt>
      <trkpt lat="49.9485" lon="2.16945">
        <ele>14.8</ele>
        <time>2022-04-11T14:20:46Z</time>
      </trkpt>
      <trkpt lat="49.9485" lon="2.16945">
        <ele>14.8</ele>
        <time>2022-04-11T14:20:47Z</time>
      </trkpt>
      <trkpt lat="49.9485" lon="2.16945">
        <ele>14.8</ele>
        <time>2022-04-11T14:20:48Z</time>
      </trkpt>
      <trkpt lat="49.9485" lon="2.16945">
        <ele>14.8</ele>
        <time>2022-04-11T14:20:49Z</time>
      </trkpt>
      <trkpt lat="49.9485" lon="2.16945">
        <ele>14.8</ele>
        <time>2022-04-11T14:20:50Z</time>
      </trkpt>
      <trkpt lat="49.9485" lon="2.16945">
        <ele>14.8</ele>
        <time>2022-04-11T14:20:51Z</time>
      </trkpt>
      <trkpt lat="49.9485" lon="2.16945">
        <ele>14.8</ele>
        <time>2022-04-11T14:20:52Z</time>
      </trkpt>
      <trkpt lat="49.9485" lon="2.16945">
        <ele>14.8</ele>
        <time>2022-04-11T14:20:53Z</time>
      </trkpt>
      <trkpt lat="49.9485" lon="2.16945">
        <ele>14.8</ele>
        <time>2022-04-11T14:20:54Z</time>
      </trkpt>
      <trkpt lat="49.9485" lon="2.16945">
        <ele>14.8</ele>
        <time>2022-04-11T14:20:55Z</time>
      </trkpt>
      <trkpt lat="49.9485" lon="2.16945">
        <ele>14.8</ele>
        <time>2022-04-11T14:20:56Z</time>
      </trkpt>
      <trkpt lat="49.9485" lon="2.16945">
        <ele>14.8</ele>
        <time>2022-04-11T14:20:57Z</time>
      </trkpt>
      <trkpt lat="49.9485" lon="2.16945">
        <ele>14.8</ele>
        <time>2022-04-11T14:20:58Z</time>
      </trkpt>
      <trkpt lat="49.9485" lon="2.16945">
        <ele>14.8</ele>
        <time>2022-04-11T14:20:59Z</time>
      </trkpt>
      <trkpt lat="49.9485" lon="2.16945">
        <ele>14.8</ele>
        <time>2022-04-11T14:21:00Z</time>
      </trkpt>
      <trkpt lat="49.9485" lon="2.16945">
        <ele>14.8</ele>
        <time>2022-04-11T14:21:01Z</time>
      </trkpt>
      <trkpt lat="49.9485" lon="2.16945">
        <ele>14.8</ele>
        <time>2022-04-11T14:21:02Z</time>
      </trkpt>
      <trkpt lat="49.9485" lon="2.16945">
        <ele>14.8</ele>
        <time>2022-04-11T14:21:03Z</time>
      </trkpt>
      <trkpt lat="49.9485" lon="2.16945">
        <ele>14.8</ele>
        <time>2022-04-11T14:21:04Z</time>
      </trkpt>
      <trkpt lat="49.9485" lon="2.16945">
        <ele>14.8</ele>
        <time>2022-04-11T14:21:05Z</time>
      </trkpt>
      <trkpt lat="49.9485" lon="2.16945">
        <ele>14.8</ele>
        <time>2022-04-11T14:21:06Z</time>
      </trkpt>
      <trkpt lat="49.9485" lon="2.16945">
        <ele>14.8</ele>
        <time>2022-04-11T14:21:07Z</time>
      </trkpt>
      <trkpt lat="49.9485" lon="2.16945">
        <ele>14.8</ele>
        <time>2022-04-11T14:21:08Z</time>
      </trkpt>
      <trkpt lat="49.9485" lon="2.16945">
        <ele>14.8</ele>
        <time>2022-04-11T14:21:09Z</time>
      </trkpt>
      <trkpt lat="49.9485" lon="2.16945">
        <ele>14.8</ele>
        <time>2022-04-11T14:21:10Z</time>
      </trkpt>
      <trkpt lat="49.9485" lon="2.16945">
        <ele>14.8</ele>
        <time>2022-04-11T14:21:11Z</time>
      </trkpt>
      <trkpt lat="49.9485" lon="2.16945">
        <ele>14.8</ele>
        <time>2022-04-11T14:21:12Z</time>
      </trkpt>
      <trkpt lat="49.9485" lon="2.16945">
        <ele>14.8</ele>
        <time>2022-04-11T14:21:13Z</time>
      </trkpt>
      <trkpt lat="49.9485" lon="2.16945">
        <ele>14.8</ele>
        <time>2022-04-11T14:21:14Z</time>
      </trkpt>
      <trkpt lat="49.9485" lon="2.16945">
        <ele>14.8</ele>
        <time>2022-04-11T14:21:15Z</time>
      </trkpt>
      <trkpt lat="49.9485" lon="2.16945">
        <ele>14.8</ele>
        <time>2022-04-11T14:21:16Z</time>
      </trkpt>
      <trkpt lat="49.9485" lon="2.16945">
        <ele>14.8</ele>
        <time>2022-04-11T14:21:17Z</time>
      </trkpt>
      <trkpt lat="49.9485" lon="2.16945">
        <ele>14.8</ele>
        <time>2022-04-11T14:21:18Z</time>
      </trkpt>
      <trkpt lat="49.9485" lon="2.16945">
        <ele>14.8</ele>
        <time>2022-04-11T14:21:19Z</time>
      </trkpt>
      <trkpt lat="49.9485" lon="2.16945">
        <ele>14.8</ele>
        <time>2022-04-11T14:21:20Z</time>
      </trkpt>
      <trkpt lat="49.9485" lon="2.16945">
        <ele>14.8</ele>
        <time>2022-04-11T14:21:22Z</time>
      </trkpt>
      <trkpt lat="49.9485" lon="2.16944">
        <ele>14.8</ele>
        <time>2022-04-11T14:21:23Z</time>
      </trkpt>
      <trkpt lat="49.9485" lon="2.16944">
        <ele>14.8</ele>
        <time>2022-04-11T14:21:24Z</time>
      </trkpt>
      <trkpt lat="49.9485" lon="2.16944">
        <ele>14.8</ele>
        <time>2022-04-11T14:21:25Z</time>
      </trkpt>
      <trkpt lat="49.94849" lon="2.16943">
        <ele>14.8</ele>
        <time>2022-04-11T14:21:27Z</time>
      </trkpt>
      <trkpt lat="49.94849" lon="2.16943">
        <ele>14.8</ele>
        <time>2022-04-11T14:21:29Z</time>
      </trkpt>
      <trkpt lat="49.94849" lon="2.16943">
        <ele>14.8</ele>
        <time>2022-04-11T14:21:30Z</time>
      </trkpt>
      <trkpt lat="49.94848" lon="2.16943">
        <ele>14.8</ele>
        <time>2022-04-11T14:21:31Z</time>
      </trkpt>
      <trkpt lat="49.94848" lon="2.16944">
        <ele>14.8</ele>
        <time>2022-04-11T14:21:32Z</time>
      </trkpt>
      <trkpt lat="49.94848" lon="2.16944">
        <ele>14.8</ele>
        <time>2022-04-11T14:21:33Z</time>
      </trkpt>
      <trkpt lat="49.94848" lon="2.16944">
        <ele>14.8</ele>
        <time>2022-04-11T14:21:34Z</time>
      </trkpt>
      <trkpt lat="49.94848" lon="2.16945">
        <ele>14.8</ele>
        <time>2022-04-11T14:21:35Z</time>
      </trkpt>
      <trkpt lat="49.94848" lon="2.16945">
        <ele>14.8</ele>
        <time>2022-04-11T14:21:36Z</time>
      </trkpt>
      <trkpt lat="49.94848" lon="2.16945">
        <ele>14.8</ele>
        <time>2022-04-11T14:21:37Z</time>
      </trkpt>
      <trkpt lat="49.94848" lon="2.16945">
        <ele>14.8</ele>
        <time>2022-04-11T14:21:38Z</time>
      </trkpt>
      <trkpt lat="49.94848" lon="2.16945">
        <ele>14.8</ele>
        <time>2022-04-11T14:21:39Z</time>
      </trkpt>
      <trkpt lat="49.94848" lon="2.16945">
        <ele>14.8</ele>
        <time>2022-04-11T14:21:40Z</time>
      </trkpt>
      <trkpt lat="49.94848" lon="2.16945">
        <ele>14.8</ele>
        <time>2022-04-11T14:21:41Z</time>
      </trkpt>
      <trkpt lat="49.94848" lon="2.16945">
        <ele>14.8</ele>
        <time>2022-04-11T14:21:42Z</time>
      </trkpt>
      <trkpt lat="49.94848" lon="2.16945">
        <ele>14.8</ele>
        <time>2022-04-11T14:21:43Z</time>
      </trkpt>
      <trkpt lat="49.94847" lon="2.16945">
        <ele>14.8</ele>
        <time>2022-04-11T14:21:44Z</time>
      </trkpt>
      <trkpt lat="49.94847" lon="2.16945">
        <ele>14.8</ele>
        <time>2022-04-11T14:21:45Z</time>
      </trkpt>
      <trkpt lat="49.94847" lon="2.16945">
        <ele>14.8</ele>
        <time>2022-04-11T14:21:46Z</time>
      </trkpt>
      <trkpt lat="49.94848" lon="2.16945">
        <ele>14.8</ele>
        <time>2022-04-11T14:21:47Z</time>
      </trkpt>
      <trkpt lat="49.94848" lon="2.16945">
        <ele>14.8</ele>
        <time>2022-04-11T14:21:48Z</time>
      </trkpt>
      <trkpt lat="49.94848" lon="2.16945">
        <ele>14.8</ele>
        <time>2022-04-11T14:21:49Z</time>
      </trkpt>
      <trkpt lat="49.94848" lon="2.16945">
        <ele>14.8</ele>
        <time>2022-04-11T14:21:50Z</time>
      </trkpt>
      <trkpt lat="49.94848" lon="2.16945">
        <ele>14.8</ele>
        <time>2022-04-11T14:21:51Z</time>
      </trkpt>
      <trkpt lat="49.94848" lon="2.16945">
        <ele>14.8</ele>
        <time>2022-04-11T14:21:52Z</time>
      </trkpt>
      <trkpt lat="49.94848" lon="2.16945">
        <ele>14.8</ele>
        <time>2022-04-11T14:21:53Z</time>
      </trkpt>
      <trkpt lat="49.94848" lon="2.16945">
        <ele>14.8</ele>
        <time>2022-04-11T14:21:54Z</time>
      </trkpt>
      <trkpt lat="49.94848" lon="2.16945">
        <ele>14.8</ele>
        <time>2022-04-11T14:21:55Z</time>
      </trkpt>
      <trkpt lat="49.94848" lon="2.16945">
        <ele>14.8</ele>
        <time>2022-04-11T14:21:56Z</time>
      </trkpt>
      <trkpt lat="49.94848" lon="2.16945">
        <ele>14.8</ele>
        <time>2022-04-11T14:21:57Z</time>
      </trkpt>
      <trkpt lat="49.94848" lon="2.16945">
        <ele>14.8</ele>
        <time>2022-04-11T14:21:58Z</time>
      </trkpt>
      <trkpt lat="49.94848" lon="2.16945">
        <ele>14.8</ele>
        <time>2022-04-11T14:21:59Z</time>
      </trkpt>
      <trkpt lat="49.94848" lon="2.16945">
        <ele>14.8</ele>
        <time>2022-04-11T14:22:00Z</time>
      </trkpt>
      <trkpt lat="49.94848" lon="2.16945">
        <ele>14.8</ele>
        <time>2022-04-11T14:22:01Z</time>
      </trkpt>
      <trkpt lat="49.94848" lon="2.16945">
        <ele>14.8</ele>
        <time>2022-04-11T14:22:02Z</time>
      </trkpt>
      <trkpt lat="49.94848" lon="2.16945">
        <ele>14.8</ele>
        <time>2022-04-11T14:22:03Z</time>
      </trkpt>
      <trkpt lat="49.94848" lon="2.16945">
        <ele>14.8</ele>
        <time>2022-04-11T14:22:04Z</time>
      </trkpt>
      <trkpt lat="49.94848" lon="2.16945">
        <ele>14.8</ele>
        <time>2022-04-11T14:22:05Z</time>
      </trkpt>
      <trkpt lat="49.94848" lon="2.16945">
        <ele>14.8</ele>
        <time>2022-04-11T14:22:06Z</time>
      </trkpt>
      <trkpt lat="49.94848" lon="2.16945">
        <ele>14.8</ele>
        <time>2022-04-11T14:22:07Z</time>
      </trkpt>
      <trkpt lat="49.94848" lon="2.16945">
        <ele>14.8</ele>
        <time>2022-04-11T14:22:08Z</time>
      </trkpt>
      <trkpt lat="49.94848" lon="2.16945">
        <ele>14.8</ele>
        <time>2022-04-11T14:22:09Z</time>
      </trkpt>
      <trkpt lat="49.94848" lon="2.16945">
        <ele>14.8</ele>
        <time>2022-04-11T14:22:10Z</time>
      </trkpt>
      <trkpt lat="49.94848" lon="2.16945">
        <ele>14.8</ele>
        <time>2022-04-11T14:22:11Z</time>
      </trkpt>
      <trkpt lat="49.94848" lon="2.16945">
        <ele>14.8</ele>
        <time>2022-04-11T14:22:12Z</time>
      </trkpt>
      <trkpt lat="49.94848" lon="2.16945">
        <ele>14.8</ele>
        <time>2022-04-11T14:22:13Z</time>
      </trkpt>
      <trkpt lat="49.94848" lon="2.16945">
        <ele>14.8</ele>
        <time>2022-04-11T14:22:14Z</time>
      </trkpt>
      <trkpt lat="49.94848" lon="2.16945">
        <ele>14.8</ele>
        <time>2022-04-11T14:22:15Z</time>
      </trkpt>
      <trkpt lat="49.94848" lon="2.16945">
        <ele>14.8</ele>
        <time>2022-04-11T14:22:16Z</time>
      </trkpt>
      <trkpt lat="49.94848" lon="2.16945">
        <ele>14.8</ele>
        <time>2022-04-11T14:22:17Z</time>
      </trkpt>
      <trkpt lat="49.94848" lon="2.16945">
        <ele>14.8</ele>
        <time>2022-04-11T14:22:18Z</time>
      </trkpt>
      <trkpt lat="49.94848" lon="2.16945">
        <ele>14.8</ele>
        <time>2022-04-11T14:22:19Z</time>
      </trkpt>
      <trkpt lat="49.94848" lon="2.16945">
        <ele>14.8</ele>
        <time>2022-04-11T14:22:20Z</time>
      </trkpt>
      <trkpt lat="49.94848" lon="2.16945">
        <ele>14.8</ele>
        <time>2022-04-11T14:22:21Z</time>
      </trkpt>
      <trkpt lat="49.94848" lon="2.16945">
        <ele>14.8</ele>
        <time>2022-04-11T14:22:22Z</time>
      </trkpt>
      <trkpt lat="49.94848" lon="2.16945">
        <ele>14.8</ele>
        <time>2022-04-11T14:22:23Z</time>
      </trkpt>
      <trkpt lat="49.94848" lon="2.16945">
        <ele>14.8</ele>
        <time>2022-04-11T14:22:24Z</time>
      </trkpt>
      <trkpt lat="49.94848" lon="2.16945">
        <ele>14.8</ele>
        <time>2022-04-11T14:22:25Z</time>
      </trkpt>
      <trkpt lat="49.94848" lon="2.16945">
        <ele>14.8</ele>
        <time>2022-04-11T14:22:26Z</time>
      </trkpt>
      <trkpt lat="49.94848" lon="2.16945">
        <ele>14.8</ele>
        <time>2022-04-11T14:22:27Z</time>
      </trkpt>
      <trkpt lat="49.94848" lon="2.16945">
        <ele>14.8</ele>
        <time>2022-04-11T14:22:28Z</time>
      </trkpt>
      <trkpt lat="49.94848" lon="2.16945">
        <ele>14.8</ele>
        <time>2022-04-11T14:22:29Z</time>
      </trkpt>
      <trkpt lat="49.94848" lon="2.16945">
        <ele>14.8</ele>
        <time>2022-04-11T14:22:30Z</time>
      </trkpt>
      <trkpt lat="49.94848" lon="2.16945">
        <ele>14.8</ele>
        <time>2022-04-11T14:22:31Z</time>
      </trkpt>
      <trkpt lat="49.94848" lon="2.16945">
        <ele>14.8</ele>
        <time>2022-04-11T14:22:32Z</time>
      </trkpt>
      <trkpt lat="49.94848" lon="2.16945">
        <ele>14.8</ele>
        <time>2022-04-11T14:22:33Z</time>
      </trkpt>
      <trkpt lat="49.94848" lon="2.16945">
        <ele>14.8</ele>
        <time>2022-04-11T14:22:34Z</time>
      </trkpt>
      <trkpt lat="49.94848" lon="2.16945">
        <ele>14.8</ele>
        <time>2022-04-11T14:22:35Z</time>
      </trkpt>
      <trkpt lat="49.94848" lon="2.16945">
        <ele>14.8</ele>
        <time>2022-04-11T14:22:36Z</time>
      </trkpt>
      <trkpt lat="49.94848" lon="2.16945">
        <ele>14.8</ele>
        <time>2022-04-11T14:22:37Z</time>
      </trkpt>
      <trkpt lat="49.94848" lon="2.16945">
        <ele>14.8</ele>
        <time>2022-04-11T14:22:38Z</time>
      </trkpt>
      <trkpt lat="49.94848" lon="2.16945">
        <ele>14.8</ele>
        <time>2022-04-11T14:22:39Z</time>
      </trkpt>
      <trkpt lat="49.94848" lon="2.16945">
        <ele>14.8</ele>
        <time>2022-04-11T14:22:40Z</time>
      </trkpt>
      <trkpt lat="49.94848" lon="2.16945">
        <ele>14.8</ele>
        <time>2022-04-11T14:22:41Z</time>
      </trkpt>
      <trkpt lat="49.94848" lon="2.16945">
        <ele>14.8</ele>
        <time>2022-04-11T14:22:42Z</time>
      </trkpt>
      <trkpt lat="49.94848" lon="2.16945">
        <ele>14.8</ele>
        <time>2022-04-11T14:22:43Z</time>
      </trkpt>
      <trkpt lat="49.94848" lon="2.16945">
        <ele>14.8</ele>
        <time>2022-04-11T14:22:44Z</time>
      </trkpt>
      <trkpt lat="49.94848" lon="2.16945">
        <ele>14.8</ele>
        <time>2022-04-11T14:22:45Z</time>
      </trkpt>
      <trkpt lat="49.94848" lon="2.16945">
        <ele>14.8</ele>
        <time>2022-04-11T14:22:46Z</time>
      </trkpt>
      <trkpt lat="49.94848" lon="2.16945">
        <ele>14.8</ele>
        <time>2022-04-11T14:22:47Z</time>
      </trkpt>
      <trkpt lat="49.94848" lon="2.16945">
        <ele>14.8</ele>
        <time>2022-04-11T14:22:48Z</time>
      </trkpt>
      <trkpt lat="49.94848" lon="2.16945">
        <ele>14.8</ele>
        <time>2022-04-11T14:22:49Z</time>
      </trkpt>
      <trkpt lat="49.94848" lon="2.16945">
        <ele>14.8</ele>
        <time>2022-04-11T14:22:50Z</time>
      </trkpt>
      <trkpt lat="49.94848" lon="2.16945">
        <ele>14.8</ele>
        <time>2022-04-11T14:22:51Z</time>
      </trkpt>
      <trkpt lat="49.94848" lon="2.16945">
        <ele>14.8</ele>
        <time>2022-04-11T14:22:52Z</time>
      </trkpt>
      <trkpt lat="49.94848" lon="2.16945">
        <ele>14.8</ele>
        <time>2022-04-11T14:22:53Z</time>
      </trkpt>
      <trkpt lat="49.94848" lon="2.16945">
        <ele>14.8</ele>
        <time>2022-04-11T14:22:54Z</time>
      </trkpt>
      <trkpt lat="49.94848" lon="2.16945">
        <ele>14.8</ele>
        <time>2022-04-11T14:22:55Z</time>
      </trkpt>
      <trkpt lat="49.94848" lon="2.16945">
        <ele>14.8</ele>
        <time>2022-04-11T14:22:56Z</time>
      </trkpt>
      <trkpt lat="49.94848" lon="2.16945">
        <ele>14.8</ele>
        <time>2022-04-11T14:22:57Z</time>
      </trkpt>
      <trkpt lat="49.94848" lon="2.16945">
        <ele>14.8</ele>
        <time>2022-04-11T14:22:58Z</time>
      </trkpt>
      <trkpt lat="49.94848" lon="2.16945">
        <ele>14.8</ele>
        <time>2022-04-11T14:22:59Z</time>
      </trkpt>
      <trkpt lat="49.94848" lon="2.16945">
        <ele>14.8</ele>
        <time>2022-04-11T14:23:00Z</time>
      </trkpt>
      <trkpt lat="49.94848" lon="2.16945">
        <ele>14.8</ele>
        <time>2022-04-11T14:23:01Z</time>
      </trkpt>
      <trkpt lat="49.94848" lon="2.16945">
        <ele>14.8</ele>
        <time>2022-04-11T14:23:02Z</time>
      </trkpt>
      <trkpt lat="49.94848" lon="2.16945">
        <ele>14.8</ele>
        <time>2022-04-11T14:23:03Z</time>
      </trkpt>
      <trkpt lat="49.94848" lon="2.16945">
        <ele>14.8</ele>
        <time>2022-04-11T14:23:04Z</time>
      </trkpt>
      <trkpt lat="49.94848" lon="2.16945">
        <ele>14.8</ele>
        <time>2022-04-11T14:23:05Z</time>
      </trkpt>
      <trkpt lat="49.94848" lon="2.16945">
        <ele>14.8</ele>
        <time>2022-04-11T14:23:06Z</time>
      </trkpt>
      <trkpt lat="49.94848" lon="2.16945">
        <ele>14.8</ele>
        <time>2022-04-11T14:23:07Z</time>
      </trkpt>
      <trkpt lat="49.94848" lon="2.16945">
        <ele>14.8</ele>
        <time>2022-04-11T14:23:08Z</time>
      </trkpt>
      <trkpt lat="49.94848" lon="2.16945">
        <ele>14.8</ele>
        <time>2022-04-11T14:23:09Z</time>
      </trkpt>
      <trkpt lat="49.94848" lon="2.16945">
        <ele>14.8</ele>
        <time>2022-04-11T14:23:10Z</time>
      </trkpt>
      <trkpt lat="49.94848" lon="2.16945">
        <ele>14.8</ele>
        <time>2022-04-11T14:23:11Z</time>
      </trkpt>
      <trkpt lat="49.94848" lon="2.16945">
        <ele>14.8</ele>
        <time>2022-04-11T14:23:12Z</time>
      </trkpt>
      <trkpt lat="49.94848" lon="2.16945">
        <ele>14.8</ele>
        <time>2022-04-11T14:23:13Z</time>
      </trkpt>
      <trkpt lat="49.94848" lon="2.16945">
        <ele>14.8</ele>
        <time>2022-04-11T14:23:14Z</time>
      </trkpt>
      <trkpt lat="49.94848" lon="2.16945">
        <ele>14.8</ele>
        <time>2022-04-11T14:23:15Z</time>
      </trkpt>
      <trkpt lat="49.94848" lon="2.16945">
        <ele>14.8</ele>
        <time>2022-04-11T14:23:16Z</time>
      </trkpt>
      <trkpt lat="49.94848" lon="2.16945">
        <ele>14.8</ele>
        <time>2022-04-11T14:23:17Z</time>
      </trkpt>
      <trkpt lat="49.94848" lon="2.16945">
        <ele>14.8</ele>
        <time>2022-04-11T14:23:18Z</time>
      </trkpt>
      <trkpt lat="49.94848" lon="2.16945">
        <ele>14.8</ele>
        <time>2022-04-11T14:23:19Z</time>
      </trkpt>
      <trkpt lat="49.94848" lon="2.16945">
        <ele>14.8</ele>
        <time>2022-04-11T14:23:20Z</time>
      </trkpt>
      <trkpt lat="49.94848" lon="2.16945">
        <ele>14.8</ele>
        <time>2022-04-11T14:23:21Z</time>
      </trkpt>
      <trkpt lat="49.94848" lon="2.16945">
        <ele>14.8</ele>
        <time>2022-04-11T14:23:22Z</time>
      </trkpt>
      <trkpt lat="49.94848" lon="2.16945">
        <ele>14.8</ele>
        <time>2022-04-11T14:23:23Z</time>
      </trkpt>
      <trkpt lat="49.94848" lon="2.16945">
        <ele>14.8</ele>
        <time>2022-04-11T14:23:24Z</time>
      </trkpt>
      <trkpt lat="49.94848" lon="2.16945">
        <ele>14.8</ele>
        <time>2022-04-11T14:23:25Z</time>
      </trkpt>
      <trkpt lat="49.94848" lon="2.16945">
        <ele>14.8</ele>
        <time>2022-04-11T14:23:26Z</time>
      </trkpt>
      <trkpt lat="49.94848" lon="2.16945">
        <ele>14.8</ele>
        <time>2022-04-11T14:23:27Z</time>
      </trkpt>
      <trkpt lat="49.94848" lon="2.16945">
        <ele>14.8</ele>
        <time>2022-04-11T14:23:28Z</time>
      </trkpt>
      <trkpt lat="49.94848" lon="2.16945">
        <ele>14.8</ele>
        <time>2022-04-11T14:23:29Z</time>
      </trkpt>
      <trkpt lat="49.94848" lon="2.16945">
        <ele>14.8</ele>
        <time>2022-04-11T14:23:30Z</time>
      </trkpt>
      <trkpt lat="49.94848" lon="2.16945">
        <ele>14.8</ele>
        <time>2022-04-11T14:23:31Z</time>
      </trkpt>
      <trkpt lat="49.94848" lon="2.16945">
        <ele>14.8</ele>
        <time>2022-04-11T14:23:32Z</time>
      </trkpt>
      <trkpt lat="49.94848" lon="2.16945">
        <ele>14.8</ele>
        <time>2022-04-11T14:23:33Z</time>
      </trkpt>
      <trkpt lat="49.94848" lon="2.16945">
        <ele>14.8</ele>
        <time>2022-04-11T14:23:34Z</time>
      </trkpt>
      <trkpt lat="49.94848" lon="2.16945">
        <ele>14.8</ele>
        <time>2022-04-11T14:23:35Z</time>
      </trkpt>
      <trkpt lat="49.94848" lon="2.16945">
        <ele>14.8</ele>
        <time>2022-04-11T14:23:36Z</time>
      </trkpt>
      <trkpt lat="49.94848" lon="2.16945">
        <ele>14.8</ele>
        <time>2022-04-11T14:23:37Z</time>
      </trkpt>
      <trkpt lat="49.94848" lon="2.16945">
        <ele>14.8</ele>
        <time>2022-04-11T14:23:38Z</time>
      </trkpt>
      <trkpt lat="49.94848" lon="2.16945">
        <ele>14.8</ele>
        <time>2022-04-11T14:23:39Z</time>
      </trkpt>
      <trkpt lat="49.94848" lon="2.16945">
        <ele>14.8</ele>
        <time>2022-04-11T14:23:40Z</time>
      </trkpt>
      <trkpt lat="49.94848" lon="2.16945">
        <ele>14.8</ele>
        <time>2022-04-11T14:23:41Z</time>
      </trkpt>
      <trkpt lat="49.94848" lon="2.16945">
        <ele>14.8</ele>
        <time>2022-04-11T14:23:42Z</time>
      </trkpt>
      <trkpt lat="49.94848" lon="2.16945">
        <ele>14.8</ele>
        <time>2022-04-11T14:23:43Z</time>
      </trkpt>
      <trkpt lat="49.94848" lon="2.16945">
        <ele>14.8</ele>
        <time>2022-04-11T14:23:44Z</time>
      </trkpt>
      <trkpt lat="49.94848" lon="2.16945">
        <ele>14.8</ele>
        <time>2022-04-11T14:23:45Z</time>
      </trkpt>
      <trkpt lat="49.94848" lon="2.16945">
        <ele>14.8</ele>
        <time>2022-04-11T14:23:46Z</time>
      </trkpt>
      <trkpt lat="49.94848" lon="2.16945">
        <ele>14.8</ele>
        <time>2022-04-11T14:23:47Z</time>
      </trkpt>
      <trkpt lat="49.94848" lon="2.16945">
        <ele>14.8</ele>
        <time>2022-04-11T14:23:48Z</time>
      </trkpt>
      <trkpt lat="49.94848" lon="2.16945">
        <ele>14.8</ele>
        <time>2022-04-11T14:23:49Z</time>
      </trkpt>
      <trkpt lat="49.94848" lon="2.16945">
        <ele>14.8</ele>
        <time>2022-04-11T14:23:50Z</time>
      </trkpt>
      <trkpt lat="49.94848" lon="2.16945">
        <ele>14.8</ele>
        <time>2022-04-11T14:23:51Z</time>
      </trkpt>
      <trkpt lat="49.94848" lon="2.16945">
        <ele>14.8</ele>
        <time>2022-04-11T14:23:52Z</time>
      </trkpt>
      <trkpt lat="49.94848" lon="2.16945">
        <ele>14.8</ele>
        <time>2022-04-11T14:23:53Z</time>
      </trkpt>
      <trkpt lat="49.94848" lon="2.16945">
        <ele>14.8</ele>
        <time>2022-04-11T14:23:54Z</time>
      </trkpt>
      <trkpt lat="49.94848" lon="2.16945">
        <ele>14.8</ele>
        <time>2022-04-11T14:23:55Z</time>
      </trkpt>
      <trkpt lat="49.94848" lon="2.16945">
        <ele>14.8</ele>
        <time>2022-04-11T14:23:56Z</time>
      </trkpt>
      <trkpt lat="49.94848" lon="2.16945">
        <ele>14.8</ele>
        <time>2022-04-11T14:23:57Z</time>
      </trkpt>
      <trkpt lat="49.94848" lon="2.16945">
        <ele>14.8</ele>
        <time>2022-04-11T14:23:58Z</time>
      </trkpt>
      <trkpt lat="49.94848" lon="2.16945">
        <ele>14.8</ele>
        <time>2022-04-11T14:23:59Z</time>
      </trkpt>
      <trkpt lat="49.94848" lon="2.16945">
        <ele>14.8</ele>
        <time>2022-04-11T14:24:00Z</time>
      </trkpt>
      <trkpt lat="49.94848" lon="2.16945">
        <ele>14.8</ele>
        <time>2022-04-11T14:24:01Z</time>
      </trkpt>
      <trkpt lat="49.94848" lon="2.16945">
        <ele>14.8</ele>
        <time>2022-04-11T14:24:02Z</time>
      </trkpt>
      <trkpt lat="49.94848" lon="2.16945">
        <ele>14.8</ele>
        <time>2022-04-11T14:24:03Z</time>
      </trkpt>
      <trkpt lat="49.94848" lon="2.16945">
        <ele>14.8</ele>
        <time>2022-04-11T14:24:04Z</time>
      </trkpt>
      <trkpt lat="49.94848" lon="2.16945">
        <ele>14.8</ele>
        <time>2022-04-11T14:24:05Z</time>
      </trkpt>
      <trkpt lat="49.94848" lon="2.16945">
        <ele>14.8</ele>
        <time>2022-04-11T14:24:06Z</time>
      </trkpt>
      <trkpt lat="49.94848" lon="2.16945">
        <ele>14.8</ele>
        <time>2022-04-11T14:24:07Z</time>
      </trkpt>
      <trkpt lat="49.94848" lon="2.16945">
        <ele>14.8</ele>
        <time>2022-04-11T14:24:08Z</time>
      </trkpt>
      <trkpt lat="49.94848" lon="2.16945">
        <ele>14.8</ele>
        <time>2022-04-11T14:24:09Z</time>
      </trkpt>
      <trkpt lat="49.94848" lon="2.16945">
        <ele>14.8</ele>
        <time>2022-04-11T14:24:10Z</time>
      </trkpt>
      <trkpt lat="49.94848" lon="2.16945">
        <ele>14.8</ele>
        <time>2022-04-11T14:24:11Z</time>
      </trkpt>
      <trkpt lat="49.94848" lon="2.16945">
        <ele>14.8</ele>
        <time>2022-04-11T14:24:12Z</time>
      </trkpt>
      <trkpt lat="49.94848" lon="2.16945">
        <ele>14.8</ele>
        <time>2022-04-11T14:24:13Z</time>
      </trkpt>
      <trkpt lat="49.94848" lon="2.16945">
        <ele>14.8</ele>
        <time>2022-04-11T14:24:14Z</time>
      </trkpt>
      <trkpt lat="49.94848" lon="2.16945">
        <ele>14.8</ele>
        <time>2022-04-11T14:24:15Z</time>
      </trkpt>
      <trkpt lat="49.94848" lon="2.16945">
        <ele>14.8</ele>
        <time>2022-04-11T14:24:16Z</time>
      </trkpt>
      <trkpt lat="49.94848" lon="2.16945">
        <ele>14.8</ele>
        <time>2022-04-11T14:24:17Z</time>
      </trkpt>
      <trkpt lat="49.94848" lon="2.16945">
        <ele>14.8</ele>
        <time>2022-04-11T14:24:18Z</time>
      </trkpt>
      <trkpt lat="49.94848" lon="2.16945">
        <ele>14.8</ele>
        <time>2022-04-11T14:24:19Z</time>
      </trkpt>
      <trkpt lat="49.94848" lon="2.16945">
        <ele>14.8</ele>
        <time>2022-04-11T14:24:20Z</time>
      </trkpt>
      <trkpt lat="49.94848" lon="2.16945">
        <ele>14.8</ele>
        <time>2022-04-11T14:24:21Z</time>
      </trkpt>
      <trkpt lat="49.94848" lon="2.16945">
        <ele>14.8</ele>
        <time>2022-04-11T14:24:22Z</time>
      </trkpt>
      <trkpt lat="49.94848" lon="2.16945">
        <ele>14.8</ele>
        <time>2022-04-11T14:24:23Z</time>
      </trkpt>
      <trkpt lat="49.94848" lon="2.16945">
        <ele>14.8</ele>
        <time>2022-04-11T14:24:24Z</time>
      </trkpt>
      <trkpt lat="49.94848" lon="2.16945">
        <ele>14.8</ele>
        <time>2022-04-11T14:24:25Z</time>
      </trkpt>
      <trkpt lat="49.94848" lon="2.16945">
        <ele>14.8</ele>
        <time>2022-04-11T14:24:26Z</time>
      </trkpt>
      <trkpt lat="49.94848" lon="2.16945">
        <ele>14.8</ele>
        <time>2022-04-11T14:24:27Z</time>
      </trkpt>
      <trkpt lat="49.94848" lon="2.16945">
        <ele>14.8</ele>
        <time>2022-04-11T14:24:28Z</time>
      </trkpt>
      <trkpt lat="49.94848" lon="2.16945">
        <ele>14.8</ele>
        <time>2022-04-11T14:24:29Z</time>
      </trkpt>
      <trkpt lat="49.94848" lon="2.16945">
        <ele>14.8</ele>
        <time>2022-04-11T14:24:30Z</time>
      </trkpt>
      <trkpt lat="49.94848" lon="2.16945">
        <ele>14.8</ele>
        <time>2022-04-11T14:24:31Z</time>
      </trkpt>
      <trkpt lat="49.94848" lon="2.16945">
        <ele>14.8</ele>
        <time>2022-04-11T14:24:32Z</time>
      </trkpt>
      <trkpt lat="49.94848" lon="2.16945">
        <ele>14.8</ele>
        <time>2022-04-11T14:24:33Z</time>
      </trkpt>
      <trkpt lat="49.94848" lon="2.16945">
        <ele>14.8</ele>
        <time>2022-04-11T14:24:34Z</time>
      </trkpt>
      <trkpt lat="49.94848" lon="2.16945">
        <ele>14.8</ele>
        <time>2022-04-11T14:24:35Z</time>
      </trkpt>
      <trkpt lat="49.94848" lon="2.16945">
        <ele>14.8</ele>
        <time>2022-04-11T14:24:36Z</time>
      </trkpt>
      <trkpt lat="49.94848" lon="2.16945">
        <ele>14.8</ele>
        <time>2022-04-11T14:24:37Z</time>
      </trkpt>
      <trkpt lat="49.94848" lon="2.16945">
        <ele>14.8</ele>
        <time>2022-04-11T14:24:38Z</time>
      </trkpt>
      <trkpt lat="49.94848" lon="2.16945">
        <ele>14.8</ele>
        <time>2022-04-11T14:24:39Z</time>
      </trkpt>
      <trkpt lat="49.94848" lon="2.16945">
        <ele>14.8</ele>
        <time>2022-04-11T14:24:40Z</time>
      </trkpt>
      <trkpt lat="49.94848" lon="2.16945">
        <ele>14.8</ele>
        <time>2022-04-11T14:24:41Z</time>
      </trkpt>
      <trkpt lat="49.94848" lon="2.16945">
        <ele>14.8</ele>
        <time>2022-04-11T14:24:42Z</time>
      </trkpt>
      <trkpt lat="49.94848" lon="2.16945">
        <ele>14.8</ele>
        <time>2022-04-11T14:24:43Z</time>
      </trkpt>
      <trkpt lat="49.94848" lon="2.16945">
        <ele>14.8</ele>
        <time>2022-04-11T14:24:44Z</time>
      </trkpt>
      <trkpt lat="49.94848" lon="2.16945">
        <ele>14.8</ele>
        <time>2022-04-11T14:24:45Z</time>
      </trkpt>
      <trkpt lat="49.94848" lon="2.16945">
        <ele>14.8</ele>
        <time>2022-04-11T14:24:46Z</time>
      </trkpt>
      <trkpt lat="49.94848" lon="2.16945">
        <ele>14.8</ele>
        <time>2022-04-11T14:24:47Z</time>
      </trkpt>
      <trkpt lat="49.94848" lon="2.16945">
        <ele>14.8</ele>
        <time>2022-04-11T14:24:48Z</time>
      </trkpt>
      <trkpt lat="49.94848" lon="2.16945">
        <ele>14.8</ele>
        <time>2022-04-11T14:24:49Z</time>
      </trkpt>
      <trkpt lat="49.94848" lon="2.16945">
        <ele>14.8</ele>
        <time>2022-04-11T14:24:50Z</time>
      </trkpt>
      <trkpt lat="49.94848" lon="2.16945">
        <ele>14.8</ele>
        <time>2022-04-11T14:24:51Z</time>
      </trkpt>
      <trkpt lat="49.94848" lon="2.16945">
        <ele>14.8</ele>
        <time>2022-04-11T14:24:52Z</time>
      </trkpt>
      <trkpt lat="49.94848" lon="2.16945">
        <ele>14.8</ele>
        <time>2022-04-11T14:24:53Z</time>
      </trkpt>
      <trkpt lat="49.94848" lon="2.16945">
        <ele>14.8</ele>
        <time>2022-04-11T14:24:54Z</time>
      </trkpt>
      <trkpt lat="49.94848" lon="2.16945">
        <ele>14.8</ele>
        <time>2022-04-11T14:24:55Z</time>
      </trkpt>
      <trkpt lat="49.94848" lon="2.16945">
        <ele>14.8</ele>
        <time>2022-04-11T14:24:56Z</time>
      </trkpt>
      <trkpt lat="49.94848" lon="2.16945">
        <ele>14.8</ele>
        <time>2022-04-11T14:24:57Z</time>
      </trkpt>
      <trkpt lat="49.94848" lon="2.16945">
        <ele>14.8</ele>
        <time>2022-04-11T14:24:58Z</time>
      </trkpt>
      <trkpt lat="49.94848" lon="2.16945">
        <ele>14.8</ele>
        <time>2022-04-11T14:24:59Z</time>
      </trkpt>
      <trkpt lat="49.94848" lon="2.16945">
        <ele>14.8</ele>
        <time>2022-04-11T14:25:00Z</time>
      </trkpt>
      <trkpt lat="49.94848" lon="2.16945">
        <ele>14.8</ele>
        <time>2022-04-11T14:25:01Z</time>
      </trkpt>
      <trkpt lat="49.94848" lon="2.16945">
        <ele>14.8</ele>
        <time>2022-04-11T14:25:02Z</time>
      </trkpt>
      <trkpt lat="49.94848" lon="2.16945">
        <ele>14.8</ele>
        <time>2022-04-11T14:25:03Z</time>
      </trkpt>
      <trkpt lat="49.94848" lon="2.16945">
        <ele>14.8</ele>
        <time>2022-04-11T14:25:04Z</time>
      </trkpt>
      <trkpt lat="49.94848" lon="2.16945">
        <ele>14.8</ele>
        <time>2022-04-11T14:25:05Z</time>
      </trkpt>
      <trkpt lat="49.94848" lon="2.16945">
        <ele>14.8</ele>
        <time>2022-04-11T14:25:06Z</time>
      </trkpt>
      <trkpt lat="49.94848" lon="2.16945">
        <ele>14.8</ele>
        <time>2022-04-11T14:25:07Z</time>
      </trkpt>
      <trkpt lat="49.94848" lon="2.16945">
        <ele>14.8</ele>
        <time>2022-04-11T14:25:08Z</time>
      </trkpt>
      <trkpt lat="49.94848" lon="2.16945">
        <ele>14.8</ele>
        <time>2022-04-11T14:25:09Z</time>
      </trkpt>
      <trkpt lat="49.94848" lon="2.16945">
        <ele>14.8</ele>
        <time>2022-04-11T14:25:10Z</time>
      </trkpt>
      <trkpt lat="49.94848" lon="2.16945">
        <ele>14.8</ele>
        <time>2022-04-11T14:25:11Z</time>
      </trkpt>
      <trkpt lat="49.94848" lon="2.16945">
        <ele>14.8</ele>
        <time>2022-04-11T14:25:12Z</time>
      </trkpt>
      <trkpt lat="49.94848" lon="2.16945">
        <ele>14.8</ele>
        <time>2022-04-11T14:25:13Z</time>
      </trkpt>
      <trkpt lat="49.94848" lon="2.16945">
        <ele>14.8</ele>
        <time>2022-04-11T14:25:14Z</time>
      </trkpt>
      <trkpt lat="49.94848" lon="2.16945">
        <ele>14.8</ele>
        <time>2022-04-11T14:25:15Z</time>
      </trkpt>
      <trkpt lat="49.94848" lon="2.16945">
        <ele>14.8</ele>
        <time>2022-04-11T14:25:16Z</time>
      </trkpt>
      <trkpt lat="49.94848" lon="2.16945">
        <ele>14.8</ele>
        <time>2022-04-11T14:25:17Z</time>
      </trkpt>
      <trkpt lat="49.94848" lon="2.16945">
        <ele>14.8</ele>
        <time>2022-04-11T14:25:18Z</time>
      </trkpt>
      <trkpt lat="49.94848" lon="2.16945">
        <ele>14.8</ele>
        <time>2022-04-11T14:25:19Z</time>
      </trkpt>
      <trkpt lat="49.94848" lon="2.16945">
        <ele>14.8</ele>
        <time>2022-04-11T14:25:20Z</time>
      </trkpt>
      <trkpt lat="49.94848" lon="2.16945">
        <ele>14.8</ele>
        <time>2022-04-11T14:25:21Z</time>
      </trkpt>
      <trkpt lat="49.94848" lon="2.16945">
        <ele>14.8</ele>
        <time>2022-04-11T14:25:22Z</time>
      </trkpt>
      <trkpt lat="49.94848" lon="2.16945">
        <ele>14.8</ele>
        <time>2022-04-11T14:25:23Z</time>
      </trkpt>
      <trkpt lat="49.94848" lon="2.16945">
        <ele>14.8</ele>
        <time>2022-04-11T14:25:24Z</time>
      </trkpt>
      <trkpt lat="49.94848" lon="2.16945">
        <ele>14.8</ele>
        <time>2022-04-11T14:25:25Z</time>
      </trkpt>
      <trkpt lat="49.94848" lon="2.16945">
        <ele>14.8</ele>
        <time>2022-04-11T14:25:26Z</time>
      </trkpt>
      <trkpt lat="49.94848" lon="2.16945">
        <ele>14.8</ele>
        <time>2022-04-11T14:25:27Z</time>
      </trkpt>
      <trkpt lat="49.94848" lon="2.16945">
        <ele>14.8</ele>
        <time>2022-04-11T14:25:28Z</time>
      </trkpt>
      <trkpt lat="49.94848" lon="2.16945">
        <ele>14.8</ele>
        <time>2022-04-11T14:25:29Z</time>
      </trkpt>
      <trkpt lat="49.94848" lon="2.16945">
        <ele>14.8</ele>
        <time>2022-04-11T14:25:30Z</time>
      </trkpt>
      <trkpt lat="49.94848" lon="2.16945">
        <ele>14.8</ele>
        <time>2022-04-11T14:25:31Z</time>
      </trkpt>
      <trkpt lat="49.94848" lon="2.16945">
        <ele>14.8</ele>
        <time>2022-04-11T14:25:32Z</time>
      </trkpt>
      <trkpt lat="49.94848" lon="2.16945">
        <ele>14.8</ele>
        <time>2022-04-11T14:25:33Z</time>
      </trkpt>
      <trkpt lat="49.94848" lon="2.16945">
        <ele>14.8</ele>
        <time>2022-04-11T14:25:34Z</time>
      </trkpt>
      <trkpt lat="49.94848" lon="2.16945">
        <ele>14.8</ele>
        <time>2022-04-11T14:25:35Z</time>
      </trkpt>
      <trkpt lat="49.94848" lon="2.16945">
        <ele>14.8</ele>
        <time>2022-04-11T14:25:36Z</time>
      </trkpt>
      <trkpt lat="49.94848" lon="2.16945">
        <ele>14.8</ele>
        <time>2022-04-11T14:25:37Z</time>
      </trkpt>
      <trkpt lat="49.94848" lon="2.16945">
        <ele>14.8</ele>
        <time>2022-04-11T14:25:38Z</time>
      </trkpt>
      <trkpt lat="49.94848" lon="2.16945">
        <ele>14.8</ele>
        <time>2022-04-11T14:25:39Z</time>
      </trkpt>
      <trkpt lat="49.94848" lon="2.16945">
        <ele>14.8</ele>
        <time>2022-04-11T14:25:40Z</time>
      </trkpt>
      <trkpt lat="49.94848" lon="2.16945">
        <ele>14.8</ele>
        <time>2022-04-11T14:25:41Z</time>
      </trkpt>
      <trkpt lat="49.94848" lon="2.16945">
        <ele>14.8</ele>
        <time>2022-04-11T14:25:42Z</time>
      </trkpt>
      <trkpt lat="49.94848" lon="2.16945">
        <ele>14.8</ele>
        <time>2022-04-11T14:25:43Z</time>
      </trkpt>
      <trkpt lat="49.94848" lon="2.16945">
        <ele>14.8</ele>
        <time>2022-04-11T14:25:44Z</time>
      </trkpt>
      <trkpt lat="49.94848" lon="2.16945">
        <ele>14.8</ele>
        <time>2022-04-11T14:25:45Z</time>
      </trkpt>
      <trkpt lat="49.94848" lon="2.16945">
        <ele>14.8</ele>
        <time>2022-04-11T14:25:46Z</time>
      </trkpt>
      <trkpt lat="49.94848" lon="2.16945">
        <ele>14.8</ele>
        <time>2022-04-11T14:25:47Z</time>
      </trkpt>
      <trkpt lat="49.94848" lon="2.16945">
        <ele>14.8</ele>
        <time>2022-04-11T14:25:48Z</time>
      </trkpt>
      <trkpt lat="49.94848" lon="2.16945">
        <ele>14.8</ele>
        <time>2022-04-11T14:25:49Z</time>
      </trkpt>
      <trkpt lat="49.94848" lon="2.16945">
        <ele>14.8</ele>
        <time>2022-04-11T14:25:50Z</time>
      </trkpt>
      <trkpt lat="49.94848" lon="2.16945">
        <ele>14.8</ele>
        <time>2022-04-11T14:25:51Z</time>
      </trkpt>
      <trkpt lat="49.94848" lon="2.16945">
        <ele>14.8</ele>
        <time>2022-04-11T14:25:52Z</time>
      </trkpt>
      <trkpt lat="49.94848" lon="2.16945">
        <ele>14.8</ele>
        <time>2022-04-11T14:25:53Z</time>
      </trkpt>
      <trkpt lat="49.94848" lon="2.16945">
        <ele>14.8</ele>
        <time>2022-04-11T14:25:54Z</time>
      </trkpt>
      <trkpt lat="49.94848" lon="2.16945">
        <ele>14.8</ele>
        <time>2022-04-11T14:25:55Z</time>
      </trkpt>
      <trkpt lat="49.94848" lon="2.16945">
        <ele>14.8</ele>
        <time>2022-04-11T14:25:56Z</time>
      </trkpt>
      <trkpt lat="49.94848" lon="2.16945">
        <ele>14.8</ele>
        <time>2022-04-11T14:25:57Z</time>
      </trkpt>
      <trkpt lat="49.94848" lon="2.16945">
        <ele>14.8</ele>
        <time>2022-04-11T14:25:58Z</time>
      </trkpt>
      <trkpt lat="49.94848" lon="2.16945">
        <ele>14.8</ele>
        <time>2022-04-11T14:25:59Z</time>
      </trkpt>
      <trkpt lat="49.94848" lon="2.16945">
        <ele>14.8</ele>
        <time>2022-04-11T14:26:00Z</time>
      </trkpt>
      <trkpt lat="49.94848" lon="2.16945">
        <ele>14.8</ele>
        <time>2022-04-11T14:26:01Z</time>
      </trkpt>
      <trkpt lat="49.94848" lon="2.16945">
        <ele>14.8</ele>
        <time>2022-04-11T14:26:02Z</time>
      </trkpt>
      <trkpt lat="49.94848" lon="2.16945">
        <ele>14.8</ele>
        <time>2022-04-11T14:26:03Z</time>
      </trkpt>
      <trkpt lat="49.94848" lon="2.16945">
        <ele>14.8</ele>
        <time>2022-04-11T14:26:04Z</time>
      </trkpt>
      <trkpt lat="49.94848" lon="2.16945">
        <ele>14.8</ele>
        <time>2022-04-11T14:26:05Z</time>
      </trkpt>
      <trkpt lat="49.94848" lon="2.16945">
        <ele>14.8</ele>
        <time>2022-04-11T14:26:06Z</time>
      </trkpt>
      <trkpt lat="49.94848" lon="2.16945">
        <ele>14.8</ele>
        <time>2022-04-11T14:26:07Z</time>
      </trkpt>
      <trkpt lat="49.94848" lon="2.16945">
        <ele>14.8</ele>
        <time>2022-04-11T14:26:08Z</time>
      </trkpt>
      <trkpt lat="49.94848" lon="2.16945">
        <ele>14.8</ele>
        <time>2022-04-11T14:26:09Z</time>
      </trkpt>
      <trkpt lat="49.94848" lon="2.16945">
        <ele>14.8</ele>
        <time>2022-04-11T14:26:10Z</time>
      </trkpt>
      <trkpt lat="49.94848" lon="2.16945">
        <ele>14.8</ele>
        <time>2022-04-11T14:26:11Z</time>
      </trkpt>
      <trkpt lat="49.94848" lon="2.16945">
        <ele>14.8</ele>
        <time>2022-04-11T14:26:12Z</time>
      </trkpt>
      <trkpt lat="49.94848" lon="2.16945">
        <ele>14.8</ele>
        <time>2022-04-11T14:26:13Z</time>
      </trkpt>
      <trkpt lat="49.94848" lon="2.16945">
        <ele>14.8</ele>
        <time>2022-04-11T14:26:14Z</time>
      </trkpt>
      <trkpt lat="49.94848" lon="2.16945">
        <ele>14.8</ele>
        <time>2022-04-11T14:26:15Z</time>
      </trkpt>
      <trkpt lat="49.94848" lon="2.16945">
        <ele>14.8</ele>
        <time>2022-04-11T14:26:16Z</time>
      </trkpt>
      <trkpt lat="49.94848" lon="2.16945">
        <ele>14.8</ele>
        <time>2022-04-11T14:26:17Z</time>
      </trkpt>
      <trkpt lat="49.94848" lon="2.16945">
        <ele>14.8</ele>
        <time>2022-04-11T14:26:18Z</time>
      </trkpt>
      <trkpt lat="49.94848" lon="2.16945">
        <ele>14.8</ele>
        <time>2022-04-11T14:26:19Z</time>
      </trkpt>
      <trkpt lat="49.94848" lon="2.16945">
        <ele>14.8</ele>
        <time>2022-04-11T14:26:20Z</time>
      </trkpt>
      <trkpt lat="49.94848" lon="2.16945">
        <ele>14.8</ele>
        <time>2022-04-11T14:26:21Z</time>
      </trkpt>
      <trkpt lat="49.94848" lon="2.16945">
        <ele>14.8</ele>
        <time>2022-04-11T14:26:22Z</time>
      </trkpt>
      <trkpt lat="49.94848" lon="2.16945">
        <ele>14.8</ele>
        <time>2022-04-11T14:26:23Z</time>
      </trkpt>
      <trkpt lat="49.94848" lon="2.16945">
        <ele>14.8</ele>
        <time>2022-04-11T14:26:24Z</time>
      </trkpt>
      <trkpt lat="49.94848" lon="2.16945">
        <ele>14.8</ele>
        <time>2022-04-11T14:26:25Z</time>
      </trkpt>
      <trkpt lat="49.94848" lon="2.16945">
        <ele>14.8</ele>
        <time>2022-04-11T14:26:26Z</time>
      </trkpt>
      <trkpt lat="49.94848" lon="2.16945">
        <ele>14.8</ele>
        <time>2022-04-11T14:26:27Z</time>
      </trkpt>
      <trkpt lat="49.94848" lon="2.16945">
        <ele>14.8</ele>
        <time>2022-04-11T14:26:28Z</time>
      </trkpt>
      <trkpt lat="49.94848" lon="2.16945">
        <ele>14.8</ele>
        <time>2022-04-11T14:26:29Z</time>
      </trkpt>
      <trkpt lat="49.94848" lon="2.16945">
        <ele>14.8</ele>
        <time>2022-04-11T14:26:30Z</time>
      </trkpt>
      <trkpt lat="49.94848" lon="2.16945">
        <ele>14.8</ele>
        <time>2022-04-11T14:26:31Z</time>
      </trkpt>
      <trkpt lat="49.94848" lon="2.16945">
        <ele>14.8</ele>
        <time>2022-04-11T14:26:32Z</time>
      </trkpt>
      <trkpt lat="49.94848" lon="2.16945">
        <ele>14.8</ele>
        <time>2022-04-11T14:26:33Z</time>
      </trkpt>
      <trkpt lat="49.94848" lon="2.16945">
        <ele>14.8</ele>
        <time>2022-04-11T14:26:34Z</time>
      </trkpt>
      <trkpt lat="49.94848" lon="2.16945">
        <ele>14.8</ele>
        <time>2022-04-11T14:26:35Z</time>
      </trkpt>
      <trkpt lat="49.94848" lon="2.16945">
        <ele>14.8</ele>
        <time>2022-04-11T14:26:36Z</time>
      </trkpt>
      <trkpt lat="49.94848" lon="2.16945">
        <ele>14.8</ele>
        <time>2022-04-11T14:26:37Z</time>
      </trkpt>
      <trkpt lat="49.94848" lon="2.16945">
        <ele>14.8</ele>
        <time>2022-04-11T14:26:38Z</time>
      </trkpt>
      <trkpt lat="49.94848" lon="2.16945">
        <ele>14.8</ele>
        <time>2022-04-11T14:26:39Z</time>
      </trkpt>
      <trkpt lat="49.94848" lon="2.16945">
        <ele>14.8</ele>
        <time>2022-04-11T14:26:40Z</time>
      </trkpt>
      <trkpt lat="49.94848" lon="2.16945">
        <ele>14.8</ele>
        <time>2022-04-11T14:26:41Z</time>
      </trkpt>
      <trkpt lat="49.94848" lon="2.16945">
        <ele>14.8</ele>
        <time>2022-04-11T14:26:42Z</time>
      </trkpt>
      <trkpt lat="49.94848" lon="2.16945">
        <ele>14.8</ele>
        <time>2022-04-11T14:26:43Z</time>
      </trkpt>
      <trkpt lat="49.94848" lon="2.16945">
        <ele>14.8</ele>
        <time>2022-04-11T14:26:44Z</time>
      </trkpt>
      <trkpt lat="49.94848" lon="2.16945">
        <ele>14.8</ele>
        <time>2022-04-11T14:26:45Z</time>
      </trkpt>
      <trkpt lat="49.94848" lon="2.16945">
        <ele>14.8</ele>
        <time>2022-04-11T14:26:46Z</time>
      </trkpt>
      <trkpt lat="49.94848" lon="2.16945">
        <ele>14.8</ele>
        <time>2022-04-11T14:26:47Z</time>
      </trkpt>
      <trkpt lat="49.94848" lon="2.16945">
        <ele>14.8</ele>
        <time>2022-04-11T14:26:48Z</time>
      </trkpt>
      <trkpt lat="49.94848" lon="2.16945">
        <ele>14.8</ele>
        <time>2022-04-11T14:26:49Z</time>
      </trkpt>
      <trkpt lat="49.94848" lon="2.16945">
        <ele>14.8</ele>
        <time>2022-04-11T14:26:50Z</time>
      </trkpt>
      <trkpt lat="49.94848" lon="2.16945">
        <ele>14.8</ele>
        <time>2022-04-11T14:26:51Z</time>
      </trkpt>
      <trkpt lat="49.94848" lon="2.16945">
        <ele>14.8</ele>
        <time>2022-04-11T14:26:52Z</time>
      </trkpt>
      <trkpt lat="49.94848" lon="2.16945">
        <ele>14.8</ele>
        <time>2022-04-11T14:26:53Z</time>
      </trkpt>
      <trkpt lat="49.94848" lon="2.16945">
        <ele>14.8</ele>
        <time>2022-04-11T14:26:54Z</time>
      </trkpt>
      <trkpt lat="49.94848" lon="2.16945">
        <ele>14.8</ele>
        <time>2022-04-11T14:26:55Z</time>
      </trkpt>
      <trkpt lat="49.94848" lon="2.16945">
        <ele>14.8</ele>
        <time>2022-04-11T14:26:56Z</time>
      </trkpt>
      <trkpt lat="49.94848" lon="2.16945">
        <ele>14.8</ele>
        <time>2022-04-11T14:26:57Z</time>
      </trkpt>
      <trkpt lat="49.94848" lon="2.16945">
        <ele>14.8</ele>
        <time>2022-04-11T14:26:58Z</time>
      </trkpt>
      <trkpt lat="49.94848" lon="2.16945">
        <ele>14.8</ele>
        <time>2022-04-11T14:26:59Z</time>
      </trkpt>
      <trkpt lat="49.94848" lon="2.16945">
        <ele>14.8</ele>
        <time>2022-04-11T14:27:00Z</time>
      </trkpt>
      <trkpt lat="49.94848" lon="2.16945">
        <ele>14.8</ele>
        <time>2022-04-11T14:27:01Z</time>
      </trkpt>
      <trkpt lat="49.94848" lon="2.16945">
        <ele>14.8</ele>
        <time>2022-04-11T14:27:02Z</time>
      </trkpt>
      <trkpt lat="49.94848" lon="2.16945">
        <ele>14.8</ele>
        <time>2022-04-11T14:27:03Z</time>
      </trkpt>
      <trkpt lat="49.94848" lon="2.16945">
        <ele>14.8</ele>
        <time>2022-04-11T14:27:04Z</time>
      </trkpt>
      <trkpt lat="49.94848" lon="2.16945">
        <ele>14.8</ele>
        <time>2022-04-11T14:27:05Z</time>
      </trkpt>
      <trkpt lat="49.94848" lon="2.16945">
        <ele>14.8</ele>
        <time>2022-04-11T14:27:06Z</time>
      </trkpt>
      <trkpt lat="49.94848" lon="2.16945">
        <ele>14.8</ele>
        <time>2022-04-11T14:27:07Z</time>
      </trkpt>
      <trkpt lat="49.94848" lon="2.16945">
        <ele>14.8</ele>
        <time>2022-04-11T14:27:08Z</time>
      </trkpt>
      <trkpt lat="49.94848" lon="2.16945">
        <ele>14.8</ele>
        <time>2022-04-11T14:27:09Z</time>
      </trkpt>
      <trkpt lat="49.94848" lon="2.16945">
        <ele>14.8</ele>
        <time>2022-04-11T14:27:10Z</time>
      </trkpt>
      <trkpt lat="49.94848" lon="2.16945">
        <ele>14.8</ele>
        <time>2022-04-11T14:27:11Z</time>
      </trkpt>
      <trkpt lat="49.94848" lon="2.16945">
        <ele>14.8</ele>
        <time>2022-04-11T14:27:12Z</time>
      </trkpt>
      <trkpt lat="49.94848" lon="2.16945">
        <ele>14.8</ele>
        <time>2022-04-11T14:27:13Z</time>
      </trkpt>
      <trkpt lat="49.94848" lon="2.16945">
        <ele>14.8</ele>
        <time>2022-04-11T14:27:14Z</time>
      </trkpt>
      <trkpt lat="49.94848" lon="2.16945">
        <ele>14.8</ele>
        <time>2022-04-11T14:27:15Z</time>
      </trkpt>
      <trkpt lat="49.94848" lon="2.16945">
        <ele>14.8</ele>
        <time>2022-04-11T14:27:16Z</time>
      </trkpt>
      <trkpt lat="49.94848" lon="2.16945">
        <ele>14.8</ele>
        <time>2022-04-11T14:27:17Z</time>
      </trkpt>
      <trkpt lat="49.94848" lon="2.16945">
        <ele>14.8</ele>
        <time>2022-04-11T14:27:18Z</time>
      </trkpt>
      <trkpt lat="49.94848" lon="2.16945">
        <ele>14.8</ele>
        <time>2022-04-11T14:27:19Z</time>
      </trkpt>
      <trkpt lat="49.94848" lon="2.16945">
        <ele>14.8</ele>
        <time>2022-04-11T14:27:20Z</time>
      </trkpt>
      <trkpt lat="49.94848" lon="2.16945">
        <ele>14.8</ele>
        <time>2022-04-11T14:27:21Z</time>
      </trkpt>
      <trkpt lat="49.94848" lon="2.16945">
        <ele>14.8</ele>
        <time>2022-04-11T14:27:22Z</time>
      </trkpt>
      <trkpt lat="49.94848" lon="2.16945">
        <ele>14.8</ele>
        <time>2022-04-11T14:27:23Z</time>
      </trkpt>
      <trkpt lat="49.94848" lon="2.16945">
        <ele>14.8</ele>
        <time>2022-04-11T14:27:24Z</time>
      </trkpt>
      <trkpt lat="49.94848" lon="2.16945">
        <ele>14.8</ele>
        <time>2022-04-11T14:27:25Z</time>
      </trkpt>
      <trkpt lat="49.94848" lon="2.16945">
        <ele>14.8</ele>
        <time>2022-04-11T14:27:26Z</time>
      </trkpt>
      <trkpt lat="49.94848" lon="2.16945">
        <ele>14.8</ele>
        <time>2022-04-11T14:27:27Z</time>
      </trkpt>
      <trkpt lat="49.94848" lon="2.16945">
        <ele>14.8</ele>
        <time>2022-04-11T14:27:28Z</time>
      </trkpt>
      <trkpt lat="49.94848" lon="2.16945">
        <ele>14.8</ele>
        <time>2022-04-11T14:27:29Z</time>
      </trkpt>
      <trkpt lat="49.94848" lon="2.16945">
        <ele>14.8</ele>
        <time>2022-04-11T14:27:30Z</time>
      </trkpt>
      <trkpt lat="49.94848" lon="2.16945">
        <ele>14.8</ele>
        <time>2022-04-11T14:27:31Z</time>
      </trkpt>
      <trkpt lat="49.94848" lon="2.16945">
        <ele>14.8</ele>
        <time>2022-04-11T14:27:32Z</time>
      </trkpt>
      <trkpt lat="49.94848" lon="2.16945">
        <ele>14.8</ele>
        <time>2022-04-11T14:27:33Z</time>
      </trkpt>
      <trkpt lat="49.94848" lon="2.16945">
        <ele>14.8</ele>
        <time>2022-04-11T14:27:34Z</time>
      </trkpt>
      <trkpt lat="49.94848" lon="2.16945">
        <ele>14.8</ele>
        <time>2022-04-11T14:27:35Z</time>
      </trkpt>
      <trkpt lat="49.94848" lon="2.16945">
        <ele>14.8</ele>
        <time>2022-04-11T14:27:36Z</time>
      </trkpt>
      <trkpt lat="49.94848" lon="2.16945">
        <ele>14.8</ele>
        <time>2022-04-11T14:27:37Z</time>
      </trkpt>
      <trkpt lat="49.94848" lon="2.16945">
        <ele>14.8</ele>
        <time>2022-04-11T14:27:38Z</time>
      </trkpt>
      <trkpt lat="49.94848" lon="2.16945">
        <ele>14.8</ele>
        <time>2022-04-11T14:27:39Z</time>
      </trkpt>
      <trkpt lat="49.94848" lon="2.16945">
        <ele>14.8</ele>
        <time>2022-04-11T14:27:40Z</time>
      </trkpt>
      <trkpt lat="49.94848" lon="2.16945">
        <ele>14.8</ele>
        <time>2022-04-11T14:27:41Z</time>
      </trkpt>
      <trkpt lat="49.94848" lon="2.16945">
        <ele>14.8</ele>
        <time>2022-04-11T14:27:42Z</time>
      </trkpt>
      <trkpt lat="49.94848" lon="2.16945">
        <ele>14.8</ele>
        <time>2022-04-11T14:27:43Z</time>
      </trkpt>
      <trkpt lat="49.94848" lon="2.16945">
        <ele>14.8</ele>
        <time>2022-04-11T14:27:44Z</time>
      </trkpt>
      <trkpt lat="49.94848" lon="2.16945">
        <ele>14.8</ele>
        <time>2022-04-11T14:27:45Z</time>
      </trkpt>
      <trkpt lat="49.94848" lon="2.16945">
        <ele>14.8</ele>
        <time>2022-04-11T14:27:46Z</time>
      </trkpt>
      <trkpt lat="49.94848" lon="2.16945">
        <ele>14.8</ele>
        <time>2022-04-11T14:27:47Z</time>
      </trkpt>
      <trkpt lat="49.94848" lon="2.16945">
        <ele>14.8</ele>
        <time>2022-04-11T14:27:48Z</time>
      </trkpt>
      <trkpt lat="49.94848" lon="2.16945">
        <ele>14.8</ele>
        <time>2022-04-11T14:27:49Z</time>
      </trkpt>
      <trkpt lat="49.94848" lon="2.16945">
        <ele>14.8</ele>
        <time>2022-04-11T14:27:50Z</time>
      </trkpt>
      <trkpt lat="49.94848" lon="2.16945">
        <ele>14.8</ele>
        <time>2022-04-11T14:27:51Z</time>
      </trkpt>
      <trkpt lat="49.94848" lon="2.16945">
        <ele>14.8</ele>
        <time>2022-04-11T14:27:52Z</time>
      </trkpt>
      <trkpt lat="49.94848" lon="2.16945">
        <ele>14.8</ele>
        <time>2022-04-11T14:27:53Z</time>
      </trkpt>
      <trkpt lat="49.94848" lon="2.16945">
        <ele>14.8</ele>
        <time>2022-04-11T14:27:54Z</time>
      </trkpt>
      <trkpt lat="49.94848" lon="2.16945">
        <ele>14.8</ele>
        <time>2022-04-11T14:27:55Z</time>
      </trkpt>
      <trkpt lat="49.94848" lon="2.16945">
        <ele>14.8</ele>
        <time>2022-04-11T14:27:56Z</time>
      </trkpt>
      <trkpt lat="49.94848" lon="2.16945">
        <ele>14.8</ele>
        <time>2022-04-11T14:27:57Z</time>
      </trkpt>
      <trkpt lat="49.94848" lon="2.16945">
        <ele>14.8</ele>
        <time>2022-04-11T14:27:58Z</time>
      </trkpt>
      <trkpt lat="49.94848" lon="2.16945">
        <ele>14.8</ele>
        <time>2022-04-11T14:27:59Z</time>
      </trkpt>
      <trkpt lat="49.94848" lon="2.16945">
        <ele>14.8</ele>
        <time>2022-04-11T14:28:00Z</time>
      </trkpt>
      <trkpt lat="49.94848" lon="2.16945">
        <ele>14.8</ele>
        <time>2022-04-11T14:28:01Z</time>
      </trkpt>
      <trkpt lat="49.94848" lon="2.16945">
        <ele>14.8</ele>
        <time>2022-04-11T14:28:02Z</time>
      </trkpt>
      <trkpt lat="49.94848" lon="2.16945">
        <ele>14.8</ele>
        <time>2022-04-11T14:28:03Z</time>
      </trkpt>
      <trkpt lat="49.94848" lon="2.16945">
        <ele>14.8</ele>
        <time>2022-04-11T14:28:04Z</time>
      </trkpt>
      <trkpt lat="49.94848" lon="2.16945">
        <ele>14.8</ele>
        <time>2022-04-11T14:28:05Z</time>
      </trkpt>
      <trkpt lat="49.94848" lon="2.16945">
        <ele>14.8</ele>
        <time>2022-04-11T14:28:06Z</time>
      </trkpt>
      <trkpt lat="49.94848" lon="2.16945">
        <ele>14.8</ele>
        <time>2022-04-11T14:28:07Z</time>
      </trkpt>
      <trkpt lat="49.94848" lon="2.16945">
        <ele>14.8</ele>
        <time>2022-04-11T14:28:08Z</time>
      </trkpt>
      <trkpt lat="49.94848" lon="2.16945">
        <ele>14.8</ele>
        <time>2022-04-11T14:28:09Z</time>
      </trkpt>
      <trkpt lat="49.94848" lon="2.16945">
        <ele>14.8</ele>
        <time>2022-04-11T14:28:10Z</time>
      </trkpt>
      <trkpt lat="49.94848" lon="2.16945">
        <ele>14.8</ele>
        <time>2022-04-11T14:28:11Z</time>
      </trkpt>
      <trkpt lat="49.94848" lon="2.16945">
        <ele>14.8</ele>
        <time>2022-04-11T14:28:12Z</time>
      </trkpt>
      <trkpt lat="49.94848" lon="2.16945">
        <ele>14.8</ele>
        <time>2022-04-11T14:28:13Z</time>
      </trkpt>
      <trkpt lat="49.94848" lon="2.16945">
        <ele>14.8</ele>
        <time>2022-04-11T14:28:14Z</time>
      </trkpt>
      <trkpt lat="49.94848" lon="2.16945">
        <ele>14.8</ele>
        <time>2022-04-11T14:28:15Z</time>
      </trkpt>
      <trkpt lat="49.94848" lon="2.16945">
        <ele>14.8</ele>
        <time>2022-04-11T14:28:16Z</time>
      </trkpt>
      <trkpt lat="49.94848" lon="2.16945">
        <ele>14.8</ele>
        <time>2022-04-11T14:28:17Z</time>
      </trkpt>
      <trkpt lat="49.94848" lon="2.16945">
        <ele>14.8</ele>
        <time>2022-04-11T14:28:18Z</time>
      </trkpt>
      <trkpt lat="49.94848" lon="2.16945">
        <ele>14.8</ele>
        <time>2022-04-11T14:28:19Z</time>
      </trkpt>
      <trkpt lat="49.94848" lon="2.16945">
        <ele>14.8</ele>
        <time>2022-04-11T14:28:20Z</time>
      </trkpt>
      <trkpt lat="49.94848" lon="2.16945">
        <ele>14.8</ele>
        <time>2022-04-11T14:28:21Z</time>
      </trkpt>
      <trkpt lat="49.94848" lon="2.16945">
        <ele>14.8</ele>
        <time>2022-04-11T14:28:22Z</time>
      </trkpt>
      <trkpt lat="49.94848" lon="2.16945">
        <ele>14.8</ele>
        <time>2022-04-11T14:28:23Z</time>
      </trkpt>
      <trkpt lat="49.94848" lon="2.16945">
        <ele>14.8</ele>
        <time>2022-04-11T14:28:24Z</time>
      </trkpt>
      <trkpt lat="49.94848" lon="2.16945">
        <ele>14.8</ele>
        <time>2022-04-11T14:28:25Z</time>
      </trkpt>
      <trkpt lat="49.94848" lon="2.16945">
        <ele>14.8</ele>
        <time>2022-04-11T14:28:26Z</time>
      </trkpt>
      <trkpt lat="49.94848" lon="2.16945">
        <ele>14.8</ele>
        <time>2022-04-11T14:28:27Z</time>
      </trkpt>
      <trkpt lat="49.94848" lon="2.16945">
        <ele>14.8</ele>
        <time>2022-04-11T14:28:28Z</time>
      </trkpt>
      <trkpt lat="49.94848" lon="2.16945">
        <ele>14.8</ele>
        <time>2022-04-11T14:28:29Z</time>
      </trkpt>
      <trkpt lat="49.94848" lon="2.16945">
        <ele>14.8</ele>
        <time>2022-04-11T14:28:30Z</time>
      </trkpt>
      <trkpt lat="49.94848" lon="2.16945">
        <ele>14.8</ele>
        <time>2022-04-11T14:28:31Z</time>
      </trkpt>
      <trkpt lat="49.94848" lon="2.16945">
        <ele>14.8</ele>
        <time>2022-04-11T14:28:32Z</time>
      </trkpt>
      <trkpt lat="49.94848" lon="2.16945">
        <ele>14.8</ele>
        <time>2022-04-11T14:28:33Z</time>
      </trkpt>
      <trkpt lat="49.94848" lon="2.16945">
        <ele>14.8</ele>
        <time>2022-04-11T14:28:34Z</time>
      </trkpt>
      <trkpt lat="49.94848" lon="2.16945">
        <ele>14.8</ele>
        <time>2022-04-11T14:28:35Z</time>
      </trkpt>
      <trkpt lat="49.94848" lon="2.16945">
        <ele>14.8</ele>
        <time>2022-04-11T14:28:36Z</time>
      </trkpt>
      <trkpt lat="49.94848" lon="2.16945">
        <ele>14.8</ele>
        <time>2022-04-11T14:28:37Z</time>
      </trkpt>
      <trkpt lat="49.94848" lon="2.16945">
        <ele>14.8</ele>
        <time>2022-04-11T14:28:38Z</time>
      </trkpt>
      <trkpt lat="49.94848" lon="2.16945">
        <ele>14.8</ele>
        <time>2022-04-11T14:28:39Z</time>
      </trkpt>
      <trkpt lat="49.94848" lon="2.16945">
        <ele>14.8</ele>
        <time>2022-04-11T14:28:40Z</time>
      </trkpt>
      <trkpt lat="49.94848" lon="2.16945">
        <ele>14.8</ele>
        <time>2022-04-11T14:28:41Z</time>
      </trkpt>
      <trkpt lat="49.94848" lon="2.16945">
        <ele>14.8</ele>
        <time>2022-04-11T14:28:42Z</time>
      </trkpt>
      <trkpt lat="49.94848" lon="2.16945">
        <ele>14.8</ele>
        <time>2022-04-11T14:28:43Z</time>
      </trkpt>
      <trkpt lat="49.94848" lon="2.16945">
        <ele>14.8</ele>
        <time>2022-04-11T14:28:44Z</time>
      </trkpt>
      <trkpt lat="49.94848" lon="2.16945">
        <ele>14.8</ele>
        <time>2022-04-11T14:28:45Z</time>
      </trkpt>
      <trkpt lat="49.94848" lon="2.16945">
        <ele>14.8</ele>
        <time>2022-04-11T14:28:46Z</time>
      </trkpt>
      <trkpt lat="49.94848" lon="2.16945">
        <ele>14.8</ele>
        <time>2022-04-11T14:28:47Z</time>
      </trkpt>
      <trkpt lat="49.94848" lon="2.16945">
        <ele>14.8</ele>
        <time>2022-04-11T14:28:48Z</time>
      </trkpt>
      <trkpt lat="49.94848" lon="2.16945">
        <ele>14.8</ele>
        <time>2022-04-11T14:28:49Z</time>
      </trkpt>
      <trkpt lat="49.94848" lon="2.16945">
        <ele>14.8</ele>
        <time>2022-04-11T14:28:50Z</time>
      </trkpt>
      <trkpt lat="49.94848" lon="2.16945">
        <ele>14.8</ele>
        <time>2022-04-11T14:28:51Z</time>
      </trkpt>
      <trkpt lat="49.94848" lon="2.16945">
        <ele>14.8</ele>
        <time>2022-04-11T14:28:52Z</time>
      </trkpt>
      <trkpt lat="49.94848" lon="2.16945">
        <ele>14.8</ele>
        <time>2022-04-11T14:28:53Z</time>
      </trkpt>
      <trkpt lat="49.94848" lon="2.16945">
        <ele>14.8</ele>
        <time>2022-04-11T14:28:54Z</time>
      </trkpt>
      <trkpt lat="49.94848" lon="2.16945">
        <ele>14.8</ele>
        <time>2022-04-11T14:28:55Z</time>
      </trkpt>
      <trkpt lat="49.94848" lon="2.16945">
        <ele>14.8</ele>
        <time>2022-04-11T14:28:56Z</time>
      </trkpt>
      <trkpt lat="49.94848" lon="2.16945">
        <ele>14.8</ele>
        <time>2022-04-11T14:28:57Z</time>
      </trkpt>
      <trkpt lat="49.94848" lon="2.16945">
        <ele>14.8</ele>
        <time>2022-04-11T14:28:58Z</time>
      </trkpt>
      <trkpt lat="49.94848" lon="2.16945">
        <ele>14.8</ele>
        <time>2022-04-11T14:28:59Z</time>
      </trkpt>
      <trkpt lat="49.94848" lon="2.16945">
        <ele>14.8</ele>
        <time>2022-04-11T14:29:00Z</time>
      </trkpt>
      <trkpt lat="49.94848" lon="2.16945">
        <ele>14.8</ele>
        <time>2022-04-11T14:29:01Z</time>
      </trkpt>
      <trkpt lat="49.94848" lon="2.16945">
        <ele>14.8</ele>
        <time>2022-04-11T14:29:02Z</time>
      </trkpt>
      <trkpt lat="49.94848" lon="2.16945">
        <ele>14.8</ele>
        <time>2022-04-11T14:29:03Z</time>
      </trkpt>
      <trkpt lat="49.94848" lon="2.16945">
        <ele>14.8</ele>
        <time>2022-04-11T14:29:04Z</time>
      </trkpt>
      <trkpt lat="49.94848" lon="2.16945">
        <ele>14.8</ele>
        <time>2022-04-11T14:29:05Z</time>
      </trkpt>
      <trkpt lat="49.94848" lon="2.16945">
        <ele>14.8</ele>
        <time>2022-04-11T14:29:06Z</time>
      </trkpt>
      <trkpt lat="49.94848" lon="2.16945">
        <ele>14.8</ele>
        <time>2022-04-11T14:29:07Z</time>
      </trkpt>
      <trkpt lat="49.94848" lon="2.16945">
        <ele>14.8</ele>
        <time>2022-04-11T14:29:08Z</time>
      </trkpt>
      <trkpt lat="49.94848" lon="2.16945">
        <ele>14.8</ele>
        <time>2022-04-11T14:29:09Z</time>
      </trkpt>
      <trkpt lat="49.94848" lon="2.16945">
        <ele>14.8</ele>
        <time>2022-04-11T14:29:10Z</time>
      </trkpt>
      <trkpt lat="49.94848" lon="2.16945">
        <ele>14.8</ele>
        <time>2022-04-11T14:29:11Z</time>
      </trkpt>
      <trkpt lat="49.94848" lon="2.16945">
        <ele>14.8</ele>
        <time>2022-04-11T14:29:12Z</time>
      </trkpt>
      <trkpt lat="49.94848" lon="2.16945">
        <ele>14.8</ele>
        <time>2022-04-11T14:29:13Z</time>
      </trkpt>
      <trkpt lat="49.94848" lon="2.16945">
        <ele>14.8</ele>
        <time>2022-04-11T14:29:14Z</time>
      </trkpt>
      <trkpt lat="49.94848" lon="2.16945">
        <ele>14.8</ele>
        <time>2022-04-11T14:29:15Z</time>
      </trkpt>
      <trkpt lat="49.94848" lon="2.16945">
        <ele>14.8</ele>
        <time>2022-04-11T14:29:16Z</time>
      </trkpt>
      <trkpt lat="49.94848" lon="2.16945">
        <ele>14.8</ele>
        <time>2022-04-11T14:29:17Z</time>
      </trkpt>
      <trkpt lat="49.94848" lon="2.16945">
        <ele>14.8</ele>
        <time>2022-04-11T14:29:18Z</time>
      </trkpt>
      <trkpt lat="49.94848" lon="2.16945">
        <ele>14.8</ele>
        <time>2022-04-11T14:29:19Z</time>
      </trkpt>
      <trkpt lat="49.94848" lon="2.16945">
        <ele>14.8</ele>
        <time>2022-04-11T14:29:20Z</time>
      </trkpt>
      <trkpt lat="49.94848" lon="2.16945">
        <ele>14.8</ele>
        <time>2022-04-11T14:29:21Z</time>
      </trkpt>
      <trkpt lat="49.94848" lon="2.16945">
        <ele>14.8</ele>
        <time>2022-04-11T14:29:22Z</time>
      </trkpt>
      <trkpt lat="49.94848" lon="2.16945">
        <ele>14.8</ele>
        <time>2022-04-11T14:29:23Z</time>
      </trkpt>
      <trkpt lat="49.94848" lon="2.16945">
        <ele>14.8</ele>
        <time>2022-04-11T14:29:24Z</time>
      </trkpt>
      <trkpt lat="49.94848" lon="2.16945">
        <ele>14.8</ele>
        <time>2022-04-11T14:29:25Z</time>
      </trkpt>
      <trkpt lat="49.94848" lon="2.16945">
        <ele>14.8</ele>
        <time>2022-04-11T14:29:26Z</time>
      </trkpt>
      <trkpt lat="49.94848" lon="2.16945">
        <ele>14.8</ele>
        <time>2022-04-11T14:29:27Z</time>
      </trkpt>
      <trkpt lat="49.94848" lon="2.16945">
        <ele>14.8</ele>
        <time>2022-04-11T14:29:28Z</time>
      </trkpt>
      <trkpt lat="49.94848" lon="2.16945">
        <ele>14.8</ele>
        <time>2022-04-11T14:29:29Z</time>
      </trkpt>
      <trkpt lat="49.94848" lon="2.16945">
        <ele>14.8</ele>
        <time>2022-04-11T14:29:30Z</time>
      </trkpt>
      <trkpt lat="49.94848" lon="2.16945">
        <ele>14.8</ele>
        <time>2022-04-11T14:29:31Z</time>
      </trkpt>
      <trkpt lat="49.94848" lon="2.16945">
        <ele>14.8</ele>
        <time>2022-04-11T14:29:32Z</time>
      </trkpt>
      <trkpt lat="49.94848" lon="2.16945">
        <ele>14.8</ele>
        <time>2022-04-11T14:29:33Z</time>
      </trkpt>
      <trkpt lat="49.94848" lon="2.16945">
        <ele>14.8</ele>
        <time>2022-04-11T14:29:34Z</time>
      </trkpt>
      <trkpt lat="49.94848" lon="2.16945">
        <ele>14.8</ele>
        <time>2022-04-11T14:29:35Z</time>
      </trkpt>
      <trkpt lat="49.94848" lon="2.16945">
        <ele>14.8</ele>
        <time>2022-04-11T14:29:36Z</time>
      </trkpt>
      <trkpt lat="49.94848" lon="2.16945">
        <ele>14.8</ele>
        <time>2022-04-11T14:29:37Z</time>
      </trkpt>
      <trkpt lat="49.94848" lon="2.16945">
        <ele>14.8</ele>
        <time>2022-04-11T14:29:38Z</time>
      </trkpt>
      <trkpt lat="49.94848" lon="2.16945">
        <ele>14.8</ele>
        <time>2022-04-11T14:29:39Z</time>
      </trkpt>
      <trkpt lat="49.94848" lon="2.16945">
        <ele>14.8</ele>
        <time>2022-04-11T14:29:40Z</time>
      </trkpt>
      <trkpt lat="49.94848" lon="2.16945">
        <ele>14.8</ele>
        <time>2022-04-11T14:29:41Z</time>
      </trkpt>
      <trkpt lat="49.94848" lon="2.16945">
        <ele>14.8</ele>
        <time>2022-04-11T14:29:42Z</time>
      </trkpt>
      <trkpt lat="49.94848" lon="2.16945">
        <ele>14.8</ele>
        <time>2022-04-11T14:29:43Z</time>
      </trkpt>
      <trkpt lat="49.94848" lon="2.16945">
        <ele>14.8</ele>
        <time>2022-04-11T14:29:44Z</time>
      </trkpt>
      <trkpt lat="49.94848" lon="2.16945">
        <ele>14.8</ele>
        <time>2022-04-11T14:29:45Z</time>
      </trkpt>
      <trkpt lat="49.94848" lon="2.16945">
        <ele>14.8</ele>
        <time>2022-04-11T14:29:46Z</time>
      </trkpt>
      <trkpt lat="49.94848" lon="2.16945">
        <ele>14.8</ele>
        <time>2022-04-11T14:29:47Z</time>
      </trkpt>
      <trkpt lat="49.94848" lon="2.16945">
        <ele>14.8</ele>
        <time>2022-04-11T14:29:48Z</time>
      </trkpt>
      <trkpt lat="49.94848" lon="2.16945">
        <ele>14.8</ele>
        <time>2022-04-11T14:29:49Z</time>
      </trkpt>
      <trkpt lat="49.94848" lon="2.16945">
        <ele>14.8</ele>
        <time>2022-04-11T14:29:50Z</time>
      </trkpt>
      <trkpt lat="49.94848" lon="2.16945">
        <ele>14.8</ele>
        <time>2022-04-11T14:29:51Z</time>
      </trkpt>
      <trkpt lat="49.94848" lon="2.16945">
        <ele>14.8</ele>
        <time>2022-04-11T14:29:52Z</time>
      </trkpt>
      <trkpt lat="49.94848" lon="2.16945">
        <ele>14.8</ele>
        <time>2022-04-11T14:29:53Z</time>
      </trkpt>
      <trkpt lat="49.94848" lon="2.16945">
        <ele>14.8</ele>
        <time>2022-04-11T14:29:54Z</time>
      </trkpt>
      <trkpt lat="49.94848" lon="2.16945">
        <ele>14.8</ele>
        <time>2022-04-11T14:29:55Z</time>
      </trkpt>
      <trkpt lat="49.94848" lon="2.16945">
        <ele>14.8</ele>
        <time>2022-04-11T14:29:56Z</time>
      </trkpt>
      <trkpt lat="49.94848" lon="2.16945">
        <ele>14.8</ele>
        <time>2022-04-11T14:29:57Z</time>
      </trkpt>
      <trkpt lat="49.94848" lon="2.16945">
        <ele>14.8</ele>
        <time>2022-04-11T14:29:58Z</time>
      </trkpt>
      <trkpt lat="49.94848" lon="2.16945">
        <ele>14.8</ele>
        <time>2022-04-11T14:29:59Z</time>
      </trkpt>
      <trkpt lat="49.94848" lon="2.16945">
        <ele>14.8</ele>
        <time>2022-04-11T14:30:00Z</time>
      </trkpt>
      <trkpt lat="49.94848" lon="2.16945">
        <ele>14.8</ele>
        <time>2022-04-11T14:30:01Z</time>
      </trkpt>
      <trkpt lat="49.94848" lon="2.16945">
        <ele>14.8</ele>
        <time>2022-04-11T14:30:02Z</time>
      </trkpt>
      <trkpt lat="49.94848" lon="2.16945">
        <ele>14.8</ele>
        <time>2022-04-11T14:30:03Z</time>
      </trkpt>
      <trkpt lat="49.94847" lon="2.16945">
        <ele>14.8</ele>
        <time>2022-04-11T14:30:04Z</time>
      </trkpt>
      <trkpt lat="49.94847" lon="2.16944">
        <ele>14.8</ele>
        <time>2022-04-11T14:30:05Z</time>
      </trkpt>
      <trkpt lat="49.94846" lon="2.16944">
        <ele>14.8</ele>
        <time>2022-04-11T14:30:06Z</time>
      </trkpt>
      <trkpt lat="49.94847" lon="2.16944">
        <ele>14.8</ele>
        <time>2022-04-11T14:30:07Z</time>
      </trkpt>
      <trkpt lat="49.94847" lon="2.16944">
        <ele>14.8</ele>
        <time>2022-04-11T14:30:08Z</time>
      </trkpt>
      <trkpt lat="49.94847" lon="2.16943">
        <ele>14.8</ele>
        <time>2022-04-11T14:30:09Z</time>
      </trkpt>
      <trkpt lat="49.94846" lon="2.16942">
        <ele>14.8</ele>
        <time>2022-04-11T14:30:10Z</time>
      </trkpt>
      <trkpt lat="49.94846" lon="2.16942">
        <ele>14.8</ele>
        <time>2022-04-11T14:30:11Z</time>
      </trkpt>
      <trkpt lat="49.94845" lon="2.16941">
        <ele>14.8</ele>
        <time>2022-04-11T14:30:13Z</time>
      </trkpt>
      <trkpt lat="49.94845" lon="2.16939">
        <ele>14.8</ele>
        <time>2022-04-11T14:30:14Z</time>
      </trkpt>
      <trkpt lat="49.94845" lon="2.16937">
        <ele>14.8</ele>
        <time>2022-04-11T14:30:15Z</time>
      </trkpt>
      <trkpt lat="49.94845" lon="2.16936">
        <ele>14.8</ele>
        <time>2022-04-11T14:30:16Z</time>
      </trkpt>
      <trkpt lat="49.94846" lon="2.16932">
        <ele>14.8</ele>
        <time>2022-04-11T14:30:17Z</time>
      </trkpt>
      <trkpt lat="49.94846" lon="2.16931">
        <ele>14.8</ele>
        <time>2022-04-11T14:30:18Z</time>
      </trkpt>
      <trkpt lat="49.94846" lon="2.1693">
        <ele>14.8</ele>
        <time>2022-04-11T14:30:19Z</time>
      </trkpt>
      <trkpt lat="49.94846" lon="2.16928">
        <ele>14.8</ele>
        <time>2022-04-11T14:30:20Z</time>
      </trkpt>
      <trkpt lat="49.94846" lon="2.16926">
        <ele>14.8</ele>
        <time>2022-04-11T14:30:22Z</time>
      </trkpt>
      <trkpt lat="49.94847" lon="2.16925">
        <ele>14.8</ele>
        <time>2022-04-11T14:30:23Z</time>
      </trkpt>
      <trkpt lat="49.9485" lon="2.16925">
        <ele>14.8</ele>
        <time>2022-04-11T14:30:25Z</time>
      </trkpt>
      <trkpt lat="49.94851" lon="2.16926">
        <ele>14.8</ele>
        <time>2022-04-11T14:30:26Z</time>
      </trkpt>
      <trkpt lat="49.94852" lon="2.16926">
        <ele>14.8</ele>
        <time>2022-04-11T14:30:27Z</time>
      </trkpt>
      <trkpt lat="49.94853" lon="2.16927">
        <ele>14.8</ele>
        <time>2022-04-11T14:30:28Z</time>
      </trkpt>
      <trkpt lat="49.94853" lon="2.16927">
        <ele>14.8</ele>
        <time>2022-04-11T14:30:29Z</time>
      </trkpt>
      <trkpt lat="49.94854" lon="2.16927">
        <ele>14.8</ele>
        <time>2022-04-11T14:30:30Z</time>
      </trkpt>
      <trkpt lat="49.94854" lon="2.16927">
        <ele>14.8</ele>
        <time>2022-04-11T14:30:31Z</time>
      </trkpt>
      <trkpt lat="49.94854" lon="2.16926">
        <ele>14.8</ele>
        <time>2022-04-11T14:30:32Z</time>
      </trkpt>
      <trkpt lat="49.94854" lon="2.16926">
        <ele>14.8</ele>
        <time>2022-04-11T14:30:33Z</time>
      </trkpt>
      <trkpt lat="49.94854" lon="2.16926">
        <ele>14.8</ele>
        <time>2022-04-11T14:30:34Z</time>
      </trkpt>
      <trkpt lat="49.94854" lon="2.16926">
        <ele>14.8</ele>
        <time>2022-04-11T14:30:35Z</time>
      </trkpt>
      <trkpt lat="49.94854" lon="2.16926">
        <ele>14.8</ele>
        <time>2022-04-11T14:30:36Z</time>
      </trkpt>
      <trkpt lat="49.94854" lon="2.16926">
        <ele>14.8</ele>
        <time>2022-04-11T14:30:37Z</time>
      </trkpt>
      <trkpt lat="49.94854" lon="2.16926">
        <ele>14.8</ele>
        <time>2022-04-11T14:30:38Z</time>
      </trkpt>
      <trkpt lat="49.94854" lon="2.16926">
        <ele>14.8</ele>
        <time>2022-04-11T14:30:39Z</time>
      </trkpt>
      <trkpt lat="49.94854" lon="2.16926">
        <ele>14.8</ele>
        <time>2022-04-11T14:30:40Z</time>
      </trkpt>
      <trkpt lat="49.94854" lon="2.16926">
        <ele>14.8</ele>
        <time>2022-04-11T14:30:41Z</time>
      </trkpt>
      <trkpt lat="49.94854" lon="2.16926">
        <ele>14.8</ele>
        <time>2022-04-11T14:30:42Z</time>
      </trkpt>
      <trkpt lat="49.94854" lon="2.16926">
        <ele>14.8</ele>
        <time>2022-04-11T14:30:43Z</time>
      </trkpt>
      <trkpt lat="49.94854" lon="2.16926">
        <ele>14.8</ele>
        <time>2022-04-11T14:30:44Z</time>
      </trkpt>
      <trkpt lat="49.94854" lon="2.16926">
        <ele>14.8</ele>
        <time>2022-04-11T14:30:45Z</time>
      </trkpt>
      <trkpt lat="49.94854" lon="2.16926">
        <ele>14.8</ele>
        <time>2022-04-11T14:30:46Z</time>
      </trkpt>
      <trkpt lat="49.94854" lon="2.16926">
        <ele>14.8</ele>
        <time>2022-04-11T14:30:47Z</time>
      </trkpt>
      <trkpt lat="49.94854" lon="2.16926">
        <ele>14.8</ele>
        <time>2022-04-11T14:30:48Z</time>
      </trkpt>
      <trkpt lat="49.94854" lon="2.16926">
        <ele>14.8</ele>
        <time>2022-04-11T14:30:49Z</time>
      </trkpt>
      <trkpt lat="49.94854" lon="2.16926">
        <ele>14.8</ele>
        <time>2022-04-11T14:30:50Z</time>
      </trkpt>
      <trkpt lat="49.94854" lon="2.16926">
        <ele>14.8</ele>
        <time>2022-04-11T14:30:51Z</time>
      </trkpt>
      <trkpt lat="49.94854" lon="2.16926">
        <ele>14.8</ele>
        <time>2022-04-11T14:30:52Z</time>
      </trkpt>
      <trkpt lat="49.94854" lon="2.16926">
        <ele>14.8</ele>
        <time>2022-04-11T14:30:53Z</time>
      </trkpt>
      <trkpt lat="49.94854" lon="2.16926">
        <ele>14.8</ele>
        <time>2022-04-11T14:30:54Z</time>
      </trkpt>
      <trkpt lat="49.94854" lon="2.16926">
        <ele>14.8</ele>
        <time>2022-04-11T14:30:55Z</time>
      </trkpt>
      <trkpt lat="49.94854" lon="2.16926">
        <ele>14.8</ele>
        <time>2022-04-11T14:30:56Z</time>
      </trkpt>
      <trkpt lat="49.94854" lon="2.16926">
        <ele>14.8</ele>
        <time>2022-04-11T14:30:57Z</time>
      </trkpt>
      <trkpt lat="49.94854" lon="2.16926">
        <ele>14.8</ele>
        <time>2022-04-11T14:30:58Z</time>
      </trkpt>
      <trkpt lat="49.94854" lon="2.16926">
        <ele>14.8</ele>
        <time>2022-04-11T14:30:59Z</time>
      </trkpt>
      <trkpt lat="49.94854" lon="2.16926">
        <ele>14.8</ele>
        <time>2022-04-11T14:31:00Z</time>
      </trkpt>
      <trkpt lat="49.94854" lon="2.16926">
        <ele>14.8</ele>
        <time>2022-04-11T14:31:01Z</time>
      </trkpt>
      <trkpt lat="49.94854" lon="2.16926">
        <ele>14.8</ele>
        <time>2022-04-11T14:31:02Z</time>
      </trkpt>
      <trkpt lat="49.94854" lon="2.16926">
        <ele>14.8</ele>
        <time>2022-04-11T14:31:03Z</time>
      </trkpt>
      <trkpt lat="49.94854" lon="2.16926">
        <ele>14.8</ele>
        <time>2022-04-11T14:31:04Z</time>
      </trkpt>
      <trkpt lat="49.94854" lon="2.16926">
        <ele>14.8</ele>
        <time>2022-04-11T14:31:05Z</time>
      </trkpt>
      <trkpt lat="49.94854" lon="2.16926">
        <ele>14.8</ele>
        <time>2022-04-11T14:31:06Z</time>
      </trkpt>
      <trkpt lat="49.94854" lon="2.16926">
        <ele>14.8</ele>
        <time>2022-04-11T14:31:07Z</time>
      </trkpt>
      <trkpt lat="49.94854" lon="2.16926">
        <ele>14.9</ele>
        <time>2022-04-11T14:31:08Z</time>
      </trkpt>
      <trkpt lat="49.94854" lon="2.16926">
        <ele>14.9</ele>
        <time>2022-04-11T14:31:09Z</time>
      </trkpt>
      <trkpt lat="49.94854" lon="2.16926">
        <ele>14.9</ele>
        <time>2022-04-11T14:31:10Z</time>
      </trkpt>
      <trkpt lat="49.94854" lon="2.16926">
        <ele>14.9</ele>
        <time>2022-04-11T14:31:11Z</time>
      </trkpt>
      <trkpt lat="49.94855" lon="2.16925">
        <ele>14.9</ele>
        <time>2022-04-11T14:31:12Z</time>
      </trkpt>
      <trkpt lat="49.94856" lon="2.16924">
        <ele>14.9</ele>
        <time>2022-04-11T14:31:13Z</time>
      </trkpt>
      <trkpt lat="49.94857" lon="2.16924">
        <ele>14.9</ele>
        <time>2022-04-11T14:31:14Z</time>
      </trkpt>
      <trkpt lat="49.94857" lon="2.16923">
        <ele>14.9</ele>
        <time>2022-04-11T14:31:15Z</time>
      </trkpt>
      <trkpt lat="49.94857" lon="2.16922">
        <ele>15</ele>
        <time>2022-04-11T14:31:16Z</time>
      </trkpt>
      <trkpt lat="49.94857" lon="2.1692">
        <ele>15</ele>
        <time>2022-04-11T14:31:17Z</time>
      </trkpt>
      <trkpt lat="49.94857" lon="2.16918">
        <ele>15</ele>
        <time>2022-04-11T14:31:18Z</time>
      </trkpt>
      <trkpt lat="49.94856" lon="2.16917">
        <ele>15</ele>
        <time>2022-04-11T14:31:19Z</time>
      </trkpt>
      <trkpt lat="49.94855" lon="2.16917">
        <ele>14.9</ele>
        <time>2022-04-11T14:31:20Z</time>
      </trkpt>
      <trkpt lat="49.94856" lon="2.16914">
        <ele>14.9</ele>
        <time>2022-04-11T14:31:21Z</time>
      </trkpt>
      <trkpt lat="49.94855" lon="2.1691">
        <ele>14.9</ele>
        <time>2022-04-11T14:31:23Z</time>
      </trkpt>
      <trkpt lat="49.94854" lon="2.16905">
        <ele>14.9</ele>
        <time>2022-04-11T14:31:24Z</time>
      </trkpt>
      <trkpt lat="49.94854" lon="2.16904">
        <ele>14.9</ele>
        <time>2022-04-11T14:31:25Z</time>
      </trkpt>
      <trkpt lat="49.94853" lon="2.16902">
        <ele>14.9</ele>
        <time>2022-04-11T14:31:26Z</time>
      </trkpt>
      <trkpt lat="49.94853" lon="2.169">
        <ele>14.9</ele>
        <time>2022-04-11T14:31:27Z</time>
      </trkpt>
      <trkpt lat="49.94852" lon="2.16896">
        <ele>14.9</ele>
        <time>2022-04-11T14:31:28Z</time>
      </trkpt>
      <trkpt lat="49.94852" lon="2.16894">
        <ele>14.9</ele>
        <time>2022-04-11T14:31:29Z</time>
      </trkpt>
      <trkpt lat="49.94852" lon="2.16893">
        <ele>14.9</ele>
        <time>2022-04-11T14:31:30Z</time>
      </trkpt>
      <trkpt lat="49.94852" lon="2.16889">
        <ele>14.9</ele>
        <time>2022-04-11T14:31:32Z</time>
      </trkpt>
      <trkpt lat="49.94851" lon="2.16888">
        <ele>14.9</ele>
        <time>2022-04-11T14:31:33Z</time>
      </trkpt>
      <trkpt lat="49.9485" lon="2.16886">
        <ele>14.9</ele>
        <time>2022-04-11T14:31:34Z</time>
      </trkpt>
      <trkpt lat="49.94849" lon="2.16885">
        <ele>14.8</ele>
        <time>2022-04-11T14:31:35Z</time>
      </trkpt>
      <trkpt lat="49.94848" lon="2.16884">
        <ele>14.8</ele>
        <time>2022-04-11T14:31:36Z</time>
      </trkpt>
      <trkpt lat="49.94848" lon="2.16882">
        <ele>14.8</ele>
        <time>2022-04-11T14:31:37Z</time>
      </trkpt>
      <trkpt lat="49.94847" lon="2.16881">
        <ele>14.8</ele>
        <time>2022-04-11T14:31:38Z</time>
      </trkpt>
      <trkpt lat="49.94846" lon="2.16879">
        <ele>14.8</ele>
        <time>2022-04-11T14:31:39Z</time>
      </trkpt>
      <trkpt lat="49.94844" lon="2.16877">
        <ele>14.8</ele>
        <time>2022-04-11T14:31:41Z</time>
      </trkpt>
      <trkpt lat="49.94843" lon="2.16875">
        <ele>14.8</ele>
        <time>2022-04-11T14:31:42Z</time>
      </trkpt>
      <trkpt lat="49.94842" lon="2.16873">
        <ele>14.8</ele>
        <time>2022-04-11T14:31:43Z</time>
      </trkpt>
      <trkpt lat="49.94841" lon="2.16871">
        <ele>14.8</ele>
        <time>2022-04-11T14:31:44Z</time>
      </trkpt>
      <trkpt lat="49.9484" lon="2.16869">
        <ele>14.8</ele>
        <time>2022-04-11T14:31:45Z</time>
      </trkpt>
      <trkpt lat="49.94839" lon="2.16867">
        <ele>14.8</ele>
        <time>2022-04-11T14:31:46Z</time>
      </trkpt>
      <trkpt lat="49.94838" lon="2.16863">
        <ele>14.8</ele>
        <time>2022-04-11T14:31:48Z</time>
      </trkpt>
      <trkpt lat="49.94837" lon="2.16861">
        <ele>14.8</ele>
        <time>2022-04-11T14:31:49Z</time>
      </trkpt>
      <trkpt lat="49.94837" lon="2.16859">
        <ele>14.8</ele>
        <time>2022-04-11T14:31:50Z</time>
      </trkpt>
      <trkpt lat="49.94836" lon="2.16857">
        <ele>14.8</ele>
        <time>2022-04-11T14:31:51Z</time>
      </trkpt>
      <trkpt lat="49.94836" lon="2.16855">
        <ele>14.8</ele>
        <time>2022-04-11T14:31:52Z</time>
      </trkpt>
      <trkpt lat="49.94835" lon="2.16852">
        <ele>14.8</ele>
        <time>2022-04-11T14:31:53Z</time>
      </trkpt>
      <trkpt lat="49.94835" lon="2.1685">
        <ele>14.8</ele>
        <time>2022-04-11T14:31:54Z</time>
      </trkpt>
      <trkpt lat="49.94834" lon="2.16849">
        <ele>14.8</ele>
        <time>2022-04-11T14:31:55Z</time>
      </trkpt>
      <trkpt lat="49.94833" lon="2.16847">
        <ele>14.8</ele>
        <time>2022-04-11T14:31:56Z</time>
      </trkpt>
      <trkpt lat="49.94832" lon="2.16842">
        <ele>14.8</ele>
        <time>2022-04-11T14:31:58Z</time>
      </trkpt>
      <trkpt lat="49.94831" lon="2.1684">
        <ele>14.8</ele>
        <time>2022-04-11T14:32:00Z</time>
      </trkpt>
      <trkpt lat="49.9483" lon="2.16838">
        <ele>14.8</ele>
        <time>2022-04-11T14:32:01Z</time>
      </trkpt>
      <trkpt lat="49.9483" lon="2.16836">
        <ele>14.8</ele>
        <time>2022-04-11T14:32:02Z</time>
      </trkpt>
      <trkpt lat="49.94829" lon="2.16834">
        <ele>14.8</ele>
        <time>2022-04-11T14:32:03Z</time>
      </trkpt>
      <trkpt lat="49.94829" lon="2.16831">
        <ele>14.8</ele>
        <time>2022-04-11T14:32:04Z</time>
      </trkpt>
      <trkpt lat="49.94829" lon="2.1683">
        <ele>14.8</ele>
        <time>2022-04-11T14:32:05Z</time>
      </trkpt>
      <trkpt lat="49.94828" lon="2.16829">
        <ele>14.8</ele>
        <time>2022-04-11T14:32:06Z</time>
      </trkpt>
      <trkpt lat="49.94828" lon="2.16825">
        <ele>14.9</ele>
        <time>2022-04-11T14:32:07Z</time>
      </trkpt>
      <trkpt lat="49.94828" lon="2.16824">
        <ele>14.9</ele>
        <time>2022-04-11T14:32:08Z</time>
      </trkpt>
      <trkpt lat="49.94828" lon="2.16823">
        <ele>14.9</ele>
        <time>2022-04-11T14:32:09Z</time>
      </trkpt>
      <trkpt lat="49.94827" lon="2.16819">
        <ele>14.9</ele>
        <time>2022-04-11T14:32:10Z</time>
      </trkpt>
      <trkpt lat="49.94827" lon="2.16818">
        <ele>14.9</ele>
        <time>2022-04-11T14:32:11Z</time>
      </trkpt>
      <trkpt lat="49.94826" lon="2.16817">
        <ele>14.9</ele>
        <time>2022-04-11T14:32:12Z</time>
      </trkpt>
      <trkpt lat="49.94826" lon="2.16815">
        <ele>14.9</ele>
        <time>2022-04-11T14:32:14Z</time>
      </trkpt>
      <trkpt lat="49.94826" lon="2.16813">
        <ele>14.9</ele>
        <time>2022-04-11T14:32:15Z</time>
      </trkpt>
      <trkpt lat="49.94826" lon="2.16812">
        <ele>14.9</ele>
        <time>2022-04-11T14:32:16Z</time>
      </trkpt>
      <trkpt lat="49.94826" lon="2.16808">
        <ele>14.9</ele>
        <time>2022-04-11T14:32:17Z</time>
      </trkpt>
      <trkpt lat="49.94826" lon="2.16807">
        <ele>14.9</ele>
        <time>2022-04-11T14:32:18Z</time>
      </trkpt>
      <trkpt lat="49.94826" lon="2.16805">
        <ele>14.9</ele>
        <time>2022-04-11T14:32:19Z</time>
      </trkpt>
      <trkpt lat="49.94825" lon="2.16802">
        <ele>14.9</ele>
        <time>2022-04-11T14:32:21Z</time>
      </trkpt>
      <trkpt lat="49.94825" lon="2.168">
        <ele>14.9</ele>
        <time>2022-04-11T14:32:22Z</time>
      </trkpt>
      <trkpt lat="49.94825" lon="2.16799">
        <ele>14.9</ele>
        <time>2022-04-11T14:32:23Z</time>
      </trkpt>
      <trkpt lat="49.94824" lon="2.16797">
        <ele>14.9</ele>
        <time>2022-04-11T14:32:24Z</time>
      </trkpt>
      <trkpt lat="49.94824" lon="2.16795">
        <ele>15</ele>
        <time>2022-04-11T14:32:25Z</time>
      </trkpt>
      <trkpt lat="49.94824" lon="2.16792">
        <ele>15</ele>
        <time>2022-04-11T14:32:26Z</time>
      </trkpt>
      <trkpt lat="49.94823" lon="2.1679">
        <ele>15</ele>
        <time>2022-04-11T14:32:28Z</time>
      </trkpt>
      <trkpt lat="49.94823" lon="2.16788">
        <ele>15</ele>
        <time>2022-04-11T14:32:29Z</time>
      </trkpt>
      <trkpt lat="49.94822" lon="2.16786">
        <ele>15</ele>
        <time>2022-04-11T14:32:30Z</time>
      </trkpt>
      <trkpt lat="49.94822" lon="2.16784">
        <ele>15</ele>
        <time>2022-04-11T14:32:31Z</time>
      </trkpt>
      <trkpt lat="49.94821" lon="2.16782">
        <ele>15</ele>
        <time>2022-04-11T14:32:32Z</time>
      </trkpt>
      <trkpt lat="49.94821" lon="2.16779">
        <ele>15</ele>
        <time>2022-04-11T14:32:34Z</time>
      </trkpt>
      <trkpt lat="49.9482" lon="2.16777">
        <ele>15</ele>
        <time>2022-04-11T14:32:35Z</time>
      </trkpt>
      <trkpt lat="49.9482" lon="2.16776">
        <ele>15</ele>
        <time>2022-04-11T14:32:36Z</time>
      </trkpt>
      <trkpt lat="49.94819" lon="2.16774">
        <ele>15</ele>
        <time>2022-04-11T14:32:37Z</time>
      </trkpt>
      <trkpt lat="49.94819" lon="2.16773">
        <ele>15</ele>
        <time>2022-04-11T14:32:38Z</time>
      </trkpt>
      <trkpt lat="49.94818" lon="2.16771">
        <ele>15.1</ele>
        <time>2022-04-11T14:32:39Z</time>
      </trkpt>
      <trkpt lat="49.94818" lon="2.16769">
        <ele>15.1</ele>
        <time>2022-04-11T14:32:40Z</time>
      </trkpt>
      <trkpt lat="49.94817" lon="2.16767">
        <ele>15.1</ele>
        <time>2022-04-11T14:32:42Z</time>
      </trkpt>
      <trkpt lat="49.94816" lon="2.16766">
        <ele>15.1</ele>
        <time>2022-04-11T14:32:43Z</time>
      </trkpt>
      <trkpt lat="49.94815" lon="2.16764">
        <ele>15.1</ele>
        <time>2022-04-11T14:32:44Z</time>
      </trkpt>
      <trkpt lat="49.94815" lon="2.16763">
        <ele>15.1</ele>
        <time>2022-04-11T14:32:45Z</time>
      </trkpt>
      <trkpt lat="49.94814" lon="2.16761">
        <ele>15.1</ele>
        <time>2022-04-11T14:32:46Z</time>
      </trkpt>
      <trkpt lat="49.94813" lon="2.16759">
        <ele>15.1</ele>
        <time>2022-04-11T14:32:47Z</time>
      </trkpt>
      <trkpt lat="49.94812" lon="2.16758">
        <ele>15.1</ele>
        <time>2022-04-11T14:32:48Z</time>
      </trkpt>
      <trkpt lat="49.94812" lon="2.16756">
        <ele>15.2</ele>
        <time>2022-04-11T14:32:49Z</time>
      </trkpt>
      <trkpt lat="49.9481" lon="2.16753">
        <ele>15.2</ele>
        <time>2022-04-11T14:32:51Z</time>
      </trkpt>
      <trkpt lat="49.9481" lon="2.16751">
        <ele>15.2</ele>
        <time>2022-04-11T14:32:52Z</time>
      </trkpt>
      <trkpt lat="49.94809" lon="2.16749">
        <ele>15.2</ele>
        <time>2022-04-11T14:32:53Z</time>
      </trkpt>
      <trkpt lat="49.94808" lon="2.16745">
        <ele>15.2</ele>
        <time>2022-04-11T14:32:54Z</time>
      </trkpt>
      <trkpt lat="49.94807" lon="2.16744">
        <ele>15.3</ele>
        <time>2022-04-11T14:32:55Z</time>
      </trkpt>
      <trkpt lat="49.94806" lon="2.16742">
        <ele>15.3</ele>
        <time>2022-04-11T14:32:56Z</time>
      </trkpt>
      <trkpt lat="49.94806" lon="2.16739">
        <ele>15.3</ele>
        <time>2022-04-11T14:32:57Z</time>
      </trkpt>
      <trkpt lat="49.94805" lon="2.16737">
        <ele>15.3</ele>
        <time>2022-04-11T14:32:58Z</time>
      </trkpt>
      <trkpt lat="49.94805" lon="2.16735">
        <ele>15.3</ele>
        <time>2022-04-11T14:32:59Z</time>
      </trkpt>
      <trkpt lat="49.94805" lon="2.16732">
        <ele>15.3</ele>
        <time>2022-04-11T14:33:00Z</time>
      </trkpt>
      <trkpt lat="49.94805" lon="2.16729">
        <ele>15.3</ele>
        <time>2022-04-11T14:33:02Z</time>
      </trkpt>
      <trkpt lat="49.94805" lon="2.16726">
        <ele>15.3</ele>
        <time>2022-04-11T14:33:03Z</time>
      </trkpt>
      <trkpt lat="49.94806" lon="2.16725">
        <ele>15.3</ele>
        <time>2022-04-11T14:33:04Z</time>
      </trkpt>
      <trkpt lat="49.94807" lon="2.16724">
        <ele>15.3</ele>
        <time>2022-04-11T14:33:05Z</time>
      </trkpt>
      <trkpt lat="49.94809" lon="2.16724">
        <ele>15.3</ele>
        <time>2022-04-11T14:33:06Z</time>
      </trkpt>
      <trkpt lat="49.94809" lon="2.16725">
        <ele>15.3</ele>
        <time>2022-04-11T14:33:07Z</time>
      </trkpt>
      <trkpt lat="49.94809" lon="2.16725">
        <ele>15.3</ele>
        <time>2022-04-11T14:33:08Z</time>
      </trkpt>
      <trkpt lat="49.9481" lon="2.16724">
        <ele>15.3</ele>
        <time>2022-04-11T14:33:09Z</time>
      </trkpt>
      <trkpt lat="49.9481" lon="2.16724">
        <ele>15.3</ele>
        <time>2022-04-11T14:33:10Z</time>
      </trkpt>
      <trkpt lat="49.9481" lon="2.16724">
        <ele>15.3</ele>
        <time>2022-04-11T14:33:11Z</time>
      </trkpt>
      <trkpt lat="49.9481" lon="2.16725">
        <ele>15.3</ele>
        <time>2022-04-11T14:33:12Z</time>
      </trkpt>
      <trkpt lat="49.9481" lon="2.16725">
        <ele>15.3</ele>
        <time>2022-04-11T14:33:13Z</time>
      </trkpt>
      <trkpt lat="49.9481" lon="2.16725">
        <ele>15.3</ele>
        <time>2022-04-11T14:33:14Z</time>
      </trkpt>
      <trkpt lat="49.9481" lon="2.16726">
        <ele>15.3</ele>
        <time>2022-04-11T14:33:15Z</time>
      </trkpt>
      <trkpt lat="49.9481" lon="2.16726">
        <ele>15.3</ele>
        <time>2022-04-11T14:33:16Z</time>
      </trkpt>
      <trkpt lat="49.9481" lon="2.16726">
        <ele>15.3</ele>
        <time>2022-04-11T14:33:17Z</time>
      </trkpt>
      <trkpt lat="49.9481" lon="2.16726">
        <ele>15.3</ele>
        <time>2022-04-11T14:33:18Z</time>
      </trkpt>
      <trkpt lat="49.9481" lon="2.16726">
        <ele>15.3</ele>
        <time>2022-04-11T14:33:19Z</time>
      </trkpt>
      <trkpt lat="49.9481" lon="2.16726">
        <ele>15.3</ele>
        <time>2022-04-11T14:33:20Z</time>
      </trkpt>
      <trkpt lat="49.9481" lon="2.16726">
        <ele>15.3</ele>
        <time>2022-04-11T14:33:21Z</time>
      </trkpt>
      <trkpt lat="49.9481" lon="2.16727">
        <ele>15.3</ele>
        <time>2022-04-11T14:33:22Z</time>
      </trkpt>
      <trkpt lat="49.9481" lon="2.16727">
        <ele>15.3</ele>
        <time>2022-04-11T14:33:23Z</time>
      </trkpt>
      <trkpt lat="49.9481" lon="2.16727">
        <ele>15.3</ele>
        <time>2022-04-11T14:33:24Z</time>
      </trkpt>
      <trkpt lat="49.9481" lon="2.16727">
        <ele>15.3</ele>
        <time>2022-04-11T14:33:25Z</time>
      </trkpt>
      <trkpt lat="49.9481" lon="2.16727">
        <ele>15.3</ele>
        <time>2022-04-11T14:33:26Z</time>
      </trkpt>
      <trkpt lat="49.9481" lon="2.16727">
        <ele>15.3</ele>
        <time>2022-04-11T14:33:27Z</time>
      </trkpt>
      <trkpt lat="49.9481" lon="2.16727">
        <ele>15.3</ele>
        <time>2022-04-11T14:33:28Z</time>
      </trkpt>
      <trkpt lat="49.94811" lon="2.16726">
        <ele>15.3</ele>
        <time>2022-04-11T14:33:29Z</time>
      </trkpt>
      <trkpt lat="49.94811" lon="2.16724">
        <ele>15.3</ele>
        <time>2022-04-11T14:33:30Z</time>
      </trkpt>
      <trkpt lat="49.94812" lon="2.16723">
        <ele>15.3</ele>
        <time>2022-04-11T14:33:31Z</time>
      </trkpt>
      <trkpt lat="49.94812" lon="2.16723">
        <ele>15.3</ele>
        <time>2022-04-11T14:33:32Z</time>
      </trkpt>
      <trkpt lat="49.94813" lon="2.16722">
        <ele>15.3</ele>
        <time>2022-04-11T14:33:34Z</time>
      </trkpt>
      <trkpt lat="49.94815" lon="2.16721">
        <ele>15.3</ele>
        <time>2022-04-11T14:33:35Z</time>
      </trkpt>
      <trkpt lat="49.94816" lon="2.1672">
        <ele>15.3</ele>
        <time>2022-04-11T14:33:36Z</time>
      </trkpt>
      <trkpt lat="49.94818" lon="2.16719">
        <ele>15.3</ele>
        <time>2022-04-11T14:33:37Z</time>
      </trkpt>
      <trkpt lat="49.94819" lon="2.16718">
        <ele>15.3</ele>
        <time>2022-04-11T14:33:38Z</time>
      </trkpt>
      <trkpt lat="49.9482" lon="2.16716">
        <ele>15.3</ele>
        <time>2022-04-11T14:33:39Z</time>
      </trkpt>
      <trkpt lat="49.94822" lon="2.16714">
        <ele>15.3</ele>
        <time>2022-04-11T14:33:41Z</time>
      </trkpt>
      <trkpt lat="49.94822" lon="2.16712">
        <ele>15.3</ele>
        <time>2022-04-11T14:33:42Z</time>
      </trkpt>
      <trkpt lat="49.94823" lon="2.16711">
        <ele>15.3</ele>
        <time>2022-04-11T14:33:43Z</time>
      </trkpt>
      <trkpt lat="49.94824" lon="2.1671">
        <ele>15.3</ele>
        <time>2022-04-11T14:33:44Z</time>
      </trkpt>
      <trkpt lat="49.94825" lon="2.1671">
        <ele>15.3</ele>
        <time>2022-04-11T14:33:45Z</time>
      </trkpt>
      <trkpt lat="49.94826" lon="2.16708">
        <ele>15.3</ele>
        <time>2022-04-11T14:33:47Z</time>
      </trkpt>
      <trkpt lat="49.94828" lon="2.16706">
        <ele>15.3</ele>
        <time>2022-04-11T14:33:48Z</time>
      </trkpt>
      <trkpt lat="49.94829" lon="2.16705">
        <ele>15.3</ele>
        <time>2022-04-11T14:33:49Z</time>
      </trkpt>
      <trkpt lat="49.9483" lon="2.16704">
        <ele>15.3</ele>
        <time>2022-04-11T14:33:50Z</time>
      </trkpt>
      <trkpt lat="49.94831" lon="2.16703">
        <ele>15.3</ele>
        <time>2022-04-11T14:33:51Z</time>
      </trkpt>
      <trkpt lat="49.94832" lon="2.16702">
        <ele>15.3</ele>
        <time>2022-04-11T14:33:52Z</time>
      </trkpt>
      <trkpt lat="49.94833" lon="2.16701">
        <ele>15.3</ele>
        <time>2022-04-11T14:33:53Z</time>
      </trkpt>
      <trkpt lat="49.94834" lon="2.16701">
        <ele>15.3</ele>
        <time>2022-04-11T14:33:54Z</time>
      </trkpt>
      <trkpt lat="49.94836" lon="2.16699">
        <ele>15.3</ele>
        <time>2022-04-11T14:33:56Z</time>
      </trkpt>
      <trkpt lat="49.94837" lon="2.16698">
        <ele>15.3</ele>
        <time>2022-04-11T14:33:57Z</time>
      </trkpt>
      <trkpt lat="49.94838" lon="2.16697">
        <ele>15.3</ele>
        <time>2022-04-11T14:33:58Z</time>
      </trkpt>
      <trkpt lat="49.9484" lon="2.16696">
        <ele>15.3</ele>
        <time>2022-04-11T14:33:59Z</time>
      </trkpt>
      <trkpt lat="49.94841" lon="2.16696">
        <ele>15.3</ele>
        <time>2022-04-11T14:34:00Z</time>
      </trkpt>
      <trkpt lat="49.94842" lon="2.16697">
        <ele>15.3</ele>
        <time>2022-04-11T14:34:01Z</time>
      </trkpt>
      <trkpt lat="49.94844" lon="2.16696">
        <ele>15.3</ele>
        <time>2022-04-11T14:34:03Z</time>
      </trkpt>
      <trkpt lat="49.94845" lon="2.16699">
        <ele>15.3</ele>
        <time>2022-04-11T14:34:04Z</time>
      </trkpt>
      <trkpt lat="49.94845" lon="2.16701">
        <ele>15.3</ele>
        <time>2022-04-11T14:34:05Z</time>
      </trkpt>
      <trkpt lat="49.94846" lon="2.16701">
        <ele>15.3</ele>
        <time>2022-04-11T14:34:06Z</time>
      </trkpt>
      <trkpt lat="49.94846" lon="2.16703">
        <ele>15.3</ele>
        <time>2022-04-11T14:34:07Z</time>
      </trkpt>
      <trkpt lat="49.94846" lon="2.16703">
        <ele>15.3</ele>
        <time>2022-04-11T14:34:08Z</time>
      </trkpt>
      <trkpt lat="49.94846" lon="2.16703">
        <ele>15.3</ele>
        <time>2022-04-11T14:34:09Z</time>
      </trkpt>
      <trkpt lat="49.94846" lon="2.16702">
        <ele>15.3</ele>
        <time>2022-04-11T14:34:10Z</time>
      </trkpt>
      <trkpt lat="49.94847" lon="2.16701">
        <ele>15.3</ele>
        <time>2022-04-11T14:34:12Z</time>
      </trkpt>
      <trkpt lat="49.94847" lon="2.16701">
        <ele>15.3</ele>
        <time>2022-04-11T14:34:13Z</time>
      </trkpt>
      <trkpt lat="49.94848" lon="2.16701">
        <ele>15.3</ele>
        <time>2022-04-11T14:34:14Z</time>
      </trkpt>
      <trkpt lat="49.94848" lon="2.16702">
        <ele>15.3</ele>
        <time>2022-04-11T14:34:15Z</time>
      </trkpt>
      <trkpt lat="49.94849" lon="2.16702">
        <ele>15.3</ele>
        <time>2022-04-11T14:34:16Z</time>
      </trkpt>
      <trkpt lat="49.94851" lon="2.16702">
        <ele>15.3</ele>
        <time>2022-04-11T14:34:18Z</time>
      </trkpt>
      <trkpt lat="49.94852" lon="2.16701">
        <ele>15.3</ele>
        <time>2022-04-11T14:34:19Z</time>
      </trkpt>
      <trkpt lat="49.94855" lon="2.16701">
        <ele>15.3</ele>
        <time>2022-04-11T14:34:20Z</time>
      </trkpt>
      <trkpt lat="49.94856" lon="2.16701">
        <ele>15.3</ele>
        <time>2022-04-11T14:34:21Z</time>
      </trkpt>
      <trkpt lat="49.9486" lon="2.16701">
        <ele>15.3</ele>
        <time>2022-04-11T14:34:22Z</time>
      </trkpt>
      <trkpt lat="49.9486" lon="2.16701">
        <ele>15.3</ele>
        <time>2022-04-11T14:34:23Z</time>
      </trkpt>
      <trkpt lat="49.94862" lon="2.167">
        <ele>15.3</ele>
        <time>2022-04-11T14:34:24Z</time>
      </trkpt>
      <trkpt lat="49.94865" lon="2.167">
        <ele>15.3</ele>
        <time>2022-04-11T14:34:26Z</time>
      </trkpt>
      <trkpt lat="49.94868" lon="2.167">
        <ele>15.3</ele>
        <time>2022-04-11T14:34:27Z</time>
      </trkpt>
      <trkpt lat="49.94869" lon="2.167">
        <ele>15.3</ele>
        <time>2022-04-11T14:34:28Z</time>
      </trkpt>
      <trkpt lat="49.94872" lon="2.167">
        <ele>15.3</ele>
        <time>2022-04-11T14:34:29Z</time>
      </trkpt>
      <trkpt lat="49.94873" lon="2.167">
        <ele>15.3</ele>
        <time>2022-04-11T14:34:30Z</time>
      </trkpt>
      <trkpt lat="49.94876" lon="2.16699">
        <ele>15.3</ele>
        <time>2022-04-11T14:34:31Z</time>
      </trkpt>
      <trkpt lat="49.94877" lon="2.16699">
        <ele>15.3</ele>
        <time>2022-04-11T14:34:32Z</time>
      </trkpt>
      <trkpt lat="49.94878" lon="2.16698">
        <ele>15.3</ele>
        <time>2022-04-11T14:34:33Z</time>
      </trkpt>
      <trkpt lat="49.9488" lon="2.16698">
        <ele>15.3</ele>
        <time>2022-04-11T14:34:34Z</time>
      </trkpt>
      <trkpt lat="49.94882" lon="2.16699">
        <ele>15.3</ele>
        <time>2022-04-11T14:34:35Z</time>
      </trkpt>
      <trkpt lat="49.94884" lon="2.16699">
        <ele>15.3</ele>
        <time>2022-04-11T14:34:36Z</time>
      </trkpt>
      <trkpt lat="49.94885" lon="2.16699">
        <ele>15.3</ele>
        <time>2022-04-11T14:34:37Z</time>
      </trkpt>
      <trkpt lat="49.94887" lon="2.16699">
        <ele>15.3</ele>
        <time>2022-04-11T14:34:38Z</time>
      </trkpt>
      <trkpt lat="49.94889" lon="2.16698">
        <ele>15.3</ele>
        <time>2022-04-11T14:34:39Z</time>
      </trkpt>
      <trkpt lat="49.9489" lon="2.16697">
        <ele>15.3</ele>
        <time>2022-04-11T14:34:40Z</time>
      </trkpt>
      <trkpt lat="49.9489" lon="2.16697">
        <ele>15.3</ele>
        <time>2022-04-11T14:34:41Z</time>
      </trkpt>
      <trkpt lat="49.94892" lon="2.16696">
        <ele>15.3</ele>
        <time>2022-04-11T14:34:42Z</time>
      </trkpt>
      <trkpt lat="49.94892" lon="2.16695">
        <ele>15.3</ele>
        <time>2022-04-11T14:34:43Z</time>
      </trkpt>
      <trkpt lat="49.94894" lon="2.16694">
        <ele>15.3</ele>
        <time>2022-04-11T14:34:45Z</time>
      </trkpt>
      <trkpt lat="49.94895" lon="2.16694">
        <ele>15.3</ele>
        <time>2022-04-11T14:34:46Z</time>
      </trkpt>
      <trkpt lat="49.94896" lon="2.16694">
        <ele>15.3</ele>
        <time>2022-04-11T14:34:47Z</time>
      </trkpt>
      <trkpt lat="49.94897" lon="2.16694">
        <ele>15.3</ele>
        <time>2022-04-11T14:34:48Z</time>
      </trkpt>
      <trkpt lat="49.94899" lon="2.16693">
        <ele>15.3</ele>
        <time>2022-04-11T14:34:49Z</time>
      </trkpt>
      <trkpt lat="49.94899" lon="2.16692">
        <ele>15.3</ele>
        <time>2022-04-11T14:34:50Z</time>
      </trkpt>
      <trkpt lat="49.949" lon="2.16692">
        <ele>15.3</ele>
        <time>2022-04-11T14:34:51Z</time>
      </trkpt>
      <trkpt lat="49.94901" lon="2.16691">
        <ele>15.3</ele>
        <time>2022-04-11T14:34:52Z</time>
      </trkpt>
      <trkpt lat="49.94902" lon="2.1669">
        <ele>15.3</ele>
        <time>2022-04-11T14:34:53Z</time>
      </trkpt>
      <trkpt lat="49.94902" lon="2.1669">
        <ele>15.3</ele>
        <time>2022-04-11T14:34:54Z</time>
      </trkpt>
      <trkpt lat="49.94903" lon="2.16689">
        <ele>15.3</ele>
        <time>2022-04-11T14:34:56Z</time>
      </trkpt>
      <trkpt lat="49.94905" lon="2.16688">
        <ele>15.3</ele>
        <time>2022-04-11T14:34:57Z</time>
      </trkpt>
      <trkpt lat="49.94906" lon="2.16687">
        <ele>15.3</ele>
        <time>2022-04-11T14:34:58Z</time>
      </trkpt>
      <trkpt lat="49.94907" lon="2.16686">
        <ele>15.3</ele>
        <time>2022-04-11T14:34:59Z</time>
      </trkpt>
      <trkpt lat="49.94908" lon="2.16686">
        <ele>15.3</ele>
        <time>2022-04-11T14:35:00Z</time>
      </trkpt>
      <trkpt lat="49.94909" lon="2.16685">
        <ele>15.3</ele>
        <time>2022-04-11T14:35:01Z</time>
      </trkpt>
      <trkpt lat="49.9491" lon="2.16685">
        <ele>15.3</ele>
        <time>2022-04-11T14:35:02Z</time>
      </trkpt>
      <trkpt lat="49.94911" lon="2.16685">
        <ele>15.3</ele>
        <time>2022-04-11T14:35:03Z</time>
      </trkpt>
      <trkpt lat="49.94911" lon="2.16685">
        <ele>15.3</ele>
        <time>2022-04-11T14:35:04Z</time>
      </trkpt>
      <trkpt lat="49.94912" lon="2.16685">
        <ele>15.3</ele>
        <time>2022-04-11T14:35:05Z</time>
      </trkpt>
      <trkpt lat="49.94913" lon="2.16684">
        <ele>15.3</ele>
        <time>2022-04-11T14:35:06Z</time>
      </trkpt>
      <trkpt lat="49.94914" lon="2.16683">
        <ele>15.3</ele>
        <time>2022-04-11T14:35:07Z</time>
      </trkpt>
      <trkpt lat="49.94916" lon="2.16681">
        <ele>15.3</ele>
        <time>2022-04-11T14:35:08Z</time>
      </trkpt>
      <trkpt lat="49.94917" lon="2.1668">
        <ele>15.3</ele>
        <time>2022-04-11T14:35:09Z</time>
      </trkpt>
      <trkpt lat="49.94919" lon="2.16679">
        <ele>15.3</ele>
        <time>2022-04-11T14:35:11Z</time>
      </trkpt>
      <trkpt lat="49.9492" lon="2.16678">
        <ele>15.3</ele>
        <time>2022-04-11T14:35:12Z</time>
      </trkpt>
      <trkpt lat="49.94921" lon="2.16677">
        <ele>15.3</ele>
        <time>2022-04-11T14:35:13Z</time>
      </trkpt>
      <trkpt lat="49.94922" lon="2.16676">
        <ele>15.3</ele>
        <time>2022-04-11T14:35:14Z</time>
      </trkpt>
      <trkpt lat="49.94923" lon="2.16675">
        <ele>15.3</ele>
        <time>2022-04-11T14:35:15Z</time>
      </trkpt>
      <trkpt lat="49.94924" lon="2.16674">
        <ele>15.3</ele>
        <time>2022-04-11T14:35:16Z</time>
      </trkpt>
      <trkpt lat="49.94926" lon="2.16673">
        <ele>15.3</ele>
        <time>2022-04-11T14:35:17Z</time>
      </trkpt>
      <trkpt lat="49.94927" lon="2.16672">
        <ele>15.3</ele>
        <time>2022-04-11T14:35:18Z</time>
      </trkpt>
      <trkpt lat="49.94928" lon="2.1667">
        <ele>15.3</ele>
        <time>2022-04-11T14:35:20Z</time>
      </trkpt>
      <trkpt lat="49.9493" lon="2.16669">
        <ele>15.3</ele>
        <time>2022-04-11T14:35:21Z</time>
      </trkpt>
      <trkpt lat="49.94931" lon="2.16667">
        <ele>15.3</ele>
        <time>2022-04-11T14:35:22Z</time>
      </trkpt>
      <trkpt lat="49.94932" lon="2.16666">
        <ele>15.3</ele>
        <time>2022-04-11T14:35:23Z</time>
      </trkpt>
      <trkpt lat="49.94932" lon="2.16665">
        <ele>15.3</ele>
        <time>2022-04-11T14:35:24Z</time>
      </trkpt>
      <trkpt lat="49.94933" lon="2.16663">
        <ele>15.3</ele>
        <time>2022-04-11T14:35:25Z</time>
      </trkpt>
      <trkpt lat="49.94934" lon="2.16662">
        <ele>15.3</ele>
        <time>2022-04-11T14:35:26Z</time>
      </trkpt>
      <trkpt lat="49.94936" lon="2.16658">
        <ele>15.3</ele>
        <time>2022-04-11T14:35:27Z</time>
      </trkpt>
      <trkpt lat="49.94937" lon="2.16657">
        <ele>15.3</ele>
        <time>2022-04-11T14:35:28Z</time>
      </trkpt>
      <trkpt lat="49.94938" lon="2.16656">
        <ele>15.3</ele>
        <time>2022-04-11T14:35:29Z</time>
      </trkpt>
      <trkpt lat="49.94938" lon="2.16654">
        <ele>15.3</ele>
        <time>2022-04-11T14:35:30Z</time>
      </trkpt>
      <trkpt lat="49.94939" lon="2.16651">
        <ele>15.3</ele>
        <time>2022-04-11T14:35:32Z</time>
      </trkpt>
      <trkpt lat="49.9494" lon="2.16649">
        <ele>15.3</ele>
        <time>2022-04-11T14:35:33Z</time>
      </trkpt>
      <trkpt lat="49.94941" lon="2.16647">
        <ele>15.3</ele>
        <time>2022-04-11T14:35:34Z</time>
      </trkpt>
      <trkpt lat="49.94941" lon="2.16645">
        <ele>15.3</ele>
        <time>2022-04-11T14:35:35Z</time>
      </trkpt>
      <trkpt lat="49.94942" lon="2.16643">
        <ele>15.3</ele>
        <time>2022-04-11T14:35:36Z</time>
      </trkpt>
      <trkpt lat="49.94942" lon="2.16642">
        <ele>15.3</ele>
        <time>2022-04-11T14:35:37Z</time>
      </trkpt>
      <trkpt lat="49.94942" lon="2.16641">
        <ele>15.3</ele>
        <time>2022-04-11T14:35:38Z</time>
      </trkpt>
      <trkpt lat="49.94943" lon="2.1664">
        <ele>15.3</ele>
        <time>2022-04-11T14:35:39Z</time>
      </trkpt>
      <trkpt lat="49.94943" lon="2.1664">
        <ele>15.3</ele>
        <time>2022-04-11T14:35:40Z</time>
      </trkpt>
      <trkpt lat="49.94944" lon="2.16638">
        <ele>15.3</ele>
        <time>2022-04-11T14:35:42Z</time>
      </trkpt>
      <trkpt lat="49.94944" lon="2.16636">
        <ele>15.3</ele>
        <time>2022-04-11T14:35:43Z</time>
      </trkpt>
      <trkpt lat="49.94944" lon="2.16633">
        <ele>15.3</ele>
        <time>2022-04-11T14:35:44Z</time>
      </trkpt>
      <trkpt lat="49.94944" lon="2.16631">
        <ele>15.3</ele>
        <time>2022-04-11T14:35:45Z</time>
      </trkpt>
      <trkpt lat="49.94944" lon="2.1663">
        <ele>15.3</ele>
        <time>2022-04-11T14:35:46Z</time>
      </trkpt>
      <trkpt lat="49.94944" lon="2.16627">
        <ele>15.2</ele>
        <time>2022-04-11T14:35:47Z</time>
      </trkpt>
      <trkpt lat="49.94945" lon="2.16626">
        <ele>15.2</ele>
        <time>2022-04-11T14:35:48Z</time>
      </trkpt>
      <trkpt lat="49.94945" lon="2.16624">
        <ele>15.2</ele>
        <time>2022-04-11T14:35:49Z</time>
      </trkpt>
      <trkpt lat="49.94945" lon="2.16621">
        <ele>15.2</ele>
        <time>2022-04-11T14:35:50Z</time>
      </trkpt>
      <trkpt lat="49.94945" lon="2.16618">
        <ele>15.2</ele>
        <time>2022-04-11T14:35:52Z</time>
      </trkpt>
      <trkpt lat="49.94945" lon="2.16617">
        <ele>15.2</ele>
        <time>2022-04-11T14:35:53Z</time>
      </trkpt>
      <trkpt lat="49.94945" lon="2.16615">
        <ele>15.2</ele>
        <time>2022-04-11T14:35:54Z</time>
      </trkpt>
      <trkpt lat="49.94946" lon="2.16613">
        <ele>15.2</ele>
        <time>2022-04-11T14:35:55Z</time>
      </trkpt>
      <trkpt lat="49.94946" lon="2.16611">
        <ele>15.2</ele>
        <time>2022-04-11T14:35:56Z</time>
      </trkpt>
      <trkpt lat="49.94946" lon="2.16609">
        <ele>15.2</ele>
        <time>2022-04-11T14:35:57Z</time>
      </trkpt>
      <trkpt lat="49.94946" lon="2.16606">
        <ele>15.2</ele>
        <time>2022-04-11T14:35:58Z</time>
      </trkpt>
      <trkpt lat="49.94946" lon="2.16601">
        <ele>15.2</ele>
        <time>2022-04-11T14:35:59Z</time>
      </trkpt>
      <trkpt lat="49.94947" lon="2.166">
        <ele>15.2</ele>
        <time>2022-04-11T14:36:00Z</time>
      </trkpt>
      <trkpt lat="49.94947" lon="2.16597">
        <ele>15.2</ele>
        <time>2022-04-11T14:36:01Z</time>
      </trkpt>
      <trkpt lat="49.94947" lon="2.16596">
        <ele>15.2</ele>
        <time>2022-04-11T14:36:02Z</time>
      </trkpt>
      <trkpt lat="49.94947" lon="2.16594">
        <ele>15.2</ele>
        <time>2022-04-11T14:36:04Z</time>
      </trkpt>
      <trkpt lat="49.94947" lon="2.16593">
        <ele>15.2</ele>
        <time>2022-04-11T14:36:05Z</time>
      </trkpt>
      <trkpt lat="49.94947" lon="2.16592">
        <ele>15.2</ele>
        <time>2022-04-11T14:36:06Z</time>
      </trkpt>
      <trkpt lat="49.94947" lon="2.16592">
        <ele>15.2</ele>
        <time>2022-04-11T14:36:07Z</time>
      </trkpt>
      <trkpt lat="49.94947" lon="2.16591">
        <ele>15.2</ele>
        <time>2022-04-11T14:36:08Z</time>
      </trkpt>
      <trkpt lat="49.94947" lon="2.16589">
        <ele>15.2</ele>
        <time>2022-04-11T14:36:09Z</time>
      </trkpt>
      <trkpt lat="49.94947" lon="2.16588">
        <ele>15.2</ele>
        <time>2022-04-11T14:36:10Z</time>
      </trkpt>
      <trkpt lat="49.94947" lon="2.16586">
        <ele>15.2</ele>
        <time>2022-04-11T14:36:11Z</time>
      </trkpt>
      <trkpt lat="49.94947" lon="2.16584">
        <ele>15.2</ele>
        <time>2022-04-11T14:36:12Z</time>
      </trkpt>
      <trkpt lat="49.94948" lon="2.16581">
        <ele>15.2</ele>
        <time>2022-04-11T14:36:13Z</time>
      </trkpt>
      <trkpt lat="49.94948" lon="2.1658">
        <ele>15.2</ele>
        <time>2022-04-11T14:36:14Z</time>
      </trkpt>
      <trkpt lat="49.94949" lon="2.16578">
        <ele>15.2</ele>
        <time>2022-04-11T14:36:15Z</time>
      </trkpt>
      <trkpt lat="49.94949" lon="2.16576">
        <ele>15.2</ele>
        <time>2022-04-11T14:36:16Z</time>
      </trkpt>
      <trkpt lat="49.9495" lon="2.16574">
        <ele>15.2</ele>
        <time>2022-04-11T14:36:17Z</time>
      </trkpt>
      <trkpt lat="49.94951" lon="2.16571">
        <ele>15.2</ele>
        <time>2022-04-11T14:36:18Z</time>
      </trkpt>
      <trkpt lat="49.94951" lon="2.16569">
        <ele>15.2</ele>
        <time>2022-04-11T14:36:20Z</time>
      </trkpt>
      <trkpt lat="49.94951" lon="2.16566">
        <ele>15.3</ele>
        <time>2022-04-11T14:36:21Z</time>
      </trkpt>
      <trkpt lat="49.94952" lon="2.16564">
        <ele>15.3</ele>
        <time>2022-04-11T14:36:22Z</time>
      </trkpt>
      <trkpt lat="49.94953" lon="2.16562">
        <ele>15.3</ele>
        <time>2022-04-11T14:36:23Z</time>
      </trkpt>
      <trkpt lat="49.94953" lon="2.1656">
        <ele>15.3</ele>
        <time>2022-04-11T14:36:24Z</time>
      </trkpt>
      <trkpt lat="49.94954" lon="2.16558">
        <ele>15.3</ele>
        <time>2022-04-11T14:36:25Z</time>
      </trkpt>
      <trkpt lat="49.94954" lon="2.16556">
        <ele>15.3</ele>
        <time>2022-04-11T14:36:26Z</time>
      </trkpt>
      <trkpt lat="49.94955" lon="2.16555">
        <ele>15.3</ele>
        <time>2022-04-11T14:36:27Z</time>
      </trkpt>
      <trkpt lat="49.94956" lon="2.16552">
        <ele>15.3</ele>
        <time>2022-04-11T14:36:28Z</time>
      </trkpt>
      <trkpt lat="49.94956" lon="2.1655">
        <ele>15.3</ele>
        <time>2022-04-11T14:36:29Z</time>
      </trkpt>
      <trkpt lat="49.94958" lon="2.16547">
        <ele>15.3</ele>
        <time>2022-04-11T14:36:31Z</time>
      </trkpt>
      <trkpt lat="49.94959" lon="2.16545">
        <ele>15.3</ele>
        <time>2022-04-11T14:36:32Z</time>
      </trkpt>
      <trkpt lat="49.9496" lon="2.16544">
        <ele>15.3</ele>
        <time>2022-04-11T14:36:33Z</time>
      </trkpt>
      <trkpt lat="49.9496" lon="2.16543">
        <ele>15.3</ele>
        <time>2022-04-11T14:36:34Z</time>
      </trkpt>
      <trkpt lat="49.94961" lon="2.16541">
        <ele>15.3</ele>
        <time>2022-04-11T14:36:35Z</time>
      </trkpt>
      <trkpt lat="49.94962" lon="2.1654">
        <ele>15.3</ele>
        <time>2022-04-11T14:36:37Z</time>
      </trkpt>
      <trkpt lat="49.94962" lon="2.16538">
        <ele>15.3</ele>
        <time>2022-04-11T14:36:38Z</time>
      </trkpt>
      <trkpt lat="49.94962" lon="2.1654">
        <ele>15.3</ele>
        <time>2022-04-11T14:36:39Z</time>
      </trkpt>
      <trkpt lat="49.94963" lon="2.16539">
        <ele>15.3</ele>
        <time>2022-04-11T14:36:40Z</time>
      </trkpt>
      <trkpt lat="49.94963" lon="2.16537">
        <ele>15.3</ele>
        <time>2022-04-11T14:36:41Z</time>
      </trkpt>
      <trkpt lat="49.94964" lon="2.16535">
        <ele>15.3</ele>
        <time>2022-04-11T14:36:42Z</time>
      </trkpt>
      <trkpt lat="49.94964" lon="2.16533">
        <ele>15.4</ele>
        <time>2022-04-11T14:36:43Z</time>
      </trkpt>
      <trkpt lat="49.94965" lon="2.16532">
        <ele>15.4</ele>
        <time>2022-04-11T14:36:44Z</time>
      </trkpt>
      <trkpt lat="49.94965" lon="2.16531">
        <ele>15.4</ele>
        <time>2022-04-11T14:36:45Z</time>
      </trkpt>
      <trkpt lat="49.94965" lon="2.1653">
        <ele>15.4</ele>
        <time>2022-04-11T14:36:46Z</time>
      </trkpt>
      <trkpt lat="49.94965" lon="2.16528">
        <ele>15.4</ele>
        <time>2022-04-11T14:36:47Z</time>
      </trkpt>
      <trkpt lat="49.94965" lon="2.16526">
        <ele>15.4</ele>
        <time>2022-04-11T14:36:48Z</time>
      </trkpt>
      <trkpt lat="49.94965" lon="2.16525">
        <ele>15.4</ele>
        <time>2022-04-11T14:36:49Z</time>
      </trkpt>
      <trkpt lat="49.94965" lon="2.16522">
        <ele>15.4</ele>
        <time>2022-04-11T14:36:51Z</time>
      </trkpt>
      <trkpt lat="49.94966" lon="2.1652">
        <ele>15.4</ele>
        <time>2022-04-11T14:36:52Z</time>
      </trkpt>
      <trkpt lat="49.94966" lon="2.16517">
        <ele>15.4</ele>
        <time>2022-04-11T14:36:53Z</time>
      </trkpt>
      <trkpt lat="49.94966" lon="2.16515">
        <ele>15.4</ele>
        <time>2022-04-11T14:36:55Z</time>
      </trkpt>
      <trkpt lat="49.94967" lon="2.16513">
        <ele>15.4</ele>
        <time>2022-04-11T14:36:56Z</time>
      </trkpt>
      <trkpt lat="49.94967" lon="2.16511">
        <ele>15.4</ele>
        <time>2022-04-11T14:36:57Z</time>
      </trkpt>
      <trkpt lat="49.94967" lon="2.16509">
        <ele>15.4</ele>
        <time>2022-04-11T14:36:58Z</time>
      </trkpt>
      <trkpt lat="49.94968" lon="2.16506">
        <ele>15.4</ele>
        <time>2022-04-11T14:36:59Z</time>
      </trkpt>
      <trkpt lat="49.94969" lon="2.16503">
        <ele>15.4</ele>
        <time>2022-04-11T14:37:00Z</time>
      </trkpt>
      <trkpt lat="49.94969" lon="2.16502">
        <ele>15.4</ele>
        <time>2022-04-11T14:37:01Z</time>
      </trkpt>
      <trkpt lat="49.9497" lon="2.16501">
        <ele>15.4</ele>
        <time>2022-04-11T14:37:02Z</time>
      </trkpt>
      <trkpt lat="49.9497" lon="2.16498">
        <ele>15.4</ele>
        <time>2022-04-11T14:37:03Z</time>
      </trkpt>
      <trkpt lat="49.9497" lon="2.16495">
        <ele>15.4</ele>
        <time>2022-04-11T14:37:05Z</time>
      </trkpt>
      <trkpt lat="49.9497" lon="2.16493">
        <ele>15.4</ele>
        <time>2022-04-11T14:37:06Z</time>
      </trkpt>
      <trkpt lat="49.9497" lon="2.16491">
        <ele>15.5</ele>
        <time>2022-04-11T14:37:07Z</time>
      </trkpt>
      <trkpt lat="49.9497" lon="2.16489">
        <ele>15.5</ele>
        <time>2022-04-11T14:37:08Z</time>
      </trkpt>
      <trkpt lat="49.94971" lon="2.16487">
        <ele>15.5</ele>
        <time>2022-04-11T14:37:09Z</time>
      </trkpt>
      <trkpt lat="49.94971" lon="2.16486">
        <ele>15.5</ele>
        <time>2022-04-11T14:37:10Z</time>
      </trkpt>
      <trkpt lat="49.94971" lon="2.16484">
        <ele>15.5</ele>
        <time>2022-04-11T14:37:11Z</time>
      </trkpt>
      <trkpt lat="49.9497" lon="2.16482">
        <ele>15.5</ele>
        <time>2022-04-11T14:37:12Z</time>
      </trkpt>
      <trkpt lat="49.9497" lon="2.16481">
        <ele>15.5</ele>
        <time>2022-04-11T14:37:13Z</time>
      </trkpt>
      <trkpt lat="49.9497" lon="2.1648">
        <ele>15.5</ele>
        <time>2022-04-11T14:37:14Z</time>
      </trkpt>
      <trkpt lat="49.9497" lon="2.1648">
        <ele>15.5</ele>
        <time>2022-04-11T14:37:15Z</time>
      </trkpt>
      <trkpt lat="49.94969" lon="2.16478">
        <ele>15.5</ele>
        <time>2022-04-11T14:37:17Z</time>
      </trkpt>
      <trkpt lat="49.94969" lon="2.16476">
        <ele>15.5</ele>
        <time>2022-04-11T14:37:18Z</time>
      </trkpt>
      <trkpt lat="49.94969" lon="2.16474">
        <ele>15.5</ele>
        <time>2022-04-11T14:37:19Z</time>
      </trkpt>
      <trkpt lat="49.94969" lon="2.16469">
        <ele>15.5</ele>
        <time>2022-04-11T14:37:20Z</time>
      </trkpt>
      <trkpt lat="49.94968" lon="2.16467">
        <ele>15.5</ele>
        <time>2022-04-11T14:37:21Z</time>
      </trkpt>
      <trkpt lat="49.94968" lon="2.16463">
        <ele>15.5</ele>
        <time>2022-04-11T14:37:23Z</time>
      </trkpt>
      <trkpt lat="49.94968" lon="2.16461">
        <ele>15.5</ele>
        <time>2022-04-11T14:37:24Z</time>
      </trkpt>
      <trkpt lat="49.94967" lon="2.16457">
        <ele>15.5</ele>
        <time>2022-04-11T14:37:25Z</time>
      </trkpt>
      <trkpt lat="49.94967" lon="2.16455">
        <ele>15.5</ele>
        <time>2022-04-11T14:37:26Z</time>
      </trkpt>
      <trkpt lat="49.94967" lon="2.16453">
        <ele>15.5</ele>
        <time>2022-04-11T14:37:27Z</time>
      </trkpt>
      <trkpt lat="49.94966" lon="2.16451">
        <ele>15.5</ele>
        <time>2022-04-11T14:37:28Z</time>
      </trkpt>
      <trkpt lat="49.94966" lon="2.16449">
        <ele>15.5</ele>
        <time>2022-04-11T14:37:29Z</time>
      </trkpt>
      <trkpt lat="49.94966" lon="2.16446">
        <ele>15.5</ele>
        <time>2022-04-11T14:37:30Z</time>
      </trkpt>
      <trkpt lat="49.94966" lon="2.16443">
        <ele>15.5</ele>
        <time>2022-04-11T14:37:31Z</time>
      </trkpt>
      <trkpt lat="49.94965" lon="2.1644">
        <ele>15.5</ele>
        <time>2022-04-11T14:37:33Z</time>
      </trkpt>
      <trkpt lat="49.94965" lon="2.16438">
        <ele>15.5</ele>
        <time>2022-04-11T14:37:34Z</time>
      </trkpt>
      <trkpt lat="49.94965" lon="2.16437">
        <ele>15.5</ele>
        <time>2022-04-11T14:37:35Z</time>
      </trkpt>
      <trkpt lat="49.94964" lon="2.16435">
        <ele>15.5</ele>
        <time>2022-04-11T14:37:36Z</time>
      </trkpt>
      <trkpt lat="49.94964" lon="2.16433">
        <ele>15.5</ele>
        <time>2022-04-11T14:37:37Z</time>
      </trkpt>
      <trkpt lat="49.94964" lon="2.16432">
        <ele>15.5</ele>
        <time>2022-04-11T14:37:38Z</time>
      </trkpt>
      <trkpt lat="49.94964" lon="2.16431">
        <ele>15.5</ele>
        <time>2022-04-11T14:37:39Z</time>
      </trkpt>
      <trkpt lat="49.94964" lon="2.1643">
        <ele>15.5</ele>
        <time>2022-04-11T14:37:40Z</time>
      </trkpt>
      <trkpt lat="49.94965" lon="2.16431">
        <ele>15.5</ele>
        <time>2022-04-11T14:37:41Z</time>
      </trkpt>
      <trkpt lat="49.94965" lon="2.16431">
        <ele>15.5</ele>
        <time>2022-04-11T14:37:42Z</time>
      </trkpt>
      <trkpt lat="49.94965" lon="2.16429">
        <ele>15.5</ele>
        <time>2022-04-11T14:37:43Z</time>
      </trkpt>
      <trkpt lat="49.94964" lon="2.16428">
        <ele>15.5</ele>
        <time>2022-04-11T14:37:44Z</time>
      </trkpt>
      <trkpt lat="49.94963" lon="2.16426">
        <ele>15.5</ele>
        <time>2022-04-11T14:37:45Z</time>
      </trkpt>
      <trkpt lat="49.94961" lon="2.16423">
        <ele>15.5</ele>
        <time>2022-04-11T14:37:46Z</time>
      </trkpt>
      <trkpt lat="49.9496" lon="2.16422">
        <ele>15.5</ele>
        <time>2022-04-11T14:37:48Z</time>
      </trkpt>
      <trkpt lat="49.94959" lon="2.16421">
        <ele>15.5</ele>
        <time>2022-04-11T14:37:49Z</time>
      </trkpt>
      <trkpt lat="49.94958" lon="2.1642">
        <ele>15.5</ele>
        <time>2022-04-11T14:37:50Z</time>
      </trkpt>
      <trkpt lat="49.94957" lon="2.16419">
        <ele>15.5</ele>
        <time>2022-04-11T14:37:51Z</time>
      </trkpt>
      <trkpt lat="49.94956" lon="2.16417">
        <ele>15.5</ele>
        <time>2022-04-11T14:37:52Z</time>
      </trkpt>
      <trkpt lat="49.94955" lon="2.16416">
        <ele>15.5</ele>
        <time>2022-04-11T14:37:53Z</time>
      </trkpt>
      <trkpt lat="49.94954" lon="2.16415">
        <ele>15.5</ele>
        <time>2022-04-11T14:37:54Z</time>
      </trkpt>
      <trkpt lat="49.94952" lon="2.16414">
        <ele>15.5</ele>
        <time>2022-04-11T14:37:55Z</time>
      </trkpt>
      <trkpt lat="49.94951" lon="2.16412">
        <ele>15.5</ele>
        <time>2022-04-11T14:37:57Z</time>
      </trkpt>
      <trkpt lat="49.94949" lon="2.16411">
        <ele>15.5</ele>
        <time>2022-04-11T14:37:58Z</time>
      </trkpt>
      <trkpt lat="49.94948" lon="2.1641">
        <ele>15.5</ele>
        <time>2022-04-11T14:37:59Z</time>
      </trkpt>
      <trkpt lat="49.94945" lon="2.16408">
        <ele>15.5</ele>
        <time>2022-04-11T14:38:00Z</time>
      </trkpt>
      <trkpt lat="49.94944" lon="2.16407">
        <ele>15.5</ele>
        <time>2022-04-11T14:38:01Z</time>
      </trkpt>
      <trkpt lat="49.94941" lon="2.16406">
        <ele>15.5</ele>
        <time>2022-04-11T14:38:03Z</time>
      </trkpt>
      <trkpt lat="49.9494" lon="2.16405">
        <ele>15.5</ele>
        <time>2022-04-11T14:38:04Z</time>
      </trkpt>
      <trkpt lat="49.94939" lon="2.16404">
        <ele>15.4</ele>
        <time>2022-04-11T14:38:05Z</time>
      </trkpt>
      <trkpt lat="49.94938" lon="2.16403">
        <ele>15.4</ele>
        <time>2022-04-11T14:38:06Z</time>
      </trkpt>
      <trkpt lat="49.94938" lon="2.16403">
        <ele>15.4</ele>
        <time>2022-04-11T14:38:07Z</time>
      </trkpt>
      <trkpt lat="49.94939" lon="2.16404">
        <ele>15.4</ele>
        <time>2022-04-11T14:38:08Z</time>
      </trkpt>
      <trkpt lat="49.94938" lon="2.16403">
        <ele>15.4</ele>
        <time>2022-04-11T14:38:09Z</time>
      </trkpt>
      <trkpt lat="49.94938" lon="2.16404">
        <ele>15.4</ele>
        <time>2022-04-11T14:38:10Z</time>
      </trkpt>
      <trkpt lat="49.94937" lon="2.16404">
        <ele>15.4</ele>
        <time>2022-04-11T14:38:11Z</time>
      </trkpt>
      <trkpt lat="49.94935" lon="2.16403">
        <ele>15.4</ele>
        <time>2022-04-11T14:38:12Z</time>
      </trkpt>
      <trkpt lat="49.94935" lon="2.16402">
        <ele>15.4</ele>
        <time>2022-04-11T14:38:13Z</time>
      </trkpt>
      <trkpt lat="49.94934" lon="2.16401">
        <ele>15.4</ele>
        <time>2022-04-11T14:38:14Z</time>
      </trkpt>
      <trkpt lat="49.94933" lon="2.16401">
        <ele>15.4</ele>
        <time>2022-04-11T14:38:16Z</time>
      </trkpt>
      <trkpt lat="49.94932" lon="2.164">
        <ele>15.4</ele>
        <time>2022-04-11T14:38:17Z</time>
      </trkpt>
      <trkpt lat="49.94932" lon="2.164">
        <ele>15.4</ele>
        <time>2022-04-11T14:38:18Z</time>
      </trkpt>
      <trkpt lat="49.94932" lon="2.164">
        <ele>15.4</ele>
        <time>2022-04-11T14:38:19Z</time>
      </trkpt>
      <trkpt lat="49.94933" lon="2.164">
        <ele>15.4</ele>
        <time>2022-04-11T14:38:20Z</time>
      </trkpt>
      <trkpt lat="49.94933" lon="2.16398">
        <ele>15.4</ele>
        <time>2022-04-11T14:38:21Z</time>
      </trkpt>
      <trkpt lat="49.94932" lon="2.16397">
        <ele>15.4</ele>
        <time>2022-04-11T14:38:22Z</time>
      </trkpt>
      <trkpt lat="49.94932" lon="2.16396">
        <ele>15.4</ele>
        <time>2022-04-11T14:38:23Z</time>
      </trkpt>
      <trkpt lat="49.9493" lon="2.16395">
        <ele>15.4</ele>
        <time>2022-04-11T14:38:24Z</time>
      </trkpt>
      <trkpt lat="49.94929" lon="2.16393">
        <ele>15.4</ele>
        <time>2022-04-11T14:38:26Z</time>
      </trkpt>
      <trkpt lat="49.94928" lon="2.16392">
        <ele>15.4</ele>
        <time>2022-04-11T14:38:27Z</time>
      </trkpt>
      <trkpt lat="49.94928" lon="2.16391">
        <ele>15.4</ele>
        <time>2022-04-11T14:38:28Z</time>
      </trkpt>
      <trkpt lat="49.94928" lon="2.1639">
        <ele>15.4</ele>
        <time>2022-04-11T14:38:29Z</time>
      </trkpt>
      <trkpt lat="49.94928" lon="2.16389">
        <ele>15.4</ele>
        <time>2022-04-11T14:38:30Z</time>
      </trkpt>
      <trkpt lat="49.94926" lon="2.16387">
        <ele>15.4</ele>
        <time>2022-04-11T14:38:31Z</time>
      </trkpt>
      <trkpt lat="49.94926" lon="2.16386">
        <ele>15.4</ele>
        <time>2022-04-11T14:38:32Z</time>
      </trkpt>
      <trkpt lat="49.94925" lon="2.16385">
        <ele>15.4</ele>
        <time>2022-04-11T14:38:33Z</time>
      </trkpt>
      <trkpt lat="49.94925" lon="2.16384">
        <ele>15.3</ele>
        <time>2022-04-11T14:38:34Z</time>
      </trkpt>
      <trkpt lat="49.94924" lon="2.16382">
        <ele>15.3</ele>
        <time>2022-04-11T14:38:35Z</time>
      </trkpt>
      <trkpt lat="49.94924" lon="2.1638">
        <ele>15.3</ele>
        <time>2022-04-11T14:38:36Z</time>
      </trkpt>
      <trkpt lat="49.94923" lon="2.16378">
        <ele>15.3</ele>
        <time>2022-04-11T14:38:37Z</time>
      </trkpt>
      <trkpt lat="49.94923" lon="2.16376">
        <ele>15.3</ele>
        <time>2022-04-11T14:38:38Z</time>
      </trkpt>
      <trkpt lat="49.94921" lon="2.16372">
        <ele>15.3</ele>
        <time>2022-04-11T14:38:40Z</time>
      </trkpt>
      <trkpt lat="49.94921" lon="2.16371">
        <ele>15.3</ele>
        <time>2022-04-11T14:38:41Z</time>
      </trkpt>
      <trkpt lat="49.9492" lon="2.16369">
        <ele>15.3</ele>
        <time>2022-04-11T14:38:42Z</time>
      </trkpt>
      <trkpt lat="49.94919" lon="2.16367">
        <ele>15.3</ele>
        <time>2022-04-11T14:38:43Z</time>
      </trkpt>
      <trkpt lat="49.94918" lon="2.16365">
        <ele>15.3</ele>
        <time>2022-04-11T14:38:44Z</time>
      </trkpt>
      <trkpt lat="49.94917" lon="2.16363">
        <ele>15.3</ele>
        <time>2022-04-11T14:38:45Z</time>
      </trkpt>
      <trkpt lat="49.94916" lon="2.16361">
        <ele>15.3</ele>
        <time>2022-04-11T14:38:46Z</time>
      </trkpt>
      <trkpt lat="49.94916" lon="2.16358">
        <ele>15.3</ele>
        <time>2022-04-11T14:38:47Z</time>
      </trkpt>
      <trkpt lat="49.94914" lon="2.16355">
        <ele>15.3</ele>
        <time>2022-04-11T14:38:48Z</time>
      </trkpt>
      <trkpt lat="49.94914" lon="2.16353">
        <ele>15.3</ele>
        <time>2022-04-11T14:38:49Z</time>
      </trkpt>
      <trkpt lat="49.94913" lon="2.16351">
        <ele>15.3</ele>
        <time>2022-04-11T14:38:50Z</time>
      </trkpt>
      <trkpt lat="49.94912" lon="2.16347">
        <ele>15.3</ele>
        <time>2022-04-11T14:38:52Z</time>
      </trkpt>
      <trkpt lat="49.94912" lon="2.16345">
        <ele>15.3</ele>
        <time>2022-04-11T14:38:53Z</time>
      </trkpt>
      <trkpt lat="49.94911" lon="2.16343">
        <ele>15.3</ele>
        <time>2022-04-11T14:38:54Z</time>
      </trkpt>
      <trkpt lat="49.9491" lon="2.16341">
        <ele>15.3</ele>
        <time>2022-04-11T14:38:55Z</time>
      </trkpt>
      <trkpt lat="49.9491" lon="2.16339">
        <ele>15.3</ele>
        <time>2022-04-11T14:38:56Z</time>
      </trkpt>
      <trkpt lat="49.94909" lon="2.16336">
        <ele>15.3</ele>
        <time>2022-04-11T14:38:57Z</time>
      </trkpt>
      <trkpt lat="49.94909" lon="2.16334">
        <ele>15.3</ele>
        <time>2022-04-11T14:38:58Z</time>
      </trkpt>
      <trkpt lat="49.94908" lon="2.16329">
        <ele>15.3</ele>
        <time>2022-04-11T14:38:59Z</time>
      </trkpt>
      <trkpt lat="49.94908" lon="2.16328">
        <ele>15.3</ele>
        <time>2022-04-11T14:39:00Z</time>
      </trkpt>
      <trkpt lat="49.94907" lon="2.16323">
        <ele>15.3</ele>
        <time>2022-04-11T14:39:02Z</time>
      </trkpt>
      <trkpt lat="49.94906" lon="2.16322">
        <ele>15.3</ele>
        <time>2022-04-11T14:39:03Z</time>
      </trkpt>
      <trkpt lat="49.94906" lon="2.1632">
        <ele>15.3</ele>
        <time>2022-04-11T14:39:04Z</time>
      </trkpt>
      <trkpt lat="49.94905" lon="2.16318">
        <ele>15.3</ele>
        <time>2022-04-11T14:39:05Z</time>
      </trkpt>
      <trkpt lat="49.94905" lon="2.16315">
        <ele>15.3</ele>
        <time>2022-04-11T14:39:06Z</time>
      </trkpt>
      <trkpt lat="49.94905" lon="2.16313">
        <ele>15.3</ele>
        <time>2022-04-11T14:39:07Z</time>
      </trkpt>
      <trkpt lat="49.94905" lon="2.16312">
        <ele>15.3</ele>
        <time>2022-04-11T14:39:08Z</time>
      </trkpt>
      <trkpt lat="49.94907" lon="2.1631">
        <ele>15.3</ele>
        <time>2022-04-11T14:39:09Z</time>
      </trkpt>
      <trkpt lat="49.94907" lon="2.16307">
        <ele>15.3</ele>
        <time>2022-04-11T14:39:10Z</time>
      </trkpt>
      <trkpt lat="49.94907" lon="2.16305">
        <ele>15.3</ele>
        <time>2022-04-11T14:39:11Z</time>
      </trkpt>
      <trkpt lat="49.94906" lon="2.16302">
        <ele>15.3</ele>
        <time>2022-04-11T14:39:12Z</time>
      </trkpt>
      <trkpt lat="49.94906" lon="2.163">
        <ele>15.3</ele>
        <time>2022-04-11T14:39:13Z</time>
      </trkpt>
      <trkpt lat="49.94906" lon="2.16298">
        <ele>15.3</ele>
        <time>2022-04-11T14:39:14Z</time>
      </trkpt>
      <trkpt lat="49.94906" lon="2.16296">
        <ele>15.3</ele>
        <time>2022-04-11T14:39:16Z</time>
      </trkpt>
      <trkpt lat="49.94905" lon="2.16293">
        <ele>15.3</ele>
        <time>2022-04-11T14:39:17Z</time>
      </trkpt>
      <trkpt lat="49.94905" lon="2.16291">
        <ele>15.3</ele>
        <time>2022-04-11T14:39:18Z</time>
      </trkpt>
      <trkpt lat="49.94904" lon="2.16288">
        <ele>15.3</ele>
        <time>2022-04-11T14:39:19Z</time>
      </trkpt>
      <trkpt lat="49.94904" lon="2.16287">
        <ele>15.3</ele>
        <time>2022-04-11T14:39:20Z</time>
      </trkpt>
      <trkpt lat="49.94904" lon="2.16285">
        <ele>15.3</ele>
        <time>2022-04-11T14:39:21Z</time>
      </trkpt>
      <trkpt lat="49.94904" lon="2.16282">
        <ele>15.3</ele>
        <time>2022-04-11T14:39:22Z</time>
      </trkpt>
      <trkpt lat="49.94905" lon="2.16281">
        <ele>15.3</ele>
        <time>2022-04-11T14:39:23Z</time>
      </trkpt>
      <trkpt lat="49.94905" lon="2.1628">
        <ele>15.3</ele>
        <time>2022-04-11T14:39:24Z</time>
      </trkpt>
      <trkpt lat="49.94905" lon="2.16278">
        <ele>15.3</ele>
        <time>2022-04-11T14:39:25Z</time>
      </trkpt>
      <trkpt lat="49.94905" lon="2.16275">
        <ele>15.3</ele>
        <time>2022-04-11T14:39:26Z</time>
      </trkpt>
      <trkpt lat="49.94905" lon="2.16273">
        <ele>15.3</ele>
        <time>2022-04-11T14:39:28Z</time>
      </trkpt>
      <trkpt lat="49.94905" lon="2.1627">
        <ele>15.3</ele>
        <time>2022-04-11T14:39:29Z</time>
      </trkpt>
      <trkpt lat="49.94905" lon="2.16268">
        <ele>15.3</ele>
        <time>2022-04-11T14:39:30Z</time>
      </trkpt>
      <trkpt lat="49.94905" lon="2.16266">
        <ele>15.3</ele>
        <time>2022-04-11T14:39:31Z</time>
      </trkpt>
      <trkpt lat="49.94905" lon="2.16264">
        <ele>15.3</ele>
        <time>2022-04-11T14:39:32Z</time>
      </trkpt>
      <trkpt lat="49.94905" lon="2.16262">
        <ele>15.3</ele>
        <time>2022-04-11T14:39:33Z</time>
      </trkpt>
      <trkpt lat="49.94905" lon="2.16261">
        <ele>15.3</ele>
        <time>2022-04-11T14:39:34Z</time>
      </trkpt>
      <trkpt lat="49.94905" lon="2.16258">
        <ele>15.3</ele>
        <time>2022-04-11T14:39:36Z</time>
      </trkpt>
      <trkpt lat="49.94905" lon="2.16256">
        <ele>15.3</ele>
        <time>2022-04-11T14:39:37Z</time>
      </trkpt>
      <trkpt lat="49.94905" lon="2.16253">
        <ele>15.3</ele>
        <time>2022-04-11T14:39:38Z</time>
      </trkpt>
      <trkpt lat="49.94905" lon="2.16251">
        <ele>15.3</ele>
        <time>2022-04-11T14:39:39Z</time>
      </trkpt>
      <trkpt lat="49.94905" lon="2.1625">
        <ele>15.3</ele>
        <time>2022-04-11T14:39:40Z</time>
      </trkpt>
      <trkpt lat="49.94905" lon="2.16246">
        <ele>15.3</ele>
        <time>2022-04-11T14:39:41Z</time>
      </trkpt>
      <trkpt lat="49.94906" lon="2.16245">
        <ele>15.3</ele>
        <time>2022-04-11T14:39:42Z</time>
      </trkpt>
      <trkpt lat="49.94906" lon="2.16244">
        <ele>15.3</ele>
        <time>2022-04-11T14:39:43Z</time>
      </trkpt>
      <trkpt lat="49.94906" lon="2.16242">
        <ele>15.3</ele>
        <time>2022-04-11T14:39:44Z</time>
      </trkpt>
      <trkpt lat="49.94906" lon="2.1624">
        <ele>15.3</ele>
        <time>2022-04-11T14:39:45Z</time>
      </trkpt>
      <trkpt lat="49.94907" lon="2.16237">
        <ele>15.3</ele>
        <time>2022-04-11T14:39:47Z</time>
      </trkpt>
      <trkpt lat="49.94907" lon="2.16235">
        <ele>15.3</ele>
        <time>2022-04-11T14:39:48Z</time>
      </trkpt>
      <trkpt lat="49.94907" lon="2.16233">
        <ele>15.3</ele>
        <time>2022-04-11T14:39:49Z</time>
      </trkpt>
      <trkpt lat="49.94908" lon="2.16231">
        <ele>15.3</ele>
        <time>2022-04-11T14:39:50Z</time>
      </trkpt>
      <trkpt lat="49.94908" lon="2.16229">
        <ele>15.3</ele>
        <time>2022-04-11T14:39:51Z</time>
      </trkpt>
      <trkpt lat="49.94909" lon="2.16226">
        <ele>15.3</ele>
        <time>2022-04-11T14:39:52Z</time>
      </trkpt>
      <trkpt lat="49.94909" lon="2.16224">
        <ele>15.3</ele>
        <time>2022-04-11T14:39:53Z</time>
      </trkpt>
      <trkpt lat="49.9491" lon="2.16222">
        <ele>15.3</ele>
        <time>2022-04-11T14:39:54Z</time>
      </trkpt>
      <trkpt lat="49.94911" lon="2.1622">
        <ele>15.3</ele>
        <time>2022-04-11T14:39:55Z</time>
      </trkpt>
      <trkpt lat="49.94911" lon="2.16218">
        <ele>15.3</ele>
        <time>2022-04-11T14:39:56Z</time>
      </trkpt>
      <trkpt lat="49.94912" lon="2.16217">
        <ele>15.3</ele>
        <time>2022-04-11T14:39:57Z</time>
      </trkpt>
      <trkpt lat="49.94913" lon="2.16213">
        <ele>15.3</ele>
        <time>2022-04-11T14:39:58Z</time>
      </trkpt>
      <trkpt lat="49.94913" lon="2.16212">
        <ele>15.3</ele>
        <time>2022-04-11T14:39:59Z</time>
      </trkpt>
      <trkpt lat="49.94913" lon="2.16211">
        <ele>15.3</ele>
        <time>2022-04-11T14:40:00Z</time>
      </trkpt>
      <trkpt lat="49.94914" lon="2.16208">
        <ele>15.3</ele>
        <time>2022-04-11T14:40:02Z</time>
      </trkpt>
      <trkpt lat="49.94914" lon="2.16206">
        <ele>15.3</ele>
        <time>2022-04-11T14:40:03Z</time>
      </trkpt>
      <trkpt lat="49.94915" lon="2.16203">
        <ele>15.3</ele>
        <time>2022-04-11T14:40:04Z</time>
      </trkpt>
      <trkpt lat="49.94915" lon="2.16201">
        <ele>15.3</ele>
        <time>2022-04-11T14:40:05Z</time>
      </trkpt>
      <trkpt lat="49.94915" lon="2.162">
        <ele>15.3</ele>
        <time>2022-04-11T14:40:06Z</time>
      </trkpt>
      <trkpt lat="49.94916" lon="2.16199">
        <ele>15.3</ele>
        <time>2022-04-11T14:40:07Z</time>
      </trkpt>
      <trkpt lat="49.94916" lon="2.16197">
        <ele>15.3</ele>
        <time>2022-04-11T14:40:09Z</time>
      </trkpt>
      <trkpt lat="49.94916" lon="2.16195">
        <ele>15.3</ele>
        <time>2022-04-11T14:40:10Z</time>
      </trkpt>
      <trkpt lat="49.94917" lon="2.16192">
        <ele>15.3</ele>
        <time>2022-04-11T14:40:11Z</time>
      </trkpt>
      <trkpt lat="49.94917" lon="2.1619">
        <ele>15.3</ele>
        <time>2022-04-11T14:40:12Z</time>
      </trkpt>
      <trkpt lat="49.94917" lon="2.16189">
        <ele>15.3</ele>
        <time>2022-04-11T14:40:13Z</time>
      </trkpt>
      <trkpt lat="49.94917" lon="2.16188">
        <ele>15.3</ele>
        <time>2022-04-11T14:40:14Z</time>
      </trkpt>
      <trkpt lat="49.94917" lon="2.16186">
        <ele>15.3</ele>
        <time>2022-04-11T14:40:15Z</time>
      </trkpt>
      <trkpt lat="49.94917" lon="2.16184">
        <ele>15.3</ele>
        <time>2022-04-11T14:40:16Z</time>
      </trkpt>
      <trkpt lat="49.94918" lon="2.16182">
        <ele>15.3</ele>
        <time>2022-04-11T14:40:17Z</time>
      </trkpt>
      <trkpt lat="49.94918" lon="2.1618">
        <ele>15.3</ele>
        <time>2022-04-11T14:40:18Z</time>
      </trkpt>
      <trkpt lat="49.94918" lon="2.16178">
        <ele>15.3</ele>
        <time>2022-04-11T14:40:20Z</time>
      </trkpt>
      <trkpt lat="49.94919" lon="2.16175">
        <ele>15.3</ele>
        <time>2022-04-11T14:40:21Z</time>
      </trkpt>
      <trkpt lat="49.94919" lon="2.16173">
        <ele>15.3</ele>
        <time>2022-04-11T14:40:22Z</time>
      </trkpt>
      <trkpt lat="49.94919" lon="2.16172">
        <ele>15.3</ele>
        <time>2022-04-11T14:40:23Z</time>
      </trkpt>
      <trkpt lat="49.9492" lon="2.1617">
        <ele>15.3</ele>
        <time>2022-04-11T14:40:24Z</time>
      </trkpt>
      <trkpt lat="49.9492" lon="2.16167">
        <ele>15.3</ele>
        <time>2022-04-11T14:40:25Z</time>
      </trkpt>
      <trkpt lat="49.94921" lon="2.16165">
        <ele>15.3</ele>
        <time>2022-04-11T14:40:26Z</time>
      </trkpt>
      <trkpt lat="49.94921" lon="2.16163">
        <ele>15.3</ele>
        <time>2022-04-11T14:40:27Z</time>
      </trkpt>
      <trkpt lat="49.94922" lon="2.1616">
        <ele>15.3</ele>
        <time>2022-04-11T14:40:28Z</time>
      </trkpt>
      <trkpt lat="49.94922" lon="2.16158">
        <ele>15.3</ele>
        <time>2022-04-11T14:40:29Z</time>
      </trkpt>
      <trkpt lat="49.94923" lon="2.16156">
        <ele>15.3</ele>
        <time>2022-04-11T14:40:30Z</time>
      </trkpt>
      <trkpt lat="49.94923" lon="2.16154">
        <ele>15.3</ele>
        <time>2022-04-11T14:40:31Z</time>
      </trkpt>
      <trkpt lat="49.94924" lon="2.16152">
        <ele>15.3</ele>
        <time>2022-04-11T14:40:33Z</time>
      </trkpt>
      <trkpt lat="49.94924" lon="2.16151">
        <ele>15.3</ele>
        <time>2022-04-11T14:40:34Z</time>
      </trkpt>
      <trkpt lat="49.94924" lon="2.16149">
        <ele>15.3</ele>
        <time>2022-04-11T14:40:35Z</time>
      </trkpt>
      <trkpt lat="49.94925" lon="2.16146">
        <ele>15.3</ele>
        <time>2022-04-11T14:40:36Z</time>
      </trkpt>
      <trkpt lat="49.94925" lon="2.16144">
        <ele>15.3</ele>
        <time>2022-04-11T14:40:37Z</time>
      </trkpt>
      <trkpt lat="49.94926" lon="2.16143">
        <ele>15.3</ele>
        <time>2022-04-11T14:40:38Z</time>
      </trkpt>
      <trkpt lat="49.94926" lon="2.16141">
        <ele>15.3</ele>
        <time>2022-04-11T14:40:39Z</time>
      </trkpt>
      <trkpt lat="49.94926" lon="2.16139">
        <ele>15.3</ele>
        <time>2022-04-11T14:40:40Z</time>
      </trkpt>
      <trkpt lat="49.94927" lon="2.16137">
        <ele>15.3</ele>
        <time>2022-04-11T14:40:41Z</time>
      </trkpt>
      <trkpt lat="49.94927" lon="2.16136">
        <ele>15.3</ele>
        <time>2022-04-11T14:40:42Z</time>
      </trkpt>
      <trkpt lat="49.94927" lon="2.16135">
        <ele>15.3</ele>
        <time>2022-04-11T14:40:43Z</time>
      </trkpt>
      <trkpt lat="49.94928" lon="2.16134">
        <ele>15.3</ele>
        <time>2022-04-11T14:40:44Z</time>
      </trkpt>
      <trkpt lat="49.94928" lon="2.16132">
        <ele>15.3</ele>
        <time>2022-04-11T14:40:46Z</time>
      </trkpt>
      <trkpt lat="49.94928" lon="2.1613">
        <ele>15.3</ele>
        <time>2022-04-11T14:40:47Z</time>
      </trkpt>
      <trkpt lat="49.94929" lon="2.16128">
        <ele>15.3</ele>
        <time>2022-04-11T14:40:48Z</time>
      </trkpt>
      <trkpt lat="49.94929" lon="2.16125">
        <ele>15.3</ele>
        <time>2022-04-11T14:40:49Z</time>
      </trkpt>
      <trkpt lat="49.9493" lon="2.16123">
        <ele>15.3</ele>
        <time>2022-04-11T14:40:50Z</time>
      </trkpt>
      <trkpt lat="49.94931" lon="2.16122">
        <ele>15.3</ele>
        <time>2022-04-11T14:40:52Z</time>
      </trkpt>
      <trkpt lat="49.94931" lon="2.16121">
        <ele>15.3</ele>
        <time>2022-04-11T14:40:53Z</time>
      </trkpt>
      <trkpt lat="49.94932" lon="2.16119">
        <ele>15.3</ele>
        <time>2022-04-11T14:40:54Z</time>
      </trkpt>
      <trkpt lat="49.94932" lon="2.16118">
        <ele>15.3</ele>
        <time>2022-04-11T14:40:55Z</time>
      </trkpt>
      <trkpt lat="49.94932" lon="2.16116">
        <ele>15.3</ele>
        <time>2022-04-11T14:40:56Z</time>
      </trkpt>
      <trkpt lat="49.94933" lon="2.16115">
        <ele>15.3</ele>
        <time>2022-04-11T14:40:57Z</time>
      </trkpt>
      <trkpt lat="49.94933" lon="2.16114">
        <ele>15.3</ele>
        <time>2022-04-11T14:40:58Z</time>
      </trkpt>
      <trkpt lat="49.94934" lon="2.16112">
        <ele>15.3</ele>
        <time>2022-04-11T14:41:00Z</time>
      </trkpt>
      <trkpt lat="49.94935" lon="2.16111">
        <ele>15.3</ele>
        <time>2022-04-11T14:41:01Z</time>
      </trkpt>
      <trkpt lat="49.94936" lon="2.16111">
        <ele>15.3</ele>
        <time>2022-04-11T14:41:02Z</time>
      </trkpt>
      <trkpt lat="49.94937" lon="2.1611">
        <ele>15.3</ele>
        <time>2022-04-11T14:41:03Z</time>
      </trkpt>
      <trkpt lat="49.94938" lon="2.16109">
        <ele>15.3</ele>
        <time>2022-04-11T14:41:05Z</time>
      </trkpt>
      <trkpt lat="49.94938" lon="2.16108">
        <ele>15.3</ele>
        <time>2022-04-11T14:41:06Z</time>
      </trkpt>
      <trkpt lat="49.94939" lon="2.16107">
        <ele>15.3</ele>
        <time>2022-04-11T14:41:07Z</time>
      </trkpt>
      <trkpt lat="49.94939" lon="2.16106">
        <ele>15.3</ele>
        <time>2022-04-11T14:41:08Z</time>
      </trkpt>
      <trkpt lat="49.9494" lon="2.16105">
        <ele>15.3</ele>
        <time>2022-04-11T14:41:09Z</time>
      </trkpt>
      <trkpt lat="49.9494" lon="2.16104">
        <ele>15.3</ele>
        <time>2022-04-11T14:41:10Z</time>
      </trkpt>
      <trkpt lat="49.94941" lon="2.16103">
        <ele>15.3</ele>
        <time>2022-04-11T14:41:11Z</time>
      </trkpt>
      <trkpt lat="49.94941" lon="2.16101">
        <ele>15.3</ele>
        <time>2022-04-11T14:41:12Z</time>
      </trkpt>
      <trkpt lat="49.94942" lon="2.161">
        <ele>15.3</ele>
        <time>2022-04-11T14:41:13Z</time>
      </trkpt>
      <trkpt lat="49.94942" lon="2.16098">
        <ele>15.3</ele>
        <time>2022-04-11T14:41:14Z</time>
      </trkpt>
      <trkpt lat="49.94943" lon="2.16096">
        <ele>15.3</ele>
        <time>2022-04-11T14:41:15Z</time>
      </trkpt>
      <trkpt lat="49.94943" lon="2.16095">
        <ele>15.3</ele>
        <time>2022-04-11T14:41:16Z</time>
      </trkpt>
      <trkpt lat="49.94943" lon="2.16094">
        <ele>15.3</ele>
        <time>2022-04-11T14:41:18Z</time>
      </trkpt>
      <trkpt lat="49.94943" lon="2.16092">
        <ele>15.3</ele>
        <time>2022-04-11T14:41:19Z</time>
      </trkpt>
      <trkpt lat="49.94943" lon="2.1609">
        <ele>15.3</ele>
        <time>2022-04-11T14:41:20Z</time>
      </trkpt>
      <trkpt lat="49.94943" lon="2.16088">
        <ele>15.4</ele>
        <time>2022-04-11T14:41:21Z</time>
      </trkpt>
      <trkpt lat="49.94943" lon="2.16087">
        <ele>15.4</ele>
        <time>2022-04-11T14:41:22Z</time>
      </trkpt>
      <trkpt lat="49.94944" lon="2.16085">
        <ele>15.4</ele>
        <time>2022-04-11T14:41:23Z</time>
      </trkpt>
      <trkpt lat="49.94944" lon="2.16084">
        <ele>15.4</ele>
        <time>2022-04-11T14:41:24Z</time>
      </trkpt>
      <trkpt lat="49.94944" lon="2.16082">
        <ele>15.4</ele>
        <time>2022-04-11T14:41:25Z</time>
      </trkpt>
      <trkpt lat="49.94944" lon="2.1608">
        <ele>15.4</ele>
        <time>2022-04-11T14:41:26Z</time>
      </trkpt>
      <trkpt lat="49.94945" lon="2.16079">
        <ele>15.4</ele>
        <time>2022-04-11T14:41:27Z</time>
      </trkpt>
      <trkpt lat="49.94945" lon="2.16077">
        <ele>15.4</ele>
        <time>2022-04-11T14:41:28Z</time>
      </trkpt>
      <trkpt lat="49.94945" lon="2.16075">
        <ele>15.4</ele>
        <time>2022-04-11T14:41:29Z</time>
      </trkpt>
      <trkpt lat="49.94946" lon="2.16073">
        <ele>15.4</ele>
        <time>2022-04-11T14:41:30Z</time>
      </trkpt>
      <trkpt lat="49.94946" lon="2.16072">
        <ele>15.4</ele>
        <time>2022-04-11T14:41:31Z</time>
      </trkpt>
      <trkpt lat="49.94946" lon="2.1607">
        <ele>15.4</ele>
        <time>2022-04-11T14:41:33Z</time>
      </trkpt>
      <trkpt lat="49.94945" lon="2.16069">
        <ele>15.4</ele>
        <time>2022-04-11T14:41:34Z</time>
      </trkpt>
      <trkpt lat="49.94945" lon="2.16067">
        <ele>15.4</ele>
        <time>2022-04-11T14:41:35Z</time>
      </trkpt>
      <trkpt lat="49.94945" lon="2.16064">
        <ele>15.4</ele>
        <time>2022-04-11T14:41:36Z</time>
      </trkpt>
      <trkpt lat="49.94945" lon="2.16063">
        <ele>15.4</ele>
        <time>2022-04-11T14:41:37Z</time>
      </trkpt>
      <trkpt lat="49.94945" lon="2.16062">
        <ele>15.4</ele>
        <time>2022-04-11T14:41:38Z</time>
      </trkpt>
      <trkpt lat="49.94945" lon="2.16061">
        <ele>15.4</ele>
        <time>2022-04-11T14:41:39Z</time>
      </trkpt>
      <trkpt lat="49.94945" lon="2.16059">
        <ele>15.4</ele>
        <time>2022-04-11T14:41:40Z</time>
      </trkpt>
      <trkpt lat="49.94945" lon="2.16057">
        <ele>15.4</ele>
        <time>2022-04-11T14:41:41Z</time>
      </trkpt>
      <trkpt lat="49.94945" lon="2.16055">
        <ele>15.4</ele>
        <time>2022-04-11T14:41:42Z</time>
      </trkpt>
      <trkpt lat="49.94945" lon="2.16053">
        <ele>15.4</ele>
        <time>2022-04-11T14:41:43Z</time>
      </trkpt>
      <trkpt lat="49.94946" lon="2.1605">
        <ele>15.4</ele>
        <time>2022-04-11T14:41:44Z</time>
      </trkpt>
      <trkpt lat="49.94946" lon="2.16048">
        <ele>15.4</ele>
        <time>2022-04-11T14:41:45Z</time>
      </trkpt>
      <trkpt lat="49.94945" lon="2.16046">
        <ele>15.4</ele>
        <time>2022-04-11T14:41:46Z</time>
      </trkpt>
      <trkpt lat="49.94945" lon="2.16044">
        <ele>15.4</ele>
        <time>2022-04-11T14:41:47Z</time>
      </trkpt>
      <trkpt lat="49.94945" lon="2.16042">
        <ele>15.4</ele>
        <time>2022-04-11T14:41:49Z</time>
      </trkpt>
      <trkpt lat="49.94945" lon="2.1604">
        <ele>15.4</ele>
        <time>2022-04-11T14:41:50Z</time>
      </trkpt>
      <trkpt lat="49.94945" lon="2.16037">
        <ele>15.4</ele>
        <time>2022-04-11T14:41:51Z</time>
      </trkpt>
      <trkpt lat="49.94945" lon="2.16035">
        <ele>15.4</ele>
        <time>2022-04-11T14:41:52Z</time>
      </trkpt>
      <trkpt lat="49.94944" lon="2.16033">
        <ele>15.4</ele>
        <time>2022-04-11T14:41:53Z</time>
      </trkpt>
      <trkpt lat="49.94944" lon="2.16031">
        <ele>15.4</ele>
        <time>2022-04-11T14:41:54Z</time>
      </trkpt>
      <trkpt lat="49.94944" lon="2.1603">
        <ele>15.4</ele>
        <time>2022-04-11T14:41:55Z</time>
      </trkpt>
      <trkpt lat="49.94944" lon="2.16027">
        <ele>15.4</ele>
        <time>2022-04-11T14:41:56Z</time>
      </trkpt>
      <trkpt lat="49.94944" lon="2.16025">
        <ele>15.4</ele>
        <time>2022-04-11T14:41:57Z</time>
      </trkpt>
      <trkpt lat="49.94944" lon="2.16024">
        <ele>15.4</ele>
        <time>2022-04-11T14:41:58Z</time>
      </trkpt>
      <trkpt lat="49.94944" lon="2.16022">
        <ele>15.4</ele>
        <time>2022-04-11T14:41:59Z</time>
      </trkpt>
      <trkpt lat="49.94944" lon="2.1602">
        <ele>15.4</ele>
        <time>2022-04-11T14:42:00Z</time>
      </trkpt>
      <trkpt lat="49.94944" lon="2.16018">
        <ele>15.4</ele>
        <time>2022-04-11T14:42:01Z</time>
      </trkpt>
      <trkpt lat="49.94944" lon="2.16017">
        <ele>15.4</ele>
        <time>2022-04-11T14:42:02Z</time>
      </trkpt>
      <trkpt lat="49.94944" lon="2.16016">
        <ele>15.4</ele>
        <time>2022-04-11T14:42:04Z</time>
      </trkpt>
      <trkpt lat="49.94944" lon="2.16014">
        <ele>15.4</ele>
        <time>2022-04-11T14:42:05Z</time>
      </trkpt>
      <trkpt lat="49.94944" lon="2.16012">
        <ele>15.4</ele>
        <time>2022-04-11T14:42:06Z</time>
      </trkpt>
      <trkpt lat="49.94944" lon="2.16011">
        <ele>15.4</ele>
        <time>2022-04-11T14:42:07Z</time>
      </trkpt>
      <trkpt lat="49.94945" lon="2.16009">
        <ele>15.4</ele>
        <time>2022-04-11T14:42:08Z</time>
      </trkpt>
      <trkpt lat="49.94945" lon="2.16008">
        <ele>15.4</ele>
        <time>2022-04-11T14:42:09Z</time>
      </trkpt>
      <trkpt lat="49.94945" lon="2.16006">
        <ele>15.4</ele>
        <time>2022-04-11T14:42:10Z</time>
      </trkpt>
      <trkpt lat="49.94945" lon="2.16004">
        <ele>15.4</ele>
        <time>2022-04-11T14:42:11Z</time>
      </trkpt>
      <trkpt lat="49.94945" lon="2.16001">
        <ele>15.4</ele>
        <time>2022-04-11T14:42:12Z</time>
      </trkpt>
      <trkpt lat="49.94945" lon="2.15999">
        <ele>15.4</ele>
        <time>2022-04-11T14:42:13Z</time>
      </trkpt>
      <trkpt lat="49.94944" lon="2.15998">
        <ele>15.4</ele>
        <time>2022-04-11T14:42:14Z</time>
      </trkpt>
      <trkpt lat="49.94944" lon="2.15997">
        <ele>15.5</ele>
        <time>2022-04-11T14:42:15Z</time>
      </trkpt>
      <trkpt lat="49.94944" lon="2.15997">
        <ele>15.5</ele>
        <time>2022-04-11T14:42:16Z</time>
      </trkpt>
      <trkpt lat="49.94945" lon="2.15998">
        <ele>15.5</ele>
        <time>2022-04-11T14:42:17Z</time>
      </trkpt>
      <trkpt lat="49.94944" lon="2.15998">
        <ele>15.5</ele>
        <time>2022-04-11T14:42:18Z</time>
      </trkpt>
      <trkpt lat="49.94944" lon="2.15996">
        <ele>15.5</ele>
        <time>2022-04-11T14:42:20Z</time>
      </trkpt>
      <trkpt lat="49.94944" lon="2.15994">
        <ele>15.5</ele>
        <time>2022-04-11T14:42:21Z</time>
      </trkpt>
      <trkpt lat="49.94943" lon="2.1599">
        <ele>15.5</ele>
        <time>2022-04-11T14:42:22Z</time>
      </trkpt>
      <trkpt lat="49.94943" lon="2.15989">
        <ele>15.5</ele>
        <time>2022-04-11T14:42:23Z</time>
      </trkpt>
      <trkpt lat="49.94943" lon="2.15986">
        <ele>15.5</ele>
        <time>2022-04-11T14:42:24Z</time>
      </trkpt>
      <trkpt lat="49.94943" lon="2.15984">
        <ele>15.5</ele>
        <time>2022-04-11T14:42:25Z</time>
      </trkpt>
      <trkpt lat="49.94942" lon="2.1598">
        <ele>15.5</ele>
        <time>2022-04-11T14:42:26Z</time>
      </trkpt>
      <trkpt lat="49.94942" lon="2.15979">
        <ele>15.5</ele>
        <time>2022-04-11T14:42:27Z</time>
      </trkpt>
      <trkpt lat="49.94942" lon="2.15978">
        <ele>15.5</ele>
        <time>2022-04-11T14:42:28Z</time>
      </trkpt>
      <trkpt lat="49.94942" lon="2.15975">
        <ele>15.5</ele>
        <time>2022-04-11T14:42:29Z</time>
      </trkpt>
      <trkpt lat="49.94942" lon="2.15972">
        <ele>15.5</ele>
        <time>2022-04-11T14:42:30Z</time>
      </trkpt>
      <trkpt lat="49.94942" lon="2.1597">
        <ele>15.5</ele>
        <time>2022-04-11T14:42:31Z</time>
      </trkpt>
      <trkpt lat="49.94943" lon="2.15968">
        <ele>15.5</ele>
        <time>2022-04-11T14:42:33Z</time>
      </trkpt>
      <trkpt lat="49.94943" lon="2.15967">
        <ele>15.5</ele>
        <time>2022-04-11T14:42:34Z</time>
      </trkpt>
      <trkpt lat="49.94943" lon="2.15965">
        <ele>15.5</ele>
        <time>2022-04-11T14:42:35Z</time>
      </trkpt>
      <trkpt lat="49.94942" lon="2.15963">
        <ele>15.5</ele>
        <time>2022-04-11T14:42:36Z</time>
      </trkpt>
      <trkpt lat="49.94942" lon="2.1596">
        <ele>15.5</ele>
        <time>2022-04-11T14:42:37Z</time>
      </trkpt>
      <trkpt lat="49.94942" lon="2.15958">
        <ele>15.5</ele>
        <time>2022-04-11T14:42:38Z</time>
      </trkpt>
      <trkpt lat="49.94942" lon="2.15956">
        <ele>15.5</ele>
        <time>2022-04-11T14:42:39Z</time>
      </trkpt>
      <trkpt lat="49.94942" lon="2.15953">
        <ele>15.5</ele>
        <time>2022-04-11T14:42:40Z</time>
      </trkpt>
      <trkpt lat="49.94941" lon="2.15951">
        <ele>15.5</ele>
        <time>2022-04-11T14:42:42Z</time>
      </trkpt>
      <trkpt lat="49.94941" lon="2.15948">
        <ele>15.5</ele>
        <time>2022-04-11T14:42:43Z</time>
      </trkpt>
      <trkpt lat="49.9494" lon="2.15946">
        <ele>15.5</ele>
        <time>2022-04-11T14:42:44Z</time>
      </trkpt>
      <trkpt lat="49.9494" lon="2.15944">
        <ele>15.5</ele>
        <time>2022-04-11T14:42:45Z</time>
      </trkpt>
      <trkpt lat="49.94939" lon="2.15941">
        <ele>15.5</ele>
        <time>2022-04-11T14:42:46Z</time>
      </trkpt>
      <trkpt lat="49.94939" lon="2.15939">
        <ele>15.5</ele>
        <time>2022-04-11T14:42:47Z</time>
      </trkpt>
      <trkpt lat="49.94939" lon="2.15938">
        <ele>15.5</ele>
        <time>2022-04-11T14:42:48Z</time>
      </trkpt>
      <trkpt lat="49.94938" lon="2.15937">
        <ele>15.5</ele>
        <time>2022-04-11T14:42:49Z</time>
      </trkpt>
      <trkpt lat="49.94938" lon="2.15935">
        <ele>15.5</ele>
        <time>2022-04-11T14:42:50Z</time>
      </trkpt>
      <trkpt lat="49.94938" lon="2.15934">
        <ele>15.5</ele>
        <time>2022-04-11T14:42:51Z</time>
      </trkpt>
      <trkpt lat="49.94937" lon="2.15932">
        <ele>15.5</ele>
        <time>2022-04-11T14:42:53Z</time>
      </trkpt>
      <trkpt lat="49.94937" lon="2.1593">
        <ele>15.5</ele>
        <time>2022-04-11T14:42:54Z</time>
      </trkpt>
      <trkpt lat="49.94936" lon="2.15929">
        <ele>15.5</ele>
        <time>2022-04-11T14:42:55Z</time>
      </trkpt>
      <trkpt lat="49.94936" lon="2.15927">
        <ele>15.5</ele>
        <time>2022-04-11T14:42:56Z</time>
      </trkpt>
      <trkpt lat="49.94936" lon="2.15927">
        <ele>15.5</ele>
        <time>2022-04-11T14:42:57Z</time>
      </trkpt>
      <trkpt lat="49.94935" lon="2.15927">
        <ele>15.5</ele>
        <time>2022-04-11T14:42:58Z</time>
      </trkpt>
      <trkpt lat="49.94934" lon="2.15926">
        <ele>15.5</ele>
        <time>2022-04-11T14:42:59Z</time>
      </trkpt>
      <trkpt lat="49.94933" lon="2.15925">
        <ele>15.5</ele>
        <time>2022-04-11T14:43:00Z</time>
      </trkpt>
      <trkpt lat="49.94933" lon="2.15925">
        <ele>15.5</ele>
        <time>2022-04-11T14:43:01Z</time>
      </trkpt>
      <trkpt lat="49.94933" lon="2.15925">
        <ele>15.5</ele>
        <time>2022-04-11T14:43:02Z</time>
      </trkpt>
      <trkpt lat="49.94932" lon="2.15924">
        <ele>15.5</ele>
        <time>2022-04-11T14:43:04Z</time>
      </trkpt>
      <trkpt lat="49.94932" lon="2.15924">
        <ele>15.5</ele>
        <time>2022-04-11T14:43:05Z</time>
      </trkpt>
      <trkpt lat="49.94931" lon="2.15923">
        <ele>15.5</ele>
        <time>2022-04-11T14:43:06Z</time>
      </trkpt>
      <trkpt lat="49.9493" lon="2.15922">
        <ele>15.5</ele>
        <time>2022-04-11T14:43:07Z</time>
      </trkpt>
      <trkpt lat="49.9493" lon="2.15921">
        <ele>15.5</ele>
        <time>2022-04-11T14:43:08Z</time>
      </trkpt>
      <trkpt lat="49.94929" lon="2.1592">
        <ele>15.5</ele>
        <time>2022-04-11T14:43:09Z</time>
      </trkpt>
      <trkpt lat="49.94929" lon="2.15919">
        <ele>15.5</ele>
        <time>2022-04-11T14:43:10Z</time>
      </trkpt>
      <trkpt lat="49.94928" lon="2.15917">
        <ele>15.5</ele>
        <time>2022-04-11T14:43:11Z</time>
      </trkpt>
      <trkpt lat="49.94928" lon="2.15916">
        <ele>15.5</ele>
        <time>2022-04-11T14:43:12Z</time>
      </trkpt>
      <trkpt lat="49.94927" lon="2.15914">
        <ele>15.6</ele>
        <time>2022-04-11T14:43:13Z</time>
      </trkpt>
      <trkpt lat="49.94927" lon="2.15912">
        <ele>15.6</ele>
        <time>2022-04-11T14:43:14Z</time>
      </trkpt>
      <trkpt lat="49.94926" lon="2.1591">
        <ele>15.6</ele>
        <time>2022-04-11T14:43:16Z</time>
      </trkpt>
      <trkpt lat="49.94926" lon="2.15909">
        <ele>15.6</ele>
        <time>2022-04-11T14:43:17Z</time>
      </trkpt>
      <trkpt lat="49.94926" lon="2.15907">
        <ele>15.6</ele>
        <time>2022-04-11T14:43:18Z</time>
      </trkpt>
      <trkpt lat="49.94926" lon="2.15903">
        <ele>15.6</ele>
        <time>2022-04-11T14:43:20Z</time>
      </trkpt>
      <trkpt lat="49.94926" lon="2.15902">
        <ele>15.6</ele>
        <time>2022-04-11T14:43:21Z</time>
      </trkpt>
      <trkpt lat="49.94925" lon="2.15902">
        <ele>15.6</ele>
        <time>2022-04-11T14:43:22Z</time>
      </trkpt>
      <trkpt lat="49.94925" lon="2.15902">
        <ele>15.6</ele>
        <time>2022-04-11T14:43:23Z</time>
      </trkpt>
      <trkpt lat="49.94924" lon="2.15901">
        <ele>15.6</ele>
        <time>2022-04-11T14:43:24Z</time>
      </trkpt>
      <trkpt lat="49.94924" lon="2.15901">
        <ele>15.6</ele>
        <time>2022-04-11T14:43:25Z</time>
      </trkpt>
      <trkpt lat="49.94924" lon="2.15901">
        <ele>15.6</ele>
        <time>2022-04-11T14:43:26Z</time>
      </trkpt>
      <trkpt lat="49.94924" lon="2.15901">
        <ele>15.6</ele>
        <time>2022-04-11T14:43:27Z</time>
      </trkpt>
      <trkpt lat="49.94925" lon="2.159">
        <ele>15.6</ele>
        <time>2022-04-11T14:43:28Z</time>
      </trkpt>
      <trkpt lat="49.94926" lon="2.159">
        <ele>15.6</ele>
        <time>2022-04-11T14:43:29Z</time>
      </trkpt>
      <trkpt lat="49.94926" lon="2.15898">
        <ele>15.6</ele>
        <time>2022-04-11T14:43:30Z</time>
      </trkpt>
      <trkpt lat="49.94927" lon="2.15897">
        <ele>15.6</ele>
        <time>2022-04-11T14:43:32Z</time>
      </trkpt>
      <trkpt lat="49.94928" lon="2.15896">
        <ele>15.6</ele>
        <time>2022-04-11T14:43:33Z</time>
      </trkpt>
      <trkpt lat="49.94929" lon="2.15895">
        <ele>15.6</ele>
        <time>2022-04-11T14:43:34Z</time>
      </trkpt>
      <trkpt lat="49.94929" lon="2.15893">
        <ele>15.6</ele>
        <time>2022-04-11T14:43:35Z</time>
      </trkpt>
      <trkpt lat="49.9493" lon="2.15893">
        <ele>15.6</ele>
        <time>2022-04-11T14:43:36Z</time>
      </trkpt>
      <trkpt lat="49.94931" lon="2.15892">
        <ele>15.6</ele>
        <time>2022-04-11T14:43:37Z</time>
      </trkpt>
      <trkpt lat="49.94932" lon="2.15891">
        <ele>15.6</ele>
        <time>2022-04-11T14:43:38Z</time>
      </trkpt>
      <trkpt lat="49.94932" lon="2.15889">
        <ele>15.6</ele>
        <time>2022-04-11T14:43:39Z</time>
      </trkpt>
      <trkpt lat="49.94933" lon="2.15887">
        <ele>15.6</ele>
        <time>2022-04-11T14:43:40Z</time>
      </trkpt>
      <trkpt lat="49.94933" lon="2.15886">
        <ele>15.6</ele>
        <time>2022-04-11T14:43:42Z</time>
      </trkpt>
      <trkpt lat="49.94934" lon="2.15884">
        <ele>15.6</ele>
        <time>2022-04-11T14:43:43Z</time>
      </trkpt>
      <trkpt lat="49.94934" lon="2.15883">
        <ele>15.6</ele>
        <time>2022-04-11T14:43:44Z</time>
      </trkpt>
      <trkpt lat="49.94934" lon="2.15881">
        <ele>15.6</ele>
        <time>2022-04-11T14:43:45Z</time>
      </trkpt>
      <trkpt lat="49.94934" lon="2.15879">
        <ele>15.6</ele>
        <time>2022-04-11T14:43:46Z</time>
      </trkpt>
      <trkpt lat="49.94935" lon="2.15878">
        <ele>15.6</ele>
        <time>2022-04-11T14:43:47Z</time>
      </trkpt>
      <trkpt lat="49.94935" lon="2.15876">
        <ele>15.6</ele>
        <time>2022-04-11T14:43:48Z</time>
      </trkpt>
      <trkpt lat="49.94935" lon="2.15874">
        <ele>15.6</ele>
        <time>2022-04-11T14:43:50Z</time>
      </trkpt>
      <trkpt lat="49.94935" lon="2.15872">
        <ele>15.6</ele>
        <time>2022-04-11T14:43:51Z</time>
      </trkpt>
      <trkpt lat="49.94936" lon="2.15869">
        <ele>15.5</ele>
        <time>2022-04-11T14:43:52Z</time>
      </trkpt>
      <trkpt lat="49.94936" lon="2.15868">
        <ele>15.5</ele>
        <time>2022-04-11T14:43:54Z</time>
      </trkpt>
      <trkpt lat="49.94936" lon="2.15867">
        <ele>15.5</ele>
        <time>2022-04-11T14:43:55Z</time>
      </trkpt>
      <trkpt lat="49.94937" lon="2.15865">
        <ele>15.5</ele>
        <time>2022-04-11T14:43:56Z</time>
      </trkpt>
      <trkpt lat="49.94938" lon="2.15862">
        <ele>15.5</ele>
        <time>2022-04-11T14:43:58Z</time>
      </trkpt>
      <trkpt lat="49.94939" lon="2.1586">
        <ele>15.5</ele>
        <time>2022-04-11T14:44:00Z</time>
      </trkpt>
      <trkpt lat="49.9494" lon="2.15861">
        <ele>15.5</ele>
        <time>2022-04-11T14:44:01Z</time>
      </trkpt>
      <trkpt lat="49.9494" lon="2.15861">
        <ele>15.5</ele>
        <time>2022-04-11T14:44:02Z</time>
      </trkpt>
      <trkpt lat="49.94941" lon="2.15861">
        <ele>15.5</ele>
        <time>2022-04-11T14:44:03Z</time>
      </trkpt>
      <trkpt lat="49.94941" lon="2.15858">
        <ele>15.5</ele>
        <time>2022-04-11T14:44:04Z</time>
      </trkpt>
      <trkpt lat="49.94941" lon="2.15859">
        <ele>15.5</ele>
        <time>2022-04-11T14:44:06Z</time>
      </trkpt>
      <trkpt lat="49.94941" lon="2.15859">
        <ele>15.5</ele>
        <time>2022-04-11T14:44:07Z</time>
      </trkpt>
      <trkpt lat="49.94941" lon="2.1586">
        <ele>15.5</ele>
        <time>2022-04-11T14:44:09Z</time>
      </trkpt>
      <trkpt lat="49.9494" lon="2.1586">
        <ele>15.5</ele>
        <time>2022-04-11T14:44:10Z</time>
      </trkpt>
      <trkpt lat="49.9494" lon="2.15861">
        <ele>15.5</ele>
        <time>2022-04-11T14:44:12Z</time>
      </trkpt>
      <trkpt lat="49.9494" lon="2.15861">
        <ele>15.5</ele>
        <time>2022-04-11T14:44:13Z</time>
      </trkpt>
      <trkpt lat="49.9494" lon="2.15862">
        <ele>15.5</ele>
        <time>2022-04-11T14:44:14Z</time>
      </trkpt>
      <trkpt lat="49.9494" lon="2.15862">
        <ele>15.5</ele>
        <time>2022-04-11T14:44:15Z</time>
      </trkpt>
      <trkpt lat="49.94939" lon="2.15865">
        <ele>15.5</ele>
        <time>2022-04-11T14:44:16Z</time>
      </trkpt>
      <trkpt lat="49.94939" lon="2.15867">
        <ele>15.5</ele>
        <time>2022-04-11T14:44:17Z</time>
      </trkpt>
      <trkpt lat="49.94938" lon="2.15868">
        <ele>15.5</ele>
        <time>2022-04-11T14:44:18Z</time>
      </trkpt>
      <trkpt lat="49.94939" lon="2.15869">
        <ele>15.5</ele>
        <time>2022-04-11T14:44:19Z</time>
      </trkpt>
      <trkpt lat="49.9494" lon="2.15871">
        <ele>15.5</ele>
        <time>2022-04-11T14:44:21Z</time>
      </trkpt>
      <trkpt lat="49.94939" lon="2.15871">
        <ele>15.5</ele>
        <time>2022-04-11T14:44:22Z</time>
      </trkpt>
      <trkpt lat="49.94939" lon="2.15871">
        <ele>15.5</ele>
        <time>2022-04-11T14:44:23Z</time>
      </trkpt>
      <trkpt lat="49.94939" lon="2.15871">
        <ele>15.5</ele>
        <time>2022-04-11T14:44:24Z</time>
      </trkpt>
      <trkpt lat="49.94939" lon="2.15871">
        <ele>15.5</ele>
        <time>2022-04-11T14:44:25Z</time>
      </trkpt>
      <trkpt lat="49.94938" lon="2.15871">
        <ele>15.5</ele>
        <time>2022-04-11T14:44:26Z</time>
      </trkpt>
      <trkpt lat="49.94938" lon="2.1587">
        <ele>15.5</ele>
        <time>2022-04-11T14:44:27Z</time>
      </trkpt>
      <trkpt lat="49.94938" lon="2.1587">
        <ele>15.5</ele>
        <time>2022-04-11T14:44:28Z</time>
      </trkpt>
      <trkpt lat="49.94938" lon="2.15869">
        <ele>15.5</ele>
        <time>2022-04-11T14:44:29Z</time>
      </trkpt>
      <trkpt lat="49.94938" lon="2.15869">
        <ele>15.5</ele>
        <time>2022-04-11T14:44:30Z</time>
      </trkpt>
      <trkpt lat="49.94938" lon="2.15869">
        <ele>15.5</ele>
        <time>2022-04-11T14:44:31Z</time>
      </trkpt>
      <trkpt lat="49.94938" lon="2.15869">
        <ele>15.5</ele>
        <time>2022-04-11T14:44:32Z</time>
      </trkpt>
      <trkpt lat="49.94938" lon="2.15869">
        <ele>15.5</ele>
        <time>2022-04-11T14:44:33Z</time>
      </trkpt>
      <trkpt lat="49.94938" lon="2.15869">
        <ele>15.5</ele>
        <time>2022-04-11T14:44:34Z</time>
      </trkpt>
      <trkpt lat="49.94938" lon="2.15869">
        <ele>15.5</ele>
        <time>2022-04-11T14:44:35Z</time>
      </trkpt>
      <trkpt lat="49.94938" lon="2.15869">
        <ele>15.5</ele>
        <time>2022-04-11T14:44:36Z</time>
      </trkpt>
      <trkpt lat="49.94938" lon="2.15868">
        <ele>15.5</ele>
        <time>2022-04-11T14:44:37Z</time>
      </trkpt>
      <trkpt lat="49.94938" lon="2.15868">
        <ele>15.5</ele>
        <time>2022-04-11T14:44:38Z</time>
      </trkpt>
      <trkpt lat="49.94938" lon="2.15868">
        <ele>15.5</ele>
        <time>2022-04-11T14:44:39Z</time>
      </trkpt>
      <trkpt lat="49.94938" lon="2.15867">
        <ele>15.5</ele>
        <time>2022-04-11T14:44:40Z</time>
      </trkpt>
      <trkpt lat="49.94938" lon="2.15867">
        <ele>15.5</ele>
        <time>2022-04-11T14:44:41Z</time>
      </trkpt>
      <trkpt lat="49.94938" lon="2.15867">
        <ele>15.5</ele>
        <time>2022-04-11T14:44:42Z</time>
      </trkpt>
      <trkpt lat="49.94938" lon="2.15867">
        <ele>15.5</ele>
        <time>2022-04-11T14:44:43Z</time>
      </trkpt>
      <trkpt lat="49.94938" lon="2.15867">
        <ele>15.5</ele>
        <time>2022-04-11T14:44:44Z</time>
      </trkpt>
      <trkpt lat="49.94938" lon="2.15867">
        <ele>15.5</ele>
        <time>2022-04-11T14:44:45Z</time>
      </trkpt>
      <trkpt lat="49.94938" lon="2.15867">
        <ele>15.5</ele>
        <time>2022-04-11T14:44:46Z</time>
      </trkpt>
      <trkpt lat="49.94938" lon="2.15867">
        <ele>15.5</ele>
        <time>2022-04-11T14:44:47Z</time>
      </trkpt>
      <trkpt lat="49.94938" lon="2.15867">
        <ele>15.5</ele>
        <time>2022-04-11T14:44:48Z</time>
      </trkpt>
      <trkpt lat="49.94938" lon="2.15867">
        <ele>15.5</ele>
        <time>2022-04-11T14:44:49Z</time>
      </trkpt>
      <trkpt lat="49.94938" lon="2.15867">
        <ele>15.5</ele>
        <time>2022-04-11T14:44:50Z</time>
      </trkpt>
      <trkpt lat="49.94938" lon="2.15867">
        <ele>15.5</ele>
        <time>2022-04-11T14:44:51Z</time>
      </trkpt>
      <trkpt lat="49.94938" lon="2.15867">
        <ele>15.5</ele>
        <time>2022-04-11T14:44:52Z</time>
      </trkpt>
      <trkpt lat="49.94938" lon="2.15867">
        <ele>15.5</ele>
        <time>2022-04-11T14:44:53Z</time>
      </trkpt>
      <trkpt lat="49.94938" lon="2.15867">
        <ele>15.5</ele>
        <time>2022-04-11T14:44:54Z</time>
      </trkpt>
      <trkpt lat="49.94938" lon="2.15867">
        <ele>15.5</ele>
        <time>2022-04-11T14:44:55Z</time>
      </trkpt>
      <trkpt lat="49.94938" lon="2.15867">
        <ele>15.5</ele>
        <time>2022-04-11T14:44:56Z</time>
      </trkpt>
      <trkpt lat="49.94938" lon="2.15867">
        <ele>15.5</ele>
        <time>2022-04-11T14:44:57Z</time>
      </trkpt>
      <trkpt lat="49.94938" lon="2.15867">
        <ele>15.5</ele>
        <time>2022-04-11T14:44:58Z</time>
      </trkpt>
      <trkpt lat="49.94938" lon="2.15867">
        <ele>15.5</ele>
        <time>2022-04-11T14:44:59Z</time>
      </trkpt>
      <trkpt lat="49.94938" lon="2.15867">
        <ele>15.5</ele>
        <time>2022-04-11T14:45:00Z</time>
      </trkpt>
      <trkpt lat="49.94938" lon="2.15867">
        <ele>15.5</ele>
        <time>2022-04-11T14:45:01Z</time>
      </trkpt>
      <trkpt lat="49.94938" lon="2.15867">
        <ele>15.5</ele>
        <time>2022-04-11T14:45:02Z</time>
      </trkpt>
      <trkpt lat="49.94938" lon="2.15867">
        <ele>15.5</ele>
        <time>2022-04-11T14:45:03Z</time>
      </trkpt>
      <trkpt lat="49.94938" lon="2.15867">
        <ele>15.5</ele>
        <time>2022-04-11T14:45:04Z</time>
      </trkpt>
      <trkpt lat="49.94938" lon="2.15868">
        <ele>15.5</ele>
        <time>2022-04-11T14:45:05Z</time>
      </trkpt>
      <trkpt lat="49.94939" lon="2.15868">
        <ele>15.5</ele>
        <time>2022-04-11T14:45:07Z</time>
      </trkpt>
      <trkpt lat="49.94939" lon="2.15869">
        <ele>15.5</ele>
        <time>2022-04-11T14:45:08Z</time>
      </trkpt>
      <trkpt lat="49.94939" lon="2.15869">
        <ele>15.5</ele>
        <time>2022-04-11T14:45:09Z</time>
      </trkpt>
      <trkpt lat="49.94939" lon="2.15869">
        <ele>15.5</ele>
        <time>2022-04-11T14:45:10Z</time>
      </trkpt>
      <trkpt lat="49.94939" lon="2.15869">
        <ele>15.5</ele>
        <time>2022-04-11T14:45:11Z</time>
      </trkpt>
      <trkpt lat="49.94939" lon="2.15868">
        <ele>15.5</ele>
        <time>2022-04-11T14:45:12Z</time>
      </trkpt>
      <trkpt lat="49.94939" lon="2.15868">
        <ele>15.5</ele>
        <time>2022-04-11T14:45:13Z</time>
      </trkpt>
      <trkpt lat="49.94938" lon="2.15868">
        <ele>15.5</ele>
        <time>2022-04-11T14:45:14Z</time>
      </trkpt>
      <trkpt lat="49.94938" lon="2.15868">
        <ele>15.5</ele>
        <time>2022-04-11T14:45:15Z</time>
      </trkpt>
      <trkpt lat="49.94938" lon="2.15867">
        <ele>15.5</ele>
        <time>2022-04-11T14:45:16Z</time>
      </trkpt>
      <trkpt lat="49.94938" lon="2.15868">
        <ele>15.5</ele>
        <time>2022-04-11T14:45:17Z</time>
      </trkpt>
      <trkpt lat="49.94938" lon="2.15868">
        <ele>15.5</ele>
        <time>2022-04-11T14:45:19Z</time>
      </trkpt>
      <trkpt lat="49.94938" lon="2.15868">
        <ele>15.5</ele>
        <time>2022-04-11T14:45:20Z</time>
      </trkpt>
      <trkpt lat="49.94938" lon="2.15869">
        <ele>15.5</ele>
        <time>2022-04-11T14:45:21Z</time>
      </trkpt>
      <trkpt lat="49.94938" lon="2.15869">
        <ele>15.5</ele>
        <time>2022-04-11T14:45:22Z</time>
      </trkpt>
      <trkpt lat="49.94938" lon="2.15869">
        <ele>15.5</ele>
        <time>2022-04-11T14:45:23Z</time>
      </trkpt>
      <trkpt lat="49.94938" lon="2.15868">
        <ele>15.5</ele>
        <time>2022-04-11T14:45:24Z</time>
      </trkpt>
      <trkpt lat="49.94938" lon="2.15867">
        <ele>15.5</ele>
        <time>2022-04-11T14:45:25Z</time>
      </trkpt>
      <trkpt lat="49.94939" lon="2.15866">
        <ele>15.5</ele>
        <time>2022-04-11T14:45:26Z</time>
      </trkpt>
      <trkpt lat="49.94939" lon="2.15865">
        <ele>15.5</ele>
        <time>2022-04-11T14:45:27Z</time>
      </trkpt>
      <trkpt lat="49.94939" lon="2.15865">
        <ele>15.5</ele>
        <time>2022-04-11T14:45:28Z</time>
      </trkpt>
      <trkpt lat="49.94939" lon="2.15864">
        <ele>15.5</ele>
        <time>2022-04-11T14:45:29Z</time>
      </trkpt>
      <trkpt lat="49.94939" lon="2.15864">
        <ele>15.5</ele>
        <time>2022-04-11T14:45:31Z</time>
      </trkpt>
      <trkpt lat="49.9494" lon="2.15863">
        <ele>15.5</ele>
        <time>2022-04-11T14:45:33Z</time>
      </trkpt>
      <trkpt lat="49.9494" lon="2.15863">
        <ele>15.5</ele>
        <time>2022-04-11T14:45:34Z</time>
      </trkpt>
      <trkpt lat="49.9494" lon="2.15862">
        <ele>15.5</ele>
        <time>2022-04-11T14:45:35Z</time>
      </trkpt>
      <trkpt lat="49.9494" lon="2.15862">
        <ele>15.5</ele>
        <time>2022-04-11T14:45:36Z</time>
      </trkpt>
      <trkpt lat="49.9494" lon="2.1586">
        <ele>15.5</ele>
        <time>2022-04-11T14:45:38Z</time>
      </trkpt>
      <trkpt lat="49.9494" lon="2.1586">
        <ele>15.5</ele>
        <time>2022-04-11T14:45:39Z</time>
      </trkpt>
      <trkpt lat="49.9494" lon="2.15859">
        <ele>15.5</ele>
        <time>2022-04-11T14:45:40Z</time>
      </trkpt>
      <trkpt lat="49.94939" lon="2.1586">
        <ele>15.5</ele>
        <time>2022-04-11T14:45:41Z</time>
      </trkpt>
      <trkpt lat="49.9494" lon="2.1586">
        <ele>15.5</ele>
        <time>2022-04-11T14:45:42Z</time>
      </trkpt>
      <trkpt lat="49.9494" lon="2.15859">
        <ele>15.5</ele>
        <time>2022-04-11T14:45:44Z</time>
      </trkpt>
      <trkpt lat="49.94939" lon="2.15859">
        <ele>15.5</ele>
        <time>2022-04-11T14:45:45Z</time>
      </trkpt>
      <trkpt lat="49.94939" lon="2.15859">
        <ele>15.5</ele>
        <time>2022-04-11T14:45:46Z</time>
      </trkpt>
      <trkpt lat="49.94939" lon="2.15858">
        <ele>15.5</ele>
        <time>2022-04-11T14:45:47Z</time>
      </trkpt>
      <trkpt lat="49.94939" lon="2.15857">
        <ele>15.5</ele>
        <time>2022-04-11T14:45:48Z</time>
      </trkpt>
      <trkpt lat="49.94939" lon="2.15857">
        <ele>15.5</ele>
        <time>2022-04-11T14:45:49Z</time>
      </trkpt>
      <trkpt lat="49.94938" lon="2.15858">
        <ele>15.5</ele>
        <time>2022-04-11T14:45:50Z</time>
      </trkpt>
      <trkpt lat="49.94938" lon="2.15858">
        <ele>15.5</ele>
        <time>2022-04-11T14:45:51Z</time>
      </trkpt>
      <trkpt lat="49.94938" lon="2.15858">
        <ele>15.5</ele>
        <time>2022-04-11T14:45:52Z</time>
      </trkpt>
      <trkpt lat="49.94938" lon="2.15859">
        <ele>15.5</ele>
        <time>2022-04-11T14:45:53Z</time>
      </trkpt>
      <trkpt lat="49.94938" lon="2.15859">
        <ele>15.5</ele>
        <time>2022-04-11T14:45:54Z</time>
      </trkpt>
      <trkpt lat="49.94938" lon="2.15859">
        <ele>15.5</ele>
        <time>2022-04-11T14:45:55Z</time>
      </trkpt>
      <trkpt lat="49.94938" lon="2.15859">
        <ele>15.5</ele>
        <time>2022-04-11T14:45:56Z</time>
      </trkpt>
      <trkpt lat="49.94938" lon="2.1586">
        <ele>15.5</ele>
        <time>2022-04-11T14:45:57Z</time>
      </trkpt>
      <trkpt lat="49.94938" lon="2.15861">
        <ele>15.5</ele>
        <time>2022-04-11T14:45:59Z</time>
      </trkpt>
      <trkpt lat="49.94938" lon="2.15861">
        <ele>15.5</ele>
        <time>2022-04-11T14:46:00Z</time>
      </trkpt>
      <trkpt lat="49.94937" lon="2.15861">
        <ele>15.5</ele>
        <time>2022-04-11T14:46:01Z</time>
      </trkpt>
      <trkpt lat="49.94936" lon="2.15861">
        <ele>15.5</ele>
        <time>2022-04-11T14:46:02Z</time>
      </trkpt>
      <trkpt lat="49.94936" lon="2.1586">
        <ele>15.5</ele>
        <time>2022-04-11T14:46:03Z</time>
      </trkpt>
      <trkpt lat="49.94936" lon="2.15859">
        <ele>15.5</ele>
        <time>2022-04-11T14:46:04Z</time>
      </trkpt>
      <trkpt lat="49.94936" lon="2.15859">
        <ele>15.5</ele>
        <time>2022-04-11T14:46:05Z</time>
      </trkpt>
      <trkpt lat="49.94936" lon="2.15858">
        <ele>15.5</ele>
        <time>2022-04-11T14:46:07Z</time>
      </trkpt>
      <trkpt lat="49.94936" lon="2.15859">
        <ele>15.5</ele>
        <time>2022-04-11T14:46:09Z</time>
      </trkpt>
      <trkpt lat="49.94935" lon="2.1586">
        <ele>15.5</ele>
        <time>2022-04-11T14:46:10Z</time>
      </trkpt>
      <trkpt lat="49.94935" lon="2.15864">
        <ele>15.5</ele>
        <time>2022-04-11T14:46:11Z</time>
      </trkpt>
      <trkpt lat="49.94934" lon="2.15867">
        <ele>15.5</ele>
        <time>2022-04-11T14:46:12Z</time>
      </trkpt>
      <trkpt lat="49.94934" lon="2.15869">
        <ele>15.5</ele>
        <time>2022-04-11T14:46:13Z</time>
      </trkpt>
      <trkpt lat="49.94934" lon="2.15873">
        <ele>15.5</ele>
        <time>2022-04-11T14:46:14Z</time>
      </trkpt>
      <trkpt lat="49.94934" lon="2.15874">
        <ele>15.5</ele>
        <time>2022-04-11T14:46:16Z</time>
      </trkpt>
      <trkpt lat="49.94934" lon="2.15876">
        <ele>15.5</ele>
        <time>2022-04-11T14:46:17Z</time>
      </trkpt>
      <trkpt lat="49.94934" lon="2.15877">
        <ele>15.5</ele>
        <time>2022-04-11T14:46:18Z</time>
      </trkpt>
      <trkpt lat="49.94934" lon="2.15879">
        <ele>15.5</ele>
        <time>2022-04-11T14:46:19Z</time>
      </trkpt>
      <trkpt lat="49.94932" lon="2.15877">
        <ele>15.5</ele>
        <time>2022-04-11T14:46:21Z</time>
      </trkpt>
      <trkpt lat="49.9493" lon="2.15876">
        <ele>15.4</ele>
        <time>2022-04-11T14:46:22Z</time>
      </trkpt>
      <trkpt lat="49.94929" lon="2.15875">
        <ele>15.4</ele>
        <time>2022-04-11T14:46:23Z</time>
      </trkpt>
      <trkpt lat="49.94928" lon="2.15874">
        <ele>15.4</ele>
        <time>2022-04-11T14:46:24Z</time>
      </trkpt>
      <trkpt lat="49.94928" lon="2.15873">
        <ele>15.4</ele>
        <time>2022-04-11T14:46:25Z</time>
      </trkpt>
      <trkpt lat="49.94929" lon="2.15879">
        <ele>15.4</ele>
        <time>2022-04-11T14:46:26Z</time>
      </trkpt>
      <trkpt lat="49.9493" lon="2.15883">
        <ele>15.4</ele>
        <time>2022-04-11T14:46:27Z</time>
      </trkpt>
      <trkpt lat="49.94929" lon="2.15884">
        <ele>15.4</ele>
        <time>2022-04-11T14:46:28Z</time>
      </trkpt>
      <trkpt lat="49.94929" lon="2.15884">
        <ele>15.4</ele>
        <time>2022-04-11T14:46:30Z</time>
      </trkpt>
      <trkpt lat="49.94928" lon="2.15884">
        <ele>15.4</ele>
        <time>2022-04-11T14:46:31Z</time>
      </trkpt>
      <trkpt lat="49.94927" lon="2.15884">
        <ele>15.4</ele>
        <time>2022-04-11T14:46:33Z</time>
      </trkpt>
      <trkpt lat="49.94926" lon="2.15884">
        <ele>15.4</ele>
        <time>2022-04-11T14:46:34Z</time>
      </trkpt>
      <trkpt lat="49.94925" lon="2.15884">
        <ele>15.4</ele>
        <time>2022-04-11T14:46:35Z</time>
      </trkpt>
      <trkpt lat="49.94925" lon="2.15884">
        <ele>15.4</ele>
        <time>2022-04-11T14:46:36Z</time>
      </trkpt>
      <trkpt lat="49.94924" lon="2.15884">
        <ele>15.4</ele>
        <time>2022-04-11T14:46:37Z</time>
      </trkpt>
      <trkpt lat="49.94926" lon="2.15887">
        <ele>15.4</ele>
        <time>2022-04-11T14:46:38Z</time>
      </trkpt>
      <trkpt lat="49.94926" lon="2.15887">
        <ele>15.4</ele>
        <time>2022-04-11T14:46:39Z</time>
      </trkpt>
      <trkpt lat="49.94926" lon="2.15887">
        <ele>15.4</ele>
        <time>2022-04-11T14:46:40Z</time>
      </trkpt>
      <trkpt lat="49.94925" lon="2.15887">
        <ele>15.4</ele>
        <time>2022-04-11T14:46:41Z</time>
      </trkpt>
      <trkpt lat="49.94924" lon="2.15888">
        <ele>15.4</ele>
        <time>2022-04-11T14:46:43Z</time>
      </trkpt>
      <trkpt lat="49.94923" lon="2.15889">
        <ele>15.4</ele>
        <time>2022-04-11T14:46:44Z</time>
      </trkpt>
      <trkpt lat="49.94922" lon="2.15889">
        <ele>15.4</ele>
        <time>2022-04-11T14:46:46Z</time>
      </trkpt>
      <trkpt lat="49.94921" lon="2.15889">
        <ele>15.4</ele>
        <time>2022-04-11T14:46:47Z</time>
      </trkpt>
      <trkpt lat="49.94921" lon="2.15891">
        <ele>15.4</ele>
        <time>2022-04-11T14:46:48Z</time>
      </trkpt>
      <trkpt lat="49.94922" lon="2.15892">
        <ele>15.4</ele>
        <time>2022-04-11T14:46:49Z</time>
      </trkpt>
      <trkpt lat="49.94924" lon="2.15894">
        <ele>15.4</ele>
        <time>2022-04-11T14:46:50Z</time>
      </trkpt>
      <trkpt lat="49.94925" lon="2.15896">
        <ele>15.4</ele>
        <time>2022-04-11T14:46:51Z</time>
      </trkpt>
      <trkpt lat="49.94924" lon="2.15896">
        <ele>15.4</ele>
        <time>2022-04-11T14:46:52Z</time>
      </trkpt>
      <trkpt lat="49.94924" lon="2.15896">
        <ele>15.4</ele>
        <time>2022-04-11T14:46:54Z</time>
      </trkpt>
      <trkpt lat="49.94923" lon="2.15896">
        <ele>15.4</ele>
        <time>2022-04-11T14:46:55Z</time>
      </trkpt>
      <trkpt lat="49.94924" lon="2.15896">
        <ele>15.4</ele>
        <time>2022-04-11T14:46:56Z</time>
      </trkpt>
      <trkpt lat="49.94924" lon="2.15896">
        <ele>15.4</ele>
        <time>2022-04-11T14:46:57Z</time>
      </trkpt>
      <trkpt lat="49.94925" lon="2.15897">
        <ele>15.4</ele>
        <time>2022-04-11T14:46:58Z</time>
      </trkpt>
      <trkpt lat="49.94926" lon="2.15897">
        <ele>15.5</ele>
        <time>2022-04-11T14:46:59Z</time>
      </trkpt>
      <trkpt lat="49.94926" lon="2.15897">
        <ele>15.5</ele>
        <time>2022-04-11T14:47:00Z</time>
      </trkpt>
      <trkpt lat="49.94926" lon="2.15896">
        <ele>15.5</ele>
        <time>2022-04-11T14:47:01Z</time>
      </trkpt>
      <trkpt lat="49.94925" lon="2.15896">
        <ele>15.5</ele>
        <time>2022-04-11T14:47:02Z</time>
      </trkpt>
      <trkpt lat="49.94924" lon="2.15896">
        <ele>15.5</ele>
        <time>2022-04-11T14:47:03Z</time>
      </trkpt>
      <trkpt lat="49.94923" lon="2.15896">
        <ele>15.5</ele>
        <time>2022-04-11T14:47:04Z</time>
      </trkpt>
      <trkpt lat="49.94922" lon="2.15896">
        <ele>15.5</ele>
        <time>2022-04-11T14:47:06Z</time>
      </trkpt>
      <trkpt lat="49.94921" lon="2.15896">
        <ele>15.5</ele>
        <time>2022-04-11T14:47:07Z</time>
      </trkpt>
      <trkpt lat="49.9492" lon="2.15895">
        <ele>15.5</ele>
        <time>2022-04-11T14:47:08Z</time>
      </trkpt>
      <trkpt lat="49.94919" lon="2.15894">
        <ele>15.5</ele>
        <time>2022-04-11T14:47:09Z</time>
      </trkpt>
      <trkpt lat="49.94918" lon="2.15894">
        <ele>15.5</ele>
        <time>2022-04-11T14:47:10Z</time>
      </trkpt>
      <trkpt lat="49.94918" lon="2.15894">
        <ele>15.5</ele>
        <time>2022-04-11T14:47:12Z</time>
      </trkpt>
      <trkpt lat="49.94917" lon="2.15894">
        <ele>15.5</ele>
        <time>2022-04-11T14:47:13Z</time>
      </trkpt>
      <trkpt lat="49.94916" lon="2.15894">
        <ele>15.5</ele>
        <time>2022-04-11T14:47:14Z</time>
      </trkpt>
      <trkpt lat="49.94915" lon="2.15893">
        <ele>15.5</ele>
        <time>2022-04-11T14:47:15Z</time>
      </trkpt>
      <trkpt lat="49.94915" lon="2.15892">
        <ele>15.5</ele>
        <time>2022-04-11T14:47:16Z</time>
      </trkpt>
      <trkpt lat="49.94915" lon="2.15891">
        <ele>15.5</ele>
        <time>2022-04-11T14:47:17Z</time>
      </trkpt>
      <trkpt lat="49.94914" lon="2.15889">
        <ele>15.5</ele>
        <time>2022-04-11T14:47:18Z</time>
      </trkpt>
      <trkpt lat="49.94914" lon="2.15888">
        <ele>15.5</ele>
        <time>2022-04-11T14:47:19Z</time>
      </trkpt>
      <trkpt lat="49.94913" lon="2.15887">
        <ele>15.5</ele>
        <time>2022-04-11T14:47:20Z</time>
      </trkpt>
      <trkpt lat="49.94912" lon="2.15886">
        <ele>15.5</ele>
        <time>2022-04-11T14:47:21Z</time>
      </trkpt>
      <trkpt lat="49.9491" lon="2.15883">
        <ele>15.5</ele>
        <time>2022-04-11T14:47:22Z</time>
      </trkpt>
      <trkpt lat="49.94909" lon="2.15881">
        <ele>15.5</ele>
        <time>2022-04-11T14:47:24Z</time>
      </trkpt>
      <trkpt lat="49.94908" lon="2.1588">
        <ele>15.5</ele>
        <time>2022-04-11T14:47:25Z</time>
      </trkpt>
      <trkpt lat="49.94907" lon="2.15878">
        <ele>15.5</ele>
        <time>2022-04-11T14:47:26Z</time>
      </trkpt>
      <trkpt lat="49.94904" lon="2.15876">
        <ele>15.5</ele>
        <time>2022-04-11T14:47:27Z</time>
      </trkpt>
      <trkpt lat="49.94904" lon="2.15875">
        <ele>15.5</ele>
        <time>2022-04-11T14:47:28Z</time>
      </trkpt>
      <trkpt lat="49.94902" lon="2.15874">
        <ele>15.5</ele>
        <time>2022-04-11T14:47:29Z</time>
      </trkpt>
      <trkpt lat="49.94901" lon="2.15873">
        <ele>15.5</ele>
        <time>2022-04-11T14:47:30Z</time>
      </trkpt>
      <trkpt lat="49.949" lon="2.15872">
        <ele>15.5</ele>
        <time>2022-04-11T14:47:31Z</time>
      </trkpt>
      <trkpt lat="49.94899" lon="2.15871">
        <ele>15.5</ele>
        <time>2022-04-11T14:47:32Z</time>
      </trkpt>
      <trkpt lat="49.94898" lon="2.1587">
        <ele>15.5</ele>
        <time>2022-04-11T14:47:34Z</time>
      </trkpt>
      <trkpt lat="49.94897" lon="2.15868">
        <ele>15.5</ele>
        <time>2022-04-11T14:47:35Z</time>
      </trkpt>
      <trkpt lat="49.94895" lon="2.15868">
        <ele>15.5</ele>
        <time>2022-04-11T14:47:36Z</time>
      </trkpt>
      <trkpt lat="49.94894" lon="2.15867">
        <ele>15.5</ele>
        <time>2022-04-11T14:47:37Z</time>
      </trkpt>
      <trkpt lat="49.94892" lon="2.15866">
        <ele>15.5</ele>
        <time>2022-04-11T14:47:38Z</time>
      </trkpt>
      <trkpt lat="49.9489" lon="2.15865">
        <ele>15.5</ele>
        <time>2022-04-11T14:47:39Z</time>
      </trkpt>
      <trkpt lat="49.94888" lon="2.15864">
        <ele>15.4</ele>
        <time>2022-04-11T14:47:40Z</time>
      </trkpt>
      <trkpt lat="49.94887" lon="2.15864">
        <ele>15.4</ele>
        <time>2022-04-11T14:47:41Z</time>
      </trkpt>
      <trkpt lat="49.94885" lon="2.15863">
        <ele>15.4</ele>
        <time>2022-04-11T14:47:42Z</time>
      </trkpt>
      <trkpt lat="49.94883" lon="2.15862">
        <ele>15.4</ele>
        <time>2022-04-11T14:47:43Z</time>
      </trkpt>
      <trkpt lat="49.94882" lon="2.15861">
        <ele>15.4</ele>
        <time>2022-04-11T14:47:44Z</time>
      </trkpt>
      <trkpt lat="49.94881" lon="2.1586">
        <ele>15.4</ele>
        <time>2022-04-11T14:47:45Z</time>
      </trkpt>
      <trkpt lat="49.94879" lon="2.15859">
        <ele>15.4</ele>
        <time>2022-04-11T14:47:47Z</time>
      </trkpt>
      <trkpt lat="49.94878" lon="2.15859">
        <ele>15.4</ele>
        <time>2022-04-11T14:47:48Z</time>
      </trkpt>
      <trkpt lat="49.94877" lon="2.15858">
        <ele>15.4</ele>
        <time>2022-04-11T14:47:49Z</time>
      </trkpt>
      <trkpt lat="49.94876" lon="2.15858">
        <ele>15.4</ele>
        <time>2022-04-11T14:47:50Z</time>
      </trkpt>
      <trkpt lat="49.94875" lon="2.15858">
        <ele>15.4</ele>
        <time>2022-04-11T14:47:51Z</time>
      </trkpt>
      <trkpt lat="49.94874" lon="2.15858">
        <ele>15.4</ele>
        <time>2022-04-11T14:47:52Z</time>
      </trkpt>
      <trkpt lat="49.94873" lon="2.15858">
        <ele>15.4</ele>
        <time>2022-04-11T14:47:53Z</time>
      </trkpt>
      <trkpt lat="49.94872" lon="2.15858">
        <ele>15.4</ele>
        <time>2022-04-11T14:47:54Z</time>
      </trkpt>
      <trkpt lat="49.94871" lon="2.15858">
        <ele>15.4</ele>
        <time>2022-04-11T14:47:55Z</time>
      </trkpt>
      <trkpt lat="49.9487" lon="2.15858">
        <ele>15.4</ele>
        <time>2022-04-11T14:47:56Z</time>
      </trkpt>
      <trkpt lat="49.94869" lon="2.15857">
        <ele>15.5</ele>
        <time>2022-04-11T14:47:58Z</time>
      </trkpt>
      <trkpt lat="49.94868" lon="2.15858">
        <ele>15.5</ele>
        <time>2022-04-11T14:47:59Z</time>
      </trkpt>
      <trkpt lat="49.94867" lon="2.15858">
        <ele>15.5</ele>
        <time>2022-04-11T14:48:00Z</time>
      </trkpt>
      <trkpt lat="49.94866" lon="2.15858">
        <ele>15.5</ele>
        <time>2022-04-11T14:48:01Z</time>
      </trkpt>
      <trkpt lat="49.94866" lon="2.15859">
        <ele>15.5</ele>
        <time>2022-04-11T14:48:02Z</time>
      </trkpt>
      <trkpt lat="49.94866" lon="2.1586">
        <ele>15.5</ele>
        <time>2022-04-11T14:48:03Z</time>
      </trkpt>
      <trkpt lat="49.94864" lon="2.15859">
        <ele>15.5</ele>
        <time>2022-04-11T14:48:04Z</time>
      </trkpt>
      <trkpt lat="49.94862" lon="2.15859">
        <ele>15.5</ele>
        <time>2022-04-11T14:48:06Z</time>
      </trkpt>
      <trkpt lat="49.94862" lon="2.15859">
        <ele>15.5</ele>
        <time>2022-04-11T14:48:07Z</time>
      </trkpt>
      <trkpt lat="49.9486" lon="2.15859">
        <ele>15.5</ele>
        <time>2022-04-11T14:48:08Z</time>
      </trkpt>
      <trkpt lat="49.94859" lon="2.15859">
        <ele>15.5</ele>
        <time>2022-04-11T14:48:09Z</time>
      </trkpt>
      <trkpt lat="49.94859" lon="2.15859">
        <ele>15.5</ele>
        <time>2022-04-11T14:48:10Z</time>
      </trkpt>
      <trkpt lat="49.94858" lon="2.15859">
        <ele>15.5</ele>
        <time>2022-04-11T14:48:11Z</time>
      </trkpt>
      <trkpt lat="49.94856" lon="2.15858">
        <ele>15.5</ele>
        <time>2022-04-11T14:48:12Z</time>
      </trkpt>
      <trkpt lat="49.94854" lon="2.15857">
        <ele>15.5</ele>
        <time>2022-04-11T14:48:14Z</time>
      </trkpt>
      <trkpt lat="49.94852" lon="2.15856">
        <ele>15.5</ele>
        <time>2022-04-11T14:48:15Z</time>
      </trkpt>
      <trkpt lat="49.9485" lon="2.15856">
        <ele>15.5</ele>
        <time>2022-04-11T14:48:16Z</time>
      </trkpt>
      <trkpt lat="49.94849" lon="2.15855">
        <ele>15.5</ele>
        <time>2022-04-11T14:48:17Z</time>
      </trkpt>
      <trkpt lat="49.94848" lon="2.15855">
        <ele>15.5</ele>
        <time>2022-04-11T14:48:18Z</time>
      </trkpt>
      <trkpt lat="49.94847" lon="2.15854">
        <ele>15.5</ele>
        <time>2022-04-11T14:48:19Z</time>
      </trkpt>
      <trkpt lat="49.94845" lon="2.15853">
        <ele>15.5</ele>
        <time>2022-04-11T14:48:20Z</time>
      </trkpt>
      <trkpt lat="49.94844" lon="2.15852">
        <ele>15.5</ele>
        <time>2022-04-11T14:48:21Z</time>
      </trkpt>
      <trkpt lat="49.94843" lon="2.15852">
        <ele>15.5</ele>
        <time>2022-04-11T14:48:22Z</time>
      </trkpt>
      <trkpt lat="49.94841" lon="2.1585">
        <ele>15.5</ele>
        <time>2022-04-11T14:48:23Z</time>
      </trkpt>
      <trkpt lat="49.94841" lon="2.1585">
        <ele>15.5</ele>
        <time>2022-04-11T14:48:25Z</time>
      </trkpt>
      <trkpt lat="49.9484" lon="2.1585">
        <ele>15.5</ele>
        <time>2022-04-11T14:48:26Z</time>
      </trkpt>
      <trkpt lat="49.94838" lon="2.15848">
        <ele>15.5</ele>
        <time>2022-04-11T14:48:27Z</time>
      </trkpt>
      <trkpt lat="49.94837" lon="2.15848">
        <ele>15.5</ele>
        <time>2022-04-11T14:48:28Z</time>
      </trkpt>
      <trkpt lat="49.94836" lon="2.15847">
        <ele>15.5</ele>
        <time>2022-04-11T14:48:29Z</time>
      </trkpt>
      <trkpt lat="49.94835" lon="2.15846">
        <ele>15.5</ele>
        <time>2022-04-11T14:48:30Z</time>
      </trkpt>
      <trkpt lat="49.94834" lon="2.15845">
        <ele>15.5</ele>
        <time>2022-04-11T14:48:31Z</time>
      </trkpt>
      <trkpt lat="49.94834" lon="2.15843">
        <ele>15.5</ele>
        <time>2022-04-11T14:48:33Z</time>
      </trkpt>
      <trkpt lat="49.94833" lon="2.15842">
        <ele>15.5</ele>
        <time>2022-04-11T14:48:34Z</time>
      </trkpt>
      <trkpt lat="49.94832" lon="2.15841">
        <ele>15.5</ele>
        <time>2022-04-11T14:48:35Z</time>
      </trkpt>
      <trkpt lat="49.94831" lon="2.15839">
        <ele>15.5</ele>
        <time>2022-04-11T14:48:36Z</time>
      </trkpt>
      <trkpt lat="49.94831" lon="2.15838">
        <ele>15.5</ele>
        <time>2022-04-11T14:48:37Z</time>
      </trkpt>
      <trkpt lat="49.9483" lon="2.15837">
        <ele>15.5</ele>
        <time>2022-04-11T14:48:38Z</time>
      </trkpt>
      <trkpt lat="49.9483" lon="2.15836">
        <ele>15.5</ele>
        <time>2022-04-11T14:48:39Z</time>
      </trkpt>
      <trkpt lat="49.94828" lon="2.15833">
        <ele>15.5</ele>
        <time>2022-04-11T14:48:40Z</time>
      </trkpt>
      <trkpt lat="49.94827" lon="2.15832">
        <ele>15.5</ele>
        <time>2022-04-11T14:48:41Z</time>
      </trkpt>
      <trkpt lat="49.94827" lon="2.15831">
        <ele>15.5</ele>
        <time>2022-04-11T14:48:42Z</time>
      </trkpt>
      <trkpt lat="49.94826" lon="2.15829">
        <ele>15.5</ele>
        <time>2022-04-11T14:48:44Z</time>
      </trkpt>
      <trkpt lat="49.94825" lon="2.15828">
        <ele>15.6</ele>
        <time>2022-04-11T14:48:45Z</time>
      </trkpt>
      <trkpt lat="49.94824" lon="2.15827">
        <ele>15.6</ele>
        <time>2022-04-11T14:48:46Z</time>
      </trkpt>
      <trkpt lat="49.94823" lon="2.15825">
        <ele>15.6</ele>
        <time>2022-04-11T14:48:47Z</time>
      </trkpt>
      <trkpt lat="49.94821" lon="2.15822">
        <ele>15.6</ele>
        <time>2022-04-11T14:48:48Z</time>
      </trkpt>
      <trkpt lat="49.94821" lon="2.15821">
        <ele>15.6</ele>
        <time>2022-04-11T14:48:49Z</time>
      </trkpt>
      <trkpt lat="49.9482" lon="2.1582">
        <ele>15.6</ele>
        <time>2022-04-11T14:48:50Z</time>
      </trkpt>
      <trkpt lat="49.9482" lon="2.15818">
        <ele>15.6</ele>
        <time>2022-04-11T14:48:51Z</time>
      </trkpt>
      <trkpt lat="49.94819" lon="2.15816">
        <ele>15.6</ele>
        <time>2022-04-11T14:48:52Z</time>
      </trkpt>
      <trkpt lat="49.94818" lon="2.15814">
        <ele>15.5</ele>
        <time>2022-04-11T14:48:54Z</time>
      </trkpt>
      <trkpt lat="49.94818" lon="2.15812">
        <ele>15.5</ele>
        <time>2022-04-11T14:48:55Z</time>
      </trkpt>
      <trkpt lat="49.94817" lon="2.1581">
        <ele>15.5</ele>
        <time>2022-04-11T14:48:56Z</time>
      </trkpt>
      <trkpt lat="49.94816" lon="2.15808">
        <ele>15.5</ele>
        <time>2022-04-11T14:48:57Z</time>
      </trkpt>
      <trkpt lat="49.94815" lon="2.15803">
        <ele>15.5</ele>
        <time>2022-04-11T14:48:59Z</time>
      </trkpt>
      <trkpt lat="49.94815" lon="2.15802">
        <ele>15.5</ele>
        <time>2022-04-11T14:49:00Z</time>
      </trkpt>
      <trkpt lat="49.94814" lon="2.15799">
        <ele>15.5</ele>
        <time>2022-04-11T14:49:01Z</time>
      </trkpt>
      <trkpt lat="49.94813" lon="2.15798">
        <ele>15.5</ele>
        <time>2022-04-11T14:49:02Z</time>
      </trkpt>
      <trkpt lat="49.94813" lon="2.15796">
        <ele>15.5</ele>
        <time>2022-04-11T14:49:03Z</time>
      </trkpt>
      <trkpt lat="49.94812" lon="2.15794">
        <ele>15.5</ele>
        <time>2022-04-11T14:49:04Z</time>
      </trkpt>
      <trkpt lat="49.94812" lon="2.15792">
        <ele>15.5</ele>
        <time>2022-04-11T14:49:05Z</time>
      </trkpt>
      <trkpt lat="49.94811" lon="2.1579">
        <ele>15.5</ele>
        <time>2022-04-11T14:49:06Z</time>
      </trkpt>
      <trkpt lat="49.9481" lon="2.15788">
        <ele>15.4</ele>
        <time>2022-04-11T14:49:07Z</time>
      </trkpt>
      <trkpt lat="49.94808" lon="2.15783">
        <ele>15.4</ele>
        <time>2022-04-11T14:49:09Z</time>
      </trkpt>
      <trkpt lat="49.94808" lon="2.15782">
        <ele>15.4</ele>
        <time>2022-04-11T14:49:10Z</time>
      </trkpt>
      <trkpt lat="49.94807" lon="2.15779">
        <ele>15.4</ele>
        <time>2022-04-11T14:49:11Z</time>
      </trkpt>
      <trkpt lat="49.94806" lon="2.15777">
        <ele>15.4</ele>
        <time>2022-04-11T14:49:12Z</time>
      </trkpt>
      <trkpt lat="49.94806" lon="2.15775">
        <ele>15.4</ele>
        <time>2022-04-11T14:49:13Z</time>
      </trkpt>
      <trkpt lat="49.94805" lon="2.15773">
        <ele>15.4</ele>
        <time>2022-04-11T14:49:14Z</time>
      </trkpt>
      <trkpt lat="49.94804" lon="2.1577">
        <ele>15.4</ele>
        <time>2022-04-11T14:49:15Z</time>
      </trkpt>
      <trkpt lat="49.94804" lon="2.15768">
        <ele>15.4</ele>
        <time>2022-04-11T14:49:16Z</time>
      </trkpt>
      <trkpt lat="49.94803" lon="2.15765">
        <ele>15.4</ele>
        <time>2022-04-11T14:49:17Z</time>
      </trkpt>
      <trkpt lat="49.94803" lon="2.15763">
        <ele>15.4</ele>
        <time>2022-04-11T14:49:19Z</time>
      </trkpt>
      <trkpt lat="49.94803" lon="2.15762">
        <ele>15.4</ele>
        <time>2022-04-11T14:49:20Z</time>
      </trkpt>
      <trkpt lat="49.94803" lon="2.1576">
        <ele>15.4</ele>
        <time>2022-04-11T14:49:21Z</time>
      </trkpt>
      <trkpt lat="49.94803" lon="2.15758">
        <ele>15.4</ele>
        <time>2022-04-11T14:49:22Z</time>
      </trkpt>
      <trkpt lat="49.94803" lon="2.15755">
        <ele>15.4</ele>
        <time>2022-04-11T14:49:23Z</time>
      </trkpt>
      <trkpt lat="49.94803" lon="2.15754">
        <ele>15.4</ele>
        <time>2022-04-11T14:49:24Z</time>
      </trkpt>
      <trkpt lat="49.94804" lon="2.15753">
        <ele>15.4</ele>
        <time>2022-04-11T14:49:25Z</time>
      </trkpt>
      <trkpt lat="49.94804" lon="2.15751">
        <ele>15.4</ele>
        <time>2022-04-11T14:49:26Z</time>
      </trkpt>
      <trkpt lat="49.94804" lon="2.15748">
        <ele>15.4</ele>
        <time>2022-04-11T14:49:27Z</time>
      </trkpt>
      <trkpt lat="49.94804" lon="2.15746">
        <ele>15.4</ele>
        <time>2022-04-11T14:49:28Z</time>
      </trkpt>
      <trkpt lat="49.94804" lon="2.15744">
        <ele>15.4</ele>
        <time>2022-04-11T14:49:29Z</time>
      </trkpt>
      <trkpt lat="49.94804" lon="2.15741">
        <ele>15.4</ele>
        <time>2022-04-11T14:49:31Z</time>
      </trkpt>
      <trkpt lat="49.94804" lon="2.15738">
        <ele>15.4</ele>
        <time>2022-04-11T14:49:32Z</time>
      </trkpt>
      <trkpt lat="49.94805" lon="2.15737">
        <ele>15.4</ele>
        <time>2022-04-11T14:49:33Z</time>
      </trkpt>
      <trkpt lat="49.94805" lon="2.15736">
        <ele>15.4</ele>
        <time>2022-04-11T14:49:34Z</time>
      </trkpt>
      <trkpt lat="49.94805" lon="2.15734">
        <ele>15.4</ele>
        <time>2022-04-11T14:49:35Z</time>
      </trkpt>
      <trkpt lat="49.94805" lon="2.15732">
        <ele>15.4</ele>
        <time>2022-04-11T14:49:36Z</time>
      </trkpt>
      <trkpt lat="49.94806" lon="2.15729">
        <ele>15.4</ele>
        <time>2022-04-11T14:49:37Z</time>
      </trkpt>
      <trkpt lat="49.94806" lon="2.15727">
        <ele>15.4</ele>
        <time>2022-04-11T14:49:38Z</time>
      </trkpt>
      <trkpt lat="49.94806" lon="2.15725">
        <ele>15.4</ele>
        <time>2022-04-11T14:49:39Z</time>
      </trkpt>
      <trkpt lat="49.94807" lon="2.15723">
        <ele>15.4</ele>
        <time>2022-04-11T14:49:41Z</time>
      </trkpt>
      <trkpt lat="49.94807" lon="2.15721">
        <ele>15.4</ele>
        <time>2022-04-11T14:49:42Z</time>
      </trkpt>
      <trkpt lat="49.94808" lon="2.15719">
        <ele>15.4</ele>
        <time>2022-04-11T14:49:43Z</time>
      </trkpt>
      <trkpt lat="49.94808" lon="2.15718">
        <ele>15.4</ele>
        <time>2022-04-11T14:49:44Z</time>
      </trkpt>
      <trkpt lat="49.94809" lon="2.15716">
        <ele>15.4</ele>
        <time>2022-04-11T14:49:45Z</time>
      </trkpt>
      <trkpt lat="49.94809" lon="2.15714">
        <ele>15.4</ele>
        <time>2022-04-11T14:49:46Z</time>
      </trkpt>
      <trkpt lat="49.9481" lon="2.15712">
        <ele>15.3</ele>
        <time>2022-04-11T14:49:47Z</time>
      </trkpt>
      <trkpt lat="49.9481" lon="2.1571">
        <ele>15.3</ele>
        <time>2022-04-11T14:49:48Z</time>
      </trkpt>
      <trkpt lat="49.94811" lon="2.15708">
        <ele>15.3</ele>
        <time>2022-04-11T14:49:50Z</time>
      </trkpt>
      <trkpt lat="49.94812" lon="2.15705">
        <ele>15.3</ele>
        <time>2022-04-11T14:49:51Z</time>
      </trkpt>
      <trkpt lat="49.94812" lon="2.15704">
        <ele>15.3</ele>
        <time>2022-04-11T14:49:52Z</time>
      </trkpt>
      <trkpt lat="49.94813" lon="2.15702">
        <ele>15.3</ele>
        <time>2022-04-11T14:49:53Z</time>
      </trkpt>
      <trkpt lat="49.94814" lon="2.15699">
        <ele>15.3</ele>
        <time>2022-04-11T14:49:54Z</time>
      </trkpt>
      <trkpt lat="49.94814" lon="2.15698">
        <ele>15.3</ele>
        <time>2022-04-11T14:49:55Z</time>
      </trkpt>
      <trkpt lat="49.94814" lon="2.15697">
        <ele>15.3</ele>
        <time>2022-04-11T14:49:56Z</time>
      </trkpt>
      <trkpt lat="49.94815" lon="2.15695">
        <ele>15.3</ele>
        <time>2022-04-11T14:49:57Z</time>
      </trkpt>
      <trkpt lat="49.94815" lon="2.15694">
        <ele>15.3</ele>
        <time>2022-04-11T14:49:58Z</time>
      </trkpt>
      <trkpt lat="49.94816" lon="2.15692">
        <ele>15.3</ele>
        <time>2022-04-11T14:49:59Z</time>
      </trkpt>
      <trkpt lat="49.94817" lon="2.1569">
        <ele>15.3</ele>
        <time>2022-04-11T14:50:01Z</time>
      </trkpt>
      <trkpt lat="49.94817" lon="2.15688">
        <ele>15.3</ele>
        <time>2022-04-11T14:50:02Z</time>
      </trkpt>
      <trkpt lat="49.94818" lon="2.15687">
        <ele>15.3</ele>
        <time>2022-04-11T14:50:03Z</time>
      </trkpt>
      <trkpt lat="49.94818" lon="2.15686">
        <ele>15.3</ele>
        <time>2022-04-11T14:50:04Z</time>
      </trkpt>
      <trkpt lat="49.94819" lon="2.15684">
        <ele>15.3</ele>
        <time>2022-04-11T14:50:05Z</time>
      </trkpt>
      <trkpt lat="49.9482" lon="2.15681">
        <ele>15.3</ele>
        <time>2022-04-11T14:50:06Z</time>
      </trkpt>
      <trkpt lat="49.9482" lon="2.1568">
        <ele>15.3</ele>
        <time>2022-04-11T14:50:08Z</time>
      </trkpt>
      <trkpt lat="49.94821" lon="2.15679">
        <ele>15.3</ele>
        <time>2022-04-11T14:50:09Z</time>
      </trkpt>
      <trkpt lat="49.94822" lon="2.15676">
        <ele>15.3</ele>
        <time>2022-04-11T14:50:10Z</time>
      </trkpt>
      <trkpt lat="49.94822" lon="2.15675">
        <ele>15.3</ele>
        <time>2022-04-11T14:50:11Z</time>
      </trkpt>
      <trkpt lat="49.94823" lon="2.15674">
        <ele>15.3</ele>
        <time>2022-04-11T14:50:12Z</time>
      </trkpt>
      <trkpt lat="49.94824" lon="2.15673">
        <ele>15.3</ele>
        <time>2022-04-11T14:50:13Z</time>
      </trkpt>
      <trkpt lat="49.94824" lon="2.15672">
        <ele>15.3</ele>
        <time>2022-04-11T14:50:14Z</time>
      </trkpt>
      <trkpt lat="49.94825" lon="2.1567">
        <ele>15.3</ele>
        <time>2022-04-11T14:50:15Z</time>
      </trkpt>
      <trkpt lat="49.94826" lon="2.15668">
        <ele>15.3</ele>
        <time>2022-04-11T14:50:16Z</time>
      </trkpt>
      <trkpt lat="49.94826" lon="2.15667">
        <ele>15.3</ele>
        <time>2022-04-11T14:50:17Z</time>
      </trkpt>
      <trkpt lat="49.94827" lon="2.15665">
        <ele>15.3</ele>
        <time>2022-04-11T14:50:18Z</time>
      </trkpt>
      <trkpt lat="49.94828" lon="2.15663">
        <ele>15.3</ele>
        <time>2022-04-11T14:50:19Z</time>
      </trkpt>
      <trkpt lat="49.94829" lon="2.15661">
        <ele>15.3</ele>
        <time>2022-04-11T14:50:21Z</time>
      </trkpt>
      <trkpt lat="49.9483" lon="2.1566">
        <ele>15.3</ele>
        <time>2022-04-11T14:50:22Z</time>
      </trkpt>
      <trkpt lat="49.94831" lon="2.15657">
        <ele>15.3</ele>
        <time>2022-04-11T14:50:23Z</time>
      </trkpt>
      <trkpt lat="49.94832" lon="2.15656">
        <ele>15.3</ele>
        <time>2022-04-11T14:50:24Z</time>
      </trkpt>
      <trkpt lat="49.94832" lon="2.15655">
        <ele>15.3</ele>
        <time>2022-04-11T14:50:25Z</time>
      </trkpt>
      <trkpt lat="49.94833" lon="2.15653">
        <ele>15.3</ele>
        <time>2022-04-11T14:50:26Z</time>
      </trkpt>
      <trkpt lat="49.94834" lon="2.1565">
        <ele>15.3</ele>
        <time>2022-04-11T14:50:28Z</time>
      </trkpt>
      <trkpt lat="49.94834" lon="2.15649">
        <ele>15.3</ele>
        <time>2022-04-11T14:50:29Z</time>
      </trkpt>
      <trkpt lat="49.94834" lon="2.15647">
        <ele>15.3</ele>
        <time>2022-04-11T14:50:30Z</time>
      </trkpt>
      <trkpt lat="49.94835" lon="2.15646">
        <ele>15.3</ele>
        <time>2022-04-11T14:50:31Z</time>
      </trkpt>
      <trkpt lat="49.94836" lon="2.15644">
        <ele>15.3</ele>
        <time>2022-04-11T14:50:32Z</time>
      </trkpt>
      <trkpt lat="49.94836" lon="2.15642">
        <ele>15.3</ele>
        <time>2022-04-11T14:50:33Z</time>
      </trkpt>
      <trkpt lat="49.94837" lon="2.15639">
        <ele>15.3</ele>
        <time>2022-04-11T14:50:35Z</time>
      </trkpt>
      <trkpt lat="49.94838" lon="2.15638">
        <ele>15.3</ele>
        <time>2022-04-11T14:50:36Z</time>
      </trkpt>
      <trkpt lat="49.94839" lon="2.15636">
        <ele>15.3</ele>
        <time>2022-04-11T14:50:37Z</time>
      </trkpt>
      <trkpt lat="49.94839" lon="2.15636">
        <ele>15.3</ele>
        <time>2022-04-11T14:50:38Z</time>
      </trkpt>
      <trkpt lat="49.9484" lon="2.15635">
        <ele>15.3</ele>
        <time>2022-04-11T14:50:39Z</time>
      </trkpt>
      <trkpt lat="49.94841" lon="2.15634">
        <ele>15.3</ele>
        <time>2022-04-11T14:50:40Z</time>
      </trkpt>
      <trkpt lat="49.94842" lon="2.15632">
        <ele>15.3</ele>
        <time>2022-04-11T14:50:41Z</time>
      </trkpt>
      <trkpt lat="49.94842" lon="2.15631">
        <ele>15.3</ele>
        <time>2022-04-11T14:50:42Z</time>
      </trkpt>
      <trkpt lat="49.94843" lon="2.15629">
        <ele>15.3</ele>
        <time>2022-04-11T14:50:43Z</time>
      </trkpt>
      <trkpt lat="49.94843" lon="2.15627">
        <ele>15.3</ele>
        <time>2022-04-11T14:50:44Z</time>
      </trkpt>
      <trkpt lat="49.94844" lon="2.15624">
        <ele>15.3</ele>
        <time>2022-04-11T14:50:45Z</time>
      </trkpt>
      <trkpt lat="49.94845" lon="2.15623">
        <ele>15.3</ele>
        <time>2022-04-11T14:50:47Z</time>
      </trkpt>
      <trkpt lat="49.94845" lon="2.15622">
        <ele>15.3</ele>
        <time>2022-04-11T14:50:48Z</time>
      </trkpt>
      <trkpt lat="49.94846" lon="2.15621">
        <ele>15.3</ele>
        <time>2022-04-11T14:50:49Z</time>
      </trkpt>
      <trkpt lat="49.94846" lon="2.15619">
        <ele>15.3</ele>
        <time>2022-04-11T14:50:50Z</time>
      </trkpt>
      <trkpt lat="49.94847" lon="2.15618">
        <ele>15.3</ele>
        <time>2022-04-11T14:50:51Z</time>
      </trkpt>
      <trkpt lat="49.94847" lon="2.15617">
        <ele>15.3</ele>
        <time>2022-04-11T14:50:52Z</time>
      </trkpt>
      <trkpt lat="49.94847" lon="2.15615">
        <ele>15.3</ele>
        <time>2022-04-11T14:50:53Z</time>
      </trkpt>
      <trkpt lat="49.94848" lon="2.15613">
        <ele>15.3</ele>
        <time>2022-04-11T14:50:54Z</time>
      </trkpt>
      <trkpt lat="49.94849" lon="2.1561">
        <ele>15.3</ele>
        <time>2022-04-11T14:50:55Z</time>
      </trkpt>
      <trkpt lat="49.94849" lon="2.15609">
        <ele>15.3</ele>
        <time>2022-04-11T14:50:56Z</time>
      </trkpt>
      <trkpt lat="49.94849" lon="2.15608">
        <ele>15.3</ele>
        <time>2022-04-11T14:50:57Z</time>
      </trkpt>
      <trkpt lat="49.9485" lon="2.15604">
        <ele>15.3</ele>
        <time>2022-04-11T14:50:58Z</time>
      </trkpt>
      <trkpt lat="49.9485" lon="2.15602">
        <ele>15.3</ele>
        <time>2022-04-11T14:51:00Z</time>
      </trkpt>
      <trkpt lat="49.9485" lon="2.15601">
        <ele>15.3</ele>
        <time>2022-04-11T14:51:01Z</time>
      </trkpt>
      <trkpt lat="49.9485" lon="2.15599">
        <ele>15.3</ele>
        <time>2022-04-11T14:51:02Z</time>
      </trkpt>
      <trkpt lat="49.9485" lon="2.15597">
        <ele>15.3</ele>
        <time>2022-04-11T14:51:03Z</time>
      </trkpt>
      <trkpt lat="49.9485" lon="2.15595">
        <ele>15.3</ele>
        <time>2022-04-11T14:51:04Z</time>
      </trkpt>
      <trkpt lat="49.9485" lon="2.15593">
        <ele>15.3</ele>
        <time>2022-04-11T14:51:05Z</time>
      </trkpt>
      <trkpt lat="49.9485" lon="2.15591">
        <ele>15.3</ele>
        <time>2022-04-11T14:51:06Z</time>
      </trkpt>
      <trkpt lat="49.9485" lon="2.15588">
        <ele>15.3</ele>
        <time>2022-04-11T14:51:08Z</time>
      </trkpt>
      <trkpt lat="49.9485" lon="2.15586">
        <ele>15.3</ele>
        <time>2022-04-11T14:51:09Z</time>
      </trkpt>
      <trkpt lat="49.9485" lon="2.15584">
        <ele>15.3</ele>
        <time>2022-04-11T14:51:10Z</time>
      </trkpt>
      <trkpt lat="49.9485" lon="2.15582">
        <ele>15.3</ele>
        <time>2022-04-11T14:51:11Z</time>
      </trkpt>
      <trkpt lat="49.9485" lon="2.1558">
        <ele>15.3</ele>
        <time>2022-04-11T14:51:12Z</time>
      </trkpt>
      <trkpt lat="49.9485" lon="2.15579">
        <ele>15.3</ele>
        <time>2022-04-11T14:51:13Z</time>
      </trkpt>
      <trkpt lat="49.9485" lon="2.15577">
        <ele>15.4</ele>
        <time>2022-04-11T14:51:14Z</time>
      </trkpt>
      <trkpt lat="49.9485" lon="2.15575">
        <ele>15.4</ele>
        <time>2022-04-11T14:51:15Z</time>
      </trkpt>
      <trkpt lat="49.94849" lon="2.15573">
        <ele>15.4</ele>
        <time>2022-04-11T14:51:16Z</time>
      </trkpt>
      <trkpt lat="49.94849" lon="2.15571">
        <ele>15.4</ele>
        <time>2022-04-11T14:51:17Z</time>
      </trkpt>
      <trkpt lat="49.94849" lon="2.15569">
        <ele>15.4</ele>
        <time>2022-04-11T14:51:18Z</time>
      </trkpt>
      <trkpt lat="49.94849" lon="2.15566">
        <ele>15.4</ele>
        <time>2022-04-11T14:51:19Z</time>
      </trkpt>
      <trkpt lat="49.94848" lon="2.15564">
        <ele>15.4</ele>
        <time>2022-04-11T14:51:20Z</time>
      </trkpt>
      <trkpt lat="49.94848" lon="2.15561">
        <ele>15.4</ele>
        <time>2022-04-11T14:51:21Z</time>
      </trkpt>
      <trkpt lat="49.94848" lon="2.1556">
        <ele>15.4</ele>
        <time>2022-04-11T14:51:22Z</time>
      </trkpt>
      <trkpt lat="49.94847" lon="2.15559">
        <ele>15.4</ele>
        <time>2022-04-11T14:51:23Z</time>
      </trkpt>
      <trkpt lat="49.94847" lon="2.15555">
        <ele>15.4</ele>
        <time>2022-04-11T14:51:24Z</time>
      </trkpt>
      <trkpt lat="49.94847" lon="2.15554">
        <ele>15.4</ele>
        <time>2022-04-11T14:51:26Z</time>
      </trkpt>
      <trkpt lat="49.94846" lon="2.15553">
        <ele>15.4</ele>
        <time>2022-04-11T14:51:27Z</time>
      </trkpt>
      <trkpt lat="49.94846" lon="2.15551">
        <ele>15.4</ele>
        <time>2022-04-11T14:51:28Z</time>
      </trkpt>
      <trkpt lat="49.94846" lon="2.15549">
        <ele>15.4</ele>
        <time>2022-04-11T14:51:29Z</time>
      </trkpt>
      <trkpt lat="49.94846" lon="2.15548">
        <ele>15.4</ele>
        <time>2022-04-11T14:51:30Z</time>
      </trkpt>
      <trkpt lat="49.94846" lon="2.15545">
        <ele>15.4</ele>
        <time>2022-04-11T14:51:31Z</time>
      </trkpt>
      <trkpt lat="49.94846" lon="2.15543">
        <ele>15.4</ele>
        <time>2022-04-11T14:51:32Z</time>
      </trkpt>
      <trkpt lat="49.94846" lon="2.15542">
        <ele>15.4</ele>
        <time>2022-04-11T14:51:33Z</time>
      </trkpt>
      <trkpt lat="49.94845" lon="2.1554">
        <ele>15.4</ele>
        <time>2022-04-11T14:51:35Z</time>
      </trkpt>
      <trkpt lat="49.94845" lon="2.15538">
        <ele>15.4</ele>
        <time>2022-04-11T14:51:36Z</time>
      </trkpt>
      <trkpt lat="49.94844" lon="2.15534">
        <ele>15.4</ele>
        <time>2022-04-11T14:51:37Z</time>
      </trkpt>
      <trkpt lat="49.94844" lon="2.15533">
        <ele>15.4</ele>
        <time>2022-04-11T14:51:38Z</time>
      </trkpt>
      <trkpt lat="49.94844" lon="2.15532">
        <ele>15.4</ele>
        <time>2022-04-11T14:51:39Z</time>
      </trkpt>
      <trkpt lat="49.94843" lon="2.1553">
        <ele>15.4</ele>
        <time>2022-04-11T14:51:40Z</time>
      </trkpt>
      <trkpt lat="49.94843" lon="2.15528">
        <ele>15.4</ele>
        <time>2022-04-11T14:51:41Z</time>
      </trkpt>
      <trkpt lat="49.94843" lon="2.15526">
        <ele>15.4</ele>
        <time>2022-04-11T14:51:42Z</time>
      </trkpt>
      <trkpt lat="49.94842" lon="2.15524">
        <ele>15.4</ele>
        <time>2022-04-11T14:51:43Z</time>
      </trkpt>
      <trkpt lat="49.94841" lon="2.1552">
        <ele>15.4</ele>
        <time>2022-04-11T14:51:44Z</time>
      </trkpt>
      <trkpt lat="49.94841" lon="2.15519">
        <ele>15.4</ele>
        <time>2022-04-11T14:51:46Z</time>
      </trkpt>
      <trkpt lat="49.9484" lon="2.15517">
        <ele>15.4</ele>
        <time>2022-04-11T14:51:47Z</time>
      </trkpt>
      <trkpt lat="49.9484" lon="2.15516">
        <ele>15.4</ele>
        <time>2022-04-11T14:51:48Z</time>
      </trkpt>
      <trkpt lat="49.94839" lon="2.15514">
        <ele>15.4</ele>
        <time>2022-04-11T14:51:49Z</time>
      </trkpt>
      <trkpt lat="49.94838" lon="2.15513">
        <ele>15.4</ele>
        <time>2022-04-11T14:51:50Z</time>
      </trkpt>
      <trkpt lat="49.94838" lon="2.15512">
        <ele>15.4</ele>
        <time>2022-04-11T14:51:51Z</time>
      </trkpt>
      <trkpt lat="49.94837" lon="2.15511">
        <ele>15.4</ele>
        <time>2022-04-11T14:51:52Z</time>
      </trkpt>
      <trkpt lat="49.94837" lon="2.15509">
        <ele>15.4</ele>
        <time>2022-04-11T14:51:53Z</time>
      </trkpt>
      <trkpt lat="49.94836" lon="2.15508">
        <ele>15.4</ele>
        <time>2022-04-11T14:51:54Z</time>
      </trkpt>
      <trkpt lat="49.94835" lon="2.15506">
        <ele>15.4</ele>
        <time>2022-04-11T14:51:55Z</time>
      </trkpt>
      <trkpt lat="49.94835" lon="2.15504">
        <ele>15.4</ele>
        <time>2022-04-11T14:51:56Z</time>
      </trkpt>
      <trkpt lat="49.94834" lon="2.15503">
        <ele>15.4</ele>
        <time>2022-04-11T14:51:57Z</time>
      </trkpt>
      <trkpt lat="49.94833" lon="2.15501">
        <ele>15.4</ele>
        <time>2022-04-11T14:51:59Z</time>
      </trkpt>
      <trkpt lat="49.94833" lon="2.155">
        <ele>15.4</ele>
        <time>2022-04-11T14:52:00Z</time>
      </trkpt>
      <trkpt lat="49.94833" lon="2.15498">
        <ele>15.4</ele>
        <time>2022-04-11T14:52:01Z</time>
      </trkpt>
      <trkpt lat="49.94832" lon="2.15497">
        <ele>15.4</ele>
        <time>2022-04-11T14:52:02Z</time>
      </trkpt>
      <trkpt lat="49.94832" lon="2.15496">
        <ele>15.4</ele>
        <time>2022-04-11T14:52:03Z</time>
      </trkpt>
      <trkpt lat="49.94831" lon="2.15494">
        <ele>15.4</ele>
        <time>2022-04-11T14:52:04Z</time>
      </trkpt>
      <trkpt lat="49.9483" lon="2.15493">
        <ele>15.4</ele>
        <time>2022-04-11T14:52:05Z</time>
      </trkpt>
      <trkpt lat="49.94829" lon="2.15492">
        <ele>15.4</ele>
        <time>2022-04-11T14:52:07Z</time>
      </trkpt>
      <trkpt lat="49.94829" lon="2.1549">
        <ele>15.4</ele>
        <time>2022-04-11T14:52:08Z</time>
      </trkpt>
      <trkpt lat="49.94828" lon="2.15489">
        <ele>15.4</ele>
        <time>2022-04-11T14:52:09Z</time>
      </trkpt>
      <trkpt lat="49.94827" lon="2.15487">
        <ele>15.4</ele>
        <time>2022-04-11T14:52:10Z</time>
      </trkpt>
      <trkpt lat="49.94827" lon="2.15486">
        <ele>15.4</ele>
        <time>2022-04-11T14:52:11Z</time>
      </trkpt>
      <trkpt lat="49.94826" lon="2.15485">
        <ele>15.4</ele>
        <time>2022-04-11T14:52:12Z</time>
      </trkpt>
      <trkpt lat="49.94826" lon="2.15483">
        <ele>15.4</ele>
        <time>2022-04-11T14:52:13Z</time>
      </trkpt>
      <trkpt lat="49.94825" lon="2.15482">
        <ele>15.5</ele>
        <time>2022-04-11T14:52:14Z</time>
      </trkpt>
      <trkpt lat="49.94825" lon="2.15481">
        <ele>15.5</ele>
        <time>2022-04-11T14:52:15Z</time>
      </trkpt>
      <trkpt lat="49.94824" lon="2.15479">
        <ele>15.5</ele>
        <time>2022-04-11T14:52:16Z</time>
      </trkpt>
      <trkpt lat="49.94824" lon="2.15478">
        <ele>15.5</ele>
        <time>2022-04-11T14:52:17Z</time>
      </trkpt>
      <trkpt lat="49.94823" lon="2.15477">
        <ele>15.5</ele>
        <time>2022-04-11T14:52:18Z</time>
      </trkpt>
      <trkpt lat="49.94822" lon="2.15475">
        <ele>15.5</ele>
        <time>2022-04-11T14:52:19Z</time>
      </trkpt>
      <trkpt lat="49.94822" lon="2.15474">
        <ele>15.5</ele>
        <time>2022-04-11T14:52:20Z</time>
      </trkpt>
      <trkpt lat="49.94821" lon="2.15473">
        <ele>15.5</ele>
        <time>2022-04-11T14:52:22Z</time>
      </trkpt>
      <trkpt lat="49.9482" lon="2.15472">
        <ele>15.5</ele>
        <time>2022-04-11T14:52:23Z</time>
      </trkpt>
      <trkpt lat="49.94819" lon="2.1547">
        <ele>15.5</ele>
        <time>2022-04-11T14:52:24Z</time>
      </trkpt>
      <trkpt lat="49.94818" lon="2.15469">
        <ele>15.5</ele>
        <time>2022-04-11T14:52:25Z</time>
      </trkpt>
      <trkpt lat="49.94818" lon="2.15468">
        <ele>15.5</ele>
        <time>2022-04-11T14:52:26Z</time>
      </trkpt>
      <trkpt lat="49.94817" lon="2.15466">
        <ele>15.5</ele>
        <time>2022-04-11T14:52:27Z</time>
      </trkpt>
      <trkpt lat="49.94816" lon="2.15465">
        <ele>15.5</ele>
        <time>2022-04-11T14:52:28Z</time>
      </trkpt>
      <trkpt lat="49.94816" lon="2.15464">
        <ele>15.5</ele>
        <time>2022-04-11T14:52:29Z</time>
      </trkpt>
      <trkpt lat="49.94815" lon="2.15464">
        <ele>15.5</ele>
        <time>2022-04-11T14:52:30Z</time>
      </trkpt>
      <trkpt lat="49.94814" lon="2.15462">
        <ele>15.5</ele>
        <time>2022-04-11T14:52:31Z</time>
      </trkpt>
      <trkpt lat="49.94812" lon="2.1546">
        <ele>15.5</ele>
        <time>2022-04-11T14:52:32Z</time>
      </trkpt>
      <trkpt lat="49.94811" lon="2.15458">
        <ele>15.5</ele>
        <time>2022-04-11T14:52:34Z</time>
      </trkpt>
      <trkpt lat="49.9481" lon="2.15457">
        <ele>15.5</ele>
        <time>2022-04-11T14:52:35Z</time>
      </trkpt>
      <trkpt lat="49.9481" lon="2.15456">
        <ele>15.5</ele>
        <time>2022-04-11T14:52:36Z</time>
      </trkpt>
      <trkpt lat="49.94809" lon="2.15455">
        <ele>15.5</ele>
        <time>2022-04-11T14:52:37Z</time>
      </trkpt>
      <trkpt lat="49.94808" lon="2.15453">
        <ele>15.5</ele>
        <time>2022-04-11T14:52:38Z</time>
      </trkpt>
      <trkpt lat="49.94807" lon="2.15451">
        <ele>15.5</ele>
        <time>2022-04-11T14:52:39Z</time>
      </trkpt>
      <trkpt lat="49.94806" lon="2.1545">
        <ele>15.5</ele>
        <time>2022-04-11T14:52:41Z</time>
      </trkpt>
      <trkpt lat="49.94805" lon="2.15448">
        <ele>15.5</ele>
        <time>2022-04-11T14:52:42Z</time>
      </trkpt>
      <trkpt lat="49.94804" lon="2.15446">
        <ele>15.5</ele>
        <time>2022-04-11T14:52:43Z</time>
      </trkpt>
      <trkpt lat="49.94803" lon="2.15445">
        <ele>15.5</ele>
        <time>2022-04-11T14:52:44Z</time>
      </trkpt>
      <trkpt lat="49.94802" lon="2.15445">
        <ele>15.5</ele>
        <time>2022-04-11T14:52:45Z</time>
      </trkpt>
      <trkpt lat="49.94801" lon="2.15442">
        <ele>15.5</ele>
        <time>2022-04-11T14:52:46Z</time>
      </trkpt>
      <trkpt lat="49.948" lon="2.15441">
        <ele>15.5</ele>
        <time>2022-04-11T14:52:47Z</time>
      </trkpt>
      <trkpt lat="49.94799" lon="2.15441">
        <ele>15.5</ele>
        <time>2022-04-11T14:52:48Z</time>
      </trkpt>
      <trkpt lat="49.94798" lon="2.15438">
        <ele>15.5</ele>
        <time>2022-04-11T14:52:50Z</time>
      </trkpt>
      <trkpt lat="49.94797" lon="2.15437">
        <ele>15.5</ele>
        <time>2022-04-11T14:52:51Z</time>
      </trkpt>
      <trkpt lat="49.94797" lon="2.15436">
        <ele>15.5</ele>
        <time>2022-04-11T14:52:52Z</time>
      </trkpt>
      <trkpt lat="49.94795" lon="2.15434">
        <ele>15.4</ele>
        <time>2022-04-11T14:52:53Z</time>
      </trkpt>
      <trkpt lat="49.94795" lon="2.15433">
        <ele>15.4</ele>
        <time>2022-04-11T14:52:54Z</time>
      </trkpt>
      <trkpt lat="49.94794" lon="2.15432">
        <ele>15.4</ele>
        <time>2022-04-11T14:52:55Z</time>
      </trkpt>
      <trkpt lat="49.94793" lon="2.1543">
        <ele>15.4</ele>
        <time>2022-04-11T14:52:56Z</time>
      </trkpt>
      <trkpt lat="49.94792" lon="2.15428">
        <ele>15.4</ele>
        <time>2022-04-11T14:52:57Z</time>
      </trkpt>
      <trkpt lat="49.94791" lon="2.15426">
        <ele>15.4</ele>
        <time>2022-04-11T14:52:59Z</time>
      </trkpt>
      <trkpt lat="49.94791" lon="2.15425">
        <ele>15.4</ele>
        <time>2022-04-11T14:53:00Z</time>
      </trkpt>
      <trkpt lat="49.9479" lon="2.15422">
        <ele>15.4</ele>
        <time>2022-04-11T14:53:01Z</time>
      </trkpt>
      <trkpt lat="49.94789" lon="2.15421">
        <ele>15.4</ele>
        <time>2022-04-11T14:53:02Z</time>
      </trkpt>
      <trkpt lat="49.94789" lon="2.1542">
        <ele>15.4</ele>
        <time>2022-04-11T14:53:03Z</time>
      </trkpt>
      <trkpt lat="49.94788" lon="2.15418">
        <ele>15.4</ele>
        <time>2022-04-11T14:53:04Z</time>
      </trkpt>
      <trkpt lat="49.94787" lon="2.15416">
        <ele>15.4</ele>
        <time>2022-04-11T14:53:05Z</time>
      </trkpt>
      <trkpt lat="49.94786" lon="2.15413">
        <ele>15.4</ele>
        <time>2022-04-11T14:53:07Z</time>
      </trkpt>
      <trkpt lat="49.94785" lon="2.15412">
        <ele>15.4</ele>
        <time>2022-04-11T14:53:08Z</time>
      </trkpt>
      <trkpt lat="49.94785" lon="2.15411">
        <ele>15.4</ele>
        <time>2022-04-11T14:53:09Z</time>
      </trkpt>
      <trkpt lat="49.94784" lon="2.15408">
        <ele>15.4</ele>
        <time>2022-04-11T14:53:10Z</time>
      </trkpt>
      <trkpt lat="49.94783" lon="2.15407">
        <ele>15.4</ele>
        <time>2022-04-11T14:53:11Z</time>
      </trkpt>
      <trkpt lat="49.94783" lon="2.15406">
        <ele>15.4</ele>
        <time>2022-04-11T14:53:12Z</time>
      </trkpt>
      <trkpt lat="49.94782" lon="2.15404">
        <ele>15.4</ele>
        <time>2022-04-11T14:53:13Z</time>
      </trkpt>
      <trkpt lat="49.94781" lon="2.15402">
        <ele>15.4</ele>
        <time>2022-04-11T14:53:14Z</time>
      </trkpt>
      <trkpt lat="49.9478" lon="2.154">
        <ele>15.4</ele>
        <time>2022-04-11T14:53:15Z</time>
      </trkpt>
      <trkpt lat="49.9478" lon="2.15398">
        <ele>15.4</ele>
        <time>2022-04-11T14:53:16Z</time>
      </trkpt>
      <trkpt lat="49.94779" lon="2.15397">
        <ele>15.4</ele>
        <time>2022-04-11T14:53:17Z</time>
      </trkpt>
      <trkpt lat="49.94778" lon="2.15395">
        <ele>15.4</ele>
        <time>2022-04-11T14:53:18Z</time>
      </trkpt>
      <trkpt lat="49.94778" lon="2.15394">
        <ele>15.4</ele>
        <time>2022-04-11T14:53:20Z</time>
      </trkpt>
      <trkpt lat="49.94777" lon="2.1539">
        <ele>15.4</ele>
        <time>2022-04-11T14:53:21Z</time>
      </trkpt>
      <trkpt lat="49.94777" lon="2.15389">
        <ele>15.4</ele>
        <time>2022-04-11T14:53:22Z</time>
      </trkpt>
      <trkpt lat="49.94776" lon="2.15388">
        <ele>15.4</ele>
        <time>2022-04-11T14:53:23Z</time>
      </trkpt>
      <trkpt lat="49.94776" lon="2.15385">
        <ele>15.4</ele>
        <time>2022-04-11T14:53:24Z</time>
      </trkpt>
      <trkpt lat="49.94775" lon="2.15384">
        <ele>15.4</ele>
        <time>2022-04-11T14:53:25Z</time>
      </trkpt>
      <trkpt lat="49.94775" lon="2.15382">
        <ele>15.4</ele>
        <time>2022-04-11T14:53:26Z</time>
      </trkpt>
      <trkpt lat="49.94774" lon="2.15379">
        <ele>15.4</ele>
        <time>2022-04-11T14:53:27Z</time>
      </trkpt>
      <trkpt lat="49.94774" lon="2.15378">
        <ele>15.4</ele>
        <time>2022-04-11T14:53:28Z</time>
      </trkpt>
      <trkpt lat="49.94774" lon="2.15377">
        <ele>15.4</ele>
        <time>2022-04-11T14:53:29Z</time>
      </trkpt>
      <trkpt lat="49.94773" lon="2.15374">
        <ele>15.4</ele>
        <time>2022-04-11T14:53:30Z</time>
      </trkpt>
      <trkpt lat="49.94773" lon="2.15373">
        <ele>15.4</ele>
        <time>2022-04-11T14:53:31Z</time>
      </trkpt>
      <trkpt lat="49.94772" lon="2.15371">
        <ele>15.4</ele>
        <time>2022-04-11T14:53:32Z</time>
      </trkpt>
      <trkpt lat="49.94772" lon="2.15368">
        <ele>15.4</ele>
        <time>2022-04-11T14:53:33Z</time>
      </trkpt>
      <trkpt lat="49.94771" lon="2.15367">
        <ele>15.4</ele>
        <time>2022-04-11T14:53:35Z</time>
      </trkpt>
      <trkpt lat="49.94771" lon="2.15366">
        <ele>15.4</ele>
        <time>2022-04-11T14:53:36Z</time>
      </trkpt>
      <trkpt lat="49.9477" lon="2.15364">
        <ele>15.4</ele>
        <time>2022-04-11T14:53:37Z</time>
      </trkpt>
      <trkpt lat="49.94769" lon="2.15362">
        <ele>15.4</ele>
        <time>2022-04-11T14:53:38Z</time>
      </trkpt>
      <trkpt lat="49.94769" lon="2.1536">
        <ele>15.4</ele>
        <time>2022-04-11T14:53:39Z</time>
      </trkpt>
      <trkpt lat="49.94768" lon="2.15358">
        <ele>15.4</ele>
        <time>2022-04-11T14:53:40Z</time>
      </trkpt>
      <trkpt lat="49.94768" lon="2.15356">
        <ele>15.4</ele>
        <time>2022-04-11T14:53:41Z</time>
      </trkpt>
      <trkpt lat="49.94767" lon="2.15354">
        <ele>15.4</ele>
        <time>2022-04-11T14:53:42Z</time>
      </trkpt>
      <trkpt lat="49.94767" lon="2.15352">
        <ele>15.4</ele>
        <time>2022-04-11T14:53:43Z</time>
      </trkpt>
      <trkpt lat="49.94766" lon="2.1535">
        <ele>15.4</ele>
        <time>2022-04-11T14:53:44Z</time>
      </trkpt>
      <trkpt lat="49.94766" lon="2.15349">
        <ele>15.4</ele>
        <time>2022-04-11T14:53:45Z</time>
      </trkpt>
      <trkpt lat="49.94765" lon="2.15346">
        <ele>15.4</ele>
        <time>2022-04-11T14:53:47Z</time>
      </trkpt>
      <trkpt lat="49.94765" lon="2.15345">
        <ele>15.4</ele>
        <time>2022-04-11T14:53:48Z</time>
      </trkpt>
      <trkpt lat="49.94764" lon="2.15344">
        <ele>15.4</ele>
        <time>2022-04-11T14:53:49Z</time>
      </trkpt>
      <trkpt lat="49.94764" lon="2.15342">
        <ele>15.4</ele>
        <time>2022-04-11T14:53:50Z</time>
      </trkpt>
      <trkpt lat="49.94763" lon="2.15341">
        <ele>15.4</ele>
        <time>2022-04-11T14:53:51Z</time>
      </trkpt>
      <trkpt lat="49.94762" lon="2.15339">
        <ele>15.4</ele>
        <time>2022-04-11T14:53:52Z</time>
      </trkpt>
      <trkpt lat="49.94762" lon="2.15337">
        <ele>15.4</ele>
        <time>2022-04-11T14:53:53Z</time>
      </trkpt>
      <trkpt lat="49.94761" lon="2.15336">
        <ele>15.4</ele>
        <time>2022-04-11T14:53:54Z</time>
      </trkpt>
      <trkpt lat="49.94761" lon="2.15334">
        <ele>15.4</ele>
        <time>2022-04-11T14:53:55Z</time>
      </trkpt>
      <trkpt lat="49.9476" lon="2.15333">
        <ele>15.4</ele>
        <time>2022-04-11T14:53:56Z</time>
      </trkpt>
      <trkpt lat="49.9476" lon="2.15331">
        <ele>15.5</ele>
        <time>2022-04-11T14:53:57Z</time>
      </trkpt>
      <trkpt lat="49.9476" lon="2.1533">
        <ele>15.5</ele>
        <time>2022-04-11T14:53:59Z</time>
      </trkpt>
      <trkpt lat="49.94759" lon="2.15328">
        <ele>15.5</ele>
        <time>2022-04-11T14:54:00Z</time>
      </trkpt>
      <trkpt lat="49.94759" lon="2.15327">
        <ele>15.5</ele>
        <time>2022-04-11T14:54:01Z</time>
      </trkpt>
      <trkpt lat="49.94758" lon="2.15325">
        <ele>15.5</ele>
        <time>2022-04-11T14:54:02Z</time>
      </trkpt>
      <trkpt lat="49.94758" lon="2.15324">
        <ele>15.5</ele>
        <time>2022-04-11T14:54:03Z</time>
      </trkpt>
      <trkpt lat="49.94757" lon="2.15322">
        <ele>15.5</ele>
        <time>2022-04-11T14:54:04Z</time>
      </trkpt>
      <trkpt lat="49.94757" lon="2.1532">
        <ele>15.5</ele>
        <time>2022-04-11T14:54:06Z</time>
      </trkpt>
      <trkpt lat="49.94756" lon="2.15318">
        <ele>15.5</ele>
        <time>2022-04-11T14:54:07Z</time>
      </trkpt>
      <trkpt lat="49.94756" lon="2.15317">
        <ele>15.5</ele>
        <time>2022-04-11T14:54:08Z</time>
      </trkpt>
      <trkpt lat="49.94756" lon="2.15316">
        <ele>15.5</ele>
        <time>2022-04-11T14:54:09Z</time>
      </trkpt>
      <trkpt lat="49.94755" lon="2.15315">
        <ele>15.5</ele>
        <time>2022-04-11T14:54:10Z</time>
      </trkpt>
      <trkpt lat="49.94755" lon="2.15313">
        <ele>15.5</ele>
        <time>2022-04-11T14:54:11Z</time>
      </trkpt>
      <trkpt lat="49.94754" lon="2.15312">
        <ele>15.5</ele>
        <time>2022-04-11T14:54:12Z</time>
      </trkpt>
      <trkpt lat="49.94753" lon="2.15309">
        <ele>15.5</ele>
        <time>2022-04-11T14:54:14Z</time>
      </trkpt>
      <trkpt lat="49.94752" lon="2.15308">
        <ele>15.5</ele>
        <time>2022-04-11T14:54:15Z</time>
      </trkpt>
      <trkpt lat="49.94752" lon="2.15307">
        <ele>15.5</ele>
        <time>2022-04-11T14:54:16Z</time>
      </trkpt>
      <trkpt lat="49.9475" lon="2.15306">
        <ele>15.5</ele>
        <time>2022-04-11T14:54:17Z</time>
      </trkpt>
      <trkpt lat="49.94749" lon="2.15305">
        <ele>15.5</ele>
        <time>2022-04-11T14:54:18Z</time>
      </trkpt>
      <trkpt lat="49.94748" lon="2.15305">
        <ele>15.5</ele>
        <time>2022-04-11T14:54:19Z</time>
      </trkpt>
      <trkpt lat="49.94746" lon="2.15304">
        <ele>15.5</ele>
        <time>2022-04-11T14:54:20Z</time>
      </trkpt>
      <trkpt lat="49.94744" lon="2.15303">
        <ele>15.5</ele>
        <time>2022-04-11T14:54:21Z</time>
      </trkpt>
      <trkpt lat="49.94743" lon="2.15303">
        <ele>15.5</ele>
        <time>2022-04-11T14:54:23Z</time>
      </trkpt>
      <trkpt lat="49.94741" lon="2.15303">
        <ele>15.5</ele>
        <time>2022-04-11T14:54:24Z</time>
      </trkpt>
      <trkpt lat="49.9474" lon="2.15302">
        <ele>15.5</ele>
        <time>2022-04-11T14:54:25Z</time>
      </trkpt>
      <trkpt lat="49.94739" lon="2.15302">
        <ele>15.5</ele>
        <time>2022-04-11T14:54:26Z</time>
      </trkpt>
      <trkpt lat="49.94738" lon="2.15301">
        <ele>15.5</ele>
        <time>2022-04-11T14:54:27Z</time>
      </trkpt>
      <trkpt lat="49.94736" lon="2.153">
        <ele>15.5</ele>
        <time>2022-04-11T14:54:28Z</time>
      </trkpt>
      <trkpt lat="49.94734" lon="2.15299">
        <ele>15.5</ele>
        <time>2022-04-11T14:54:29Z</time>
      </trkpt>
      <trkpt lat="49.94734" lon="2.15298">
        <ele>15.5</ele>
        <time>2022-04-11T14:54:30Z</time>
      </trkpt>
      <trkpt lat="49.94733" lon="2.15298">
        <ele>15.5</ele>
        <time>2022-04-11T14:54:31Z</time>
      </trkpt>
      <trkpt lat="49.94732" lon="2.15297">
        <ele>15.5</ele>
        <time>2022-04-11T14:54:32Z</time>
      </trkpt>
      <trkpt lat="49.94731" lon="2.15296">
        <ele>15.4</ele>
        <time>2022-04-11T14:54:34Z</time>
      </trkpt>
      <trkpt lat="49.9473" lon="2.15295">
        <ele>15.4</ele>
        <time>2022-04-11T14:54:35Z</time>
      </trkpt>
      <trkpt lat="49.94728" lon="2.15295">
        <ele>15.4</ele>
        <time>2022-04-11T14:54:36Z</time>
      </trkpt>
      <trkpt lat="49.94727" lon="2.15294">
        <ele>15.4</ele>
        <time>2022-04-11T14:54:37Z</time>
      </trkpt>
      <trkpt lat="49.94726" lon="2.15294">
        <ele>15.4</ele>
        <time>2022-04-11T14:54:38Z</time>
      </trkpt>
      <trkpt lat="49.94725" lon="2.15293">
        <ele>15.4</ele>
        <time>2022-04-11T14:54:39Z</time>
      </trkpt>
      <trkpt lat="49.94724" lon="2.15293">
        <ele>15.4</ele>
        <time>2022-04-11T14:54:40Z</time>
      </trkpt>
      <trkpt lat="49.94723" lon="2.15293">
        <ele>15.4</ele>
        <time>2022-04-11T14:54:41Z</time>
      </trkpt>
      <trkpt lat="49.94723" lon="2.15292">
        <ele>15.4</ele>
        <time>2022-04-11T14:54:42Z</time>
      </trkpt>
      <trkpt lat="49.94721" lon="2.15292">
        <ele>15.4</ele>
        <time>2022-04-11T14:54:43Z</time>
      </trkpt>
      <trkpt lat="49.9472" lon="2.15291">
        <ele>15.4</ele>
        <time>2022-04-11T14:54:44Z</time>
      </trkpt>
      <trkpt lat="49.94719" lon="2.15291">
        <ele>15.4</ele>
        <time>2022-04-11T14:54:46Z</time>
      </trkpt>
      <trkpt lat="49.94718" lon="2.1529">
        <ele>15.4</ele>
        <time>2022-04-11T14:54:47Z</time>
      </trkpt>
      <trkpt lat="49.94717" lon="2.1529">
        <ele>15.4</ele>
        <time>2022-04-11T14:54:48Z</time>
      </trkpt>
      <trkpt lat="49.94716" lon="2.1529">
        <ele>15.4</ele>
        <time>2022-04-11T14:54:49Z</time>
      </trkpt>
      <trkpt lat="49.94715" lon="2.15289">
        <ele>15.4</ele>
        <time>2022-04-11T14:54:50Z</time>
      </trkpt>
      <trkpt lat="49.94714" lon="2.15288">
        <ele>15.4</ele>
        <time>2022-04-11T14:54:51Z</time>
      </trkpt>
      <trkpt lat="49.94712" lon="2.15287">
        <ele>15.4</ele>
        <time>2022-04-11T14:54:52Z</time>
      </trkpt>
      <trkpt lat="49.94711" lon="2.15287">
        <ele>15.4</ele>
        <time>2022-04-11T14:54:54Z</time>
      </trkpt>
      <trkpt lat="49.9471" lon="2.15286">
        <ele>15.4</ele>
        <time>2022-04-11T14:54:55Z</time>
      </trkpt>
      <trkpt lat="49.94708" lon="2.15284">
        <ele>15.4</ele>
        <time>2022-04-11T14:54:56Z</time>
      </trkpt>
      <trkpt lat="49.94708" lon="2.15284">
        <ele>15.4</ele>
        <time>2022-04-11T14:54:57Z</time>
      </trkpt>
      <trkpt lat="49.94707" lon="2.15283">
        <ele>15.4</ele>
        <time>2022-04-11T14:54:58Z</time>
      </trkpt>
      <trkpt lat="49.94706" lon="2.15282">
        <ele>15.4</ele>
        <time>2022-04-11T14:54:59Z</time>
      </trkpt>
      <trkpt lat="49.94705" lon="2.15281">
        <ele>15.4</ele>
        <time>2022-04-11T14:55:00Z</time>
      </trkpt>
      <trkpt lat="49.94704" lon="2.1528">
        <ele>15.4</ele>
        <time>2022-04-11T14:55:02Z</time>
      </trkpt>
      <trkpt lat="49.94703" lon="2.15279">
        <ele>15.4</ele>
        <time>2022-04-11T14:55:03Z</time>
      </trkpt>
      <trkpt lat="49.94702" lon="2.15277">
        <ele>15.4</ele>
        <time>2022-04-11T14:55:04Z</time>
      </trkpt>
      <trkpt lat="49.94701" lon="2.15276">
        <ele>15.4</ele>
        <time>2022-04-11T14:55:05Z</time>
      </trkpt>
      <trkpt lat="49.94701" lon="2.15275">
        <ele>15.4</ele>
        <time>2022-04-11T14:55:06Z</time>
      </trkpt>
      <trkpt lat="49.947" lon="2.15274">
        <ele>15.4</ele>
        <time>2022-04-11T14:55:07Z</time>
      </trkpt>
      <trkpt lat="49.947" lon="2.15273">
        <ele>15.4</ele>
        <time>2022-04-11T14:55:08Z</time>
      </trkpt>
      <trkpt lat="49.94699" lon="2.15272">
        <ele>15.5</ele>
        <time>2022-04-11T14:55:09Z</time>
      </trkpt>
      <trkpt lat="49.94698" lon="2.1527">
        <ele>15.5</ele>
        <time>2022-04-11T14:55:11Z</time>
      </trkpt>
      <trkpt lat="49.94697" lon="2.15269">
        <ele>15.5</ele>
        <time>2022-04-11T14:55:12Z</time>
      </trkpt>
      <trkpt lat="49.94696" lon="2.15268">
        <ele>15.5</ele>
        <time>2022-04-11T14:55:13Z</time>
      </trkpt>
      <trkpt lat="49.94695" lon="2.15267">
        <ele>15.5</ele>
        <time>2022-04-11T14:55:14Z</time>
      </trkpt>
      <trkpt lat="49.94695" lon="2.15265">
        <ele>15.5</ele>
        <time>2022-04-11T14:55:15Z</time>
      </trkpt>
      <trkpt lat="49.94694" lon="2.15264">
        <ele>15.5</ele>
        <time>2022-04-11T14:55:16Z</time>
      </trkpt>
      <trkpt lat="49.94693" lon="2.15262">
        <ele>15.5</ele>
        <time>2022-04-11T14:55:17Z</time>
      </trkpt>
      <trkpt lat="49.94693" lon="2.15261">
        <ele>15.5</ele>
        <time>2022-04-11T14:55:18Z</time>
      </trkpt>
      <trkpt lat="49.94693" lon="2.15259">
        <ele>15.5</ele>
        <time>2022-04-11T14:55:19Z</time>
      </trkpt>
      <trkpt lat="49.94693" lon="2.15257">
        <ele>15.5</ele>
        <time>2022-04-11T14:55:20Z</time>
      </trkpt>
      <trkpt lat="49.94693" lon="2.15253">
        <ele>15.5</ele>
        <time>2022-04-11T14:55:22Z</time>
      </trkpt>
      <trkpt lat="49.94693" lon="2.15252">
        <ele>15.5</ele>
        <time>2022-04-11T14:55:23Z</time>
      </trkpt>
      <trkpt lat="49.94693" lon="2.15251">
        <ele>15.5</ele>
        <time>2022-04-11T14:55:24Z</time>
      </trkpt>
      <trkpt lat="49.94692" lon="2.15249">
        <ele>15.5</ele>
        <time>2022-04-11T14:55:25Z</time>
      </trkpt>
      <trkpt lat="49.94692" lon="2.15247">
        <ele>15.5</ele>
        <time>2022-04-11T14:55:26Z</time>
      </trkpt>
      <trkpt lat="49.94691" lon="2.15244">
        <ele>15.5</ele>
        <time>2022-04-11T14:55:27Z</time>
      </trkpt>
      <trkpt lat="49.94691" lon="2.15243">
        <ele>15.5</ele>
        <time>2022-04-11T14:55:28Z</time>
      </trkpt>
      <trkpt lat="49.94691" lon="2.15241">
        <ele>15.5</ele>
        <time>2022-04-11T14:55:30Z</time>
      </trkpt>
      <trkpt lat="49.9469" lon="2.15239">
        <ele>15.5</ele>
        <time>2022-04-11T14:55:31Z</time>
      </trkpt>
      <trkpt lat="49.94689" lon="2.15236">
        <ele>15.5</ele>
        <time>2022-04-11T14:55:32Z</time>
      </trkpt>
      <trkpt lat="49.94689" lon="2.15235">
        <ele>15.5</ele>
        <time>2022-04-11T14:55:33Z</time>
      </trkpt>
      <trkpt lat="49.94688" lon="2.15234">
        <ele>15.5</ele>
        <time>2022-04-11T14:55:34Z</time>
      </trkpt>
      <trkpt lat="49.94688" lon="2.15231">
        <ele>15.5</ele>
        <time>2022-04-11T14:55:35Z</time>
      </trkpt>
      <trkpt lat="49.94687" lon="2.15229">
        <ele>15.5</ele>
        <time>2022-04-11T14:55:36Z</time>
      </trkpt>
      <trkpt lat="49.94687" lon="2.15228">
        <ele>15.5</ele>
        <time>2022-04-11T14:55:37Z</time>
      </trkpt>
      <trkpt lat="49.94686" lon="2.15226">
        <ele>15.5</ele>
        <time>2022-04-11T14:55:38Z</time>
      </trkpt>
      <trkpt lat="49.94686" lon="2.15224">
        <ele>15.5</ele>
        <time>2022-04-11T14:55:40Z</time>
      </trkpt>
      <trkpt lat="49.94685" lon="2.15222">
        <ele>15.5</ele>
        <time>2022-04-11T14:55:41Z</time>
      </trkpt>
      <trkpt lat="49.94685" lon="2.1522">
        <ele>15.5</ele>
        <time>2022-04-11T14:55:42Z</time>
      </trkpt>
      <trkpt lat="49.94684" lon="2.15217">
        <ele>15.5</ele>
        <time>2022-04-11T14:55:43Z</time>
      </trkpt>
      <trkpt lat="49.94684" lon="2.15215">
        <ele>15.5</ele>
        <time>2022-04-11T14:55:44Z</time>
      </trkpt>
      <trkpt lat="49.94684" lon="2.15213">
        <ele>15.5</ele>
        <time>2022-04-11T14:55:45Z</time>
      </trkpt>
      <trkpt lat="49.94683" lon="2.15211">
        <ele>15.5</ele>
        <time>2022-04-11T14:55:46Z</time>
      </trkpt>
      <trkpt lat="49.94683" lon="2.15209">
        <ele>15.5</ele>
        <time>2022-04-11T14:55:47Z</time>
      </trkpt>
      <trkpt lat="49.94683" lon="2.15207">
        <ele>15.5</ele>
        <time>2022-04-11T14:55:48Z</time>
      </trkpt>
      <trkpt lat="49.94683" lon="2.15205">
        <ele>15.5</ele>
        <time>2022-04-11T14:55:50Z</time>
      </trkpt>
      <trkpt lat="49.94683" lon="2.15202">
        <ele>15.5</ele>
        <time>2022-04-11T14:55:51Z</time>
      </trkpt>
      <trkpt lat="49.94683" lon="2.152">
        <ele>15.5</ele>
        <time>2022-04-11T14:55:52Z</time>
      </trkpt>
      <trkpt lat="49.94682" lon="2.15199">
        <ele>15.5</ele>
        <time>2022-04-11T14:55:53Z</time>
      </trkpt>
      <trkpt lat="49.94682" lon="2.15196">
        <ele>15.5</ele>
        <time>2022-04-11T14:55:54Z</time>
      </trkpt>
      <trkpt lat="49.94682" lon="2.15195">
        <ele>15.5</ele>
        <time>2022-04-11T14:55:55Z</time>
      </trkpt>
      <trkpt lat="49.94681" lon="2.15193">
        <ele>15.5</ele>
        <time>2022-04-11T14:55:56Z</time>
      </trkpt>
      <trkpt lat="49.94681" lon="2.15191">
        <ele>15.5</ele>
        <time>2022-04-11T14:55:57Z</time>
      </trkpt>
      <trkpt lat="49.94681" lon="2.15189">
        <ele>15.5</ele>
        <time>2022-04-11T14:55:58Z</time>
      </trkpt>
      <trkpt lat="49.9468" lon="2.15186">
        <ele>15.5</ele>
        <time>2022-04-11T14:56:00Z</time>
      </trkpt>
      <trkpt lat="49.9468" lon="2.15185">
        <ele>15.5</ele>
        <time>2022-04-11T14:56:01Z</time>
      </trkpt>
      <trkpt lat="49.94679" lon="2.15181">
        <ele>15.5</ele>
        <time>2022-04-11T14:56:02Z</time>
      </trkpt>
      <trkpt lat="49.94679" lon="2.15179">
        <ele>15.5</ele>
        <time>2022-04-11T14:56:03Z</time>
      </trkpt>
      <trkpt lat="49.94679" lon="2.15178">
        <ele>15.5</ele>
        <time>2022-04-11T14:56:04Z</time>
      </trkpt>
      <trkpt lat="49.94679" lon="2.15175">
        <ele>15.5</ele>
        <time>2022-04-11T14:56:05Z</time>
      </trkpt>
      <trkpt lat="49.94678" lon="2.15173">
        <ele>15.5</ele>
        <time>2022-04-11T14:56:06Z</time>
      </trkpt>
      <trkpt lat="49.94678" lon="2.15171">
        <ele>15.5</ele>
        <time>2022-04-11T14:56:07Z</time>
      </trkpt>
      <trkpt lat="49.94677" lon="2.15169">
        <ele>15.5</ele>
        <time>2022-04-11T14:56:08Z</time>
      </trkpt>
      <trkpt lat="49.94676" lon="2.15166">
        <ele>15.5</ele>
        <time>2022-04-11T14:56:10Z</time>
      </trkpt>
      <trkpt lat="49.94676" lon="2.15165">
        <ele>15.5</ele>
        <time>2022-04-11T14:56:11Z</time>
      </trkpt>
      <trkpt lat="49.94676" lon="2.15163">
        <ele>15.5</ele>
        <time>2022-04-11T14:56:12Z</time>
      </trkpt>
      <trkpt lat="49.94676" lon="2.15162">
        <ele>15.5</ele>
        <time>2022-04-11T14:56:13Z</time>
      </trkpt>
      <trkpt lat="49.94675" lon="2.15161">
        <ele>15.5</ele>
        <time>2022-04-11T14:56:14Z</time>
      </trkpt>
      <trkpt lat="49.94674" lon="2.15161">
        <ele>15.5</ele>
        <time>2022-04-11T14:56:15Z</time>
      </trkpt>
      <trkpt lat="49.94674" lon="2.15162">
        <ele>15.5</ele>
        <time>2022-04-11T14:56:16Z</time>
      </trkpt>
      <trkpt lat="49.94673" lon="2.15162">
        <ele>15.5</ele>
        <time>2022-04-11T14:56:17Z</time>
      </trkpt>
      <trkpt lat="49.94672" lon="2.15162">
        <ele>15.5</ele>
        <time>2022-04-11T14:56:18Z</time>
      </trkpt>
      <trkpt lat="49.94672" lon="2.15162">
        <ele>15.5</ele>
        <time>2022-04-11T14:56:19Z</time>
      </trkpt>
      <trkpt lat="49.94672" lon="2.15161">
        <ele>15.5</ele>
        <time>2022-04-11T14:56:20Z</time>
      </trkpt>
      <trkpt lat="49.94672" lon="2.1516">
        <ele>15.5</ele>
        <time>2022-04-11T14:56:21Z</time>
      </trkpt>
      <trkpt lat="49.94672" lon="2.15159">
        <ele>15.5</ele>
        <time>2022-04-11T14:56:23Z</time>
      </trkpt>
      <trkpt lat="49.94671" lon="2.15158">
        <ele>15.5</ele>
        <time>2022-04-11T14:56:24Z</time>
      </trkpt>
      <trkpt lat="49.94672" lon="2.15155">
        <ele>15.5</ele>
        <time>2022-04-11T14:56:25Z</time>
      </trkpt>
      <trkpt lat="49.94672" lon="2.15153">
        <ele>15.5</ele>
        <time>2022-04-11T14:56:26Z</time>
      </trkpt>
      <trkpt lat="49.94672" lon="2.15152">
        <ele>15.5</ele>
        <time>2022-04-11T14:56:28Z</time>
      </trkpt>
      <trkpt lat="49.94672" lon="2.1515">
        <ele>15.5</ele>
        <time>2022-04-11T14:56:29Z</time>
      </trkpt>
      <trkpt lat="49.94673" lon="2.15149">
        <ele>15.5</ele>
        <time>2022-04-11T14:56:30Z</time>
      </trkpt>
      <trkpt lat="49.94673" lon="2.15147">
        <ele>15.5</ele>
        <time>2022-04-11T14:56:31Z</time>
      </trkpt>
      <trkpt lat="49.94673" lon="2.15144">
        <ele>15.5</ele>
        <time>2022-04-11T14:56:32Z</time>
      </trkpt>
      <trkpt lat="49.94674" lon="2.15143">
        <ele>15.5</ele>
        <time>2022-04-11T14:56:33Z</time>
      </trkpt>
      <trkpt lat="49.94674" lon="2.15141">
        <ele>15.5</ele>
        <time>2022-04-11T14:56:34Z</time>
      </trkpt>
      <trkpt lat="49.94674" lon="2.15139">
        <ele>15.5</ele>
        <time>2022-04-11T14:56:35Z</time>
      </trkpt>
      <trkpt lat="49.94674" lon="2.15138">
        <ele>15.5</ele>
        <time>2022-04-11T14:56:37Z</time>
      </trkpt>
      <trkpt lat="49.94674" lon="2.15136">
        <ele>15.5</ele>
        <time>2022-04-11T14:56:38Z</time>
      </trkpt>
      <trkpt lat="49.94673" lon="2.15134">
        <ele>15.5</ele>
        <time>2022-04-11T14:56:39Z</time>
      </trkpt>
      <trkpt lat="49.94673" lon="2.15132">
        <ele>15.5</ele>
        <time>2022-04-11T14:56:40Z</time>
      </trkpt>
      <trkpt lat="49.94673" lon="2.15131">
        <ele>15.5</ele>
        <time>2022-04-11T14:56:41Z</time>
      </trkpt>
      <trkpt lat="49.94673" lon="2.1513">
        <ele>15.5</ele>
        <time>2022-04-11T14:56:42Z</time>
      </trkpt>
      <trkpt lat="49.94673" lon="2.15128">
        <ele>15.5</ele>
        <time>2022-04-11T14:56:43Z</time>
      </trkpt>
      <trkpt lat="49.94673" lon="2.15127">
        <ele>15.5</ele>
        <time>2022-04-11T14:56:44Z</time>
      </trkpt>
      <trkpt lat="49.94673" lon="2.15126">
        <ele>15.5</ele>
        <time>2022-04-11T14:56:45Z</time>
      </trkpt>
      <trkpt lat="49.94674" lon="2.15125">
        <ele>15.5</ele>
        <time>2022-04-11T14:56:46Z</time>
      </trkpt>
      <trkpt lat="49.94674" lon="2.15123">
        <ele>15.5</ele>
        <time>2022-04-11T14:56:48Z</time>
      </trkpt>
      <trkpt lat="49.94674" lon="2.15122">
        <ele>15.5</ele>
        <time>2022-04-11T14:56:49Z</time>
      </trkpt>
      <trkpt lat="49.94674" lon="2.1512">
        <ele>15.5</ele>
        <time>2022-04-11T14:56:50Z</time>
      </trkpt>
      <trkpt lat="49.94674" lon="2.15119">
        <ele>15.5</ele>
        <time>2022-04-11T14:56:51Z</time>
      </trkpt>
      <trkpt lat="49.94674" lon="2.15117">
        <ele>15.5</ele>
        <time>2022-04-11T14:56:52Z</time>
      </trkpt>
      <trkpt lat="49.94675" lon="2.15115">
        <ele>15.5</ele>
        <time>2022-04-11T14:56:53Z</time>
      </trkpt>
      <trkpt lat="49.94675" lon="2.15114">
        <ele>15.5</ele>
        <time>2022-04-11T14:56:54Z</time>
      </trkpt>
      <trkpt lat="49.94675" lon="2.15112">
        <ele>15.5</ele>
        <time>2022-04-11T14:56:55Z</time>
      </trkpt>
      <trkpt lat="49.94675" lon="2.15109">
        <ele>15.5</ele>
        <time>2022-04-11T14:56:57Z</time>
      </trkpt>
      <trkpt lat="49.94675" lon="2.15108">
        <ele>15.5</ele>
        <time>2022-04-11T14:56:58Z</time>
      </trkpt>
      <trkpt lat="49.94675" lon="2.15106">
        <ele>15.5</ele>
        <time>2022-04-11T14:56:59Z</time>
      </trkpt>
      <trkpt lat="49.94675" lon="2.15104">
        <ele>15.5</ele>
        <time>2022-04-11T14:57:00Z</time>
      </trkpt>
      <trkpt lat="49.94675" lon="2.15102">
        <ele>15.5</ele>
        <time>2022-04-11T14:57:01Z</time>
      </trkpt>
      <trkpt lat="49.94675" lon="2.151">
        <ele>15.5</ele>
        <time>2022-04-11T14:57:02Z</time>
      </trkpt>
      <trkpt lat="49.94675" lon="2.15098">
        <ele>15.5</ele>
        <time>2022-04-11T14:57:03Z</time>
      </trkpt>
      <trkpt lat="49.94674" lon="2.15096">
        <ele>15.5</ele>
        <time>2022-04-11T14:57:04Z</time>
      </trkpt>
      <trkpt lat="49.94674" lon="2.15093">
        <ele>15.5</ele>
        <time>2022-04-11T14:57:05Z</time>
      </trkpt>
      <trkpt lat="49.94673" lon="2.1509">
        <ele>15.5</ele>
        <time>2022-04-11T14:57:06Z</time>
      </trkpt>
      <trkpt lat="49.94672" lon="2.15088">
        <ele>15.5</ele>
        <time>2022-04-11T14:57:08Z</time>
      </trkpt>
      <trkpt lat="49.94672" lon="2.15087">
        <ele>15.5</ele>
        <time>2022-04-11T14:57:09Z</time>
      </trkpt>
      <trkpt lat="49.94671" lon="2.15085">
        <ele>15.5</ele>
        <time>2022-04-11T14:57:10Z</time>
      </trkpt>
      <trkpt lat="49.94671" lon="2.15083">
        <ele>15.5</ele>
        <time>2022-04-11T14:57:11Z</time>
      </trkpt>
      <trkpt lat="49.9467" lon="2.15081">
        <ele>15.5</ele>
        <time>2022-04-11T14:57:12Z</time>
      </trkpt>
      <trkpt lat="49.9467" lon="2.15079">
        <ele>15.5</ele>
        <time>2022-04-11T14:57:13Z</time>
      </trkpt>
      <trkpt lat="49.94669" lon="2.15077">
        <ele>15.4</ele>
        <time>2022-04-11T14:57:14Z</time>
      </trkpt>
      <trkpt lat="49.94668" lon="2.15074">
        <ele>15.4</ele>
        <time>2022-04-11T14:57:15Z</time>
      </trkpt>
      <trkpt lat="49.94668" lon="2.15072">
        <ele>15.4</ele>
        <time>2022-04-11T14:57:16Z</time>
      </trkpt>
      <trkpt lat="49.94667" lon="2.1507">
        <ele>15.4</ele>
        <time>2022-04-11T14:57:18Z</time>
      </trkpt>
      <trkpt lat="49.94667" lon="2.15068">
        <ele>15.4</ele>
        <time>2022-04-11T14:57:19Z</time>
      </trkpt>
      <trkpt lat="49.94666" lon="2.15066">
        <ele>15.4</ele>
        <time>2022-04-11T14:57:20Z</time>
      </trkpt>
      <trkpt lat="49.94666" lon="2.15063">
        <ele>15.4</ele>
        <time>2022-04-11T14:57:22Z</time>
      </trkpt>
      <trkpt lat="49.94665" lon="2.15062">
        <ele>15.4</ele>
        <time>2022-04-11T14:57:23Z</time>
      </trkpt>
      <trkpt lat="49.94665" lon="2.15061">
        <ele>15.4</ele>
        <time>2022-04-11T14:57:24Z</time>
      </trkpt>
      <trkpt lat="49.94664" lon="2.15059">
        <ele>15.4</ele>
        <time>2022-04-11T14:57:25Z</time>
      </trkpt>
      <trkpt lat="49.94664" lon="2.15057">
        <ele>15.4</ele>
        <time>2022-04-11T14:57:26Z</time>
      </trkpt>
      <trkpt lat="49.94664" lon="2.15055">
        <ele>15.4</ele>
        <time>2022-04-11T14:57:27Z</time>
      </trkpt>
      <trkpt lat="49.94663" lon="2.15054">
        <ele>15.4</ele>
        <time>2022-04-11T14:57:28Z</time>
      </trkpt>
      <trkpt lat="49.94663" lon="2.15052">
        <ele>15.4</ele>
        <time>2022-04-11T14:57:29Z</time>
      </trkpt>
      <trkpt lat="49.94663" lon="2.15051">
        <ele>15.4</ele>
        <time>2022-04-11T14:57:30Z</time>
      </trkpt>
      <trkpt lat="49.94663" lon="2.15048">
        <ele>15.4</ele>
        <time>2022-04-11T14:57:32Z</time>
      </trkpt>
      <trkpt lat="49.94663" lon="2.15047">
        <ele>15.4</ele>
        <time>2022-04-11T14:57:33Z</time>
      </trkpt>
      <trkpt lat="49.94663" lon="2.15045">
        <ele>15.4</ele>
        <time>2022-04-11T14:57:34Z</time>
      </trkpt>
      <trkpt lat="49.94663" lon="2.15042">
        <ele>15.4</ele>
        <time>2022-04-11T14:57:35Z</time>
      </trkpt>
      <trkpt lat="49.94663" lon="2.15041">
        <ele>15.4</ele>
        <time>2022-04-11T14:57:36Z</time>
      </trkpt>
      <trkpt lat="49.94663" lon="2.15039">
        <ele>15.4</ele>
        <time>2022-04-11T14:57:37Z</time>
      </trkpt>
      <trkpt lat="49.94663" lon="2.15037">
        <ele>15.4</ele>
        <time>2022-04-11T14:57:39Z</time>
      </trkpt>
      <trkpt lat="49.94663" lon="2.15035">
        <ele>15.4</ele>
        <time>2022-04-11T14:57:40Z</time>
      </trkpt>
      <trkpt lat="49.94663" lon="2.15034">
        <ele>15.4</ele>
        <time>2022-04-11T14:57:41Z</time>
      </trkpt>
      <trkpt lat="49.94663" lon="2.15033">
        <ele>15.4</ele>
        <time>2022-04-11T14:57:42Z</time>
      </trkpt>
      <trkpt lat="49.94663" lon="2.15031">
        <ele>15.4</ele>
        <time>2022-04-11T14:57:43Z</time>
      </trkpt>
      <trkpt lat="49.94663" lon="2.15029">
        <ele>15.4</ele>
        <time>2022-04-11T14:57:44Z</time>
      </trkpt>
      <trkpt lat="49.94663" lon="2.15028">
        <ele>15.4</ele>
        <time>2022-04-11T14:57:45Z</time>
      </trkpt>
      <trkpt lat="49.94663" lon="2.15026">
        <ele>15.4</ele>
        <time>2022-04-11T14:57:46Z</time>
      </trkpt>
      <trkpt lat="49.94663" lon="2.15024">
        <ele>15.4</ele>
        <time>2022-04-11T14:57:47Z</time>
      </trkpt>
      <trkpt lat="49.94663" lon="2.15022">
        <ele>15.4</ele>
        <time>2022-04-11T14:57:48Z</time>
      </trkpt>
      <trkpt lat="49.94664" lon="2.1502">
        <ele>15.4</ele>
        <time>2022-04-11T14:57:50Z</time>
      </trkpt>
      <trkpt lat="49.94664" lon="2.15018">
        <ele>15.4</ele>
        <time>2022-04-11T14:57:51Z</time>
      </trkpt>
      <trkpt lat="49.94664" lon="2.15017">
        <ele>15.4</ele>
        <time>2022-04-11T14:57:52Z</time>
      </trkpt>
      <trkpt lat="49.94664" lon="2.15015">
        <ele>15.4</ele>
        <time>2022-04-11T14:57:53Z</time>
      </trkpt>
      <trkpt lat="49.94665" lon="2.15012">
        <ele>15.4</ele>
        <time>2022-04-11T14:57:54Z</time>
      </trkpt>
      <trkpt lat="49.94666" lon="2.15011">
        <ele>15.4</ele>
        <time>2022-04-11T14:57:56Z</time>
      </trkpt>
      <trkpt lat="49.94666" lon="2.1501">
        <ele>15.4</ele>
        <time>2022-04-11T14:57:57Z</time>
      </trkpt>
      <trkpt lat="49.94666" lon="2.15008">
        <ele>15.4</ele>
        <time>2022-04-11T14:57:58Z</time>
      </trkpt>
      <trkpt lat="49.94667" lon="2.15007">
        <ele>15.4</ele>
        <time>2022-04-11T14:57:59Z</time>
      </trkpt>
      <trkpt lat="49.94667" lon="2.15005">
        <ele>15.4</ele>
        <time>2022-04-11T14:58:00Z</time>
      </trkpt>
      <trkpt lat="49.94668" lon="2.15002">
        <ele>15.4</ele>
        <time>2022-04-11T14:58:01Z</time>
      </trkpt>
      <trkpt lat="49.94668" lon="2.15001">
        <ele>15.4</ele>
        <time>2022-04-11T14:58:02Z</time>
      </trkpt>
      <trkpt lat="49.94669" lon="2.15">
        <ele>15.4</ele>
        <time>2022-04-11T14:58:03Z</time>
      </trkpt>
      <trkpt lat="49.94669" lon="2.14998">
        <ele>15.4</ele>
        <time>2022-04-11T14:58:04Z</time>
      </trkpt>
      <trkpt lat="49.9467" lon="2.14996">
        <ele>15.4</ele>
        <time>2022-04-11T14:58:05Z</time>
      </trkpt>
      <trkpt lat="49.9467" lon="2.14995">
        <ele>15.4</ele>
        <time>2022-04-11T14:58:06Z</time>
      </trkpt>
      <trkpt lat="49.94671" lon="2.14994">
        <ele>15.4</ele>
        <time>2022-04-11T14:58:08Z</time>
      </trkpt>
      <trkpt lat="49.94671" lon="2.14992">
        <ele>15.4</ele>
        <time>2022-04-11T14:58:09Z</time>
      </trkpt>
      <trkpt lat="49.94672" lon="2.14991">
        <ele>15.4</ele>
        <time>2022-04-11T14:58:10Z</time>
      </trkpt>
      <trkpt lat="49.94672" lon="2.14987">
        <ele>15.4</ele>
        <time>2022-04-11T14:58:11Z</time>
      </trkpt>
      <trkpt lat="49.94673" lon="2.14986">
        <ele>15.4</ele>
        <time>2022-04-11T14:58:12Z</time>
      </trkpt>
      <trkpt lat="49.94673" lon="2.14985">
        <ele>15.4</ele>
        <time>2022-04-11T14:58:13Z</time>
      </trkpt>
      <trkpt lat="49.94673" lon="2.14983">
        <ele>15.4</ele>
        <time>2022-04-11T14:58:14Z</time>
      </trkpt>
      <trkpt lat="49.94674" lon="2.14981">
        <ele>15.4</ele>
        <time>2022-04-11T14:58:15Z</time>
      </trkpt>
      <trkpt lat="49.94674" lon="2.14979">
        <ele>15.4</ele>
        <time>2022-04-11T14:58:16Z</time>
      </trkpt>
      <trkpt lat="49.94674" lon="2.14977">
        <ele>15.4</ele>
        <time>2022-04-11T14:58:17Z</time>
      </trkpt>
      <trkpt lat="49.94675" lon="2.14975">
        <ele>15.4</ele>
        <time>2022-04-11T14:58:18Z</time>
      </trkpt>
      <trkpt lat="49.94675" lon="2.14972">
        <ele>15.4</ele>
        <time>2022-04-11T14:58:20Z</time>
      </trkpt>
      <trkpt lat="49.94676" lon="2.14971">
        <ele>15.4</ele>
        <time>2022-04-11T14:58:21Z</time>
      </trkpt>
      <trkpt lat="49.94676" lon="2.1497">
        <ele>15.4</ele>
        <time>2022-04-11T14:58:22Z</time>
      </trkpt>
      <trkpt lat="49.94677" lon="2.14967">
        <ele>15.4</ele>
        <time>2022-04-11T14:58:23Z</time>
      </trkpt>
      <trkpt lat="49.94677" lon="2.14965">
        <ele>15.4</ele>
        <time>2022-04-11T14:58:24Z</time>
      </trkpt>
      <trkpt lat="49.94677" lon="2.14964">
        <ele>15.4</ele>
        <time>2022-04-11T14:58:25Z</time>
      </trkpt>
      <trkpt lat="49.94677" lon="2.14962">
        <ele>15.4</ele>
        <time>2022-04-11T14:58:26Z</time>
      </trkpt>
      <trkpt lat="49.94677" lon="2.14959">
        <ele>15.4</ele>
        <time>2022-04-11T14:58:27Z</time>
      </trkpt>
      <trkpt lat="49.94677" lon="2.14956">
        <ele>15.4</ele>
        <time>2022-04-11T14:58:29Z</time>
      </trkpt>
      <trkpt lat="49.94677" lon="2.14954">
        <ele>15.4</ele>
        <time>2022-04-11T14:58:30Z</time>
      </trkpt>
      <trkpt lat="49.94677" lon="2.14952">
        <ele>15.4</ele>
        <time>2022-04-11T14:58:31Z</time>
      </trkpt>
      <trkpt lat="49.94677" lon="2.14949">
        <ele>15.4</ele>
        <time>2022-04-11T14:58:32Z</time>
      </trkpt>
      <trkpt lat="49.94676" lon="2.14946">
        <ele>15.4</ele>
        <time>2022-04-11T14:58:33Z</time>
      </trkpt>
      <trkpt lat="49.94676" lon="2.14944">
        <ele>15.4</ele>
        <time>2022-04-11T14:58:34Z</time>
      </trkpt>
      <trkpt lat="49.94676" lon="2.1494">
        <ele>15.4</ele>
        <time>2022-04-11T14:58:35Z</time>
      </trkpt>
      <trkpt lat="49.94676" lon="2.14938">
        <ele>15.4</ele>
        <time>2022-04-11T14:58:36Z</time>
      </trkpt>
      <trkpt lat="49.94676" lon="2.14934">
        <ele>15.4</ele>
        <time>2022-04-11T14:58:38Z</time>
      </trkpt>
      <trkpt lat="49.94676" lon="2.14932">
        <ele>15.4</ele>
        <time>2022-04-11T14:58:39Z</time>
      </trkpt>
      <trkpt lat="49.94676" lon="2.1493">
        <ele>15.4</ele>
        <time>2022-04-11T14:58:40Z</time>
      </trkpt>
      <trkpt lat="49.94676" lon="2.14927">
        <ele>15.4</ele>
        <time>2022-04-11T14:58:41Z</time>
      </trkpt>
      <trkpt lat="49.94676" lon="2.14924">
        <ele>15.4</ele>
        <time>2022-04-11T14:58:43Z</time>
      </trkpt>
      <trkpt lat="49.94676" lon="2.14922">
        <ele>15.4</ele>
        <time>2022-04-11T14:58:44Z</time>
      </trkpt>
      <trkpt lat="49.94676" lon="2.14919">
        <ele>15.4</ele>
        <time>2022-04-11T14:58:45Z</time>
      </trkpt>
      <trkpt lat="49.94676" lon="2.14917">
        <ele>15.4</ele>
        <time>2022-04-11T14:58:46Z</time>
      </trkpt>
      <trkpt lat="49.94676" lon="2.14916">
        <ele>15.4</ele>
        <time>2022-04-11T14:58:47Z</time>
      </trkpt>
      <trkpt lat="49.94677" lon="2.14915">
        <ele>15.4</ele>
        <time>2022-04-11T14:58:48Z</time>
      </trkpt>
      <trkpt lat="49.94677" lon="2.14913">
        <ele>15.4</ele>
        <time>2022-04-11T14:58:49Z</time>
      </trkpt>
      <trkpt lat="49.94678" lon="2.14912">
        <ele>15.4</ele>
        <time>2022-04-11T14:58:50Z</time>
      </trkpt>
      <trkpt lat="49.94678" lon="2.1491">
        <ele>15.4</ele>
        <time>2022-04-11T14:58:52Z</time>
      </trkpt>
      <trkpt lat="49.94679" lon="2.1491">
        <ele>15.4</ele>
        <time>2022-04-11T14:58:53Z</time>
      </trkpt>
      <trkpt lat="49.94679" lon="2.14909">
        <ele>15.4</ele>
        <time>2022-04-11T14:58:54Z</time>
      </trkpt>
      <trkpt lat="49.9468" lon="2.14908">
        <ele>15.4</ele>
        <time>2022-04-11T14:58:55Z</time>
      </trkpt>
      <trkpt lat="49.9468" lon="2.14907">
        <ele>15.4</ele>
        <time>2022-04-11T14:58:56Z</time>
      </trkpt>
      <trkpt lat="49.94681" lon="2.14905">
        <ele>15.4</ele>
        <time>2022-04-11T14:58:57Z</time>
      </trkpt>
      <trkpt lat="49.94681" lon="2.14905">
        <ele>15.4</ele>
        <time>2022-04-11T14:58:58Z</time>
      </trkpt>
      <trkpt lat="49.94681" lon="2.14903">
        <ele>15.4</ele>
        <time>2022-04-11T14:58:59Z</time>
      </trkpt>
      <trkpt lat="49.94681" lon="2.14902">
        <ele>15.4</ele>
        <time>2022-04-11T14:59:00Z</time>
      </trkpt>
      <trkpt lat="49.94682" lon="2.14901">
        <ele>15.4</ele>
        <time>2022-04-11T14:59:01Z</time>
      </trkpt>
      <trkpt lat="49.94682" lon="2.149">
        <ele>15.4</ele>
        <time>2022-04-11T14:59:02Z</time>
      </trkpt>
      <trkpt lat="49.94682" lon="2.14899">
        <ele>15.4</ele>
        <time>2022-04-11T14:59:03Z</time>
      </trkpt>
      <trkpt lat="49.94682" lon="2.14898">
        <ele>15.4</ele>
        <time>2022-04-11T14:59:04Z</time>
      </trkpt>
      <trkpt lat="49.94683" lon="2.14896">
        <ele>15.4</ele>
        <time>2022-04-11T14:59:06Z</time>
      </trkpt>
      <trkpt lat="49.94683" lon="2.14895">
        <ele>15.4</ele>
        <time>2022-04-11T14:59:07Z</time>
      </trkpt>
      <trkpt lat="49.94683" lon="2.14891">
        <ele>15.4</ele>
        <time>2022-04-11T14:59:08Z</time>
      </trkpt>
      <trkpt lat="49.94683" lon="2.1489">
        <ele>15.4</ele>
        <time>2022-04-11T14:59:09Z</time>
      </trkpt>
      <trkpt lat="49.94683" lon="2.14889">
        <ele>15.4</ele>
        <time>2022-04-11T14:59:10Z</time>
      </trkpt>
      <trkpt lat="49.94684" lon="2.14885">
        <ele>15.4</ele>
        <time>2022-04-11T14:59:11Z</time>
      </trkpt>
      <trkpt lat="49.94684" lon="2.14884">
        <ele>15.4</ele>
        <time>2022-04-11T14:59:13Z</time>
      </trkpt>
      <trkpt lat="49.94684" lon="2.14882">
        <ele>15.4</ele>
        <time>2022-04-11T14:59:14Z</time>
      </trkpt>
      <trkpt lat="49.94684" lon="2.1488">
        <ele>15.4</ele>
        <time>2022-04-11T14:59:15Z</time>
      </trkpt>
      <trkpt lat="49.94684" lon="2.14878">
        <ele>15.4</ele>
        <time>2022-04-11T14:59:16Z</time>
      </trkpt>
      <trkpt lat="49.94684" lon="2.14875">
        <ele>15.4</ele>
        <time>2022-04-11T14:59:17Z</time>
      </trkpt>
      <trkpt lat="49.94684" lon="2.14874">
        <ele>15.4</ele>
        <time>2022-04-11T14:59:18Z</time>
      </trkpt>
      <trkpt lat="49.94684" lon="2.14872">
        <ele>15.4</ele>
        <time>2022-04-11T14:59:19Z</time>
      </trkpt>
      <trkpt lat="49.94684" lon="2.14868">
        <ele>15.4</ele>
        <time>2022-04-11T14:59:21Z</time>
      </trkpt>
      <trkpt lat="49.94684" lon="2.14866">
        <ele>15.4</ele>
        <time>2022-04-11T14:59:22Z</time>
      </trkpt>
      <trkpt lat="49.94684" lon="2.14864">
        <ele>15.4</ele>
        <time>2022-04-11T14:59:23Z</time>
      </trkpt>
      <trkpt lat="49.94683" lon="2.14861">
        <ele>15.4</ele>
        <time>2022-04-11T14:59:24Z</time>
      </trkpt>
      <trkpt lat="49.94682" lon="2.14859">
        <ele>15.4</ele>
        <time>2022-04-11T14:59:25Z</time>
      </trkpt>
      <trkpt lat="49.94682" lon="2.14857">
        <ele>15.4</ele>
        <time>2022-04-11T14:59:26Z</time>
      </trkpt>
      <trkpt lat="49.94681" lon="2.14852">
        <ele>15.5</ele>
        <time>2022-04-11T14:59:28Z</time>
      </trkpt>
      <trkpt lat="49.94681" lon="2.14851">
        <ele>15.5</ele>
        <time>2022-04-11T14:59:29Z</time>
      </trkpt>
      <trkpt lat="49.9468" lon="2.14848">
        <ele>15.5</ele>
        <time>2022-04-11T14:59:30Z</time>
      </trkpt>
      <trkpt lat="49.9468" lon="2.14847">
        <ele>15.5</ele>
        <time>2022-04-11T14:59:31Z</time>
      </trkpt>
      <trkpt lat="49.9468" lon="2.14845">
        <ele>15.5</ele>
        <time>2022-04-11T14:59:32Z</time>
      </trkpt>
      <trkpt lat="49.9468" lon="2.14843">
        <ele>15.5</ele>
        <time>2022-04-11T14:59:33Z</time>
      </trkpt>
      <trkpt lat="49.9468" lon="2.14841">
        <ele>15.5</ele>
        <time>2022-04-11T14:59:34Z</time>
      </trkpt>
      <trkpt lat="49.94679" lon="2.14839">
        <ele>15.5</ele>
        <time>2022-04-11T14:59:35Z</time>
      </trkpt>
      <trkpt lat="49.94679" lon="2.14837">
        <ele>15.5</ele>
        <time>2022-04-11T14:59:36Z</time>
      </trkpt>
      <trkpt lat="49.9468" lon="2.14834">
        <ele>15.5</ele>
        <time>2022-04-11T14:59:38Z</time>
      </trkpt>
      <trkpt lat="49.9468" lon="2.14833">
        <ele>15.5</ele>
        <time>2022-04-11T14:59:39Z</time>
      </trkpt>
      <trkpt lat="49.9468" lon="2.14831">
        <ele>15.5</ele>
        <time>2022-04-11T14:59:40Z</time>
      </trkpt>
      <trkpt lat="49.9468" lon="2.14828">
        <ele>15.5</ele>
        <time>2022-04-11T14:59:41Z</time>
      </trkpt>
      <trkpt lat="49.9468" lon="2.14826">
        <ele>15.6</ele>
        <time>2022-04-11T14:59:42Z</time>
      </trkpt>
      <trkpt lat="49.9468" lon="2.14823">
        <ele>15.6</ele>
        <time>2022-04-11T14:59:43Z</time>
      </trkpt>
      <trkpt lat="49.94681" lon="2.1482">
        <ele>15.6</ele>
        <time>2022-04-11T14:59:44Z</time>
      </trkpt>
      <trkpt lat="49.94681" lon="2.14819">
        <ele>15.6</ele>
        <time>2022-04-11T14:59:46Z</time>
      </trkpt>
      <trkpt lat="49.94681" lon="2.14817">
        <ele>15.6</ele>
        <time>2022-04-11T14:59:47Z</time>
      </trkpt>
      <trkpt lat="49.94681" lon="2.14815">
        <ele>15.6</ele>
        <time>2022-04-11T14:59:48Z</time>
      </trkpt>
      <trkpt lat="49.94682" lon="2.14813">
        <ele>15.6</ele>
        <time>2022-04-11T14:59:50Z</time>
      </trkpt>
      <trkpt lat="49.94682" lon="2.14812">
        <ele>15.6</ele>
        <time>2022-04-11T14:59:51Z</time>
      </trkpt>
      <trkpt lat="49.94682" lon="2.1481">
        <ele>15.6</ele>
        <time>2022-04-11T14:59:52Z</time>
      </trkpt>
      <trkpt lat="49.94682" lon="2.14808">
        <ele>15.6</ele>
        <time>2022-04-11T14:59:53Z</time>
      </trkpt>
      <trkpt lat="49.94682" lon="2.14806">
        <ele>15.6</ele>
        <time>2022-04-11T14:59:54Z</time>
      </trkpt>
      <trkpt lat="49.94682" lon="2.14804">
        <ele>15.7</ele>
        <time>2022-04-11T14:59:55Z</time>
      </trkpt>
      <trkpt lat="49.94682" lon="2.14803">
        <ele>15.7</ele>
        <time>2022-04-11T14:59:56Z</time>
      </trkpt>
      <trkpt lat="49.94682" lon="2.14801">
        <ele>15.7</ele>
        <time>2022-04-11T14:59:57Z</time>
      </trkpt>
      <trkpt lat="49.94682" lon="2.14799">
        <ele>15.7</ele>
        <time>2022-04-11T14:59:59Z</time>
      </trkpt>
      <trkpt lat="49.94682" lon="2.14798">
        <ele>15.7</ele>
        <time>2022-04-11T15:00:00Z</time>
      </trkpt>
      <trkpt lat="49.94682" lon="2.14796">
        <ele>15.7</ele>
        <time>2022-04-11T15:00:01Z</time>
      </trkpt>
      <trkpt lat="49.94682" lon="2.14794">
        <ele>15.7</ele>
        <time>2022-04-11T15:00:02Z</time>
      </trkpt>
      <trkpt lat="49.94682" lon="2.14793">
        <ele>15.7</ele>
        <time>2022-04-11T15:00:03Z</time>
      </trkpt>
      <trkpt lat="49.94682" lon="2.14791">
        <ele>15.7</ele>
        <time>2022-04-11T15:00:04Z</time>
      </trkpt>
      <trkpt lat="49.94682" lon="2.1479">
        <ele>15.7</ele>
        <time>2022-04-11T15:00:05Z</time>
      </trkpt>
      <trkpt lat="49.94681" lon="2.14789">
        <ele>15.7</ele>
        <time>2022-04-11T15:00:06Z</time>
      </trkpt>
      <trkpt lat="49.94681" lon="2.14787">
        <ele>15.7</ele>
        <time>2022-04-11T15:00:07Z</time>
      </trkpt>
      <trkpt lat="49.94681" lon="2.14787">
        <ele>15.7</ele>
        <time>2022-04-11T15:00:08Z</time>
      </trkpt>
      <trkpt lat="49.94681" lon="2.14786">
        <ele>15.7</ele>
        <time>2022-04-11T15:00:09Z</time>
      </trkpt>
      <trkpt lat="49.9468" lon="2.14785">
        <ele>15.7</ele>
        <time>2022-04-11T15:00:10Z</time>
      </trkpt>
      <trkpt lat="49.9468" lon="2.14784">
        <ele>15.7</ele>
        <time>2022-04-11T15:00:11Z</time>
      </trkpt>
      <trkpt lat="49.9468" lon="2.14782">
        <ele>15.7</ele>
        <time>2022-04-11T15:00:13Z</time>
      </trkpt>
      <trkpt lat="49.9468" lon="2.14781">
        <ele>15.7</ele>
        <time>2022-04-11T15:00:14Z</time>
      </trkpt>
      <trkpt lat="49.9468" lon="2.14779">
        <ele>15.7</ele>
        <time>2022-04-11T15:00:15Z</time>
      </trkpt>
      <trkpt lat="49.9468" lon="2.14778">
        <ele>15.7</ele>
        <time>2022-04-11T15:00:16Z</time>
      </trkpt>
      <trkpt lat="49.94679" lon="2.14779">
        <ele>15.7</ele>
        <time>2022-04-11T15:00:17Z</time>
      </trkpt>
      <trkpt lat="49.94678" lon="2.14779">
        <ele>15.7</ele>
        <time>2022-04-11T15:00:18Z</time>
      </trkpt>
      <trkpt lat="49.94678" lon="2.14778">
        <ele>15.7</ele>
        <time>2022-04-11T15:00:20Z</time>
      </trkpt>
      <trkpt lat="49.94678" lon="2.14777">
        <ele>15.7</ele>
        <time>2022-04-11T15:00:21Z</time>
      </trkpt>
      <trkpt lat="49.94677" lon="2.14775">
        <ele>15.7</ele>
        <time>2022-04-11T15:00:22Z</time>
      </trkpt>
      <trkpt lat="49.94677" lon="2.14774">
        <ele>15.7</ele>
        <time>2022-04-11T15:00:23Z</time>
      </trkpt>
      <trkpt lat="49.94677" lon="2.14772">
        <ele>15.7</ele>
        <time>2022-04-11T15:00:24Z</time>
      </trkpt>
      <trkpt lat="49.94677" lon="2.14771">
        <ele>15.7</ele>
        <time>2022-04-11T15:00:25Z</time>
      </trkpt>
      <trkpt lat="49.94676" lon="2.1477">
        <ele>15.7</ele>
        <time>2022-04-11T15:00:26Z</time>
      </trkpt>
      <trkpt lat="49.94676" lon="2.14768">
        <ele>15.6</ele>
        <time>2022-04-11T15:00:27Z</time>
      </trkpt>
      <trkpt lat="49.94675" lon="2.14767">
        <ele>15.6</ele>
        <time>2022-04-11T15:00:28Z</time>
      </trkpt>
      <trkpt lat="49.94675" lon="2.14766">
        <ele>15.6</ele>
        <time>2022-04-11T15:00:29Z</time>
      </trkpt>
      <trkpt lat="49.94674" lon="2.14764">
        <ele>15.6</ele>
        <time>2022-04-11T15:00:30Z</time>
      </trkpt>
      <trkpt lat="49.94673" lon="2.14762">
        <ele>15.6</ele>
        <time>2022-04-11T15:00:32Z</time>
      </trkpt>
      <trkpt lat="49.94672" lon="2.1476">
        <ele>15.6</ele>
        <time>2022-04-11T15:00:33Z</time>
      </trkpt>
      <trkpt lat="49.94672" lon="2.14759">
        <ele>15.6</ele>
        <time>2022-04-11T15:00:34Z</time>
      </trkpt>
      <trkpt lat="49.94671" lon="2.14757">
        <ele>15.6</ele>
        <time>2022-04-11T15:00:35Z</time>
      </trkpt>
      <trkpt lat="49.9467" lon="2.14755">
        <ele>15.6</ele>
        <time>2022-04-11T15:00:36Z</time>
      </trkpt>
      <trkpt lat="49.9467" lon="2.14754">
        <ele>15.6</ele>
        <time>2022-04-11T15:00:37Z</time>
      </trkpt>
      <trkpt lat="49.94669" lon="2.14752">
        <ele>15.6</ele>
        <time>2022-04-11T15:00:38Z</time>
      </trkpt>
      <trkpt lat="49.94668" lon="2.14749">
        <ele>15.6</ele>
        <time>2022-04-11T15:00:39Z</time>
      </trkpt>
      <trkpt lat="49.94667" lon="2.14748">
        <ele>15.6</ele>
        <time>2022-04-11T15:00:40Z</time>
      </trkpt>
      <trkpt lat="49.94666" lon="2.14748">
        <ele>15.6</ele>
        <time>2022-04-11T15:00:41Z</time>
      </trkpt>
      <trkpt lat="49.94665" lon="2.14745">
        <ele>15.6</ele>
        <time>2022-04-11T15:00:42Z</time>
      </trkpt>
      <trkpt lat="49.94665" lon="2.14744">
        <ele>15.6</ele>
        <time>2022-04-11T15:00:44Z</time>
      </trkpt>
      <trkpt lat="49.94664" lon="2.14743">
        <ele>15.6</ele>
        <time>2022-04-11T15:00:45Z</time>
      </trkpt>
      <trkpt lat="49.94664" lon="2.14741">
        <ele>15.6</ele>
        <time>2022-04-11T15:00:46Z</time>
      </trkpt>
      <trkpt lat="49.94663" lon="2.1474">
        <ele>15.6</ele>
        <time>2022-04-11T15:00:47Z</time>
      </trkpt>
      <trkpt lat="49.94662" lon="2.14739">
        <ele>15.6</ele>
        <time>2022-04-11T15:00:48Z</time>
      </trkpt>
      <trkpt lat="49.94662" lon="2.14737">
        <ele>15.6</ele>
        <time>2022-04-11T15:00:49Z</time>
      </trkpt>
      <trkpt lat="49.94661" lon="2.14736">
        <ele>15.6</ele>
        <time>2022-04-11T15:00:50Z</time>
      </trkpt>
      <trkpt lat="49.94661" lon="2.14734">
        <ele>15.6</ele>
        <time>2022-04-11T15:00:51Z</time>
      </trkpt>
      <trkpt lat="49.94661" lon="2.14732">
        <ele>15.6</ele>
        <time>2022-04-11T15:00:52Z</time>
      </trkpt>
      <trkpt lat="49.9466" lon="2.1473">
        <ele>15.6</ele>
        <time>2022-04-11T15:00:53Z</time>
      </trkpt>
      <trkpt lat="49.9466" lon="2.14729">
        <ele>15.6</ele>
        <time>2022-04-11T15:00:54Z</time>
      </trkpt>
      <trkpt lat="49.9466" lon="2.14727">
        <ele>15.6</ele>
        <time>2022-04-11T15:00:55Z</time>
      </trkpt>
      <trkpt lat="49.94659" lon="2.14726">
        <ele>15.6</ele>
        <time>2022-04-11T15:00:56Z</time>
      </trkpt>
      <trkpt lat="49.94659" lon="2.14724">
        <ele>15.6</ele>
        <time>2022-04-11T15:00:57Z</time>
      </trkpt>
      <trkpt lat="49.94658" lon="2.14722">
        <ele>15.6</ele>
        <time>2022-04-11T15:00:59Z</time>
      </trkpt>
      <trkpt lat="49.94657" lon="2.1472">
        <ele>15.6</ele>
        <time>2022-04-11T15:01:00Z</time>
      </trkpt>
      <trkpt lat="49.94657" lon="2.14719">
        <ele>15.6</ele>
        <time>2022-04-11T15:01:01Z</time>
      </trkpt>
      <trkpt lat="49.94656" lon="2.14717">
        <ele>15.6</ele>
        <time>2022-04-11T15:01:02Z</time>
      </trkpt>
      <trkpt lat="49.94655" lon="2.14715">
        <ele>15.5</ele>
        <time>2022-04-11T15:01:03Z</time>
      </trkpt>
      <trkpt lat="49.94654" lon="2.14712">
        <ele>15.5</ele>
        <time>2022-04-11T15:01:04Z</time>
      </trkpt>
      <trkpt lat="49.94653" lon="2.14711">
        <ele>15.5</ele>
        <time>2022-04-11T15:01:05Z</time>
      </trkpt>
      <trkpt lat="49.94653" lon="2.1471">
        <ele>15.5</ele>
        <time>2022-04-11T15:01:06Z</time>
      </trkpt>
      <trkpt lat="49.94652" lon="2.14707">
        <ele>15.5</ele>
        <time>2022-04-11T15:01:07Z</time>
      </trkpt>
      <trkpt lat="49.94651" lon="2.14706">
        <ele>15.5</ele>
        <time>2022-04-11T15:01:08Z</time>
      </trkpt>
      <trkpt lat="49.94651" lon="2.14705">
        <ele>15.5</ele>
        <time>2022-04-11T15:01:09Z</time>
      </trkpt>
      <trkpt lat="49.9465" lon="2.14702">
        <ele>15.5</ele>
        <time>2022-04-11T15:01:10Z</time>
      </trkpt>
      <trkpt lat="49.9465" lon="2.14701">
        <ele>15.5</ele>
        <time>2022-04-11T15:01:11Z</time>
      </trkpt>
      <trkpt lat="49.94649" lon="2.14699">
        <ele>15.5</ele>
        <time>2022-04-11T15:01:12Z</time>
      </trkpt>
      <trkpt lat="49.94648" lon="2.14696">
        <ele>15.5</ele>
        <time>2022-04-11T15:01:14Z</time>
      </trkpt>
      <trkpt lat="49.94648" lon="2.14695">
        <ele>15.5</ele>
        <time>2022-04-11T15:01:15Z</time>
      </trkpt>
      <trkpt lat="49.94648" lon="2.14694">
        <ele>15.5</ele>
        <time>2022-04-11T15:01:16Z</time>
      </trkpt>
      <trkpt lat="49.94647" lon="2.14692">
        <ele>15.4</ele>
        <time>2022-04-11T15:01:17Z</time>
      </trkpt>
      <trkpt lat="49.94646" lon="2.14691">
        <ele>15.4</ele>
        <time>2022-04-11T15:01:18Z</time>
      </trkpt>
      <trkpt lat="49.94646" lon="2.14689">
        <ele>15.4</ele>
        <time>2022-04-11T15:01:19Z</time>
      </trkpt>
      <trkpt lat="49.94645" lon="2.14687">
        <ele>15.4</ele>
        <time>2022-04-11T15:01:20Z</time>
      </trkpt>
      <trkpt lat="49.94645" lon="2.14685">
        <ele>15.4</ele>
        <time>2022-04-11T15:01:21Z</time>
      </trkpt>
      <trkpt lat="49.94644" lon="2.14684">
        <ele>15.4</ele>
        <time>2022-04-11T15:01:23Z</time>
      </trkpt>
      <trkpt lat="49.94644" lon="2.14682">
        <ele>15.4</ele>
        <time>2022-04-11T15:01:24Z</time>
      </trkpt>
      <trkpt lat="49.94643" lon="2.14681">
        <ele>15.4</ele>
        <time>2022-04-11T15:01:25Z</time>
      </trkpt>
      <trkpt lat="49.94642" lon="2.14678">
        <ele>15.4</ele>
        <time>2022-04-11T15:01:26Z</time>
      </trkpt>
      <trkpt lat="49.94642" lon="2.14676">
        <ele>15.4</ele>
        <time>2022-04-11T15:01:27Z</time>
      </trkpt>
      <trkpt lat="49.94642" lon="2.14675">
        <ele>15.4</ele>
        <time>2022-04-11T15:01:28Z</time>
      </trkpt>
      <trkpt lat="49.94641" lon="2.14673">
        <ele>15.4</ele>
        <time>2022-04-11T15:01:29Z</time>
      </trkpt>
      <trkpt lat="49.94641" lon="2.14671">
        <ele>15.4</ele>
        <time>2022-04-11T15:01:30Z</time>
      </trkpt>
      <trkpt lat="49.9464" lon="2.14669">
        <ele>15.4</ele>
        <time>2022-04-11T15:01:32Z</time>
      </trkpt>
      <trkpt lat="49.9464" lon="2.14667">
        <ele>15.3</ele>
        <time>2022-04-11T15:01:33Z</time>
      </trkpt>
      <trkpt lat="49.94639" lon="2.14665">
        <ele>15.3</ele>
        <time>2022-04-11T15:01:34Z</time>
      </trkpt>
      <trkpt lat="49.94638" lon="2.14663">
        <ele>15.3</ele>
        <time>2022-04-11T15:01:35Z</time>
      </trkpt>
      <trkpt lat="49.94637" lon="2.1466">
        <ele>15.3</ele>
        <time>2022-04-11T15:01:36Z</time>
      </trkpt>
      <trkpt lat="49.94637" lon="2.14659">
        <ele>15.3</ele>
        <time>2022-04-11T15:01:37Z</time>
      </trkpt>
      <trkpt lat="49.94637" lon="2.14658">
        <ele>15.3</ele>
        <time>2022-04-11T15:01:38Z</time>
      </trkpt>
      <trkpt lat="49.94636" lon="2.14655">
        <ele>15.3</ele>
        <time>2022-04-11T15:01:39Z</time>
      </trkpt>
      <trkpt lat="49.94635" lon="2.14653">
        <ele>15.3</ele>
        <time>2022-04-11T15:01:40Z</time>
      </trkpt>
      <trkpt lat="49.94635" lon="2.14652">
        <ele>15.3</ele>
        <time>2022-04-11T15:01:41Z</time>
      </trkpt>
      <trkpt lat="49.94634" lon="2.1465">
        <ele>15.3</ele>
        <time>2022-04-11T15:01:42Z</time>
      </trkpt>
      <trkpt lat="49.94633" lon="2.14647">
        <ele>15.3</ele>
        <time>2022-04-11T15:01:43Z</time>
      </trkpt>
      <trkpt lat="49.94633" lon="2.14645">
        <ele>15.2</ele>
        <time>2022-04-11T15:01:45Z</time>
      </trkpt>
      <trkpt lat="49.94632" lon="2.14643">
        <ele>15.2</ele>
        <time>2022-04-11T15:01:46Z</time>
      </trkpt>
      <trkpt lat="49.94632" lon="2.14641">
        <ele>15.2</ele>
        <time>2022-04-11T15:01:47Z</time>
      </trkpt>
      <trkpt lat="49.94631" lon="2.14639">
        <ele>15.2</ele>
        <time>2022-04-11T15:01:48Z</time>
      </trkpt>
      <trkpt lat="49.9463" lon="2.14637">
        <ele>15.2</ele>
        <time>2022-04-11T15:01:49Z</time>
      </trkpt>
      <trkpt lat="49.9463" lon="2.14634">
        <ele>15.2</ele>
        <time>2022-04-11T15:01:51Z</time>
      </trkpt>
      <trkpt lat="49.94629" lon="2.14632">
        <ele>15.2</ele>
        <time>2022-04-11T15:01:52Z</time>
      </trkpt>
      <trkpt lat="49.94629" lon="2.1463">
        <ele>15.2</ele>
        <time>2022-04-11T15:01:53Z</time>
      </trkpt>
      <trkpt lat="49.94628" lon="2.14628">
        <ele>15.2</ele>
        <time>2022-04-11T15:01:54Z</time>
      </trkpt>
      <trkpt lat="49.94627" lon="2.14626">
        <ele>15.2</ele>
        <time>2022-04-11T15:01:55Z</time>
      </trkpt>
      <trkpt lat="49.94626" lon="2.14623">
        <ele>15.2</ele>
        <time>2022-04-11T15:01:56Z</time>
      </trkpt>
      <trkpt lat="49.94626" lon="2.14622">
        <ele>15.2</ele>
        <time>2022-04-11T15:01:57Z</time>
      </trkpt>
      <trkpt lat="49.94626" lon="2.1462">
        <ele>15.2</ele>
        <time>2022-04-11T15:01:58Z</time>
      </trkpt>
      <trkpt lat="49.94625" lon="2.14618">
        <ele>15.2</ele>
        <time>2022-04-11T15:01:59Z</time>
      </trkpt>
      <trkpt lat="49.94624" lon="2.14616">
        <ele>15.2</ele>
        <time>2022-04-11T15:02:00Z</time>
      </trkpt>
      <trkpt lat="49.94624" lon="2.14615">
        <ele>15.1</ele>
        <time>2022-04-11T15:02:01Z</time>
      </trkpt>
      <trkpt lat="49.94623" lon="2.14613">
        <ele>15.1</ele>
        <time>2022-04-11T15:02:02Z</time>
      </trkpt>
      <trkpt lat="49.94623" lon="2.14612">
        <ele>15.1</ele>
        <time>2022-04-11T15:02:03Z</time>
      </trkpt>
      <trkpt lat="49.94623" lon="2.1461">
        <ele>15.1</ele>
        <time>2022-04-11T15:02:05Z</time>
      </trkpt>
      <trkpt lat="49.94622" lon="2.14609">
        <ele>15.1</ele>
        <time>2022-04-11T15:02:06Z</time>
      </trkpt>
      <trkpt lat="49.94622" lon="2.14607">
        <ele>15.1</ele>
        <time>2022-04-11T15:02:07Z</time>
      </trkpt>
      <trkpt lat="49.94622" lon="2.14605">
        <ele>15.1</ele>
        <time>2022-04-11T15:02:08Z</time>
      </trkpt>
      <trkpt lat="49.94622" lon="2.14604">
        <ele>15.1</ele>
        <time>2022-04-11T15:02:09Z</time>
      </trkpt>
      <trkpt lat="49.94621" lon="2.14602">
        <ele>15.1</ele>
        <time>2022-04-11T15:02:10Z</time>
      </trkpt>
      <trkpt lat="49.94621" lon="2.146">
        <ele>15.1</ele>
        <time>2022-04-11T15:02:11Z</time>
      </trkpt>
      <trkpt lat="49.94621" lon="2.14599">
        <ele>15.1</ele>
        <time>2022-04-11T15:02:12Z</time>
      </trkpt>
      <trkpt lat="49.94621" lon="2.14597">
        <ele>15.1</ele>
        <time>2022-04-11T15:02:14Z</time>
      </trkpt>
      <trkpt lat="49.94621" lon="2.14595">
        <ele>15</ele>
        <time>2022-04-11T15:02:15Z</time>
      </trkpt>
      <trkpt lat="49.94621" lon="2.14593">
        <ele>15</ele>
        <time>2022-04-11T15:02:16Z</time>
      </trkpt>
      <trkpt lat="49.9462" lon="2.14592">
        <ele>15</ele>
        <time>2022-04-11T15:02:17Z</time>
      </trkpt>
      <trkpt lat="49.9462" lon="2.14589">
        <ele>15</ele>
        <time>2022-04-11T15:02:18Z</time>
      </trkpt>
      <trkpt lat="49.9462" lon="2.14588">
        <ele>15</ele>
        <time>2022-04-11T15:02:19Z</time>
      </trkpt>
      <trkpt lat="49.94619" lon="2.14586">
        <ele>15</ele>
        <time>2022-04-11T15:02:20Z</time>
      </trkpt>
      <trkpt lat="49.94619" lon="2.14584">
        <ele>14.9</ele>
        <time>2022-04-11T15:02:22Z</time>
      </trkpt>
      <trkpt lat="49.94619" lon="2.14582">
        <ele>14.9</ele>
        <time>2022-04-11T15:02:23Z</time>
      </trkpt>
      <trkpt lat="49.94618" lon="2.1458">
        <ele>14.9</ele>
        <time>2022-04-11T15:02:24Z</time>
      </trkpt>
      <trkpt lat="49.94618" lon="2.14579">
        <ele>14.9</ele>
        <time>2022-04-11T15:02:25Z</time>
      </trkpt>
      <trkpt lat="49.94618" lon="2.14577">
        <ele>14.9</ele>
        <time>2022-04-11T15:02:26Z</time>
      </trkpt>
      <trkpt lat="49.94618" lon="2.14576">
        <ele>14.9</ele>
        <time>2022-04-11T15:02:27Z</time>
      </trkpt>
      <trkpt lat="49.94618" lon="2.14574">
        <ele>14.9</ele>
        <time>2022-04-11T15:02:28Z</time>
      </trkpt>
      <trkpt lat="49.94618" lon="2.14572">
        <ele>14.9</ele>
        <time>2022-04-11T15:02:29Z</time>
      </trkpt>
      <trkpt lat="49.94618" lon="2.14571">
        <ele>14.8</ele>
        <time>2022-04-11T15:02:30Z</time>
      </trkpt>
      <trkpt lat="49.94617" lon="2.14569">
        <ele>14.8</ele>
        <time>2022-04-11T15:02:31Z</time>
      </trkpt>
      <trkpt lat="49.94617" lon="2.14568">
        <ele>14.8</ele>
        <time>2022-04-11T15:02:32Z</time>
      </trkpt>
      <trkpt lat="49.94617" lon="2.14566">
        <ele>14.8</ele>
        <time>2022-04-11T15:02:33Z</time>
      </trkpt>
      <trkpt lat="49.94617" lon="2.14565">
        <ele>14.8</ele>
        <time>2022-04-11T15:02:35Z</time>
      </trkpt>
      <trkpt lat="49.94617" lon="2.14564">
        <ele>14.8</ele>
        <time>2022-04-11T15:02:36Z</time>
      </trkpt>
      <trkpt lat="49.94617" lon="2.14561">
        <ele>14.8</ele>
        <time>2022-04-11T15:02:37Z</time>
      </trkpt>
      <trkpt lat="49.94616" lon="2.1456">
        <ele>14.8</ele>
        <time>2022-04-11T15:02:38Z</time>
      </trkpt>
      <trkpt lat="49.94616" lon="2.14559">
        <ele>14.8</ele>
        <time>2022-04-11T15:02:39Z</time>
      </trkpt>
      <trkpt lat="49.94616" lon="2.14558">
        <ele>14.8</ele>
        <time>2022-04-11T15:02:40Z</time>
      </trkpt>
      <trkpt lat="49.94616" lon="2.14556">
        <ele>14.8</ele>
        <time>2022-04-11T15:02:41Z</time>
      </trkpt>
      <trkpt lat="49.94616" lon="2.14555">
        <ele>14.8</ele>
        <time>2022-04-11T15:02:42Z</time>
      </trkpt>
      <trkpt lat="49.94616" lon="2.14553">
        <ele>14.7</ele>
        <time>2022-04-11T15:02:43Z</time>
      </trkpt>
      <trkpt lat="49.94616" lon="2.14551">
        <ele>14.7</ele>
        <time>2022-04-11T15:02:44Z</time>
      </trkpt>
      <trkpt lat="49.94616" lon="2.1455">
        <ele>14.7</ele>
        <time>2022-04-11T15:02:45Z</time>
      </trkpt>
      <trkpt lat="49.94616" lon="2.14548">
        <ele>14.7</ele>
        <time>2022-04-11T15:02:46Z</time>
      </trkpt>
      <trkpt lat="49.94616" lon="2.14547">
        <ele>14.7</ele>
        <time>2022-04-11T15:02:48Z</time>
      </trkpt>
      <trkpt lat="49.94616" lon="2.14545">
        <ele>14.7</ele>
        <time>2022-04-11T15:02:49Z</time>
      </trkpt>
      <trkpt lat="49.94615" lon="2.14544">
        <ele>14.7</ele>
        <time>2022-04-11T15:02:50Z</time>
      </trkpt>
      <trkpt lat="49.94615" lon="2.14543">
        <ele>14.7</ele>
        <time>2022-04-11T15:02:51Z</time>
      </trkpt>
      <trkpt lat="49.94615" lon="2.14541">
        <ele>14.7</ele>
        <time>2022-04-11T15:02:52Z</time>
      </trkpt>
      <trkpt lat="49.94615" lon="2.14539">
        <ele>14.7</ele>
        <time>2022-04-11T15:02:53Z</time>
      </trkpt>
      <trkpt lat="49.94616" lon="2.14538">
        <ele>14.7</ele>
        <time>2022-04-11T15:02:54Z</time>
      </trkpt>
      <trkpt lat="49.94616" lon="2.14536">
        <ele>14.7</ele>
        <time>2022-04-11T15:02:55Z</time>
      </trkpt>
      <trkpt lat="49.94616" lon="2.14535">
        <ele>14.7</ele>
        <time>2022-04-11T15:02:57Z</time>
      </trkpt>
      <trkpt lat="49.94617" lon="2.14534">
        <ele>14.7</ele>
        <time>2022-04-11T15:02:58Z</time>
      </trkpt>
      <trkpt lat="49.94617" lon="2.14534">
        <ele>14.7</ele>
        <time>2022-04-11T15:02:59Z</time>
      </trkpt>
      <trkpt lat="49.94618" lon="2.14533">
        <ele>14.7</ele>
        <time>2022-04-11T15:03:00Z</time>
      </trkpt>
      <trkpt lat="49.94618" lon="2.14532">
        <ele>14.6</ele>
        <time>2022-04-11T15:03:01Z</time>
      </trkpt>
      <trkpt lat="49.94618" lon="2.1453">
        <ele>14.6</ele>
        <time>2022-04-11T15:03:02Z</time>
      </trkpt>
      <trkpt lat="49.94618" lon="2.14529">
        <ele>14.6</ele>
        <time>2022-04-11T15:03:03Z</time>
      </trkpt>
      <trkpt lat="49.94617" lon="2.14527">
        <ele>14.6</ele>
        <time>2022-04-11T15:03:04Z</time>
      </trkpt>
      <trkpt lat="49.94617" lon="2.14526">
        <ele>14.6</ele>
        <time>2022-04-11T15:03:05Z</time>
      </trkpt>
      <trkpt lat="49.94617" lon="2.14525">
        <ele>14.6</ele>
        <time>2022-04-11T15:03:06Z</time>
      </trkpt>
      <trkpt lat="49.94617" lon="2.14524">
        <ele>14.6</ele>
        <time>2022-04-11T15:03:07Z</time>
      </trkpt>
      <trkpt lat="49.94617" lon="2.14522">
        <ele>14.6</ele>
        <time>2022-04-11T15:03:09Z</time>
      </trkpt>
      <trkpt lat="49.94617" lon="2.1452">
        <ele>14.6</ele>
        <time>2022-04-11T15:03:10Z</time>
      </trkpt>
      <trkpt lat="49.94617" lon="2.14519">
        <ele>14.6</ele>
        <time>2022-04-11T15:03:11Z</time>
      </trkpt>
      <trkpt lat="49.94617" lon="2.14517">
        <ele>14.6</ele>
        <time>2022-04-11T15:03:12Z</time>
      </trkpt>
      <trkpt lat="49.94616" lon="2.14515">
        <ele>14.6</ele>
        <time>2022-04-11T15:03:13Z</time>
      </trkpt>
      <trkpt lat="49.94616" lon="2.14513">
        <ele>14.6</ele>
        <time>2022-04-11T15:03:14Z</time>
      </trkpt>
      <trkpt lat="49.94615" lon="2.14511">
        <ele>14.6</ele>
        <time>2022-04-11T15:03:15Z</time>
      </trkpt>
      <trkpt lat="49.94615" lon="2.14509">
        <ele>14.6</ele>
        <time>2022-04-11T15:03:16Z</time>
      </trkpt>
      <trkpt lat="49.94614" lon="2.14507">
        <ele>14.6</ele>
        <time>2022-04-11T15:03:17Z</time>
      </trkpt>
      <trkpt lat="49.94613" lon="2.14504">
        <ele>14.6</ele>
        <time>2022-04-11T15:03:18Z</time>
      </trkpt>
      <trkpt lat="49.94613" lon="2.14503">
        <ele>14.6</ele>
        <time>2022-04-11T15:03:20Z</time>
      </trkpt>
      <trkpt lat="49.94613" lon="2.14501">
        <ele>14.6</ele>
        <time>2022-04-11T15:03:21Z</time>
      </trkpt>
      <trkpt lat="49.94613" lon="2.14498">
        <ele>14.6</ele>
        <time>2022-04-11T15:03:22Z</time>
      </trkpt>
      <trkpt lat="49.94613" lon="2.14497">
        <ele>14.6</ele>
        <time>2022-04-11T15:03:23Z</time>
      </trkpt>
      <trkpt lat="49.94613" lon="2.14495">
        <ele>14.6</ele>
        <time>2022-04-11T15:03:24Z</time>
      </trkpt>
      <trkpt lat="49.94613" lon="2.14493">
        <ele>14.6</ele>
        <time>2022-04-11T15:03:25Z</time>
      </trkpt>
      <trkpt lat="49.94613" lon="2.14491">
        <ele>14.6</ele>
        <time>2022-04-11T15:03:26Z</time>
      </trkpt>
      <trkpt lat="49.94613" lon="2.14487">
        <ele>14.6</ele>
        <time>2022-04-11T15:03:27Z</time>
      </trkpt>
      <trkpt lat="49.94613" lon="2.14486">
        <ele>14.6</ele>
        <time>2022-04-11T15:03:29Z</time>
      </trkpt>
      <trkpt lat="49.94613" lon="2.14484">
        <ele>14.6</ele>
        <time>2022-04-11T15:03:30Z</time>
      </trkpt>
      <trkpt lat="49.94613" lon="2.14482">
        <ele>14.6</ele>
        <time>2022-04-11T15:03:31Z</time>
      </trkpt>
      <trkpt lat="49.94613" lon="2.1448">
        <ele>14.6</ele>
        <time>2022-04-11T15:03:32Z</time>
      </trkpt>
      <trkpt lat="49.94612" lon="2.14478">
        <ele>14.6</ele>
        <time>2022-04-11T15:03:33Z</time>
      </trkpt>
      <trkpt lat="49.94612" lon="2.14476">
        <ele>14.6</ele>
        <time>2022-04-11T15:03:34Z</time>
      </trkpt>
      <trkpt lat="49.94613" lon="2.14472">
        <ele>14.5</ele>
        <time>2022-04-11T15:03:35Z</time>
      </trkpt>
      <trkpt lat="49.94613" lon="2.14471">
        <ele>14.5</ele>
        <time>2022-04-11T15:03:36Z</time>
      </trkpt>
      <trkpt lat="49.94613" lon="2.1447">
        <ele>14.5</ele>
        <time>2022-04-11T15:03:37Z</time>
      </trkpt>
      <trkpt lat="49.94613" lon="2.14468">
        <ele>14.5</ele>
        <time>2022-04-11T15:03:38Z</time>
      </trkpt>
      <trkpt lat="49.94613" lon="2.14467">
        <ele>14.5</ele>
        <time>2022-04-11T15:03:40Z</time>
      </trkpt>
      <trkpt lat="49.94613" lon="2.14465">
        <ele>14.5</ele>
        <time>2022-04-11T15:03:41Z</time>
      </trkpt>
      <trkpt lat="49.94614" lon="2.14463">
        <ele>14.5</ele>
        <time>2022-04-11T15:03:42Z</time>
      </trkpt>
      <trkpt lat="49.94614" lon="2.14462">
        <ele>14.5</ele>
        <time>2022-04-11T15:03:43Z</time>
      </trkpt>
      <trkpt lat="49.94614" lon="2.1446">
        <ele>14.5</ele>
        <time>2022-04-11T15:03:44Z</time>
      </trkpt>
      <trkpt lat="49.94614" lon="2.14458">
        <ele>14.5</ele>
        <time>2022-04-11T15:03:45Z</time>
      </trkpt>
      <trkpt lat="49.94615" lon="2.14457">
        <ele>14.5</ele>
        <time>2022-04-11T15:03:46Z</time>
      </trkpt>
      <trkpt lat="49.94615" lon="2.14456">
        <ele>14.5</ele>
        <time>2022-04-11T15:03:47Z</time>
      </trkpt>
      <trkpt lat="49.94615" lon="2.14455">
        <ele>14.5</ele>
        <time>2022-04-11T15:03:48Z</time>
      </trkpt>
      <trkpt lat="49.94616" lon="2.14454">
        <ele>14.5</ele>
        <time>2022-04-11T15:03:50Z</time>
      </trkpt>
      <trkpt lat="49.94616" lon="2.14452">
        <ele>14.5</ele>
        <time>2022-04-11T15:03:51Z</time>
      </trkpt>
      <trkpt lat="49.94617" lon="2.14451">
        <ele>14.5</ele>
        <time>2022-04-11T15:03:52Z</time>
      </trkpt>
      <trkpt lat="49.94618" lon="2.1445">
        <ele>14.5</ele>
        <time>2022-04-11T15:03:54Z</time>
      </trkpt>
      <trkpt lat="49.94618" lon="2.14449">
        <ele>14.5</ele>
        <time>2022-04-11T15:03:55Z</time>
      </trkpt>
      <trkpt lat="49.94618" lon="2.14449">
        <ele>14.5</ele>
        <time>2022-04-11T15:03:56Z</time>
      </trkpt>
      <trkpt lat="49.94618" lon="2.14449">
        <ele>14.5</ele>
        <time>2022-04-11T15:03:57Z</time>
      </trkpt>
      <trkpt lat="49.94618" lon="2.1445">
        <ele>14.5</ele>
        <time>2022-04-11T15:03:58Z</time>
      </trkpt>
      <trkpt lat="49.94618" lon="2.1445">
        <ele>14.5</ele>
        <time>2022-04-11T15:03:59Z</time>
      </trkpt>
      <trkpt lat="49.94618" lon="2.1445">
        <ele>14.5</ele>
        <time>2022-04-11T15:04:00Z</time>
      </trkpt>
      <trkpt lat="49.94619" lon="2.1445">
        <ele>14.5</ele>
        <time>2022-04-11T15:04:01Z</time>
      </trkpt>
      <trkpt lat="49.94619" lon="2.14449">
        <ele>14.5</ele>
        <time>2022-04-11T15:04:03Z</time>
      </trkpt>
      <trkpt lat="49.9462" lon="2.14449">
        <ele>14.5</ele>
        <time>2022-04-11T15:04:04Z</time>
      </trkpt>
      <trkpt lat="49.9462" lon="2.14448">
        <ele>14.5</ele>
        <time>2022-04-11T15:04:05Z</time>
      </trkpt>
      <trkpt lat="49.94621" lon="2.14447">
        <ele>14.5</ele>
        <time>2022-04-11T15:04:06Z</time>
      </trkpt>
      <trkpt lat="49.94621" lon="2.14447">
        <ele>14.5</ele>
        <time>2022-04-11T15:04:07Z</time>
      </trkpt>
      <trkpt lat="49.94622" lon="2.14447">
        <ele>14.5</ele>
        <time>2022-04-11T15:04:08Z</time>
      </trkpt>
      <trkpt lat="49.94622" lon="2.14447">
        <ele>14.5</ele>
        <time>2022-04-11T15:04:09Z</time>
      </trkpt>
      <trkpt lat="49.94622" lon="2.14448">
        <ele>14.5</ele>
        <time>2022-04-11T15:04:10Z</time>
      </trkpt>
      <trkpt lat="49.94623" lon="2.14448">
        <ele>14.5</ele>
        <time>2022-04-11T15:04:11Z</time>
      </trkpt>
      <trkpt lat="49.94623" lon="2.14448">
        <ele>14.5</ele>
        <time>2022-04-11T15:04:12Z</time>
      </trkpt>
      <trkpt lat="49.94623" lon="2.14448">
        <ele>14.5</ele>
        <time>2022-04-11T15:04:13Z</time>
      </trkpt>
      <trkpt lat="49.94624" lon="2.14447">
        <ele>14.5</ele>
        <time>2022-04-11T15:04:14Z</time>
      </trkpt>
      <trkpt lat="49.94624" lon="2.14446">
        <ele>14.5</ele>
        <time>2022-04-11T15:04:15Z</time>
      </trkpt>
      <trkpt lat="49.94625" lon="2.14445">
        <ele>14.5</ele>
        <time>2022-04-11T15:04:16Z</time>
      </trkpt>
      <trkpt lat="49.94625" lon="2.14444">
        <ele>14.5</ele>
        <time>2022-04-11T15:04:18Z</time>
      </trkpt>
      <trkpt lat="49.94626" lon="2.14443">
        <ele>14.5</ele>
        <time>2022-04-11T15:04:19Z</time>
      </trkpt>
      <trkpt lat="49.94626" lon="2.14442">
        <ele>14.5</ele>
        <time>2022-04-11T15:04:20Z</time>
      </trkpt>
      <trkpt lat="49.94627" lon="2.1444">
        <ele>14.5</ele>
        <time>2022-04-11T15:04:21Z</time>
      </trkpt>
      <trkpt lat="49.94628" lon="2.14438">
        <ele>14.5</ele>
        <time>2022-04-11T15:04:22Z</time>
      </trkpt>
      <trkpt lat="49.94629" lon="2.14437">
        <ele>14.4</ele>
        <time>2022-04-11T15:04:23Z</time>
      </trkpt>
      <trkpt lat="49.9463" lon="2.14436">
        <ele>14.4</ele>
        <time>2022-04-11T15:04:24Z</time>
      </trkpt>
      <trkpt lat="49.94631" lon="2.14434">
        <ele>14.4</ele>
        <time>2022-04-11T15:04:25Z</time>
      </trkpt>
      <trkpt lat="49.94631" lon="2.14433">
        <ele>14.4</ele>
        <time>2022-04-11T15:04:27Z</time>
      </trkpt>
      <trkpt lat="49.94632" lon="2.14432">
        <ele>14.4</ele>
        <time>2022-04-11T15:04:28Z</time>
      </trkpt>
      <trkpt lat="49.94632" lon="2.1443">
        <ele>14.4</ele>
        <time>2022-04-11T15:04:29Z</time>
      </trkpt>
      <trkpt lat="49.94633" lon="2.14429">
        <ele>14.4</ele>
        <time>2022-04-11T15:04:30Z</time>
      </trkpt>
      <trkpt lat="49.94633" lon="2.14427">
        <ele>14.4</ele>
        <time>2022-04-11T15:04:31Z</time>
      </trkpt>
      <trkpt lat="49.94634" lon="2.14426">
        <ele>14.4</ele>
        <time>2022-04-11T15:04:32Z</time>
      </trkpt>
      <trkpt lat="49.94634" lon="2.14424">
        <ele>14.4</ele>
        <time>2022-04-11T15:04:33Z</time>
      </trkpt>
      <trkpt lat="49.94635" lon="2.14422">
        <ele>14.4</ele>
        <time>2022-04-11T15:04:34Z</time>
      </trkpt>
      <trkpt lat="49.94635" lon="2.14421">
        <ele>14.4</ele>
        <time>2022-04-11T15:04:35Z</time>
      </trkpt>
      <trkpt lat="49.94636" lon="2.14419">
        <ele>14.4</ele>
        <time>2022-04-11T15:04:36Z</time>
      </trkpt>
      <trkpt lat="49.94636" lon="2.14417">
        <ele>14.4</ele>
        <time>2022-04-11T15:04:37Z</time>
      </trkpt>
      <trkpt lat="49.94637" lon="2.14414">
        <ele>14.4</ele>
        <time>2022-04-11T15:04:39Z</time>
      </trkpt>
      <trkpt lat="49.94637" lon="2.14413">
        <ele>14.4</ele>
        <time>2022-04-11T15:04:40Z</time>
      </trkpt>
      <trkpt lat="49.94638" lon="2.14412">
        <ele>14.3</ele>
        <time>2022-04-11T15:04:41Z</time>
      </trkpt>
      <trkpt lat="49.94637" lon="2.14409">
        <ele>14.3</ele>
        <time>2022-04-11T15:04:42Z</time>
      </trkpt>
      <trkpt lat="49.94637" lon="2.14408">
        <ele>14.3</ele>
        <time>2022-04-11T15:04:43Z</time>
      </trkpt>
      <trkpt lat="49.94638" lon="2.14406">
        <ele>14.3</ele>
        <time>2022-04-11T15:04:44Z</time>
      </trkpt>
      <trkpt lat="49.94638" lon="2.14403">
        <ele>14.3</ele>
        <time>2022-04-11T15:04:45Z</time>
      </trkpt>
      <trkpt lat="49.94638" lon="2.14402">
        <ele>14.3</ele>
        <time>2022-04-11T15:04:46Z</time>
      </trkpt>
      <trkpt lat="49.94638" lon="2.144">
        <ele>14.3</ele>
        <time>2022-04-11T15:04:47Z</time>
      </trkpt>
      <trkpt lat="49.94638" lon="2.14398">
        <ele>14.3</ele>
        <time>2022-04-11T15:04:48Z</time>
      </trkpt>
      <trkpt lat="49.94639" lon="2.14396">
        <ele>14.3</ele>
        <time>2022-04-11T15:04:50Z</time>
      </trkpt>
      <trkpt lat="49.94639" lon="2.14394">
        <ele>14.3</ele>
        <time>2022-04-11T15:04:51Z</time>
      </trkpt>
      <trkpt lat="49.9464" lon="2.14392">
        <ele>14.3</ele>
        <time>2022-04-11T15:04:52Z</time>
      </trkpt>
      <trkpt lat="49.9464" lon="2.14391">
        <ele>14.3</ele>
        <time>2022-04-11T15:04:53Z</time>
      </trkpt>
      <trkpt lat="49.9464" lon="2.14389">
        <ele>14.3</ele>
        <time>2022-04-11T15:04:54Z</time>
      </trkpt>
      <trkpt lat="49.94641" lon="2.14388">
        <ele>14.3</ele>
        <time>2022-04-11T15:04:55Z</time>
      </trkpt>
      <trkpt lat="49.94641" lon="2.14386">
        <ele>14.3</ele>
        <time>2022-04-11T15:04:56Z</time>
      </trkpt>
      <trkpt lat="49.94641" lon="2.14384">
        <ele>14.2</ele>
        <time>2022-04-11T15:04:57Z</time>
      </trkpt>
      <trkpt lat="49.94642" lon="2.14383">
        <ele>14.2</ele>
        <time>2022-04-11T15:04:58Z</time>
      </trkpt>
      <trkpt lat="49.94642" lon="2.14381">
        <ele>14.2</ele>
        <time>2022-04-11T15:04:59Z</time>
      </trkpt>
      <trkpt lat="49.94643" lon="2.14379">
        <ele>14.2</ele>
        <time>2022-04-11T15:05:01Z</time>
      </trkpt>
      <trkpt lat="49.94644" lon="2.14377">
        <ele>14.2</ele>
        <time>2022-04-11T15:05:02Z</time>
      </trkpt>
      <trkpt lat="49.94644" lon="2.14376">
        <ele>14.2</ele>
        <time>2022-04-11T15:05:03Z</time>
      </trkpt>
      <trkpt lat="49.94645" lon="2.14375">
        <ele>14.2</ele>
        <time>2022-04-11T15:05:04Z</time>
      </trkpt>
      <trkpt lat="49.94645" lon="2.14373">
        <ele>14.2</ele>
        <time>2022-04-11T15:05:05Z</time>
      </trkpt>
      <trkpt lat="49.94645" lon="2.14371">
        <ele>14.2</ele>
        <time>2022-04-11T15:05:07Z</time>
      </trkpt>
      <trkpt lat="49.94646" lon="2.14369">
        <ele>14.2</ele>
        <time>2022-04-11T15:05:08Z</time>
      </trkpt>
      <trkpt lat="49.94647" lon="2.14367">
        <ele>14.2</ele>
        <time>2022-04-11T15:05:09Z</time>
      </trkpt>
      <trkpt lat="49.94648" lon="2.14364">
        <ele>14.2</ele>
        <time>2022-04-11T15:05:10Z</time>
      </trkpt>
      <trkpt lat="49.94648" lon="2.14363">
        <ele>14.2</ele>
        <time>2022-04-11T15:05:11Z</time>
      </trkpt>
      <trkpt lat="49.94649" lon="2.14362">
        <ele>14.2</ele>
        <time>2022-04-11T15:05:12Z</time>
      </trkpt>
      <trkpt lat="49.94649" lon="2.14361">
        <ele>14.2</ele>
        <time>2022-04-11T15:05:13Z</time>
      </trkpt>
      <trkpt lat="49.9465" lon="2.1436">
        <ele>14.2</ele>
        <time>2022-04-11T15:05:15Z</time>
      </trkpt>
      <trkpt lat="49.9465" lon="2.14358">
        <ele>14.2</ele>
        <time>2022-04-11T15:05:16Z</time>
      </trkpt>
      <trkpt lat="49.94651" lon="2.14357">
        <ele>14.2</ele>
        <time>2022-04-11T15:05:17Z</time>
      </trkpt>
      <trkpt lat="49.94652" lon="2.14356">
        <ele>14.2</ele>
        <time>2022-04-11T15:05:18Z</time>
      </trkpt>
      <trkpt lat="49.94652" lon="2.14355">
        <ele>14.2</ele>
        <time>2022-04-11T15:05:19Z</time>
      </trkpt>
      <trkpt lat="49.94654" lon="2.14353">
        <ele>14.2</ele>
        <time>2022-04-11T15:05:20Z</time>
      </trkpt>
      <trkpt lat="49.94654" lon="2.14352">
        <ele>14.2</ele>
        <time>2022-04-11T15:05:21Z</time>
      </trkpt>
      <trkpt lat="49.94655" lon="2.14351">
        <ele>14.2</ele>
        <time>2022-04-11T15:05:22Z</time>
      </trkpt>
      <trkpt lat="49.94656" lon="2.14349">
        <ele>14.1</ele>
        <time>2022-04-11T15:05:23Z</time>
      </trkpt>
      <trkpt lat="49.94656" lon="2.14348">
        <ele>14.1</ele>
        <time>2022-04-11T15:05:24Z</time>
      </trkpt>
      <trkpt lat="49.94657" lon="2.14346">
        <ele>14.1</ele>
        <time>2022-04-11T15:05:26Z</time>
      </trkpt>
      <trkpt lat="49.94657" lon="2.14344">
        <ele>14.1</ele>
        <time>2022-04-11T15:05:27Z</time>
      </trkpt>
      <trkpt lat="49.94658" lon="2.14343">
        <ele>14.1</ele>
        <time>2022-04-11T15:05:28Z</time>
      </trkpt>
      <trkpt lat="49.94658" lon="2.14341">
        <ele>14.1</ele>
        <time>2022-04-11T15:05:29Z</time>
      </trkpt>
      <trkpt lat="49.94659" lon="2.14338">
        <ele>14.1</ele>
        <time>2022-04-11T15:05:30Z</time>
      </trkpt>
      <trkpt lat="49.94659" lon="2.14337">
        <ele>14.1</ele>
        <time>2022-04-11T15:05:31Z</time>
      </trkpt>
      <trkpt lat="49.9466" lon="2.14336">
        <ele>14.1</ele>
        <time>2022-04-11T15:05:32Z</time>
      </trkpt>
      <trkpt lat="49.9466" lon="2.14333">
        <ele>14.1</ele>
        <time>2022-04-11T15:05:33Z</time>
      </trkpt>
      <trkpt lat="49.9466" lon="2.14332">
        <ele>14.1</ele>
        <time>2022-04-11T15:05:34Z</time>
      </trkpt>
      <trkpt lat="49.94661" lon="2.1433">
        <ele>14.1</ele>
        <time>2022-04-11T15:05:35Z</time>
      </trkpt>
      <trkpt lat="49.94661" lon="2.14329">
        <ele>14.1</ele>
        <time>2022-04-11T15:05:37Z</time>
      </trkpt>
      <trkpt lat="49.94662" lon="2.14327">
        <ele>14.1</ele>
        <time>2022-04-11T15:05:38Z</time>
      </trkpt>
      <trkpt lat="49.94662" lon="2.14325">
        <ele>14.1</ele>
        <time>2022-04-11T15:05:39Z</time>
      </trkpt>
      <trkpt lat="49.94662" lon="2.14324">
        <ele>14.1</ele>
        <time>2022-04-11T15:05:40Z</time>
      </trkpt>
      <trkpt lat="49.94663" lon="2.14323">
        <ele>14.1</ele>
        <time>2022-04-11T15:05:41Z</time>
      </trkpt>
      <trkpt lat="49.94664" lon="2.1432">
        <ele>14.1</ele>
        <time>2022-04-11T15:05:42Z</time>
      </trkpt>
      <trkpt lat="49.94664" lon="2.14319">
        <ele>14.1</ele>
        <time>2022-04-11T15:05:43Z</time>
      </trkpt>
      <trkpt lat="49.94664" lon="2.14318">
        <ele>14.1</ele>
        <time>2022-04-11T15:05:44Z</time>
      </trkpt>
      <trkpt lat="49.94665" lon="2.14316">
        <ele>14.1</ele>
        <time>2022-04-11T15:05:45Z</time>
      </trkpt>
      <trkpt lat="49.94666" lon="2.14315">
        <ele>14.1</ele>
        <time>2022-04-11T15:05:46Z</time>
      </trkpt>
      <trkpt lat="49.94666" lon="2.14313">
        <ele>14.2</ele>
        <time>2022-04-11T15:05:48Z</time>
      </trkpt>
      <trkpt lat="49.94667" lon="2.14311">
        <ele>14.2</ele>
        <time>2022-04-11T15:05:49Z</time>
      </trkpt>
      <trkpt lat="49.94667" lon="2.1431">
        <ele>14.2</ele>
        <time>2022-04-11T15:05:50Z</time>
      </trkpt>
      <trkpt lat="49.94668" lon="2.14309">
        <ele>14.2</ele>
        <time>2022-04-11T15:05:51Z</time>
      </trkpt>
      <trkpt lat="49.94669" lon="2.14308">
        <ele>14.2</ele>
        <time>2022-04-11T15:05:52Z</time>
      </trkpt>
      <trkpt lat="49.94669" lon="2.14306">
        <ele>14.2</ele>
        <time>2022-04-11T15:05:53Z</time>
      </trkpt>
      <trkpt lat="49.9467" lon="2.14305">
        <ele>14.2</ele>
        <time>2022-04-11T15:05:54Z</time>
      </trkpt>
      <trkpt lat="49.94672" lon="2.14303">
        <ele>14.2</ele>
        <time>2022-04-11T15:05:55Z</time>
      </trkpt>
      <trkpt lat="49.94672" lon="2.14302">
        <ele>14.2</ele>
        <time>2022-04-11T15:05:56Z</time>
      </trkpt>
      <trkpt lat="49.94673" lon="2.14301">
        <ele>14.2</ele>
        <time>2022-04-11T15:05:57Z</time>
      </trkpt>
      <trkpt lat="49.94674" lon="2.14299">
        <ele>14.2</ele>
        <time>2022-04-11T15:05:59Z</time>
      </trkpt>
      <trkpt lat="49.94674" lon="2.14298">
        <ele>14.2</ele>
        <time>2022-04-11T15:06:00Z</time>
      </trkpt>
      <trkpt lat="49.94675" lon="2.14296">
        <ele>14.2</ele>
        <time>2022-04-11T15:06:01Z</time>
      </trkpt>
      <trkpt lat="49.94675" lon="2.14295">
        <ele>14.3</ele>
        <time>2022-04-11T15:06:02Z</time>
      </trkpt>
      <trkpt lat="49.94675" lon="2.14293">
        <ele>14.3</ele>
        <time>2022-04-11T15:06:03Z</time>
      </trkpt>
      <trkpt lat="49.94676" lon="2.14291">
        <ele>14.3</ele>
        <time>2022-04-11T15:06:04Z</time>
      </trkpt>
      <trkpt lat="49.94677" lon="2.14288">
        <ele>14.3</ele>
        <time>2022-04-11T15:06:05Z</time>
      </trkpt>
      <trkpt lat="49.94677" lon="2.14287">
        <ele>14.3</ele>
        <time>2022-04-11T15:06:06Z</time>
      </trkpt>
      <trkpt lat="49.94677" lon="2.14286">
        <ele>14.4</ele>
        <time>2022-04-11T15:06:07Z</time>
      </trkpt>
      <trkpt lat="49.94678" lon="2.14284">
        <ele>14.4</ele>
        <time>2022-04-11T15:06:09Z</time>
      </trkpt>
      <trkpt lat="49.94679" lon="2.14283">
        <ele>14.4</ele>
        <time>2022-04-11T15:06:10Z</time>
      </trkpt>
      <trkpt lat="49.94679" lon="2.14281">
        <ele>14.4</ele>
        <time>2022-04-11T15:06:11Z</time>
      </trkpt>
      <trkpt lat="49.9468" lon="2.14278">
        <ele>14.5</ele>
        <time>2022-04-11T15:06:12Z</time>
      </trkpt>
      <trkpt lat="49.9468" lon="2.14277">
        <ele>14.5</ele>
        <time>2022-04-11T15:06:13Z</time>
      </trkpt>
      <trkpt lat="49.94681" lon="2.14276">
        <ele>14.5</ele>
        <time>2022-04-11T15:06:14Z</time>
      </trkpt>
      <trkpt lat="49.94681" lon="2.14272">
        <ele>14.6</ele>
        <time>2022-04-11T15:06:15Z</time>
      </trkpt>
      <trkpt lat="49.94682" lon="2.14271">
        <ele>14.6</ele>
        <time>2022-04-11T15:06:16Z</time>
      </trkpt>
      <trkpt lat="49.94682" lon="2.1427">
        <ele>14.6</ele>
        <time>2022-04-11T15:06:17Z</time>
      </trkpt>
      <trkpt lat="49.94683" lon="2.14268">
        <ele>14.6</ele>
        <time>2022-04-11T15:06:19Z</time>
      </trkpt>
      <trkpt lat="49.94683" lon="2.14267">
        <ele>14.7</ele>
        <time>2022-04-11T15:06:20Z</time>
      </trkpt>
      <trkpt lat="49.94683" lon="2.14264">
        <ele>14.7</ele>
        <time>2022-04-11T15:06:22Z</time>
      </trkpt>
      <trkpt lat="49.94682" lon="2.14263">
        <ele>14.8</ele>
        <time>2022-04-11T15:06:23Z</time>
      </trkpt>
      <trkpt lat="49.94681" lon="2.14262">
        <ele>14.8</ele>
        <time>2022-04-11T15:06:24Z</time>
      </trkpt>
      <trkpt lat="49.94681" lon="2.14261">
        <ele>14.8</ele>
        <time>2022-04-11T15:06:25Z</time>
      </trkpt>
      <trkpt lat="49.94681" lon="2.14261">
        <ele>14.9</ele>
        <time>2022-04-11T15:06:26Z</time>
      </trkpt>
      <trkpt lat="49.9468" lon="2.1426">
        <ele>14.9</ele>
        <time>2022-04-11T15:06:27Z</time>
      </trkpt>
      <trkpt lat="49.9468" lon="2.1426">
        <ele>14.9</ele>
        <time>2022-04-11T15:06:28Z</time>
      </trkpt>
      <trkpt lat="49.9468" lon="2.1426">
        <ele>14.9</ele>
        <time>2022-04-11T15:06:29Z</time>
      </trkpt>
      <trkpt lat="49.94679" lon="2.1426">
        <ele>14.9</ele>
        <time>2022-04-11T15:06:30Z</time>
      </trkpt>
      <trkpt lat="49.94679" lon="2.1426">
        <ele>14.9</ele>
        <time>2022-04-11T15:06:31Z</time>
      </trkpt>
      <trkpt lat="49.94679" lon="2.14259">
        <ele>14.9</ele>
        <time>2022-04-11T15:06:32Z</time>
      </trkpt>
      <trkpt lat="49.94679" lon="2.14259">
        <ele>14.9</ele>
        <time>2022-04-11T15:06:33Z</time>
      </trkpt>
      <trkpt lat="49.94679" lon="2.14259">
        <ele>14.9</ele>
        <time>2022-04-11T15:06:34Z</time>
      </trkpt>
      <trkpt lat="49.94679" lon="2.14259">
        <ele>14.9</ele>
        <time>2022-04-11T15:06:35Z</time>
      </trkpt>
      <trkpt lat="49.94679" lon="2.14259">
        <ele>15</ele>
        <time>2022-04-11T15:06:37Z</time>
      </trkpt>
      <trkpt lat="49.94679" lon="2.14259">
        <ele>15</ele>
        <time>2022-04-11T15:06:38Z</time>
      </trkpt>
      <trkpt lat="49.94679" lon="2.14259">
        <ele>15</ele>
        <time>2022-04-11T15:06:39Z</time>
      </trkpt>
      <trkpt lat="49.94679" lon="2.14259">
        <ele>15</ele>
        <time>2022-04-11T15:06:40Z</time>
      </trkpt>
      <trkpt lat="49.94679" lon="2.14259">
        <ele>15</ele>
        <time>2022-04-11T15:06:41Z</time>
      </trkpt>
      <trkpt lat="49.94679" lon="2.14258">
        <ele>15</ele>
        <time>2022-04-11T15:06:42Z</time>
      </trkpt>
      <trkpt lat="49.9468" lon="2.14258">
        <ele>15</ele>
        <time>2022-04-11T15:06:43Z</time>
      </trkpt>
      <trkpt lat="49.9468" lon="2.14257">
        <ele>15.1</ele>
        <time>2022-04-11T15:06:44Z</time>
      </trkpt>
      <trkpt lat="49.94681" lon="2.14257">
        <ele>15.1</ele>
        <time>2022-04-11T15:06:45Z</time>
      </trkpt>
      <trkpt lat="49.94682" lon="2.14256">
        <ele>15.1</ele>
        <time>2022-04-11T15:06:46Z</time>
      </trkpt>
      <trkpt lat="49.94683" lon="2.14255">
        <ele>15.2</ele>
        <time>2022-04-11T15:06:47Z</time>
      </trkpt>
      <trkpt lat="49.94684" lon="2.14253">
        <ele>15.3</ele>
        <time>2022-04-11T15:06:48Z</time>
      </trkpt>
      <trkpt lat="49.94685" lon="2.14251">
        <ele>15.3</ele>
        <time>2022-04-11T15:06:50Z</time>
      </trkpt>
      <trkpt lat="49.94685" lon="2.1425">
        <ele>15.4</ele>
        <time>2022-04-11T15:06:51Z</time>
      </trkpt>
      <trkpt lat="49.94686" lon="2.14248">
        <ele>15.4</ele>
        <time>2022-04-11T15:06:52Z</time>
      </trkpt>
      <trkpt lat="49.94686" lon="2.14246">
        <ele>15.8</ele>
        <time>2022-04-11T15:06:53Z</time>
      </trkpt>
      <trkpt lat="49.94686" lon="2.14245">
        <ele>15.8</ele>
        <time>2022-04-11T15:06:54Z</time>
      </trkpt>
      <trkpt lat="49.94687" lon="2.14244">
        <ele>15.8</ele>
        <time>2022-04-11T15:06:55Z</time>
      </trkpt>
      <trkpt lat="49.94687" lon="2.14242">
        <ele>15.8</ele>
        <time>2022-04-11T15:06:56Z</time>
      </trkpt>
      <trkpt lat="49.94687" lon="2.1424">
        <ele>15.8</ele>
        <time>2022-04-11T15:06:57Z</time>
      </trkpt>
      <trkpt lat="49.94686" lon="2.14238">
        <ele>15.8</ele>
        <time>2022-04-11T15:06:58Z</time>
      </trkpt>
      <trkpt lat="49.94686" lon="2.14237">
        <ele>15.8</ele>
        <time>2022-04-11T15:06:59Z</time>
      </trkpt>
      <trkpt lat="49.94684" lon="2.14234">
        <ele>15.8</ele>
        <time>2022-04-11T15:07:00Z</time>
      </trkpt>
      <trkpt lat="49.94684" lon="2.14233">
        <ele>15.9</ele>
        <time>2022-04-11T15:07:02Z</time>
      </trkpt>
      <trkpt lat="49.94683" lon="2.14232">
        <ele>15.9</ele>
        <time>2022-04-11T15:07:03Z</time>
      </trkpt>
      <trkpt lat="49.94682" lon="2.14231">
        <ele>15.9</ele>
        <time>2022-04-11T15:07:04Z</time>
      </trkpt>
      <trkpt lat="49.94681" lon="2.1423">
        <ele>15.9</ele>
        <time>2022-04-11T15:07:05Z</time>
      </trkpt>
      <trkpt lat="49.9468" lon="2.14229">
        <ele>15.9</ele>
        <time>2022-04-11T15:07:06Z</time>
      </trkpt>
      <trkpt lat="49.94679" lon="2.14229">
        <ele>15.9</ele>
        <time>2022-04-11T15:07:07Z</time>
      </trkpt>
      <trkpt lat="49.94678" lon="2.14228">
        <ele>15.9</ele>
        <time>2022-04-11T15:07:09Z</time>
      </trkpt>
      <trkpt lat="49.94677" lon="2.14228">
        <ele>15.9</ele>
        <time>2022-04-11T15:07:10Z</time>
      </trkpt>
      <trkpt lat="49.94676" lon="2.14227">
        <ele>15.9</ele>
        <time>2022-04-11T15:07:11Z</time>
      </trkpt>
      <trkpt lat="49.94675" lon="2.14227">
        <ele>15.9</ele>
        <time>2022-04-11T15:07:12Z</time>
      </trkpt>
      <trkpt lat="49.94674" lon="2.14227">
        <ele>15.9</ele>
        <time>2022-04-11T15:07:13Z</time>
      </trkpt>
      <trkpt lat="49.94673" lon="2.14227">
        <ele>15.9</ele>
        <time>2022-04-11T15:07:14Z</time>
      </trkpt>
      <trkpt lat="49.94672" lon="2.14227">
        <ele>15.9</ele>
        <time>2022-04-11T15:07:15Z</time>
      </trkpt>
      <trkpt lat="49.94671" lon="2.14227">
        <ele>15.9</ele>
        <time>2022-04-11T15:07:16Z</time>
      </trkpt>
      <trkpt lat="49.9467" lon="2.14229">
        <ele>15.9</ele>
        <time>2022-04-11T15:07:18Z</time>
      </trkpt>
      <trkpt lat="49.94669" lon="2.1423">
        <ele>15.9</ele>
        <time>2022-04-11T15:07:19Z</time>
      </trkpt>
      <trkpt lat="49.94668" lon="2.1423">
        <ele>15.9</ele>
        <time>2022-04-11T15:07:20Z</time>
      </trkpt>
      <trkpt lat="49.94667" lon="2.14231">
        <ele>15.9</ele>
        <time>2022-04-11T15:07:21Z</time>
      </trkpt>
      <trkpt lat="49.94667" lon="2.14231">
        <ele>15.9</ele>
        <time>2022-04-11T15:07:22Z</time>
      </trkpt>
      <trkpt lat="49.94666" lon="2.14231">
        <ele>16</ele>
        <time>2022-04-11T15:07:23Z</time>
      </trkpt>
      <trkpt lat="49.94665" lon="2.14232">
        <ele>16</ele>
        <time>2022-04-11T15:07:24Z</time>
      </trkpt>
      <trkpt lat="49.94664" lon="2.14232">
        <ele>16</ele>
        <time>2022-04-11T15:07:25Z</time>
      </trkpt>
      <trkpt lat="49.94663" lon="2.14232">
        <ele>16</ele>
        <time>2022-04-11T15:07:26Z</time>
      </trkpt>
      <trkpt lat="49.94662" lon="2.14232">
        <ele>16</ele>
        <time>2022-04-11T15:07:28Z</time>
      </trkpt>
      <trkpt lat="49.94661" lon="2.14232">
        <ele>16</ele>
        <time>2022-04-11T15:07:29Z</time>
      </trkpt>
      <trkpt lat="49.9466" lon="2.14232">
        <ele>16</ele>
        <time>2022-04-11T15:07:30Z</time>
      </trkpt>
      <trkpt lat="49.94659" lon="2.14232">
        <ele>16</ele>
        <time>2022-04-11T15:07:31Z</time>
      </trkpt>
      <trkpt lat="49.94658" lon="2.14232">
        <ele>16</ele>
        <time>2022-04-11T15:07:32Z</time>
      </trkpt>
      <trkpt lat="49.94657" lon="2.14232">
        <ele>16</ele>
        <time>2022-04-11T15:07:33Z</time>
      </trkpt>
      <trkpt lat="49.94657" lon="2.14232">
        <ele>15.4</ele>
        <time>2022-04-11T15:07:34Z</time>
      </trkpt>
      <trkpt lat="49.94656" lon="2.14233">
        <ele>15.4</ele>
        <time>2022-04-11T15:07:36Z</time>
      </trkpt>
      <trkpt lat="49.94657" lon="2.14233">
        <ele>15.4</ele>
        <time>2022-04-11T15:07:37Z</time>
      </trkpt>
      <trkpt lat="49.94657" lon="2.14233">
        <ele>15.4</ele>
        <time>2022-04-11T15:07:38Z</time>
      </trkpt>
      <trkpt lat="49.94658" lon="2.14234">
        <ele>15.4</ele>
        <time>2022-04-11T15:07:39Z</time>
      </trkpt>
      <trkpt lat="49.94659" lon="2.14234">
        <ele>15.4</ele>
        <time>2022-04-11T15:07:40Z</time>
      </trkpt>
      <trkpt lat="49.94659" lon="2.14234">
        <ele>15.4</ele>
        <time>2022-04-11T15:07:41Z</time>
      </trkpt>
      <trkpt lat="49.9466" lon="2.14234">
        <ele>15.4</ele>
        <time>2022-04-11T15:07:42Z</time>
      </trkpt>
      <trkpt lat="49.9466" lon="2.14235">
        <ele>15.4</ele>
        <time>2022-04-11T15:07:43Z</time>
      </trkpt>
      <trkpt lat="49.94662" lon="2.14236">
        <ele>15.4</ele>
        <time>2022-04-11T15:07:45Z</time>
      </trkpt>
      <trkpt lat="49.94663" lon="2.14237">
        <ele>15.3</ele>
        <time>2022-04-11T15:07:46Z</time>
      </trkpt>
      <trkpt lat="49.94664" lon="2.14239">
        <ele>15.3</ele>
        <time>2022-04-11T15:07:47Z</time>
      </trkpt>
      <trkpt lat="49.94664" lon="2.1424">
        <ele>15.3</ele>
        <time>2022-04-11T15:07:48Z</time>
      </trkpt>
      <trkpt lat="49.94664" lon="2.14242">
        <ele>15.3</ele>
        <time>2022-04-11T15:07:49Z</time>
      </trkpt>
      <trkpt lat="49.94664" lon="2.14243">
        <ele>15.3</ele>
        <time>2022-04-11T15:07:50Z</time>
      </trkpt>
      <trkpt lat="49.94664" lon="2.14244">
        <ele>15.3</ele>
        <time>2022-04-11T15:07:51Z</time>
      </trkpt>
      <trkpt lat="49.94664" lon="2.14245">
        <ele>15.3</ele>
        <time>2022-04-11T15:07:52Z</time>
      </trkpt>
      <trkpt lat="49.94665" lon="2.14245">
        <ele>15.3</ele>
        <time>2022-04-11T15:07:53Z</time>
      </trkpt>
      <trkpt lat="49.94665" lon="2.14244">
        <ele>15.3</ele>
        <time>2022-04-11T15:07:54Z</time>
      </trkpt>
      <trkpt lat="49.94665" lon="2.14244">
        <ele>15.3</ele>
        <time>2022-04-11T15:07:55Z</time>
      </trkpt>
      <trkpt lat="49.94665" lon="2.14244">
        <ele>15.3</ele>
        <time>2022-04-11T15:07:56Z</time>
      </trkpt>
      <trkpt lat="49.94665" lon="2.14244">
        <ele>15.3</ele>
        <time>2022-04-11T15:07:57Z</time>
      </trkpt>
      <trkpt lat="49.94665" lon="2.14244">
        <ele>15.3</ele>
        <time>2022-04-11T15:07:58Z</time>
      </trkpt>
      <trkpt lat="49.94665" lon="2.14244">
        <ele>15.3</ele>
        <time>2022-04-11T15:07:59Z</time>
      </trkpt>
      <trkpt lat="49.94665" lon="2.14244">
        <ele>15.3</ele>
        <time>2022-04-11T15:08:00Z</time>
      </trkpt>
      <trkpt lat="49.94665" lon="2.14244">
        <ele>15.3</ele>
        <time>2022-04-11T15:08:01Z</time>
      </trkpt>
      <trkpt lat="49.94665" lon="2.14244">
        <ele>15.3</ele>
        <time>2022-04-11T15:08:02Z</time>
      </trkpt>
      <trkpt lat="49.94665" lon="2.14244">
        <ele>15.3</ele>
        <time>2022-04-11T15:08:03Z</time>
      </trkpt>
      <trkpt lat="49.94665" lon="2.14244">
        <ele>15.3</ele>
        <time>2022-04-11T15:08:04Z</time>
      </trkpt>
      <trkpt lat="49.94665" lon="2.14244">
        <ele>15.3</ele>
        <time>2022-04-11T15:08:05Z</time>
      </trkpt>
      <trkpt lat="49.94665" lon="2.14244">
        <ele>15.3</ele>
        <time>2022-04-11T15:08:06Z</time>
      </trkpt>
      <trkpt lat="49.94664" lon="2.14244">
        <ele>15.3</ele>
        <time>2022-04-11T15:08:08Z</time>
      </trkpt>
      <trkpt lat="49.94664" lon="2.14242">
        <ele>15.2</ele>
        <time>2022-04-11T15:08:09Z</time>
      </trkpt>
      <trkpt lat="49.94663" lon="2.14241">
        <ele>15.2</ele>
        <time>2022-04-11T15:08:10Z</time>
      </trkpt>
      <trkpt lat="49.94661" lon="2.1424">
        <ele>15.2</ele>
        <time>2022-04-11T15:08:11Z</time>
      </trkpt>
      <trkpt lat="49.94659" lon="2.1424">
        <ele>15.2</ele>
        <time>2022-04-11T15:08:12Z</time>
      </trkpt>
      <trkpt lat="49.94658" lon="2.14241">
        <ele>15.2</ele>
        <time>2022-04-11T15:08:14Z</time>
      </trkpt>
      <trkpt lat="49.94657" lon="2.14242">
        <ele>15.2</ele>
        <time>2022-04-11T15:08:15Z</time>
      </trkpt>
      <trkpt lat="49.94656" lon="2.14243">
        <ele>15.1</ele>
        <time>2022-04-11T15:08:16Z</time>
      </trkpt>
      <trkpt lat="49.94655" lon="2.14243">
        <ele>15.1</ele>
        <time>2022-04-11T15:08:17Z</time>
      </trkpt>
      <trkpt lat="49.94655" lon="2.14245">
        <ele>15.1</ele>
        <time>2022-04-11T15:08:18Z</time>
      </trkpt>
      <trkpt lat="49.94654" lon="2.14246">
        <ele>15.1</ele>
        <time>2022-04-11T15:08:19Z</time>
      </trkpt>
      <trkpt lat="49.94654" lon="2.14248">
        <ele>15.1</ele>
        <time>2022-04-11T15:08:20Z</time>
      </trkpt>
      <trkpt lat="49.94653" lon="2.14251">
        <ele>15.1</ele>
        <time>2022-04-11T15:08:22Z</time>
      </trkpt>
      <trkpt lat="49.94653" lon="2.14253">
        <ele>15.1</ele>
        <time>2022-04-11T15:08:23Z</time>
      </trkpt>
      <trkpt lat="49.94653" lon="2.14254">
        <ele>15</ele>
        <time>2022-04-11T15:08:24Z</time>
      </trkpt>
      <trkpt lat="49.94652" lon="2.14256">
        <ele>15</ele>
        <time>2022-04-11T15:08:25Z</time>
      </trkpt>
      <trkpt lat="49.94651" lon="2.14258">
        <ele>15</ele>
        <time>2022-04-11T15:08:26Z</time>
      </trkpt>
      <trkpt lat="49.94651" lon="2.1426">
        <ele>15</ele>
        <time>2022-04-11T15:08:28Z</time>
      </trkpt>
      <trkpt lat="49.9465" lon="2.14263">
        <ele>15</ele>
        <time>2022-04-11T15:08:29Z</time>
      </trkpt>
      <trkpt lat="49.9465" lon="2.14264">
        <ele>14.9</ele>
        <time>2022-04-11T15:08:30Z</time>
      </trkpt>
      <trkpt lat="49.94649" lon="2.14265">
        <ele>14.9</ele>
        <time>2022-04-11T15:08:31Z</time>
      </trkpt>
      <trkpt lat="49.94649" lon="2.14266">
        <ele>14.9</ele>
        <time>2022-04-11T15:08:32Z</time>
      </trkpt>
      <trkpt lat="49.94649" lon="2.14268">
        <ele>14.9</ele>
        <time>2022-04-11T15:08:34Z</time>
      </trkpt>
      <trkpt lat="49.94649" lon="2.14269">
        <ele>14.9</ele>
        <time>2022-04-11T15:08:35Z</time>
      </trkpt>
      <trkpt lat="49.94649" lon="2.1427">
        <ele>14.9</ele>
        <time>2022-04-11T15:08:36Z</time>
      </trkpt>
      <trkpt lat="49.9465" lon="2.1427">
        <ele>14.9</ele>
        <time>2022-04-11T15:08:37Z</time>
      </trkpt>
      <trkpt lat="49.9465" lon="2.1427">
        <ele>14.9</ele>
        <time>2022-04-11T15:08:38Z</time>
      </trkpt>
      <trkpt lat="49.9465" lon="2.1427">
        <ele>14.9</ele>
        <time>2022-04-11T15:08:39Z</time>
      </trkpt>
      <trkpt lat="49.94649" lon="2.1427">
        <ele>14.9</ele>
        <time>2022-04-11T15:08:41Z</time>
      </trkpt>
      <trkpt lat="49.94649" lon="2.14271">
        <ele>14.9</ele>
        <time>2022-04-11T15:08:42Z</time>
      </trkpt>
      <trkpt lat="49.94648" lon="2.14272">
        <ele>14.9</ele>
        <time>2022-04-11T15:08:43Z</time>
      </trkpt>
      <trkpt lat="49.94648" lon="2.14272">
        <ele>14.9</ele>
        <time>2022-04-11T15:08:44Z</time>
      </trkpt>
      <trkpt lat="49.94647" lon="2.14273">
        <ele>14.8</ele>
        <time>2022-04-11T15:08:45Z</time>
      </trkpt>
      <trkpt lat="49.94647" lon="2.14275">
        <ele>14.8</ele>
        <time>2022-04-11T15:08:47Z</time>
      </trkpt>
      <trkpt lat="49.94646" lon="2.14275">
        <ele>14.8</ele>
        <time>2022-04-11T15:08:48Z</time>
      </trkpt>
      <trkpt lat="49.94646" lon="2.14275">
        <ele>14.8</ele>
        <time>2022-04-11T15:08:49Z</time>
      </trkpt>
      <trkpt lat="49.94646" lon="2.14275">
        <ele>14.8</ele>
        <time>2022-04-11T15:08:50Z</time>
      </trkpt>
      <trkpt lat="49.94646" lon="2.14275">
        <ele>14.8</ele>
        <time>2022-04-11T15:08:51Z</time>
      </trkpt>
      <trkpt lat="49.94646" lon="2.14275">
        <ele>14.8</ele>
        <time>2022-04-11T15:08:52Z</time>
      </trkpt>
      <trkpt lat="49.94646" lon="2.14275">
        <ele>14.8</ele>
        <time>2022-04-11T15:08:53Z</time>
      </trkpt>
      <trkpt lat="49.94646" lon="2.14274">
        <ele>14.8</ele>
        <time>2022-04-11T15:08:54Z</time>
      </trkpt>
      <trkpt lat="49.94646" lon="2.14274">
        <ele>14.8</ele>
        <time>2022-04-11T15:08:55Z</time>
      </trkpt>
      <trkpt lat="49.94646" lon="2.14274">
        <ele>14.8</ele>
        <time>2022-04-11T15:08:56Z</time>
      </trkpt>
      <trkpt lat="49.94646" lon="2.14274">
        <ele>14.8</ele>
        <time>2022-04-11T15:08:57Z</time>
      </trkpt>
      <trkpt lat="49.94646" lon="2.14274">
        <ele>14.8</ele>
        <time>2022-04-11T15:08:58Z</time>
      </trkpt>
      <trkpt lat="49.94646" lon="2.14274">
        <ele>14.8</ele>
        <time>2022-04-11T15:08:59Z</time>
      </trkpt>
      <trkpt lat="49.94646" lon="2.14274">
        <ele>14.8</ele>
        <time>2022-04-11T15:09:00Z</time>
      </trkpt>
      <trkpt lat="49.94647" lon="2.14273">
        <ele>14.8</ele>
        <time>2022-04-11T15:09:01Z</time>
      </trkpt>
      <trkpt lat="49.94647" lon="2.14273">
        <ele>14.8</ele>
        <time>2022-04-11T15:09:02Z</time>
      </trkpt>
      <trkpt lat="49.94647" lon="2.14273">
        <ele>14.8</ele>
        <time>2022-04-11T15:09:03Z</time>
      </trkpt>
      <trkpt lat="49.94647" lon="2.14273">
        <ele>14.8</ele>
        <time>2022-04-11T15:09:04Z</time>
      </trkpt>
      <trkpt lat="49.94647" lon="2.14273">
        <ele>14.8</ele>
        <time>2022-04-11T15:09:05Z</time>
      </trkpt>
      <trkpt lat="49.94647" lon="2.14272">
        <ele>14.8</ele>
        <time>2022-04-11T15:09:06Z</time>
      </trkpt>
      <trkpt lat="49.94647" lon="2.14272">
        <ele>14.8</ele>
        <time>2022-04-11T15:09:07Z</time>
      </trkpt>
      <trkpt lat="49.94647" lon="2.14271">
        <ele>14.8</ele>
        <time>2022-04-11T15:09:08Z</time>
      </trkpt>
      <trkpt lat="49.94647" lon="2.14271">
        <ele>14.8</ele>
        <time>2022-04-11T15:09:09Z</time>
      </trkpt>
      <trkpt lat="49.94647" lon="2.14271">
        <ele>14.8</ele>
        <time>2022-04-11T15:09:10Z</time>
      </trkpt>
      <trkpt lat="49.94647" lon="2.14271">
        <ele>14.8</ele>
        <time>2022-04-11T15:09:11Z</time>
      </trkpt>
      <trkpt lat="49.94647" lon="2.14271">
        <ele>14.8</ele>
        <time>2022-04-11T15:09:12Z</time>
      </trkpt>
      <trkpt lat="49.94647" lon="2.14271">
        <ele>14.8</ele>
        <time>2022-04-11T15:09:13Z</time>
      </trkpt>
      <trkpt lat="49.94647" lon="2.14271">
        <ele>14.8</ele>
        <time>2022-04-11T15:09:14Z</time>
      </trkpt>
      <trkpt lat="49.94647" lon="2.14271">
        <ele>14.8</ele>
        <time>2022-04-11T15:09:15Z</time>
      </trkpt>
      <trkpt lat="49.94647" lon="2.14271">
        <ele>14.8</ele>
        <time>2022-04-11T15:09:16Z</time>
      </trkpt>
      <trkpt lat="49.94647" lon="2.14271">
        <ele>14.8</ele>
        <time>2022-04-11T15:09:17Z</time>
      </trkpt>
      <trkpt lat="49.94647" lon="2.14271">
        <ele>14.8</ele>
        <time>2022-04-11T15:09:18Z</time>
      </trkpt>
      <trkpt lat="49.94647" lon="2.14271">
        <ele>14.8</ele>
        <time>2022-04-11T15:09:19Z</time>
      </trkpt>
      <trkpt lat="49.94647" lon="2.14271">
        <ele>14.8</ele>
        <time>2022-04-11T15:09:20Z</time>
      </trkpt>
      <trkpt lat="49.94647" lon="2.14271">
        <ele>14.8</ele>
        <time>2022-04-11T15:09:21Z</time>
      </trkpt>
      <trkpt lat="49.94647" lon="2.14271">
        <ele>14.8</ele>
        <time>2022-04-11T15:09:22Z</time>
      </trkpt>
      <trkpt lat="49.94647" lon="2.14271">
        <ele>14.8</ele>
        <time>2022-04-11T15:09:23Z</time>
      </trkpt>
      <trkpt lat="49.94647" lon="2.14271">
        <ele>14.8</ele>
        <time>2022-04-11T15:09:24Z</time>
      </trkpt>
      <trkpt lat="49.94647" lon="2.14271">
        <ele>14.8</ele>
        <time>2022-04-11T15:09:25Z</time>
      </trkpt>
      <trkpt lat="49.94647" lon="2.14271">
        <ele>14.8</ele>
        <time>2022-04-11T15:09:26Z</time>
      </trkpt>
      <trkpt lat="49.94647" lon="2.14271">
        <ele>14.8</ele>
        <time>2022-04-11T15:09:27Z</time>
      </trkpt>
      <trkpt lat="49.94647" lon="2.14271">
        <ele>14.8</ele>
        <time>2022-04-11T15:09:28Z</time>
      </trkpt>
      <trkpt lat="49.94647" lon="2.14271">
        <ele>14.8</ele>
        <time>2022-04-11T15:09:29Z</time>
      </trkpt>
      <trkpt lat="49.94647" lon="2.14271">
        <ele>14.8</ele>
        <time>2022-04-11T15:09:30Z</time>
      </trkpt>
      <trkpt lat="49.94647" lon="2.14271">
        <ele>14.8</ele>
        <time>2022-04-11T15:09:31Z</time>
      </trkpt>
      <trkpt lat="49.94647" lon="2.14271">
        <ele>14.8</ele>
        <time>2022-04-11T15:09:32Z</time>
      </trkpt>
      <trkpt lat="49.94647" lon="2.14271">
        <ele>14.8</ele>
        <time>2022-04-11T15:09:33Z</time>
      </trkpt>
      <trkpt lat="49.94647" lon="2.14268">
        <ele>14.8</ele>
        <time>2022-04-11T15:09:34Z</time>
      </trkpt>
      <trkpt lat="49.94647" lon="2.14266">
        <ele>14.7</ele>
        <time>2022-04-11T15:09:35Z</time>
      </trkpt>
      <trkpt lat="49.94648" lon="2.14265">
        <ele>14.7</ele>
        <time>2022-04-11T15:09:36Z</time>
      </trkpt>
      <trkpt lat="49.94648" lon="2.14265">
        <ele>14.7</ele>
        <time>2022-04-11T15:09:37Z</time>
      </trkpt>
      <trkpt lat="49.94648" lon="2.14266">
        <ele>14.7</ele>
        <time>2022-04-11T15:09:38Z</time>
      </trkpt>
      <trkpt lat="49.94649" lon="2.14266">
        <ele>14.7</ele>
        <time>2022-04-11T15:09:39Z</time>
      </trkpt>
      <trkpt lat="49.94649" lon="2.14267">
        <ele>14.7</ele>
        <time>2022-04-11T15:09:40Z</time>
      </trkpt>
      <trkpt lat="49.94649" lon="2.14268">
        <ele>14.7</ele>
        <time>2022-04-11T15:09:41Z</time>
      </trkpt>
      <trkpt lat="49.94649" lon="2.14268">
        <ele>14.7</ele>
        <time>2022-04-11T15:09:42Z</time>
      </trkpt>
      <trkpt lat="49.94649" lon="2.14269">
        <ele>14.7</ele>
        <time>2022-04-11T15:09:43Z</time>
      </trkpt>
      <trkpt lat="49.94649" lon="2.14269">
        <ele>14.7</ele>
        <time>2022-04-11T15:09:44Z</time>
      </trkpt>
      <trkpt lat="49.94649" lon="2.14269">
        <ele>14.7</ele>
        <time>2022-04-11T15:09:45Z</time>
      </trkpt>
      <trkpt lat="49.94649" lon="2.14269">
        <ele>14.7</ele>
        <time>2022-04-11T15:09:46Z</time>
      </trkpt>
      <trkpt lat="49.94649" lon="2.14269">
        <ele>14.7</ele>
        <time>2022-04-11T15:09:47Z</time>
      </trkpt>
      <trkpt lat="49.94649" lon="2.14269">
        <ele>14.7</ele>
        <time>2022-04-11T15:09:48Z</time>
      </trkpt>
      <trkpt lat="49.94649" lon="2.14269">
        <ele>14.7</ele>
        <time>2022-04-11T15:09:49Z</time>
      </trkpt>
      <trkpt lat="49.94649" lon="2.14269">
        <ele>14.7</ele>
        <time>2022-04-11T15:09:50Z</time>
      </trkpt>
      <trkpt lat="49.94649" lon="2.14269">
        <ele>14.7</ele>
        <time>2022-04-11T15:09:51Z</time>
      </trkpt>
      <trkpt lat="49.94649" lon="2.14269">
        <ele>14.7</ele>
        <time>2022-04-11T15:09:52Z</time>
      </trkpt>
      <trkpt lat="49.94649" lon="2.14269">
        <ele>14.7</ele>
        <time>2022-04-11T15:09:53Z</time>
      </trkpt>
      <trkpt lat="49.94649" lon="2.14269">
        <ele>14.7</ele>
        <time>2022-04-11T15:09:54Z</time>
      </trkpt>
      <trkpt lat="49.94649" lon="2.14269">
        <ele>14.7</ele>
        <time>2022-04-11T15:09:55Z</time>
      </trkpt>
      <trkpt lat="49.94649" lon="2.14269">
        <ele>14.7</ele>
        <time>2022-04-11T15:09:56Z</time>
      </trkpt>
      <trkpt lat="49.94649" lon="2.14269">
        <ele>14.7</ele>
        <time>2022-04-11T15:09:57Z</time>
      </trkpt>
      <trkpt lat="49.94649" lon="2.14269">
        <ele>14.7</ele>
        <time>2022-04-11T15:09:58Z</time>
      </trkpt>
      <trkpt lat="49.94649" lon="2.14269">
        <ele>14.7</ele>
        <time>2022-04-11T15:09:59Z</time>
      </trkpt>
      <trkpt lat="49.94649" lon="2.14269">
        <ele>14.7</ele>
        <time>2022-04-11T15:10:00Z</time>
      </trkpt>
      <trkpt lat="49.94649" lon="2.14269">
        <ele>14.7</ele>
        <time>2022-04-11T15:10:01Z</time>
      </trkpt>
      <trkpt lat="49.94649" lon="2.14269">
        <ele>14.7</ele>
        <time>2022-04-11T15:10:02Z</time>
      </trkpt>
      <trkpt lat="49.94649" lon="2.14269">
        <ele>14.7</ele>
        <time>2022-04-11T15:10:03Z</time>
      </trkpt>
      <trkpt lat="49.94649" lon="2.14269">
        <ele>14.7</ele>
        <time>2022-04-11T15:10:04Z</time>
      </trkpt>
      <trkpt lat="49.94649" lon="2.14269">
        <ele>14.7</ele>
        <time>2022-04-11T15:10:05Z</time>
      </trkpt>
      <trkpt lat="49.94649" lon="2.14268">
        <ele>14.7</ele>
        <time>2022-04-11T15:10:06Z</time>
      </trkpt>
      <trkpt lat="49.94649" lon="2.14268">
        <ele>14.7</ele>
        <time>2022-04-11T15:10:07Z</time>
      </trkpt>
      <trkpt lat="49.94649" lon="2.14267">
        <ele>14.7</ele>
        <time>2022-04-11T15:10:09Z</time>
      </trkpt>
      <trkpt lat="49.94649" lon="2.14266">
        <ele>14.7</ele>
        <time>2022-04-11T15:10:10Z</time>
      </trkpt>
      <trkpt lat="49.94649" lon="2.14266">
        <ele>14.7</ele>
        <time>2022-04-11T15:10:11Z</time>
      </trkpt>
      <trkpt lat="49.94649" lon="2.14264">
        <ele>14.7</ele>
        <time>2022-04-11T15:10:12Z</time>
      </trkpt>
      <trkpt lat="49.94649" lon="2.14263">
        <ele>14.6</ele>
        <time>2022-04-11T15:10:13Z</time>
      </trkpt>
      <trkpt lat="49.94649" lon="2.14262">
        <ele>14.6</ele>
        <time>2022-04-11T15:10:14Z</time>
      </trkpt>
      <trkpt lat="49.94649" lon="2.14261">
        <ele>14.6</ele>
        <time>2022-04-11T15:10:15Z</time>
      </trkpt>
      <trkpt lat="49.94649" lon="2.1426">
        <ele>14.6</ele>
        <time>2022-04-11T15:10:16Z</time>
      </trkpt>
      <trkpt lat="49.94648" lon="2.1426">
        <ele>14.6</ele>
        <time>2022-04-11T15:10:17Z</time>
      </trkpt>
      <trkpt lat="49.94648" lon="2.1426">
        <ele>14.6</ele>
        <time>2022-04-11T15:10:18Z</time>
      </trkpt>
      <trkpt lat="49.94648" lon="2.1426">
        <ele>14.6</ele>
        <time>2022-04-11T15:10:19Z</time>
      </trkpt>
      <trkpt lat="49.94648" lon="2.1426">
        <ele>14.6</ele>
        <time>2022-04-11T15:10:20Z</time>
      </trkpt>
      <trkpt lat="49.94647" lon="2.1426">
        <ele>14.6</ele>
        <time>2022-04-11T15:10:21Z</time>
      </trkpt>
      <trkpt lat="49.94647" lon="2.1426">
        <ele>14.6</ele>
        <time>2022-04-11T15:10:22Z</time>
      </trkpt>
      <trkpt lat="49.94647" lon="2.1426">
        <ele>14.6</ele>
        <time>2022-04-11T15:10:23Z</time>
      </trkpt>
      <trkpt lat="49.94647" lon="2.1426">
        <ele>14.6</ele>
        <time>2022-04-11T15:10:24Z</time>
      </trkpt>
      <trkpt lat="49.94647" lon="2.1426">
        <ele>14.6</ele>
        <time>2022-04-11T15:10:25Z</time>
      </trkpt>
      <trkpt lat="49.94647" lon="2.1426">
        <ele>14.6</ele>
        <time>2022-04-11T15:10:26Z</time>
      </trkpt>
      <trkpt lat="49.94647" lon="2.1426">
        <ele>14.6</ele>
        <time>2022-04-11T15:10:27Z</time>
      </trkpt>
      <trkpt lat="49.94647" lon="2.1426">
        <ele>14.6</ele>
        <time>2022-04-11T15:10:28Z</time>
      </trkpt>
      <trkpt lat="49.94647" lon="2.1426">
        <ele>14.6</ele>
        <time>2022-04-11T15:10:29Z</time>
      </trkpt>
      <trkpt lat="49.94647" lon="2.1426">
        <ele>14.6</ele>
        <time>2022-04-11T15:10:30Z</time>
      </trkpt>
      <trkpt lat="49.94647" lon="2.1426">
        <ele>14.6</ele>
        <time>2022-04-11T15:10:31Z</time>
      </trkpt>
      <trkpt lat="49.94647" lon="2.1426">
        <ele>14.6</ele>
        <time>2022-04-11T15:10:32Z</time>
      </trkpt>
      <trkpt lat="49.94646" lon="2.1426">
        <ele>14.6</ele>
        <time>2022-04-11T15:10:33Z</time>
      </trkpt>
      <trkpt lat="49.94646" lon="2.1426">
        <ele>14.6</ele>
        <time>2022-04-11T15:10:34Z</time>
      </trkpt>
      <trkpt lat="49.94646" lon="2.1426">
        <ele>14.6</ele>
        <time>2022-04-11T15:10:35Z</time>
      </trkpt>
      <trkpt lat="49.94646" lon="2.1426">
        <ele>14.6</ele>
        <time>2022-04-11T15:10:36Z</time>
      </trkpt>
      <trkpt lat="49.94646" lon="2.1426">
        <ele>14.6</ele>
        <time>2022-04-11T15:10:37Z</time>
      </trkpt>
      <trkpt lat="49.94646" lon="2.1426">
        <ele>14.6</ele>
        <time>2022-04-11T15:10:38Z</time>
      </trkpt>
      <trkpt lat="49.94646" lon="2.1426">
        <ele>14.6</ele>
        <time>2022-04-11T15:10:39Z</time>
      </trkpt>
      <trkpt lat="49.94646" lon="2.1426">
        <ele>14.6</ele>
        <time>2022-04-11T15:10:40Z</time>
      </trkpt>
      <trkpt lat="49.94646" lon="2.1426">
        <ele>14.6</ele>
        <time>2022-04-11T15:10:41Z</time>
      </trkpt>
      <trkpt lat="49.94646" lon="2.1426">
        <ele>14.6</ele>
        <time>2022-04-11T15:10:42Z</time>
      </trkpt>
      <trkpt lat="49.94646" lon="2.1426">
        <ele>14.6</ele>
        <time>2022-04-11T15:10:43Z</time>
      </trkpt>
      <trkpt lat="49.94646" lon="2.1426">
        <ele>14.6</ele>
        <time>2022-04-11T15:10:44Z</time>
      </trkpt>
      <trkpt lat="49.94646" lon="2.1426">
        <ele>14.6</ele>
        <time>2022-04-11T15:10:45Z</time>
      </trkpt>
      <trkpt lat="49.94646" lon="2.1426">
        <ele>14.6</ele>
        <time>2022-04-11T15:10:46Z</time>
      </trkpt>
      <trkpt lat="49.94646" lon="2.1426">
        <ele>14.6</ele>
        <time>2022-04-11T15:10:47Z</time>
      </trkpt>
      <trkpt lat="49.94646" lon="2.1426">
        <ele>14.6</ele>
        <time>2022-04-11T15:10:48Z</time>
      </trkpt>
      <trkpt lat="49.94646" lon="2.1426">
        <ele>14.6</ele>
        <time>2022-04-11T15:10:49Z</time>
      </trkpt>
      <trkpt lat="49.94646" lon="2.1426">
        <ele>14.6</ele>
        <time>2022-04-11T15:10:50Z</time>
      </trkpt>
      <trkpt lat="49.94646" lon="2.1426">
        <ele>14.6</ele>
        <time>2022-04-11T15:10:51Z</time>
      </trkpt>
      <trkpt lat="49.94646" lon="2.1426">
        <ele>14.6</ele>
        <time>2022-04-11T15:10:52Z</time>
      </trkpt>
      <trkpt lat="49.94646" lon="2.1426">
        <ele>14.6</ele>
        <time>2022-04-11T15:10:53Z</time>
      </trkpt>
      <trkpt lat="49.94646" lon="2.1426">
        <ele>14.6</ele>
        <time>2022-04-11T15:10:54Z</time>
      </trkpt>
      <trkpt lat="49.94646" lon="2.1426">
        <ele>14.6</ele>
        <time>2022-04-11T15:10:55Z</time>
      </trkpt>
      <trkpt lat="49.94646" lon="2.1426">
        <ele>14.6</ele>
        <time>2022-04-11T15:10:56Z</time>
      </trkpt>
      <trkpt lat="49.94646" lon="2.1426">
        <ele>14.6</ele>
        <time>2022-04-11T15:10:57Z</time>
      </trkpt>
      <trkpt lat="49.94646" lon="2.1426">
        <ele>14.6</ele>
        <time>2022-04-11T15:10:58Z</time>
      </trkpt>
      <trkpt lat="49.94646" lon="2.1426">
        <ele>14.6</ele>
        <time>2022-04-11T15:10:59Z</time>
      </trkpt>
      <trkpt lat="49.94646" lon="2.1426">
        <ele>14.6</ele>
        <time>2022-04-11T15:11:00Z</time>
      </trkpt>
      <trkpt lat="49.94646" lon="2.1426">
        <ele>14.6</ele>
        <time>2022-04-11T15:11:01Z</time>
      </trkpt>
      <trkpt lat="49.94646" lon="2.1426">
        <ele>14.6</ele>
        <time>2022-04-11T15:11:02Z</time>
      </trkpt>
      <trkpt lat="49.94646" lon="2.1426">
        <ele>14.6</ele>
        <time>2022-04-11T15:11:03Z</time>
      </trkpt>
      <trkpt lat="49.94646" lon="2.1426">
        <ele>14.6</ele>
        <time>2022-04-11T15:11:04Z</time>
      </trkpt>
      <trkpt lat="49.94646" lon="2.1426">
        <ele>14.6</ele>
        <time>2022-04-11T15:11:05Z</time>
      </trkpt>
      <trkpt lat="49.94646" lon="2.1426">
        <ele>14.6</ele>
        <time>2022-04-11T15:11:06Z</time>
      </trkpt>
      <trkpt lat="49.94646" lon="2.1426">
        <ele>14.6</ele>
        <time>2022-04-11T15:11:07Z</time>
      </trkpt>
      <trkpt lat="49.94646" lon="2.1426">
        <ele>14.6</ele>
        <time>2022-04-11T15:11:08Z</time>
      </trkpt>
      <trkpt lat="49.94646" lon="2.1426">
        <ele>14.6</ele>
        <time>2022-04-11T15:11:09Z</time>
      </trkpt>
      <trkpt lat="49.94646" lon="2.1426">
        <ele>14.6</ele>
        <time>2022-04-11T15:11:10Z</time>
      </trkpt>
      <trkpt lat="49.94646" lon="2.1426">
        <ele>14.6</ele>
        <time>2022-04-11T15:11:11Z</time>
      </trkpt>
      <trkpt lat="49.94646" lon="2.1426">
        <ele>14.6</ele>
        <time>2022-04-11T15:11:12Z</time>
      </trkpt>
      <trkpt lat="49.94646" lon="2.1426">
        <ele>14.6</ele>
        <time>2022-04-11T15:11:13Z</time>
      </trkpt>
      <trkpt lat="49.94646" lon="2.1426">
        <ele>14.6</ele>
        <time>2022-04-11T15:11:14Z</time>
      </trkpt>
      <trkpt lat="49.94646" lon="2.1426">
        <ele>14.6</ele>
        <time>2022-04-11T15:11:15Z</time>
      </trkpt>
      <trkpt lat="49.94646" lon="2.1426">
        <ele>14.6</ele>
        <time>2022-04-11T15:11:16Z</time>
      </trkpt>
      <trkpt lat="49.94646" lon="2.1426">
        <ele>14.6</ele>
        <time>2022-04-11T15:11:17Z</time>
      </trkpt>
      <trkpt lat="49.94646" lon="2.1426">
        <ele>14.6</ele>
        <time>2022-04-11T15:11:18Z</time>
      </trkpt>
      <trkpt lat="49.94646" lon="2.1426">
        <ele>14.6</ele>
        <time>2022-04-11T15:11:19Z</time>
      </trkpt>
      <trkpt lat="49.94646" lon="2.1426">
        <ele>14.6</ele>
        <time>2022-04-11T15:11:20Z</time>
      </trkpt>
      <trkpt lat="49.94646" lon="2.1426">
        <ele>14.6</ele>
        <time>2022-04-11T15:11:21Z</time>
      </trkpt>
      <trkpt lat="49.94646" lon="2.1426">
        <ele>14.6</ele>
        <time>2022-04-11T15:11:22Z</time>
      </trkpt>
      <trkpt lat="49.94646" lon="2.1426">
        <ele>14.6</ele>
        <time>2022-04-11T15:11:23Z</time>
      </trkpt>
      <trkpt lat="49.94646" lon="2.14262">
        <ele>14.6</ele>
        <time>2022-04-11T15:11:24Z</time>
      </trkpt>
      <trkpt lat="49.94646" lon="2.14263">
        <ele>14.6</ele>
        <time>2022-04-11T15:11:25Z</time>
      </trkpt>
      <trkpt lat="49.94645" lon="2.14264">
        <ele>14.6</ele>
        <time>2022-04-11T15:11:26Z</time>
      </trkpt>
      <trkpt lat="49.94645" lon="2.14265">
        <ele>14.5</ele>
        <time>2022-04-11T15:11:27Z</time>
      </trkpt>
      <trkpt lat="49.94645" lon="2.14266">
        <ele>14.5</ele>
        <time>2022-04-11T15:11:28Z</time>
      </trkpt>
      <trkpt lat="49.94645" lon="2.14266">
        <ele>14.5</ele>
        <time>2022-04-11T15:11:29Z</time>
      </trkpt>
      <trkpt lat="49.94645" lon="2.14267">
        <ele>14.5</ele>
        <time>2022-04-11T15:11:30Z</time>
      </trkpt>
      <trkpt lat="49.94645" lon="2.14267">
        <ele>14.5</ele>
        <time>2022-04-11T15:11:31Z</time>
      </trkpt>
      <trkpt lat="49.94645" lon="2.14267">
        <ele>14.5</ele>
        <time>2022-04-11T15:11:32Z</time>
      </trkpt>
      <trkpt lat="49.94645" lon="2.14267">
        <ele>14.5</ele>
        <time>2022-04-11T15:11:33Z</time>
      </trkpt>
      <trkpt lat="49.94645" lon="2.14267">
        <ele>14.5</ele>
        <time>2022-04-11T15:11:34Z</time>
      </trkpt>
      <trkpt lat="49.94645" lon="2.14268">
        <ele>14.5</ele>
        <time>2022-04-11T15:11:35Z</time>
      </trkpt>
      <trkpt lat="49.94645" lon="2.14268">
        <ele>14.5</ele>
        <time>2022-04-11T15:11:36Z</time>
      </trkpt>
      <trkpt lat="49.94645" lon="2.14267">
        <ele>14.5</ele>
        <time>2022-04-11T15:11:37Z</time>
      </trkpt>
      <trkpt lat="49.94645" lon="2.14267">
        <ele>14.5</ele>
        <time>2022-04-11T15:11:38Z</time>
      </trkpt>
      <trkpt lat="49.94645" lon="2.14267">
        <ele>14.5</ele>
        <time>2022-04-11T15:11:39Z</time>
      </trkpt>
      <trkpt lat="49.94645" lon="2.14267">
        <ele>14.5</ele>
        <time>2022-04-11T15:11:40Z</time>
      </trkpt>
      <trkpt lat="49.94645" lon="2.14267">
        <ele>14.5</ele>
        <time>2022-04-11T15:11:41Z</time>
      </trkpt>
      <trkpt lat="49.94645" lon="2.14267">
        <ele>14.5</ele>
        <time>2022-04-11T15:11:42Z</time>
      </trkpt>
      <trkpt lat="49.94645" lon="2.14267">
        <ele>14.5</ele>
        <time>2022-04-11T15:11:43Z</time>
      </trkpt>
      <trkpt lat="49.94645" lon="2.14267">
        <ele>14.5</ele>
        <time>2022-04-11T15:11:44Z</time>
      </trkpt>
      <trkpt lat="49.94645" lon="2.14267">
        <ele>14.5</ele>
        <time>2022-04-11T15:11:45Z</time>
      </trkpt>
      <trkpt lat="49.94645" lon="2.14267">
        <ele>14.5</ele>
        <time>2022-04-11T15:11:46Z</time>
      </trkpt>
      <trkpt lat="49.94645" lon="2.14267">
        <ele>14.5</ele>
        <time>2022-04-11T15:11:47Z</time>
      </trkpt>
      <trkpt lat="49.94645" lon="2.14267">
        <ele>14.5</ele>
        <time>2022-04-11T15:11:48Z</time>
      </trkpt>
      <trkpt lat="49.94645" lon="2.14267">
        <ele>14.5</ele>
        <time>2022-04-11T15:11:49Z</time>
      </trkpt>
      <trkpt lat="49.94645" lon="2.14267">
        <ele>14.5</ele>
        <time>2022-04-11T15:11:50Z</time>
      </trkpt>
      <trkpt lat="49.94645" lon="2.14267">
        <ele>14.5</ele>
        <time>2022-04-11T15:11:51Z</time>
      </trkpt>
      <trkpt lat="49.94645" lon="2.14267">
        <ele>14.5</ele>
        <time>2022-04-11T15:11:52Z</time>
      </trkpt>
      <trkpt lat="49.94645" lon="2.14267">
        <ele>14.5</ele>
        <time>2022-04-11T15:11:53Z</time>
      </trkpt>
      <trkpt lat="49.94645" lon="2.14267">
        <ele>14.5</ele>
        <time>2022-04-11T15:11:54Z</time>
      </trkpt>
      <trkpt lat="49.94645" lon="2.14267">
        <ele>14.5</ele>
        <time>2022-04-11T15:11:55Z</time>
      </trkpt>
      <trkpt lat="49.94645" lon="2.14267">
        <ele>14.5</ele>
        <time>2022-04-11T15:11:56Z</time>
      </trkpt>
      <trkpt lat="49.94645" lon="2.14267">
        <ele>14.5</ele>
        <time>2022-04-11T15:11:57Z</time>
      </trkpt>
      <trkpt lat="49.94645" lon="2.14267">
        <ele>14.5</ele>
        <time>2022-04-11T15:11:58Z</time>
      </trkpt>
      <trkpt lat="49.94645" lon="2.14267">
        <ele>14.5</ele>
        <time>2022-04-11T15:11:59Z</time>
      </trkpt>
      <trkpt lat="49.94645" lon="2.14267">
        <ele>14.5</ele>
        <time>2022-04-11T15:12:00Z</time>
      </trkpt>
      <trkpt lat="49.94645" lon="2.14267">
        <ele>14.5</ele>
        <time>2022-04-11T15:12:01Z</time>
      </trkpt>
      <trkpt lat="49.94645" lon="2.14267">
        <ele>14.5</ele>
        <time>2022-04-11T15:12:02Z</time>
      </trkpt>
      <trkpt lat="49.94645" lon="2.14267">
        <ele>14.5</ele>
        <time>2022-04-11T15:12:03Z</time>
      </trkpt>
      <trkpt lat="49.94645" lon="2.14267">
        <ele>14.5</ele>
        <time>2022-04-11T15:12:04Z</time>
      </trkpt>
      <trkpt lat="49.94645" lon="2.14267">
        <ele>14.5</ele>
        <time>2022-04-11T15:12:05Z</time>
      </trkpt>
      <trkpt lat="49.94645" lon="2.14267">
        <ele>14.5</ele>
        <time>2022-04-11T15:12:06Z</time>
      </trkpt>
      <trkpt lat="49.94645" lon="2.14267">
        <ele>14.5</ele>
        <time>2022-04-11T15:12:07Z</time>
      </trkpt>
      <trkpt lat="49.94645" lon="2.14267">
        <ele>14.5</ele>
        <time>2022-04-11T15:12:08Z</time>
      </trkpt>
      <trkpt lat="49.94645" lon="2.14267">
        <ele>14.5</ele>
        <time>2022-04-11T15:12:09Z</time>
      </trkpt>
      <trkpt lat="49.94645" lon="2.14267">
        <ele>14.5</ele>
        <time>2022-04-11T15:12:10Z</time>
      </trkpt>
      <trkpt lat="49.94645" lon="2.14267">
        <ele>14.5</ele>
        <time>2022-04-11T15:12:11Z</time>
      </trkpt>
      <trkpt lat="49.94645" lon="2.14267">
        <ele>14.5</ele>
        <time>2022-04-11T15:12:12Z</time>
      </trkpt>
      <trkpt lat="49.94645" lon="2.14267">
        <ele>14.5</ele>
        <time>2022-04-11T15:12:13Z</time>
      </trkpt>
      <trkpt lat="49.94645" lon="2.14267">
        <ele>14.5</ele>
        <time>2022-04-11T15:12:14Z</time>
      </trkpt>
      <trkpt lat="49.94645" lon="2.14267">
        <ele>14.5</ele>
        <time>2022-04-11T15:12:15Z</time>
      </trkpt>
      <trkpt lat="49.94645" lon="2.14267">
        <ele>14.5</ele>
        <time>2022-04-11T15:12:16Z</time>
      </trkpt>
      <trkpt lat="49.94645" lon="2.14266">
        <ele>14.5</ele>
        <time>2022-04-11T15:12:17Z</time>
      </trkpt>
      <trkpt lat="49.94645" lon="2.14266">
        <ele>14.5</ele>
        <time>2022-04-11T15:12:18Z</time>
      </trkpt>
      <trkpt lat="49.94646" lon="2.14266">
        <ele>14.5</ele>
        <time>2022-04-11T15:12:19Z</time>
      </trkpt>
      <trkpt lat="49.94645" lon="2.14267">
        <ele>14.5</ele>
        <time>2022-04-11T15:12:20Z</time>
      </trkpt>
      <trkpt lat="49.94645" lon="2.14267">
        <ele>14.5</ele>
        <time>2022-04-11T15:12:21Z</time>
      </trkpt>
      <trkpt lat="49.94645" lon="2.14267">
        <ele>14.5</ele>
        <time>2022-04-11T15:12:22Z</time>
      </trkpt>
      <trkpt lat="49.94645" lon="2.14267">
        <ele>14.5</ele>
        <time>2022-04-11T15:12:23Z</time>
      </trkpt>
      <trkpt lat="49.94645" lon="2.14268">
        <ele>14.5</ele>
        <time>2022-04-11T15:12:24Z</time>
      </trkpt>
      <trkpt lat="49.94645" lon="2.14267">
        <ele>14.5</ele>
        <time>2022-04-11T15:12:25Z</time>
      </trkpt>
      <trkpt lat="49.94645" lon="2.14267">
        <ele>14.5</ele>
        <time>2022-04-11T15:12:26Z</time>
      </trkpt>
      <trkpt lat="49.94644" lon="2.14267">
        <ele>14.5</ele>
        <time>2022-04-11T15:12:27Z</time>
      </trkpt>
      <trkpt lat="49.94644" lon="2.14267">
        <ele>14.5</ele>
        <time>2022-04-11T15:12:28Z</time>
      </trkpt>
      <trkpt lat="49.94644" lon="2.14267">
        <ele>14.5</ele>
        <time>2022-04-11T15:12:29Z</time>
      </trkpt>
      <trkpt lat="49.94644" lon="2.14267">
        <ele>14.5</ele>
        <time>2022-04-11T15:12:30Z</time>
      </trkpt>
      <trkpt lat="49.94644" lon="2.14267">
        <ele>14.5</ele>
        <time>2022-04-11T15:12:31Z</time>
      </trkpt>
      <trkpt lat="49.94644" lon="2.14267">
        <ele>14.5</ele>
        <time>2022-04-11T15:12:32Z</time>
      </trkpt>
      <trkpt lat="49.94644" lon="2.14267">
        <ele>14.5</ele>
        <time>2022-04-11T15:12:33Z</time>
      </trkpt>
      <trkpt lat="49.94644" lon="2.14267">
        <ele>14.5</ele>
        <time>2022-04-11T15:12:34Z</time>
      </trkpt>
      <trkpt lat="49.94644" lon="2.14267">
        <ele>14.5</ele>
        <time>2022-04-11T15:12:35Z</time>
      </trkpt>
      <trkpt lat="49.94644" lon="2.14267">
        <ele>14.5</ele>
        <time>2022-04-11T15:12:36Z</time>
      </trkpt>
      <trkpt lat="49.94645" lon="2.14267">
        <ele>14.5</ele>
        <time>2022-04-11T15:12:37Z</time>
      </trkpt>
      <trkpt lat="49.94645" lon="2.14267">
        <ele>14.5</ele>
        <time>2022-04-11T15:12:38Z</time>
      </trkpt>
      <trkpt lat="49.94645" lon="2.14267">
        <ele>14.5</ele>
        <time>2022-04-11T15:12:39Z</time>
      </trkpt>
      <trkpt lat="49.94645" lon="2.14267">
        <ele>14.5</ele>
        <time>2022-04-11T15:12:40Z</time>
      </trkpt>
      <trkpt lat="49.94645" lon="2.14267">
        <ele>14.5</ele>
        <time>2022-04-11T15:12:41Z</time>
      </trkpt>
      <trkpt lat="49.94645" lon="2.14267">
        <ele>14.5</ele>
        <time>2022-04-11T15:12:42Z</time>
      </trkpt>
      <trkpt lat="49.94645" lon="2.14267">
        <ele>14.5</ele>
        <time>2022-04-11T15:12:43Z</time>
      </trkpt>
      <trkpt lat="49.94645" lon="2.14267">
        <ele>14.5</ele>
        <time>2022-04-11T15:12:44Z</time>
      </trkpt>
      <trkpt lat="49.94645" lon="2.14267">
        <ele>14.5</ele>
        <time>2022-04-11T15:12:45Z</time>
      </trkpt>
      <trkpt lat="49.94645" lon="2.14267">
        <ele>14.5</ele>
        <time>2022-04-11T15:12:46Z</time>
      </trkpt>
      <trkpt lat="49.94646" lon="2.14267">
        <ele>14.5</ele>
        <time>2022-04-11T15:12:47Z</time>
      </trkpt>
      <trkpt lat="49.94646" lon="2.14267">
        <ele>14.5</ele>
        <time>2022-04-11T15:12:48Z</time>
      </trkpt>
      <trkpt lat="49.94646" lon="2.14267">
        <ele>14.5</ele>
        <time>2022-04-11T15:12:49Z</time>
      </trkpt>
      <trkpt lat="49.94646" lon="2.14267">
        <ele>14.5</ele>
        <time>2022-04-11T15:12:50Z</time>
      </trkpt>
      <trkpt lat="49.94646" lon="2.14266">
        <ele>14.4</ele>
        <time>2022-04-11T15:12:51Z</time>
      </trkpt>
      <trkpt lat="49.94647" lon="2.14266">
        <ele>14.4</ele>
        <time>2022-04-11T15:12:52Z</time>
      </trkpt>
      <trkpt lat="49.94647" lon="2.14266">
        <ele>14.4</ele>
        <time>2022-04-11T15:12:53Z</time>
      </trkpt>
      <trkpt lat="49.94648" lon="2.14266">
        <ele>14.4</ele>
        <time>2022-04-11T15:12:54Z</time>
      </trkpt>
      <trkpt lat="49.94648" lon="2.14266">
        <ele>14.4</ele>
        <time>2022-04-11T15:12:55Z</time>
      </trkpt>
      <trkpt lat="49.94648" lon="2.14266">
        <ele>14.4</ele>
        <time>2022-04-11T15:12:56Z</time>
      </trkpt>
      <trkpt lat="49.94648" lon="2.14266">
        <ele>14.4</ele>
        <time>2022-04-11T15:12:57Z</time>
      </trkpt>
      <trkpt lat="49.94648" lon="2.14266">
        <ele>14.4</ele>
        <time>2022-04-11T15:12:58Z</time>
      </trkpt>
      <trkpt lat="49.94648" lon="2.14266">
        <ele>14.4</ele>
        <time>2022-04-11T15:12:59Z</time>
      </trkpt>
      <trkpt lat="49.94648" lon="2.14266">
        <ele>14.4</ele>
        <time>2022-04-11T15:13:00Z</time>
      </trkpt>
      <trkpt lat="49.94649" lon="2.14266">
        <ele>14.4</ele>
        <time>2022-04-11T15:13:01Z</time>
      </trkpt>
      <trkpt lat="49.94649" lon="2.14266">
        <ele>14.4</ele>
        <time>2022-04-11T15:13:02Z</time>
      </trkpt>
      <trkpt lat="49.94649" lon="2.14266">
        <ele>14.4</ele>
        <time>2022-04-11T15:13:03Z</time>
      </trkpt>
      <trkpt lat="49.94649" lon="2.14266">
        <ele>14.4</ele>
        <time>2022-04-11T15:13:04Z</time>
      </trkpt>
      <trkpt lat="49.94649" lon="2.14266">
        <ele>14.4</ele>
        <time>2022-04-11T15:13:05Z</time>
      </trkpt>
      <trkpt lat="49.94649" lon="2.14266">
        <ele>14.4</ele>
        <time>2022-04-11T15:13:06Z</time>
      </trkpt>
      <trkpt lat="49.94649" lon="2.14266">
        <ele>14.4</ele>
        <time>2022-04-11T15:13:07Z</time>
      </trkpt>
      <trkpt lat="49.94648" lon="2.14265">
        <ele>14.4</ele>
        <time>2022-04-11T15:13:08Z</time>
      </trkpt>
      <trkpt lat="49.94648" lon="2.14265">
        <ele>14.4</ele>
        <time>2022-04-11T15:13:09Z</time>
      </trkpt>
      <trkpt lat="49.94648" lon="2.14265">
        <ele>14.4</ele>
        <time>2022-04-11T15:13:10Z</time>
      </trkpt>
      <trkpt lat="49.94649" lon="2.14265">
        <ele>14.4</ele>
        <time>2022-04-11T15:13:11Z</time>
      </trkpt>
      <trkpt lat="49.94649" lon="2.14266">
        <ele>14.4</ele>
        <time>2022-04-11T15:13:12Z</time>
      </trkpt>
      <trkpt lat="49.9465" lon="2.14267">
        <ele>14.4</ele>
        <time>2022-04-11T15:13:13Z</time>
      </trkpt>
      <trkpt lat="49.94651" lon="2.14266">
        <ele>14.4</ele>
        <time>2022-04-11T15:13:14Z</time>
      </trkpt>
      <trkpt lat="49.94652" lon="2.14266">
        <ele>14.3</ele>
        <time>2022-04-11T15:13:15Z</time>
      </trkpt>
      <trkpt lat="49.94652" lon="2.14265">
        <ele>14.3</ele>
        <time>2022-04-11T15:13:16Z</time>
      </trkpt>
      <trkpt lat="49.94651" lon="2.14265">
        <ele>14.3</ele>
        <time>2022-04-11T15:13:17Z</time>
      </trkpt>
      <trkpt lat="49.94651" lon="2.14265">
        <ele>14.3</ele>
        <time>2022-04-11T15:13:18Z</time>
      </trkpt>
      <trkpt lat="49.94651" lon="2.14264">
        <ele>14.3</ele>
        <time>2022-04-11T15:13:19Z</time>
      </trkpt>
      <trkpt lat="49.9465" lon="2.14264">
        <ele>14.3</ele>
        <time>2022-04-11T15:13:20Z</time>
      </trkpt>
      <trkpt lat="49.9465" lon="2.14265">
        <ele>14.3</ele>
        <time>2022-04-11T15:13:21Z</time>
      </trkpt>
      <trkpt lat="49.94649" lon="2.14265">
        <ele>14.3</ele>
        <time>2022-04-11T15:13:22Z</time>
      </trkpt>
      <trkpt lat="49.94649" lon="2.14265">
        <ele>14.3</ele>
        <time>2022-04-11T15:13:23Z</time>
      </trkpt>
      <trkpt lat="49.94649" lon="2.14265">
        <ele>14.3</ele>
        <time>2022-04-11T15:13:24Z</time>
      </trkpt>
      <trkpt lat="49.94648" lon="2.14264">
        <ele>14.3</ele>
        <time>2022-04-11T15:13:25Z</time>
      </trkpt>
      <trkpt lat="49.94648" lon="2.14264">
        <ele>14.3</ele>
        <time>2022-04-11T15:13:26Z</time>
      </trkpt>
      <trkpt lat="49.94648" lon="2.14264">
        <ele>14.3</ele>
        <time>2022-04-11T15:13:27Z</time>
      </trkpt>
      <trkpt lat="49.94649" lon="2.14264">
        <ele>14.3</ele>
        <time>2022-04-11T15:13:28Z</time>
      </trkpt>
      <trkpt lat="49.94649" lon="2.14264">
        <ele>14.3</ele>
        <time>2022-04-11T15:13:29Z</time>
      </trkpt>
      <trkpt lat="49.9465" lon="2.14266">
        <ele>14.3</ele>
        <time>2022-04-11T15:13:30Z</time>
      </trkpt>
      <trkpt lat="49.9465" lon="2.14267">
        <ele>14.3</ele>
        <time>2022-04-11T15:13:31Z</time>
      </trkpt>
      <trkpt lat="49.9465" lon="2.14267">
        <ele>14.3</ele>
        <time>2022-04-11T15:13:32Z</time>
      </trkpt>
      <trkpt lat="49.94651" lon="2.14267">
        <ele>14.2</ele>
        <time>2022-04-11T15:13:33Z</time>
      </trkpt>
      <trkpt lat="49.94651" lon="2.14267">
        <ele>14.2</ele>
        <time>2022-04-11T15:13:34Z</time>
      </trkpt>
      <trkpt lat="49.94651" lon="2.14267">
        <ele>14.2</ele>
        <time>2022-04-11T15:13:35Z</time>
      </trkpt>
      <trkpt lat="49.94651" lon="2.14268">
        <ele>14.2</ele>
        <time>2022-04-11T15:13:36Z</time>
      </trkpt>
      <trkpt lat="49.94651" lon="2.14268">
        <ele>14.2</ele>
        <time>2022-04-11T15:13:37Z</time>
      </trkpt>
      <trkpt lat="49.94651" lon="2.14268">
        <ele>14.2</ele>
        <time>2022-04-11T15:13:38Z</time>
      </trkpt>
      <trkpt lat="49.94651" lon="2.14268">
        <ele>14.2</ele>
        <time>2022-04-11T15:13:39Z</time>
      </trkpt>
      <trkpt lat="49.94651" lon="2.14268">
        <ele>14.2</ele>
        <time>2022-04-11T15:13:40Z</time>
      </trkpt>
      <trkpt lat="49.94651" lon="2.14268">
        <ele>14.2</ele>
        <time>2022-04-11T15:13:41Z</time>
      </trkpt>
      <trkpt lat="49.94651" lon="2.14268">
        <ele>14.2</ele>
        <time>2022-04-11T15:13:42Z</time>
      </trkpt>
      <trkpt lat="49.94651" lon="2.14268">
        <ele>14.2</ele>
        <time>2022-04-11T15:13:43Z</time>
      </trkpt>
      <trkpt lat="49.94651" lon="2.14268">
        <ele>14.2</ele>
        <time>2022-04-11T15:13:44Z</time>
      </trkpt>
      <trkpt lat="49.94651" lon="2.14268">
        <ele>14.2</ele>
        <time>2022-04-11T15:13:45Z</time>
      </trkpt>
      <trkpt lat="49.94651" lon="2.14268">
        <ele>14.2</ele>
        <time>2022-04-11T15:13:46Z</time>
      </trkpt>
      <trkpt lat="49.94651" lon="2.14268">
        <ele>14.2</ele>
        <time>2022-04-11T15:13:47Z</time>
      </trkpt>
      <trkpt lat="49.94651" lon="2.14268">
        <ele>14.2</ele>
        <time>2022-04-11T15:13:48Z</time>
      </trkpt>
      <trkpt lat="49.94651" lon="2.14268">
        <ele>14.2</ele>
        <time>2022-04-11T15:13:49Z</time>
      </trkpt>
      <trkpt lat="49.94651" lon="2.14268">
        <ele>14.2</ele>
        <time>2022-04-11T15:13:50Z</time>
      </trkpt>
      <trkpt lat="49.94651" lon="2.14268">
        <ele>14.2</ele>
        <time>2022-04-11T15:13:51Z</time>
      </trkpt>
      <trkpt lat="49.94651" lon="2.14268">
        <ele>14.2</ele>
        <time>2022-04-11T15:13:52Z</time>
      </trkpt>
      <trkpt lat="49.94651" lon="2.14268">
        <ele>14.2</ele>
        <time>2022-04-11T15:13:53Z</time>
      </trkpt>
      <trkpt lat="49.94651" lon="2.14268">
        <ele>14.2</ele>
        <time>2022-04-11T15:13:54Z</time>
      </trkpt>
      <trkpt lat="49.94651" lon="2.14268">
        <ele>14.2</ele>
        <time>2022-04-11T15:13:55Z</time>
      </trkpt>
      <trkpt lat="49.94651" lon="2.14268">
        <ele>14.2</ele>
        <time>2022-04-11T15:13:56Z</time>
      </trkpt>
      <trkpt lat="49.9465" lon="2.14267">
        <ele>14.2</ele>
        <time>2022-04-11T15:13:57Z</time>
      </trkpt>
      <trkpt lat="49.9465" lon="2.14267">
        <ele>14.2</ele>
        <time>2022-04-11T15:13:58Z</time>
      </trkpt>
      <trkpt lat="49.94649" lon="2.14266">
        <ele>14.2</ele>
        <time>2022-04-11T15:13:59Z</time>
      </trkpt>
      <trkpt lat="49.94649" lon="2.14266">
        <ele>14.2</ele>
        <time>2022-04-11T15:14:00Z</time>
      </trkpt>
      <trkpt lat="49.94649" lon="2.14266">
        <ele>14.2</ele>
        <time>2022-04-11T15:14:01Z</time>
      </trkpt>
      <trkpt lat="49.94649" lon="2.14266">
        <ele>14.2</ele>
        <time>2022-04-11T15:14:02Z</time>
      </trkpt>
      <trkpt lat="49.94649" lon="2.14266">
        <ele>14.2</ele>
        <time>2022-04-11T15:14:03Z</time>
      </trkpt>
      <trkpt lat="49.94649" lon="2.14266">
        <ele>14.2</ele>
        <time>2022-04-11T15:14:04Z</time>
      </trkpt>
      <trkpt lat="49.94649" lon="2.14266">
        <ele>14.2</ele>
        <time>2022-04-11T15:14:05Z</time>
      </trkpt>
      <trkpt lat="49.94649" lon="2.14266">
        <ele>14.2</ele>
        <time>2022-04-11T15:14:06Z</time>
      </trkpt>
      <trkpt lat="49.94649" lon="2.14266">
        <ele>14.2</ele>
        <time>2022-04-11T15:14:07Z</time>
      </trkpt>
      <trkpt lat="49.94649" lon="2.14266">
        <ele>14.2</ele>
        <time>2022-04-11T15:14:08Z</time>
      </trkpt>
      <trkpt lat="49.94649" lon="2.14266">
        <ele>14.2</ele>
        <time>2022-04-11T15:14:09Z</time>
      </trkpt>
      <trkpt lat="49.94649" lon="2.14266">
        <ele>14.2</ele>
        <time>2022-04-11T15:14:10Z</time>
      </trkpt>
      <trkpt lat="49.94649" lon="2.14266">
        <ele>14.2</ele>
        <time>2022-04-11T15:14:11Z</time>
      </trkpt>
      <trkpt lat="49.94649" lon="2.14266">
        <ele>14.2</ele>
        <time>2022-04-11T15:14:12Z</time>
      </trkpt>
      <trkpt lat="49.94649" lon="2.14266">
        <ele>14.2</ele>
        <time>2022-04-11T15:14:13Z</time>
      </trkpt>
      <trkpt lat="49.94649" lon="2.14266">
        <ele>14.2</ele>
        <time>2022-04-11T15:14:14Z</time>
      </trkpt>
      <trkpt lat="49.94649" lon="2.14266">
        <ele>14.2</ele>
        <time>2022-04-11T15:14:15Z</time>
      </trkpt>
      <trkpt lat="49.94649" lon="2.14266">
        <ele>14.2</ele>
        <time>2022-04-11T15:14:16Z</time>
      </trkpt>
      <trkpt lat="49.94649" lon="2.14266">
        <ele>14.2</ele>
        <time>2022-04-11T15:14:17Z</time>
      </trkpt>
      <trkpt lat="49.94649" lon="2.14266">
        <ele>14.2</ele>
        <time>2022-04-11T15:14:18Z</time>
      </trkpt>
      <trkpt lat="49.94649" lon="2.14266">
        <ele>14.2</ele>
        <time>2022-04-11T15:14:19Z</time>
      </trkpt>
      <trkpt lat="49.94649" lon="2.14266">
        <ele>14.2</ele>
        <time>2022-04-11T15:14:20Z</time>
      </trkpt>
      <trkpt lat="49.94649" lon="2.14266">
        <ele>14.2</ele>
        <time>2022-04-11T15:14:21Z</time>
      </trkpt>
      <trkpt lat="49.94649" lon="2.14266">
        <ele>14.2</ele>
        <time>2022-04-11T15:14:22Z</time>
      </trkpt>
      <trkpt lat="49.94649" lon="2.14266">
        <ele>14.2</ele>
        <time>2022-04-11T15:14:23Z</time>
      </trkpt>
      <trkpt lat="49.94649" lon="2.14266">
        <ele>14.2</ele>
        <time>2022-04-11T15:14:24Z</time>
      </trkpt>
      <trkpt lat="49.94649" lon="2.14266">
        <ele>14.2</ele>
        <time>2022-04-11T15:14:25Z</time>
      </trkpt>
      <trkpt lat="49.94649" lon="2.14266">
        <ele>14.2</ele>
        <time>2022-04-11T15:14:26Z</time>
      </trkpt>
      <trkpt lat="49.94649" lon="2.14266">
        <ele>14.2</ele>
        <time>2022-04-11T15:14:27Z</time>
      </trkpt>
      <trkpt lat="49.94649" lon="2.14266">
        <ele>14.2</ele>
        <time>2022-04-11T15:14:28Z</time>
      </trkpt>
      <trkpt lat="49.94649" lon="2.14266">
        <ele>14.2</ele>
        <time>2022-04-11T15:14:29Z</time>
      </trkpt>
      <trkpt lat="49.94649" lon="2.14266">
        <ele>14.2</ele>
        <time>2022-04-11T15:14:30Z</time>
      </trkpt>
      <trkpt lat="49.94649" lon="2.14266">
        <ele>14.2</ele>
        <time>2022-04-11T15:14:31Z</time>
      </trkpt>
      <trkpt lat="49.94649" lon="2.14266">
        <ele>14.2</ele>
        <time>2022-04-11T15:14:32Z</time>
      </trkpt>
      <trkpt lat="49.94649" lon="2.14266">
        <ele>14.2</ele>
        <time>2022-04-11T15:14:33Z</time>
      </trkpt>
      <trkpt lat="49.94649" lon="2.14266">
        <ele>14.2</ele>
        <time>2022-04-11T15:14:34Z</time>
      </trkpt>
      <trkpt lat="49.94649" lon="2.14266">
        <ele>14.2</ele>
        <time>2022-04-11T15:14:35Z</time>
      </trkpt>
      <trkpt lat="49.94649" lon="2.14266">
        <ele>14.2</ele>
        <time>2022-04-11T15:14:36Z</time>
      </trkpt>
      <trkpt lat="49.94649" lon="2.14266">
        <ele>14.2</ele>
        <time>2022-04-11T15:14:37Z</time>
      </trkpt>
      <trkpt lat="49.94649" lon="2.14266">
        <ele>14.2</ele>
        <time>2022-04-11T15:14:38Z</time>
      </trkpt>
      <trkpt lat="49.94649" lon="2.14266">
        <ele>14.2</ele>
        <time>2022-04-11T15:14:39Z</time>
      </trkpt>
      <trkpt lat="49.94649" lon="2.14266">
        <ele>14.2</ele>
        <time>2022-04-11T15:14:40Z</time>
      </trkpt>
      <trkpt lat="49.94649" lon="2.14266">
        <ele>14.2</ele>
        <time>2022-04-11T15:14:41Z</time>
      </trkpt>
      <trkpt lat="49.94649" lon="2.14266">
        <ele>14.2</ele>
        <time>2022-04-11T15:14:42Z</time>
      </trkpt>
      <trkpt lat="49.94649" lon="2.14266">
        <ele>14.2</ele>
        <time>2022-04-11T15:14:43Z</time>
      </trkpt>
      <trkpt lat="49.94649" lon="2.14266">
        <ele>14.2</ele>
        <time>2022-04-11T15:14:44Z</time>
      </trkpt>
      <trkpt lat="49.94649" lon="2.14266">
        <ele>14.2</ele>
        <time>2022-04-11T15:14:45Z</time>
      </trkpt>
      <trkpt lat="49.94649" lon="2.14266">
        <ele>14.2</ele>
        <time>2022-04-11T15:14:46Z</time>
      </trkpt>
      <trkpt lat="49.94649" lon="2.14266">
        <ele>14.2</ele>
        <time>2022-04-11T15:14:47Z</time>
      </trkpt>
      <trkpt lat="49.94649" lon="2.14266">
        <ele>14.2</ele>
        <time>2022-04-11T15:14:48Z</time>
      </trkpt>
      <trkpt lat="49.94649" lon="2.14266">
        <ele>14.2</ele>
        <time>2022-04-11T15:14:49Z</time>
      </trkpt>
      <trkpt lat="49.94649" lon="2.14266">
        <ele>14.2</ele>
        <time>2022-04-11T15:14:50Z</time>
      </trkpt>
      <trkpt lat="49.94649" lon="2.14266">
        <ele>14.2</ele>
        <time>2022-04-11T15:14:51Z</time>
      </trkpt>
      <trkpt lat="49.94649" lon="2.14266">
        <ele>14.2</ele>
        <time>2022-04-11T15:14:52Z</time>
      </trkpt>
      <trkpt lat="49.94649" lon="2.14266">
        <ele>14.2</ele>
        <time>2022-04-11T15:14:53Z</time>
      </trkpt>
      <trkpt lat="49.94649" lon="2.14266">
        <ele>14.2</ele>
        <time>2022-04-11T15:14:54Z</time>
      </trkpt>
      <trkpt lat="49.94649" lon="2.14266">
        <ele>14.2</ele>
        <time>2022-04-11T15:14:55Z</time>
      </trkpt>
      <trkpt lat="49.94649" lon="2.14266">
        <ele>14.2</ele>
        <time>2022-04-11T15:14:56Z</time>
      </trkpt>
      <trkpt lat="49.94649" lon="2.14266">
        <ele>14.2</ele>
        <time>2022-04-11T15:14:57Z</time>
      </trkpt>
      <trkpt lat="49.94649" lon="2.14266">
        <ele>14.2</ele>
        <time>2022-04-11T15:14:58Z</time>
      </trkpt>
      <trkpt lat="49.94649" lon="2.14266">
        <ele>14.2</ele>
        <time>2022-04-11T15:14:59Z</time>
      </trkpt>
      <trkpt lat="49.94649" lon="2.14266">
        <ele>14.2</ele>
        <time>2022-04-11T15:15:00Z</time>
      </trkpt>
      <trkpt lat="49.94649" lon="2.14266">
        <ele>14.2</ele>
        <time>2022-04-11T15:15:01Z</time>
      </trkpt>
      <trkpt lat="49.94649" lon="2.14266">
        <ele>14.2</ele>
        <time>2022-04-11T15:15:02Z</time>
      </trkpt>
      <trkpt lat="49.94649" lon="2.14266">
        <ele>14.2</ele>
        <time>2022-04-11T15:15:03Z</time>
      </trkpt>
      <trkpt lat="49.94649" lon="2.14266">
        <ele>14.2</ele>
        <time>2022-04-11T15:15:04Z</time>
      </trkpt>
      <trkpt lat="49.94649" lon="2.14266">
        <ele>14.2</ele>
        <time>2022-04-11T15:15:05Z</time>
      </trkpt>
      <trkpt lat="49.94649" lon="2.14266">
        <ele>14.2</ele>
        <time>2022-04-11T15:15:06Z</time>
      </trkpt>
      <trkpt lat="49.94649" lon="2.14266">
        <ele>14.2</ele>
        <time>2022-04-11T15:15:07Z</time>
      </trkpt>
      <trkpt lat="49.94649" lon="2.14266">
        <ele>14.2</ele>
        <time>2022-04-11T15:15:08Z</time>
      </trkpt>
      <trkpt lat="49.94649" lon="2.14266">
        <ele>14.2</ele>
        <time>2022-04-11T15:15:09Z</time>
      </trkpt>
      <trkpt lat="49.94649" lon="2.14266">
        <ele>14.2</ele>
        <time>2022-04-11T15:15:10Z</time>
      </trkpt>
      <trkpt lat="49.94649" lon="2.14266">
        <ele>14.2</ele>
        <time>2022-04-11T15:15:11Z</time>
      </trkpt>
      <trkpt lat="49.94649" lon="2.14266">
        <ele>14.2</ele>
        <time>2022-04-11T15:15:12Z</time>
      </trkpt>
      <trkpt lat="49.94649" lon="2.14266">
        <ele>14.2</ele>
        <time>2022-04-11T15:15:13Z</time>
      </trkpt>
      <trkpt lat="49.94649" lon="2.14266">
        <ele>14.2</ele>
        <time>2022-04-11T15:15:14Z</time>
      </trkpt>
      <trkpt lat="49.94649" lon="2.14266">
        <ele>14.2</ele>
        <time>2022-04-11T15:15:15Z</time>
      </trkpt>
      <trkpt lat="49.94649" lon="2.14266">
        <ele>14.2</ele>
        <time>2022-04-11T15:15:16Z</time>
      </trkpt>
      <trkpt lat="49.94649" lon="2.14266">
        <ele>14.2</ele>
        <time>2022-04-11T15:15:17Z</time>
      </trkpt>
      <trkpt lat="49.94649" lon="2.14266">
        <ele>14.2</ele>
        <time>2022-04-11T15:15:18Z</time>
      </trkpt>
      <trkpt lat="49.94649" lon="2.14266">
        <ele>14.2</ele>
        <time>2022-04-11T15:15:19Z</time>
      </trkpt>
      <trkpt lat="49.94649" lon="2.14266">
        <ele>14.2</ele>
        <time>2022-04-11T15:15:20Z</time>
      </trkpt>
      <trkpt lat="49.94649" lon="2.14266">
        <ele>14.2</ele>
        <time>2022-04-11T15:15:21Z</time>
      </trkpt>
      <trkpt lat="49.94649" lon="2.14266">
        <ele>14.2</ele>
        <time>2022-04-11T15:15:22Z</time>
      </trkpt>
      <trkpt lat="49.94649" lon="2.14266">
        <ele>14.2</ele>
        <time>2022-04-11T15:15:23Z</time>
      </trkpt>
      <trkpt lat="49.94649" lon="2.14266">
        <ele>14.2</ele>
        <time>2022-04-11T15:15:24Z</time>
      </trkpt>
      <trkpt lat="49.94649" lon="2.14266">
        <ele>14.2</ele>
        <time>2022-04-11T15:15:25Z</time>
      </trkpt>
      <trkpt lat="49.94649" lon="2.14266">
        <ele>14.2</ele>
        <time>2022-04-11T15:15:26Z</time>
      </trkpt>
      <trkpt lat="49.94649" lon="2.14266">
        <ele>14.2</ele>
        <time>2022-04-11T15:15:27Z</time>
      </trkpt>
      <trkpt lat="49.94649" lon="2.14266">
        <ele>14.2</ele>
        <time>2022-04-11T15:15:28Z</time>
      </trkpt>
      <trkpt lat="49.94649" lon="2.14266">
        <ele>14.2</ele>
        <time>2022-04-11T15:15:29Z</time>
      </trkpt>
      <trkpt lat="49.94649" lon="2.14266">
        <ele>14.2</ele>
        <time>2022-04-11T15:15:30Z</time>
      </trkpt>
    </trkseg>
  </trk>
</gpx>